Raw Data From Station

Date Time Current Temp Hourly Low / High Today’s Low / High Pressure Humidity Rain
02/22/2017 04:02 AM 43.2°F 43.0°F / 43.2°F 41.7°F / 45.3°F 30.03 inHg 61% 0.00″
02/22/2017 03:02 AM 42.3°F 42.3°F / 42.3°F 42.3°F / 45.3°F 30.04 inHg 61% 0.00″
02/22/2017 02:02 AM 44.2°F 44.1°F / 44.2°F 44.1°F / 45.3°F 30.06 inHg 51% 0.00″
02/22/2017 01:01 AM 44.6°F 44.6°F / 44.8°F 44.2°F / 45.3°F 30.09 inHg 51% 0.00″
02/22/2017 12:01 AM 44.4°F 44.4°F / 44.4°F 44.4°F / 44.4°F 30.11 inHg 55% 0.00″
02/21/2017 11:01 PM 44.2°F 44.2°F / 44.2°F 35.1°F / 63.0°F 30.12 inHg 57% 0.00″
02/21/2017 10:01 PM 43.3°F 43.3°F / 43.3°F 35.1°F / 63.0°F 30.14 inHg 58% 0.00″
02/21/2017 09:01 PM 43.3°F 43.3°F / 43.5°F 35.1°F / 63.0°F 30.14 inHg 60% 0.00″
02/21/2017 08:00 PM 44.4°F 44.4°F / 44.4°F 35.1°F / 63.0°F 30.14 inHg 53% 0.00″
02/21/2017 07:00 PM 46.0°F 46.0°F / 46.0°F 35.1°F / 63.0°F 30.14 inHg 57% 0.00″
02/21/2017 06:00 PM 51.6°F 51.6°F / 51.6°F 35.1°F / 63.0°F 30.14 inHg 50% 0.00″
02/21/2017 05:00 PM 59.5°F 59.5°F / 59.5°F 35.1°F / 63.0°F 30.13 inHg 36% 0.00″
02/21/2017 04:00 PM 61.9°F 0.0°F / 0.0°F 35.1°F / 63.0°F 30.14 inHg 35% 0.00″
02/21/2017 03:00 PM 62.1°F 0.0°F / 0.0°F 35.1°F / 63.0°F 30.14 inHg 35% 0.00″
02/21/2017 02:00 PM 60.1°F 60.1°F / 60.1°F 35.1°F / 60.6°F 30.17 inHg 38% 0.00″
02/21/2017 01:00 PM 59.4°F 0.0°F / 0.0°F 35.1°F / 59.5°F 30.20 inHg 38% 0.00″
02/21/2017 12:00 PM 58.3°F 58.3°F / 58.3°F 35.1°F / 58.3°F 30.23 inHg 41% 0.00″
02/21/2017 11:00 AM 55.9°F 0.0°F / 0.0°F 35.1°F / 56.5°F 30.26 inHg 42% 0.00″
02/21/2017 10:00 AM 55.0°F 55.0°F / 55.0°F 35.1°F / 55.0°F 30.27 inHg 43% 0.00″
02/21/2017 09:00 AM 49.8°F 0.0°F / 0.0°F 35.1°F / 49.8°F 30.28 inHg 50% 0.00″
02/21/2017 08:00 AM 41.9°F 0.0°F / 0.0°F 35.1°F / 41.9°F 30.28 inHg 61% 0.00″
02/21/2017 07:00 AM 39.0°F 0.0°F / 0.0°F 35.1°F / 39.6°F 30.26 inHg 66% 0.00″
02/21/2017 06:00 AM 39.4°F 0.0°F / 0.0°F 35.1°F / 39.4°F 30.25 inHg 66% 0.00″
02/21/2017 04:59 AM 38.3°F 36.7°F / 38.5°F 35.1°F / 38.5°F 30.27 inHg 64% 0.00″
02/21/2017 03:59 AM 36.5°F 35.1°F / 36.5°F 35.1°F / 36.7°F 30.27 inHg 68% 0.00″
02/21/2017 02:59 AM 35.2°F 35.2°F / 36.0°F 35.2°F / 36.7°F 30.28 inHg 67% 0.00″
02/21/2017 01:59 AM 35.4°F 35.2°F / 35.6°F 35.2°F / 36.7°F 30.28 inHg 67% 0.00″
02/21/2017 12:59 AM 35.4°F 35.4°F / 36.7°F 35.4°F / 36.7°F 30.28 inHg 65% 0.00″
02/20/2017 11:59 PM 35.4°F 35.2°F / 36.9°F 29.8°F / 54.3°F 30.27 inHg 66% 0.00″
02/20/2017 10:59 PM 36.3°F 35.8°F / 36.3°F 29.8°F / 54.3°F 30.27 inHg 61% 0.00″
02/20/2017 09:59 PM 35.6°F 35.4°F / 36.1°F 29.8°F / 54.3°F 30.27 inHg 60% 0.00″
02/20/2017 08:58 PM 36.0°F 36.0°F / 37.9°F 29.8°F / 54.3°F 30.24 inHg 59% 0.00″
02/20/2017 07:58 PM 38.1°F 38.1°F / 40.1°F 29.8°F / 54.3°F 30.22 inHg 55% 0.00″
02/20/2017 06:58 PM 40.3°F 40.3°F / 47.3°F 29.8°F / 54.3°F 30.22 inHg 55% 0.00″
02/20/2017 05:58 PM 47.5°F 47.5°F / 52.2°F 29.8°F / 54.3°F 30.20 inHg 41% 0.00″
02/20/2017 04:58 PM 52.2°F 51.8°F / 54.1°F 29.8°F / 54.3°F 30.20 inHg 37% 0.00″
02/20/2017 03:58 PM 53.2°F 52.3°F / 54.3°F 29.8°F / 54.3°F 30.18 inHg 35% 0.00″
02/20/2017 02:58 PM 52.5°F 51.6°F / 54.0°F 29.8°F / 54.0°F 30.17 inHg 38% 0.00″
02/20/2017 01:58 PM 52.0°F 49.3°F / 52.5°F 29.8°F / 52.5°F 30.17 inHg 44% 0.00″
02/20/2017 12:58 PM 50.0°F 46.2°F / 50.0°F 29.8°F / 50.0°F 30.15 inHg 46% 0.00″
02/20/2017 11:58 AM 47.5°F 44.4°F / 48.2°F 29.8°F / 48.2°F 30.19 inHg 50% 0.00″
02/20/2017 10:58 AM 45.0°F 41.9°F / 45.5°F 29.8°F / 45.5°F 30.18 inHg 54% 0.00″
02/20/2017 09:58 AM 41.4°F 39.4°F / 41.5°F 29.8°F / 41.5°F 30.17 inHg 63% 0.00″
02/20/2017 08:58 AM 39.0°F 30.9°F / 39.0°F 29.8°F / 39.0°F 30.16 inHg 73% 0.00″
02/20/2017 07:58 AM 30.9°F 29.8°F / 31.1°F 29.8°F / 34.3°F 30.14 inHg 86% 0.00″
02/20/2017 06:58 AM 30.7°F 29.8°F / 30.7°F 29.8°F / 34.3°F 30.09 inHg 85% 0.00″
02/20/2017 05:57 AM 30.0°F 30.0°F / 30.4°F 30.0°F / 34.3°F 30.06 inHg 86% 0.00″
02/20/2017 04:57 AM 30.6°F 30.6°F / 32.4°F 30.2°F / 34.3°F 30.02 inHg 83% 0.00″
02/20/2017 03:57 AM 32.4°F 31.3°F / 32.4°F 30.2°F / 34.3°F 30.01 inHg 83% 0.00″
02/20/2017 02:56 AM 32.2°F 30.2°F / 32.2°F 30.2°F / 34.3°F 29.99 inHg 85% 0.00″
02/20/2017 01:56 AM 30.6°F 30.6°F / 33.6°F 30.6°F / 34.3°F 29.99 inHg 87% 0.00″
02/19/2017 11:56 PM 33.4°F 33.4°F / 34.5°F 33.4°F / 45.1°F 29.95 inHg 81% 0.01″
02/19/2017 10:56 PM 34.9°F 34.9°F / 35.4°F 34.2°F / 45.1°F 29.95 inHg 80% 0.01″
02/19/2017 09:56 PM 35.4°F 35.1°F / 36.9°F 34.2°F / 45.1°F 29.95 inHg 74% 0.01″
02/19/2017 08:56 PM 36.9°F 36.9°F / 38.7°F 34.2°F / 45.1°F 29.94 inHg 69% 0.01″
02/19/2017 07:56 PM 38.7°F 37.9°F / 38.7°F 34.2°F / 45.1°F 29.91 inHg 64% 0.01″
02/19/2017 06:56 PM 37.8°F 37.2°F / 39.4°F 34.2°F / 45.1°F 29.89 inHg 67% 0.01″
02/19/2017 05:56 PM 39.6°F 39.6°F / 41.9°F 34.2°F / 45.1°F 29.86 inHg 62% 0.01″
02/19/2017 04:55 PM 41.4°F 41.4°F / 43.9°F 34.2°F / 45.1°F 29.81 inHg 55% 0.01″
02/19/2017 03:55 PM 43.2°F 42.1°F / 44.4°F 34.2°F / 45.1°F 29.81 inHg 54% 0.01″
02/19/2017 02:55 PM 45.0°F 40.3°F / 45.1°F 34.2°F / 45.1°F 29.80 inHg 52% 0.01″
02/19/2017 01:55 PM 43.9°F 39.7°F / 43.9°F 34.2°F / 44.8°F 29.78 inHg 54% 0.01″
02/19/2017 12:55 PM 39.6°F 39.6°F / 44.2°F 34.2°F / 44.8°F 29.79 inHg 65% 0.01″
02/19/2017 11:55 AM 44.1°F 43.3°F / 44.4°F 34.2°F / 44.8°F 29.77 inHg 54% 0.01″
02/19/2017 10:55 AM 44.6°F 41.9°F / 44.8°F 34.2°F / 44.8°F 29.75 inHg 58% 0.01″
02/19/2017 09:55 AM 42.1°F 38.8°F / 42.1°F 34.2°F / 42.1°F 29.75 inHg 64% 0.01″
02/19/2017 08:55 AM 37.9°F 34.2°F / 37.9°F 34.2°F / 38.1°F 29.74 inHg 75% 0.00″
02/19/2017 07:55 AM 34.2°F 34.2°F / 35.2°F 34.2°F / 38.1°F 29.73 inHg 82% 0.00″
02/19/2017 06:55 AM 35.4°F 35.4°F / 36.9°F 35.1°F / 38.1°F 29.71 inHg 80% 0.00″
02/19/2017 05:55 AM 36.0°F 35.8°F / 38.1°F 35.1°F / 38.1°F 29.67 inHg 73% 0.00″
02/19/2017 04:55 AM 36.5°F 35.1°F / 36.5°F 35.1°F / 38.1°F 29.69 inHg 89% 0.00″
02/19/2017 03:55 AM 36.1°F 36.1°F / 36.7°F 35.8°F / 38.1°F 29.72 inHg 88% 0.00″
02/19/2017 02:54 AM 36.7°F 36.7°F / 37.0°F 35.8°F / 38.1°F 29.72 inHg 86% 0.00″
02/19/2017 01:54 AM 36.9°F 35.8°F / 36.9°F 35.8°F / 38.1°F 29.72 inHg 83% 0.00″
02/19/2017 12:54 AM 36.3°F 36.3°F / 38.1°F 36.3°F / 38.1°F 0.00 inHg 84% 0.00″
02/19/2017 12:37 AM 36.5°F 36.5°F / 38.1°F 36.5°F / 38.1°F 29.72 inHg 84% 0.00″
02/18/2017 11:37 PM 41.2°F 41.2°F / 49.3°F 34.5°F / 57.6°F 29.71 inHg 66% 0.00″
02/18/2017 10:36 PM 49.3°F 49.1°F / 49.5°F 34.5°F / 57.6°F 29.67 inHg 35% 0.00″
02/18/2017 09:36 PM 49.8°F 49.8°F / 50.2°F 34.5°F / 57.6°F 29.65 inHg 36% 0.00″
02/18/2017 08:36 PM 49.5°F 46.0°F / 49.5°F 34.5°F / 57.6°F 29.66 inHg 38% 0.00″
02/18/2017 07:36 PM 46.4°F 45.1°F / 47.1°F 34.5°F / 57.6°F 29.66 inHg 40% 0.00″
02/18/2017 06:36 PM 45.7°F 45.1°F / 46.6°F 34.5°F / 57.6°F 29.66 inHg 51% 0.00″
02/18/2017 05:36 PM 46.0°F 46.0°F / 46.9°F 34.5°F / 57.6°F 29.65 inHg 63% 0.00″
02/18/2017 04:36 PM 48.6°F 48.6°F / 49.1°F 34.5°F / 57.6°F 29.64 inHg 57% 0.00″
02/18/2017 03:35 PM 49.3°F 49.3°F / 50.7°F 34.5°F / 57.6°F 29.63 inHg 51% 0.00″
02/18/2017 02:35 PM 52.0°F 52.0°F / 53.2°F 34.5°F / 57.6°F 29.62 inHg 49% 0.00″
02/18/2017 01:35 PM 51.8°F 50.0°F / 51.8°F 34.5°F / 57.6°F 29.67 inHg 49% 0.00″
02/18/2017 12:35 PM 51.4°F 50.4°F / 51.4°F 34.5°F / 57.6°F 29.73 inHg 51% 0.00″
02/18/2017 11:35 AM 56.5°F 51.4°F / 57.6°F 34.5°F / 57.6°F 29.72 inHg 27% 0.00″
02/18/2017 10:35 AM 47.5°F 46.0°F / 47.8°F 34.5°F / 47.8°F 29.81 inHg 60% 0.00″
02/18/2017 09:35 AM 46.6°F 45.1°F / 46.9°F 34.5°F / 46.9°F 29.80 inHg 62% 0.00″
02/18/2017 08:35 AM 42.4°F 39.4°F / 42.4°F 34.5°F / 42.4°F 29.80 inHg 70% 0.00″
02/18/2017 07:34 AM 37.2°F 35.1°F / 37.2°F 34.5°F / 39.7°F 29.79 inHg 77% 0.00″
02/18/2017 06:34 AM 34.9°F 34.7°F / 35.4°F 34.7°F / 39.7°F 29.77 inHg 76% 0.00″
02/18/2017 05:33 AM 36.3°F 36.3°F / 37.2°F 36.3°F / 39.7°F 29.78 inHg 72% 0.00″
02/18/2017 04:33 AM 38.1°F 37.6°F / 38.1°F 37.6°F / 39.7°F 29.77 inHg 68% 0.00″
02/18/2017 03:33 AM 37.9°F 37.9°F / 39.2°F 37.9°F / 39.7°F 29.78 inHg 71% 0.00″
02/18/2017 02:33 AM 38.8°F 38.7°F / 39.0°F 38.7°F / 39.7°F 29.80 inHg 68% 0.00″
02/18/2017 01:33 AM 38.7°F 38.7°F / 39.7°F 38.7°F / 39.7°F 29.84 inHg 68% 0.00″
02/18/2017 12:33 AM 39.0°F 38.7°F / 39.0°F 38.7°F / 39.0°F 29.85 inHg 66% 0.00″
02/17/2017 11:33 PM 38.8°F 38.7°F / 39.9°F 32.7°F / 52.2°F 29.83 inHg 64% 0.00″
02/17/2017 10:33 PM 38.1°F 37.9°F / 38.7°F 32.7°F / 52.2°F 29.83 inHg 64% 0.00″
02/17/2017 09:33 PM 39.0°F 38.5°F / 39.2°F 32.7°F / 52.2°F 29.85 inHg 60% 0.00″
02/17/2017 08:33 PM 39.4°F 39.4°F / 42.4°F 32.7°F / 52.2°F 29.85 inHg 61% 0.00″
02/17/2017 07:33 PM 43.3°F 43.3°F / 44.2°F 32.7°F / 52.2°F 29.84 inHg 50% 0.00″
02/17/2017 06:33 PM 45.3°F 45.0°F / 45.5°F 32.7°F / 52.2°F 29.83 inHg 44% 0.00″
02/17/2017 05:33 PM 46.0°F 46.0°F / 49.5°F 32.7°F / 52.2°F 29.82 inHg 44% 0.00″
02/17/2017 04:33 PM 50.2°F 50.2°F / 52.2°F 32.7°F / 52.2°F 29.81 inHg 40% 0.00″
02/17/2017 03:33 PM 48.0°F 48.0°F / 49.5°F 32.7°F / 51.6°F 29.81 inHg 43% 0.00″
02/17/2017 02:33 PM 51.4°F 50.0°F / 51.4°F 32.7°F / 51.6°F 29.82 inHg 40% 0.00″
02/17/2017 01:33 PM 50.9°F 50.4°F / 51.6°F 32.7°F / 51.6°F 29.83 inHg 42% 0.00″
02/17/2017 12:33 PM 51.3°F 49.5°F / 51.3°F 32.7°F / 51.3°F 29.83 inHg 42% 0.00″
02/17/2017 11:33 AM 48.4°F 45.7°F / 48.4°F 32.7°F / 48.4°F 29.89 inHg 49% 0.00″
02/17/2017 10:33 AM 45.0°F 43.5°F / 45.7°F 32.7°F / 45.7°F 29.92 inHg 54% 0.00″
02/17/2017 09:32 AM 41.7°F 39.0°F / 41.7°F 32.7°F / 41.7°F 29.90 inHg 67% 0.00″
02/17/2017 08:32 AM 38.7°F 35.2°F / 38.7°F 32.7°F / 38.7°F 29.89 inHg 69% 0.00″
02/17/2017 07:32 AM 34.0°F 33.4°F / 34.2°F 32.7°F / 35.2°F 29.88 inHg 74% 0.00″
02/17/2017 06:32 AM 33.8°F 33.8°F / 34.3°F 32.7°F / 35.2°F 29.86 inHg 72% 0.00″
02/17/2017 05:32 AM 35.1°F 34.2°F / 35.2°F 32.7°F / 35.2°F 29.87 inHg 68% 0.00″
02/17/2017 04:32 AM 33.4°F 33.4°F / 33.6°F 32.7°F / 35.2°F 29.88 inHg 73% 0.00″
02/17/2017 03:32 AM 33.4°F 33.4°F / 33.8°F 32.7°F / 35.2°F 29.88 inHg 74% 0.00″
02/17/2017 02:32 AM 35.1°F 34.7°F / 35.2°F 32.7°F / 35.2°F 29.88 inHg 69% 0.00″
02/17/2017 01:32 AM 34.9°F 33.4°F / 34.9°F 32.7°F / 34.9°F 29.91 inHg 65% 0.00″
02/17/2017 12:32 AM 33.3°F 32.7°F / 33.4°F 32.7°F / 33.4°F 29.94 inHg 72% 0.00″
02/16/2017 11:31 PM 32.2°F 32.0°F / 33.1°F 26.1°F / 48.7°F 29.96 inHg 74% 0.00″
02/16/2017 10:31 PM 34.0°F 31.8°F / 34.0°F 26.1°F / 48.7°F 29.97 inHg 67% 0.00″
02/16/2017 09:31 PM 32.4°F 32.4°F / 33.4°F 26.1°F / 48.7°F 29.99 inHg 72% 0.00″
02/16/2017 08:31 PM 33.4°F 32.9°F / 33.8°F 26.1°F / 48.7°F 29.99 inHg 70% 0.00″
02/16/2017 07:31 PM 35.4°F 35.4°F / 36.1°F 26.1°F / 48.7°F 29.99 inHg 66% 0.00″
02/16/2017 06:30 PM 36.1°F 36.1°F / 38.8°F 26.1°F / 48.7°F 29.99 inHg 67% 0.00″
02/16/2017 05:30 PM 43.0°F 43.0°F / 45.3°F 26.1°F / 48.7°F 30.00 inHg 51% 0.00″
02/16/2017 04:29 PM 46.8°F 46.8°F / 47.7°F 26.1°F / 48.7°F 29.99 inHg 43% 0.00″
02/16/2017 03:29 PM 47.8°F 46.6°F / 47.8°F 26.1°F / 48.0°F 30.00 inHg 43% 0.00″
02/16/2017 02:29 PM 47.5°F 46.6°F / 48.0°F 26.1°F / 48.0°F 30.01 inHg 46% 0.00″
02/16/2017 01:29 PM 45.7°F 44.8°F / 46.2°F 26.1°F / 46.2°F 30.04 inHg 47% 0.00″
02/16/2017 12:29 PM 44.8°F 43.9°F / 45.7°F 26.1°F / 45.7°F 30.06 inHg 49% 0.00″
02/16/2017 11:29 AM 43.9°F 42.6°F / 44.2°F 26.1°F / 44.2°F 30.09 inHg 49% 0.00″
02/16/2017 10:29 AM 42.3°F 41.0°F / 42.8°F 26.1°F / 42.8°F 30.11 inHg 51% 0.00″
02/16/2017 09:29 AM 39.4°F 34.2°F / 39.4°F 26.1°F / 39.4°F 30.13 inHg 59% 0.00″
02/16/2017 08:28 AM 29.8°F 27.1°F / 29.8°F 26.1°F / 30.0°F 30.14 inHg 83% 0.00″
02/16/2017 07:28 AM 27.0°F 26.6°F / 27.1°F 26.1°F / 30.0°F 30.14 inHg 84% 0.00″
02/16/2017 06:28 AM 26.4°F 26.1°F / 26.4°F 26.1°F / 30.0°F 30.14 inHg 85% 0.00″
02/16/2017 05:28 AM 26.2°F 26.1°F / 26.4°F 26.1°F / 30.0°F 30.14 inHg 83% 0.00″
02/16/2017 04:28 AM 26.4°F 26.4°F / 27.0°F 26.4°F / 30.0°F 30.14 inHg 82% 0.00″
02/16/2017 03:28 AM 27.0°F 26.6°F / 27.1°F 26.6°F / 30.0°F 30.16 inHg 80% 0.00″
02/16/2017 02:27 AM 27.5°F 27.0°F / 27.5°F 27.0°F / 30.0°F 30.18 inHg 79% 0.00″
02/16/2017 01:27 AM 28.2°F 28.2°F / 30.0°F 27.9°F / 30.0°F 30.19 inHg 76% 0.00″
02/16/2017 12:27 AM 28.6°F 28.6°F / 29.8°F 28.6°F / 29.8°F 30.21 inHg 79% 0.00″
02/15/2017 11:27 PM 28.2°F 28.2°F / 28.9°F 24.6°F / 44.2°F 30.22 inHg 80% 0.00″
02/15/2017 10:27 PM 28.8°F 28.8°F / 29.3°F 24.6°F / 44.2°F 30.23 inHg 77% 0.00″
02/15/2017 09:27 PM 30.6°F 30.4°F / 30.6°F 24.6°F / 44.2°F 30.23 inHg 75% 0.00″
02/15/2017 08:27 PM 30.0°F 29.1°F / 30.0°F 24.6°F / 44.2°F 30.23 inHg 77% 0.00″
02/15/2017 07:27 PM 30.6°F 30.6°F / 31.3°F 24.6°F / 44.2°F 30.22 inHg 75% 0.00″
02/15/2017 06:26 PM 32.5°F 32.5°F / 34.9°F 24.6°F / 44.2°F 30.22 inHg 70% 0.00″
02/15/2017 05:26 PM 39.0°F 39.0°F / 40.8°F 24.6°F / 44.2°F 30.21 inHg 55% 0.00″
02/15/2017 04:26 PM 41.7°F 41.7°F / 43.9°F 24.6°F / 44.2°F 30.22 inHg 52% 0.00″
02/15/2017 03:26 PM 42.3°F 41.5°F / 44.2°F 24.6°F / 44.2°F 30.24 inHg 53% 0.00″
02/15/2017 02:26 PM 41.7°F 40.5°F / 42.1°F 24.6°F / 42.3°F 30.25 inHg 59% 0.00″
02/15/2017 01:26 PM 40.8°F 39.6°F / 41.2°F 24.6°F / 41.2°F 30.28 inHg 59% 0.00″
02/15/2017 12:26 PM 40.6°F 39.4°F / 40.6°F 24.6°F / 40.6°F 30.29 inHg 60% 0.00″
02/15/2017 11:26 AM 39.4°F 38.1°F / 40.1°F 24.6°F / 40.1°F 30.32 inHg 59% 0.00″
02/15/2017 10:26 AM 39.6°F 38.5°F / 40.1°F 24.6°F / 40.1°F 30.34 inHg 52% 0.00″
02/15/2017 09:25 AM 37.0°F 34.3°F / 37.0°F 24.6°F / 37.0°F 30.34 inHg 55% 0.00″
02/15/2017 08:25 AM 28.0°F 27.1°F / 28.0°F 24.6°F / 29.8°F 30.35 inHg 72% 0.00″
02/15/2017 07:25 AM 26.4°F 26.2°F / 26.8°F 24.6°F / 29.8°F 30.33 inHg 76% 0.00″
02/15/2017 06:25 AM 28.2°F 28.2°F / 29.1°F 24.6°F / 29.8°F 30.30 inHg 66% 0.00″
02/15/2017 05:25 AM 29.3°F 28.9°F / 29.7°F 24.6°F / 29.7°F 30.28 inHg 63% 0.00″
02/15/2017 04:25 AM 27.1°F 25.9°F / 27.1°F 24.6°F / 27.1°F 30.30 inHg 71% 0.00″
02/15/2017 03:24 AM 25.3°F 25.0°F / 25.3°F 24.6°F / 26.6°F 30.30 inHg 78% 0.00″
02/15/2017 02:24 AM 25.2°F 25.0°F / 25.2°F 24.6°F / 26.6°F 30.30 inHg 80% 0.00″
02/15/2017 01:24 AM 25.2°F 25.2°F / 25.5°F 25.2°F / 26.6°F 30.28 inHg 81% 0.00″
02/15/2017 12:24 AM 26.2°F 26.2°F / 26.6°F 26.2°F / 26.6°F 30.27 inHg 78% 0.00″
02/14/2017 11:24 PM 27.0°F 27.0°F / 27.3°F 27.0°F / 39.9°F 30.27 inHg 78% 0.04″
02/14/2017 10:24 PM 28.0°F 28.0°F / 28.2°F 27.9°F / 39.9°F 30.26 inHg 81% 0.04″
02/14/2017 09:24 PM 28.8°F 28.8°F / 29.7°F 28.8°F / 39.9°F 30.25 inHg 80% 0.04″
02/14/2017 08:24 PM 31.1°F 31.1°F / 31.3°F 29.7°F / 39.9°F 30.22 inHg 72% 0.04″
02/14/2017 07:23 PM 31.5°F 31.5°F / 32.0°F 29.7°F / 39.9°F 30.21 inHg 72% 0.04″
02/14/2017 06:23 PM 33.3°F 33.3°F / 33.6°F 29.7°F / 39.9°F 30.19 inHg 71% 0.04″
02/14/2017 05:23 PM 34.5°F 34.5°F / 35.4°F 29.7°F / 39.9°F 30.17 inHg 71% 0.04″
02/14/2017 04:23 PM 36.0°F 36.0°F / 36.1°F 29.7°F / 39.9°F 30.16 inHg 69% 0.04″
02/14/2017 03:23 PM 37.0°F 37.0°F / 38.5°F 29.7°F / 39.9°F 30.14 inHg 66% 0.04″
02/14/2017 02:23 PM 39.7°F 37.9°F / 39.9°F 29.7°F / 39.9°F 30.13 inHg 60% 0.04″
02/14/2017 01:23 PM 37.8°F 37.2°F / 38.3°F 29.7°F / 38.3°F 30.13 inHg 68% 0.04″
02/14/2017 12:23 PM 37.2°F 37.2°F / 38.1°F 29.7°F / 38.1°F 30.15 inHg 67% 0.04″
02/14/2017 11:23 AM 38.1°F 35.2°F / 38.1°F 29.7°F / 38.1°F 30.16 inHg 75% 0.03″
02/14/2017 10:23 AM 34.3°F 33.1°F / 34.3°F 29.7°F / 34.3°F 30.17 inHg 78% 0.02″
02/14/2017 09:23 AM 32.0°F 31.5°F / 32.0°F 29.7°F / 32.7°F 30.15 inHg 81% 0.00″
02/14/2017 08:23 AM 30.9°F 30.4°F / 30.9°F 29.7°F / 32.7°F 30.13 inHg 80% 0.00″
02/14/2017 07:23 AM 29.7°F 29.7°F / 29.8°F 29.7°F / 32.7°F 30.11 inHg 84% 0.00″
02/14/2017 06:23 AM 30.6°F 30.6°F / 30.9°F 30.4°F / 32.7°F 30.09 inHg 87% 0.00″
02/14/2017 05:23 AM 30.9°F 30.9°F / 30.9°F 30.4°F / 32.7°F 30.06 inHg 92% 0.00″
02/14/2017 04:23 AM 30.6°F 30.4°F / 30.6°F 30.4°F / 32.7°F 30.04 inHg 96% 0.00″
02/14/2017 03:23 AM 31.1°F 31.1°F / 32.4°F 31.1°F / 32.7°F 30.03 inHg 97% 0.00″
02/14/2017 02:23 AM 32.7°F 32.5°F / 32.7°F 32.5°F / 32.7°F 30.03 inHg 97% 0.00″
02/14/2017 01:22 AM 32.7°F 32.7°F / 32.7°F 32.7°F / 32.7°F 30.04 inHg 97% 0.00″
02/14/2017 12:22 AM 32.7°F 32.7°F / 32.7°F 32.7°F / 32.7°F 30.03 inHg 96% 0.00″
02/13/2017 11:22 PM 34.0°F 34.0°F / 34.2°F 31.5°F / 43.0°F 30.03 inHg 96% 0.18″
02/13/2017 10:22 PM 34.3°F 34.3°F / 34.3°F 31.5°F / 43.0°F 30.03 inHg 96% 0.18″
02/13/2017 09:21 PM 34.3°F 34.3°F / 34.5°F 31.5°F / 43.0°F 30.04 inHg 96% 0.18″
02/13/2017 08:21 PM 34.5°F 34.3°F / 34.5°F 31.5°F / 43.0°F 30.04 inHg 96% 0.18″
02/13/2017 07:21 PM 34.2°F 34.0°F / 34.5°F 31.5°F / 43.0°F 30.04 inHg 96% 0.18″
02/13/2017 06:21 PM 35.2°F 35.1°F / 35.2°F 31.5°F / 43.0°F 30.03 inHg 96% 0.18″
02/13/2017 05:20 PM 35.4°F 35.4°F / 35.8°F 31.5°F / 43.0°F 30.02 inHg 95% 0.18″
02/13/2017 04:20 PM 37.0°F 37.0°F / 39.4°F 31.5°F / 43.0°F 30.01 inHg 93% 0.18″
02/13/2017 03:20 PM 43.0°F 39.6°F / 43.0°F 31.5°F / 43.0°F 30.00 inHg 80% 0.17″
02/13/2017 02:20 PM 36.9°F 34.7°F / 36.9°F 31.5°F / 36.9°F 30.03 inHg 96% 0.11″
02/13/2017 01:20 PM 33.1°F 33.1°F / 33.6°F 31.5°F / 36.0°F 30.04 inHg 95% 0.06″
02/13/2017 12:20 PM 35.8°F 33.4°F / 35.8°F 31.5°F / 35.8°F 30.06 inHg 95% 0.03″
02/13/2017 11:20 AM 33.8°F 33.6°F / 34.0°F 31.5°F / 34.9°F 30.09 inHg 94% 0.01″
02/13/2017 10:19 AM 33.3°F 33.3°F / 34.0°F 31.5°F / 34.9°F 30.12 inHg 93% 0.00″
02/13/2017 09:19 AM 34.3°F 33.3°F / 34.5°F 31.5°F / 34.5°F 30.11 inHg 91% 0.00″
02/13/2017 08:19 AM 33.3°F 32.7°F / 33.3°F 31.5°F / 33.6°F 30.10 inHg 91% 0.00″
02/13/2017 07:19 AM 33.3°F 32.7°F / 33.3°F 31.5°F / 33.6°F 30.10 inHg 84% 0.00″
02/13/2017 06:18 AM 32.2°F 31.8°F / 32.2°F 31.5°F / 33.6°F 30.10 inHg 85% 0.00″
02/13/2017 05:18 AM 32.7°F 32.5°F / 32.7°F 31.5°F / 33.6°F 30.08 inHg 83% 0.00″
02/13/2017 04:18 AM 32.7°F 32.7°F / 33.1°F 31.5°F / 33.6°F 30.10 inHg 81% 0.00″
02/13/2017 03:18 AM 33.3°F 33.3°F / 33.6°F 31.5°F / 33.6°F 30.10 inHg 77% 0.00″
02/13/2017 02:18 AM 33.4°F 32.5°F / 33.4°F 31.5°F / 33.4°F 30.13 inHg 72% 0.00″
02/13/2017 01:18 AM 31.6°F 31.6°F / 32.0°F 31.5°F / 32.2°F 30.13 inHg 70% 0.00″
02/13/2017 12:17 AM 31.6°F 31.6°F / 31.8°F 31.6°F / 31.8°F 30.15 inHg 76% 0.00″
02/12/2017 11:17 PM 30.7°F 29.8°F / 30.7°F 29.8°F / 54.1°F 30.14 inHg 81% 0.02″
02/12/2017 10:17 PM 31.8°F 31.8°F / 33.3°F 31.8°F / 54.1°F 30.09 inHg 79% 0.02″
02/12/2017 09:17 PM 33.3°F 33.1°F / 33.4°F 33.1°F / 54.1°F 30.14 inHg 71% 0.02″
02/12/2017 08:17 PM 35.2°F 35.2°F / 35.4°F 34.3°F / 54.1°F 30.16 inHg 63% 0.02″
02/12/2017 07:17 PM 35.2°F 34.9°F / 35.2°F 34.3°F / 54.1°F 30.02 inHg 64% 0.02″
02/12/2017 06:17 PM 34.3°F 34.3°F / 34.3°F 34.3°F / 54.1°F 30.00 inHg 68% 0.02″
02/12/2017 05:17 PM 35.6°F 35.6°F / 37.0°F 35.6°F / 54.1°F 29.99 inHg 69% 0.02″
02/12/2017 04:17 PM 37.6°F 36.0°F / 37.6°F 36.0°F / 54.1°F 30.01 inHg 75% 0.02″
02/12/2017 03:16 PM 37.2°F 37.0°F / 39.7°F 37.0°F / 54.1°F 30.00 inHg 80% 0.01″
02/12/2017 02:16 PM 42.8°F 42.8°F / 43.3°F 37.6°F / 54.1°F 30.01 inHg 67% 0.01″
02/12/2017 01:16 PM 43.0°F 42.3°F / 43.2°F 37.6°F / 54.1°F 30.02 inHg 67% 0.01″
02/12/2017 12:16 PM 42.1°F 41.2°F / 42.6°F 37.6°F / 54.1°F 30.04 inHg 68% 0.01″
02/12/2017 11:16 AM 40.3°F 39.7°F / 40.3°F 37.6°F / 54.1°F 30.06 inHg 74% 0.01″
02/12/2017 10:16 AM 37.6°F 37.6°F / 38.1°F 37.6°F / 54.1°F 30.09 inHg 81% 0.01″
02/12/2017 09:16 AM 39.0°F 39.0°F / 39.4°F 39.0°F / 54.1°F 30.06 inHg 69% 0.00″
02/12/2017 08:16 AM 39.6°F 39.6°F / 39.9°F 39.6°F / 54.1°F 30.02 inHg 67% 0.00″
02/12/2017 07:16 AM 41.5°F 41.5°F / 43.0°F 41.5°F / 54.1°F 30.00 inHg 65% 0.00″
02/12/2017 06:16 AM 50.4°F 50.4°F / 53.8°F 47.3°F / 54.1°F 29.96 inHg 43% 0.00″
02/12/2017 05:16 AM 53.4°F 52.5°F / 53.4°F 47.3°F / 53.4°F 29.94 inHg 35% 0.00″
02/12/2017 04:16 AM 48.6°F 47.8°F / 48.6°F 47.3°F / 51.3°F 29.93 inHg 44% 0.00″
02/12/2017 03:16 AM 47.5°F 47.5°F / 48.7°F 47.5°F / 51.3°F 29.93 inHg 46% 0.00″
02/12/2017 02:16 AM 49.1°F 48.6°F / 49.1°F 48.6°F / 51.3°F 29.92 inHg 45% 0.00″
02/12/2017 01:15 AM 49.1°F 48.9°F / 49.8°F 48.9°F / 51.3°F 29.93 inHg 45% 0.00″
02/12/2017 12:15 AM 50.9°F 50.5°F / 51.3°F 50.5°F / 51.3°F 29.92 inHg 41% 0.00″
02/11/2017 11:15 PM 51.3°F 51.3°F / 51.6°F 47.8°F / 67.6°F 29.91 inHg 39% 0.00″
02/11/2017 10:15 PM 52.9°F 52.9°F / 54.7°F 47.8°F / 67.6°F 29.90 inHg 36% 0.00″
02/11/2017 09:15 PM 56.7°F 56.3°F / 56.8°F 47.8°F / 67.6°F 29.90 inHg 31% 0.00″
02/11/2017 08:15 PM 57.7°F 57.7°F / 58.3°F 47.8°F / 67.6°F 29.90 inHg 30% 0.00″
02/11/2017 07:15 PM 58.6°F 58.3°F / 58.8°F 47.8°F / 67.6°F 29.89 inHg 30% 0.00″
02/11/2017 06:15 PM 58.3°F 58.3°F / 58.8°F 47.8°F / 67.6°F 29.87 inHg 30% 0.00″
02/11/2017 05:15 PM 62.1°F 62.1°F / 63.0°F 47.8°F / 67.6°F 29.86 inHg 26% 0.00″
02/11/2017 04:15 PM 64.9°F 64.9°F / 65.5°F 47.8°F / 67.6°F 29.85 inHg 23% 0.00″
02/11/2017 03:15 PM 66.0°F 66.0°F / 67.3°F 47.8°F / 67.6°F 29.84 inHg 22% 0.00″
02/11/2017 02:15 PM 67.3°F 66.6°F / 67.3°F 47.8°F / 67.6°F 29.85 inHg 23% 0.00″
02/11/2017 01:15 PM 66.4°F 66.4°F / 67.6°F 47.8°F / 67.6°F 29.87 inHg 22% 0.00″
02/11/2017 12:15 PM 65.5°F 65.1°F / 65.8°F 47.8°F / 65.8°F 29.91 inHg 20% 0.00″
02/11/2017 11:15 AM 63.1°F 62.6°F / 63.1°F 47.8°F / 63.1°F 29.93 inHg 22% 0.00″
02/11/2017 10:15 AM 62.8°F 62.8°F / 63.0°F 47.8°F / 63.0°F 29.93 inHg 25% 0.00″
02/11/2017 09:15 AM 59.2°F 57.6°F / 59.2°F 47.8°F / 59.2°F 29.93 inHg 30% 0.00″
02/11/2017 08:15 AM 54.0°F 52.3°F / 54.0°F 47.8°F / 55.8°F 29.92 inHg 37% 0.00″
02/11/2017 07:14 AM 50.4°F 48.7°F / 50.4°F 47.8°F / 55.8°F 29.90 inHg 42% 0.00″
02/11/2017 06:14 AM 49.3°F 49.1°F / 50.2°F 48.2°F / 55.8°F 29.91 inHg 43% 0.00″
02/11/2017 05:14 AM 49.6°F 48.9°F / 50.2°F 48.2°F / 55.8°F 29.90 inHg 44% 0.00″
02/11/2017 04:14 AM 48.9°F 48.9°F / 50.5°F 48.9°F / 55.8°F 29.91 inHg 45% 0.00″
02/11/2017 03:14 AM 50.5°F 50.4°F / 50.7°F 49.8°F / 55.8°F 29.92 inHg 40% 0.00″
02/11/2017 02:14 AM 55.6°F 54.7°F / 55.6°F 49.8°F / 55.6°F 29.92 inHg 32% 0.00″
02/11/2017 01:14 AM 50.5°F 50.5°F / 51.6°F 50.5°F / 52.9°F 29.94 inHg 37% 0.00″
02/11/2017 12:14 AM 51.4°F 51.3°F / 51.4°F 51.3°F / 51.4°F 29.95 inHg 33% 0.00″
02/10/2017 11:14 PM 52.3°F 51.8°F / 52.3°F 45.7°F / 69.1°F 29.95 inHg 31% 0.00″
02/10/2017 10:14 PM 50.2°F 50.2°F / 50.9°F 45.7°F / 69.1°F 29.96 inHg 35% 0.00″
02/10/2017 09:14 PM 54.3°F 54.1°F / 54.7°F 45.7°F / 69.1°F 29.94 inHg 30% 0.00″
02/10/2017 08:14 PM 56.7°F 56.3°F / 56.7°F 45.7°F / 69.1°F 29.94 inHg 29% 0.00″
02/10/2017 07:14 PM 54.1°F 53.6°F / 54.1°F 45.7°F / 69.1°F 29.93 inHg 37% 0.00″
02/10/2017 06:13 PM 54.9°F 54.9°F / 56.5°F 45.7°F / 69.1°F 29.94 inHg 38% 0.00″
02/10/2017 05:13 PM 64.2°F 64.2°F / 65.5°F 45.7°F / 69.1°F 29.94 inHg 26% 0.00″
02/10/2017 04:13 PM 66.9°F 66.6°F / 67.8°F 45.7°F / 69.1°F 29.94 inHg 23% 0.00″
02/10/2017 03:13 PM 67.5°F 67.3°F / 67.6°F 45.7°F / 69.1°F 29.95 inHg 22% 0.00″
02/10/2017 02:13 PM 68.4°F 67.6°F / 68.4°F 45.7°F / 68.4°F 29.96 inHg 21% 0.00″
02/10/2017 01:13 PM 67.5°F 66.7°F / 67.5°F 45.7°F / 67.6°F 29.97 inHg 25% 0.00″
02/10/2017 12:13 PM 67.3°F 67.3°F / 67.6°F 45.7°F / 67.6°F 30.01 inHg 26% 0.00″
02/10/2017 11:13 AM 65.8°F 65.8°F / 66.6°F 45.7°F / 66.7°F 30.04 inHg 25% 0.00″
02/10/2017 10:13 AM 64.6°F 63.1°F / 64.6°F 45.7°F / 64.6°F 30.06 inHg 28% 0.00″
02/10/2017 09:12 AM 54.9°F 53.1°F / 55.0°F 45.7°F / 55.0°F 30.07 inHg 44% 0.00″
02/10/2017 08:12 AM 49.1°F 49.1°F / 50.0°F 45.7°F / 50.0°F 30.06 inHg 49% 0.00″
02/10/2017 07:12 AM 45.9°F 45.9°F / 46.9°F 45.9°F / 49.8°F 30.06 inHg 51% 0.00″
02/10/2017 06:12 AM 48.4°F 48.4°F / 48.6°F 45.9°F / 49.8°F 30.04 inHg 47% 0.00″
02/10/2017 05:12 AM 47.1°F 46.2°F / 47.1°F 45.9°F / 49.8°F 30.05 inHg 47% 0.00″
02/10/2017 04:12 AM 47.8°F 47.5°F / 47.8°F 45.9°F / 49.8°F 30.05 inHg 41% 0.00″
02/10/2017 03:12 AM 46.2°F 46.0°F / 46.2°F 45.9°F / 49.8°F 30.07 inHg 41% 0.00″
02/10/2017 02:12 AM 46.8°F 46.8°F / 47.1°F 46.8°F / 49.8°F 30.07 inHg 43% 0.00″
02/10/2017 01:11 AM 49.6°F 48.9°F / 49.8°F 48.0°F / 49.8°F 30.09 inHg 40% 0.00″
02/10/2017 12:11 AM 49.1°F 49.1°F / 49.6°F 49.1°F / 49.6°F 30.10 inHg 40% 0.00″
02/09/2017 11:11 PM 46.0°F 46.0°F / 46.2°F 38.8°F / 63.9°F 30.10 inHg 39% 0.00″
02/09/2017 10:11 PM 46.2°F 46.0°F / 46.2°F 38.8°F / 63.9°F 30.10 inHg 37% 0.00″
02/09/2017 09:11 PM 46.6°F 46.4°F / 46.6°F 38.8°F / 63.9°F 30.09 inHg 40% 0.00″
02/09/2017 08:11 PM 46.0°F 45.9°F / 46.0°F 38.8°F / 63.9°F 30.09 inHg 44% 0.00″
02/09/2017 07:11 PM 46.8°F 46.8°F / 47.1°F 38.8°F / 63.9°F 30.09 inHg 49% 0.00″
02/09/2017 06:11 PM 50.4°F 50.4°F / 51.3°F 38.8°F / 63.9°F 30.08 inHg 50% 0.00″
02/09/2017 05:11 PM 59.2°F 59.2°F / 60.4°F 38.8°F / 63.9°F 30.06 inHg 35% 0.00″
02/09/2017 04:10 PM 62.2°F 62.2°F / 63.0°F 38.8°F / 63.9°F 30.06 inHg 32% 0.00″
02/09/2017 03:10 PM 61.5°F 61.2°F / 63.5°F 38.8°F / 63.7°F 30.07 inHg 34% 0.00″
02/09/2017 02:10 PM 62.4°F 61.9°F / 62.8°F 38.8°F / 63.5°F 30.08 inHg 33% 0.00″
02/09/2017 01:10 PM 62.1°F 61.9°F / 62.4°F 38.8°F / 62.6°F 30.10 inHg 34% 0.00″
02/09/2017 12:10 PM 59.9°F 59.9°F / 60.6°F 38.8°F / 60.6°F 30.14 inHg 35% 0.00″
02/09/2017 11:10 AM 58.5°F 57.7°F / 59.0°F 38.8°F / 59.0°F 30.17 inHg 36% 0.00″
02/09/2017 10:10 AM 55.2°F 55.2°F / 55.6°F 38.8°F / 55.6°F 30.18 inHg 41% 0.00″
02/09/2017 09:10 AM 48.2°F 47.8°F / 48.2°F 38.8°F / 48.2°F 30.18 inHg 58% 0.00″
02/09/2017 08:10 AM 43.0°F 42.1°F / 43.0°F 38.8°F / 46.0°F 30.17 inHg 63% 0.00″
02/09/2017 07:10 AM 38.8°F 38.8°F / 38.8°F 38.8°F / 46.0°F 30.16 inHg 66% 0.00″
02/09/2017 06:10 AM 39.7°F 39.4°F / 39.7°F 39.2°F / 46.0°F 30.14 inHg 64% 0.00″
02/09/2017 05:10 AM 40.5°F 40.5°F / 41.0°F 39.4°F / 46.0°F 30.12 inHg 60% 0.00″
02/09/2017 04:09 AM 42.8°F 42.8°F / 43.5°F 39.4°F / 46.0°F 30.12 inHg 56% 0.00″
02/09/2017 03:09 AM 39.7°F 39.4°F / 39.7°F 39.4°F / 46.0°F 30.14 inHg 64% 0.00″
02/09/2017 02:09 AM 40.3°F 40.1°F / 40.3°F 40.1°F / 46.0°F 30.15 inHg 63% 0.00″
02/09/2017 01:09 AM 43.3°F 43.3°F / 45.7°F 41.5°F / 46.0°F 30.16 inHg 55% 0.00″
02/09/2017 12:09 AM 41.5°F 41.5°F / 42.1°F 41.5°F / 42.1°F 30.17 inHg 56% 0.00″
02/08/2017 11:09 PM 41.7°F 41.7°F / 42.3°F 36.9°F / 61.3°F 30.17 inHg 56% 0.00″
02/08/2017 10:09 PM 43.3°F 43.3°F / 44.1°F 36.9°F / 61.3°F 30.16 inHg 54% 0.00″
02/08/2017 09:08 PM 42.4°F 42.4°F / 43.3°F 36.9°F / 61.3°F 30.16 inHg 54% 0.00″
02/08/2017 08:08 PM 45.0°F 45.0°F / 46.0°F 36.9°F / 61.3°F 30.15 inHg 50% 0.00″
02/08/2017 07:08 PM 45.1°F 44.6°F / 45.3°F 36.9°F / 61.3°F 30.15 inHg 49% 0.00″
02/08/2017 06:08 PM 47.5°F 47.5°F / 48.6°F 36.9°F / 61.3°F 30.12 inHg 48% 0.00″
02/08/2017 05:08 PM 56.7°F 56.7°F / 57.6°F 36.9°F / 61.3°F 30.10 inHg 32% 0.00″
02/08/2017 04:08 PM 59.4°F 59.4°F / 59.5°F 36.9°F / 61.3°F 30.09 inHg 31% 0.00″
02/08/2017 03:08 PM 60.4°F 60.3°F / 60.4°F 36.9°F / 60.8°F 30.07 inHg 34% 0.00″
02/08/2017 02:08 PM 58.5°F 57.9°F / 58.6°F 36.9°F / 58.8°F 30.06 inHg 38% 0.00″
02/08/2017 01:08 PM 56.8°F 56.8°F / 57.0°F 36.9°F / 57.4°F 30.06 inHg 42% 0.00″
02/08/2017 12:08 PM 54.3°F 54.0°F / 54.5°F 36.9°F / 54.7°F 30.07 inHg 48% 0.00″
02/08/2017 11:08 AM 52.9°F 52.2°F / 52.9°F 36.9°F / 52.9°F 30.07 inHg 48% 0.00″
02/08/2017 10:08 AM 50.0°F 49.8°F / 50.2°F 36.9°F / 50.4°F 30.05 inHg 55% 0.00″
02/08/2017 09:08 AM 46.4°F 44.6°F / 46.4°F 36.9°F / 46.4°F 30.05 inHg 63% 0.00″
02/08/2017 08:08 AM 40.6°F 40.6°F / 40.8°F 36.9°F / 40.8°F 30.02 inHg 73% 0.00″
02/08/2017 07:08 AM 39.4°F 39.2°F / 39.4°F 36.9°F / 39.6°F 30.02 inHg 76% 0.00″
02/08/2017 06:08 AM 37.9°F 37.9°F / 38.3°F 36.9°F / 39.6°F 29.99 inHg 78% 0.00″
02/08/2017 05:07 AM 37.9°F 37.9°F / 38.1°F 36.9°F / 39.6°F 29.98 inHg 80% 0.00″
02/08/2017 04:07 AM 37.4°F 37.2°F / 37.4°F 36.9°F / 39.6°F 29.97 inHg 81% 0.00″
02/08/2017 03:07 AM 37.8°F 37.8°F / 37.9°F 37.4°F / 39.6°F 29.96 inHg 80% 0.00″
02/08/2017 02:07 AM 37.9°F 37.9°F / 38.1°F 37.4°F / 39.6°F 29.97 inHg 79% 0.00″
02/08/2017 01:07 AM 38.7°F 38.5°F / 38.7°F 38.5°F / 39.6°F 29.95 inHg 79% 0.00″
02/08/2017 12:07 AM 39.4°F 39.4°F / 39.6°F 39.4°F / 39.6°F 29.94 inHg 78% 0.00″
02/07/2017 11:07 PM 40.3°F 40.3°F / 40.5°F 36.0°F / 56.5°F 29.95 inHg 75% 0.00″
02/07/2017 10:07 PM 41.5°F 41.5°F / 42.1°F 36.0°F / 56.5°F 29.91 inHg 72% 0.00″
02/07/2017 09:06 PM 42.4°F 42.4°F / 42.8°F 36.0°F / 56.5°F 29.90 inHg 70% 0.00″
02/07/2017 08:06 PM 46.4°F 46.4°F / 46.8°F 36.0°F / 56.5°F 29.88 inHg 62% 0.00″
02/07/2017 07:06 PM 46.9°F 46.9°F / 47.1°F 36.0°F / 56.5°F 29.87 inHg 60% 0.00″
02/07/2017 06:06 PM 48.0°F 48.0°F / 48.2°F 36.0°F / 56.5°F 29.86 inHg 56% 0.00″
02/07/2017 05:06 PM 51.8°F 51.8°F / 52.2°F 36.0°F / 56.5°F 29.85 inHg 48% 0.00″
02/07/2017 04:06 PM 54.1°F 54.1°F / 55.0°F 36.0°F / 56.5°F 29.85 inHg 40% 0.00″
02/07/2017 03:06 PM 55.9°F 55.4°F / 55.9°F 36.0°F / 55.9°F 29.86 inHg 36% 0.00″
02/07/2017 02:06 PM 55.4°F 54.9°F / 55.4°F 36.0°F / 55.8°F 29.88 inHg 37% 0.00″
02/07/2017 01:06 PM 54.3°F 54.1°F / 54.3°F 36.0°F / 54.9°F 29.90 inHg 38% 0.00″
02/07/2017 12:06 PM 53.4°F 53.4°F / 53.8°F 36.0°F / 54.0°F 29.93 inHg 39% 0.00″
02/07/2017 11:06 AM 50.4°F 50.0°F / 50.5°F 36.0°F / 50.5°F 29.95 inHg 42% 0.00″
02/07/2017 10:06 AM 46.6°F 46.4°F / 46.8°F 36.0°F / 46.8°F 29.96 inHg 48% 0.00″
02/07/2017 09:06 AM 41.5°F 41.4°F / 41.5°F 36.0°F / 41.5°F 29.94 inHg 63% 0.00″
02/07/2017 08:06 AM 37.9°F 37.6°F / 37.9°F 36.0°F / 41.0°F 29.91 inHg 62% 0.00″
02/07/2017 07:06 AM 36.0°F 36.0°F / 36.1°F 36.0°F / 41.0°F 29.89 inHg 63% 0.00″
02/07/2017 06:06 AM 36.9°F 36.9°F / 36.9°F 36.1°F / 41.0°F 29.90 inHg 60% 0.00″
02/07/2017 05:06 AM 36.1°F 36.1°F / 36.1°F 36.1°F / 41.0°F 29.88 inHg 59% 0.00″
02/07/2017 03:05 AM 37.9°F 37.2°F / 37.9°F 37.0°F / 41.0°F 29.86 inHg 53% 0.00″
02/07/2017 02:05 AM 38.1°F 37.8°F / 38.1°F 37.0°F / 41.0°F 29.88 inHg 52% 0.00″
02/07/2017 01:05 AM 37.8°F 37.8°F / 38.5°F 37.8°F / 41.0°F 29.90 inHg 51% 0.00″
02/07/2017 12:05 AM 40.5°F 40.3°F / 40.5°F 40.3°F / 40.5°F 29.92 inHg 45% 0.00″
02/06/2017 11:04 PM 43.3°F 43.3°F / 43.3°F 42.4°F / 52.5°F 29.92 inHg 40% 0.00″
02/06/2017 10:04 PM 45.0°F 45.0°F / 45.1°F 42.4°F / 52.5°F 29.94 inHg 38% 0.00″
02/06/2017 09:04 PM 45.3°F 45.3°F / 45.3°F 42.4°F / 52.5°F 29.91 inHg 36% 0.00″
02/06/2017 08:04 PM 46.9°F 46.9°F / 46.9°F 42.4°F / 52.5°F 29.88 inHg 33% 0.00″
02/06/2017 07:03 PM 48.4°F 48.4°F / 48.4°F 42.4°F / 52.5°F 29.87 inHg 32% 0.00″
02/06/2017 06:03 PM 48.6°F 48.6°F / 48.6°F 42.4°F / 52.5°F 29.85 inHg 33% 0.00″
02/06/2017 05:03 PM 48.4°F 48.4°F / 48.6°F 42.4°F / 52.5°F 29.84 inHg 35% 0.00″
02/06/2017 04:03 PM 49.6°F 49.6°F / 49.6°F 42.4°F / 52.5°F 29.84 inHg 33% 0.00″
02/06/2017 03:03 PM 48.9°F 48.9°F / 48.9°F 42.4°F / 52.5°F 29.84 inHg 35% 0.00″
02/06/2017 02:03 PM 50.4°F 50.2°F / 50.4°F 42.4°F / 52.5°F 29.85 inHg 37% 0.00″
02/06/2017 01:03 PM 50.2°F 50.2°F / 50.2°F 42.4°F / 52.5°F 29.85 inHg 37% 0.00″
02/06/2017 12:03 PM 50.0°F 50.0°F / 50.2°F 42.4°F / 52.5°F 29.88 inHg 36% 0.00″
02/06/2017 11:03 AM 50.7°F 50.7°F / 51.1°F 42.4°F / 52.5°F 29.90 inHg 34% 0.00″
02/06/2017 10:03 AM 50.7°F 50.7°F / 50.7°F 42.4°F / 50.7°F 29.90 inHg 36% 0.00″
02/06/2017 09:03 AM 50.4°F 50.4°F / 50.4°F 42.4°F / 50.5°F 29.91 inHg 39% 0.00″
02/06/2017 08:03 AM 47.7°F 47.5°F / 47.7°F 42.4°F / 48.6°F 29.87 inHg 42% 0.00″
02/06/2017 07:03 AM 46.8°F 46.8°F / 46.8°F 42.4°F / 48.6°F 29.86 inHg 36% 0.00″
02/06/2017 06:03 AM 47.8°F 47.8°F / 48.0°F 42.4°F / 48.6°F 29.87 inHg 37% 0.00″
02/06/2017 05:02 AM 48.0°F 47.8°F / 48.0°F 42.4°F / 48.6°F 29.90 inHg 38% 0.00″
02/06/2017 04:02 AM 47.8°F 47.8°F / 48.0°F 42.4°F / 48.6°F 29.91 inHg 38% 0.00″
02/06/2017 03:02 AM 48.4°F 48.2°F / 48.4°F 42.4°F / 48.4°F 29.93 inHg 37% 0.00″
02/06/2017 02:02 AM 47.3°F 47.1°F / 47.3°F 42.4°F / 47.3°F 29.93 inHg 35% 0.00″
02/06/2017 01:02 AM 44.4°F 44.4°F / 44.4°F 42.4°F / 44.4°F 29.94 inHg 39% 0.00″
02/06/2017 12:02 AM 42.4°F 42.4°F / 42.4°F 42.4°F / 42.4°F 29.94 inHg 40% 0.00″
02/05/2017 11:02 PM 41.0°F 40.8°F / 41.0°F 36.0°F / 59.9°F 29.95 inHg 42% 0.00″
02/05/2017 10:02 PM 40.5°F 40.3°F / 40.5°F 36.0°F / 59.9°F 29.96 inHg 45% 0.00″
02/05/2017 09:02 PM 40.6°F 40.6°F / 40.6°F 36.0°F / 59.9°F 29.96 inHg 45% 0.00″
02/05/2017 08:01 PM 41.7°F 41.7°F / 41.9°F 36.0°F / 59.9°F 29.97 inHg 41% 0.00″
02/05/2017 07:01 PM 43.5°F 43.5°F / 43.5°F 36.0°F / 59.9°F 29.96 inHg 31% 0.00″
02/05/2017 06:01 PM 45.3°F 45.3°F / 45.3°F 36.0°F / 59.9°F 29.94 inHg 32% 0.00″
02/05/2017 05:01 PM 55.0°F 54.9°F / 55.0°F 36.0°F / 59.9°F 29.96 inHg 21% 0.00″
02/05/2017 04:01 PM 56.7°F 56.7°F / 56.8°F 36.0°F / 59.9°F 29.97 inHg 18% 0.00″
02/05/2017 03:01 PM 58.1°F 57.9°F / 58.1°F 36.0°F / 59.9°F 29.97 inHg 19% 0.00″
02/05/2017 02:01 PM 58.8°F 58.6°F / 58.8°F 36.0°F / 59.9°F 29.98 inHg 17% 0.00″
02/05/2017 01:01 PM 58.8°F 58.6°F / 58.8°F 36.0°F / 58.8°F 29.99 inHg 17% 0.00″
02/05/2017 12:01 PM 57.0°F 57.0°F / 57.0°F 36.0°F / 58.3°F 30.02 inHg 20% 0.00″
02/05/2017 11:01 AM 57.4°F 57.4°F / 57.4°F 36.0°F / 57.4°F 30.03 inHg 17% 0.00″
02/05/2017 10:01 AM 54.0°F 54.0°F / 54.1°F 36.0°F / 54.1°F 30.04 inHg 25% 0.00″
02/05/2017 09:01 AM 42.4°F 42.3°F / 42.4°F 36.0°F / 42.4°F 30.04 inHg 41% 0.00″
02/05/2017 08:01 AM 37.0°F 37.0°F / 37.0°F 36.0°F / 42.3°F 30.04 inHg 44% 0.00″
02/05/2017 07:01 AM 36.1°F 36.1°F / 36.1°F 36.1°F / 42.3°F 30.02 inHg 47% 0.00″
02/05/2017 06:00 AM 36.9°F 0.0°F / 0.0°F 36.9°F / 42.3°F 30.01 inHg 47% 0.00″
02/05/2017 04:59 AM 38.1°F 38.1°F / 39.4°F 38.1°F / 42.3°F 30.00 inHg 43% 0.00″
02/05/2017 03:59 AM 39.6°F 39.6°F / 41.9°F 39.6°F / 42.3°F 30.00 inHg 41% 0.00″
02/05/2017 02:59 AM 41.9°F 40.6°F / 42.1°F 39.7°F / 42.3°F 30.01 inHg 33% 0.00″
02/05/2017 01:59 AM 41.2°F 40.6°F / 42.3°F 39.7°F / 42.3°F 30.01 inHg 34% 0.00″
02/05/2017 12:59 AM 40.3°F 39.7°F / 41.9°F 39.7°F / 41.9°F 30.01 inHg 32% 0.00″
02/04/2017 11:59 PM 41.9°F 40.1°F / 42.1°F 39.4°F / 58.6°F 30.03 inHg 29% 0.00″
02/04/2017 10:59 PM 40.6°F 39.9°F / 40.6°F 39.4°F / 58.6°F 30.02 inHg 30% 0.00″
02/04/2017 09:58 PM 40.1°F 39.9°F / 41.2°F 39.4°F / 58.6°F 30.01 inHg 32% 0.00″
02/04/2017 08:58 PM 41.4°F 41.4°F / 42.4°F 39.4°F / 58.6°F 30.00 inHg 34% 0.00″
02/04/2017 07:57 PM 42.6°F 41.7°F / 42.8°F 39.4°F / 58.6°F 29.99 inHg 34% 0.00″
02/04/2017 06:57 PM 42.1°F 41.9°F / 44.2°F 39.4°F / 58.6°F 29.99 inHg 33% 0.00″
02/04/2017 05:56 PM 44.6°F 44.6°F / 53.4°F 39.4°F / 58.6°F 29.97 inHg 30% 0.00″
02/04/2017 04:56 PM 54.0°F 53.4°F / 55.9°F 39.4°F / 58.6°F 29.96 inHg 21% 0.00″
02/04/2017 03:56 PM 55.8°F 54.7°F / 56.8°F 39.4°F / 58.6°F 29.96 inHg 19% 0.00″
02/04/2017 02:56 PM 57.6°F 56.8°F / 58.6°F 39.4°F / 58.6°F 29.96 inHg 15% 0.00″
02/04/2017 12:56 PM 57.9°F 57.4°F / 58.3°F 39.4°F / 58.5°F 29.99 inHg 14% 0.00″
02/04/2017 11:56 AM 58.3°F 57.2°F / 58.5°F 39.4°F / 58.5°F 30.02 inHg 22% 0.00″
02/04/2017 10:56 AM 56.8°F 54.5°F / 56.8°F 39.4°F / 56.8°F 30.05 inHg 14% 0.00″
02/04/2017 09:56 AM 54.1°F 50.7°F / 54.1°F 39.4°F / 54.1°F 30.06 inHg 22% 0.00″
02/04/2017 08:56 AM 50.2°F 41.4°F / 50.2°F 39.4°F / 50.2°F 30.06 inHg 30% 0.00″
02/04/2017 07:56 AM 41.2°F 39.4°F / 41.7°F 39.4°F / 43.7°F 30.04 inHg 41% 0.00″
02/04/2017 06:56 AM 39.9°F 39.7°F / 41.5°F 39.7°F / 43.7°F 30.04 inHg 48% 0.00″
02/04/2017 05:56 AM 40.6°F 39.9°F / 40.8°F 39.7°F / 43.7°F 30.03 inHg 45% 0.00″
02/04/2017 04:56 AM 40.6°F 39.7°F / 40.6°F 39.7°F / 43.7°F 30.02 inHg 43% 0.00″
02/04/2017 03:56 AM 40.1°F 40.1°F / 41.5°F 40.1°F / 43.7°F 30.03 inHg 44% 0.00″
02/04/2017 02:56 AM 41.7°F 41.0°F / 42.8°F 41.0°F / 43.7°F 30.03 inHg 39% 0.00″
02/04/2017 01:56 AM 42.1°F 41.2°F / 42.1°F 41.2°F / 43.7°F 30.04 inHg 40% 0.00″
02/04/2017 12:56 AM 41.7°F 41.7°F / 43.7°F 41.7°F / 43.7°F 30.04 inHg 36% 0.00″
02/03/2017 11:56 PM 43.9°F 43.7°F / 44.6°F 34.9°F / 58.1°F 30.06 inHg 31% 0.00″
02/03/2017 10:56 PM 44.4°F 44.4°F / 48.9°F 34.9°F / 58.1°F 30.07 inHg 30% 0.00″
02/03/2017 09:56 PM 48.4°F 46.2°F / 48.7°F 34.9°F / 58.1°F 30.08 inHg 21% 0.00″
02/03/2017 08:56 PM 46.8°F 44.2°F / 46.9°F 34.9°F / 58.1°F 30.07 inHg 28% 0.00″
02/03/2017 07:56 PM 45.5°F 45.5°F / 47.7°F 34.9°F / 58.1°F 30.07 inHg 39% 0.00″
02/03/2017 06:56 PM 46.8°F 45.7°F / 47.1°F 34.9°F / 58.1°F 30.09 inHg 37% 0.00″
02/03/2017 05:55 PM 46.6°F 45.9°F / 52.0°F 34.9°F / 58.1°F 30.07 inHg 38% 0.00″
02/03/2017 04:55 PM 52.3°F 52.3°F / 55.0°F 34.9°F / 58.1°F 30.08 inHg 29% 0.00″
02/03/2017 03:55 PM 55.0°F 55.0°F / 57.9°F 34.9°F / 58.1°F 30.07 inHg 27% 0.00″
02/03/2017 02:55 PM 56.7°F 56.7°F / 57.7°F 34.9°F / 58.1°F 30.07 inHg 24% 0.00″
02/03/2017 01:55 PM 56.7°F 56.5°F / 57.6°F 34.9°F / 58.1°F 30.08 inHg 23% 0.00″
02/03/2017 12:55 PM 57.0°F 56.5°F / 57.6°F 34.9°F / 58.1°F 30.10 inHg 22% 0.00″
02/03/2017 11:55 AM 56.7°F 56.7°F / 58.1°F 34.9°F / 58.1°F 30.14 inHg 17% 0.00″
02/03/2017 10:55 AM 55.9°F 52.7°F / 55.9°F 34.9°F / 55.9°F 30.16 inHg 22% 0.00″
02/03/2017 09:54 AM 52.2°F 41.2°F / 52.2°F 34.9°F / 52.2°F 30.16 inHg 24% 0.00″
02/03/2017 08:54 AM 40.8°F 36.3°F / 40.8°F 34.9°F / 40.8°F 30.15 inHg 38% 0.00″
02/03/2017 07:54 AM 36.1°F 34.9°F / 36.1°F 34.9°F / 39.7°F 30.14 inHg 37% 0.00″
02/03/2017 06:54 AM 35.2°F 35.2°F / 38.5°F 35.2°F / 39.7°F 30.12 inHg 44% 0.00″
02/03/2017 05:54 AM 38.7°F 38.7°F / 39.7°F 37.2°F / 39.7°F 30.12 inHg 37% 0.00″
02/03/2017 04:54 AM 38.8°F 38.1°F / 39.0°F 37.2°F / 39.0°F 30.11 inHg 36% 0.00″
02/03/2017 03:54 AM 38.1°F 37.6°F / 38.5°F 37.2°F / 38.5°F 30.10 inHg 36% 0.00″
02/03/2017 02:53 AM 37.8°F 37.4°F / 37.8°F 37.2°F / 38.5°F 30.09 inHg 36% 0.00″
02/03/2017 01:53 AM 37.9°F 37.4°F / 38.5°F 37.2°F / 38.5°F 30.10 inHg 41% 0.00″
02/03/2017 12:53 AM 37.4°F 37.2°F / 37.9°F 37.2°F / 37.9°F 30.10 inHg 43% 0.00″
02/02/2017 11:53 PM 37.9°F 37.9°F / 39.2°F 34.3°F / 57.2°F 30.11 inHg 43% 0.00″
02/02/2017 10:53 PM 39.6°F 38.8°F / 40.1°F 34.3°F / 57.2°F 30.12 inHg 41% 0.00″
02/02/2017 09:53 PM 39.0°F 38.7°F / 39.4°F 34.3°F / 57.2°F 30.12 inHg 42% 0.00″
02/02/2017 08:53 PM 39.0°F 37.6°F / 39.4°F 34.3°F / 57.2°F 30.12 inHg 41% 0.00″
02/02/2017 07:53 PM 37.8°F 37.8°F / 38.5°F 34.3°F / 57.2°F 30.12 inHg 41% 0.00″
02/02/2017 06:53 PM 38.3°F 38.3°F / 41.2°F 34.3°F / 57.2°F 30.11 inHg 40% 0.00″
02/02/2017 05:53 PM 43.2°F 43.2°F / 47.8°F 34.3°F / 57.2°F 30.09 inHg 36% 0.00″
02/02/2017 04:52 PM 50.5°F 50.5°F / 54.1°F 34.3°F / 57.2°F 30.08 inHg 24% 0.00″
02/02/2017 03:52 PM 55.8°F 55.6°F / 56.8°F 34.3°F / 57.2°F 30.08 inHg 19% 0.00″
02/02/2017 02:52 PM 55.8°F 55.6°F / 56.8°F 34.3°F / 57.2°F 30.09 inHg 18% 0.00″
02/02/2017 01:52 PM 55.6°F 55.2°F / 56.8°F 34.3°F / 57.2°F 30.09 inHg 17% 0.00″
02/02/2017 12:52 PM 55.8°F 55.8°F / 57.2°F 34.3°F / 57.2°F 30.12 inHg 18% 0.00″
02/02/2017 11:52 AM 55.9°F 55.6°F / 56.5°F 34.3°F / 56.5°F 30.15 inHg 15% 0.00″
02/02/2017 10:52 AM 53.8°F 51.1°F / 53.8°F 34.3°F / 53.8°F 30.16 inHg 19% 0.00″
02/02/2017 09:52 AM 50.7°F 41.0°F / 50.7°F 34.3°F / 50.7°F 30.17 inHg 23% 0.00″
02/02/2017 08:52 AM 40.5°F 35.8°F / 40.6°F 34.3°F / 40.6°F 30.16 inHg 35% 0.00″
02/02/2017 07:52 AM 35.8°F 34.5°F / 36.7°F 34.3°F / 37.0°F 30.15 inHg 37% 0.00″
02/02/2017 06:52 AM 36.3°F 35.6°F / 37.0°F 34.3°F / 37.0°F 30.14 inHg 29% 0.00″
02/02/2017 05:51 AM 35.8°F 35.2°F / 35.8°F 34.3°F / 36.5°F 30.12 inHg 35% 0.00″
02/02/2017 04:51 AM 35.8°F 35.4°F / 36.1°F 34.3°F / 36.5°F 30.11 inHg 36% 0.00″
02/02/2017 03:51 AM 36.1°F 34.9°F / 36.1°F 34.3°F / 36.5°F 30.12 inHg 33% 0.00″
02/02/2017 02:51 AM 35.4°F 34.3°F / 35.6°F 34.3°F / 36.5°F 30.12 inHg 30% 0.00″
02/02/2017 01:51 AM 34.7°F 34.5°F / 36.5°F 34.5°F / 36.5°F 30.12 inHg 30% 0.00″
02/02/2017 12:50 AM 35.1°F 35.1°F / 36.3°F 35.1°F / 36.3°F 30.12 inHg 35% 0.00″
02/01/2017 11:50 PM 35.4°F 35.1°F / 35.8°F 33.1°F / 60.4°F 30.12 inHg 34% 0.00″
02/01/2017 10:50 PM 35.4°F 35.4°F / 36.5°F 33.1°F / 60.4°F 30.14 inHg 33% 0.00″
02/01/2017 09:50 PM 37.2°F 37.2°F / 41.4°F 33.1°F / 60.4°F 30.13 inHg 32% 0.00″
02/01/2017 08:50 PM 39.6°F 37.2°F / 39.6°F 33.1°F / 60.4°F 30.12 inHg 28% 0.00″
02/01/2017 07:50 PM 36.9°F 36.9°F / 39.7°F 33.1°F / 60.4°F 30.12 inHg 35% 0.00″
02/01/2017 06:50 PM 40.6°F 40.5°F / 44.4°F 33.1°F / 60.4°F 30.10 inHg 38% 0.00″
02/01/2017 05:50 PM 45.9°F 45.9°F / 52.9°F 33.1°F / 60.4°F 30.10 inHg 37% 0.00″
02/01/2017 04:50 PM 54.9°F 54.9°F / 59.5°F 33.1°F / 60.4°F 30.09 inHg 23% 0.00″
02/01/2017 03:50 PM 60.3°F 58.3°F / 60.4°F 33.1°F / 60.4°F 30.07 inHg 21% 0.00″
02/01/2017 02:50 PM 58.6°F 57.6°F / 59.2°F 33.1°F / 59.2°F 30.06 inHg 23% 0.00″
02/01/2017 01:49 PM 57.6°F 56.8°F / 58.8°F 33.1°F / 58.8°F 30.07 inHg 25% 0.00″
02/01/2017 12:49 PM 56.7°F 54.1°F / 57.6°F 33.1°F / 57.6°F 30.07 inHg 24% 0.00″
02/01/2017 11:49 AM 54.1°F 52.3°F / 54.3°F 33.1°F / 54.3°F 30.10 inHg 24% 0.00″
02/01/2017 10:49 AM 52.7°F 50.0°F / 53.2°F 33.1°F / 53.2°F 30.12 inHg 22% 0.00″
02/01/2017 09:49 AM 49.3°F 40.8°F / 49.6°F 33.1°F / 49.6°F 30.12 inHg 28% 0.00″
02/01/2017 08:49 AM 39.4°F 37.2°F / 39.4°F 33.1°F / 39.4°F 30.12 inHg 42% 0.00″
02/01/2017 07:49 AM 37.2°F 36.9°F / 37.6°F 33.1°F / 38.5°F 30.10 inHg 42% 0.00″
02/01/2017 06:49 AM 37.0°F 36.9°F / 37.8°F 33.1°F / 38.5°F 30.10 inHg 41% 0.00″
02/01/2017 05:49 AM 37.9°F 36.3°F / 37.9°F 33.1°F / 37.9°F 30.09 inHg 37% 0.00″
02/01/2017 04:49 AM 36.3°F 33.8°F / 36.3°F 33.1°F / 36.3°F 30.08 inHg 42% 0.00″
02/01/2017 03:49 AM 34.2°F 33.1°F / 34.2°F 33.1°F / 36.1°F 30.07 inHg 49% 0.00″
02/01/2017 02:48 AM 35.2°F 34.5°F / 36.1°F 33.4°F / 36.1°F 30.08 inHg 49% 0.00″
02/01/2017 01:48 AM 34.3°F 33.4°F / 34.5°F 33.4°F / 35.2°F 30.10 inHg 51% 0.00″
02/01/2017 12:47 AM 34.3°F 34.0°F / 35.2°F 34.0°F / 35.2°F 30.11 inHg 52% 0.00″
01/31/2017 11:47 PM 34.3°F 33.6°F / 35.1°F 29.8°F / 54.9°F 30.11 inHg 51% 0.00″
01/31/2017 10:47 PM 34.3°F 34.3°F / 35.6°F 29.8°F / 54.9°F 30.11 inHg 53% 0.00″
01/31/2017 09:47 PM 35.1°F 35.1°F / 36.0°F 29.8°F / 54.9°F 30.10 inHg 52% 0.00″
01/31/2017 08:46 PM 36.1°F 36.1°F / 38.7°F 29.8°F / 54.9°F 30.09 inHg 49% 0.00″
01/31/2017 07:46 PM 36.1°F 36.0°F / 37.2°F 29.8°F / 54.9°F 30.09 inHg 49% 0.00″
01/31/2017 06:46 PM 37.9°F 37.9°F / 40.6°F 29.8°F / 54.9°F 30.09 inHg 43% 0.00″
01/31/2017 05:46 PM 42.3°F 42.3°F / 49.8°F 29.8°F / 54.9°F 30.08 inHg 39% 0.00″
01/31/2017 04:46 PM 51.1°F 51.1°F / 53.1°F 29.8°F / 54.9°F 30.08 inHg 27% 0.00″
01/31/2017 03:46 PM 53.1°F 52.0°F / 54.9°F 29.8°F / 54.9°F 30.07 inHg 25% 0.00″
01/31/2017 02:46 PM 53.2°F 51.4°F / 53.4°F 29.8°F / 53.4°F 30.07 inHg 26% 0.00″
01/31/2017 01:46 PM 52.3°F 49.8°F / 52.5°F 29.8°F / 52.5°F 30.09 inHg 23% 0.00″
01/31/2017 12:46 PM 50.5°F 50.4°F / 51.4°F 29.8°F / 51.4°F 30.11 inHg 29% 0.00″
01/31/2017 11:46 AM 50.5°F 50.4°F / 51.3°F 29.8°F / 51.3°F 30.14 inHg 26% 0.00″
01/31/2017 10:45 AM 49.5°F 45.3°F / 50.2°F 29.8°F / 50.2°F 30.17 inHg 25% 0.00″
01/31/2017 09:45 AM 45.1°F 36.7°F / 45.9°F 29.8°F / 45.9°F 30.18 inHg 34% 0.00″
01/31/2017 08:45 AM 35.2°F 31.3°F / 35.2°F 29.8°F / 35.2°F 30.19 inHg 52% 0.00″
01/31/2017 07:45 AM 31.6°F 29.8°F / 31.8°F 29.8°F / 34.7°F 30.17 inHg 54% 0.00″
01/31/2017 06:45 AM 30.6°F 30.6°F / 31.1°F 30.6°F / 34.7°F 30.16 inHg 55% 0.00″
01/31/2017 05:45 AM 31.1°F 30.9°F / 31.6°F 30.9°F / 34.7°F 30.15 inHg 49% 0.00″
01/31/2017 04:45 AM 33.1°F 32.5°F / 34.7°F 30.9°F / 34.7°F 30.15 inHg 47% 0.00″
01/31/2017 03:45 AM 30.9°F 30.9°F / 32.2°F 30.9°F / 34.2°F 30.17 inHg 57% 0.00″
01/31/2017 02:45 AM 31.8°F 31.6°F / 33.1°F 30.9°F / 34.2°F 30.19 inHg 59% 0.00″
01/31/2017 01:45 AM 31.3°F 30.9°F / 32.4°F 30.9°F / 34.2°F 30.21 inHg 62% 0.00″
01/31/2017 12:45 AM 34.2°F 31.5°F / 34.2°F 31.5°F / 34.2°F 30.20 inHg 55% 0.00″
01/30/2017 11:44 PM 31.5°F 31.5°F / 32.4°F 27.3°F / 51.8°F 30.21 inHg 59% 0.00″
01/30/2017 10:44 PM 32.0°F 32.0°F / 33.3°F 27.3°F / 51.8°F 30.22 inHg 55% 0.00″
01/30/2017 09:44 PM 33.4°F 32.0°F / 33.4°F 27.3°F / 51.8°F 30.22 inHg 51% 0.00″
01/30/2017 08:43 PM 33.4°F 33.4°F / 34.9°F 27.3°F / 51.8°F 30.22 inHg 54% 0.00″
01/30/2017 07:43 PM 36.1°F 36.1°F / 37.9°F 27.3°F / 51.8°F 30.22 inHg 46% 0.00″
01/30/2017 06:43 PM 35.8°F 34.5°F / 38.1°F 27.3°F / 51.8°F 30.22 inHg 45% 0.00″
01/30/2017 05:43 PM 39.7°F 39.7°F / 48.2°F 27.3°F / 51.8°F 30.23 inHg 40% 0.00″
01/30/2017 04:43 PM 49.3°F 49.3°F / 51.1°F 27.3°F / 51.8°F 30.24 inHg 25% 0.00″
01/30/2017 03:43 PM 50.7°F 50.7°F / 51.8°F 27.3°F / 51.8°F 30.25 inHg 23% 0.00″
01/30/2017 02:43 PM 51.6°F 49.5°F / 51.6°F 27.3°F / 51.6°F 30.27 inHg 26% 0.00″
01/30/2017 01:43 PM 50.0°F 48.9°F / 50.0°F 27.3°F / 50.2°F 30.28 inHg 25% 0.00″
01/30/2017 12:43 PM 49.3°F 48.6°F / 50.2°F 27.3°F / 50.2°F 30.31 inHg 24% 0.00″
01/30/2017 11:43 AM 47.8°F 47.1°F / 48.6°F 27.3°F / 48.6°F 30.34 inHg 27% 0.00″
01/30/2017 10:43 AM 46.8°F 45.1°F / 47.5°F 27.3°F / 47.5°F 30.36 inHg 23% 0.00″
01/30/2017 09:43 AM 38.5°F 33.8°F / 38.7°F 27.3°F / 38.7°F 30.39 inHg 38% 0.00″
01/30/2017 08:43 AM 31.5°F 29.3°F / 31.5°F 27.3°F / 31.5°F 30.39 inHg 47% 0.00″
01/30/2017 07:43 AM 28.9°F 27.3°F / 28.9°F 27.3°F / 30.4°F 30.38 inHg 45% 0.00″
01/30/2017 06:43 AM 27.9°F 27.9°F / 28.2°F 27.3°F / 30.4°F 30.38 inHg 51% 0.00″
01/30/2017 05:42 AM 27.7°F 27.7°F / 28.8°F 27.7°F / 30.4°F 30.38 inHg 61% 0.00″
01/30/2017 04:42 AM 28.8°F 28.6°F / 28.9°F 27.9°F / 30.4°F 30.38 inHg 55% 0.00″
01/30/2017 03:42 AM 28.0°F 28.0°F / 29.1°F 28.0°F / 30.4°F 30.38 inHg 60% 0.00″
01/30/2017 02:42 AM 29.1°F 28.9°F / 29.5°F 28.9°F / 30.4°F 30.40 inHg 52% 0.00″
01/30/2017 01:41 AM 29.3°F 29.1°F / 30.4°F 29.1°F / 30.4°F 30.41 inHg 51% 0.00″
01/30/2017 12:41 AM 29.5°F 29.1°F / 29.5°F 29.1°F / 29.5°F 30.43 inHg 51% 0.00″
01/29/2017 11:41 PM 30.0°F 29.7°F / 30.4°F 23.9°F / 47.8°F 30.44 inHg 55% 0.00″
01/29/2017 10:40 PM 31.8°F 31.1°F / 33.4°F 23.9°F / 47.8°F 30.45 inHg 49% 0.00″
01/29/2017 09:40 PM 30.2°F 30.2°F / 33.3°F 23.9°F / 47.8°F 30.47 inHg 54% 0.00″
01/29/2017 08:40 PM 32.2°F 29.7°F / 32.2°F 23.9°F / 47.8°F 30.48 inHg 45% 0.00″
01/29/2017 07:40 PM 30.4°F 30.4°F / 31.5°F 23.9°F / 47.8°F 30.48 inHg 47% 0.00″
01/29/2017 06:40 PM 32.7°F 32.7°F / 34.5°F 23.9°F / 47.8°F 30.48 inHg 48% 0.00″
01/29/2017 05:40 PM 36.7°F 36.7°F / 43.2°F 23.9°F / 47.8°F 30.48 inHg 45% 0.00″
01/29/2017 04:39 PM 45.1°F 44.4°F / 47.1°F 23.9°F / 47.8°F 30.48 inHg 29% 0.00″
01/29/2017 03:39 PM 46.4°F 46.0°F / 47.8°F 23.9°F / 47.8°F 30.48 inHg 27% 0.00″
01/29/2017 02:39 PM 46.6°F 46.2°F / 47.7°F 23.9°F / 47.7°F 30.47 inHg 28% 0.00″
01/29/2017 01:39 PM 47.1°F 45.5°F / 47.5°F 23.9°F / 47.5°F 30.48 inHg 27% 0.00″
01/29/2017 12:39 PM 46.4°F 44.4°F / 46.9°F 23.9°F / 46.9°F 30.52 inHg 29% 0.00″
01/29/2017 11:39 AM 43.2°F 43.0°F / 44.4°F 23.9°F / 44.4°F 30.54 inHg 31% 0.00″
01/29/2017 10:39 AM 42.1°F 41.5°F / 42.3°F 23.9°F / 42.3°F 30.56 inHg 31% 0.00″
01/29/2017 09:39 AM 39.4°F 31.8°F / 39.4°F 23.9°F / 39.4°F 30.56 inHg 36% 0.00″
01/29/2017 08:39 AM 29.8°F 27.0°F / 29.8°F 23.9°F / 29.8°F 30.56 inHg 51% 0.00″
01/29/2017 07:39 AM 26.8°F 26.2°F / 27.1°F 23.9°F / 27.1°F 30.54 inHg 55% 0.00″
01/29/2017 06:39 AM 25.5°F 24.6°F / 25.5°F 23.9°F / 26.8°F 30.53 inHg 55% 0.00″
01/29/2017 05:38 AM 24.4°F 24.4°F / 25.5°F 23.9°F / 26.8°F 30.53 inHg 54% 0.00″
01/29/2017 04:38 AM 24.6°F 23.9°F / 24.6°F 23.9°F / 26.8°F 30.53 inHg 54% 0.00″
01/29/2017 03:38 AM 24.8°F 24.8°F / 26.8°F 24.4°F / 26.8°F 30.51 inHg 57% 0.00″
01/29/2017 02:38 AM 25.9°F 24.4°F / 25.9°F 24.4°F / 26.1°F 30.52 inHg 52% 0.00″
01/29/2017 01:38 AM 25.2°F 25.0°F / 25.3°F 25.0°F / 26.1°F 30.53 inHg 55% 0.00″
01/29/2017 12:38 AM 25.5°F 25.0°F / 26.1°F 25.0°F / 26.1°F 30.55 inHg 53% 0.00″
01/28/2017 11:37 PM 27.0°F 26.1°F / 27.0°F 16.2°F / 43.0°F 30.55 inHg 49% 0.00″
01/28/2017 10:37 PM 26.8°F 26.6°F / 27.0°F 16.2°F / 43.0°F 30.56 inHg 49% 0.00″
01/28/2017 09:37 PM 28.0°F 26.8°F / 28.6°F 16.2°F / 43.0°F 30.56 inHg 48% 0.00″
01/28/2017 08:37 PM 27.5°F 27.1°F / 27.9°F 16.2°F / 43.0°F 30.54 inHg 53% 0.00″
01/28/2017 07:37 PM 28.9°F 28.8°F / 30.7°F 16.2°F / 43.0°F 30.54 inHg 52% 0.00″
01/28/2017 06:37 PM 28.9°F 28.9°F / 31.3°F 16.2°F / 43.0°F 30.52 inHg 53% 0.00″
01/28/2017 05:37 PM 34.0°F 34.0°F / 39.7°F 16.2°F / 43.0°F 30.50 inHg 41% 0.00″
01/28/2017 04:36 PM 42.6°F 40.8°F / 43.0°F 16.2°F / 43.0°F 30.49 inHg 29% 0.00″
01/28/2017 03:36 PM 41.5°F 40.8°F / 43.0°F 16.2°F / 43.0°F 30.48 inHg 31% 0.00″
01/28/2017 02:36 PM 40.6°F 39.6°F / 42.1°F 16.2°F / 42.1°F 30.50 inHg 32% 0.00″
01/28/2017 01:36 PM 38.8°F 37.6°F / 39.0°F 16.2°F / 39.0°F 30.51 inHg 33% 0.00″
01/28/2017 12:36 PM 35.8°F 35.4°F / 37.0°F 16.2°F / 37.0°F 30.52 inHg 36% 0.00″
01/28/2017 11:36 AM 34.5°F 34.5°F / 36.9°F 16.2°F / 36.9°F 30.56 inHg 41% 0.00″
01/28/2017 10:36 AM 32.4°F 31.6°F / 33.8°F 16.2°F / 34.9°F 30.58 inHg 39% 0.00″
01/28/2017 09:36 AM 30.0°F 25.2°F / 30.0°F 16.2°F / 30.0°F 30.56 inHg 52% 0.00″
01/28/2017 08:36 AM 22.8°F 21.7°F / 22.8°F 16.2°F / 22.8°F 30.56 inHg 58% 0.00″
01/28/2017 07:36 AM 21.7°F 21.2°F / 21.7°F 16.2°F / 21.9°F 30.53 inHg 58% 0.00″
01/28/2017 06:36 AM 21.7°F 20.8°F / 21.7°F 16.2°F / 21.7°F 30.51 inHg 58% 0.00″
01/28/2017 05:36 AM 20.3°F 19.9°F / 20.8°F 16.2°F / 20.8°F 30.50 inHg 60% 0.00″
01/28/2017 04:35 AM 17.8°F 17.2°F / 17.8°F 16.2°F / 19.0°F 30.49 inHg 64% 0.00″
01/28/2017 03:35 AM 17.8°F 17.8°F / 18.7°F 16.2°F / 19.0°F 30.50 inHg 63% 0.00″
01/28/2017 02:35 AM 18.9°F 17.2°F / 18.9°F 16.2°F / 19.0°F 30.49 inHg 57% 0.00″
01/28/2017 01:35 AM 16.9°F 16.9°F / 17.4°F 16.2°F / 19.0°F 30.47 inHg 63% 0.00″
01/28/2017 12:35 AM 16.3°F 16.2°F / 19.0°F 16.2°F / 19.0°F 30.48 inHg 64% 0.00″
01/27/2017 11:35 PM 18.1°F 17.8°F / 18.5°F 17.8°F / 34.9°F 30.49 inHg 62% 0.00″
01/27/2017 10:35 PM 19.0°F 19.0°F / 21.0°F 19.0°F / 34.9°F 30.47 inHg 70% 0.00″
01/27/2017 09:34 PM 22.5°F 22.3°F / 22.6°F 21.6°F / 34.9°F 30.45 inHg 64% 0.00″
01/27/2017 08:34 PM 22.8°F 22.8°F / 23.5°F 21.6°F / 34.9°F 30.45 inHg 64% 0.00″
01/27/2017 07:34 PM 23.7°F 23.7°F / 24.8°F 21.6°F / 34.9°F 30.43 inHg 65% 0.00″
01/27/2017 06:34 PM 26.1°F 26.1°F / 28.0°F 21.6°F / 34.9°F 30.40 inHg 61% 0.00″
01/27/2017 05:34 PM 29.8°F 29.8°F / 30.7°F 21.6°F / 34.9°F 30.37 inHg 50% 0.00″
01/27/2017 04:34 PM 33.1°F 31.5°F / 33.1°F 21.6°F / 34.9°F 30.35 inHg 47% 0.00″
01/27/2017 03:34 PM 32.9°F 32.7°F / 34.7°F 21.6°F / 34.9°F 30.33 inHg 46% 0.00″
01/27/2017 02:34 PM 32.4°F 31.8°F / 32.5°F 21.6°F / 34.9°F 30.33 inHg 47% 0.00″
01/27/2017 01:34 PM 32.0°F 31.3°F / 32.4°F 21.6°F / 34.9°F 30.32 inHg 44% 0.00″
01/27/2017 12:34 PM 32.7°F 31.8°F / 33.6°F 21.6°F / 34.9°F 30.33 inHg 43% 0.00″
01/27/2017 11:34 AM 32.5°F 32.4°F / 34.9°F 21.6°F / 34.9°F 30.35 inHg 42% 0.00″
01/27/2017 10:34 AM 31.8°F 29.1°F / 32.2°F 21.6°F / 32.2°F 30.37 inHg 39% 0.00″
01/27/2017 09:34 AM 27.7°F 25.0°F / 27.7°F 21.6°F / 27.7°F 30.37 inHg 42% 0.00″
01/27/2017 08:34 AM 23.7°F 22.3°F / 23.7°F 21.6°F / 25.2°F 30.36 inHg 46% 0.00″
01/27/2017 07:34 AM 21.7°F 21.6°F / 22.1°F 21.6°F / 25.2°F 30.33 inHg 49% 0.00″
01/27/2017 06:34 AM 22.3°F 22.3°F / 22.3°F 22.3°F / 25.2°F 30.31 inHg 49% 0.00″
01/27/2017 05:34 AM 22.5°F 22.5°F / 22.8°F 22.5°F / 25.2°F 30.30 inHg 51% 0.00″
01/27/2017 04:34 AM 23.0°F 23.0°F / 23.2°F 23.0°F / 25.2°F 30.28 inHg 56% 0.00″
01/27/2017 03:34 AM 23.5°F 23.5°F / 24.6°F 23.2°F / 25.2°F 30.28 inHg 58% 0.00″
01/27/2017 02:34 AM 24.3°F 23.4°F / 24.3°F 23.2°F / 25.2°F 30.28 inHg 59% 0.00″
01/27/2017 01:34 AM 23.4°F 23.4°F / 24.1°F 23.4°F / 25.2°F 30.30 inHg 62% 0.00″
01/27/2017 12:33 AM 23.4°F 23.4°F / 25.2°F 23.4°F / 25.2°F 30.30 inHg 62% 0.00″
01/26/2017 11:33 PM 24.8°F 24.3°F / 24.8°F 18.1°F / 35.8°F 30.32 inHg 61% 0.00″
01/26/2017 10:33 PM 21.9°F 21.6°F / 22.5°F 18.1°F / 35.8°F 30.33 inHg 67% 0.00″
01/26/2017 09:33 PM 22.1°F 22.1°F / 23.4°F 18.1°F / 35.8°F 30.33 inHg 67% 0.00″
01/26/2017 08:33 PM 23.2°F 23.0°F / 24.4°F 18.1°F / 35.8°F 30.33 inHg 62% 0.00″
01/26/2017 07:32 PM 24.4°F 24.3°F / 25.5°F 18.1°F / 35.8°F 30.33 inHg 60% 0.00″
01/26/2017 06:32 PM 26.6°F 26.4°F / 27.7°F 18.1°F / 35.8°F 30.31 inHg 53% 0.00″
01/26/2017 05:32 PM 29.5°F 29.5°F / 31.6°F 18.1°F / 35.8°F 30.30 inHg 49% 0.00″
01/26/2017 04:32 PM 32.7°F 32.4°F / 33.8°F 18.1°F / 35.8°F 30.29 inHg 43% 0.00″
01/26/2017 03:32 PM 35.2°F 33.4°F / 35.8°F 18.1°F / 35.8°F 30.30 inHg 37% 0.00″
01/26/2017 02:32 PM 33.4°F 32.5°F / 34.3°F 18.1°F / 34.3°F 30.29 inHg 39% 0.00″
01/26/2017 01:32 PM 33.3°F 32.5°F / 34.2°F 18.1°F / 34.2°F 30.29 inHg 37% 0.00″
01/26/2017 12:32 PM 32.5°F 30.7°F / 32.7°F 18.1°F / 32.7°F 30.32 inHg 42% 0.00″
01/26/2017 11:32 AM 31.8°F 30.7°F / 31.8°F 18.1°F / 31.8°F 30.35 inHg 39% 0.00″
01/26/2017 10:31 AM 30.0°F 28.8°F / 30.0°F 18.1°F / 30.0°F 30.36 inHg 43% 0.00″
01/26/2017 09:31 AM 27.3°F 23.0°F / 27.3°F 18.1°F / 27.3°F 30.36 inHg 43% 0.00″
01/26/2017 08:31 AM 20.7°F 19.0°F / 20.7°F 18.1°F / 22.3°F 30.35 inHg 60% 0.00″
01/26/2017 07:31 AM 18.1°F 18.1°F / 18.9°F 18.1°F / 22.3°F 30.34 inHg 63% 0.00″
01/26/2017 06:31 AM 19.9°F 19.6°F / 19.9°F 18.3°F / 22.3°F 30.33 inHg 57% 0.00″
01/26/2017 05:31 AM 21.6°F 19.8°F / 21.6°F 18.3°F / 22.3°F 30.30 inHg 54% 0.00″
01/26/2017 04:30 AM 19.0°F 19.0°F / 20.7°F 18.3°F / 22.3°F 30.28 inHg 58% 0.00″
01/26/2017 03:30 AM 20.7°F 19.2°F / 20.8°F 18.3°F / 22.3°F 30.28 inHg 54% 0.00″
01/26/2017 02:30 AM 19.0°F 18.3°F / 19.0°F 18.3°F / 22.3°F 30.30 inHg 52% 0.00″
01/26/2017 01:30 AM 20.7°F 20.7°F / 21.0°F 20.7°F / 22.3°F 30.30 inHg 52% 0.00″
01/26/2017 12:30 AM 21.9°F 21.9°F / 22.3°F 21.9°F / 22.3°F 30.30 inHg 46% 0.00″
01/25/2017 11:30 PM 21.6°F 21.6°F / 22.3°F 17.1°F / 33.6°F 30.29 inHg 49% 0.00″
01/25/2017 10:30 PM 22.3°F 21.7°F / 22.3°F 17.1°F / 33.6°F 30.29 inHg 54% 0.00″
01/25/2017 09:30 PM 22.5°F 21.9°F / 22.5°F 17.1°F / 33.6°F 30.29 inHg 53% 0.00″
01/25/2017 08:30 PM 22.3°F 22.3°F / 23.0°F 17.1°F / 33.6°F 30.27 inHg 55% 0.00″
01/25/2017 07:30 PM 24.1°F 24.1°F / 25.3°F 17.1°F / 33.6°F 30.25 inHg 49% 0.00″
01/25/2017 06:29 PM 27.1°F 27.1°F / 27.9°F 17.1°F / 33.6°F 30.22 inHg 42% 0.00″
01/25/2017 05:29 PM 29.5°F 29.5°F / 30.7°F 17.1°F / 33.6°F 30.18 inHg 45% 0.00″
01/25/2017 04:29 PM 32.7°F 30.9°F / 32.9°F 17.1°F / 33.6°F 30.16 inHg 39% 0.00″
01/25/2017 03:29 PM 32.0°F 31.1°F / 32.5°F 17.1°F / 33.6°F 30.14 inHg 41% 0.00″
01/25/2017 02:29 PM 32.5°F 31.6°F / 33.3°F 17.1°F / 33.3°F 30.13 inHg 42% 0.00″
01/25/2017 01:29 PM 31.6°F 30.7°F / 31.8°F 17.1°F / 31.8°F 30.12 inHg 44% 0.00″
01/25/2017 12:29 PM 30.7°F 30.7°F / 31.8°F 17.1°F / 31.8°F 30.12 inHg 46% 0.00″
01/25/2017 11:29 AM 29.8°F 28.8°F / 30.0°F 17.1°F / 30.0°F 30.14 inHg 50% 0.00″
01/25/2017 10:29 AM 28.4°F 27.9°F / 28.8°F 17.1°F / 28.8°F 30.14 inHg 53% 0.00″
01/25/2017 09:29 AM 26.4°F 23.5°F / 26.4°F 17.1°F / 27.9°F 30.11 inHg 56% 0.00″
01/25/2017 08:29 AM 19.6°F 18.1°F / 19.6°F 17.1°F / 27.9°F 30.08 inHg 74% 0.00″
01/25/2017 07:29 AM 18.3°F 17.1°F / 18.3°F 17.1°F / 27.9°F 30.05 inHg 73% 0.00″
01/25/2017 06:29 AM 17.8°F 17.8°F / 19.0°F 17.8°F / 27.9°F 30.01 inHg 76% 0.00″
01/25/2017 05:29 AM 20.1°F 20.1°F / 21.6°F 20.1°F / 27.9°F 29.97 inHg 71% 0.00″
01/25/2017 04:29 AM 21.6°F 21.6°F / 22.6°F 21.6°F / 27.9°F 29.95 inHg 70% 0.00″
01/25/2017 03:28 AM 23.9°F 23.9°F / 25.3°F 23.9°F / 27.9°F 29.92 inHg 63% 0.00″
01/25/2017 02:28 AM 25.9°F 25.9°F / 26.2°F 25.9°F / 27.9°F 29.92 inHg 59% 0.00″
01/25/2017 01:28 AM 26.8°F 26.8°F / 27.3°F 26.8°F / 27.9°F 29.90 inHg 57% 0.00″
01/25/2017 12:28 AM 27.5°F 27.5°F / 27.9°F 27.5°F / 27.9°F 29.88 inHg 54% 0.00″
01/24/2017 11:28 PM 28.0°F 28.0°F / 28.2°F 28.0°F / 45.3°F 29.88 inHg 53% 0.00″
01/24/2017 10:28 PM 28.6°F 28.6°F / 29.3°F 28.6°F / 45.3°F 29.86 inHg 53% 0.00″
01/24/2017 09:28 PM 29.8°F 29.8°F / 30.4°F 29.8°F / 45.3°F 29.86 inHg 48% 0.00″
01/24/2017 08:28 PM 31.1°F 31.1°F / 31.5°F 30.7°F / 45.3°F 29.84 inHg 44% 0.00″
01/24/2017 07:28 PM 30.7°F 30.7°F / 31.5°F 30.7°F / 45.3°F 29.82 inHg 48% 0.00″
01/24/2017 06:28 PM 31.3°F 31.3°F / 31.6°F 31.3°F / 45.3°F 29.78 inHg 47% 0.00″
01/24/2017 05:28 PM 32.5°F 32.5°F / 33.8°F 32.4°F / 45.3°F 29.74 inHg 44% 0.00″
01/24/2017 04:28 PM 35.8°F 35.8°F / 36.5°F 32.4°F / 45.3°F 29.71 inHg 38% 0.00″
01/24/2017 03:28 PM 37.2°F 37.0°F / 37.9°F 32.4°F / 45.3°F 29.68 inHg 38% 0.00″
01/24/2017 02:28 PM 38.1°F 37.9°F / 38.8°F 32.4°F / 45.3°F 29.66 inHg 40% 0.00″
01/24/2017 01:28 PM 37.9°F 36.7°F / 38.1°F 32.4°F / 45.3°F 29.65 inHg 48% 0.00″
01/24/2017 12:28 PM 36.3°F 36.3°F / 38.1°F 32.4°F / 45.3°F 29.66 inHg 51% 0.00″
01/24/2017 11:28 AM 34.3°F 33.3°F / 34.3°F 32.4°F / 45.3°F 29.69 inHg 60% 0.00″
01/24/2017 10:28 AM 32.9°F 32.7°F / 33.1°F 32.4°F / 45.3°F 29.70 inHg 68% 0.00″
01/24/2017 09:27 AM 32.5°F 32.4°F / 32.5°F 32.4°F / 45.3°F 29.67 inHg 72% 0.00″
01/24/2017 08:27 AM 32.4°F 32.4°F / 32.7°F 32.4°F / 45.3°F 29.65 inHg 75% 0.00″
01/24/2017 07:27 AM 33.6°F 33.6°F / 34.5°F 33.6°F / 45.3°F 29.62 inHg 75% 0.00″
01/24/2017 06:27 AM 35.2°F 35.2°F / 36.0°F 35.2°F / 45.3°F 29.59 inHg 71% 0.00″
01/24/2017 05:27 AM 36.3°F 36.3°F / 37.2°F 36.3°F / 45.3°F 29.58 inHg 79% 0.00″
01/24/2017 04:27 AM 38.1°F 38.1°F / 39.7°F 38.1°F / 45.3°F 29.57 inHg 71% 0.00″
01/24/2017 03:27 AM 39.7°F 39.0°F / 39.7°F 39.0°F / 45.3°F 29.57 inHg 59% 0.00″
01/24/2017 02:27 AM 39.9°F 39.9°F / 41.5°F 39.9°F / 45.3°F 29.58 inHg 61% 0.00″
01/24/2017 12:27 AM 44.8°F 44.8°F / 45.3°F 44.8°F / 45.3°F 29.60 inHg 52% 0.00″
01/23/2017 11:27 PM 46.0°F 46.0°F / 46.4°F 33.1°F / 51.4°F 29.62 inHg 48% 0.07″
01/23/2017 10:27 PM 46.4°F 46.0°F / 46.6°F 33.1°F / 51.4°F 29.64 inHg 42% 0.07″
01/23/2017 09:27 PM 46.8°F 46.8°F / 47.3°F 33.1°F / 51.4°F 29.67 inHg 44% 0.07″
01/23/2017 08:27 PM 48.0°F 48.0°F / 48.2°F 33.1°F / 51.4°F 29.70 inHg 44% 0.07″
01/23/2017 07:27 PM 47.5°F 47.5°F / 47.8°F 33.1°F / 51.4°F 29.73 inHg 45% 0.07″
01/23/2017 06:27 PM 46.0°F 45.0°F / 46.0°F 33.1°F / 51.4°F 29.76 inHg 44% 0.07″
01/23/2017 05:27 PM 46.9°F 46.9°F / 47.7°F 33.1°F / 51.4°F 29.79 inHg 44% 0.07″
01/23/2017 04:27 PM 49.1°F 49.1°F / 50.4°F 33.1°F / 51.4°F 29.81 inHg 46% 0.07″
01/23/2017 03:27 PM 51.1°F 50.9°F / 51.4°F 33.1°F / 51.4°F 29.83 inHg 45% 0.07″
01/23/2017 02:27 PM 50.5°F 50.4°F / 51.3°F 33.1°F / 51.4°F 29.86 inHg 47% 0.07″
01/23/2017 01:27 PM 50.5°F 50.4°F / 50.7°F 33.1°F / 50.7°F 29.90 inHg 44% 0.07″
01/23/2017 12:27 PM 50.0°F 48.6°F / 50.2°F 33.1°F / 50.2°F 29.96 inHg 31% 0.07″
01/23/2017 11:27 AM 46.8°F 45.9°F / 46.8°F 33.1°F / 47.1°F 30.01 inHg 42% 0.05″
01/23/2017 10:27 AM 46.0°F 44.4°F / 46.2°F 33.1°F / 46.2°F 30.05 inHg 44% 0.03″
01/23/2017 09:27 AM 43.3°F 39.9°F / 43.3°F 33.1°F / 43.3°F 30.06 inHg 51% 0.00″
01/23/2017 08:26 AM 34.9°F 34.3°F / 34.9°F 33.1°F / 36.9°F 30.07 inHg 71% 0.00″
01/23/2017 07:26 AM 34.9°F 34.3°F / 34.9°F 33.1°F / 36.9°F 30.08 inHg 70% 0.00″
01/23/2017 06:26 AM 34.2°F 33.4°F / 34.3°F 33.1°F / 36.9°F 30.07 inHg 73% 0.00″
01/23/2017 05:26 AM 33.4°F 33.1°F / 33.6°F 33.1°F / 36.9°F 30.08 inHg 79% 0.00″
01/23/2017 04:26 AM 35.1°F 34.5°F / 35.8°F 33.6°F / 36.9°F 30.10 inHg 77% 0.00″
01/23/2017 03:26 AM 36.9°F 35.1°F / 36.9°F 33.6°F / 36.9°F 30.12 inHg 79% 0.00″
01/23/2017 02:26 AM 34.2°F 34.0°F / 34.2°F 33.6°F / 36.5°F 30.14 inHg 86% 0.00″
01/23/2017 01:26 AM 34.9°F 34.2°F / 35.1°F 34.2°F / 36.5°F 30.16 inHg 83% 0.00″
01/23/2017 12:26 AM 35.1°F 35.1°F / 36.5°F 35.1°F / 36.5°F 30.19 inHg 81% 0.00″
01/22/2017 11:25 PM 36.1°F 36.0°F / 36.7°F 21.7°F / 42.3°F 30.22 inHg 80% 0.21″
01/22/2017 10:24 PM 35.6°F 34.2°F / 35.8°F 21.7°F / 42.3°F 30.21 inHg 78% 0.21″
01/22/2017 09:24 PM 33.3°F 33.3°F / 33.8°F 21.7°F / 42.3°F 30.21 inHg 77% 0.21″
01/22/2017 08:24 PM 32.2°F 31.3°F / 32.2°F 21.7°F / 42.3°F 30.22 inHg 71% 0.21″
01/22/2017 07:24 PM 31.6°F 31.5°F / 32.5°F 21.7°F / 42.3°F 30.23 inHg 60% 0.21″
01/22/2017 06:24 PM 31.3°F 31.1°F / 31.6°F 21.7°F / 42.3°F 30.23 inHg 65% 0.21″
01/22/2017 05:24 PM 34.3°F 34.3°F / 37.4°F 21.7°F / 42.3°F 30.21 inHg 51% 0.21″
01/22/2017 04:24 PM 41.7°F 39.6°F / 41.7°F 21.7°F / 42.3°F 30.19 inHg 33% 0.20″
01/22/2017 03:24 PM 40.5°F 40.5°F / 41.2°F 21.7°F / 41.5°F 30.21 inHg 35% 0.19″
01/22/2017 02:24 PM 40.5°F 40.3°F / 41.2°F 21.7°F / 41.2°F 30.19 inHg 34% 0.18″
01/22/2017 01:24 PM 39.2°F 38.5°F / 39.4°F 21.7°F / 39.6°F 30.22 inHg 38% 0.16″
01/22/2017 12:23 PM 38.1°F 36.1°F / 38.1°F 21.7°F / 38.1°F 30.24 inHg 40% 0.12″
01/22/2017 11:23 AM 35.1°F 35.1°F / 35.4°F 21.7°F / 35.4°F 30.27 inHg 50% 0.08″
01/22/2017 10:23 AM 32.7°F 30.9°F / 32.9°F 21.7°F / 32.9°F 30.29 inHg 59% 0.02″
01/22/2017 09:23 AM 28.6°F 25.5°F / 28.6°F 21.7°F / 28.6°F 30.28 inHg 71% 0.00″
01/22/2017 08:23 AM 23.2°F 22.6°F / 23.2°F 21.7°F / 28.4°F 30.24 inHg 84% 0.00″
01/22/2017 07:23 AM 21.9°F 21.7°F / 21.9°F 21.7°F / 28.4°F 30.17 inHg 85% 0.00″
01/22/2017 06:23 AM 22.8°F 22.8°F / 23.5°F 22.8°F / 28.4°F 30.13 inHg 83% 0.00″
01/22/2017 05:22 AM 23.7°F 23.7°F / 24.3°F 23.4°F / 28.4°F 30.12 inHg 80% 0.00″
01/22/2017 04:22 AM 23.4°F 23.4°F / 24.1°F 23.4°F / 28.4°F 30.08 inHg 83% 0.00″
01/22/2017 03:22 AM 23.9°F 23.9°F / 24.3°F 23.9°F / 28.4°F 30.05 inHg 82% 0.00″
01/22/2017 02:22 AM 25.0°F 25.0°F / 25.9°F 25.0°F / 28.4°F 30.03 inHg 81% 0.00″
01/22/2017 01:22 AM 27.1°F 27.1°F / 27.3°F 27.1°F / 28.4°F 29.99 inHg 76% 0.00″
01/22/2017 12:21 AM 28.2°F 28.2°F / 28.4°F 28.2°F / 28.4°F 29.96 inHg 74% 0.00″
01/21/2017 11:21 PM 28.6°F 28.4°F / 28.8°F 28.0°F / 34.5°F 29.93 inHg 76% 0.00″
01/21/2017 10:21 PM 28.4°F 28.2°F / 28.4°F 28.0°F / 34.5°F 29.89 inHg 79% 0.00″
01/21/2017 09:21 PM 28.4°F 28.4°F / 28.8°F 28.4°F / 34.5°F 29.83 inHg 78% 0.00″
01/21/2017 08:21 PM 28.8°F 28.8°F / 28.9°F 28.8°F / 34.5°F 29.78 inHg 76% 0.00″
01/21/2017 07:21 PM 28.9°F 28.9°F / 29.5°F 28.9°F / 34.5°F 29.71 inHg 75% 0.00″
01/21/2017 06:21 PM 29.7°F 29.5°F / 29.7°F 29.5°F / 34.5°F 29.68 inHg 76% 0.00″
01/21/2017 05:21 PM 29.7°F 29.7°F / 29.7°F 29.7°F / 34.5°F 29.62 inHg 80% 0.00″
01/21/2017 04:21 PM 31.1°F 31.1°F / 31.3°F 30.7°F / 34.5°F 29.58 inHg 74% 0.00″
01/21/2017 03:20 PM 32.4°F 32.4°F / 32.5°F 30.7°F / 34.5°F 29.55 inHg 81% 0.00″
01/21/2017 02:20 PM 32.7°F 32.5°F / 32.9°F 30.7°F / 34.5°F 29.51 inHg 79% 0.00″
01/21/2017 01:20 PM 32.4°F 32.4°F / 32.5°F 30.7°F / 34.5°F 29.50 inHg 77% 0.00″
01/21/2017 12:20 PM 32.2°F 31.8°F / 32.2°F 30.7°F / 34.5°F 29.52 inHg 85% 0.00″
01/21/2017 11:20 AM 31.6°F 31.6°F / 32.0°F 30.7°F / 34.5°F 29.54 inHg 87% 0.00″
01/21/2017 10:20 AM 31.1°F 30.7°F / 31.3°F 30.7°F / 34.5°F 29.53 inHg 92% 0.00″
01/21/2017 09:20 AM 31.3°F 31.1°F / 31.3°F 31.1°F / 34.5°F 29.50 inHg 89% 0.00″
01/21/2017 08:20 AM 31.5°F 31.5°F / 31.8°F 31.5°F / 34.5°F 29.48 inHg 90% 0.00″
01/21/2017 07:20 AM 32.2°F 32.2°F / 32.5°F 32.2°F / 34.5°F 29.47 inHg 94% 0.00″
01/21/2017 06:20 AM 33.4°F 33.4°F / 33.8°F 32.9°F / 34.5°F 29.49 inHg 93% 0.00″
01/21/2017 05:20 AM 33.3°F 33.1°F / 33.3°F 32.9°F / 34.5°F 29.47 inHg 94% 0.00″
01/21/2017 04:20 AM 33.4°F 33.4°F / 34.3°F 33.3°F / 34.5°F 29.48 inHg 93% 0.00″
01/21/2017 03:20 AM 34.2°F 34.2°F / 34.3°F 33.3°F / 34.5°F 29.52 inHg 92% 0.00″
01/21/2017 02:20 AM 34.5°F 34.5°F / 34.5°F 33.3°F / 34.5°F 29.56 inHg 91% 0.00″
01/21/2017 01:20 AM 33.6°F 33.4°F / 33.6°F 33.3°F / 33.6°F 29.58 inHg 93% 0.00″
01/21/2017 12:20 AM 33.3°F 33.3°F / 33.6°F 33.3°F / 33.6°F 29.60 inHg 92% 0.00″
01/20/2017 11:20 PM 33.3°F 33.1°F / 33.3°F 33.1°F / 42.4°F 29.63 inHg 91% 0.00″
01/20/2017 10:20 PM 33.6°F 33.6°F / 34.0°F 33.6°F / 42.4°F 29.64 inHg 86% 0.00″
01/20/2017 09:20 PM 35.8°F 35.6°F / 36.1°F 34.0°F / 42.4°F 29.65 inHg 77% 0.00″
01/20/2017 08:20 PM 36.9°F 36.9°F / 37.8°F 34.0°F / 42.4°F 29.66 inHg 76% 0.00″
01/20/2017 07:20 PM 37.9°F 37.6°F / 37.9°F 34.0°F / 42.4°F 29.68 inHg 68% 0.00″
01/20/2017 06:20 PM 37.6°F 37.6°F / 37.8°F 34.0°F / 42.4°F 29.69 inHg 69% 0.00″
01/20/2017 05:20 PM 37.6°F 37.6°F / 37.8°F 34.0°F / 42.4°F 29.68 inHg 71% 0.00″
01/20/2017 04:20 PM 37.9°F 37.9°F / 38.3°F 34.0°F / 42.4°F 29.69 inHg 69% 0.00″
01/20/2017 03:20 PM 39.6°F 38.7°F / 39.6°F 34.0°F / 42.4°F 29.67 inHg 63% 0.00″
01/20/2017 02:19 PM 38.5°F 37.8°F / 38.5°F 34.0°F / 42.4°F 29.69 inHg 69% 0.00″
01/20/2017 01:19 PM 41.4°F 40.6°F / 41.4°F 34.0°F / 41.4°F 29.67 inHg 63% 0.00″
01/20/2017 12:19 PM 40.6°F 37.0°F / 40.8°F 34.0°F / 40.8°F 29.72 inHg 62% 0.00″
01/20/2017 11:19 AM 38.8°F 37.8°F / 38.8°F 34.0°F / 38.8°F 29.76 inHg 65% 0.00″
01/20/2017 10:19 AM 36.3°F 36.3°F / 37.0°F 34.0°F / 37.4°F 29.80 inHg 68% 0.00″
01/20/2017 09:19 AM 35.2°F 35.2°F / 35.4°F 34.0°F / 36.5°F 29.78 inHg 69% 0.00″
01/20/2017 08:19 AM 35.1°F 34.5°F / 35.1°F 34.0°F / 36.5°F 29.77 inHg 71% 0.00″
01/20/2017 07:19 AM 34.5°F 34.2°F / 34.5°F 34.0°F / 36.5°F 29.76 inHg 71% 0.00″
01/20/2017 06:19 AM 34.3°F 34.3°F / 34.3°F 34.3°F / 36.5°F 29.77 inHg 74% 0.00″
01/20/2017 05:19 AM 34.3°F 34.3°F / 34.5°F 34.3°F / 36.5°F 29.75 inHg 74% 0.00″
01/20/2017 04:19 AM 34.5°F 34.3°F / 34.5°F 34.3°F / 36.5°F 29.75 inHg 74% 0.00″
01/20/2017 03:19 AM 34.9°F 34.9°F / 35.1°F 34.9°F / 36.5°F 29.77 inHg 76% 0.00″
01/20/2017 02:19 AM 35.4°F 35.4°F / 35.6°F 35.4°F / 36.5°F 29.78 inHg 77% 0.00″
01/20/2017 01:19 AM 36.1°F 36.1°F / 36.3°F 36.1°F / 36.5°F 29.78 inHg 78% 0.00″
01/20/2017 12:19 AM 36.5°F 36.3°F / 36.5°F 36.3°F / 36.5°F 29.80 inHg 77% 0.00″
01/19/2017 11:19 PM 36.0°F 36.0°F / 36.1°F 30.4°F / 43.5°F 29.81 inHg 80% 0.01″
01/19/2017 10:19 PM 35.8°F 35.8°F / 36.0°F 30.4°F / 43.5°F 29.82 inHg 80% 0.01″
01/19/2017 09:19 PM 34.9°F 34.5°F / 34.9°F 30.4°F / 43.5°F 29.82 inHg 81% 0.01″
01/19/2017 08:19 PM 36.0°F 36.0°F / 36.0°F 30.4°F / 43.5°F 29.81 inHg 79% 0.01″
01/19/2017 07:19 PM 36.0°F 36.0°F / 36.5°F 30.4°F / 43.5°F 29.81 inHg 79% 0.01″
01/19/2017 06:19 PM 36.9°F 36.9°F / 37.2°F 30.4°F / 43.5°F 29.79 inHg 76% 0.01″
01/19/2017 05:19 PM 38.1°F 38.1°F / 38.5°F 30.4°F / 43.5°F 29.80 inHg 74% 0.01″
01/19/2017 04:19 PM 39.0°F 39.0°F / 39.6°F 30.4°F / 43.5°F 29.80 inHg 74% 0.01″
01/19/2017 03:18 PM 40.8°F 40.5°F / 41.5°F 30.4°F / 43.5°F 29.80 inHg 63% 0.01″
01/19/2017 02:18 PM 43.0°F 42.6°F / 43.5°F 30.4°F / 43.5°F 29.83 inHg 55% 0.01″
01/19/2017 01:18 PM 41.5°F 41.4°F / 43.0°F 30.4°F / 43.0°F 29.84 inHg 52% 0.01″
01/19/2017 12:18 PM 41.4°F 40.3°F / 41.5°F 30.4°F / 41.5°F 29.88 inHg 56% 0.01″
01/19/2017 11:18 AM 40.5°F 39.6°F / 40.5°F 30.4°F / 40.5°F 29.93 inHg 60% 0.01″
01/19/2017 10:18 AM 38.3°F 35.2°F / 38.3°F 30.4°F / 38.3°F 29.94 inHg 64% 0.01″
01/19/2017 09:18 AM 34.3°F 32.2°F / 34.3°F 30.4°F / 34.3°F 29.94 inHg 72% 0.01″
01/19/2017 08:18 AM 30.6°F 30.6°F / 30.9°F 30.4°F / 33.6°F 29.94 inHg 87% 0.00″
01/19/2017 07:18 AM 30.6°F 30.4°F / 30.7°F 30.4°F / 33.6°F 29.93 inHg 86% 0.00″
01/19/2017 06:18 AM 30.7°F 30.7°F / 31.1°F 30.7°F / 33.6°F 29.92 inHg 88% 0.00″
01/19/2017 05:18 AM 31.6°F 31.6°F / 31.8°F 31.1°F / 33.6°F 29.91 inHg 85% 0.00″
01/19/2017 04:18 AM 31.3°F 31.1°F / 31.3°F 31.1°F / 33.6°F 29.90 inHg 88% 0.00″
01/19/2017 03:18 AM 31.6°F 31.5°F / 31.6°F 31.5°F / 33.6°F 29.93 inHg 89% 0.00″
01/19/2017 02:18 AM 31.8°F 31.8°F / 32.4°F 31.6°F / 33.6°F 29.95 inHg 91% 0.00″
01/19/2017 01:18 AM 32.2°F 32.2°F / 32.5°F 32.2°F / 33.6°F 29.96 inHg 91% 0.00″
01/19/2017 12:17 AM 33.4°F 33.3°F / 33.6°F 33.3°F / 33.6°F 29.97 inHg 90% 0.00″
01/18/2017 11:17 PM 34.5°F 34.3°F / 34.5°F 30.6°F / 41.4°F 29.98 inHg 88% 0.37″
01/18/2017 10:17 PM 35.2°F 35.2°F / 35.4°F 30.6°F / 41.4°F 30.00 inHg 87% 0.37″
01/18/2017 09:17 PM 36.7°F 36.7°F / 36.9°F 30.6°F / 41.4°F 30.00 inHg 86% 0.37″
01/18/2017 08:17 PM 37.0°F 36.9°F / 37.0°F 30.6°F / 41.4°F 30.01 inHg 86% 0.37″
01/18/2017 07:17 PM 36.5°F 36.3°F / 36.5°F 30.6°F / 41.4°F 30.02 inHg 88% 0.37″
01/18/2017 06:17 PM 36.1°F 36.1°F / 36.1°F 30.6°F / 41.4°F 30.02 inHg 89% 0.37″
01/18/2017 05:17 PM 36.9°F 36.9°F / 37.4°F 30.6°F / 41.4°F 30.02 inHg 87% 0.37″
01/18/2017 04:17 PM 37.8°F 37.8°F / 38.8°F 30.6°F / 41.4°F 30.03 inHg 85% 0.37″
01/18/2017 03:17 PM 40.8°F 40.1°F / 40.8°F 30.6°F / 41.0°F 30.03 inHg 84% 0.37″
01/18/2017 02:17 PM 38.7°F 37.6°F / 38.7°F 30.6°F / 39.9°F 30.04 inHg 87% 0.37″
01/18/2017 01:17 PM 39.4°F 39.2°F / 39.9°F 30.6°F / 39.9°F 30.06 inHg 86% 0.34″
01/18/2017 12:17 PM 38.7°F 37.9°F / 38.8°F 30.6°F / 38.8°F 30.09 inHg 89% 0.25″
01/18/2017 11:17 AM 36.0°F 35.6°F / 36.0°F 30.6°F / 36.0°F 30.14 inHg 95% 0.12″
01/18/2017 10:17 AM 34.9°F 34.3°F / 34.9°F 30.6°F / 34.9°F 30.16 inHg 96% 0.06″
01/18/2017 09:17 AM 32.9°F 32.5°F / 32.9°F 30.6°F / 32.9°F 30.15 inHg 96% 0.01″
01/18/2017 08:17 AM 31.8°F 30.6°F / 31.8°F 30.6°F / 32.7°F 30.14 inHg 97% 0.01″
01/18/2017 07:17 AM 31.3°F 31.1°F / 31.5°F 31.1°F / 32.7°F 30.14 inHg 96% 0.01″
01/18/2017 06:16 AM 32.4°F 32.4°F / 32.4°F 31.8°F / 32.7°F 30.14 inHg 96% 0.00″
01/18/2017 05:16 AM 32.2°F 31.8°F / 32.2°F 31.8°F / 32.7°F 30.12 inHg 96% 0.00″
01/18/2017 04:16 AM 32.5°F 32.5°F / 32.5°F 32.0°F / 32.7°F 30.11 inHg 96% 0.00″
01/18/2017 03:15 AM 32.5°F 32.4°F / 32.5°F 32.0°F / 32.7°F 30.14 inHg 96% 0.00″
01/18/2017 02:15 AM 32.2°F 32.2°F / 32.2°F 32.2°F / 32.7°F 30.14 inHg 96% 0.00″
01/18/2017 01:15 AM 32.7°F 32.7°F / 32.7°F 32.5°F / 32.7°F 30.14 inHg 96% 0.00″
01/18/2017 12:14 AM 32.7°F 32.7°F / 32.7°F 32.7°F / 32.7°F 30.16 inHg 96% 0.00″
01/17/2017 11:14 PM 32.7°F 32.7°F / 32.9°F 30.2°F / 43.2°F 30.16 inHg 96% 0.06″
01/17/2017 10:14 PM 32.7°F 32.7°F / 32.7°F 30.2°F / 43.2°F 30.16 inHg 96% 0.06″
01/17/2017 09:13 PM 32.9°F 32.7°F / 32.9°F 30.2°F / 43.2°F 30.15 inHg 96% 0.06″
01/17/2017 08:12 PM 32.7°F 32.7°F / 32.7°F 30.2°F / 43.2°F 30.14 inHg 95% 0.06″
01/17/2017 07:12 PM 32.7°F 32.5°F / 32.7°F 30.2°F / 43.2°F 30.12 inHg 95% 0.06″
01/17/2017 06:12 PM 32.7°F 32.7°F / 32.7°F 30.2°F / 43.2°F 30.11 inHg 95% 0.06″
01/17/2017 05:11 PM 33.1°F 33.1°F / 33.3°F 30.2°F / 43.2°F 30.09 inHg 94% 0.06″
01/17/2017 04:11 PM 34.9°F 34.9°F / 35.6°F 30.2°F / 43.2°F 30.07 inHg 93% 0.05″
01/17/2017 03:11 PM 37.0°F 37.0°F / 37.2°F 30.2°F / 43.2°F 30.07 inHg 92% 0.00″
01/17/2017 02:11 PM 38.1°F 38.1°F / 38.8°F 30.2°F / 43.2°F 30.06 inHg 86% 0.00″
01/17/2017 01:11 PM 39.4°F 39.2°F / 39.6°F 30.2°F / 43.2°F 30.06 inHg 81% 0.00″
01/17/2017 12:11 PM 39.7°F 39.7°F / 39.9°F 30.2°F / 43.2°F 30.09 inHg 76% 0.00″
01/17/2017 11:11 AM 41.9°F 41.9°F / 43.2°F 30.2°F / 43.2°F 30.12 inHg 68% 0.00″
01/17/2017 10:11 AM 39.9°F 38.8°F / 39.9°F 30.2°F / 39.9°F 30.14 inHg 67% 0.00″
01/17/2017 09:11 AM 36.7°F 34.3°F / 36.7°F 30.2°F / 36.7°F 30.13 inHg 83% 0.00″
01/17/2017 08:11 AM 32.7°F 32.4°F / 32.9°F 30.2°F / 33.6°F 30.11 inHg 87% 0.00″
01/17/2017 07:11 AM 30.2°F 30.2°F / 30.6°F 30.2°F / 33.6°F 30.09 inHg 85% 0.00″
01/17/2017 06:10 AM 32.5°F 32.5°F / 33.1°F 30.6°F / 33.6°F 30.07 inHg 78% 0.00″
01/17/2017 05:10 AM 33.6°F 33.6°F / 33.6°F 30.6°F / 33.6°F 30.06 inHg 75% 0.00″
01/17/2017 04:10 AM 32.0°F 31.5°F / 32.0°F 30.6°F / 33.4°F 30.05 inHg 79% 0.00″
01/17/2017 03:10 AM 30.6°F 30.6°F / 30.7°F 30.6°F / 33.4°F 30.07 inHg 88% 0.00″
01/17/2017 02:10 AM 33.3°F 33.3°F / 33.4°F 31.5°F / 33.4°F 30.07 inHg 83% 0.00″
01/17/2017 01:10 AM 32.4°F 31.8°F / 32.4°F 31.5°F / 33.1°F 30.09 inHg 88% 0.00″
01/17/2017 12:10 AM 32.7°F 32.7°F / 33.1°F 32.7°F / 33.1°F 30.08 inHg 87% 0.00″
01/16/2017 11:10 PM 33.1°F 32.7°F / 33.1°F 31.5°F / 42.1°F 30.08 inHg 86% 0.44″
01/16/2017 10:09 PM 32.5°F 32.4°F / 32.5°F 31.8°F / 42.1°F 30.07 inHg 88% 0.44″
01/16/2017 09:09 PM 32.7°F 32.5°F / 32.7°F 31.8°F / 42.1°F 30.07 inHg 90% 0.44″
01/16/2017 08:09 PM 31.8°F 31.8°F / 32.4°F 31.8°F / 42.1°F 30.07 inHg 94% 0.44″
01/16/2017 07:09 PM 33.6°F 33.6°F / 33.8°F 32.9°F / 42.1°F 30.06 inHg 93% 0.44″
01/16/2017 06:09 PM 35.2°F 35.2°F / 35.2°F 32.9°F / 42.1°F 30.04 inHg 92% 0.44″
01/16/2017 05:09 PM 37.8°F 37.8°F / 38.8°F 32.9°F / 42.1°F 30.02 inHg 86% 0.44″
01/16/2017 04:09 PM 41.9°F 41.2°F / 41.9°F 32.9°F / 42.1°F 30.00 inHg 80% 0.44″
01/16/2017 03:08 PM 40.6°F 40.5°F / 40.8°F 32.9°F / 40.8°F 30.01 inHg 82% 0.42″
01/16/2017 02:08 PM 38.5°F 38.5°F / 38.5°F 32.9°F / 38.5°F 0.00 inHg 85% 0.00″
01/16/2017 03:11 AM 32.9°F 32.9°F / 33.1°F 32.9°F / 34.0°F 29.90 inHg 96% 0.00″
01/16/2017 02:11 AM 33.3°F 33.3°F / 33.3°F 33.1°F / 34.0°F 29.91 inHg 96% 0.00″
01/16/2017 01:10 AM 33.1°F 33.1°F / 33.3°F 33.1°F / 34.0°F 29.91 inHg 96% 0.00″
01/16/2017 12:10 AM 34.0°F 33.8°F / 34.0°F 33.8°F / 34.0°F 29.91 inHg 96% 0.00″
01/15/2017 11:10 PM 34.0°F 33.8°F / 34.0°F 31.6°F / 42.1°F 29.90 inHg 96% 0.69″
01/15/2017 10:10 PM 33.1°F 33.1°F / 33.1°F 31.6°F / 42.1°F 29.91 inHg 96% 0.69″
01/15/2017 09:09 PM 33.3°F 33.3°F / 33.3°F 31.6°F / 42.1°F 29.91 inHg 96% 0.69″
01/15/2017 08:09 PM 32.7°F 32.7°F / 32.7°F 31.6°F / 42.1°F 29.88 inHg 96% 0.69″
01/15/2017 07:09 PM 32.2°F 32.0°F / 32.2°F 31.6°F / 42.1°F 29.86 inHg 96% 0.69″
01/15/2017 06:09 PM 31.8°F 31.8°F / 31.8°F 31.8°F / 42.1°F 29.83 inHg 95% 0.69″
01/15/2017 05:08 PM 32.4°F 32.4°F / 32.4°F 32.4°F / 42.1°F 29.78 inHg 95% 0.69″
01/15/2017 04:08 PM 32.9°F 32.9°F / 33.1°F 32.9°F / 42.1°F 29.74 inHg 94% 0.69″
01/15/2017 03:08 PM 35.6°F 35.6°F / 36.7°F 35.2°F / 42.1°F 29.70 inHg 92% 0.65″
01/15/2017 02:08 PM 38.7°F 38.7°F / 39.0°F 35.2°F / 42.1°F 29.70 inHg 88% 0.63″
01/15/2017 01:08 PM 39.2°F 39.2°F / 39.7°F 35.2°F / 42.1°F 29.70 inHg 88% 0.63″
01/15/2017 12:08 PM 36.1°F 36.1°F / 36.3°F 35.2°F / 42.1°F 29.71 inHg 94% 0.63″
01/15/2017 11:08 AM 37.2°F 37.2°F / 37.6°F 35.2°F / 42.1°F 29.75 inHg 92% 0.62″
01/15/2017 10:08 AM 41.0°F 39.9°F / 41.0°F 35.2°F / 42.1°F 29.73 inHg 93% 0.61″
01/15/2017 09:08 AM 37.9°F 37.0°F / 37.9°F 35.2°F / 42.1°F 29.74 inHg 93% 0.58″
01/15/2017 08:08 AM 35.8°F 35.6°F / 35.8°F 35.2°F / 42.1°F 29.73 inHg 93% 0.51″
01/15/2017 07:07 AM 39.7°F 39.4°F / 39.7°F 38.1°F / 42.1°F 29.70 inHg 91% 0.40″
01/15/2017 06:07 AM 42.1°F 41.2°F / 42.1°F 38.1°F / 42.1°F 29.68 inHg 91% 0.39″
01/15/2017 05:07 AM 40.5°F 40.3°F / 40.5°F 38.1°F / 41.2°F 29.73 inHg 94% 0.30″
01/15/2017 04:07 AM 40.8°F 40.8°F / 40.8°F 38.1°F / 41.2°F 29.73 inHg 89% 0.27″
01/15/2017 03:07 AM 40.5°F 40.5°F / 40.5°F 38.1°F / 41.2°F 29.74 inHg 93% 0.27″
01/15/2017 02:07 AM 39.9°F 39.6°F / 39.9°F 38.1°F / 39.9°F 29.76 inHg 95% 0.25″
01/15/2017 01:07 AM 38.5°F 38.5°F / 38.7°F 38.1°F / 39.6°F 29.78 inHg 95% 0.16″
01/15/2017 12:07 AM 39.6°F 39.6°F / 39.6°F 39.6°F / 39.6°F 0.00 inHg 94% 0.00″
01/14/2017 07:42 PM 47.3°F 47.3°F / 48.0°F 44.1°F / 57.6°F 29.83 inHg 74% 0.00″
01/14/2017 06:42 PM 47.5°F 47.3°F / 47.5°F 44.1°F / 57.6°F 29.83 inHg 69% 0.00″
01/14/2017 05:42 PM 46.9°F 46.6°F / 49.3°F 44.1°F / 57.6°F 29.86 inHg 65% 0.00″
01/14/2017 04:42 PM 49.6°F 49.6°F / 53.8°F 44.1°F / 57.6°F 29.84 inHg 66% 0.00″
01/14/2017 03:42 PM 55.6°F 53.2°F / 55.6°F 44.1°F / 57.6°F 29.86 inHg 52% 0.00″
01/14/2017 02:42 PM 54.1°F 53.8°F / 57.2°F 44.1°F / 57.6°F 29.88 inHg 63% 0.00″
01/14/2017 01:42 PM 56.5°F 55.4°F / 57.6°F 44.1°F / 57.6°F 29.91 inHg 50% 0.00″
01/14/2017 12:42 PM 51.6°F 49.8°F / 52.3°F 44.1°F / 55.0°F 29.94 inHg 63% 0.00″
01/14/2017 11:42 AM 47.7°F 47.7°F / 55.0°F 44.1°F / 55.0°F 29.98 inHg 67% 0.00″
01/14/2017 10:42 AM 53.8°F 50.7°F / 53.8°F 44.1°F / 53.8°F 29.99 inHg 57% 0.00″
01/14/2017 09:42 AM 50.5°F 48.0°F / 51.3°F 44.1°F / 52.2°F 30.01 inHg 62% 0.00″
01/14/2017 08:42 AM 48.2°F 47.5°F / 50.2°F 44.1°F / 52.2°F 30.00 inHg 61% 0.00″
01/14/2017 07:42 AM 48.6°F 45.1°F / 48.6°F 44.1°F / 52.2°F 29.97 inHg 65% 0.00″
01/14/2017 06:42 AM 44.4°F 44.1°F / 44.6°F 44.1°F / 52.2°F 29.97 inHg 66% 0.00″
01/14/2017 05:41 AM 46.9°F 44.8°F / 46.9°F 44.4°F / 52.2°F 29.97 inHg 64% 0.00″
01/14/2017 04:41 AM 47.3°F 46.8°F / 48.7°F 44.4°F / 52.2°F 29.97 inHg 52% 0.00″
01/14/2017 03:41 AM 46.2°F 44.4°F / 46.2°F 44.4°F / 52.2°F 29.97 inHg 54% 0.00″
01/14/2017 02:41 AM 50.0°F 50.0°F / 52.2°F 49.3°F / 52.2°F 30.00 inHg 40% 0.00″
01/14/2017 01:41 AM 50.2°F 49.3°F / 50.2°F 49.3°F / 50.7°F 29.98 inHg 42% 0.00″
01/14/2017 12:41 AM 50.4°F 50.4°F / 50.7°F 50.4°F / 50.7°F 29.98 inHg 42% 0.00″
01/13/2017 11:41 PM 51.4°F 51.4°F / 52.0°F 41.4°F / 59.0°F 30.02 inHg 35% 0.00″
01/13/2017 10:41 PM 52.2°F 52.2°F / 52.9°F 41.4°F / 59.0°F 30.04 inHg 32% 0.00″
01/13/2017 09:41 PM 52.9°F 52.9°F / 53.2°F 41.4°F / 59.0°F 30.05 inHg 29% 0.00″
01/13/2017 08:41 PM 53.8°F 53.4°F / 54.3°F 41.4°F / 59.0°F 30.05 inHg 27% 0.00″
01/13/2017 07:41 PM 53.1°F 51.6°F / 53.2°F 41.4°F / 59.0°F 30.04 inHg 29% 0.00″
01/13/2017 06:41 PM 52.3°F 52.2°F / 52.5°F 41.4°F / 59.0°F 30.05 inHg 29% 0.00″
01/13/2017 05:41 PM 51.8°F 49.8°F / 52.2°F 41.4°F / 59.0°F 30.04 inHg 27% 0.00″
01/13/2017 04:41 PM 56.7°F 56.7°F / 58.5°F 41.4°F / 59.0°F 30.04 inHg 27% 0.00″
01/13/2017 03:40 PM 57.9°F 57.6°F / 59.0°F 41.4°F / 59.0°F 30.04 inHg 25% 0.00″
01/13/2017 02:40 PM 56.5°F 52.0°F / 56.8°F 41.4°F / 58.8°F 30.02 inHg 31% 0.00″
01/13/2017 01:40 PM 56.8°F 56.3°F / 58.8°F 41.4°F / 58.8°F 30.01 inHg 30% 0.00″
01/13/2017 12:40 PM 56.5°F 56.1°F / 56.8°F 41.4°F / 57.7°F 30.01 inHg 30% 0.00″
01/13/2017 11:40 AM 56.5°F 56.5°F / 57.0°F 41.4°F / 57.7°F 30.07 inHg 27% 0.00″
01/13/2017 10:40 AM 57.6°F 55.9°F / 57.7°F 41.4°F / 57.7°F 30.10 inHg 26% 0.00″
01/13/2017 09:40 AM 55.6°F 53.2°F / 55.9°F 41.4°F / 55.9°F 30.09 inHg 28% 0.00″
01/13/2017 08:40 AM 51.1°F 45.7°F / 51.1°F 41.4°F / 51.1°F 30.08 inHg 32% 0.00″
01/13/2017 07:40 AM 44.8°F 44.1°F / 45.7°F 41.4°F / 47.7°F 30.06 inHg 37% 0.00″
01/13/2017 06:40 AM 46.2°F 45.5°F / 46.6°F 41.4°F / 47.7°F 30.04 inHg 34% 0.00″
01/13/2017 05:40 AM 45.3°F 45.0°F / 46.9°F 41.4°F / 47.7°F 30.02 inHg 39% 0.00″
01/13/2017 04:39 AM 47.5°F 44.8°F / 47.7°F 41.4°F / 47.7°F 30.01 inHg 34% 0.00″
01/13/2017 03:39 AM 41.7°F 41.5°F / 41.7°F 41.4°F / 44.8°F 30.02 inHg 46% 0.00″
01/13/2017 02:39 AM 41.4°F 41.4°F / 42.1°F 41.4°F / 44.8°F 30.01 inHg 47% 0.00″
01/13/2017 01:39 AM 43.0°F 43.0°F / 44.8°F 43.0°F / 44.8°F 30.02 inHg 38% 0.00″
01/12/2017 12:37 AM 41.7°F 40.8°F / 43.3°F 40.8°F / 43.3°F 29.90 inHg 42% 0.00″
01/11/2017 11:37 PM 43.0°F 42.4°F / 43.2°F 39.6°F / 57.9°F 29.89 inHg 42% 0.00″
01/11/2017 10:37 PM 46.6°F 46.6°F / 47.8°F 39.6°F / 57.9°F 29.88 inHg 37% 0.00″
01/11/2017 09:37 PM 48.9°F 48.2°F / 48.9°F 39.6°F / 57.9°F 29.87 inHg 29% 0.00″
01/11/2017 08:37 PM 48.7°F 48.6°F / 49.8°F 39.6°F / 57.9°F 29.86 inHg 29% 0.00″
01/11/2017 07:37 PM 49.5°F 48.9°F / 49.6°F 39.6°F / 57.9°F 29.86 inHg 29% 0.00″
01/11/2017 06:37 PM 49.1°F 47.8°F / 49.1°F 39.6°F / 57.9°F 29.84 inHg 25% 0.00″
01/11/2017 05:37 PM 49.3°F 49.3°F / 51.4°F 39.6°F / 57.9°F 29.82 inHg 29% 0.00″
01/11/2017 04:37 PM 53.2°F 52.2°F / 53.2°F 39.6°F / 57.9°F 29.80 inHg 22% 0.00″
01/11/2017 03:37 PM 54.7°F 54.7°F / 55.6°F 39.6°F / 57.9°F 29.80 inHg 26% 0.00″
01/11/2017 02:37 PM 56.8°F 56.3°F / 57.6°F 39.6°F / 57.9°F 29.79 inHg 21% 0.00″
01/11/2017 01:37 PM 57.0°F 57.0°F / 57.9°F 39.6°F / 57.9°F 29.79 inHg 19% 0.00″
01/11/2017 12:36 PM 57.0°F 56.5°F / 57.6°F 39.6°F / 57.9°F 29.80 inHg 21% 0.00″
01/11/2017 11:36 AM 57.4°F 56.8°F / 57.6°F 39.6°F / 57.6°F 29.85 inHg 15% 0.00″
01/11/2017 10:36 AM 55.9°F 53.1°F / 55.9°F 39.6°F / 55.9°F 29.89 inHg 16% 0.00″
01/11/2017 09:36 AM 51.4°F 45.0°F / 51.6°F 39.6°F / 51.6°F 29.89 inHg 26% 0.00″
01/11/2017 08:36 AM 43.2°F 39.6°F / 43.2°F 39.6°F / 49.5°F 29.88 inHg 36% 0.00″
01/11/2017 07:36 AM 39.9°F 39.6°F / 39.9°F 39.6°F / 49.5°F 29.86 inHg 41% 0.00″
01/11/2017 06:36 AM 40.6°F 40.5°F / 40.8°F 40.5°F / 49.5°F 29.84 inHg 37% 0.00″
01/11/2017 05:36 AM 41.4°F 41.4°F / 42.6°F 41.4°F / 49.5°F 29.84 inHg 42% 0.00″
01/11/2017 04:36 AM 42.1°F 42.1°F / 42.6°F 42.1°F / 49.5°F 29.85 inHg 45% 0.00″
01/11/2017 03:36 AM 42.3°F 42.3°F / 46.2°F 42.3°F / 49.5°F 29.86 inHg 46% 0.00″
01/11/2017 02:36 AM 45.1°F 45.1°F / 47.1°F 45.1°F / 49.5°F 29.86 inHg 40% 0.00″
01/11/2017 01:36 AM 48.4°F 48.4°F / 48.9°F 48.0°F / 49.5°F 29.88 inHg 34% 0.00″
01/11/2017 12:36 AM 49.3°F 48.0°F / 49.5°F 48.0°F / 49.5°F 29.88 inHg 33% 0.00″
01/10/2017 11:36 PM 49.1°F 47.8°F / 49.5°F 40.5°F / 56.7°F 29.91 inHg 20% 0.00″
01/10/2017 10:36 PM 47.5°F 47.5°F / 47.8°F 40.5°F / 56.7°F 29.91 inHg 17% 0.00″
01/10/2017 09:36 PM 47.5°F 46.6°F / 47.5°F 40.5°F / 56.7°F 29.91 inHg 20% 0.00″
01/10/2017 08:36 PM 45.7°F 44.6°F / 45.7°F 40.5°F / 56.7°F 29.90 inHg 30% 0.00″
01/10/2017 07:36 PM 43.3°F 43.3°F / 45.7°F 40.5°F / 56.7°F 29.89 inHg 41% 0.00″
01/10/2017 06:35 PM 46.2°F 46.0°F / 47.3°F 40.5°F / 56.7°F 29.87 inHg 32% 0.00″
01/10/2017 05:35 PM 46.2°F 46.0°F / 49.8°F 40.5°F / 56.7°F 29.86 inHg 36% 0.00″
01/10/2017 04:35 PM 51.1°F 50.9°F / 52.7°F 40.5°F / 56.7°F 29.86 inHg 27% 0.00″
01/10/2017 03:35 PM 54.7°F 54.1°F / 55.6°F 40.5°F / 56.7°F 29.86 inHg 22% 0.00″
01/10/2017 02:35 PM 54.9°F 54.9°F / 56.7°F 40.5°F / 56.7°F 29.85 inHg 24% 0.00″
01/10/2017 01:35 PM 55.6°F 54.9°F / 56.1°F 40.5°F / 56.1°F 29.85 inHg 30% 0.00″
01/10/2017 12:35 PM 55.0°F 54.7°F / 55.6°F 40.5°F / 55.6°F 29.86 inHg 32% 0.00″
01/10/2017 11:35 AM 54.1°F 53.2°F / 54.3°F 40.5°F / 54.3°F 29.90 inHg 25% 0.00″
01/10/2017 10:35 AM 52.3°F 51.4°F / 52.5°F 40.5°F / 52.5°F 29.91 inHg 32% 0.00″
01/10/2017 09:35 AM 48.4°F 43.5°F / 48.4°F 40.5°F / 51.3°F 29.92 inHg 42% 0.00″
01/10/2017 08:35 AM 41.2°F 40.6°F / 41.2°F 40.5°F / 51.3°F 29.91 inHg 60% 0.00″
01/10/2017 07:35 AM 41.2°F 40.6°F / 41.5°F 40.6°F / 51.3°F 29.89 inHg 63% 0.00″
01/10/2017 06:35 AM 40.8°F 40.8°F / 41.2°F 40.8°F / 51.3°F 29.89 inHg 66% 0.00″
01/10/2017 05:35 AM 43.0°F 43.0°F / 46.0°F 43.0°F / 51.3°F 29.88 inHg 60% 0.00″
01/10/2017 04:34 AM 46.8°F 45.9°F / 46.8°F 45.1°F / 51.3°F 29.88 inHg 52% 0.00″
01/10/2017 03:34 AM 45.3°F 45.3°F / 47.3°F 45.3°F / 51.3°F 29.88 inHg 57% 0.00″
01/10/2017 02:34 AM 47.8°F 47.8°F / 48.7°F 47.8°F / 51.3°F 29.87 inHg 50% 0.00″
01/10/2017 01:34 AM 48.7°F 48.6°F / 48.9°F 48.6°F / 51.3°F 29.86 inHg 49% 0.00″
01/10/2017 12:34 AM 49.8°F 49.8°F / 51.3°F 49.8°F / 51.3°F 29.86 inHg 46% 0.00″
01/09/2017 11:34 PM 51.4°F 51.4°F / 52.5°F 41.2°F / 61.2°F 29.89 inHg 41% 0.00″
01/09/2017 10:34 PM 53.1°F 52.9°F / 53.1°F 41.2°F / 61.2°F 29.94 inHg 42% 0.00″
01/09/2017 09:34 PM 52.9°F 52.9°F / 53.8°F 41.2°F / 61.2°F 29.93 inHg 43% 0.00″
01/09/2017 08:34 PM 54.5°F 54.5°F / 55.4°F 41.2°F / 61.2°F 29.95 inHg 42% 0.00″
01/09/2017 07:34 PM 55.8°F 55.6°F / 56.5°F 41.2°F / 61.2°F 29.96 inHg 38% 0.00″
01/09/2017 06:34 PM 56.3°F 55.6°F / 56.5°F 41.2°F / 61.2°F 29.99 inHg 36% 0.00″
01/09/2017 05:34 PM 56.1°F 55.6°F / 56.1°F 41.2°F / 61.2°F 29.99 inHg 35% 0.00″
01/09/2017 04:34 PM 57.4°F 57.4°F / 59.2°F 41.2°F / 61.2°F 30.01 inHg 34% 0.00″
01/09/2017 03:34 PM 58.6°F 58.6°F / 59.5°F 41.2°F / 61.2°F 29.99 inHg 35% 0.00″
01/09/2017 02:34 PM 59.2°F 59.2°F / 61.2°F 41.2°F / 61.2°F 30.04 inHg 40% 0.00″
01/09/2017 01:34 PM 59.0°F 59.0°F / 60.6°F 41.2°F / 60.6°F 30.08 inHg 43% 0.00″
01/09/2017 12:33 PM 58.8°F 58.5°F / 59.2°F 41.2°F / 60.4°F 30.10 inHg 46% 0.00″
01/09/2017 11:33 AM 59.5°F 59.5°F / 60.4°F 41.2°F / 60.4°F 30.17 inHg 46% 0.00″
01/09/2017 10:33 AM 57.9°F 57.0°F / 57.9°F 41.2°F / 57.9°F 30.21 inHg 47% 0.00″
01/09/2017 09:33 AM 55.2°F 49.3°F / 55.2°F 41.2°F / 55.2°F 30.23 inHg 51% 0.00″
01/09/2017 08:33 AM 44.1°F 43.2°F / 44.1°F 41.2°F / 44.1°F 30.25 inHg 67% 0.00″
01/09/2017 07:33 AM 41.5°F 41.2°F / 42.1°F 41.2°F / 42.6°F 30.26 inHg 68% 0.00″
01/09/2017 06:33 AM 41.2°F 41.2°F / 41.4°F 41.2°F / 42.6°F 30.25 inHg 71% 0.00″
01/09/2017 05:33 AM 41.9°F 41.9°F / 42.4°F 41.4°F / 42.6°F 30.25 inHg 74% 0.00″
01/09/2017 04:33 AM 41.4°F 41.4°F / 41.7°F 41.4°F / 42.6°F 30.26 inHg 75% 0.00″
01/09/2017 03:33 AM 41.7°F 41.5°F / 41.9°F 41.4°F / 42.6°F 30.28 inHg 74% 0.00″
01/09/2017 01:33 AM 42.4°F 41.5°F / 42.4°F 41.4°F / 42.4°F 30.31 inHg 74% 0.00″
01/09/2017 12:32 AM 41.7°F 41.4°F / 41.7°F 41.4°F / 41.7°F 30.31 inHg 73% 0.00″
01/08/2017 11:32 PM 40.8°F 40.8°F / 41.4°F 32.2°F / 54.1°F 30.33 inHg 74% 0.00″
01/08/2017 10:32 PM 40.6°F 40.6°F / 41.7°F 32.2°F / 54.1°F 30.35 inHg 73% 0.00″
01/08/2017 09:32 PM 40.3°F 39.0°F / 40.3°F 32.2°F / 54.1°F 30.36 inHg 75% 0.00″
01/08/2017 08:32 PM 39.2°F 38.5°F / 39.4°F 32.2°F / 54.1°F 30.37 inHg 77% 0.00″
01/08/2017 07:32 PM 38.7°F 38.5°F / 38.8°F 32.2°F / 54.1°F 30.37 inHg 78% 0.00″
01/08/2017 06:32 PM 39.0°F 39.0°F / 40.1°F 32.2°F / 54.1°F 30.36 inHg 74% 0.00″
01/08/2017 05:32 PM 41.0°F 41.0°F / 43.9°F 32.2°F / 54.1°F 30.35 inHg 70% 0.00″
01/08/2017 04:32 PM 50.4°F 50.4°F / 53.6°F 32.2°F / 54.1°F 30.34 inHg 46% 0.00″
01/08/2017 03:32 PM 53.1°F 52.5°F / 53.8°F 32.2°F / 54.1°F 30.35 inHg 48% 0.00″
01/08/2017 02:31 PM 53.1°F 52.9°F / 54.1°F 32.2°F / 54.1°F 30.35 inHg 48% 0.00″
01/08/2017 01:31 PM 52.3°F 52.0°F / 53.2°F 32.2°F / 53.8°F 30.37 inHg 53% 0.00″
01/08/2017 12:31 PM 52.9°F 50.4°F / 52.9°F 32.2°F / 52.9°F 30.40 inHg 51% 0.00″
01/08/2017 11:31 AM 50.4°F 48.2°F / 50.4°F 32.2°F / 50.4°F 30.45 inHg 50% 0.00″
01/08/2017 10:31 AM 48.4°F 43.2°F / 48.4°F 32.2°F / 48.4°F 30.48 inHg 50% 0.00″
01/08/2017 09:31 AM 41.2°F 39.0°F / 41.2°F 32.2°F / 41.2°F 30.49 inHg 60% 0.00″
01/08/2017 08:31 AM 35.6°F 33.8°F / 35.6°F 32.2°F / 35.6°F 30.48 inHg 71% 0.00″
01/08/2017 07:31 AM 34.3°F 34.2°F / 35.2°F 32.2°F / 35.6°F 30.48 inHg 70% 0.00″
01/08/2017 06:30 AM 35.2°F 35.2°F / 35.4°F 32.2°F / 35.6°F 30.47 inHg 69% 0.00″
01/08/2017 05:30 AM 35.4°F 33.6°F / 35.4°F 32.2°F / 35.4°F 30.46 inHg 69% 0.00″
01/08/2017 04:30 AM 33.3°F 32.9°F / 33.3°F 32.2°F / 33.4°F 30.47 inHg 69% 0.00″
01/08/2017 03:30 AM 33.3°F 32.5°F / 33.4°F 32.2°F / 33.4°F 30.48 inHg 69% 0.00″
01/08/2017 02:30 AM 32.7°F 32.5°F / 33.1°F 32.2°F / 33.1°F 30.49 inHg 72% 0.00″
01/08/2017 01:30 AM 32.4°F 32.2°F / 32.4°F 32.2°F / 32.5°F 30.50 inHg 77% 0.00″
01/08/2017 12:29 AM 32.4°F 32.2°F / 32.4°F 32.2°F / 32.4°F 30.51 inHg 78% 0.00″
01/07/2017 11:29 PM 32.2°F 31.8°F / 32.2°F 21.0°F / 40.6°F 30.53 inHg 80% 0.05″
01/07/2017 10:29 PM 32.2°F 31.8°F / 32.4°F 21.0°F / 40.6°F 30.53 inHg 78% 0.05″
01/07/2017 09:29 PM 31.8°F 31.6°F / 32.2°F 21.0°F / 40.6°F 30.53 inHg 78% 0.05″
01/07/2017 08:29 PM 31.8°F 31.6°F / 32.0°F 21.0°F / 40.6°F 30.53 inHg 78% 0.05″
01/07/2017 07:29 PM 31.8°F 31.8°F / 32.0°F 21.0°F / 40.6°F 30.52 inHg 76% 0.05″
01/07/2017 06:29 PM 31.8°F 31.8°F / 32.2°F 21.0°F / 40.6°F 30.51 inHg 73% 0.05″
01/07/2017 05:28 PM 32.7°F 32.7°F / 34.7°F 21.0°F / 40.6°F 30.50 inHg 72% 0.05″
01/07/2017 04:28 PM 38.1°F 36.9°F / 38.1°F 21.0°F / 40.6°F 30.50 inHg 59% 0.05″
01/07/2017 03:28 PM 37.9°F 37.9°F / 40.6°F 21.0°F / 40.6°F 30.49 inHg 56% 0.05″
01/07/2017 02:28 PM 37.6°F 37.0°F / 38.3°F 21.0°F / 39.4°F 30.50 inHg 56% 0.05″
01/07/2017 01:28 PM 37.8°F 36.1°F / 37.8°F 21.0°F / 37.9°F 30.49 inHg 57% 0.04″
01/07/2017 12:28 PM 35.4°F 34.7°F / 36.1°F 21.0°F / 37.9°F 30.53 inHg 62% 0.04″
01/07/2017 11:28 AM 35.8°F 31.8°F / 36.0°F 21.0°F / 37.9°F 30.54 inHg 62% 0.03″
01/07/2017 10:28 AM 36.3°F 31.6°F / 37.9°F 21.0°F / 37.9°F 30.56 inHg 58% 0.01″
01/07/2017 09:28 AM 28.9°F 26.1°F / 28.9°F 21.0°F / 28.9°F 30.55 inHg 73% 0.00″
01/07/2017 08:28 AM 25.3°F 24.6°F / 25.3°F 21.0°F / 25.3°F 30.53 inHg 72% 0.00″
01/07/2017 07:28 AM 22.8°F 22.6°F / 23.5°F 21.0°F / 25.2°F 30.47 inHg 77% 0.00″
01/07/2017 06:28 AM 21.9°F 21.0°F / 21.9°F 21.0°F / 25.2°F 30.42 inHg 79% 0.00″
01/07/2017 05:28 AM 21.6°F 21.4°F / 22.8°F 21.4°F / 25.2°F 30.40 inHg 78% 0.00″
01/07/2017 04:27 AM 25.0°F 24.1°F / 25.0°F 23.5°F / 25.2°F 30.36 inHg 74% 0.00″
01/07/2017 03:27 AM 23.7°F 23.7°F / 23.9°F 23.5°F / 25.2°F 30.37 inHg 70% 0.00″
01/07/2017 02:27 AM 24.4°F 24.4°F / 25.2°F 23.5°F / 25.2°F 30.36 inHg 63% 0.00″
01/07/2017 01:27 AM 24.1°F 23.5°F / 24.4°F 23.5°F / 25.2°F 30.31 inHg 61% 0.00″
01/07/2017 12:27 AM 24.3°F 23.5°F / 24.3°F 23.5°F / 24.3°F 30.30 inHg 60% 0.00″
01/06/2017 11:27 PM 23.2°F 22.8°F / 23.7°F 22.8°F / 43.5°F 30.28 inHg 71% 0.04″
01/06/2017 10:27 PM 23.4°F 23.4°F / 24.3°F 23.4°F / 43.5°F 30.23 inHg 68% 0.04″
01/06/2017 09:27 PM 24.4°F 24.3°F / 25.5°F 24.3°F / 43.5°F 30.22 inHg 67% 0.04″
01/06/2017 08:27 PM 25.5°F 25.2°F / 25.5°F 25.2°F / 43.5°F 0.00 inHg 63% 0.04″
01/06/2017 08:11 PM 25.3°F 25.2°F / 25.3°F 25.2°F / 43.5°F 30.18 inHg 66% 0.04″
01/06/2017 07:11 PM 25.9°F 25.9°F / 26.1°F 25.9°F / 43.5°F 30.15 inHg 63% 0.04″
01/06/2017 06:10 PM 27.9°F 27.9°F / 28.8°F 27.9°F / 43.5°F 30.10 inHg 64% 0.04″
01/06/2017 05:10 PM 30.9°F 30.9°F / 32.5°F 30.9°F / 43.5°F 30.06 inHg 56% 0.04″
01/06/2017 04:10 PM 36.1°F 36.1°F / 37.0°F 30.9°F / 43.5°F 30.02 inHg 42% 0.03″
01/06/2017 03:10 PM 37.4°F 37.0°F / 37.6°F 30.9°F / 43.5°F 29.98 inHg 49% 0.01″
01/06/2017 02:10 PM 36.9°F 36.1°F / 36.9°F 30.9°F / 43.5°F 29.94 inHg 62% 0.00″
01/06/2017 01:10 PM 33.3°F 33.1°F / 33.3°F 30.9°F / 43.5°F 29.91 inHg 69% 0.00″
01/06/2017 12:10 PM 32.4°F 32.2°F / 32.4°F 30.9°F / 43.5°F 29.91 inHg 73% 0.00″
01/06/2017 11:10 AM 31.1°F 30.9°F / 31.1°F 30.9°F / 43.5°F 29.88 inHg 83% 0.00″
01/06/2017 10:10 AM 31.1°F 31.1°F / 31.3°F 31.1°F / 43.5°F 29.84 inHg 93% 0.00″
01/06/2017 09:10 AM 33.6°F 33.6°F / 34.9°F 33.6°F / 43.5°F 29.79 inHg 89% 0.00″
01/06/2017 08:10 AM 38.8°F 38.8°F / 39.0°F 38.8°F / 43.5°F 29.72 inHg 77% 0.00″
01/06/2017 07:10 AM 39.0°F 39.0°F / 39.0°F 39.0°F / 43.5°F 29.68 inHg 79% 0.00″
01/06/2017 06:10 AM 39.6°F 39.6°F / 39.6°F 39.6°F / 43.5°F 29.67 inHg 76% 0.00″
01/06/2017 05:10 AM 39.7°F 39.7°F / 39.7°F 39.7°F / 43.5°F 29.65 inHg 75% 0.00″
01/06/2017 04:09 AM 39.9°F 39.9°F / 40.5°F 39.9°F / 43.5°F 29.65 inHg 74% 0.00″
01/06/2017 03:09 AM 42.1°F 41.7°F / 42.1°F 41.5°F / 43.5°F 29.65 inHg 68% 0.00″
01/06/2017 02:09 AM 42.3°F 42.1°F / 42.3°F 42.1°F / 43.5°F 29.66 inHg 69% 0.00″
01/06/2017 01:09 AM 42.6°F 42.6°F / 42.6°F 42.6°F / 43.5°F 29.68 inHg 69% 0.00″
01/06/2017 12:09 AM 43.3°F 43.3°F / 43.5°F 43.3°F / 43.5°F 29.70 inHg 66% 0.00″
01/05/2017 11:09 PM 44.1°F 44.1°F / 44.1°F 36.1°F / 51.6°F 29.72 inHg 64% 0.00″
01/05/2017 10:09 PM 44.1°F 44.1°F / 44.1°F 36.1°F / 51.6°F 29.73 inHg 64% 0.00″
01/05/2017 09:09 PM 44.1°F 44.1°F / 44.2°F 36.1°F / 51.6°F 29.74 inHg 64% 0.00″
01/05/2017 08:09 PM 44.1°F 44.1°F / 44.1°F 36.1°F / 51.6°F 29.73 inHg 62% 0.00″
01/05/2017 07:08 PM 44.1°F 44.1°F / 44.2°F 36.1°F / 51.6°F 29.73 inHg 64% 0.00″
01/05/2017 06:08 PM 44.2°F 44.2°F / 44.4°F 36.1°F / 51.6°F 29.74 inHg 62% 0.00″
01/05/2017 05:08 PM 45.1°F 45.1°F / 45.7°F 36.1°F / 51.6°F 29.73 inHg 59% 0.00″
01/05/2017 04:08 PM 49.1°F 49.1°F / 49.6°F 36.1°F / 51.6°F 29.72 inHg 51% 0.00″
01/05/2017 03:08 PM 50.9°F 50.7°F / 51.1°F 36.1°F / 51.6°F 29.72 inHg 51% 0.00″
01/05/2017 02:08 PM 47.3°F 47.3°F / 48.2°F 36.1°F / 51.3°F 29.72 inHg 53% 0.00″
01/05/2017 01:08 PM 46.2°F 46.2°F / 46.8°F 36.1°F / 51.3°F 29.73 inHg 56% 0.00″
01/05/2017 12:08 PM 50.0°F 50.0°F / 50.2°F 36.1°F / 51.3°F 29.75 inHg 46% 0.00″
01/05/2017 11:08 AM 50.2°F 50.2°F / 50.4°F 36.1°F / 51.3°F 29.80 inHg 42% 0.00″
01/05/2017 10:08 AM 47.1°F 47.1°F / 47.5°F 36.1°F / 47.5°F 29.84 inHg 47% 0.00″
01/05/2017 09:08 AM 43.2°F 42.3°F / 43.2°F 36.1°F / 43.2°F 29.85 inHg 55% 0.00″
01/05/2017 08:07 AM 40.6°F 39.6°F / 40.6°F 36.1°F / 40.6°F 29.85 inHg 54% 0.00″
01/05/2017 07:07 AM 37.6°F 37.6°F / 37.8°F 36.1°F / 39.9°F 29.85 inHg 59% 0.00″
01/05/2017 06:07 AM 38.1°F 38.1°F / 38.3°F 36.1°F / 39.9°F 29.83 inHg 53% 0.00″
01/05/2017 05:07 AM 36.9°F 36.7°F / 37.0°F 36.1°F / 39.9°F 29.82 inHg 59% 0.00″
01/05/2017 04:07 AM 37.4°F 37.0°F / 37.4°F 36.1°F / 39.9°F 29.84 inHg 54% 0.00″
01/05/2017 03:07 AM 37.6°F 37.6°F / 37.9°F 37.0°F / 39.9°F 29.86 inHg 57% 0.00″
01/05/2017 02:07 AM 39.6°F 37.8°F / 39.6°F 37.0°F / 39.6°F 29.87 inHg 50% 0.00″
01/05/2017 01:07 AM 38.5°F 38.1°F / 38.5°F 37.0°F / 39.6°F 29.87 inHg 56% 0.00″
01/05/2017 12:04 AM 39.2°F 39.0°F / 39.2°F 39.0°F / 39.2°F 29.90 inHg 51% 0.00″
01/04/2017 11:04 PM 43.2°F 43.2°F / 43.2°F 34.3°F / 52.9°F 29.92 inHg 45% 0.00″
01/04/2017 10:04 PM 44.1°F 44.1°F / 44.2°F 34.3°F / 52.9°F 29.91 inHg 44% 0.00″
01/04/2017 09:04 PM 45.1°F 45.1°F / 45.1°F 34.3°F / 52.9°F 29.91 inHg 43% 0.00″
01/04/2017 08:04 PM 43.0°F 42.3°F / 43.0°F 34.3°F / 52.9°F 29.90 inHg 52% 0.00″
01/04/2017 07:04 PM 43.2°F 43.2°F / 43.3°F 34.3°F / 52.9°F 29.91 inHg 54% 0.00″
01/04/2017 06:04 PM 40.5°F 40.3°F / 40.5°F 34.3°F / 52.9°F 29.90 inHg 62% 0.00″
01/04/2017 05:04 PM 44.2°F 44.2°F / 44.8°F 34.3°F / 52.9°F 29.90 inHg 55% 0.00″
01/04/2017 04:03 PM 51.4°F 51.4°F / 51.6°F 34.3°F / 52.9°F 29.90 inHg 36% 0.00″
01/04/2017 03:03 PM 51.8°F 51.4°F / 51.8°F 34.3°F / 52.2°F 29.92 inHg 39% 0.00″
01/04/2017 02:03 PM 51.3°F 51.1°F / 51.3°F 34.3°F / 51.4°F 29.95 inHg 40% 0.00″
01/04/2017 01:03 PM 51.3°F 51.3°F / 51.3°F 34.3°F / 51.4°F 29.97 inHg 40% 0.00″
01/04/2017 12:03 PM 50.4°F 50.4°F / 50.4°F 34.3°F / 50.4°F 29.99 inHg 44% 0.00″
01/04/2017 11:03 AM 49.6°F 49.6°F / 49.6°F 34.3°F / 49.6°F 30.02 inHg 41% 0.00″
01/04/2017 10:03 AM 44.1°F 43.3°F / 44.1°F 34.3°F / 44.1°F 30.06 inHg 57% 0.00″
01/04/2017 09:03 AM 36.7°F 36.1°F / 36.7°F 34.3°F / 38.8°F 30.07 inHg 70% 0.00″
01/04/2017 08:02 AM 34.5°F 34.5°F / 34.5°F 34.3°F / 38.8°F 30.06 inHg 71% 0.00″
01/04/2017 07:02 AM 35.4°F 35.4°F / 35.4°F 34.9°F / 38.8°F 30.05 inHg 64% 0.00″
01/04/2017 06:02 AM 37.0°F 37.0°F / 37.0°F 36.7°F / 38.8°F 30.06 inHg 66% 0.00″
01/04/2017 05:02 AM 37.9°F 37.9°F / 37.9°F 36.7°F / 38.8°F 30.06 inHg 64% 0.00″
01/04/2017 04:02 AM 37.2°F 37.2°F / 37.2°F 36.7°F / 38.8°F 30.08 inHg 68% 0.00″
01/04/2017 03:02 AM 37.4°F 37.4°F / 37.6°F 37.2°F / 38.8°F 30.09 inHg 67% 0.00″
01/04/2017 02:02 AM 37.6°F 37.6°F / 37.6°F 37.6°F / 38.8°F 30.10 inHg 67% 0.00″
01/04/2017 01:02 AM 38.8°F 38.8°F / 38.8°F 37.9°F / 38.8°F 30.11 inHg 62% 0.00″
01/04/2017 12:02 AM 38.3°F 38.3°F / 38.5°F 38.3°F / 38.5°F 30.11 inHg 67% 0.00″
01/03/2017 11:01 PM 38.5°F 38.5°F / 38.5°F 29.7°F / 48.2°F 30.12 inHg 61% 0.00″
01/03/2017 10:01 PM 37.0°F 37.0°F / 37.0°F 29.7°F / 48.2°F 30.15 inHg 70% 0.00″
01/03/2017 09:01 PM 36.9°F 36.9°F / 36.9°F 29.7°F / 48.2°F 30.14 inHg 66% 0.00″
01/03/2017 08:01 PM 36.5°F 36.5°F / 36.5°F 29.7°F / 48.2°F 30.14 inHg 67% 0.00″
01/03/2017 07:01 PM 36.1°F 36.1°F / 36.1°F 29.7°F / 48.2°F 30.15 inHg 67% 0.00″
01/03/2017 06:01 PM 36.0°F 36.0°F / 36.0°F 29.7°F / 48.2°F 30.13 inHg 66% 0.00″
01/03/2017 05:01 PM 39.4°F 39.4°F / 39.4°F 29.7°F / 48.2°F 30.13 inHg 60% 0.00″
01/03/2017 04:01 PM 46.0°F 46.0°F / 46.2°F 29.7°F / 48.2°F 30.13 inHg 44% 0.00″
01/03/2017 03:00 PM 47.1°F 47.1°F / 47.1°F 29.7°F / 47.8°F 30.11 inHg 39% 0.00″
01/03/2017 02:00 PM 47.1°F 47.1°F / 47.1°F 29.7°F / 47.1°F 30.11 inHg 42% 0.00″
01/03/2017 01:00 PM 46.2°F 0.0°F / 0.0°F 29.7°F / 46.2°F 30.14 inHg 43% 0.00″
01/03/2017 11:59 AM 45.3°F 44.1°F / 46.0°F 29.7°F / 46.0°F 30.16 inHg 33% 0.00″
01/03/2017 10:59 AM 44.1°F 38.5°F / 44.2°F 29.7°F / 44.2°F 30.20 inHg 45% 0.00″
01/03/2017 09:59 AM 38.5°F 33.3°F / 38.7°F 29.7°F / 38.7°F 30.21 inHg 60% 0.00″
01/03/2017 08:58 AM 33.1°F 31.3°F / 33.4°F 29.7°F / 33.8°F 30.20 inHg 69% 0.00″
01/03/2017 07:58 AM 31.3°F 29.7°F / 31.3°F 29.7°F / 33.8°F 30.19 inHg 71% 0.00″
01/03/2017 06:58 AM 29.7°F 29.7°F / 30.0°F 29.7°F / 33.8°F 30.18 inHg 71% 0.00″
01/03/2017 05:58 AM 29.8°F 29.8°F / 30.7°F 29.8°F / 33.8°F 30.16 inHg 74% 0.00″
01/03/2017 04:58 AM 30.6°F 30.6°F / 31.5°F 30.0°F / 33.8°F 30.14 inHg 72% 0.00″
01/03/2017 03:58 AM 31.5°F 30.2°F / 31.5°F 30.0°F / 33.8°F 30.13 inHg 73% 0.00″
01/03/2017 02:58 AM 30.4°F 30.0°F / 30.7°F 30.0°F / 33.8°F 30.13 inHg 77% 0.00″
01/03/2017 01:58 AM 30.7°F 30.6°F / 31.6°F 30.6°F / 33.8°F 30.13 inHg 74% 0.00″
01/03/2017 12:58 AM 31.6°F 31.6°F / 33.8°F 31.6°F / 33.8°F 30.13 inHg 76% 0.00″
01/02/2017 11:57 PM 32.7°F 32.5°F / 34.5°F 28.8°F / 44.1°F 30.13 inHg 72% 0.28″
01/02/2017 10:57 PM 34.3°F 33.8°F / 34.3°F 28.8°F / 44.1°F 30.14 inHg 79% 0.28″
01/02/2017 09:57 PM 34.0°F 33.8°F / 34.2°F 28.8°F / 44.1°F 30.12 inHg 83% 0.28″
01/02/2017 08:57 PM 34.3°F 34.0°F / 34.7°F 28.8°F / 44.1°F 30.11 inHg 84% 0.28″
01/02/2017 07:57 PM 33.8°F 33.8°F / 34.7°F 28.8°F / 44.1°F 30.09 inHg 86% 0.28″
01/02/2017 06:57 PM 34.0°F 33.8°F / 34.3°F 28.8°F / 44.1°F 30.08 inHg 92% 0.28″
01/02/2017 05:56 PM 34.2°F 34.2°F / 35.6°F 28.8°F / 44.1°F 30.06 inHg 92% 0.28″
01/02/2017 04:56 PM 35.8°F 35.8°F / 39.4°F 28.8°F / 44.1°F 30.03 inHg 89% 0.28″
01/02/2017 03:56 PM 39.4°F 38.5°F / 39.7°F 28.8°F / 44.1°F 30.02 inHg 79% 0.28″
01/02/2017 02:56 PM 40.1°F 39.7°F / 42.6°F 28.8°F / 44.1°F 30.01 inHg 74% 0.28″
01/02/2017 01:56 PM 42.4°F 42.4°F / 44.1°F 28.8°F / 44.1°F 30.00 inHg 63% 0.28″
01/02/2017 12:56 PM 42.3°F 41.2°F / 42.6°F 28.8°F / 42.6°F 30.00 inHg 76% 0.26″
01/02/2017 11:55 AM 41.4°F 36.7°F / 41.4°F 28.8°F / 41.4°F 30.03 inHg 80% 0.21″
01/02/2017 10:55 AM 36.9°F 34.2°F / 38.5°F 28.8°F / 38.5°F 30.05 inHg 91% 0.12″
01/02/2017 09:55 AM 34.2°F 32.2°F / 34.2°F 28.8°F / 34.2°F 30.05 inHg 92% 0.02″
01/02/2017 08:55 AM 31.8°F 29.5°F / 31.8°F 28.8°F / 33.4°F 30.03 inHg 94% 0.00″
01/02/2017 07:55 AM 29.5°F 28.8°F / 29.8°F 28.8°F / 33.4°F 30.01 inHg 94% 0.00″
01/02/2017 06:55 AM 29.8°F 29.7°F / 30.0°F 29.7°F / 33.4°F 30.00 inHg 95% 0.00″
01/02/2017 05:55 AM 30.0°F 29.8°F / 31.5°F 29.8°F / 33.4°F 29.97 inHg 95% 0.00″
01/02/2017 04:55 AM 31.6°F 31.6°F / 32.2°F 31.6°F / 33.4°F 29.94 inHg 95% 0.00″
01/02/2017 03:54 AM 32.4°F 32.4°F / 32.7°F 32.4°F / 33.4°F 29.94 inHg 95% 0.00″
01/02/2017 02:54 AM 32.7°F 32.7°F / 33.3°F 32.5°F / 33.4°F 29.89 inHg 95% 0.00″
01/02/2017 01:54 AM 33.3°F 32.5°F / 33.3°F 32.5°F / 33.4°F 29.89 inHg 94% 0.00″
01/02/2017 12:52 AM 33.4°F 33.1°F / 33.4°F 33.1°F / 33.4°F 29.86 inHg 94% 0.00″
01/01/2017 11:52 PM 32.9°F 32.4°F / 32.9°F 32.2°F / 44.1°F 29.86 inHg 94% 0.19″
01/01/2017 10:52 PM 32.2°F 32.2°F / 33.1°F 32.2°F / 44.1°F 29.86 inHg 94% 0.18″
01/01/2017 09:52 PM 33.3°F 33.3°F / 33.6°F 32.7°F / 44.1°F 29.83 inHg 93% 0.18″
01/01/2017 08:51 PM 33.6°F 33.1°F / 34.0°F 32.7°F / 44.1°F 29.83 inHg 93% 0.18″
01/01/2017 07:51 PM 34.2°F 33.8°F / 34.2°F 32.7°F / 44.1°F 29.79 inHg 92% 0.18″
01/01/2017 06:51 PM 33.8°F 33.6°F / 34.0°F 32.7°F / 44.1°F 29.75 inHg 94% 0.18″
01/01/2017 05:51 PM 34.0°F 33.6°F / 34.0°F 32.7°F / 44.1°F 29.75 inHg 94% 0.18″
01/01/2017 04:51 PM 33.4°F 32.7°F / 33.6°F 32.7°F / 44.1°F 29.75 inHg 94% 0.18″
01/01/2017 03:51 PM 32.7°F 32.7°F / 38.8°F 32.7°F / 44.1°F 29.77 inHg 93% 0.18″
01/01/2017 02:51 PM 39.2°F 39.2°F / 43.7°F 32.9°F / 44.1°F 29.67 inHg 88% 0.05″
01/01/2017 01:51 PM 42.4°F 42.1°F / 44.1°F 32.9°F / 44.1°F 29.70 inHg 78% 0.01″
01/01/2017 12:51 PM 41.5°F 38.8°F / 41.5°F 32.9°F / 41.5°F 29.73 inHg 82% 0.01″
01/01/2017 11:50 AM 39.6°F 39.0°F / 39.9°F 32.9°F / 40.5°F 29.78 inHg 88% 0.00″
01/01/2017 10:50 AM 40.1°F 39.7°F / 40.5°F 32.9°F / 40.5°F 29.82 inHg 81% 0.00″
01/01/2017 09:50 AM 40.1°F 39.2°F / 40.3°F 32.9°F / 40.3°F 29.84 inHg 76% 0.00″
01/01/2017 08:50 AM 39.0°F 37.9°F / 39.0°F 32.9°F / 39.0°F 29.83 inHg 76% 0.00″
01/01/2017 07:50 AM 37.8°F 35.1°F / 37.8°F 32.9°F / 37.8°F 29.84 inHg 76% 0.00″
01/01/2017 06:50 AM 34.5°F 34.5°F / 35.8°F 32.9°F / 37.2°F 29.83 inHg 87% 0.00″
01/01/2017 05:50 AM 35.1°F 34.3°F / 35.1°F 32.9°F / 37.2°F 29.82 inHg 88% 0.00″
01/01/2017 04:49 AM 33.8°F 32.9°F / 34.5°F 32.9°F / 37.2°F 29.82 inHg 90% 0.00″
01/01/2017 03:49 AM 34.5°F 34.3°F / 35.4°F 34.3°F / 37.2°F 29.83 inHg 86% 0.00″
01/01/2017 02:49 AM 35.8°F 35.4°F / 35.8°F 35.2°F / 37.2°F 29.83 inHg 84% 0.00″
01/01/2017 01:49 AM 35.4°F 35.2°F / 35.8°F 35.2°F / 37.2°F 29.82 inHg 84% 0.00″
01/01/2017 12:49 AM 36.3°F 36.3°F / 37.2°F 36.3°F / 37.2°F 29.81 inHg 82% 0.00″
12/31/2016 11:49 PM 37.0°F 37.0°F / 37.6°F 37.0°F / 44.8°F 29.82 inHg 82% 0.19″
12/31/2016 10:49 PM 37.8°F 37.8°F / 38.7°F 37.8°F / 44.8°F 29.83 inHg 83% 0.19″
12/31/2016 09:48 PM 38.5°F 38.3°F / 38.5°F 37.9°F / 44.8°F 29.83 inHg 83% 0.19″
12/31/2016 08:48 PM 38.7°F 38.7°F / 39.0°F 37.9°F / 44.8°F 29.83 inHg 84% 0.19″
12/31/2016 07:48 PM 38.8°F 38.7°F / 38.8°F 37.9°F / 44.8°F 29.81 inHg 87% 0.19″
12/31/2016 06:48 PM 39.0°F 38.8°F / 39.6°F 37.9°F / 44.8°F 29.81 inHg 85% 0.19″
12/31/2016 05:48 PM 39.6°F 39.6°F / 40.3°F 37.9°F / 44.8°F 29.80 inHg 86% 0.19″
12/31/2016 04:48 PM 40.5°F 40.5°F / 40.8°F 37.9°F / 44.8°F 29.78 inHg 88% 0.19″
12/31/2016 03:48 PM 40.8°F 40.8°F / 41.4°F 37.9°F / 44.8°F 29.78 inHg 89% 0.19″
12/31/2016 02:48 PM 41.7°F 41.5°F / 42.1°F 37.9°F / 44.8°F 29.77 inHg 89% 0.19″
12/31/2016 01:48 PM 41.2°F 40.5°F / 41.2°F 37.9°F / 44.8°F 29.77 inHg 93% 0.19″
12/31/2016 12:48 PM 41.9°F 41.7°F / 43.3°F 37.9°F / 44.8°F 29.78 inHg 91% 0.16″
12/31/2016 11:48 AM 40.8°F 40.5°F / 40.8°F 37.9°F / 44.8°F 29.81 inHg 94% 0.16″
12/31/2016 10:48 AM 40.8°F 40.8°F / 42.6°F 37.9°F / 44.8°F 29.85 inHg 93% 0.12″
12/31/2016 09:48 AM 43.2°F 43.2°F / 44.6°F 37.9°F / 44.8°F 29.83 inHg 90% 0.01″
12/31/2016 08:48 AM 44.6°F 44.2°F / 44.6°F 37.9°F / 44.6°F 29.84 inHg 84% 0.00″
12/31/2016 07:48 AM 44.1°F 41.7°F / 44.1°F 37.9°F / 44.1°F 29.84 inHg 85% 0.00″
12/31/2016 06:48 AM 42.1°F 42.1°F / 43.2°F 37.9°F / 43.2°F 29.84 inHg 88% 0.00″
12/31/2016 05:47 AM 42.6°F 42.4°F / 42.8°F 37.9°F / 43.2°F 29.85 inHg 89% 0.00″
12/31/2016 04:47 AM 42.4°F 42.4°F / 43.2°F 37.9°F / 43.2°F 29.85 inHg 91% 0.00″
12/31/2016 03:47 AM 43.2°F 43.0°F / 43.2°F 37.9°F / 43.2°F 29.86 inHg 89% 0.00″
12/31/2016 02:47 AM 43.0°F 40.8°F / 43.0°F 37.9°F / 43.0°F 29.89 inHg 89% 0.00″
12/31/2016 01:47 AM 40.3°F 37.9°F / 40.3°F 37.9°F / 40.3°F 29.90 inHg 92% 0.00″
12/31/2016 12:47 AM 38.5°F 38.5°F / 39.6°F 38.5°F / 39.6°F 29.91 inHg 89% 0.00″
12/30/2016 11:47 PM 39.9°F 39.6°F / 40.3°F 30.7°F / 44.4°F 29.94 inHg 85% 0.00″
12/30/2016 10:47 PM 39.7°F 39.7°F / 41.0°F 30.7°F / 44.4°F 29.97 inHg 88% 0.00″
12/30/2016 09:47 PM 40.6°F 40.6°F / 42.6°F 30.7°F / 44.4°F 29.99 inHg 87% 0.00″
12/30/2016 08:47 PM 42.3°F 42.3°F / 43.0°F 30.7°F / 44.4°F 30.00 inHg 85% 0.00″
12/30/2016 07:47 PM 42.4°F 40.8°F / 42.4°F 30.7°F / 44.4°F 30.00 inHg 87% 0.00″
12/30/2016 06:47 PM 40.3°F 40.3°F / 40.8°F 30.7°F / 44.4°F 30.00 inHg 90% 0.00″
12/30/2016 05:46 PM 40.8°F 40.6°F / 41.2°F 30.7°F / 44.4°F 30.01 inHg 88% 0.00″
12/30/2016 04:46 PM 41.0°F 41.0°F / 44.4°F 30.7°F / 44.4°F 30.01 inHg 85% 0.00″
12/30/2016 03:46 PM 42.4°F 40.8°F / 42.4°F 30.7°F / 43.2°F 30.03 inHg 85% 0.00″
12/30/2016 02:46 PM 41.2°F 40.6°F / 41.7°F 30.7°F / 43.2°F 30.04 inHg 85% 0.00″
12/30/2016 01:46 PM 42.8°F 40.8°F / 43.2°F 30.7°F / 43.2°F 30.05 inHg 86% 0.00″
12/30/2016 12:46 PM 39.6°F 38.7°F / 39.7°F 30.7°F / 39.7°F 30.10 inHg 93% 0.00″
12/30/2016 11:45 AM 38.5°F 37.9°F / 38.5°F 30.7°F / 38.5°F 30.16 inHg 93% 0.00″
12/30/2016 10:45 AM 37.9°F 37.6°F / 38.1°F 30.7°F / 38.1°F 30.22 inHg 88% 0.00″
12/30/2016 09:45 AM 37.9°F 37.6°F / 37.9°F 30.7°F / 37.9°F 30.23 inHg 78% 0.00″
12/30/2016 08:45 AM 37.2°F 36.5°F / 37.2°F 30.7°F / 37.2°F 30.22 inHg 78% 0.00″
12/30/2016 07:45 AM 36.3°F 35.8°F / 36.3°F 30.7°F / 36.5°F 30.24 inHg 74% 0.00″
12/30/2016 06:45 AM 36.5°F 36.1°F / 36.5°F 30.7°F / 36.5°F 30.25 inHg 74% 0.00″
12/30/2016 05:45 AM 36.1°F 36.0°F / 36.5°F 30.7°F / 36.5°F 30.26 inHg 72% 0.00″
12/30/2016 04:44 AM 35.4°F 34.5°F / 35.4°F 30.7°F / 35.4°F 30.27 inHg 70% 0.00″
12/30/2016 03:44 AM 34.0°F 31.1°F / 34.0°F 30.7°F / 34.0°F 30.30 inHg 70% 0.00″
12/30/2016 02:44 AM 30.9°F 30.7°F / 30.9°F 30.7°F / 33.1°F 30.32 inHg 69% 0.00″
12/30/2016 01:44 AM 30.9°F 30.7°F / 32.2°F 30.7°F / 33.1°F 30.34 inHg 71% 0.00″
12/30/2016 12:44 AM 32.4°F 32.2°F / 33.1°F 32.2°F / 33.1°F 30.35 inHg 71% 0.00″
12/29/2016 11:43 PM 33.4°F 33.4°F / 33.6°F 31.3°F / 47.5°F 30.37 inHg 70% 0.00″
12/29/2016 10:42 PM 32.9°F 31.3°F / 33.1°F 31.3°F / 47.5°F 30.39 inHg 70% 0.00″
12/29/2016 09:42 PM 31.8°F 31.8°F / 33.8°F 31.8°F / 47.5°F 30.38 inHg 71% 0.00″
12/29/2016 08:41 PM 34.2°F 34.2°F / 34.7°F 33.3°F / 47.5°F 30.37 inHg 68% 0.00″
12/29/2016 07:41 PM 34.5°F 34.0°F / 34.9°F 33.3°F / 47.5°F 30.38 inHg 68% 0.00″
12/29/2016 06:40 PM 34.2°F 33.3°F / 34.3°F 33.3°F / 47.5°F 30.38 inHg 71% 0.00″
12/29/2016 05:40 PM 33.4°F 33.4°F / 35.6°F 33.4°F / 47.5°F 30.37 inHg 68% 0.00″
12/29/2016 04:40 PM 36.7°F 36.7°F / 38.7°F 36.7°F / 47.5°F 30.36 inHg 62% 0.00″
12/29/2016 03:40 PM 39.0°F 37.9°F / 39.2°F 37.6°F / 47.5°F 30.35 inHg 58% 0.00″
12/29/2016 02:40 PM 37.9°F 37.8°F / 38.3°F 37.6°F / 47.5°F 30.34 inHg 59% 0.00″
12/29/2016 01:40 PM 38.1°F 38.1°F / 41.2°F 37.6°F / 47.5°F 30.33 inHg 60% 0.00″
12/29/2016 12:40 PM 42.3°F 41.9°F / 42.4°F 37.6°F / 47.5°F 30.34 inHg 52% 0.00″
12/29/2016 11:40 AM 42.8°F 41.7°F / 43.0°F 37.6°F / 47.5°F 30.36 inHg 48% 0.00″
12/29/2016 10:39 AM 46.9°F 46.9°F / 47.5°F 37.6°F / 47.5°F 30.36 inHg 36% 0.00″
12/29/2016 09:39 AM 45.3°F 42.8°F / 45.3°F 37.6°F / 45.3°F 30.34 inHg 35% 0.00″
12/29/2016 08:39 AM 42.3°F 40.1°F / 42.3°F 37.6°F / 45.0°F 30.30 inHg 35% 0.00″
12/29/2016 07:39 AM 40.5°F 40.5°F / 44.1°F 37.6°F / 45.0°F 30.30 inHg 33% 0.00″
12/29/2016 06:39 AM 45.0°F 44.4°F / 45.0°F 37.6°F / 45.0°F 30.27 inHg 23% 0.00″
12/29/2016 05:39 AM 44.1°F 41.5°F / 44.1°F 37.6°F / 44.1°F 30.28 inHg 24% 0.00″
12/29/2016 04:39 AM 37.8°F 37.8°F / 40.8°F 37.8°F / 42.6°F 30.27 inHg 42% 0.00″
12/29/2016 03:39 AM 38.1°F 38.1°F / 39.9°F 38.1°F / 42.6°F 30.27 inHg 43% 0.00″
12/29/2016 02:39 AM 40.1°F 39.9°F / 40.6°F 39.9°F / 42.6°F 30.26 inHg 39% 0.00″
12/29/2016 01:39 AM 42.6°F 40.8°F / 42.6°F 40.8°F / 42.6°F 30.27 inHg 36% 0.00″
12/29/2016 12:38 AM 41.2°F 41.0°F / 41.9°F 41.0°F / 41.9°F 30.27 inHg 46% 0.00″
12/28/2016 11:38 PM 43.7°F 41.0°F / 44.1°F 37.0°F / 55.9°F 30.27 inHg 36% 0.00″
12/28/2016 10:38 PM 40.6°F 39.6°F / 40.6°F 37.0°F / 55.9°F 30.28 inHg 45% 0.00″
12/28/2016 09:38 PM 39.4°F 39.2°F / 40.1°F 37.0°F / 55.9°F 30.27 inHg 45% 0.00″
12/28/2016 08:38 PM 40.5°F 39.6°F / 41.0°F 37.0°F / 55.9°F 30.26 inHg 42% 0.00″
12/28/2016 07:38 PM 39.7°F 39.6°F / 40.5°F 37.0°F / 55.9°F 30.24 inHg 42% 0.00″
12/28/2016 06:38 PM 41.4°F 41.4°F / 42.6°F 37.0°F / 55.9°F 30.22 inHg 33% 0.00″
12/28/2016 05:38 PM 40.8°F 40.6°F / 44.1°F 37.0°F / 55.9°F 30.20 inHg 36% 0.00″
12/28/2016 04:38 PM 45.0°F 45.0°F / 52.3°F 37.0°F / 55.9°F 30.18 inHg 42% 0.00″
12/28/2016 03:38 PM 53.4°F 52.3°F / 54.3°F 37.0°F / 55.9°F 30.17 inHg 22% 0.00″
12/28/2016 02:38 PM 54.0°F 53.1°F / 54.7°F 37.0°F / 55.9°F 30.16 inHg 20% 0.00″
12/28/2016 01:38 PM 55.2°F 54.5°F / 55.6°F 37.0°F / 55.6°F 30.16 inHg 18% 0.00″
12/28/2016 12:38 PM 54.9°F 52.0°F / 55.2°F 37.0°F / 55.2°F 30.17 inHg 21% 0.00″
12/28/2016 11:37 AM 52.0°F 52.0°F / 53.2°F 37.0°F / 55.0°F 30.19 inHg 21% 0.00″
12/28/2016 10:37 AM 54.1°F 53.6°F / 55.0°F 37.0°F / 55.0°F 30.23 inHg 18% 0.00″
12/28/2016 09:37 AM 48.9°F 43.3°F / 49.3°F 37.0°F / 49.3°F 30.24 inHg 33% 0.00″
12/28/2016 08:37 AM 39.9°F 37.8°F / 39.9°F 37.0°F / 39.9°F 30.23 inHg 36% 0.00″
12/28/2016 07:37 AM 37.8°F 37.2°F / 38.1°F 37.0°F / 39.4°F 30.21 inHg 38% 0.00″
12/28/2016 06:37 AM 37.4°F 37.4°F / 37.9°F 37.2°F / 39.4°F 30.19 inHg 37% 0.00″
12/28/2016 05:37 AM 38.1°F 38.1°F / 39.4°F 37.2°F / 39.4°F 30.19 inHg 33% 0.00″
12/28/2016 04:37 AM 37.9°F 37.6°F / 38.7°F 37.2°F / 39.0°F 30.19 inHg 37% 0.00″
12/28/2016 03:37 AM 37.4°F 37.4°F / 38.3°F 37.4°F / 39.0°F 30.20 inHg 41% 0.00″
12/28/2016 02:37 AM 37.9°F 37.9°F / 38.8°F 37.9°F / 39.0°F 30.21 inHg 46% 0.00″
12/28/2016 01:36 AM 38.8°F 38.1°F / 38.8°F 37.9°F / 39.0°F 30.22 inHg 37% 0.00″
12/28/2016 12:36 AM 38.3°F 38.3°F / 39.0°F 38.3°F / 39.0°F 30.22 inHg 39% 0.00″
12/27/2016 11:36 PM 38.3°F 38.3°F / 39.0°F 35.4°F / 55.2°F 30.23 inHg 39% 0.00″
12/27/2016 10:36 PM 38.8°F 38.8°F / 39.2°F 35.4°F / 55.2°F 30.23 inHg 41% 0.00″
12/27/2016 09:36 PM 39.6°F 39.6°F / 39.6°F 35.4°F / 55.2°F 30.22 inHg 40% 0.00″
12/27/2016 08:35 PM 39.6°F 39.4°F / 40.5°F 35.4°F / 55.2°F 30.22 inHg 37% 0.00″
12/27/2016 07:35 PM 40.1°F 40.1°F / 40.6°F 35.4°F / 55.2°F 30.21 inHg 42% 0.00″
12/27/2016 06:35 PM 42.1°F 40.8°F / 42.6°F 35.4°F / 55.2°F 30.20 inHg 43% 0.00″
12/27/2016 05:35 PM 40.6°F 40.6°F / 42.6°F 35.4°F / 55.2°F 30.21 inHg 46% 0.00″
12/27/2016 04:34 PM 45.0°F 45.0°F / 48.0°F 35.4°F / 55.2°F 30.20 inHg 51% 0.00″
12/27/2016 03:34 PM 49.6°F 49.6°F / 52.2°F 35.4°F / 55.2°F 30.21 inHg 40% 0.00″
12/27/2016 02:34 PM 52.2°F 51.3°F / 52.3°F 35.4°F / 55.2°F 30.22 inHg 35% 0.00″
12/27/2016 01:34 PM 52.2°F 52.0°F / 53.6°F 35.4°F / 55.2°F 30.23 inHg 36% 0.00″
12/27/2016 12:34 PM 53.4°F 52.9°F / 54.3°F 35.4°F / 55.2°F 30.25 inHg 30% 0.00″
12/27/2016 11:34 AM 54.0°F 51.6°F / 54.0°F 35.4°F / 54.0°F 30.28 inHg 31% 0.00″
12/27/2016 10:33 AM 47.3°F 46.0°F / 47.3°F 35.4°F / 47.3°F 30.33 inHg 38% 0.00″
12/27/2016 09:33 AM 42.1°F 39.7°F / 42.1°F 35.4°F / 42.1°F 30.33 inHg 51% 0.00″
12/27/2016 08:33 AM 38.1°F 37.8°F / 38.1°F 35.4°F / 38.7°F 30.32 inHg 50% 0.00″
12/27/2016 07:33 AM 37.8°F 37.0°F / 37.8°F 35.4°F / 38.7°F 30.32 inHg 48% 0.00″
12/27/2016 06:33 AM 37.0°F 36.7°F / 37.2°F 35.4°F / 38.7°F 30.32 inHg 47% 0.00″
12/27/2016 05:33 AM 36.1°F 36.1°F / 36.7°F 35.4°F / 38.7°F 30.31 inHg 44% 0.00″
12/27/2016 04:33 AM 38.3°F 37.8°F / 38.3°F 35.4°F / 38.5°F 30.31 inHg 41% 0.00″
12/27/2016 03:33 AM 37.0°F 37.0°F / 37.4°F 35.4°F / 38.5°F 30.32 inHg 53% 0.00″
12/27/2016 02:33 AM 37.9°F 37.8°F / 38.5°F 35.4°F / 38.5°F 30.33 inHg 53% 0.00″
12/27/2016 01:33 AM 36.0°F 35.6°F / 36.3°F 35.4°F / 36.3°F 30.35 inHg 45% 0.00″
12/27/2016 12:33 AM 35.4°F 35.4°F / 36.3°F 35.4°F / 36.3°F 30.35 inHg 47% 0.00″
12/26/2016 11:32 PM 35.8°F 35.1°F / 35.8°F 27.1°F / 53.1°F 30.35 inHg 50% 0.01″
12/26/2016 10:32 PM 35.2°F 35.2°F / 36.5°F 27.1°F / 53.1°F 30.35 inHg 48% 0.01″
12/26/2016 09:32 PM 37.4°F 37.4°F / 37.8°F 27.1°F / 53.1°F 30.35 inHg 53% 0.01″
12/26/2016 08:32 PM 37.8°F 37.8°F / 39.6°F 27.1°F / 53.1°F 30.35 inHg 49% 0.01″
12/26/2016 07:32 PM 40.1°F 39.9°F / 40.5°F 27.1°F / 53.1°F 30.34 inHg 46% 0.01″
12/26/2016 06:31 PM 41.0°F 40.8°F / 41.5°F 27.1°F / 53.1°F 30.34 inHg 48% 0.01″
12/26/2016 05:31 PM 40.6°F 40.5°F / 41.5°F 27.1°F / 53.1°F 30.32 inHg 56% 0.01″
12/26/2016 04:31 PM 44.2°F 43.9°F / 47.7°F 27.1°F / 53.1°F 30.32 inHg 49% 0.01″
12/26/2016 03:31 PM 51.1°F 50.5°F / 53.1°F 27.1°F / 53.1°F 30.32 inHg 32% 0.01″
12/26/2016 02:31 PM 50.0°F 48.6°F / 50.4°F 27.1°F / 50.7°F 30.31 inHg 31% 0.01″
12/26/2016 01:31 PM 50.4°F 49.6°F / 50.7°F 27.1°F / 50.7°F 30.32 inHg 23% 0.01″
12/26/2016 12:31 PM 49.6°F 49.5°F / 50.2°F 27.1°F / 50.2°F 30.35 inHg 17% 0.01″
12/26/2016 11:31 AM 48.9°F 47.3°F / 49.3°F 27.1°F / 49.3°F 30.37 inHg 14% 0.01″
12/26/2016 10:30 AM 45.5°F 40.3°F / 45.5°F 27.1°F / 45.5°F 30.39 inHg 15% 0.01″
12/26/2016 09:30 AM 39.0°F 32.9°F / 39.2°F 27.1°F / 39.2°F 30.39 inHg 33% 0.00″
12/26/2016 08:30 AM 31.5°F 30.4°F / 31.5°F 27.1°F / 31.5°F 30.35 inHg 40% 0.00″
12/26/2016 07:30 AM 30.0°F 28.2°F / 30.0°F 27.1°F / 30.0°F 30.33 inHg 45% 0.00″
12/26/2016 06:28 AM 28.0°F 28.0°F / 28.2°F 27.1°F / 29.7°F 30.30 inHg 47% 0.00″
12/26/2016 05:28 AM 28.2°F 28.2°F / 28.8°F 27.1°F / 29.7°F 30.27 inHg 54% 0.00″
12/26/2016 04:28 AM 28.9°F 28.9°F / 29.5°F 27.1°F / 29.7°F 30.26 inHg 55% 0.00″
12/26/2016 03:28 AM 29.1°F 28.9°F / 29.3°F 27.1°F / 29.7°F 30.24 inHg 57% 0.00″
12/26/2016 02:28 AM 28.0°F 27.9°F / 28.8°F 27.1°F / 29.7°F 30.23 inHg 54% 0.00″
12/26/2016 01:27 AM 29.7°F 27.7°F / 29.7°F 27.1°F / 29.7°F 30.22 inHg 55% 0.00″
12/26/2016 12:27 AM 27.1°F 27.1°F / 27.1°F 27.1°F / 27.1°F 30.20 inHg 63% 0.00″
12/25/2016 11:27 PM 27.3°F 27.3°F / 29.5°F 24.8°F / 41.4°F 30.16 inHg 64% 0.04″
12/25/2016 10:27 PM 27.0°F 25.3°F / 27.0°F 24.8°F / 41.4°F 30.14 inHg 66% 0.04″
12/25/2016 09:27 PM 25.0°F 25.0°F / 25.5°F 25.0°F / 41.4°F 30.09 inHg 81% 0.04″
12/25/2016 08:27 PM 26.1°F 25.9°F / 26.1°F 25.9°F / 41.4°F 30.06 inHg 77% 0.04″
12/25/2016 07:27 PM 26.8°F 26.8°F / 27.1°F 26.8°F / 41.4°F 30.02 inHg 74% 0.04″
12/25/2016 06:27 PM 27.1°F 27.1°F / 28.0°F 27.1°F / 41.4°F 29.99 inHg 73% 0.04″
12/25/2016 05:26 PM 29.5°F 29.3°F / 30.7°F 27.1°F / 41.4°F 29.95 inHg 66% 0.04″
12/25/2016 04:26 PM 33.1°F 33.1°F / 34.5°F 27.1°F / 41.4°F 29.91 inHg 56% 0.04″
12/25/2016 03:26 PM 35.2°F 35.1°F / 35.4°F 27.1°F / 41.4°F 29.89 inHg 55% 0.04″
12/25/2016 02:26 PM 35.8°F 33.8°F / 35.8°F 27.1°F / 41.4°F 29.87 inHg 60% 0.04″
12/25/2016 01:26 PM 35.6°F 33.1°F / 35.8°F 27.1°F / 41.4°F 29.84 inHg 60% 0.01″
12/25/2016 12:26 PM 31.5°F 31.3°F / 32.2°F 27.1°F / 41.4°F 29.84 inHg 72% 0.00″
12/25/2016 11:26 AM 32.7°F 32.7°F / 34.5°F 27.1°F / 41.4°F 29.83 inHg 64% 0.00″
12/25/2016 10:26 AM 29.8°F 28.9°F / 29.8°F 27.1°F / 41.4°F 29.83 inHg 72% 0.00″
12/25/2016 09:26 AM 28.9°F 28.2°F / 28.9°F 27.1°F / 41.4°F 29.80 inHg 72% 0.00″
12/25/2016 08:26 AM 27.5°F 27.1°F / 27.5°F 27.1°F / 41.4°F 29.75 inHg 71% 0.00″
12/25/2016 07:25 AM 27.7°F 27.7°F / 28.0°F 27.3°F / 41.4°F 29.71 inHg 69% 0.00″
12/25/2016 06:25 AM 28.2°F 28.2°F / 28.4°F 27.3°F / 41.4°F 29.67 inHg 70% 0.00″
12/25/2016 05:25 AM 28.0°F 27.3°F / 28.0°F 27.3°F / 41.4°F 29.66 inHg 71% 0.00″
12/25/2016 04:25 AM 28.9°F 28.9°F / 30.9°F 28.9°F / 41.4°F 29.68 inHg 85% 0.00″
12/25/2016 03:25 AM 32.2°F 32.2°F / 33.1°F 32.2°F / 41.4°F 29.64 inHg 72% 0.00″
12/25/2016 02:25 AM 35.2°F 35.2°F / 37.0°F 35.2°F / 41.4°F 29.63 inHg 74% 0.00″
12/25/2016 01:25 AM 41.0°F 41.0°F / 41.4°F 40.3°F / 41.4°F 29.59 inHg 67% 0.00″
12/25/2016 12:23 AM 40.5°F 40.3°F / 40.6°F 40.3°F / 40.6°F 29.58 inHg 70% 0.00″
12/24/2016 11:23 PM 48.2°F 48.2°F / 50.4°F 33.8°F / 58.1°F 29.58 inHg 53% 0.00″
12/24/2016 10:23 PM 52.3°F 52.3°F / 52.5°F 33.8°F / 58.1°F 29.57 inHg 42% 0.00″
12/24/2016 09:56 PM 52.3°F 51.3°F / 52.5°F 33.8°F / 58.1°F 29.57 inHg 41% 0.00″
12/24/2016 08:56 PM 51.3°F 51.1°F / 51.8°F 33.8°F / 58.1°F 29.60 inHg 50% 0.00″
12/24/2016 07:56 PM 51.6°F 51.6°F / 52.3°F 33.8°F / 58.1°F 29.62 inHg 48% 0.00″
12/24/2016 06:56 PM 52.2°F 50.5°F / 52.3°F 33.8°F / 58.1°F 29.67 inHg 40% 0.00″
12/24/2016 05:56 PM 51.1°F 51.1°F / 54.0°F 33.8°F / 58.1°F 29.71 inHg 37% 0.00″
12/24/2016 04:56 PM 54.1°F 54.1°F / 57.0°F 33.8°F / 58.1°F 29.71 inHg 24% 0.00″
12/24/2016 03:56 PM 57.0°F 57.0°F / 58.1°F 33.8°F / 58.1°F 29.76 inHg 25% 0.00″
12/24/2016 02:56 PM 57.7°F 57.0°F / 58.1°F 33.8°F / 58.1°F 29.78 inHg 26% 0.00″
12/24/2016 01:56 PM 57.0°F 55.6°F / 57.0°F 33.8°F / 57.0°F 29.81 inHg 34% 0.00″
12/24/2016 12:56 PM 55.8°F 54.0°F / 55.9°F 33.8°F / 55.9°F 29.85 inHg 46% 0.00″
12/24/2016 11:56 AM 54.0°F 52.3°F / 54.0°F 33.8°F / 54.0°F 29.90 inHg 51% 0.00″
12/24/2016 10:56 AM 52.3°F 49.8°F / 52.3°F 33.8°F / 52.3°F 29.94 inHg 52% 0.00″
12/24/2016 09:56 AM 49.8°F 45.3°F / 49.8°F 33.8°F / 49.8°F 29.97 inHg 55% 0.00″
12/24/2016 08:56 AM 45.1°F 40.5°F / 45.1°F 33.8°F / 45.1°F 29.98 inHg 68% 0.00″
12/24/2016 07:56 AM 41.7°F 36.3°F / 41.7°F 33.8°F / 41.7°F 29.98 inHg 76% 0.00″
12/24/2016 06:56 AM 36.1°F 35.8°F / 36.5°F 33.8°F / 37.9°F 29.99 inHg 79% 0.00″
12/24/2016 05:55 AM 36.7°F 36.7°F / 37.9°F 33.8°F / 37.9°F 29.99 inHg 83% 0.00″
12/24/2016 04:55 AM 37.9°F 36.9°F / 37.9°F 33.8°F / 37.9°F 29.99 inHg 80% 0.00″
12/24/2016 03:55 AM 37.0°F 36.0°F / 37.0°F 33.8°F / 37.0°F 29.99 inHg 79% 0.00″
12/24/2016 02:55 AM 36.1°F 36.0°F / 36.1°F 33.8°F / 36.1°F 29.99 inHg 78% 0.00″
12/24/2016 01:55 AM 36.1°F 34.5°F / 36.1°F 33.8°F / 36.1°F 29.98 inHg 77% 0.00″
12/24/2016 12:54 AM 35.2°F 33.8°F / 35.2°F 33.8°F / 35.2°F 29.99 inHg 75% 0.00″
12/23/2016 11:54 PM 34.2°F 34.2°F / 35.4°F 34.2°F / 48.7°F 30.01 inHg 79% 0.01″
12/23/2016 10:54 PM 35.4°F 35.4°F / 36.1°F 35.4°F / 48.7°F 30.01 inHg 79% 0.01″
12/23/2016 09:54 PM 35.4°F 35.4°F / 36.7°F 35.4°F / 48.7°F 30.01 inHg 81% 0.01″
12/23/2016 08:54 PM 36.7°F 36.3°F / 36.9°F 36.3°F / 48.7°F 30.00 inHg 83% 0.01″
12/23/2016 07:54 PM 37.0°F 37.0°F / 39.0°F 37.0°F / 48.7°F 29.99 inHg 86% 0.01″
12/23/2016 06:54 PM 37.2°F 37.0°F / 38.3°F 37.0°F / 48.7°F 29.97 inHg 86% 0.01″
12/23/2016 05:54 PM 38.5°F 38.5°F / 42.3°F 38.5°F / 48.7°F 29.95 inHg 85% 0.01″
12/23/2016 04:54 PM 43.0°F 43.0°F / 46.2°F 40.6°F / 48.7°F 29.94 inHg 75% 0.01″
12/23/2016 03:54 PM 46.6°F 46.6°F / 47.7°F 40.6°F / 48.7°F 29.94 inHg 66% 0.01″
12/23/2016 02:54 PM 47.7°F 46.2°F / 48.0°F 40.6°F / 48.7°F 29.94 inHg 64% 0.01″
12/23/2016 01:54 PM 47.1°F 46.8°F / 48.7°F 40.6°F / 48.7°F 29.95 inHg 63% 0.01″
12/23/2016 12:54 PM 48.0°F 47.7°F / 48.4°F 40.6°F / 48.4°F 29.96 inHg 57% 0.01″
12/23/2016 11:54 AM 47.1°F 45.0°F / 47.3°F 40.6°F / 47.3°F 29.97 inHg 57% 0.01″
12/23/2016 10:54 AM 43.5°F 42.3°F / 44.8°F 40.6°F / 46.4°F 30.00 inHg 70% 0.01″
12/23/2016 09:54 AM 43.3°F 42.3°F / 43.5°F 40.6°F / 46.4°F 30.01 inHg 76% 0.01″
12/23/2016 08:53 AM 42.4°F 40.8°F / 42.4°F 40.6°F / 46.4°F 29.99 inHg 79% 0.01″
12/23/2016 07:53 AM 41.2°F 40.6°F / 41.5°F 40.6°F / 46.4°F 29.97 inHg 86% 0.01″
12/23/2016 06:53 AM 41.7°F 41.5°F / 42.4°F 41.5°F / 46.4°F 29.95 inHg 91% 0.01″
12/23/2016 05:53 AM 42.4°F 42.4°F / 43.0°F 42.4°F / 46.4°F 29.94 inHg 87% 0.01″
12/23/2016 04:53 AM 43.0°F 43.0°F / 43.5°F 43.0°F / 46.4°F 29.91 inHg 85% 0.01″
12/23/2016 03:53 AM 43.5°F 43.5°F / 44.1°F 43.5°F / 46.4°F 29.92 inHg 84% 0.01″
12/23/2016 02:53 AM 44.2°F 44.2°F / 45.0°F 44.2°F / 46.4°F 29.93 inHg 89% 0.01″
12/23/2016 01:53 AM 45.1°F 45.1°F / 45.7°F 45.1°F / 46.4°F 29.95 inHg 88% 0.01″
12/23/2016 12:53 AM 45.7°F 45.7°F / 46.4°F 45.7°F / 46.4°F 29.95 inHg 87% 0.01″
12/22/2016 11:53 PM 46.2°F 46.2°F / 46.8°F 39.0°F / 55.6°F 29.95 inHg 90% 1.16″
12/22/2016 10:53 PM 46.8°F 46.6°F / 46.8°F 39.0°F / 55.6°F 29.96 inHg 93% 1.16″
12/22/2016 09:53 PM 46.6°F 45.7°F / 46.6°F 39.0°F / 55.6°F 29.96 inHg 96% 1.16″
12/22/2016 08:52 PM 45.9°F 45.7°F / 46.0°F 39.0°F / 55.6°F 29.99 inHg 97% 1.16″
12/22/2016 07:52 PM 45.3°F 44.2°F / 45.3°F 39.0°F / 55.6°F 30.00 inHg 97% 1.15″
12/22/2016 06:52 PM 44.2°F 43.2°F / 44.2°F 39.0°F / 55.6°F 30.01 inHg 97% 1.11″
12/22/2016 05:52 PM 42.3°F 39.9°F / 42.3°F 39.0°F / 55.6°F 30.00 inHg 97% 1.08″
12/22/2016 04:52 PM 42.4°F 41.2°F / 43.0°F 39.0°F / 55.6°F 30.00 inHg 96% 0.97″
12/22/2016 03:52 PM 40.1°F 39.0°F / 40.3°F 39.0°F / 55.6°F 29.98 inHg 96% 0.86″
12/22/2016 02:52 PM 41.2°F 39.9°F / 41.4°F 39.0°F / 55.6°F 29.97 inHg 96% 0.70″
12/22/2016 01:52 PM 39.4°F 39.0°F / 42.3°F 39.0°F / 55.6°F 29.97 inHg 96% 0.70″
12/22/2016 12:52 PM 42.1°F 41.7°F / 44.2°F 41.4°F / 55.6°F 29.94 inHg 95% 0.69″
12/22/2016 11:51 AM 44.1°F 43.9°F / 55.6°F 41.4°F / 55.6°F 29.97 inHg 94% 0.69″
12/22/2016 10:51 AM 49.6°F 45.7°F / 51.3°F 41.4°F / 51.3°F 30.01 inHg 90% 0.69″
12/22/2016 09:51 AM 49.5°F 47.1°F / 49.6°F 41.4°F / 49.6°F 30.05 inHg 84% 0.69″
12/22/2016 08:51 AM 45.9°F 45.5°F / 47.1°F 41.4°F / 47.1°F 30.07 inHg 93% 0.68″
12/22/2016 07:51 AM 45.1°F 45.0°F / 45.7°F 41.4°F / 46.8°F 30.06 inHg 94% 0.65″
12/22/2016 06:50 AM 45.9°F 45.7°F / 46.8°F 41.4°F / 46.8°F 30.05 inHg 91% 0.64″
12/22/2016 05:50 AM 45.9°F 45.5°F / 45.9°F 41.4°F / 45.9°F 30.08 inHg 92% 0.64″
12/22/2016 04:50 AM 45.7°F 45.1°F / 45.7°F 41.4°F / 45.7°F 30.10 inHg 91% 0.57″
12/22/2016 03:50 AM 44.4°F 41.4°F / 44.8°F 41.4°F / 45.1°F 30.10 inHg 95% 0.46″
12/22/2016 02:50 AM 42.6°F 42.6°F / 45.0°F 42.4°F / 45.1°F 30.09 inHg 94% 0.34″
12/22/2016 01:50 AM 44.8°F 43.2°F / 44.8°F 42.4°F / 44.8°F 30.06 inHg 93% 0.20″
12/22/2016 12:50 AM 43.0°F 42.4°F / 43.2°F 42.4°F / 43.2°F 30.07 inHg 89% 0.09″
12/21/2016 11:50 PM 42.4°F 42.4°F / 44.8°F 42.4°F / 57.9°F 30.10 inHg 87% 0.19″
12/21/2016 10:50 PM 45.9°F 45.9°F / 50.5°F 42.6°F / 57.9°F 30.12 inHg 81% 0.04″
12/21/2016 09:50 PM 50.4°F 48.9°F / 50.9°F 42.6°F / 57.9°F 30.12 inHg 65% 0.00″
12/21/2016 08:49 PM 48.0°F 47.1°F / 48.0°F 42.6°F / 57.9°F 30.12 inHg 58% 0.00″
12/21/2016 07:49 PM 46.9°F 46.8°F / 48.0°F 42.6°F / 57.9°F 30.13 inHg 58% 0.00″
12/21/2016 06:48 PM 48.6°F 47.7°F / 48.9°F 42.6°F / 57.9°F 30.12 inHg 52% 0.00″
12/21/2016 05:48 PM 46.6°F 46.4°F / 50.4°F 42.6°F / 57.9°F 30.11 inHg 57% 0.00″
12/21/2016 04:48 PM 52.3°F 52.3°F / 57.2°F 42.6°F / 57.9°F 30.09 inHg 52% 0.00″
12/21/2016 03:48 PM 56.8°F 54.9°F / 57.0°F 42.6°F / 57.9°F 30.09 inHg 45% 0.00″
12/21/2016 02:48 PM 54.1°F 54.1°F / 57.9°F 42.6°F / 57.9°F 30.09 inHg 37% 0.00″
12/21/2016 01:48 PM 56.1°F 53.4°F / 56.1°F 42.6°F / 56.7°F 30.09 inHg 35% 0.00″
12/21/2016 12:47 PM 54.9°F 53.2°F / 55.4°F 42.6°F / 56.7°F 30.11 inHg 35% 0.00″
12/21/2016 11:47 AM 56.1°F 51.4°F / 56.1°F 42.6°F / 56.1°F 30.12 inHg 35% 0.00″
12/21/2016 10:47 AM 54.0°F 52.0°F / 55.4°F 42.6°F / 55.6°F 30.16 inHg 37% 0.00″
12/21/2016 09:47 AM 54.9°F 51.1°F / 54.9°F 42.6°F / 54.9°F 30.15 inHg 36% 0.00″
12/21/2016 08:47 AM 49.6°F 46.8°F / 49.6°F 42.6°F / 49.6°F 30.18 inHg 46% 0.00″
12/21/2016 07:47 AM 46.8°F 46.8°F / 48.4°F 42.6°F / 49.1°F 30.15 inHg 48% 0.00″
12/21/2016 06:47 AM 48.9°F 47.1°F / 48.9°F 42.6°F / 49.1°F 30.14 inHg 44% 0.00″
12/21/2016 05:47 AM 47.7°F 47.7°F / 49.1°F 42.6°F / 49.1°F 30.14 inHg 45% 0.00″
12/21/2016 04:47 AM 48.7°F 46.8°F / 48.9°F 42.6°F / 49.1°F 30.15 inHg 43% 0.00″
12/21/2016 03:47 AM 48.2°F 46.0°F / 48.2°F 42.6°F / 48.2°F 30.17 inHg 41% 0.00″
12/21/2016 02:47 AM 46.8°F 46.6°F / 46.9°F 42.6°F / 46.9°F 30.19 inHg 36% 0.00″
12/21/2016 01:46 AM 46.6°F 46.6°F / 46.9°F 42.6°F / 46.9°F 30.20 inHg 32% 0.00″
12/21/2016 12:46 AM 45.9°F 42.6°F / 45.9°F 42.6°F / 45.9°F 30.23 inHg 33% 0.00″
12/20/2016 11:46 PM 41.2°F 40.5°F / 41.2°F 33.4°F / 57.6°F 30.24 inHg 37% 0.00″
12/20/2016 10:46 PM 39.9°F 39.7°F / 41.9°F 33.4°F / 57.6°F 30.27 inHg 40% 0.00″
12/20/2016 09:46 PM 41.0°F 40.8°F / 41.9°F 33.4°F / 57.6°F 30.28 inHg 39% 0.00″
12/20/2016 08:46 PM 39.0°F 38.8°F / 39.4°F 33.4°F / 57.6°F 30.28 inHg 39% 0.00″
12/20/2016 07:46 PM 39.2°F 39.2°F / 40.3°F 33.4°F / 57.6°F 30.30 inHg 41% 0.00″
12/20/2016 06:46 PM 39.7°F 39.7°F / 42.4°F 33.4°F / 57.6°F 30.28 inHg 41% 0.00″
12/20/2016 05:45 PM 43.0°F 43.0°F / 45.9°F 33.4°F / 57.6°F 30.27 inHg 41% 0.00″
12/20/2016 04:45 PM 46.9°F 46.9°F / 50.2°F 33.4°F / 57.6°F 30.27 inHg 42% 0.00″
12/20/2016 03:45 PM 51.6°F 51.6°F / 52.9°F 33.4°F / 57.6°F 30.30 inHg 33% 0.00″
12/20/2016 02:45 PM 53.6°F 53.2°F / 54.5°F 33.4°F / 57.6°F 30.31 inHg 33% 0.00″
12/20/2016 01:45 PM 55.8°F 55.2°F / 57.6°F 33.4°F / 57.6°F 30.31 inHg 33% 0.00″
12/20/2016 12:45 PM 56.7°F 55.8°F / 56.8°F 33.4°F / 56.8°F 30.32 inHg 32% 0.00″
12/20/2016 11:45 AM 55.8°F 54.0°F / 56.1°F 33.4°F / 56.1°F 30.39 inHg 34% 0.00″
12/20/2016 10:45 AM 53.4°F 51.4°F / 53.4°F 33.4°F / 53.4°F 30.43 inHg 42% 0.00″
12/20/2016 09:45 AM 47.1°F 42.3°F / 47.1°F 33.4°F / 47.1°F 30.44 inHg 60% 0.00″
12/20/2016 08:45 AM 41.2°F 37.8°F / 41.2°F 33.4°F / 41.2°F 30.45 inHg 73% 0.00″
12/20/2016 07:45 AM 37.6°F 36.7°F / 37.6°F 33.4°F / 38.5°F 30.43 inHg 77% 0.00″
12/20/2016 06:44 AM 37.0°F 35.2°F / 38.5°F 33.4°F / 38.5°F 30.44 inHg 77% 0.00″
12/20/2016 05:44 AM 35.4°F 35.2°F / 35.8°F 33.4°F / 36.1°F 30.44 inHg 81% 0.00″
12/20/2016 04:43 AM 36.0°F 35.2°F / 36.1°F 33.4°F / 36.1°F 30.43 inHg 80% 0.00″
12/20/2016 03:43 AM 35.1°F 35.1°F / 35.6°F 33.4°F / 36.1°F 30.43 inHg 80% 0.00″
12/20/2016 02:43 AM 36.1°F 34.9°F / 36.1°F 33.4°F / 36.1°F 30.45 inHg 78% 0.00″
12/20/2016 01:43 AM 34.3°F 33.4°F / 34.3°F 33.4°F / 34.5°F 30.45 inHg 82% 0.00″
12/20/2016 12:42 AM 34.3°F 34.3°F / 34.5°F 34.3°F / 34.5°F 30.45 inHg 80% 0.00″
12/19/2016 11:42 PM 34.5°F 34.5°F / 35.2°F 28.0°F / 46.9°F 30.45 inHg 78% 0.00″
12/19/2016 10:42 PM 36.5°F 35.4°F / 36.7°F 28.0°F / 46.9°F 30.46 inHg 74% 0.00″
12/19/2016 09:42 PM 35.2°F 34.9°F / 35.2°F 28.0°F / 46.9°F 30.44 inHg 75% 0.00″
12/19/2016 08:42 PM 35.2°F 35.2°F / 36.1°F 28.0°F / 46.9°F 30.45 inHg 71% 0.00″
12/19/2016 07:42 PM 36.0°F 35.8°F / 36.3°F 28.0°F / 46.9°F 30.44 inHg 66% 0.00″
12/19/2016 06:42 PM 35.8°F 35.6°F / 36.0°F 28.0°F / 46.9°F 30.44 inHg 62% 0.00″
12/19/2016 05:42 PM 36.0°F 36.0°F / 39.6°F 28.0°F / 46.9°F 30.43 inHg 57% 0.00″
12/19/2016 04:42 PM 42.3°F 42.3°F / 44.6°F 28.0°F / 46.9°F 30.43 inHg 45% 0.00″
12/19/2016 03:42 PM 45.7°F 45.0°F / 46.6°F 28.0°F / 46.9°F 30.44 inHg 37% 0.00″
12/19/2016 02:42 PM 45.7°F 43.2°F / 45.7°F 28.0°F / 46.8°F 30.45 inHg 38% 0.00″
12/19/2016 01:42 PM 45.9°F 43.3°F / 46.8°F 28.0°F / 46.8°F 30.45 inHg 38% 0.00″
12/19/2016 12:42 PM 43.2°F 42.4°F / 43.5°F 28.0°F / 43.5°F 30.48 inHg 45% 0.00″
12/19/2016 11:41 AM 41.4°F 41.2°F / 42.6°F 28.0°F / 43.0°F 30.49 inHg 49% 0.00″
12/19/2016 10:41 AM 40.5°F 40.1°F / 42.1°F 28.0°F / 42.1°F 30.51 inHg 59% 0.00″
12/19/2016 09:41 AM 36.9°F 33.4°F / 36.9°F 28.0°F / 36.9°F 30.50 inHg 78% 0.00″
12/19/2016 08:41 AM 32.9°F 30.9°F / 32.9°F 28.0°F / 33.1°F 30.50 inHg 85% 0.00″
12/19/2016 07:41 AM 29.8°F 29.5°F / 29.8°F 28.0°F / 33.1°F 30.48 inHg 87% 0.00″
12/19/2016 06:41 AM 29.7°F 29.7°F / 30.4°F 28.0°F / 33.1°F 30.48 inHg 84% 0.00″
12/19/2016 05:41 AM 29.8°F 29.8°F / 30.6°F 28.0°F / 33.1°F 30.47 inHg 77% 0.00″
12/19/2016 04:40 AM 30.6°F 30.6°F / 32.7°F 28.0°F / 33.1°F 30.46 inHg 82% 0.00″
12/19/2016 03:40 AM 33.1°F 31.6°F / 33.1°F 28.0°F / 33.1°F 30.45 inHg 83% 0.00″
12/19/2016 02:40 AM 31.6°F 29.5°F / 31.8°F 28.0°F / 31.8°F 30.46 inHg 83% 0.00″
12/19/2016 01:40 AM 28.2°F 28.0°F / 28.6°F 28.0°F / 28.9°F 30.45 inHg 86% 0.00″
12/19/2016 12:40 AM 28.8°F 28.0°F / 28.9°F 28.0°F / 28.9°F 30.44 inHg 85% 0.00″
12/18/2016 11:40 PM 27.9°F 27.9°F / 28.9°F 19.2°F / 41.7°F 30.44 inHg 80% 0.00″
12/18/2016 10:40 PM 29.3°F 29.3°F / 29.8°F 19.2°F / 41.7°F 30.45 inHg 75% 0.00″
12/18/2016 09:40 PM 29.5°F 29.3°F / 29.8°F 19.2°F / 41.7°F 30.43 inHg 81% 0.00″
12/18/2016 08:39 PM 30.0°F 30.0°F / 30.9°F 19.2°F / 41.7°F 30.43 inHg 77% 0.00″
12/18/2016 07:39 PM 30.4°F 28.2°F / 30.4°F 19.2°F / 41.7°F 30.41 inHg 74% 0.00″
12/18/2016 06:39 PM 28.8°F 28.8°F / 31.3°F 19.2°F / 41.7°F 30.38 inHg 60% 0.00″
12/18/2016 05:39 PM 31.1°F 31.1°F / 32.5°F 19.2°F / 41.7°F 30.34 inHg 57% 0.00″
12/18/2016 04:38 PM 33.6°F 33.6°F / 36.1°F 19.2°F / 41.7°F 30.32 inHg 47% 0.00″
12/18/2016 03:38 PM 37.0°F 36.5°F / 37.0°F 19.2°F / 41.7°F 30.31 inHg 42% 0.00″
12/18/2016 02:38 PM 37.9°F 37.0°F / 39.4°F 19.2°F / 41.7°F 30.30 inHg 40% 0.00″
12/18/2016 01:38 PM 41.4°F 39.0°F / 41.7°F 19.2°F / 41.7°F 30.29 inHg 42% 0.00″
12/18/2016 12:38 PM 38.5°F 36.7°F / 39.6°F 19.2°F / 40.3°F 30.31 inHg 33% 0.00″
12/18/2016 11:38 AM 39.7°F 36.5°F / 40.3°F 19.2°F / 40.3°F 30.32 inHg 29% 0.00″
12/18/2016 10:38 AM 35.2°F 33.1°F / 35.2°F 19.2°F / 35.2°F 30.33 inHg 33% 0.00″
12/18/2016 09:38 AM 30.6°F 25.0°F / 30.6°F 19.2°F / 30.6°F 30.32 inHg 39% 0.00″
12/18/2016 08:38 AM 22.5°F 21.6°F / 22.5°F 19.2°F / 23.4°F 30.29 inHg 41% 0.00″
12/18/2016 07:37 AM 21.2°F 19.2°F / 21.4°F 19.2°F / 23.4°F 30.24 inHg 48% 0.00″
12/18/2016 06:37 AM 19.6°F 19.6°F / 20.7°F 19.6°F / 23.4°F 30.20 inHg 55% 0.00″
12/18/2016 05:37 AM 20.1°F 19.6°F / 20.1°F 19.6°F / 23.4°F 30.17 inHg 62% 0.00″
12/18/2016 04:37 AM 19.8°F 19.6°F / 19.8°F 19.6°F / 23.4°F 30.13 inHg 68% 0.00″
12/18/2016 03:36 AM 20.1°F 19.9°F / 20.8°F 19.9°F / 23.4°F 30.11 inHg 67% 0.00″
12/18/2016 02:36 AM 21.9°F 21.0°F / 23.4°F 21.0°F / 23.4°F 30.09 inHg 66% 0.00″
12/18/2016 01:36 AM 21.9°F 21.9°F / 22.3°F 21.9°F / 23.4°F 30.07 inHg 68% 0.00″
12/18/2016 12:36 AM 23.0°F 23.0°F / 23.4°F 23.0°F / 23.4°F 30.04 inHg 68% 0.00″
12/17/2016 11:36 PM 24.1°F 24.1°F / 26.6°F 24.1°F / 49.1°F 30.02 inHg 66% 0.02″
12/17/2016 10:36 PM 25.5°F 25.0°F / 26.1°F 25.0°F / 49.1°F 30.01 inHg 65% 0.02″
12/17/2016 09:36 PM 26.8°F 26.2°F / 27.3°F 26.1°F / 49.1°F 29.98 inHg 62% 0.02″
12/17/2016 08:36 PM 26.8°F 26.8°F / 27.7°F 26.8°F / 49.1°F 29.95 inHg 60% 0.02″
12/17/2016 07:36 PM 29.5°F 29.5°F / 31.8°F 29.5°F / 49.1°F 29.90 inHg 53% 0.02″
12/17/2016 06:36 PM 30.9°F 30.4°F / 31.8°F 30.4°F / 49.1°F 29.85 inHg 47% 0.02″
12/17/2016 05:35 PM 33.1°F 33.1°F / 35.2°F 33.1°F / 49.1°F 29.79 inHg 41% 0.02″
12/17/2016 04:35 PM 36.3°F 36.3°F / 38.5°F 36.3°F / 49.1°F 29.74 inHg 36% 0.02″
12/17/2016 03:35 PM 39.6°F 39.6°F / 40.5°F 36.9°F / 49.1°F 29.69 inHg 31% 0.02″
12/17/2016 02:35 PM 40.8°F 40.3°F / 40.8°F 36.9°F / 49.1°F 29.64 inHg 26% 0.02″
12/17/2016 01:35 PM 40.5°F 39.9°F / 41.5°F 36.9°F / 49.1°F 29.62 inHg 43% 0.02″
12/17/2016 12:35 PM 39.6°F 37.8°F / 39.6°F 36.9°F / 49.1°F 29.59 inHg 66% 0.02″
12/17/2016 11:35 AM 36.9°F 36.9°F / 39.9°F 36.9°F / 49.1°F 29.58 inHg 90% 0.02″
12/17/2016 10:35 AM 40.5°F 40.5°F / 42.6°F 40.5°F / 49.1°F 29.54 inHg 77% 0.00″
12/17/2016 09:34 AM 46.8°F 45.9°F / 46.8°F 45.7°F / 49.1°F 29.47 inHg 60% 0.00″
12/17/2016 09:18 AM 46.0°F 45.9°F / 46.0°F 45.7°F / 49.1°F 0.00 inHg 62% 0.00″
09/25/2016 06:41 AM 56.3°F 56.3°F / 56.8°F 47.8°F / 57.0°F 29.92 inHg 37% 0.00″
09/25/2016 05:41 AM 56.8°F 55.9°F / 56.8°F 47.8°F / 56.8°F 29.91 inHg 36% 0.00″
09/25/2016 04:41 AM 55.4°F 48.4°F / 55.4°F 47.8°F / 55.4°F 29.90 inHg 39% 0.00″
09/25/2016 03:41 AM 48.4°F 47.8°F / 48.6°F 47.8°F / 54.1°F 29.87 inHg 64% 0.00″
09/25/2016 02:41 AM 48.6°F 48.6°F / 49.8°F 48.6°F / 54.1°F 29.87 inHg 64% 0.00″
09/25/2016 01:41 AM 49.8°F 49.8°F / 53.2°F 49.8°F / 54.1°F 29.86 inHg 64% 0.00″
09/25/2016 12:41 AM 51.4°F 51.4°F / 54.1°F 51.4°F / 54.1°F 29.85 inHg 62% 0.00″
09/24/2016 11:41 PM 53.8°F 50.7°F / 53.8°F 49.8°F / 68.2°F 29.86 inHg 57% 0.00″
09/24/2016 10:40 PM 52.3°F 52.3°F / 54.3°F 49.8°F / 68.2°F 29.86 inHg 59% 0.00″
09/24/2016 09:40 PM 54.3°F 54.0°F / 55.8°F 49.8°F / 68.2°F 29.85 inHg 56% 0.00″
09/24/2016 08:40 PM 53.6°F 53.6°F / 56.7°F 49.8°F / 68.2°F 29.83 inHg 57% 0.00″
09/24/2016 07:40 PM 57.4°F 57.2°F / 59.0°F 49.8°F / 68.2°F 29.80 inHg 50% 0.00″
09/24/2016 06:40 PM 62.4°F 62.4°F / 65.8°F 49.8°F / 68.2°F 29.78 inHg 41% 0.00″
09/24/2016 05:40 PM 0.0°F 66.4°F / 67.3°F 49.8°F / 68.2°F 29.78 inHg 0% 0.00″
09/24/2016 04:39 PM 67.3°F 67.3°F / 68.2°F 49.8°F / 68.2°F 29.77 inHg 35% 0.00″
09/24/2016 03:38 PM 67.6°F 66.0°F / 67.6°F 49.8°F / 67.6°F 29.77 inHg 38% 0.00″
09/24/2016 02:38 PM 65.5°F 65.5°F / 66.7°F 49.8°F / 66.7°F 29.78 inHg 39% 0.00″
09/24/2016 01:38 PM 65.5°F 63.3°F / 65.8°F 49.8°F / 65.8°F 29.81 inHg 42% 0.00″
09/24/2016 12:38 PM 65.7°F 64.0°F / 65.7°F 49.8°F / 65.7°F 29.82 inHg 43% 0.00″
09/24/2016 11:38 AM 63.5°F 62.1°F / 63.5°F 49.8°F / 63.5°F 29.82 inHg 50% 0.00″
09/24/2016 10:38 AM 61.5°F 59.4°F / 61.5°F 49.8°F / 61.5°F 29.82 inHg 53% 0.00″
09/24/2016 09:38 AM 58.8°F 56.1°F / 58.8°F 49.8°F / 58.8°F 29.81 inHg 61% 0.00″
09/24/2016 08:38 AM 52.5°F 50.7°F / 52.5°F 49.8°F / 56.7°F 29.81 inHg 75% 0.00″
09/24/2016 07:38 AM 50.4°F 50.0°F / 50.5°F 50.0°F / 56.7°F 29.81 inHg 76% 0.00″
09/24/2016 06:38 AM 50.7°F 50.7°F / 53.2°F 50.7°F / 56.7°F 29.79 inHg 74% 0.00″
09/24/2016 05:38 AM 53.8°F 53.8°F / 55.2°F 52.7°F / 56.7°F 29.78 inHg 67% 0.00″
09/24/2016 04:38 AM 54.0°F 53.4°F / 54.1°F 52.7°F / 56.7°F 29.76 inHg 66% 0.00″
09/24/2016 03:38 AM 53.8°F 52.9°F / 53.8°F 52.7°F / 56.7°F 29.75 inHg 66% 0.00″
09/24/2016 02:38 AM 53.1°F 52.7°F / 53.6°F 52.7°F / 56.7°F 29.75 inHg 67% 0.00″
09/24/2016 01:38 AM 53.8°F 53.8°F / 54.7°F 53.8°F / 56.7°F 29.73 inHg 63% 0.00″
09/24/2016 12:38 AM 55.2°F 54.7°F / 56.7°F 54.7°F / 56.7°F 29.73 inHg 57% 0.00″
09/23/2016 11:38 PM 57.7°F 57.6°F / 58.6°F 57.4°F / 74.1°F 29.72 inHg 49% 0.00″
09/23/2016 10:38 PM 57.9°F 57.9°F / 59.7°F 57.4°F / 74.1°F 29.71 inHg 46% 0.00″
09/23/2016 09:37 PM 60.4°F 60.4°F / 61.9°F 57.4°F / 74.1°F 29.70 inHg 41% 0.00″
09/23/2016 08:37 PM 62.6°F 62.4°F / 64.0°F 57.4°F / 74.1°F 29.69 inHg 38% 0.00″
09/23/2016 07:37 PM 64.6°F 64.6°F / 66.4°F 57.4°F / 74.1°F 29.66 inHg 38% 0.00″
09/23/2016 06:37 PM 68.5°F 68.5°F / 71.2°F 57.4°F / 74.1°F 29.65 inHg 30% 0.00″
09/23/2016 05:37 PM 72.7°F 72.7°F / 73.0°F 57.4°F / 74.1°F 29.63 inHg 25% 0.00″
09/23/2016 04:37 PM 73.8°F 72.1°F / 73.9°F 57.4°F / 74.1°F 29.62 inHg 22% 0.00″
09/23/2016 03:37 PM 73.8°F 73.0°F / 73.8°F 57.4°F / 73.8°F 29.62 inHg 27% 0.00″
09/23/2016 02:37 PM 72.3°F 71.2°F / 72.5°F 57.4°F / 73.2°F 29.62 inHg 30% 0.00″
09/23/2016 01:37 PM 72.0°F 70.7°F / 72.3°F 57.4°F / 72.3°F 29.65 inHg 32% 0.00″
09/23/2016 12:37 PM 70.5°F 67.5°F / 70.5°F 57.4°F / 70.5°F 29.67 inHg 31% 0.00″
09/23/2016 11:37 AM 69.4°F 66.2°F / 70.2°F 57.4°F / 70.2°F 29.67 inHg 32% 0.00″
09/23/2016 10:37 AM 66.2°F 64.2°F / 66.2°F 57.4°F / 66.6°F 29.68 inHg 47% 0.00″
09/23/2016 09:36 AM 63.9°F 61.7°F / 63.9°F 57.4°F / 66.6°F 29.68 inHg 55% 0.00″
09/23/2016 08:36 AM 61.7°F 57.6°F / 61.7°F 57.4°F / 66.6°F 29.67 inHg 59% 0.00″
09/23/2016 07:36 AM 58.3°F 57.4°F / 59.0°F 57.4°F / 66.6°F 29.66 inHg 67% 0.00″
09/23/2016 06:36 AM 58.1°F 58.1°F / 59.4°F 58.1°F / 66.6°F 29.65 inHg 67% 0.00″
09/23/2016 05:36 AM 61.0°F 61.0°F / 62.8°F 61.0°F / 66.6°F 29.64 inHg 60% 0.00″
09/23/2016 04:36 AM 64.2°F 64.2°F / 65.5°F 64.2°F / 66.6°F 29.63 inHg 51% 0.00″
09/23/2016 03:36 AM 65.7°F 65.7°F / 66.0°F 64.8°F / 66.6°F 29.63 inHg 48% 0.00″
09/23/2016 02:36 AM 65.8°F 64.8°F / 65.8°F 64.8°F / 66.6°F 29.65 inHg 47% 0.00″
09/23/2016 01:36 AM 65.1°F 64.9°F / 65.8°F 64.9°F / 66.6°F 29.64 inHg 46% 0.00″
09/23/2016 12:35 AM 66.2°F 66.2°F / 66.6°F 66.2°F / 66.6°F 29.65 inHg 45% 0.00″
09/22/2016 11:35 PM 66.4°F 66.4°F / 66.9°F 58.1°F / 79.2°F 29.65 inHg 47% 0.00″
09/22/2016 10:35 PM 67.3°F 67.3°F / 67.5°F 58.1°F / 79.2°F 29.65 inHg 44% 0.00″
09/22/2016 09:35 PM 67.6°F 67.6°F / 68.0°F 58.1°F / 79.2°F 29.65 inHg 47% 0.00″
09/22/2016 08:35 PM 68.2°F 67.5°F / 68.2°F 58.1°F / 79.2°F 29.65 inHg 48% 0.00″
09/22/2016 07:35 PM 68.5°F 68.4°F / 70.3°F 58.1°F / 79.2°F 29.64 inHg 47% 0.00″
09/22/2016 06:35 PM 73.9°F 73.9°F / 75.4°F 58.1°F / 79.2°F 29.64 inHg 40% 0.00″
09/22/2016 05:35 PM 72.7°F 72.7°F / 72.7°F 58.1°F / 79.2°F 0.00 inHg 40% 0.00″
09/22/2016 04:22 PM 79.3°F 74.1°F / 79.3°F 58.1°F / 79.3°F 29.64 inHg 43% 0.00″
09/22/2016 03:22 PM 79.2°F 76.8°F / 79.2°F 58.1°F / 79.2°F 29.65 inHg 37% 0.00″
09/22/2016 02:22 PM 78.1°F 76.6°F / 78.1°F 58.1°F / 78.1°F 29.68 inHg 39% 0.00″
09/22/2016 01:22 PM 77.2°F 76.5°F / 77.2°F 58.1°F / 77.2°F 29.71 inHg 41% 0.00″
09/22/2016 12:22 PM 75.7°F 74.8°F / 75.7°F 58.1°F / 75.7°F 29.73 inHg 42% 0.00″
09/22/2016 11:22 AM 74.1°F 73.6°F / 74.3°F 58.1°F / 74.3°F 29.74 inHg 42% 0.00″
09/22/2016 10:22 AM 72.1°F 71.1°F / 72.1°F 58.1°F / 72.1°F 29.76 inHg 46% 0.00″
09/22/2016 09:21 AM 68.9°F 64.9°F / 68.9°F 58.1°F / 68.9°F 29.75 inHg 50% 0.00″
09/22/2016 08:21 AM 60.4°F 59.5°F / 60.4°F 58.1°F / 63.1°F 29.75 inHg 65% 0.00″
09/22/2016 07:21 AM 58.6°F 58.1°F / 58.8°F 58.1°F / 63.1°F 29.75 inHg 68% 0.00″
09/22/2016 06:21 AM 59.2°F 59.2°F / 60.3°F 59.2°F / 63.1°F 29.73 inHg 67% 0.00″
09/22/2016 05:21 AM 59.9°F 59.9°F / 60.4°F 59.4°F / 63.1°F 29.73 inHg 68% 0.00″
09/22/2016 04:21 AM 60.8°F 60.8°F / 61.7°F 59.5°F / 63.1°F 29.73 inHg 67% 0.00″
09/22/2016 03:21 AM 59.7°F 59.5°F / 60.1°F 59.5°F / 63.1°F 29.74 inHg 70% 0.00″
09/22/2016 02:20 AM 61.5°F 60.6°F / 61.5°F 59.5°F / 63.1°F 29.74 inHg 68% 0.00″
09/22/2016 01:19 AM 60.4°F 59.5°F / 60.4°F 59.5°F / 63.1°F 29.74 inHg 70% 0.00″
09/22/2016 12:19 AM 62.8°F 62.8°F / 63.1°F 62.8°F / 63.1°F 29.75 inHg 68% 0.00″
09/21/2016 11:19 PM 66.6°F 66.4°F / 66.6°F 60.1°F / 79.9°F 29.75 inHg 60% 0.00″
09/21/2016 10:19 PM 66.9°F 66.7°F / 66.9°F 60.1°F / 79.9°F 29.75 inHg 60% 0.00″
09/21/2016 09:19 PM 66.7°F 66.7°F / 67.1°F 60.1°F / 79.9°F 29.74 inHg 57% 0.00″
09/21/2016 08:19 PM 68.4°F 67.6°F / 68.4°F 60.1°F / 79.9°F 29.73 inHg 54% 0.00″
09/21/2016 07:19 PM 67.6°F 67.6°F / 68.2°F 60.1°F / 79.9°F 29.73 inHg 61% 0.00″
09/21/2016 06:19 PM 69.6°F 69.6°F / 71.4°F 60.1°F / 79.9°F 29.73 inHg 59% 0.00″
09/21/2016 05:19 PM 78.4°F 77.4°F / 78.4°F 60.1°F / 79.9°F 29.72 inHg 41% 0.00″
09/21/2016 04:19 PM 76.5°F 76.5°F / 78.3°F 60.1°F / 79.9°F 29.73 inHg 44% 0.00″
09/21/2016 03:19 PM 79.0°F 78.8°F / 79.3°F 60.1°F / 79.3°F 29.73 inHg 39% 0.00″
09/21/2016 02:19 PM 79.2°F 77.2°F / 79.2°F 60.1°F / 79.2°F 29.74 inHg 38% 0.00″
09/21/2016 01:19 PM 77.5°F 77.0°F / 77.5°F 60.1°F / 77.5°F 29.77 inHg 44% 0.00″
09/21/2016 12:19 PM 75.2°F 75.2°F / 75.9°F 60.1°F / 75.9°F 29.79 inHg 48% 0.00″
09/21/2016 11:19 AM 74.5°F 73.6°F / 74.5°F 60.1°F / 74.5°F 29.81 inHg 53% 0.00″
09/21/2016 10:19 AM 73.6°F 72.9°F / 73.6°F 60.1°F / 73.6°F 29.82 inHg 51% 0.00″
09/21/2016 09:19 AM 66.9°F 65.1°F / 66.9°F 60.1°F / 66.9°F 29.83 inHg 65% 0.00″
09/21/2016 08:19 AM 60.4°F 60.1°F / 60.4°F 60.1°F / 65.8°F 29.82 inHg 71% 0.00″
09/21/2016 07:19 AM 60.8°F 60.8°F / 62.1°F 60.8°F / 65.8°F 29.81 inHg 68% 0.00″
09/21/2016 06:19 AM 62.2°F 61.9°F / 62.2°F 61.9°F / 65.8°F 29.80 inHg 64% 0.00″
09/21/2016 05:19 AM 62.2°F 62.2°F / 62.4°F 62.2°F / 65.8°F 29.79 inHg 63% 0.00″
09/21/2016 04:19 AM 62.4°F 62.4°F / 62.6°F 62.4°F / 65.8°F 29.79 inHg 61% 0.00″
09/21/2016 03:18 AM 64.2°F 64.2°F / 65.5°F 64.0°F / 65.8°F 29.79 inHg 59% 0.00″
09/21/2016 02:18 AM 65.7°F 64.6°F / 65.7°F 64.0°F / 65.7°F 29.79 inHg 58% 0.00″
09/21/2016 01:18 AM 64.6°F 64.6°F / 64.8°F 64.6°F / 65.5°F 29.81 inHg 61% 0.00″
09/21/2016 12:18 AM 65.1°F 65.1°F / 65.5°F 65.1°F / 65.5°F 29.82 inHg 58% 0.00″
09/20/2016 11:18 PM 65.8°F 65.7°F / 66.2°F 61.0°F / 78.1°F 29.82 inHg 56% 0.00″
09/20/2016 10:18 PM 66.7°F 66.7°F / 66.7°F 61.0°F / 78.1°F 29.83 inHg 56% 0.00″
09/20/2016 09:18 PM 67.1°F 67.1°F / 67.3°F 61.0°F / 78.1°F 29.83 inHg 58% 0.00″
09/20/2016 08:18 PM 66.9°F 66.7°F / 66.9°F 61.0°F / 78.1°F 29.82 inHg 57% 0.00″
09/20/2016 07:18 PM 67.6°F 67.6°F / 68.2°F 61.0°F / 78.1°F 29.80 inHg 59% 0.00″
09/20/2016 06:18 PM 70.9°F 70.9°F / 71.8°F 61.0°F / 78.1°F 29.80 inHg 58% 0.00″
09/20/2016 05:17 PM 73.6°F 73.6°F / 73.8°F 61.0°F / 78.1°F 29.80 inHg 50% 0.00″
09/20/2016 04:17 PM 73.4°F 73.4°F / 73.6°F 61.0°F / 78.1°F 29.79 inHg 50% 0.00″
09/20/2016 03:17 PM 74.7°F 74.7°F / 74.8°F 61.0°F / 78.1°F 29.80 inHg 48% 0.00″
09/20/2016 02:17 PM 76.1°F 75.7°F / 76.3°F 61.0°F / 78.1°F 29.82 inHg 46% 0.00″
09/20/2016 01:17 PM 77.0°F 77.0°F / 77.9°F 61.0°F / 78.1°F 29.83 inHg 41% 0.00″
09/20/2016 12:17 PM 76.8°F 76.5°F / 77.2°F 61.0°F / 77.2°F 29.86 inHg 40% 0.00″
09/20/2016 11:17 AM 75.6°F 74.8°F / 75.9°F 61.0°F / 75.9°F 29.88 inHg 43% 0.00″
09/20/2016 10:17 AM 74.8°F 74.3°F / 74.8°F 61.0°F / 74.8°F 29.89 inHg 44% 0.00″
09/20/2016 09:17 AM 69.1°F 64.8°F / 69.1°F 61.0°F / 69.1°F 29.89 inHg 56% 0.00″
09/20/2016 08:17 AM 62.1°F 61.2°F / 62.1°F 61.0°F / 63.9°F 29.90 inHg 63% 0.00″
09/20/2016 07:17 AM 61.3°F 61.3°F / 61.7°F 61.3°F / 63.9°F 29.90 inHg 56% 0.00″
09/20/2016 06:17 AM 61.9°F 61.9°F / 62.2°F 61.9°F / 63.9°F 29.90 inHg 48% 0.00″
09/20/2016 05:17 AM 62.8°F 62.6°F / 62.8°F 62.1°F / 63.9°F 29.89 inHg 46% 0.00″
09/20/2016 04:17 AM 62.4°F 62.2°F / 62.4°F 62.1°F / 63.9°F 29.90 inHg 41% 0.00″
09/20/2016 03:16 AM 62.6°F 62.6°F / 63.0°F 62.2°F / 63.9°F 29.90 inHg 41% 0.00″
09/20/2016 02:16 AM 63.1°F 63.1°F / 63.3°F 62.2°F / 63.9°F 29.91 inHg 39% 0.00″
09/20/2016 01:16 AM 62.8°F 62.2°F / 62.8°F 62.2°F / 63.9°F 29.93 inHg 40% 0.00″
09/20/2016 12:16 AM 63.9°F 63.7°F / 63.9°F 63.7°F / 63.9°F 29.94 inHg 33% 0.00″
09/19/2016 11:16 PM 63.9°F 63.9°F / 64.0°F 52.3°F / 80.1°F 29.96 inHg 27% 0.00″
09/19/2016 10:16 PM 62.2°F 62.2°F / 64.0°F 52.3°F / 80.1°F 29.95 inHg 34% 0.00″
09/19/2016 09:15 PM 59.7°F 59.7°F / 60.1°F 52.3°F / 80.1°F 29.95 inHg 38% 0.00″
09/19/2016 08:15 PM 61.7°F 61.5°F / 61.9°F 52.3°F / 80.1°F 29.91 inHg 39% 0.00″
09/19/2016 07:15 PM 67.5°F 67.5°F / 69.8°F 52.3°F / 80.1°F 29.89 inHg 36% 0.00″
09/19/2016 06:15 PM 74.8°F 74.8°F / 77.7°F 52.3°F / 80.1°F 29.89 inHg 24% 0.00″
09/19/2016 05:15 PM 78.6°F 78.4°F / 79.2°F 52.3°F / 80.1°F 29.88 inHg 17% 0.00″
09/19/2016 04:15 PM 79.5°F 79.2°F / 79.9°F 52.3°F / 80.1°F 29.89 inHg 18% 0.00″
09/19/2016 03:15 PM 79.0°F 78.4°F / 79.2°F 52.3°F / 79.2°F 29.90 inHg 21% 0.00″
09/19/2016 02:15 PM 78.1°F 77.7°F / 78.3°F 52.3°F / 78.3°F 29.91 inHg 22% 0.00″
09/19/2016 01:15 PM 76.8°F 76.5°F / 76.8°F 52.3°F / 76.8°F 29.93 inHg 26% 0.00″
09/19/2016 12:15 PM 76.6°F 76.1°F / 76.8°F 52.3°F / 76.8°F 29.95 inHg 25% 0.00″
09/19/2016 11:15 AM 75.4°F 75.0°F / 75.4°F 52.3°F / 75.4°F 29.97 inHg 31% 0.00″
09/19/2016 10:15 AM 72.1°F 68.4°F / 72.1°F 52.3°F / 72.1°F 29.97 inHg 39% 0.00″
09/19/2016 09:15 AM 61.5°F 58.8°F / 61.5°F 52.3°F / 61.5°F 29.98 inHg 52% 0.00″
09/19/2016 08:15 AM 54.7°F 53.8°F / 54.7°F 52.3°F / 58.5°F 29.97 inHg 54% 0.00″
09/19/2016 07:15 AM 53.4°F 53.4°F / 54.7°F 52.3°F / 58.5°F 29.96 inHg 47% 0.00″
09/19/2016 06:15 AM 52.9°F 52.9°F / 53.2°F 52.9°F / 58.5°F 29.94 inHg 48% 0.00″
09/19/2016 05:15 AM 53.4°F 53.2°F / 54.3°F 53.2°F / 58.5°F 29.93 inHg 48% 0.00″
09/19/2016 04:15 AM 57.7°F 57.4°F / 58.5°F 54.1°F / 58.5°F 29.93 inHg 45% 0.00″
09/19/2016 03:15 AM 55.6°F 55.4°F / 56.1°F 54.1°F / 57.4°F 29.93 inHg 48% 0.00″
09/19/2016 02:15 AM 54.5°F 54.1°F / 54.7°F 54.1°F / 56.3°F 29.94 inHg 47% 0.00″
09/19/2016 01:15 AM 55.0°F 55.0°F / 55.6°F 54.9°F / 56.3°F 29.94 inHg 43% 0.00″
09/19/2016 12:14 AM 55.4°F 54.9°F / 55.6°F 54.9°F / 55.6°F 29.94 inHg 44% 0.00″
09/18/2016 11:14 PM 55.6°F 55.6°F / 57.0°F 51.1°F / 78.1°F 29.94 inHg 44% 0.00″
09/18/2016 10:14 PM 56.7°F 56.7°F / 57.2°F 51.1°F / 78.1°F 29.94 inHg 44% 0.00″
09/18/2016 09:14 PM 57.6°F 57.6°F / 59.2°F 51.1°F / 78.1°F 29.92 inHg 45% 0.00″
09/18/2016 08:14 PM 62.1°F 62.1°F / 63.9°F 51.1°F / 78.1°F 29.91 inHg 36% 0.00″
09/18/2016 07:14 PM 66.6°F 66.6°F / 67.8°F 51.1°F / 78.1°F 29.89 inHg 34% 0.00″
09/18/2016 06:14 PM 75.0°F 75.0°F / 75.7°F 51.1°F / 78.1°F 29.87 inHg 19% 0.00″
09/18/2016 05:14 PM 77.2°F 76.8°F / 77.5°F 51.1°F / 78.1°F 29.87 inHg 24% 0.00″
09/18/2016 04:14 PM 77.4°F 77.4°F / 78.1°F 51.1°F / 78.1°F 29.88 inHg 23% 0.00″
09/18/2016 03:14 PM 77.2°F 76.8°F / 77.4°F 51.1°F / 77.4°F 29.90 inHg 24% 0.00″
09/18/2016 02:14 PM 75.6°F 74.8°F / 75.7°F 51.1°F / 76.1°F 29.91 inHg 28% 0.00″
09/18/2016 01:14 PM 74.8°F 74.7°F / 75.2°F 51.1°F / 75.2°F 29.93 inHg 31% 0.00″
09/18/2016 12:14 PM 73.0°F 72.7°F / 73.2°F 51.1°F / 73.2°F 29.94 inHg 35% 0.00″
09/18/2016 11:14 AM 71.2°F 70.7°F / 71.2°F 51.1°F / 71.2°F 29.95 inHg 37% 0.00″
09/18/2016 10:14 AM 69.4°F 68.4°F / 69.6°F 51.1°F / 69.6°F 29.95 inHg 37% 0.00″
09/18/2016 09:14 AM 59.2°F 56.7°F / 59.2°F 51.1°F / 59.5°F 29.95 inHg 49% 0.00″
09/18/2016 08:14 AM 53.2°F 53.1°F / 53.2°F 51.1°F / 59.5°F 29.94 inHg 59% 0.00″
09/18/2016 07:13 AM 51.3°F 51.1°F / 51.3°F 51.1°F / 59.5°F 29.92 inHg 57% 0.00″
09/18/2016 06:13 AM 51.6°F 51.4°F / 51.8°F 51.4°F / 59.5°F 29.91 inHg 54% 0.00″
09/18/2016 05:13 AM 53.4°F 53.4°F / 54.0°F 53.4°F / 59.5°F 29.90 inHg 51% 0.00″
09/18/2016 04:13 AM 57.9°F 57.9°F / 59.2°F 55.2°F / 59.5°F 29.90 inHg 41% 0.00″
09/18/2016 03:13 AM 56.5°F 56.5°F / 57.6°F 55.2°F / 59.5°F 29.90 inHg 49% 0.00″
09/18/2016 02:13 AM 57.7°F 56.8°F / 57.7°F 55.2°F / 59.2°F 29.90 inHg 46% 0.00″
09/18/2016 01:13 AM 57.6°F 56.3°F / 57.6°F 55.6°F / 59.2°F 29.90 inHg 45% 0.00″
09/18/2016 12:13 AM 55.9°F 55.9°F / 56.5°F 55.9°F / 56.5°F 29.88 inHg 51% 0.00″
09/17/2016 11:13 PM 57.2°F 57.2°F / 57.7°F 51.3°F / 74.8°F 29.88 inHg 53% 0.00″
09/17/2016 10:13 PM 59.0°F 57.4°F / 59.0°F 51.3°F / 74.8°F 29.88 inHg 52% 0.00″
09/17/2016 09:13 PM 57.9°F 56.5°F / 57.9°F 51.3°F / 74.8°F 29.87 inHg 58% 0.00″
09/17/2016 08:13 PM 59.4°F 59.4°F / 60.6°F 51.3°F / 74.8°F 29.86 inHg 65% 0.00″
09/17/2016 07:13 PM 65.3°F 65.3°F / 67.6°F 51.3°F / 74.8°F 29.83 inHg 49% 0.00″
09/17/2016 06:13 PM 72.9°F 72.9°F / 73.9°F 51.3°F / 74.8°F 29.83 inHg 38% 0.00″
09/17/2016 05:13 PM 73.8°F 73.8°F / 74.1°F 51.3°F / 74.8°F 29.84 inHg 43% 0.00″
09/17/2016 04:13 PM 74.7°F 74.1°F / 74.7°F 51.3°F / 74.7°F 29.84 inHg 42% 0.00″
09/17/2016 03:13 PM 73.9°F 73.2°F / 73.9°F 51.3°F / 73.9°F 29.86 inHg 41% 0.00″
09/17/2016 02:13 PM 72.5°F 72.1°F / 72.9°F 51.3°F / 72.9°F 29.87 inHg 45% 0.00″
09/17/2016 01:13 PM 71.2°F 71.1°F / 71.8°F 51.3°F / 71.8°F 29.89 inHg 50% 0.00″
09/17/2016 12:13 PM 70.9°F 70.5°F / 70.9°F 51.3°F / 70.9°F 29.89 inHg 42% 0.00″
09/17/2016 11:13 AM 68.4°F 67.1°F / 68.5°F 51.3°F / 68.5°F 29.89 inHg 62% 0.00″
09/17/2016 10:12 AM 66.6°F 66.4°F / 66.7°F 51.3°F / 66.7°F 29.90 inHg 64% 0.00″
09/17/2016 09:12 AM 64.2°F 61.2°F / 64.2°F 51.3°F / 64.2°F 29.90 inHg 66% 0.00″
09/17/2016 08:12 AM 53.8°F 53.2°F / 53.8°F 51.3°F / 56.8°F 29.90 inHg 72% 0.00″
09/17/2016 07:12 AM 54.9°F 54.9°F / 55.2°F 51.3°F / 56.8°F 29.89 inHg 60% 0.00″
09/17/2016 06:12 AM 54.0°F 54.0°F / 54.1°F 51.3°F / 56.8°F 29.88 inHg 53% 0.00″
09/17/2016 05:12 AM 52.5°F 52.5°F / 53.6°F 51.3°F / 56.8°F 29.87 inHg 52% 0.00″
09/17/2016 04:12 AM 54.9°F 54.9°F / 55.6°F 51.3°F / 56.8°F 29.87 inHg 43% 0.00″
09/17/2016 03:12 AM 56.5°F 56.5°F / 56.8°F 51.3°F / 56.8°F 29.88 inHg 39% 0.00″
09/17/2016 02:12 AM 54.3°F 51.6°F / 54.3°F 51.3°F / 56.1°F 29.88 inHg 47% 0.00″
09/17/2016 01:12 AM 53.6°F 53.6°F / 55.2°F 52.9°F / 56.1°F 29.88 inHg 47% 0.00″
09/17/2016 12:11 AM 53.4°F 52.9°F / 53.4°F 52.9°F / 53.4°F 29.87 inHg 45% 0.00″
09/16/2016 11:11 PM 55.9°F 55.9°F / 57.4°F 50.7°F / 73.8°F 29.88 inHg 46% 0.01″
09/16/2016 10:10 PM 56.3°F 54.5°F / 56.3°F 50.7°F / 73.8°F 29.86 inHg 41% 0.01″
09/16/2016 09:10 PM 54.0°F 54.0°F / 54.7°F 50.7°F / 73.8°F 29.86 inHg 49% 0.01″
09/16/2016 08:10 PM 57.4°F 57.4°F / 58.3°F 50.7°F / 73.8°F 29.84 inHg 49% 0.01″
09/16/2016 07:10 PM 64.2°F 64.2°F / 66.9°F 50.7°F / 73.8°F 29.82 inHg 35% 0.01″
09/16/2016 06:10 PM 71.4°F 71.2°F / 71.4°F 50.7°F / 73.8°F 29.82 inHg 25% 0.01″
09/16/2016 05:10 PM 72.7°F 72.7°F / 73.0°F 50.7°F / 73.8°F 29.82 inHg 27% 0.01″
09/16/2016 04:09 PM 73.4°F 73.2°F / 73.8°F 50.7°F / 73.8°F 29.82 inHg 29% 0.01″
09/16/2016 03:09 PM 72.5°F 72.1°F / 72.5°F 50.7°F / 72.5°F 29.82 inHg 38% 0.01″
09/16/2016 02:09 PM 71.6°F 71.1°F / 71.6°F 50.7°F / 71.6°F 29.84 inHg 45% 0.01″
09/16/2016 01:09 PM 70.9°F 70.3°F / 70.9°F 50.7°F / 70.9°F 29.86 inHg 50% 0.01″
09/16/2016 12:09 PM 68.9°F 68.9°F / 69.4°F 50.7°F / 69.6°F 29.87 inHg 52% 0.01″
09/16/2016 11:09 AM 68.7°F 68.2°F / 68.7°F 50.7°F / 68.7°F 29.87 inHg 61% 0.01″
09/16/2016 10:09 AM 66.6°F 65.8°F / 66.6°F 50.7°F / 66.6°F 29.87 inHg 63% 0.01″
09/16/2016 09:09 AM 57.0°F 55.8°F / 57.0°F 50.7°F / 57.0°F 29.88 inHg 87% 0.01″
09/16/2016 08:09 AM 54.5°F 54.3°F / 54.7°F 50.7°F / 54.9°F 29.86 inHg 84% 0.01″
09/16/2016 07:09 AM 51.1°F 50.7°F / 51.1°F 50.7°F / 54.9°F 29.84 inHg 94% 0.01″
09/16/2016 06:09 AM 51.6°F 51.6°F / 51.8°F 51.6°F / 54.9°F 29.83 inHg 94% 0.01″
09/16/2016 05:09 AM 52.2°F 52.2°F / 52.5°F 51.6°F / 54.9°F 29.82 inHg 93% 0.01″
09/16/2016 04:09 AM 51.8°F 51.6°F / 51.8°F 51.6°F / 54.9°F 29.81 inHg 94% 0.01″
09/16/2016 03:09 AM 52.3°F 52.3°F / 53.1°F 52.3°F / 54.9°F 29.82 inHg 92% 0.00″
09/16/2016 02:08 AM 54.0°F 54.0°F / 54.0°F 52.9°F / 54.0°F 29.81 inHg 93% 0.00″
09/16/2016 01:08 AM 53.2°F 53.1°F / 53.2°F 52.9°F / 53.8°F 29.82 inHg 94% 0.00″
09/16/2016 12:08 AM 53.6°F 53.6°F / 53.8°F 53.6°F / 53.8°F 29.83 inHg 94% 0.00″
09/15/2016 11:08 PM 54.1°F 54.1°F / 54.3°F 50.4°F / 74.3°F 29.82 inHg 94% 0.98″
09/15/2016 10:08 PM 56.1°F 56.1°F / 57.0°F 50.4°F / 74.3°F 29.82 inHg 88% 0.98″
09/15/2016 09:08 PM 57.9°F 57.7°F / 57.9°F 50.4°F / 74.3°F 29.81 inHg 88% 0.97″
09/15/2016 08:08 PM 55.4°F 55.0°F / 55.4°F 50.4°F / 74.3°F 29.80 inHg 93% 0.97″
09/15/2016 07:08 PM 55.2°F 55.2°F / 55.4°F 50.4°F / 74.3°F 29.78 inHg 92% 0.94″
09/15/2016 06:08 PM 53.1°F 51.6°F / 53.1°F 50.4°F / 74.3°F 29.78 inHg 94% 0.94″
09/15/2016 05:08 PM 51.1°F 50.7°F / 51.1°F 50.5°F / 74.3°F 29.76 inHg 93% 0.48″
09/15/2016 04:08 PM 68.7°F 68.7°F / 69.1°F 53.8°F / 74.3°F 29.74 inHg 64% 0.03″
09/15/2016 03:08 PM 71.2°F 71.2°F / 71.8°F 53.8°F / 74.3°F 29.75 inHg 56% 0.03″
09/15/2016 02:08 PM 71.8°F 70.9°F / 71.8°F 53.8°F / 73.0°F 29.78 inHg 61% 0.03″
09/15/2016 01:08 PM 72.0°F 72.0°F / 72.0°F 53.8°F / 72.0°F 29.81 inHg 61% 0.03″
09/15/2016 12:08 PM 70.3°F 70.0°F / 70.3°F 53.8°F / 70.3°F 29.83 inHg 67% 0.03″
09/15/2016 11:08 AM 69.1°F 67.1°F / 69.1°F 53.8°F / 69.1°F 29.85 inHg 68% 0.03″
09/15/2016 10:08 AM 66.7°F 66.7°F / 67.5°F 53.8°F / 67.5°F 29.86 inHg 68% 0.03″
09/15/2016 09:08 AM 63.3°F 61.3°F / 63.3°F 53.8°F / 63.3°F 29.86 inHg 80% 0.03″
09/15/2016 08:07 AM 56.1°F 55.9°F / 56.1°F 53.8°F / 56.8°F 29.86 inHg 92% 0.03″
09/15/2016 07:07 AM 54.9°F 54.9°F / 54.9°F 53.8°F / 56.8°F 29.85 inHg 92% 0.02″
09/15/2016 06:07 AM 54.0°F 54.0°F / 54.1°F 53.8°F / 56.8°F 29.83 inHg 91% 0.02″
09/15/2016 05:07 AM 55.0°F 54.7°F / 55.0°F 53.8°F / 56.8°F 29.82 inHg 89% 0.02″
09/15/2016 04:07 AM 54.3°F 54.0°F / 54.3°F 53.8°F / 56.8°F 29.82 inHg 93% 0.02″
09/15/2016 03:07 AM 54.3°F 54.3°F / 54.3°F 54.3°F / 56.8°F 29.83 inHg 93% 0.02″
09/15/2016 02:07 AM 55.2°F 55.2°F / 55.6°F 55.2°F / 56.8°F 29.83 inHg 93% 0.02″
09/15/2016 01:07 AM 56.7°F 56.7°F / 56.8°F 56.3°F / 56.8°F 29.85 inHg 92% 0.02″
09/15/2016 12:07 AM 56.7°F 56.7°F / 56.8°F 56.7°F / 56.8°F 29.86 inHg 88% 0.02″
09/14/2016 11:07 PM 60.4°F 60.3°F / 60.4°F 55.8°F / 76.3°F 29.86 inHg 71% 0.01″
09/14/2016 10:07 PM 58.8°F 58.6°F / 58.8°F 55.8°F / 76.3°F 29.86 inHg 78% 0.01″
09/14/2016 09:07 PM 64.9°F 64.8°F / 64.9°F 55.8°F / 76.3°F 29.86 inHg 55% 0.00″
09/14/2016 08:07 PM 64.6°F 64.6°F / 64.9°F 55.8°F / 76.3°F 29.84 inHg 49% 0.00″
09/14/2016 07:06 PM 66.6°F 66.6°F / 66.7°F 55.8°F / 76.3°F 29.83 inHg 50% 0.00″
09/14/2016 06:06 PM 69.4°F 69.4°F / 70.3°F 55.8°F / 76.3°F 29.83 inHg 49% 0.00″
09/14/2016 05:06 PM 73.4°F 73.4°F / 74.8°F 55.8°F / 76.3°F 29.83 inHg 39% 0.00″
09/14/2016 04:06 PM 73.0°F 73.0°F / 74.1°F 55.8°F / 76.3°F 29.84 inHg 39% 0.00″
09/14/2016 03:06 PM 75.4°F 75.4°F / 75.6°F 55.8°F / 75.6°F 29.86 inHg 35% 0.00″
09/14/2016 02:06 PM 73.2°F 73.2°F / 73.9°F 55.8°F / 74.7°F 29.88 inHg 38% 0.00″
09/14/2016 01:06 PM 71.8°F 71.4°F / 72.1°F 55.8°F / 73.8°F 29.90 inHg 37% 0.00″
09/14/2016 12:06 PM 72.9°F 72.9°F / 73.2°F 55.8°F / 73.2°F 29.93 inHg 40% 0.00″
09/14/2016 11:06 AM 71.2°F 71.2°F / 71.6°F 55.8°F / 71.6°F 29.94 inHg 46% 0.00″
09/14/2016 10:06 AM 69.6°F 69.4°F / 69.6°F 55.8°F / 69.6°F 29.95 inHg 45% 0.00″
09/14/2016 09:06 AM 64.8°F 64.0°F / 64.8°F 55.8°F / 64.8°F 29.94 inHg 52% 0.00″
09/14/2016 08:06 AM 57.6°F 57.6°F / 57.7°F 55.8°F / 60.3°F 29.94 inHg 65% 0.00″
09/14/2016 07:06 AM 55.9°F 55.8°F / 55.9°F 55.8°F / 60.3°F 29.92 inHg 64% 0.00″
09/14/2016 06:06 AM 58.5°F 58.5°F / 59.0°F 57.9°F / 60.3°F 29.91 inHg 57% 0.00″
09/14/2016 05:06 AM 58.5°F 58.3°F / 58.5°F 57.9°F / 60.3°F 29.91 inHg 55% 0.00″
09/14/2016 04:05 AM 59.0°F 58.8°F / 59.0°F 57.9°F / 60.3°F 29.90 inHg 53% 0.00″
09/14/2016 03:05 AM 58.3°F 58.3°F / 58.3°F 58.3°F / 60.3°F 29.90 inHg 54% 0.00″
09/14/2016 02:05 AM 58.5°F 58.5°F / 58.5°F 58.5°F / 60.3°F 29.91 inHg 59% 0.00″
09/14/2016 01:05 AM 59.2°F 59.2°F / 59.4°F 59.2°F / 60.3°F 29.90 inHg 69% 0.00″
09/14/2016 12:05 AM 60.1°F 60.1°F / 60.3°F 60.1°F / 60.3°F 29.90 inHg 74% 0.00″
09/13/2016 11:05 PM 60.3°F 60.3°F / 60.4°F 51.4°F / 73.9°F 29.91 inHg 73% 0.01″
09/13/2016 10:05 PM 61.2°F 61.2°F / 61.3°F 51.4°F / 73.9°F 29.91 inHg 69% 0.01″
09/13/2016 09:05 PM 61.2°F 61.0°F / 61.2°F 51.4°F / 73.9°F 29.90 inHg 59% 0.01″
09/13/2016 08:05 PM 61.9°F 61.9°F / 61.9°F 51.4°F / 73.9°F 29.87 inHg 50% 0.01″
09/13/2016 07:04 PM 64.8°F 64.8°F / 66.2°F 51.4°F / 73.9°F 29.83 inHg 48% 0.01″
09/13/2016 06:04 PM 72.0°F 72.0°F / 72.3°F 51.4°F / 73.9°F 29.82 inHg 34% 0.01″
09/13/2016 05:04 PM 73.0°F 73.0°F / 73.0°F 51.4°F / 73.9°F 29.81 inHg 38% 0.01″
09/13/2016 04:04 PM 73.4°F 73.2°F / 73.6°F 51.4°F / 73.9°F 29.81 inHg 37% 0.01″
09/13/2016 03:04 PM 72.1°F 72.1°F / 72.7°F 51.4°F / 72.7°F 29.81 inHg 44% 0.01″
09/13/2016 02:04 PM 70.9°F 70.2°F / 70.9°F 51.4°F / 70.9°F 29.83 inHg 54% 0.01″
09/13/2016 01:04 PM 69.4°F 69.1°F / 69.6°F 51.4°F / 70.0°F 29.84 inHg 54% 0.01″
09/13/2016 12:04 PM 66.7°F 66.7°F / 66.7°F 51.4°F / 67.5°F 29.85 inHg 64% 0.01″
09/13/2016 11:04 AM 64.9°F 64.8°F / 64.9°F 51.4°F / 65.7°F 29.86 inHg 64% 0.01″
09/13/2016 10:04 AM 65.5°F 65.5°F / 65.7°F 51.4°F / 65.7°F 29.85 inHg 55% 0.01″
09/13/2016 09:04 AM 58.5°F 58.5°F / 58.8°F 51.4°F / 58.8°F 29.84 inHg 76% 0.01″
09/13/2016 08:04 AM 52.9°F 52.9°F / 52.9°F 51.4°F / 56.5°F 29.84 inHg 83% 0.00″
09/13/2016 07:04 AM 51.6°F 51.4°F / 51.6°F 51.4°F / 56.5°F 29.82 inHg 84% 0.00″
09/13/2016 06:04 AM 53.1°F 53.1°F / 53.2°F 51.4°F / 56.5°F 29.80 inHg 82% 0.00″
09/13/2016 05:04 AM 51.6°F 51.6°F / 51.6°F 51.6°F / 56.5°F 29.77 inHg 85% 0.00″
09/13/2016 04:04 AM 52.9°F 52.9°F / 53.1°F 52.9°F / 56.5°F 29.75 inHg 83% 0.00″
09/13/2016 03:04 AM 55.9°F 55.8°F / 55.9°F 54.1°F / 56.5°F 29.75 inHg 77% 0.00″
09/13/2016 02:04 AM 54.9°F 54.9°F / 54.9°F 54.9°F / 56.5°F 29.75 inHg 79% 0.00″
09/13/2016 01:03 AM 56.5°F 56.5°F / 56.5°F 55.0°F / 56.5°F 29.76 inHg 76% 0.00″
09/13/2016 12:03 AM 55.0°F 55.0°F / 55.0°F 55.0°F / 55.0°F 29.78 inHg 86% 0.00″
09/12/2016 11:03 PM 56.3°F 56.3°F / 56.5°F 56.3°F / 76.3°F 29.80 inHg 88% 0.04″
09/12/2016 10:03 PM 62.8°F 62.8°F / 63.0°F 56.5°F / 76.3°F 29.77 inHg 64% 0.00″
09/12/2016 09:03 PM 64.8°F 64.8°F / 64.9°F 56.5°F / 76.3°F 29.74 inHg 55% 0.00″
09/12/2016 08:02 PM 65.7°F 65.7°F / 65.7°F 56.5°F / 76.3°F 29.71 inHg 49% 0.00″
09/12/2016 07:02 PM 67.5°F 67.5°F / 67.6°F 56.5°F / 76.3°F 29.69 inHg 51% 0.00″
09/12/2016 06:02 PM 73.6°F 73.6°F / 73.8°F 56.5°F / 76.3°F 29.69 inHg 37% 0.00″
09/12/2016 05:02 PM 75.6°F 75.6°F / 75.6°F 56.5°F / 76.3°F 29.69 inHg 35% 0.00″
09/12/2016 04:02 PM 75.0°F 74.8°F / 75.0°F 56.5°F / 75.6°F 29.70 inHg 35% 0.00″
09/12/2016 03:02 PM 74.8°F 74.8°F / 75.0°F 56.5°F / 75.6°F 29.70 inHg 43% 0.00″
09/12/2016 02:02 PM 73.8°F 73.8°F / 73.9°F 56.5°F / 74.1°F 29.73 inHg 46% 0.00″
09/12/2016 01:02 PM 73.2°F 73.2°F / 73.2°F 56.5°F / 73.2°F 29.75 inHg 50% 0.00″
09/12/2016 12:02 PM 71.8°F 71.8°F / 71.8°F 56.5°F / 71.8°F 29.78 inHg 48% 0.00″
09/12/2016 11:02 AM 68.4°F 68.4°F / 68.5°F 56.5°F / 69.3°F 29.81 inHg 54% 0.00″
09/12/2016 10:01 AM 67.8°F 67.8°F / 67.8°F 56.5°F / 67.8°F 29.81 inHg 59% 0.00″
09/12/2016 09:01 AM 62.2°F 61.9°F / 62.2°F 56.5°F / 62.2°F 29.81 inHg 74% 0.00″
09/12/2016 08:01 AM 57.4°F 57.2°F / 57.4°F 56.5°F / 61.0°F 29.81 inHg 80% 0.00″
09/12/2016 07:01 AM 56.7°F 56.5°F / 56.7°F 56.5°F / 61.0°F 29.81 inHg 78% 0.00″
09/12/2016 06:01 AM 58.1°F 58.1°F / 58.3°F 57.7°F / 61.0°F 29.80 inHg 74% 0.00″
09/12/2016 05:01 AM 58.6°F 58.6°F / 58.6°F 57.9°F / 61.0°F 29.80 inHg 71% 0.00″
09/12/2016 04:01 AM 60.1°F 60.1°F / 60.1°F 57.9°F / 61.0°F 29.81 inHg 70% 0.00″
09/12/2016 03:01 AM 60.1°F 60.1°F / 60.1°F 57.9°F / 60.3°F 29.83 inHg 69% 0.00″
09/12/2016 02:01 AM 59.4°F 59.4°F / 59.4°F 57.9°F / 59.5°F 29.86 inHg 72% 0.00″
09/12/2016 01:01 AM 58.1°F 58.1°F / 58.1°F 57.9°F / 59.4°F 29.87 inHg 72% 0.00″
09/12/2016 12:01 AM 59.4°F 59.4°F / 59.4°F 59.4°F / 59.4°F 29.90 inHg 68% 0.00″
09/11/2016 11:01 PM 58.5°F 58.5°F / 58.5°F 50.7°F / 75.0°F 29.92 inHg 68% 0.00″
09/11/2016 10:01 PM 60.4°F 60.4°F / 60.4°F 50.7°F / 75.0°F 29.92 inHg 60% 0.00″
09/11/2016 09:01 PM 61.0°F 61.0°F / 61.0°F 50.7°F / 75.0°F 29.92 inHg 52% 0.00″
09/11/2016 08:01 PM 62.1°F 62.1°F / 62.1°F 50.7°F / 75.0°F 29.90 inHg 61% 0.00″
09/11/2016 07:00 PM 67.5°F 67.5°F / 67.5°F 50.7°F / 75.0°F 29.87 inHg 54% 0.00″
09/11/2016 06:00 PM 72.9°F 72.9°F / 72.9°F 50.7°F / 75.0°F 29.88 inHg 43% 0.00″
09/11/2016 05:00 PM 73.8°F 73.8°F / 73.8°F 50.7°F / 74.3°F 29.88 inHg 41% 0.00″
09/11/2016 04:00 PM 73.4°F 73.4°F / 73.4°F 50.7°F / 74.1°F 29.91 inHg 44% 0.00″
09/11/2016 03:00 PM 73.2°F 73.0°F / 73.2°F 50.7°F / 73.2°F 29.94 inHg 44% 0.00″
09/11/2016 02:00 PM 71.1°F 71.1°F / 71.1°F 50.7°F / 71.4°F 29.97 inHg 56% 0.00″
09/11/2016 01:00 PM 71.1°F 71.1°F / 71.1°F 50.7°F / 71.4°F 30.00 inHg 53% 0.00″
09/11/2016 12:00 PM 69.3°F 69.3°F / 69.3°F 50.7°F / 69.6°F 30.02 inHg 64% 0.00″
09/11/2016 11:00 AM 65.8°F 65.8°F / 65.8°F 50.7°F / 66.0°F 30.04 inHg 70% 0.00″
09/11/2016 10:00 AM 64.8°F 0.0°F / 0.0°F 50.7°F / 64.8°F 30.06 inHg 72% 0.00″
09/11/2016 08:59 AM 56.5°F 53.1°F / 56.5°F 50.7°F / 56.5°F 30.06 inHg 83% 0.00″
09/11/2016 07:58 AM 52.9°F 51.1°F / 53.1°F 50.7°F / 54.5°F 30.05 inHg 86% 0.00″
09/11/2016 06:56 AM 51.1°F 51.1°F / 52.9°F 50.7°F / 54.5°F 30.05 inHg 89% 0.00″
09/11/2016 05:55 AM 53.2°F 51.1°F / 53.2°F 50.7°F / 54.5°F 30.04 inHg 84% 0.00″
09/11/2016 04:54 AM 51.4°F 50.7°F / 51.6°F 50.7°F / 54.5°F 30.04 inHg 88% 0.00″
09/11/2016 03:54 AM 50.9°F 50.9°F / 52.2°F 50.9°F / 54.5°F 30.04 inHg 84% 0.00″
09/11/2016 02:54 AM 52.0°F 51.4°F / 52.3°F 51.4°F / 54.5°F 30.05 inHg 83% 0.00″
09/11/2016 01:54 AM 52.3°F 52.3°F / 53.8°F 52.3°F / 54.5°F 30.05 inHg 84% 0.00″
09/11/2016 12:51 AM 54.1°F 53.8°F / 54.5°F 53.8°F / 54.5°F 30.05 inHg 76% 0.00″
09/10/2016 11:50 PM 55.0°F 54.7°F / 56.7°F 51.3°F / 73.0°F 30.03 inHg 76% 0.00″
09/10/2016 10:45 PM 55.0°F 55.0°F / 58.3°F 51.3°F / 73.0°F 30.05 inHg 79% 0.00″
09/10/2016 09:45 PM 59.4°F 59.4°F / 59.5°F 51.3°F / 73.0°F 30.04 inHg 70% 0.00″
09/10/2016 08:45 PM 59.4°F 59.4°F / 60.4°F 51.3°F / 73.0°F 30.04 inHg 72% 0.00″
09/10/2016 07:45 PM 61.3°F 61.3°F / 66.6°F 51.3°F / 73.0°F 30.02 inHg 70% 0.00″
09/10/2016 06:45 PM 68.2°F 68.2°F / 71.1°F 51.3°F / 73.0°F 30.00 inHg 53% 0.00″
09/10/2016 05:44 PM 70.9°F 70.9°F / 72.0°F 51.3°F / 73.0°F 30.00 inHg 47% 0.00″
09/10/2016 04:42 PM 72.1°F 72.1°F / 72.1°F 51.3°F / 73.0°F 0.00 inHg 49% 0.00″
09/10/2016 02:09 PM 71.8°F 71.1°F / 72.0°F 51.3°F / 72.1°F 30.01 inHg 51% 0.00″
09/10/2016 01:09 PM 68.7°F 68.0°F / 68.7°F 51.3°F / 68.7°F 30.03 inHg 58% 0.00″
09/10/2016 12:09 PM 65.7°F 65.5°F / 65.7°F 51.3°F / 65.7°F 30.04 inHg 59% 0.00″
09/10/2016 11:08 AM 62.4°F 61.9°F / 62.4°F 51.3°F / 64.6°F 30.04 inHg 59% 0.00″
09/10/2016 10:08 AM 57.6°F 57.2°F / 57.6°F 51.3°F / 64.6°F 30.04 inHg 61% 0.00″
09/10/2016 09:07 AM 54.3°F 53.8°F / 54.3°F 51.3°F / 64.6°F 30.04 inHg 57% 0.00″
09/10/2016 08:07 AM 52.2°F 52.2°F / 52.2°F 51.3°F / 64.6°F 30.02 inHg 54% 0.00″
09/10/2016 07:03 AM 51.3°F 51.3°F / 51.3°F 51.3°F / 64.6°F 0.00 inHg 58% 0.00″
09/10/2016 06:55 AM 51.4°F 51.3°F / 51.6°F 51.3°F / 64.6°F 29.98 inHg 60% 0.00″
09/10/2016 06:26 AM 51.3°F 51.3°F / 51.6°F 51.3°F / 64.6°F 29.97 inHg 67% 0.00″
09/10/2016 05:58 AM 51.8°F 51.8°F / 53.8°F 51.8°F / 64.6°F 29.95 inHg 75% 0.00″
09/10/2016 05:39 AM 52.3°F 52.3°F / 53.8°F 52.3°F / 64.6°F 0.00 inHg 76% 0.00″
09/10/2016 05:27 AM 52.9°F 52.9°F / 53.8°F 52.9°F / 64.6°F 29.94 inHg 77% 0.00″
09/10/2016 05:09 AM 53.4°F 53.4°F / 53.8°F 53.4°F / 64.6°F 29.93 inHg 78% 0.00″
09/10/2016 03:20 AM 61.5°F 61.5°F / 63.0°F 60.4°F / 64.6°F 29.88 inHg 73% 0.00″
09/10/2016 02:20 AM 64.6°F 64.0°F / 64.6°F 60.4°F / 64.6°F 29.86 inHg 47% 0.00″
09/10/2016 01:19 AM 62.8°F 62.4°F / 62.8°F 60.4°F / 62.8°F 29.86 inHg 50% 0.00″
09/10/2016 12:19 AM 61.5°F 60.4°F / 61.5°F 60.4°F / 61.5°F 29.87 inHg 49% 0.00″
09/09/2016 11:19 PM 59.2°F 58.5°F / 59.2°F 52.2°F / 78.3°F 29.86 inHg 57% 0.01″
09/09/2016 10:19 PM 57.7°F 57.7°F / 58.3°F 52.2°F / 78.3°F 29.85 inHg 64% 0.01″
09/09/2016 09:19 PM 63.3°F 62.1°F / 63.3°F 52.2°F / 78.3°F 29.84 inHg 52% 0.01″
09/09/2016 08:19 PM 61.0°F 61.0°F / 62.6°F 52.2°F / 78.3°F 29.81 inHg 64% 0.01″
09/09/2016 07:18 PM 67.8°F 67.8°F / 69.4°F 52.2°F / 78.3°F 29.79 inHg 55% 0.01″
09/09/2016 06:18 PM 77.2°F 76.5°F / 78.1°F 52.2°F / 78.3°F 29.79 inHg 34% 0.01″
09/09/2016 05:18 PM 77.5°F 76.6°F / 78.1°F 52.2°F / 78.1°F 29.79 inHg 34% 0.01″
09/09/2016 04:18 PM 77.0°F 76.8°F / 77.2°F 52.2°F / 77.7°F 29.80 inHg 35% 0.01″
09/09/2016 03:18 PM 77.0°F 76.5°F / 77.2°F 52.2°F / 77.2°F 29.80 inHg 40% 0.01″
09/09/2016 02:18 PM 75.7°F 74.5°F / 75.7°F 52.2°F / 75.7°F 29.82 inHg 40% 0.01″
09/09/2016 01:18 PM 73.8°F 72.9°F / 73.9°F 52.2°F / 73.9°F 29.83 inHg 55% 0.01″
09/09/2016 12:18 PM 72.7°F 72.3°F / 72.9°F 52.2°F / 72.9°F 29.84 inHg 55% 0.01″
09/09/2016 11:18 AM 71.8°F 71.1°F / 71.8°F 52.2°F / 71.8°F 29.86 inHg 49% 0.01″
09/09/2016 10:18 AM 68.5°F 67.6°F / 68.5°F 52.2°F / 68.5°F 29.87 inHg 54% 0.00″
09/09/2016 09:18 AM 61.0°F 58.5°F / 61.0°F 52.2°F / 61.0°F 29.87 inHg 87% 0.00″
09/09/2016 08:18 AM 54.1°F 53.2°F / 54.1°F 52.2°F / 55.8°F 29.86 inHg 93% 0.00″
09/09/2016 07:18 AM 52.3°F 52.3°F / 52.7°F 52.2°F / 55.8°F 29.85 inHg 93% 0.00″
09/09/2016 06:18 AM 52.7°F 52.7°F / 52.9°F 52.7°F / 55.8°F 29.83 inHg 92% 0.00″
09/09/2016 05:17 AM 53.6°F 53.4°F / 54.3°F 53.1°F / 55.8°F 29.82 inHg 90% 0.00″
09/09/2016 04:17 AM 55.6°F 55.6°F / 55.8°F 53.1°F / 55.8°F 29.81 inHg 87% 0.00″
09/09/2016 03:17 AM 53.8°F 53.8°F / 54.0°F 53.1°F / 55.0°F 29.82 inHg 94% 0.00″
09/09/2016 02:17 AM 54.9°F 54.1°F / 54.9°F 53.1°F / 54.9°F 29.83 inHg 96% 0.00″
09/09/2016 01:17 AM 53.2°F 53.2°F / 53.4°F 53.2°F / 54.0°F 29.83 inHg 96% 0.00″
09/09/2016 12:16 AM 53.2°F 53.2°F / 53.6°F 53.2°F / 53.6°F 29.84 inHg 95% 0.00″
09/08/2016 11:16 PM 54.1°F 54.1°F / 54.3°F 54.1°F / 68.7°F 29.84 inHg 94% 0.07″
09/08/2016 10:16 PM 56.1°F 56.1°F / 56.7°F 56.1°F / 68.7°F 29.83 inHg 91% 0.07″
09/08/2016 09:16 PM 57.9°F 57.9°F / 57.9°F 57.9°F / 68.7°F 29.83 inHg 90% 0.07″
09/08/2016 08:16 PM 59.0°F 59.0°F / 59.5°F 58.3°F / 68.7°F 29.80 inHg 94% 0.07″
09/08/2016 07:16 PM 62.8°F 62.8°F / 64.4°F 58.3°F / 68.7°F 29.79 inHg 90% 0.07″
09/08/2016 06:16 PM 65.7°F 65.7°F / 66.4°F 58.3°F / 68.7°F 29.80 inHg 86% 0.07″
09/08/2016 05:16 PM 62.1°F 61.7°F / 62.1°F 58.3°F / 68.7°F 29.82 inHg 94% 0.07″
09/08/2016 04:15 PM 65.3°F 65.3°F / 66.6°F 58.3°F / 68.7°F 29.81 inHg 82% 0.00″
09/08/2016 03:15 PM 66.7°F 66.7°F / 68.4°F 58.3°F / 68.5°F 29.81 inHg 83% 0.00″
09/08/2016 02:15 PM 65.5°F 64.2°F / 65.7°F 58.3°F / 65.7°F 29.84 inHg 82% 0.00″
09/08/2016 01:15 PM 62.6°F 60.4°F / 62.6°F 58.3°F / 62.6°F 29.86 inHg 92% 0.00″
09/08/2016 12:15 PM 60.4°F 60.1°F / 60.4°F 58.3°F / 60.4°F 29.88 inHg 92% 0.00″
09/08/2016 11:15 AM 58.6°F 58.6°F / 59.0°F 58.3°F / 60.4°F 29.88 inHg 95% 0.00″
09/08/2016 10:15 AM 59.5°F 59.5°F / 59.7°F 58.3°F / 59.7°F 29.89 inHg 91% 0.00″
09/08/2016 09:15 AM 59.4°F 58.8°F / 59.4°F 58.3°F / 59.7°F 29.88 inHg 94% 0.00″
09/08/2016 08:15 AM 58.6°F 58.5°F / 58.6°F 58.3°F / 59.7°F 29.88 inHg 93% 0.00″
09/08/2016 07:15 AM 58.3°F 58.3°F / 58.3°F 58.3°F / 59.7°F 29.87 inHg 94% 0.00″
09/08/2016 06:15 AM 58.5°F 58.5°F / 58.6°F 58.5°F / 59.7°F 29.86 inHg 93% 0.00″
09/08/2016 05:15 AM 58.8°F 58.6°F / 58.8°F 58.6°F / 59.7°F 29.86 inHg 94% 0.00″
09/08/2016 04:15 AM 58.8°F 58.6°F / 58.8°F 58.6°F / 59.7°F 29.86 inHg 94% 0.00″
09/08/2016 03:15 AM 58.6°F 58.6°F / 58.8°F 58.6°F / 59.7°F 29.86 inHg 95% 0.00″
09/08/2016 02:14 AM 58.8°F 58.8°F / 59.0°F 58.8°F / 59.7°F 29.87 inHg 94% 0.00″
09/08/2016 01:14 AM 59.5°F 59.5°F / 59.7°F 59.5°F / 59.7°F 29.88 inHg 94% 0.00″
09/08/2016 12:14 AM 59.7°F 59.7°F / 59.7°F 59.7°F / 59.7°F 29.90 inHg 94% 0.00″
09/07/2016 11:14 PM 59.5°F 59.4°F / 59.5°F 55.9°F / 71.2°F 29.90 inHg 95% 0.83″
09/07/2016 10:14 PM 59.2°F 59.2°F / 59.2°F 55.9°F / 71.2°F 29.90 inHg 96% 0.83″
09/07/2016 09:14 PM 59.0°F 59.0°F / 59.2°F 55.9°F / 71.2°F 29.91 inHg 96% 0.83″
09/07/2016 08:14 PM 59.4°F 59.2°F / 59.4°F 55.9°F / 71.2°F 29.90 inHg 96% 0.83″
09/07/2016 07:14 PM 59.5°F 59.4°F / 59.5°F 55.9°F / 71.2°F 29.89 inHg 96% 0.82″
09/07/2016 06:14 PM 61.0°F 61.0°F / 61.3°F 55.9°F / 71.2°F 29.87 inHg 95% 0.52″
09/07/2016 05:14 PM 60.8°F 60.6°F / 60.8°F 55.9°F / 71.2°F 29.88 inHg 94% 0.51″
09/07/2016 04:14 PM 68.0°F 68.0°F / 69.3°F 55.9°F / 71.2°F 29.87 inHg 71% 0.39″
09/07/2016 02:14 PM 67.8°F 67.3°F / 68.5°F 55.9°F / 69.1°F 29.89 inHg 78% 0.39″
09/07/2016 01:14 PM 66.9°F 66.7°F / 68.4°F 55.9°F / 68.4°F 29.91 inHg 86% 0.39″
09/07/2016 12:14 PM 64.8°F 62.8°F / 64.8°F 55.9°F / 64.8°F 29.93 inHg 90% 0.39″
09/07/2016 11:14 AM 59.5°F 59.4°F / 59.7°F 55.9°F / 61.2°F 29.95 inHg 96% 0.39″
09/07/2016 10:14 AM 60.8°F 60.4°F / 61.0°F 55.9°F / 61.0°F 29.94 inHg 94% 0.39″
09/07/2016 09:14 AM 58.3°F 58.3°F / 58.8°F 55.9°F / 58.8°F 29.92 inHg 96% 0.39″
09/07/2016 08:14 AM 58.5°F 57.7°F / 58.5°F 55.9°F / 58.5°F 29.90 inHg 97% 0.39″
09/07/2016 07:13 AM 56.5°F 56.5°F / 56.5°F 55.9°F / 58.5°F 29.89 inHg 97% 0.39″
09/07/2016 06:13 AM 56.3°F 56.1°F / 56.3°F 55.9°F / 58.5°F 29.87 inHg 97% 0.39″
09/07/2016 05:13 AM 56.1°F 56.1°F / 56.1°F 56.1°F / 58.5°F 29.84 inHg 96% 0.39″
09/07/2016 04:13 AM 57.9°F 57.9°F / 58.3°F 57.9°F / 58.5°F 29.84 inHg 97% 0.34″
09/07/2016 03:13 AM 58.5°F 58.1°F / 58.5°F 58.1°F / 58.5°F 29.86 inHg 97% 0.09″
09/07/2016 02:12 AM 58.1°F 58.1°F / 58.3°F 58.1°F / 58.5°F 29.85 inHg 96% 0.00″
09/07/2016 01:12 AM 58.5°F 58.5°F / 58.5°F 58.3°F / 58.5°F 29.85 inHg 96% 0.00″
09/07/2016 12:12 AM 58.3°F 58.3°F / 58.5°F 58.3°F / 58.5°F 29.84 inHg 96% 0.00″
09/06/2016 11:12 PM 57.7°F 57.7°F / 57.7°F 57.6°F / 71.4°F 29.84 inHg 96% 1.34″
09/06/2016 10:12 PM 58.5°F 58.5°F / 58.5°F 57.6°F / 71.4°F 29.85 inHg 96% 1.34″
09/06/2016 09:12 PM 58.5°F 58.5°F / 58.6°F 57.6°F / 71.4°F 29.83 inHg 95% 1.33″
09/06/2016 08:11 PM 59.2°F 59.2°F / 59.4°F 57.6°F / 71.4°F 29.80 inHg 95% 1.33″
09/06/2016 07:11 PM 59.9°F 59.9°F / 60.3°F 57.6°F / 71.4°F 29.77 inHg 95% 1.32″
09/06/2016 06:11 PM 61.2°F 61.2°F / 61.3°F 57.6°F / 71.4°F 29.78 inHg 94% 1.27″
09/06/2016 05:11 PM 60.4°F 60.4°F / 60.4°F 57.6°F / 71.4°F 29.77 inHg 94% 1.25″
09/06/2016 04:11 PM 61.5°F 61.0°F / 61.5°F 57.6°F / 71.4°F 29.74 inHg 94% 1.13″
09/06/2016 03:11 PM 58.5°F 58.1°F / 58.6°F 57.6°F / 71.4°F 29.73 inHg 95% 0.92″
09/06/2016 02:11 PM 60.1°F 60.1°F / 60.4°F 58.5°F / 71.4°F 29.75 inHg 92% 0.45″
09/06/2016 01:11 PM 68.4°F 68.4°F / 69.1°F 58.5°F / 71.4°F 29.71 inHg 73% 0.13″
09/06/2016 12:11 PM 68.4°F 68.2°F / 68.9°F 58.5°F / 71.4°F 29.73 inHg 75% 0.13″
09/06/2016 11:11 AM 69.6°F 69.4°F / 69.6°F 58.5°F / 71.4°F 29.73 inHg 71% 0.13″
09/06/2016 10:11 AM 69.4°F 69.4°F / 70.0°F 58.5°F / 71.2°F 29.73 inHg 72% 0.13″
09/06/2016 09:11 AM 67.8°F 66.2°F / 67.8°F 58.5°F / 67.8°F 29.71 inHg 77% 0.13″
09/06/2016 08:11 AM 61.3°F 60.8°F / 61.3°F 58.5°F / 67.6°F 29.70 inHg 89% 0.13″
09/06/2016 07:11 AM 59.5°F 59.4°F / 59.5°F 58.5°F / 67.6°F 29.68 inHg 91% 0.13″
09/06/2016 06:11 AM 60.3°F 60.3°F / 60.4°F 58.5°F / 67.6°F 29.67 inHg 90% 0.13″
09/06/2016 05:10 AM 60.3°F 60.3°F / 60.4°F 58.5°F / 67.6°F 29.67 inHg 92% 0.13″
09/06/2016 04:10 AM 58.8°F 58.8°F / 59.9°F 58.8°F / 67.6°F 29.66 inHg 81% 0.06″
09/06/2016 03:10 AM 66.0°F 66.0°F / 66.2°F 64.2°F / 67.6°F 29.66 inHg 72% 0.00″
09/06/2016 02:10 AM 65.1°F 64.8°F / 65.1°F 64.4°F / 67.6°F 29.66 inHg 69% 0.00″
09/06/2016 01:10 AM 66.0°F 66.0°F / 66.9°F 66.0°F / 67.6°F 29.65 inHg 65% 0.00″
09/06/2016 12:10 AM 67.3°F 66.9°F / 67.3°F 66.9°F / 67.3°F 29.64 inHg 61% 0.00″
09/05/2016 11:10 PM 67.6°F 67.3°F / 67.6°F 62.8°F / 82.0°F 29.64 inHg 60% 0.00″
09/05/2016 10:10 PM 67.8°F 67.8°F / 68.2°F 62.8°F / 82.0°F 29.64 inHg 60% 0.00″
09/05/2016 09:10 PM 68.2°F 68.2°F / 68.4°F 62.8°F / 82.0°F 29.62 inHg 60% 0.00″
09/05/2016 08:10 PM 69.6°F 69.6°F / 70.0°F 62.8°F / 82.0°F 29.60 inHg 58% 0.00″
09/05/2016 07:10 PM 73.4°F 73.4°F / 74.5°F 62.8°F / 82.0°F 29.58 inHg 54% 0.00″
09/05/2016 06:10 PM 75.4°F 75.4°F / 77.5°F 62.8°F / 82.0°F 29.58 inHg 46% 0.00″
09/05/2016 05:10 PM 78.8°F 78.8°F / 80.2°F 62.8°F / 82.0°F 29.58 inHg 42% 0.00″
09/05/2016 04:10 PM 81.3°F 80.1°F / 81.3°F 62.8°F / 81.3°F 29.58 inHg 36% 0.00″
09/05/2016 03:10 PM 81.3°F 80.8°F / 81.3°F 62.8°F / 81.3°F 29.59 inHg 39% 0.00″
09/05/2016 02:10 PM 80.8°F 80.1°F / 80.8°F 62.8°F / 80.8°F 29.59 inHg 41% 0.00″
09/05/2016 01:10 PM 80.2°F 79.3°F / 80.2°F 62.8°F / 80.2°F 29.60 inHg 44% 0.00″
09/05/2016 12:10 PM 76.3°F 75.9°F / 77.2°F 62.8°F / 78.1°F 29.62 inHg 49% 0.00″
09/05/2016 11:10 AM 76.5°F 74.5°F / 76.5°F 62.8°F / 76.5°F 29.64 inHg 55% 0.00″
09/05/2016 10:10 AM 73.6°F 73.0°F / 73.8°F 62.8°F / 73.8°F 29.65 inHg 57% 0.00″
09/05/2016 09:10 AM 70.5°F 69.6°F / 70.5°F 62.8°F / 70.5°F 29.64 inHg 62% 0.00″
09/05/2016 08:10 AM 63.1°F 63.1°F / 63.5°F 62.8°F / 68.0°F 29.63 inHg 74% 0.00″
09/05/2016 07:09 AM 62.8°F 62.8°F / 63.0°F 62.8°F / 68.0°F 29.62 inHg 74% 0.00″
09/05/2016 06:09 AM 64.6°F 64.6°F / 64.9°F 64.4°F / 68.0°F 29.60 inHg 71% 0.00″
09/05/2016 05:09 AM 64.6°F 64.4°F / 64.6°F 64.4°F / 68.0°F 29.60 inHg 73% 0.00″
09/05/2016 04:09 AM 66.0°F 66.0°F / 66.4°F 65.8°F / 68.0°F 29.60 inHg 70% 0.00″
09/05/2016 03:09 AM 65.8°F 65.8°F / 65.8°F 65.8°F / 68.0°F 29.60 inHg 69% 0.00″
09/05/2016 02:09 AM 67.1°F 67.1°F / 67.5°F 66.9°F / 68.0°F 29.61 inHg 64% 0.00″
09/05/2016 01:09 AM 67.3°F 67.3°F / 67.5°F 67.3°F / 68.0°F 29.62 inHg 64% 0.00″
09/05/2016 12:09 AM 67.8°F 67.8°F / 67.8°F 67.8°F / 67.8°F 29.62 inHg 62% 0.00″
09/04/2016 11:09 PM 68.4°F 68.4°F / 68.5°F 59.5°F / 80.8°F 29.63 inHg 61% 0.00″
09/04/2016 10:08 PM 69.1°F 69.1°F / 69.1°F 59.5°F / 80.8°F 29.62 inHg 60% 0.00″
09/04/2016 09:08 PM 69.4°F 69.4°F / 69.6°F 59.5°F / 80.8°F 29.61 inHg 62% 0.00″
09/04/2016 08:08 PM 70.0°F 70.0°F / 70.3°F 59.5°F / 80.8°F 29.61 inHg 56% 0.00″
09/04/2016 07:08 PM 73.9°F 73.9°F / 75.0°F 59.5°F / 80.8°F 29.60 inHg 46% 0.00″
09/04/2016 06:08 PM 78.6°F 78.6°F / 78.6°F 59.5°F / 80.8°F 29.60 inHg 38% 0.00″
09/04/2016 05:08 PM 80.4°F 80.2°F / 80.6°F 59.5°F / 80.8°F 29.60 inHg 33% 0.00″
09/04/2016 04:08 PM 78.3°F 78.3°F / 80.4°F 59.5°F / 80.8°F 29.62 inHg 40% 0.00″
09/04/2016 03:08 PM 80.1°F 79.9°F / 80.2°F 59.5°F / 80.2°F 29.63 inHg 36% 0.00″
09/04/2016 02:08 PM 78.6°F 78.6°F / 79.5°F 59.5°F / 79.5°F 29.65 inHg 40% 0.00″
09/04/2016 01:08 PM 76.6°F 75.9°F / 76.8°F 59.5°F / 77.2°F 29.66 inHg 44% 0.00″
09/04/2016 12:08 PM 75.4°F 74.8°F / 75.6°F 59.5°F / 76.1°F 29.68 inHg 50% 0.00″
09/04/2016 11:08 AM 75.9°F 75.6°F / 75.9°F 59.5°F / 75.9°F 29.70 inHg 51% 0.00″
09/04/2016 10:08 AM 71.8°F 71.4°F / 72.0°F 59.5°F / 72.0°F 29.70 inHg 57% 0.00″
09/04/2016 09:08 AM 68.7°F 68.5°F / 68.7°F 59.5°F / 68.7°F 29.70 inHg 65% 0.00″
09/04/2016 08:08 AM 66.9°F 66.0°F / 66.9°F 59.5°F / 66.9°F 29.69 inHg 71% 0.00″
09/04/2016 07:08 AM 62.8°F 61.9°F / 62.8°F 59.5°F / 64.0°F 29.70 inHg 80% 0.00″
09/04/2016 06:08 AM 59.5°F 59.5°F / 60.1°F 59.5°F / 64.0°F 29.68 inHg 80% 0.00″
09/04/2016 05:07 AM 64.0°F 63.9°F / 64.0°F 60.4°F / 64.0°F 29.67 inHg 73% 0.00″
09/04/2016 04:07 AM 61.9°F 61.5°F / 61.9°F 60.4°F / 63.5°F 29.66 inHg 73% 0.00″
09/04/2016 03:07 AM 61.0°F 60.4°F / 61.0°F 60.4°F / 63.5°F 29.67 inHg 74% 0.00″
09/04/2016 02:07 AM 62.2°F 62.2°F / 62.4°F 61.2°F / 63.5°F 29.68 inHg 69% 0.00″
09/04/2016 01:07 AM 62.2°F 61.9°F / 62.2°F 61.9°F / 63.5°F 29.68 inHg 69% 0.00″
09/04/2016 12:07 AM 63.3°F 63.0°F / 63.5°F 63.0°F / 63.5°F 29.68 inHg 69% 0.00″
09/03/2016 11:07 PM 63.1°F 63.1°F / 63.1°F 56.7°F / 78.6°F 29.69 inHg 70% 0.00″
09/03/2016 10:07 PM 64.2°F 64.2°F / 64.6°F 56.7°F / 78.6°F 29.70 inHg 68% 0.00″
09/03/2016 09:07 PM 65.7°F 65.7°F / 65.7°F 56.7°F / 78.6°F 29.69 inHg 68% 0.00″
09/03/2016 08:07 PM 67.3°F 67.3°F / 67.6°F 56.7°F / 78.6°F 29.68 inHg 65% 0.00″
09/03/2016 07:07 PM 73.2°F 73.2°F / 73.4°F 56.7°F / 78.6°F 29.67 inHg 52% 0.00″
09/03/2016 06:07 PM 75.0°F 75.0°F / 75.7°F 56.7°F / 78.6°F 29.68 inHg 48% 0.00″
09/03/2016 05:07 PM 76.1°F 75.9°F / 76.5°F 56.7°F / 78.6°F 29.68 inHg 50% 0.00″
09/03/2016 04:06 PM 76.6°F 75.6°F / 76.6°F 56.7°F / 77.9°F 29.69 inHg 53% 0.00″
09/03/2016 03:06 PM 76.3°F 75.9°F / 76.8°F 56.7°F / 77.2°F 29.70 inHg 47% 0.00″
09/03/2016 02:06 PM 76.5°F 76.3°F / 77.2°F 56.7°F / 77.2°F 29.72 inHg 50% 0.00″
09/03/2016 01:06 PM 74.8°F 74.1°F / 74.8°F 56.7°F / 74.8°F 29.76 inHg 56% 0.00″
09/03/2016 12:06 PM 73.2°F 73.0°F / 73.6°F 56.7°F / 73.6°F 29.77 inHg 62% 0.00″
09/03/2016 11:06 AM 71.2°F 70.5°F / 71.4°F 56.7°F / 71.4°F 29.79 inHg 65% 0.00″
09/03/2016 10:06 AM 69.1°F 69.1°F / 69.4°F 56.7°F / 69.4°F 29.80 inHg 69% 0.00″
09/03/2016 09:06 AM 66.2°F 65.3°F / 66.2°F 56.7°F / 66.2°F 29.79 inHg 73% 0.00″
09/03/2016 08:06 AM 60.6°F 60.6°F / 60.6°F 56.7°F / 61.5°F 29.79 inHg 85% 0.00″
09/03/2016 07:05 AM 57.7°F 57.7°F / 57.7°F 56.7°F / 61.5°F 29.79 inHg 89% 0.00″
09/03/2016 06:05 AM 57.6°F 57.6°F / 57.6°F 56.7°F / 61.5°F 29.78 inHg 88% 0.00″
09/03/2016 05:05 AM 58.6°F 58.6°F / 58.8°F 56.7°F / 61.5°F 29.79 inHg 83% 0.00″
09/03/2016 04:05 AM 58.8°F 58.6°F / 58.8°F 56.7°F / 61.5°F 29.80 inHg 80% 0.00″
09/03/2016 03:05 AM 56.8°F 56.7°F / 56.8°F 56.7°F / 61.5°F 29.81 inHg 83% 0.00″
09/03/2016 02:05 AM 57.4°F 57.4°F / 57.6°F 57.4°F / 61.5°F 29.81 inHg 81% 0.00″
09/03/2016 01:04 AM 59.5°F 59.5°F / 59.7°F 59.5°F / 61.5°F 29.82 inHg 76% 0.00″
09/03/2016 12:04 AM 59.7°F 59.7°F / 59.9°F 59.7°F / 59.9°F 29.83 inHg 77% 0.00″
09/02/2016 11:04 PM 63.1°F 63.1°F / 63.1°F 53.2°F / 76.8°F 29.83 inHg 73% 0.00″
09/02/2016 10:04 PM 63.7°F 63.7°F / 63.7°F 53.2°F / 76.8°F 29.82 inHg 72% 0.00″
09/02/2016 09:04 PM 64.0°F 64.0°F / 64.2°F 53.2°F / 76.8°F 29.80 inHg 72% 0.00″
09/02/2016 08:04 PM 65.8°F 65.8°F / 65.8°F 53.2°F / 76.8°F 29.78 inHg 70% 0.00″
09/02/2016 07:03 PM 72.0°F 72.0°F / 72.5°F 53.2°F / 76.8°F 29.78 inHg 56% 0.00″
09/02/2016 06:03 PM 74.5°F 74.3°F / 74.5°F 53.2°F / 76.8°F 29.78 inHg 50% 0.00″
09/02/2016 05:03 PM 76.3°F 75.9°F / 76.3°F 53.2°F / 76.8°F 29.79 inHg 46% 0.00″
09/02/2016 04:03 PM 75.9°F 75.9°F / 76.3°F 53.2°F / 76.3°F 29.80 inHg 46% 0.00″
09/02/2016 03:03 PM 74.5°F 74.5°F / 74.7°F 53.2°F / 74.8°F 29.82 inHg 52% 0.00″
09/02/2016 02:03 PM 73.2°F 73.2°F / 73.4°F 53.2°F / 73.6°F 29.85 inHg 56% 0.00″
09/02/2016 01:03 PM 69.6°F 69.6°F / 70.3°F 53.2°F / 70.9°F 29.88 inHg 66% 0.00″
09/02/2016 12:03 PM 67.8°F 67.8°F / 68.2°F 53.2°F / 69.1°F 29.91 inHg 71% 0.00″
09/02/2016 11:03 AM 68.4°F 68.0°F / 68.4°F 53.2°F / 68.4°F 29.92 inHg 70% 0.00″
09/02/2016 10:03 AM 65.1°F 64.8°F / 65.1°F 53.2°F / 65.5°F 29.93 inHg 79% 0.00″
09/02/2016 09:03 AM 61.3°F 61.0°F / 61.3°F 53.2°F / 61.3°F 29.92 inHg 79% 0.00″
09/02/2016 08:03 AM 55.6°F 55.2°F / 55.6°F 53.2°F / 60.3°F 29.92 inHg 89% 0.00″
09/02/2016 07:03 AM 54.1°F 54.1°F / 54.3°F 53.2°F / 60.3°F 29.91 inHg 90% 0.00″
09/02/2016 06:03 AM 54.0°F 54.0°F / 54.0°F 53.8°F / 60.3°F 29.90 inHg 91% 0.00″
09/02/2016 05:03 AM 53.8°F 53.8°F / 53.8°F 53.8°F / 60.3°F 29.90 inHg 91% 0.00″
09/02/2016 04:03 AM 56.5°F 56.1°F / 56.5°F 54.1°F / 60.3°F 29.90 inHg 86% 0.00″
09/02/2016 03:03 AM 55.8°F 55.8°F / 55.9°F 55.8°F / 60.3°F 29.90 inHg 86% 0.00″
09/02/2016 02:03 AM 58.1°F 57.9°F / 58.1°F 57.6°F / 60.3°F 29.90 inHg 83% 0.00″
09/02/2016 01:03 AM 60.1°F 59.9°F / 60.1°F 59.5°F / 60.3°F 29.91 inHg 81% 0.00″
09/02/2016 12:03 AM 60.1°F 60.1°F / 60.3°F 60.1°F / 60.3°F 29.91 inHg 82% 0.00″
09/01/2016 11:03 PM 58.8°F 58.6°F / 58.8°F 56.1°F / 71.8°F 29.91 inHg 84% 0.03″
09/01/2016 10:02 PM 57.6°F 57.6°F / 57.6°F 56.1°F / 71.8°F 29.90 inHg 85% 0.03″
09/01/2016 09:02 PM 60.8°F 60.6°F / 60.8°F 56.1°F / 71.8°F 29.86 inHg 78% 0.03″
09/01/2016 08:02 PM 61.0°F 61.0°F / 61.2°F 56.1°F / 71.8°F 29.87 inHg 88% 0.03″
09/01/2016 07:02 PM 64.8°F 64.8°F / 64.9°F 56.1°F / 71.8°F 29.87 inHg 81% 0.03″
09/01/2016 06:02 PM 67.8°F 67.6°F / 67.8°F 56.1°F / 71.8°F 29.87 inHg 69% 0.03″
09/01/2016 05:02 PM 66.9°F 66.9°F / 66.9°F 56.1°F / 71.8°F 29.86 inHg 71% 0.03″
09/01/2016 04:02 PM 67.5°F 67.5°F / 67.6°F 56.1°F / 71.8°F 29.86 inHg 70% 0.03″
09/01/2016 03:02 PM 70.0°F 69.8°F / 70.0°F 56.1°F / 70.0°F 29.88 inHg 78% 0.03″
09/01/2016 02:02 PM 64.0°F 63.9°F / 64.0°F 56.1°F / 66.7°F 29.91 inHg 88% 0.03″
09/01/2016 01:01 PM 61.2°F 61.2°F / 61.2°F 56.1°F / 66.7°F 29.93 inHg 82% 0.01″
09/01/2016 12:01 PM 65.8°F 65.8°F / 66.0°F 56.1°F / 66.7°F 29.95 inHg 77% 0.01″
09/01/2016 11:01 AM 64.8°F 64.8°F / 64.9°F 56.1°F / 66.0°F 29.96 inHg 79% 0.01″
09/01/2016 10:01 AM 64.2°F 64.0°F / 64.2°F 56.1°F / 64.2°F 29.96 inHg 79% 0.01″
09/01/2016 09:01 AM 61.0°F 61.0°F / 61.0°F 56.1°F / 61.7°F 29.96 inHg 87% 0.01″
09/01/2016 08:01 AM 58.1°F 57.9°F / 58.1°F 56.1°F / 59.5°F 29.96 inHg 93% 0.01″
09/01/2016 07:01 AM 56.5°F 56.5°F / 56.5°F 56.1°F / 59.5°F 29.96 inHg 89% 0.00″
09/01/2016 06:01 AM 57.7°F 57.7°F / 57.7°F 56.7°F / 59.5°F 29.93 inHg 85% 0.00″
09/01/2016 05:01 AM 57.6°F 57.6°F / 57.6°F 56.7°F / 59.5°F 29.93 inHg 86% 0.00″
09/01/2016 04:01 AM 57.7°F 57.7°F / 57.9°F 56.7°F / 59.5°F 29.93 inHg 84% 0.00″
09/01/2016 03:01 AM 59.0°F 59.0°F / 59.0°F 56.7°F / 59.5°F 29.94 inHg 82% 0.00″
09/01/2016 02:01 AM 59.4°F 59.4°F / 59.4°F 56.7°F / 59.4°F 29.95 inHg 82% 0.00″
09/01/2016 01:01 AM 57.4°F 57.2°F / 57.4°F 56.7°F / 57.9°F 29.95 inHg 89% 0.00″
09/01/2016 12:01 AM 57.9°F 57.7°F / 57.9°F 57.7°F / 57.9°F 29.95 inHg 89% 0.00″
08/31/2016 11:00 PM 59.2°F 59.2°F / 59.2°F 56.8°F / 67.3°F 29.95 inHg 85% 0.09″
08/31/2016 10:00 PM 58.8°F 0.0°F / 0.0°F 56.8°F / 67.3°F 29.95 inHg 87% 0.09″
08/31/2016 09:00 PM 59.7°F 0.0°F / 0.0°F 56.8°F / 67.3°F 29.93 inHg 84% 0.09″
08/31/2016 07:59 PM 61.0°F 61.0°F / 62.6°F 56.8°F / 67.3°F 29.90 inHg 80% 0.09″
08/31/2016 06:59 PM 62.6°F 62.6°F / 65.8°F 56.8°F / 67.3°F 29.88 inHg 80% 0.09″
08/31/2016 05:59 PM 66.0°F 65.5°F / 67.1°F 56.8°F / 67.3°F 29.88 inHg 77% 0.09″
08/31/2016 04:59 PM 66.7°F 63.3°F / 67.3°F 56.8°F / 67.3°F 29.88 inHg 72% 0.09″
08/31/2016 03:59 PM 63.3°F 60.4°F / 63.3°F 56.8°F / 64.6°F 29.88 inHg 85% 0.09″
08/31/2016 02:59 PM 60.4°F 59.9°F / 60.4°F 56.8°F / 64.6°F 29.91 inHg 91% 0.09″
08/31/2016 01:59 PM 60.4°F 60.4°F / 64.0°F 56.8°F / 64.6°F 29.93 inHg 88% 0.06″
08/31/2016 12:59 PM 63.7°F 63.1°F / 64.6°F 56.8°F / 64.6°F 29.93 inHg 78% 0.00″
08/31/2016 11:59 AM 62.8°F 61.5°F / 63.1°F 56.8°F / 63.1°F 29.94 inHg 82% 0.00″
08/31/2016 10:59 AM 62.1°F 61.5°F / 63.0°F 56.8°F / 63.0°F 29.95 inHg 80% 0.00″
08/31/2016 09:59 AM 61.9°F 61.3°F / 62.1°F 56.8°F / 62.1°F 29.95 inHg 81% 0.00″
08/31/2016 08:59 AM 61.2°F 59.0°F / 61.3°F 56.8°F / 61.3°F 29.94 inHg 80% 0.00″
08/31/2016 07:59 AM 59.0°F 57.4°F / 59.0°F 56.8°F / 59.9°F 29.94 inHg 87% 0.00″
08/31/2016 06:59 AM 57.4°F 57.0°F / 57.7°F 56.8°F / 59.9°F 29.93 inHg 90% 0.00″
08/31/2016 05:59 AM 57.0°F 56.8°F / 57.0°F 56.8°F / 59.9°F 29.92 inHg 91% 0.00″
08/31/2016 04:59 AM 57.0°F 56.8°F / 57.4°F 56.8°F / 59.9°F 29.91 inHg 90% 0.00″
08/31/2016 03:58 AM 57.4°F 57.4°F / 58.5°F 57.4°F / 59.9°F 29.92 inHg 90% 0.00″
08/31/2016 02:57 AM 58.6°F 58.6°F / 59.5°F 58.6°F / 59.9°F 29.93 inHg 84% 0.00″
08/31/2016 01:57 AM 59.5°F 59.4°F / 59.7°F 59.4°F / 59.9°F 29.94 inHg 80% 0.00″
08/31/2016 12:57 AM 59.7°F 59.7°F / 59.9°F 59.7°F / 59.9°F 29.94 inHg 78% 0.00″
08/30/2016 11:57 PM 59.7°F 59.4°F / 59.7°F 55.8°F / 69.3°F 29.94 inHg 77% 0.00″
08/30/2016 10:57 PM 59.4°F 59.2°F / 59.7°F 55.8°F / 69.3°F 29.93 inHg 77% 0.00″
08/30/2016 09:57 PM 59.7°F 59.7°F / 60.3°F 55.8°F / 69.3°F 29.94 inHg 77% 0.00″
08/30/2016 08:57 PM 60.3°F 60.3°F / 61.0°F 55.8°F / 69.3°F 29.91 inHg 77% 0.00″
08/30/2016 07:57 PM 61.0°F 61.0°F / 62.1°F 55.8°F / 69.3°F 29.89 inHg 75% 0.00″
08/30/2016 06:57 PM 62.2°F 62.2°F / 64.6°F 55.8°F / 69.3°F 29.88 inHg 73% 0.00″
08/30/2016 05:57 PM 64.6°F 64.6°F / 65.8°F 55.8°F / 69.3°F 29.88 inHg 69% 0.00″
08/30/2016 04:57 PM 65.8°F 65.8°F / 67.6°F 55.8°F / 69.3°F 29.88 inHg 66% 0.00″
08/30/2016 03:57 PM 66.9°F 66.9°F / 69.3°F 55.8°F / 69.3°F 29.88 inHg 61% 0.00″
08/30/2016 02:56 PM 68.2°F 65.3°F / 68.2°F 55.8°F / 68.2°F 29.89 inHg 62% 0.00″
08/30/2016 01:56 PM 66.0°F 66.0°F / 67.5°F 55.8°F / 67.5°F 29.92 inHg 65% 0.00″
08/30/2016 12:56 PM 65.8°F 64.8°F / 66.6°F 55.8°F / 66.6°F 29.94 inHg 63% 0.00″
08/30/2016 11:56 AM 64.9°F 63.5°F / 65.1°F 55.8°F / 65.1°F 29.95 inHg 66% 0.00″
08/30/2016 10:56 AM 63.9°F 62.1°F / 64.6°F 55.8°F / 64.6°F 29.95 inHg 68% 0.00″
08/30/2016 09:56 AM 62.2°F 61.0°F / 62.4°F 55.8°F / 62.4°F 29.95 inHg 71% 0.00″
08/30/2016 08:56 AM 61.0°F 58.5°F / 61.2°F 55.8°F / 61.2°F 29.95 inHg 74% 0.00″
08/30/2016 07:56 AM 58.3°F 56.5°F / 58.3°F 55.8°F / 59.5°F 29.96 inHg 76% 0.00″
08/30/2016 05:56 AM 56.8°F 56.1°F / 57.0°F 55.8°F / 59.5°F 29.93 inHg 79% 0.00″
08/30/2016 04:56 AM 56.1°F 55.8°F / 56.7°F 55.8°F / 59.5°F 29.93 inHg 80% 0.00″
08/30/2016 03:56 AM 55.9°F 55.9°F / 57.4°F 55.9°F / 59.5°F 29.94 inHg 79% 0.00″
08/30/2016 02:56 AM 57.7°F 57.7°F / 58.6°F 57.7°F / 59.5°F 29.94 inHg 76% 0.00″
08/30/2016 01:55 AM 58.5°F 57.9°F / 58.8°F 57.9°F / 59.5°F 29.94 inHg 76% 0.00″
08/30/2016 12:55 AM 59.0°F 59.0°F / 59.5°F 59.0°F / 59.5°F 29.96 inHg 76% 0.00″
08/29/2016 11:55 PM 59.5°F 59.0°F / 59.5°F 53.2°F / 73.4°F 29.94 inHg 75% 0.01″
08/29/2016 10:55 PM 59.0°F 58.8°F / 59.7°F 53.2°F / 73.4°F 29.95 inHg 74% 0.01″
08/29/2016 09:55 PM 59.4°F 59.2°F / 60.4°F 53.2°F / 73.4°F 29.94 inHg 69% 0.01″
08/29/2016 08:55 PM 60.6°F 60.6°F / 61.5°F 53.2°F / 73.4°F 29.91 inHg 70% 0.01″
08/29/2016 07:55 PM 61.7°F 61.7°F / 65.5°F 53.2°F / 73.4°F 29.89 inHg 66% 0.01″
08/29/2016 06:55 PM 65.3°F 65.1°F / 69.4°F 53.2°F / 73.4°F 29.88 inHg 61% 0.01″
08/29/2016 05:55 PM 69.1°F 66.7°F / 73.0°F 53.2°F / 73.4°F 29.88 inHg 56% 0.01″
08/29/2016 04:55 PM 72.0°F 69.6°F / 73.4°F 53.2°F / 73.4°F 29.86 inHg 50% 0.01″
08/29/2016 03:55 PM 69.1°F 65.7°F / 69.3°F 53.2°F / 69.3°F 29.87 inHg 58% 0.01″
08/29/2016 02:55 PM 66.4°F 63.5°F / 66.4°F 53.2°F / 67.6°F 29.88 inHg 69% 0.01″
08/29/2016 01:55 PM 64.8°F 58.8°F / 64.8°F 53.2°F / 67.6°F 29.91 inHg 74% 0.01″
08/29/2016 12:55 PM 58.5°F 57.9°F / 63.7°F 53.2°F / 67.6°F 29.90 inHg 81% 0.01″
08/29/2016 11:55 AM 63.5°F 63.5°F / 67.6°F 53.2°F / 67.6°F 29.92 inHg 75% 0.00″
08/29/2016 10:55 AM 66.9°F 63.7°F / 66.9°F 53.2°F / 66.9°F 29.92 inHg 60% 0.00″
08/29/2016 09:55 AM 64.6°F 59.2°F / 64.8°F 53.2°F / 64.8°F 29.92 inHg 63% 0.00″
08/29/2016 08:55 AM 58.5°F 54.0°F / 58.5°F 53.2°F / 61.0°F 29.92 inHg 77% 0.00″
08/29/2016 07:55 AM 54.0°F 53.2°F / 54.5°F 53.2°F / 61.0°F 29.91 inHg 82% 0.00″
08/29/2016 06:55 AM 53.8°F 53.8°F / 57.4°F 53.8°F / 61.0°F 29.89 inHg 82% 0.00″
08/29/2016 05:54 AM 57.4°F 57.4°F / 57.7°F 57.4°F / 61.0°F 29.88 inHg 75% 0.00″
08/29/2016 04:54 AM 57.6°F 57.4°F / 58.3°F 57.4°F / 61.0°F 29.87 inHg 76% 0.00″
08/29/2016 03:54 AM 58.5°F 58.5°F / 60.1°F 58.5°F / 61.0°F 29.87 inHg 72% 0.00″
08/29/2016 02:54 AM 60.1°F 60.1°F / 60.3°F 60.1°F / 61.0°F 29.87 inHg 67% 0.00″
08/29/2016 01:54 AM 60.3°F 60.1°F / 60.6°F 60.1°F / 61.0°F 29.88 inHg 67% 0.00″
08/29/2016 12:54 AM 60.4°F 60.3°F / 61.0°F 60.3°F / 61.0°F 29.90 inHg 62% 0.00″
08/28/2016 11:54 PM 61.2°F 60.4°F / 61.2°F 52.2°F / 74.1°F 29.89 inHg 62% 0.00″
08/28/2016 10:54 PM 61.0°F 60.6°F / 62.1°F 52.2°F / 74.1°F 29.89 inHg 63% 0.00″
08/28/2016 09:54 PM 62.1°F 62.1°F / 62.8°F 52.2°F / 74.1°F 29.89 inHg 65% 0.00″
08/28/2016 08:54 PM 62.6°F 62.4°F / 63.3°F 52.2°F / 74.1°F 29.90 inHg 65% 0.00″
08/28/2016 07:54 PM 63.3°F 63.3°F / 69.6°F 52.2°F / 74.1°F 29.87 inHg 63% 0.00″
08/28/2016 06:54 PM 70.3°F 66.6°F / 71.8°F 52.2°F / 74.1°F 29.85 inHg 50% 0.00″
08/28/2016 05:53 PM 67.1°F 66.9°F / 68.5°F 52.2°F / 74.1°F 29.85 inHg 57% 0.00″
08/28/2016 04:53 PM 68.7°F 68.7°F / 74.1°F 52.2°F / 74.1°F 29.85 inHg 52% 0.00″
08/28/2016 03:53 PM 73.0°F 72.1°F / 73.9°F 52.2°F / 73.9°F 29.85 inHg 45% 0.00″
08/28/2016 02:53 PM 72.5°F 69.8°F / 73.6°F 52.2°F / 73.6°F 29.86 inHg 54% 0.00″
08/28/2016 01:53 PM 70.9°F 69.6°F / 71.1°F 52.2°F / 71.1°F 29.88 inHg 60% 0.00″
08/28/2016 12:53 PM 69.6°F 67.8°F / 70.0°F 52.2°F / 70.0°F 29.89 inHg 58% 0.00″
08/28/2016 11:53 AM 68.2°F 67.3°F / 68.5°F 52.2°F / 68.5°F 29.91 inHg 65% 0.00″
08/28/2016 10:53 AM 67.1°F 65.7°F / 67.1°F 52.2°F / 67.1°F 29.91 inHg 68% 0.00″
08/28/2016 09:53 AM 64.9°F 59.5°F / 64.9°F 52.2°F / 64.9°F 29.91 inHg 70% 0.00″
08/28/2016 08:53 AM 58.8°F 57.0°F / 58.8°F 52.2°F / 58.8°F 29.92 inHg 90% 0.00″
08/28/2016 07:53 AM 56.8°F 54.0°F / 56.8°F 52.2°F / 56.8°F 29.91 inHg 90% 0.00″
08/28/2016 06:53 AM 53.8°F 53.6°F / 55.6°F 52.2°F / 55.6°F 29.91 inHg 91% 0.00″
08/28/2016 05:53 AM 55.0°F 53.2°F / 55.2°F 52.2°F / 55.2°F 29.89 inHg 82% 0.00″
08/28/2016 04:53 AM 53.8°F 53.6°F / 54.1°F 52.2°F / 54.3°F 29.88 inHg 88% 0.00″
08/28/2016 03:53 AM 53.8°F 53.4°F / 54.0°F 52.2°F / 54.3°F 29.87 inHg 90% 0.00″
08/28/2016 02:52 AM 53.2°F 52.2°F / 53.2°F 52.2°F / 54.3°F 29.86 inHg 90% 0.00″
08/28/2016 01:51 AM 52.9°F 52.9°F / 54.3°F 52.9°F / 54.3°F 29.85 inHg 89% 0.00″
08/28/2016 12:51 AM 54.1°F 53.1°F / 54.1°F 53.1°F / 54.1°F 29.85 inHg 86% 0.00″
08/27/2016 11:51 PM 53.2°F 53.2°F / 54.7°F 52.3°F / 76.6°F 29.87 inHg 92% 0.34″
08/27/2016 10:51 PM 54.9°F 54.1°F / 54.9°F 52.3°F / 76.6°F 29.86 inHg 85% 0.34″
08/27/2016 09:51 PM 54.1°F 54.0°F / 56.1°F 52.3°F / 76.6°F 29.87 inHg 87% 0.33″
08/27/2016 08:51 PM 56.7°F 56.7°F / 63.7°F 52.3°F / 76.6°F 29.91 inHg 89% 0.18″
08/27/2016 07:51 PM 65.8°F 65.8°F / 67.5°F 52.3°F / 76.6°F 29.83 inHg 64% 0.02″
08/27/2016 06:51 PM 68.4°F 68.4°F / 73.4°F 52.3°F / 76.6°F 29.79 inHg 59% 0.02″
08/27/2016 05:51 PM 73.9°F 73.9°F / 76.6°F 52.3°F / 76.6°F 29.79 inHg 40% 0.02″
08/27/2016 04:51 PM 75.4°F 75.0°F / 76.3°F 52.3°F / 76.3°F 29.77 inHg 43% 0.02″
08/27/2016 03:51 PM 74.7°F 73.2°F / 75.7°F 52.3°F / 75.7°F 29.78 inHg 49% 0.02″
08/27/2016 02:51 PM 73.8°F 72.7°F / 74.8°F 52.3°F / 74.8°F 29.81 inHg 50% 0.02″
08/27/2016 01:51 PM 73.0°F 71.1°F / 73.6°F 52.3°F / 73.6°F 29.83 inHg 56% 0.02″
08/27/2016 12:51 PM 71.1°F 67.8°F / 71.1°F 52.3°F / 71.1°F 29.84 inHg 63% 0.02″
08/27/2016 11:51 AM 68.7°F 68.5°F / 69.4°F 52.3°F / 69.4°F 29.86 inHg 66% 0.02″
08/27/2016 10:51 AM 68.4°F 66.2°F / 68.4°F 52.3°F / 68.4°F 29.88 inHg 69% 0.02″
08/27/2016 09:51 AM 65.3°F 62.6°F / 65.5°F 52.3°F / 65.5°F 29.88 inHg 67% 0.02″
08/27/2016 08:51 AM 63.1°F 56.3°F / 63.1°F 52.3°F / 63.1°F 29.88 inHg 73% 0.02″
08/27/2016 07:51 AM 56.3°F 55.9°F / 56.5°F 52.3°F / 58.6°F 29.88 inHg 83% 0.02″
08/27/2016 06:51 AM 55.2°F 52.3°F / 55.2°F 52.3°F / 58.6°F 29.88 inHg 80% 0.02″
08/27/2016 05:51 AM 53.2°F 53.2°F / 55.2°F 53.2°F / 58.6°F 29.87 inHg 87% 0.02″
08/27/2016 04:51 AM 55.8°F 55.8°F / 58.6°F 54.7°F / 58.6°F 29.86 inHg 83% 0.02″
08/27/2016 03:51 AM 58.5°F 57.2°F / 58.5°F 54.7°F / 58.5°F 29.85 inHg 77% 0.02″
08/27/2016 02:50 AM 56.7°F 54.7°F / 56.7°F 54.7°F / 56.7°F 29.86 inHg 83% 0.02″
08/27/2016 01:50 AM 54.7°F 54.7°F / 55.6°F 54.7°F / 55.9°F 29.88 inHg 92% 0.02″
08/27/2016 12:50 AM 55.6°F 55.4°F / 55.9°F 55.4°F / 55.9°F 29.91 inHg 91% 0.01″
08/26/2016 11:50 PM 56.7°F 56.7°F / 59.4°F 52.5°F / 75.4°F 29.88 inHg 78% 0.09″
08/26/2016 10:50 PM 58.6°F 57.2°F / 58.8°F 52.5°F / 75.4°F 29.86 inHg 70% 0.09″
08/26/2016 09:50 PM 56.7°F 56.1°F / 56.8°F 52.5°F / 75.4°F 29.86 inHg 84% 0.09″
08/26/2016 08:50 PM 57.4°F 57.4°F / 58.3°F 52.5°F / 75.4°F 29.89 inHg 89% 0.08″
08/26/2016 07:50 PM 57.7°F 57.7°F / 58.5°F 52.5°F / 75.4°F 29.86 inHg 91% 0.08″
08/26/2016 06:50 PM 58.8°F 58.8°F / 61.5°F 52.5°F / 75.4°F 29.82 inHg 85% 0.08″
08/26/2016 05:50 PM 65.7°F 65.7°F / 75.0°F 52.5°F / 75.4°F 29.82 inHg 70% 0.01″
08/26/2016 04:50 PM 74.1°F 72.3°F / 75.4°F 52.5°F / 75.4°F 29.79 inHg 44% 0.00″
08/26/2016 03:50 PM 74.1°F 72.7°F / 74.8°F 52.5°F / 74.8°F 29.80 inHg 40% 0.00″
08/26/2016 02:49 PM 72.1°F 68.4°F / 72.1°F 52.5°F / 72.3°F 29.81 inHg 52% 0.00″
08/26/2016 01:49 PM 71.2°F 69.1°F / 72.3°F 52.5°F / 72.3°F 29.84 inHg 49% 0.00″
08/26/2016 12:49 PM 69.4°F 68.0°F / 70.0°F 52.5°F / 70.0°F 29.86 inHg 54% 0.00″
08/26/2016 11:49 AM 68.7°F 66.4°F / 68.7°F 52.5°F / 68.7°F 29.89 inHg 60% 0.00″
08/26/2016 10:49 AM 66.4°F 64.8°F / 66.6°F 52.5°F / 66.6°F 29.90 inHg 62% 0.00″
08/26/2016 09:49 AM 64.0°F 60.6°F / 64.0°F 52.5°F / 64.0°F 29.91 inHg 62% 0.00″
08/26/2016 08:49 AM 57.6°F 54.0°F / 57.6°F 52.5°F / 59.2°F 29.90 inHg 78% 0.00″
08/26/2016 07:49 AM 53.4°F 52.5°F / 53.4°F 52.5°F / 59.2°F 29.90 inHg 83% 0.00″
08/26/2016 06:49 AM 52.5°F 52.5°F / 54.1°F 52.5°F / 59.2°F 29.88 inHg 81% 0.00″
08/26/2016 05:49 AM 53.1°F 53.1°F / 54.7°F 53.1°F / 59.2°F 29.87 inHg 78% 0.00″
08/26/2016 04:49 AM 55.0°F 55.0°F / 56.8°F 55.0°F / 59.2°F 29.86 inHg 75% 0.00″
08/26/2016 03:48 AM 56.8°F 56.8°F / 58.8°F 55.9°F / 59.2°F 29.86 inHg 75% 0.00″
08/26/2016 02:48 AM 59.0°F 56.8°F / 59.0°F 55.9°F / 59.2°F 29.88 inHg 67% 0.00″
08/26/2016 01:48 AM 56.3°F 55.9°F / 56.7°F 55.9°F / 59.2°F 29.89 inHg 76% 0.00″
08/26/2016 12:48 AM 57.7°F 57.7°F / 59.2°F 57.7°F / 59.2°F 29.91 inHg 76% 0.00″
08/25/2016 11:48 PM 58.5°F 58.1°F / 61.0°F 49.5°F / 72.9°F 29.90 inHg 67% 0.13″
08/25/2016 10:48 PM 60.6°F 58.8°F / 60.8°F 49.5°F / 72.9°F 29.89 inHg 55% 0.13″
08/25/2016 09:48 PM 61.0°F 59.7°F / 61.2°F 49.5°F / 72.9°F 29.89 inHg 58% 0.13″
08/25/2016 08:48 PM 61.3°F 61.2°F / 63.1°F 49.5°F / 72.9°F 29.87 inHg 60% 0.13″
08/25/2016 07:48 PM 63.7°F 63.7°F / 65.1°F 49.5°F / 72.9°F 29.86 inHg 56% 0.13″
08/25/2016 06:47 PM 65.8°F 65.8°F / 70.3°F 49.5°F / 72.9°F 29.83 inHg 55% 0.13″
08/25/2016 05:47 PM 70.0°F 70.0°F / 72.9°F 49.5°F / 72.9°F 29.83 inHg 46% 0.13″
08/25/2016 04:47 PM 71.2°F 69.6°F / 71.8°F 49.5°F / 72.0°F 29.85 inHg 42% 0.13″
08/25/2016 03:47 PM 70.2°F 68.7°F / 70.5°F 49.5°F / 72.0°F 29.85 inHg 42% 0.13″
08/25/2016 02:47 PM 69.3°F 69.3°F / 72.0°F 49.5°F / 72.0°F 29.86 inHg 46% 0.13″
08/25/2016 01:47 PM 70.3°F 69.3°F / 70.9°F 49.5°F / 70.9°F 29.88 inHg 52% 0.13″
08/25/2016 12:47 PM 70.2°F 68.7°F / 70.2°F 49.5°F / 70.2°F 29.91 inHg 54% 0.13″
08/25/2016 11:47 AM 68.5°F 66.7°F / 68.5°F 49.5°F / 68.5°F 29.92 inHg 54% 0.13″
08/25/2016 10:47 AM 66.6°F 64.8°F / 66.7°F 49.5°F / 66.7°F 29.93 inHg 60% 0.13″
08/25/2016 09:47 AM 63.1°F 57.9°F / 63.1°F 49.5°F / 63.1°F 29.94 inHg 70% 0.13″
08/25/2016 08:47 AM 56.8°F 52.5°F / 56.8°F 49.5°F / 56.8°F 29.92 inHg 88% 0.13″
08/25/2016 07:47 AM 51.8°F 49.5°F / 52.9°F 49.5°F / 54.9°F 29.92 inHg 89% 0.13″
08/25/2016 06:47 AM 50.2°F 49.8°F / 50.7°F 49.8°F / 54.9°F 29.90 inHg 90% 0.13″
08/25/2016 05:47 AM 49.8°F 49.8°F / 50.5°F 49.8°F / 54.9°F 29.88 inHg 91% 0.13″
08/25/2016 04:47 AM 50.9°F 50.7°F / 54.7°F 50.7°F / 54.9°F 29.86 inHg 90% 0.13″
08/25/2016 03:46 AM 54.5°F 54.0°F / 54.5°F 52.9°F / 54.9°F 29.86 inHg 79% 0.13″
08/25/2016 02:46 AM 54.1°F 52.9°F / 54.3°F 52.9°F / 54.9°F 29.86 inHg 83% 0.13″
08/25/2016 01:46 AM 54.7°F 54.1°F / 54.9°F 53.2°F / 54.9°F 29.87 inHg 82% 0.13″
08/25/2016 12:46 AM 53.8°F 53.2°F / 54.1°F 53.2°F / 54.1°F 29.86 inHg 87% 0.13″
08/24/2016 11:46 PM 54.0°F 54.0°F / 54.7°F 54.0°F / 74.7°F 29.88 inHg 91% 0.13″
08/24/2016 10:46 PM 54.3°F 54.3°F / 55.2°F 54.3°F / 74.7°F 29.89 inHg 91% 0.11″
08/24/2016 09:46 PM 56.1°F 55.9°F / 59.0°F 54.9°F / 74.7°F 29.88 inHg 91% 0.10″
08/24/2016 08:46 PM 63.7°F 63.7°F / 65.8°F 54.9°F / 74.7°F 29.84 inHg 66% 0.07″
08/24/2016 07:46 PM 67.6°F 67.6°F / 72.7°F 54.9°F / 74.7°F 29.80 inHg 43% 0.00″
08/24/2016 06:46 PM 72.9°F 72.0°F / 73.2°F 54.9°F / 74.7°F 29.78 inHg 38% 0.00″
08/24/2016 05:46 PM 73.0°F 71.1°F / 74.5°F 54.9°F / 74.7°F 29.78 inHg 39% 0.00″
08/24/2016 04:46 PM 73.2°F 70.2°F / 73.2°F 54.9°F / 73.8°F 29.79 inHg 40% 0.00″
08/24/2016 03:46 PM 70.0°F 70.0°F / 73.8°F 54.9°F / 73.8°F 29.81 inHg 47% 0.00″
08/24/2016 02:45 PM 72.7°F 71.1°F / 73.8°F 54.9°F / 73.8°F 29.82 inHg 46% 0.00″
08/24/2016 01:45 PM 71.4°F 70.2°F / 72.0°F 54.9°F / 72.0°F 29.84 inHg 48% 0.00″
08/24/2016 12:45 PM 70.3°F 69.6°F / 70.7°F 54.9°F / 70.7°F 29.85 inHg 50% 0.00″
08/24/2016 11:45 AM 69.1°F 67.3°F / 69.3°F 54.9°F / 69.3°F 29.86 inHg 49% 0.00″
08/24/2016 10:45 AM 66.7°F 63.3°F / 66.7°F 54.9°F / 66.7°F 29.86 inHg 66% 0.00″
08/24/2016 09:45 AM 62.2°F 59.9°F / 62.2°F 54.9°F / 64.9°F 29.86 inHg 74% 0.00″
08/24/2016 08:45 AM 59.7°F 56.5°F / 59.9°F 54.9°F / 64.9°F 29.86 inHg 77% 0.00″
08/24/2016 07:45 AM 56.1°F 55.0°F / 56.1°F 54.9°F / 64.9°F 29.85 inHg 75% 0.00″
08/24/2016 06:45 AM 55.2°F 55.0°F / 55.6°F 54.9°F / 64.9°F 29.84 inHg 76% 0.00″
08/24/2016 05:45 AM 55.6°F 55.2°F / 55.9°F 54.9°F / 64.9°F 29.82 inHg 75% 0.00″
08/24/2016 04:45 AM 55.0°F 54.9°F / 55.9°F 54.9°F / 64.9°F 29.81 inHg 80% 0.00″
08/24/2016 03:45 AM 57.0°F 57.0°F / 59.2°F 57.0°F / 64.9°F 29.80 inHg 79% 0.00″
08/24/2016 02:44 AM 59.0°F 59.0°F / 60.4°F 59.0°F / 64.9°F 29.81 inHg 78% 0.00″
08/24/2016 01:44 AM 61.0°F 61.0°F / 63.7°F 61.0°F / 64.9°F 29.81 inHg 73% 0.00″
08/24/2016 12:44 AM 64.2°F 64.2°F / 64.9°F 64.2°F / 64.9°F 29.84 inHg 67% 0.00″
08/23/2016 11:44 PM 65.1°F 65.1°F / 66.0°F 55.9°F / 76.5°F 29.84 inHg 64% 0.02″
08/23/2016 10:44 PM 65.5°F 64.8°F / 65.5°F 55.9°F / 76.5°F 29.83 inHg 63% 0.02″
08/23/2016 09:44 PM 64.8°F 64.8°F / 65.8°F 55.9°F / 76.5°F 29.82 inHg 66% 0.02″
08/23/2016 08:44 PM 66.2°F 66.2°F / 67.3°F 55.9°F / 76.5°F 29.81 inHg 65% 0.02″
08/23/2016 06:43 PM 70.2°F 69.4°F / 73.9°F 55.9°F / 76.5°F 29.78 inHg 60% 0.02″
08/23/2016 05:43 PM 74.3°F 71.4°F / 74.7°F 55.9°F / 76.5°F 29.78 inHg 50% 0.02″
08/23/2016 04:43 PM 75.2°F 73.2°F / 75.9°F 55.9°F / 76.5°F 29.78 inHg 47% 0.02″
08/23/2016 03:43 PM 71.4°F 63.5°F / 71.4°F 55.9°F / 76.5°F 29.81 inHg 68% 0.02″
08/23/2016 02:43 PM 73.8°F 73.8°F / 76.5°F 55.9°F / 76.5°F 29.82 inHg 52% 0.00″
08/23/2016 01:43 PM 75.4°F 72.3°F / 75.6°F 55.9°F / 75.6°F 29.84 inHg 48% 0.00″
08/23/2016 12:43 PM 73.2°F 69.8°F / 73.2°F 55.9°F / 73.2°F 29.86 inHg 58% 0.00″
08/23/2016 11:43 AM 71.2°F 69.6°F / 71.6°F 55.9°F / 71.6°F 29.88 inHg 58% 0.00″
08/23/2016 09:43 AM 68.2°F 64.2°F / 68.2°F 55.9°F / 68.2°F 29.89 inHg 69% 0.00″
08/23/2016 08:43 AM 62.1°F 57.9°F / 62.2°F 55.9°F / 62.2°F 29.88 inHg 82% 0.00″
08/23/2016 07:43 AM 57.7°F 57.0°F / 57.7°F 55.9°F / 61.5°F 29.88 inHg 87% 0.00″
08/23/2016 06:43 AM 57.6°F 57.6°F / 58.5°F 55.9°F / 61.5°F 29.87 inHg 84% 0.00″
08/23/2016 05:43 AM 59.4°F 59.4°F / 61.2°F 55.9°F / 61.5°F 29.85 inHg 79% 0.00″
08/23/2016 04:43 AM 60.6°F 60.3°F / 61.5°F 55.9°F / 61.5°F 29.85 inHg 75% 0.00″
08/23/2016 03:43 AM 60.1°F 55.9°F / 60.1°F 55.9°F / 61.3°F 29.86 inHg 81% 0.00″
08/23/2016 02:42 AM 55.9°F 55.9°F / 56.5°F 55.9°F / 61.3°F 29.85 inHg 83% 0.00″
08/23/2016 01:42 AM 57.4°F 57.4°F / 58.3°F 57.4°F / 61.3°F 29.84 inHg 81% 0.00″
08/23/2016 12:42 AM 58.5°F 58.5°F / 61.3°F 58.5°F / 61.3°F 29.85 inHg 79% 0.00″
08/22/2016 11:42 PM 61.3°F 61.3°F / 61.9°F 54.3°F / 75.0°F 29.85 inHg 73% 0.00″
08/22/2016 10:42 PM 62.2°F 62.2°F / 62.4°F 54.3°F / 75.0°F 29.84 inHg 69% 0.00″
08/22/2016 09:42 PM 62.1°F 61.2°F / 62.4°F 54.3°F / 75.0°F 29.84 inHg 68% 0.00″
08/22/2016 08:42 PM 63.0°F 63.0°F / 65.7°F 54.3°F / 75.0°F 29.82 inHg 66% 0.00″
08/22/2016 07:42 PM 67.5°F 67.5°F / 70.3°F 54.3°F / 75.0°F 29.81 inHg 59% 0.00″
08/22/2016 06:42 PM 67.8°F 67.8°F / 71.2°F 54.3°F / 75.0°F 29.79 inHg 59% 0.00″
08/22/2016 05:42 PM 73.9°F 73.6°F / 74.5°F 54.3°F / 75.0°F 29.79 inHg 48% 0.00″
08/22/2016 04:42 PM 74.1°F 71.1°F / 74.1°F 54.3°F / 75.0°F 29.80 inHg 50% 0.00″
08/22/2016 03:42 PM 73.9°F 72.0°F / 74.1°F 54.3°F / 74.1°F 29.81 inHg 51% 0.00″
08/22/2016 02:42 PM 72.1°F 69.4°F / 72.3°F 54.3°F / 72.3°F 29.82 inHg 56% 0.00″
08/22/2016 01:42 PM 70.9°F 69.3°F / 71.2°F 54.3°F / 71.2°F 29.84 inHg 63% 0.00″
08/22/2016 12:42 PM 69.3°F 66.0°F / 69.3°F 54.3°F / 69.3°F 29.87 inHg 68% 0.00″
08/22/2016 11:42 AM 65.7°F 64.2°F / 66.7°F 54.3°F / 66.7°F 29.88 inHg 77% 0.00″
08/22/2016 10:42 AM 63.9°F 62.6°F / 65.1°F 54.3°F / 65.1°F 29.88 inHg 80% 0.00″
08/22/2016 09:42 AM 62.2°F 60.8°F / 62.2°F 54.3°F / 62.2°F 29.88 inHg 84% 0.00″
08/22/2016 08:41 AM 58.8°F 54.9°F / 58.8°F 54.3°F / 58.8°F 29.88 inHg 86% 0.00″
08/22/2016 07:41 AM 54.9°F 54.7°F / 55.0°F 54.3°F / 57.7°F 29.86 inHg 90% 0.00″
08/22/2016 06:41 AM 55.0°F 54.9°F / 55.9°F 54.3°F / 57.7°F 29.85 inHg 88% 0.00″
08/22/2016 05:41 AM 54.9°F 54.3°F / 55.6°F 54.3°F / 57.7°F 29.83 inHg 89% 0.00″
08/22/2016 04:41 AM 56.3°F 55.8°F / 56.3°F 55.8°F / 57.7°F 29.84 inHg 86% 0.00″
08/22/2016 03:41 AM 56.1°F 56.1°F / 56.5°F 56.1°F / 57.7°F 29.88 inHg 82% 0.00″
08/22/2016 02:40 AM 56.1°F 56.1°F / 56.5°F 56.1°F / 57.7°F 29.89 inHg 82% 0.00″
08/22/2016 01:40 AM 56.7°F 56.1°F / 57.0°F 56.1°F / 57.7°F 29.89 inHg 80% 0.00″
08/22/2016 12:40 AM 56.3°F 56.3°F / 57.7°F 56.3°F / 57.7°F 29.87 inHg 79% 0.00″
08/21/2016 11:40 PM 57.7°F 57.7°F / 59.4°F 54.0°F / 71.1°F 29.87 inHg 73% 0.28″
08/21/2016 10:40 PM 59.4°F 59.2°F / 59.7°F 54.0°F / 71.1°F 29.86 inHg 74% 0.28″
08/21/2016 09:40 PM 60.1°F 60.1°F / 60.8°F 54.0°F / 71.1°F 29.85 inHg 75% 0.28″
08/21/2016 08:40 PM 61.2°F 61.2°F / 62.8°F 54.0°F / 71.1°F 29.81 inHg 76% 0.28″
08/21/2016 07:40 PM 64.8°F 64.8°F / 69.8°F 54.0°F / 71.1°F 29.81 inHg 68% 0.28″
08/21/2016 06:39 PM 69.1°F 66.9°F / 70.3°F 54.0°F / 71.1°F 29.78 inHg 60% 0.28″
08/21/2016 05:39 PM 66.7°F 66.0°F / 67.6°F 54.0°F / 71.1°F 29.78 inHg 70% 0.28″
08/21/2016 04:39 PM 69.1°F 69.1°F / 71.1°F 54.0°F / 71.1°F 29.80 inHg 59% 0.28″
08/21/2016 03:39 PM 68.4°F 66.7°F / 68.7°F 54.0°F / 68.7°F 29.81 inHg 63% 0.28″
08/21/2016 02:39 PM 68.4°F 66.4°F / 68.4°F 54.0°F / 68.4°F 29.83 inHg 64% 0.28″
08/21/2016 01:39 PM 66.7°F 63.9°F / 66.7°F 54.0°F / 66.7°F 29.83 inHg 76% 0.28″
08/21/2016 12:39 PM 61.0°F 54.9°F / 61.0°F 54.0°F / 63.9°F 29.87 inHg 90% 0.28″
08/21/2016 11:39 AM 54.7°F 54.0°F / 57.2°F 54.0°F / 63.9°F 29.88 inHg 89% 0.25″
08/21/2016 10:39 AM 59.5°F 59.5°F / 62.2°F 57.0°F / 63.9°F 29.85 inHg 88% 0.00″
08/21/2016 09:39 AM 63.0°F 62.6°F / 63.3°F 57.0°F / 63.3°F 29.84 inHg 74% 0.00″
08/21/2016 08:39 AM 62.8°F 60.8°F / 62.8°F 57.0°F / 62.8°F 29.84 inHg 68% 0.00″
08/21/2016 07:39 AM 59.4°F 57.0°F / 59.4°F 57.0°F / 60.4°F 29.83 inHg 75% 0.00″
08/21/2016 06:39 AM 57.7°F 57.7°F / 58.3°F 57.7°F / 60.4°F 29.82 inHg 77% 0.00″
08/21/2016 05:39 AM 58.6°F 58.6°F / 59.4°F 58.1°F / 60.4°F 29.81 inHg 76% 0.00″
08/21/2016 04:39 AM 58.8°F 58.6°F / 59.7°F 58.1°F / 60.4°F 29.80 inHg 75% 0.00″
08/21/2016 03:38 AM 59.7°F 59.7°F / 60.4°F 58.1°F / 60.4°F 29.80 inHg 72% 0.00″
08/21/2016 02:38 AM 60.3°F 59.0°F / 60.4°F 58.1°F / 60.4°F 29.81 inHg 73% 0.00″
08/21/2016 01:38 AM 59.4°F 58.1°F / 59.4°F 58.1°F / 60.4°F 29.81 inHg 76% 0.00″
08/21/2016 12:38 AM 59.2°F 59.2°F / 60.4°F 59.2°F / 60.4°F 29.82 inHg 76% 0.00″
08/20/2016 11:38 PM 60.3°F 60.1°F / 61.2°F 56.7°F / 75.7°F 29.82 inHg 74% 0.00″
08/20/2016 10:38 PM 61.9°F 61.0°F / 62.2°F 56.7°F / 75.7°F 29.81 inHg 72% 0.00″
08/20/2016 09:38 PM 61.0°F 60.4°F / 62.1°F 56.7°F / 75.7°F 29.79 inHg 69% 0.00″
08/20/2016 08:38 PM 62.8°F 62.6°F / 63.7°F 56.7°F / 75.7°F 29.76 inHg 70% 0.00″
08/20/2016 07:38 PM 66.0°F 66.0°F / 71.1°F 56.7°F / 75.7°F 29.74 inHg 63% 0.00″
08/20/2016 06:38 PM 70.9°F 70.5°F / 73.8°F 56.7°F / 75.7°F 29.73 inHg 50% 0.00″
08/20/2016 05:38 PM 73.8°F 73.0°F / 73.9°F 56.7°F / 73.9°F 29.71 inHg 46% 0.00″
08/20/2016 04:38 PM 73.6°F 71.1°F / 73.6°F 56.7°F / 73.6°F 29.74 inHg 47% 0.00″
08/20/2016 03:38 PM 71.6°F 71.6°F / 73.0°F 56.7°F / 73.0°F 29.74 inHg 46% 0.00″
08/20/2016 02:38 PM 71.2°F 68.2°F / 71.2°F 56.7°F / 71.2°F 29.76 inHg 54% 0.00″
08/20/2016 01:38 PM 67.6°F 67.5°F / 68.4°F 56.7°F / 69.4°F 29.78 inHg 58% 0.00″
08/20/2016 12:38 PM 68.5°F 67.8°F / 69.3°F 56.7°F / 69.4°F 29.78 inHg 54% 0.00″
08/20/2016 11:38 AM 68.4°F 66.9°F / 68.4°F 56.7°F / 68.4°F 29.78 inHg 58% 0.00″
08/20/2016 10:38 AM 65.7°F 63.0°F / 66.0°F 56.7°F / 66.0°F 29.77 inHg 61% 0.00″
08/20/2016 08:38 AM 58.5°F 58.1°F / 58.6°F 56.7°F / 61.9°F 29.77 inHg 75% 0.00″
08/20/2016 07:38 AM 58.6°F 58.3°F / 58.6°F 56.7°F / 61.9°F 29.77 inHg 75% 0.00″
08/20/2016 06:37 AM 58.1°F 58.1°F / 61.5°F 56.7°F / 61.9°F 29.76 inHg 75% 0.00″
08/20/2016 05:37 AM 59.5°F 57.0°F / 59.5°F 56.7°F / 60.1°F 29.73 inHg 63% 0.00″
08/20/2016 04:36 AM 56.8°F 56.7°F / 60.1°F 56.7°F / 60.1°F 29.73 inHg 69% 0.00″
08/20/2016 03:36 AM 57.0°F 57.0°F / 57.9°F 57.0°F / 59.5°F 29.73 inHg 67% 0.00″
08/20/2016 02:36 AM 58.3°F 58.1°F / 58.6°F 58.1°F / 59.5°F 29.73 inHg 64% 0.00″
08/20/2016 01:35 AM 59.2°F 58.5°F / 59.5°F 58.1°F / 59.5°F 29.73 inHg 65% 0.00″
08/20/2016 12:35 AM 58.8°F 58.1°F / 58.8°F 58.1°F / 58.8°F 29.73 inHg 61% 0.00″
08/19/2016 11:35 PM 59.2°F 59.2°F / 61.7°F 54.9°F / 80.6°F 29.73 inHg 65% 0.01″
08/19/2016 10:35 PM 63.9°F 62.2°F / 63.9°F 54.9°F / 80.6°F 29.73 inHg 58% 0.01″
08/19/2016 09:35 PM 62.2°F 60.4°F / 62.2°F 54.9°F / 80.6°F 29.72 inHg 61% 0.01″
08/19/2016 08:35 PM 61.3°F 60.6°F / 61.3°F 54.9°F / 80.6°F 29.69 inHg 62% 0.01″
08/19/2016 07:35 PM 62.6°F 62.2°F / 65.1°F 54.9°F / 80.6°F 29.69 inHg 65% 0.01″
08/19/2016 06:35 PM 70.3°F 70.3°F / 76.1°F 54.9°F / 80.6°F 29.70 inHg 41% 0.00″
08/19/2016 05:35 PM 78.1°F 78.1°F / 80.6°F 54.9°F / 80.6°F 29.65 inHg 32% 0.00″
08/19/2016 04:35 PM 79.0°F 76.5°F / 79.3°F 54.9°F / 79.5°F 29.65 inHg 30% 0.00″
08/19/2016 03:35 PM 76.6°F 74.3°F / 77.9°F 54.9°F / 78.1°F 29.66 inHg 36% 0.00″
08/19/2016 02:35 PM 76.5°F 76.3°F / 77.5°F 54.9°F / 77.5°F 29.69 inHg 42% 0.00″
08/19/2016 01:35 PM 75.9°F 73.9°F / 75.9°F 54.9°F / 75.9°F 29.71 inHg 48% 0.00″
08/19/2016 12:34 PM 74.8°F 72.3°F / 74.8°F 54.9°F / 74.8°F 29.72 inHg 51% 0.00″
08/19/2016 11:34 AM 72.7°F 70.5°F / 72.7°F 54.9°F / 72.7°F 29.73 inHg 56% 0.00″
08/19/2016 10:34 AM 70.3°F 69.1°F / 70.3°F 54.9°F / 70.3°F 29.74 inHg 59% 0.00″
08/19/2016 09:34 AM 65.8°F 61.9°F / 65.8°F 54.9°F / 65.8°F 29.74 inHg 67% 0.00″
08/19/2016 08:34 AM 59.9°F 57.9°F / 59.9°F 54.9°F / 62.1°F 29.73 inHg 80% 0.00″
08/19/2016 07:34 AM 57.2°F 55.6°F / 57.2°F 54.9°F / 62.1°F 29.73 inHg 80% 0.00″
08/19/2016 06:34 AM 55.0°F 54.9°F / 55.9°F 54.9°F / 62.1°F 29.72 inHg 82% 0.00″
08/19/2016 05:33 AM 55.6°F 55.6°F / 56.7°F 55.6°F / 62.1°F 29.72 inHg 77% 0.00″
08/19/2016 04:33 AM 57.6°F 57.6°F / 60.1°F 57.6°F / 62.1°F 29.72 inHg 79% 0.00″
08/19/2016 03:33 AM 59.2°F 58.5°F / 59.2°F 57.6°F / 62.1°F 29.73 inHg 77% 0.00″
08/19/2016 02:33 AM 57.6°F 57.6°F / 58.6°F 57.6°F / 62.1°F 29.75 inHg 81% 0.00″
08/19/2016 01:33 AM 59.7°F 59.7°F / 61.3°F 59.7°F / 62.1°F 29.77 inHg 75% 0.00″
08/19/2016 12:33 AM 61.0°F 61.0°F / 62.1°F 61.0°F / 62.1°F 29.75 inHg 74% 0.00″
08/18/2016 11:33 PM 59.5°F 58.5°F / 59.5°F 54.9°F / 80.8°F 29.78 inHg 80% 0.04″
08/18/2016 10:32 PM 58.6°F 58.3°F / 58.6°F 54.9°F / 80.8°F 29.76 inHg 78% 0.04″
08/18/2016 09:32 PM 61.7°F 61.7°F / 70.2°F 54.9°F / 80.8°F 29.75 inHg 69% 0.02″
08/18/2016 08:32 PM 70.0°F 70.0°F / 72.3°F 54.9°F / 80.8°F 29.72 inHg 40% 0.00″
08/18/2016 07:32 PM 76.3°F 76.3°F / 79.5°F 54.9°F / 80.8°F 29.70 inHg 33% 0.00″
08/18/2016 06:32 PM 78.6°F 78.4°F / 79.9°F 54.9°F / 80.8°F 29.68 inHg 34% 0.00″
08/18/2016 05:32 PM 79.3°F 79.0°F / 79.7°F 54.9°F / 80.2°F 29.68 inHg 33% 0.00″
08/18/2016 04:32 PM 78.6°F 78.3°F / 79.2°F 54.9°F / 80.2°F 29.70 inHg 35% 0.00″
08/18/2016 03:32 PM 79.5°F 77.4°F / 79.5°F 54.9°F / 79.5°F 29.72 inHg 35% 0.00″
08/18/2016 02:32 PM 77.5°F 76.5°F / 78.3°F 54.9°F / 78.3°F 29.76 inHg 33% 0.00″
08/18/2016 01:32 PM 76.8°F 74.8°F / 76.8°F 54.9°F / 76.8°F 29.81 inHg 32% 0.00″
08/18/2016 12:32 PM 74.5°F 73.2°F / 74.7°F 54.9°F / 74.7°F 29.83 inHg 34% 0.00″
08/18/2016 11:32 AM 72.1°F 71.8°F / 72.7°F 54.9°F / 72.7°F 29.85 inHg 37% 0.00″
08/18/2016 10:32 AM 71.2°F 69.3°F / 71.2°F 54.9°F / 71.2°F 29.85 inHg 40% 0.00″
08/18/2016 09:32 AM 67.3°F 63.1°F / 67.3°F 54.9°F / 67.3°F 29.86 inHg 42% 0.00″
08/18/2016 08:32 AM 59.4°F 55.9°F / 59.4°F 54.9°F / 65.1°F 29.86 inHg 57% 0.00″
08/18/2016 07:31 AM 57.4°F 56.7°F / 58.8°F 54.9°F / 65.1°F 29.86 inHg 52% 0.00″
08/18/2016 06:31 AM 55.0°F 55.0°F / 57.7°F 54.9°F / 65.1°F 29.85 inHg 55% 0.00″
08/18/2016 05:31 AM 58.5°F 54.9°F / 58.5°F 54.9°F / 65.1°F 29.84 inHg 49% 0.00″
08/18/2016 04:31 AM 56.3°F 56.3°F / 60.1°F 56.3°F / 65.1°F 29.84 inHg 54% 0.00″
08/18/2016 03:31 AM 60.1°F 59.2°F / 60.1°F 59.2°F / 65.1°F 29.85 inHg 48% 0.00″
08/18/2016 02:31 AM 60.6°F 60.4°F / 63.7°F 60.4°F / 65.1°F 29.85 inHg 47% 0.00″
08/18/2016 01:31 AM 64.4°F 64.4°F / 64.6°F 64.4°F / 65.1°F 29.86 inHg 41% 0.00″
08/18/2016 12:31 AM 64.8°F 64.8°F / 65.1°F 64.8°F / 65.1°F 29.87 inHg 39% 0.00″
08/17/2016 11:31 PM 65.1°F 64.9°F / 65.5°F 51.8°F / 79.2°F 29.88 inHg 39% 0.00″
08/17/2016 10:31 PM 65.7°F 65.5°F / 65.8°F 51.8°F / 79.2°F 29.88 inHg 38% 0.00″
08/17/2016 09:31 PM 66.4°F 66.4°F / 66.9°F 51.8°F / 79.2°F 29.87 inHg 38% 0.00″
08/17/2016 08:31 PM 67.5°F 67.5°F / 68.9°F 51.8°F / 79.2°F 29.85 inHg 36% 0.00″
08/17/2016 07:31 PM 71.6°F 71.6°F / 73.2°F 51.8°F / 79.2°F 29.82 inHg 33% 0.00″
08/17/2016 06:30 PM 74.8°F 74.8°F / 77.9°F 51.8°F / 79.2°F 29.81 inHg 33% 0.00″
08/17/2016 05:30 PM 78.3°F 75.9°F / 78.6°F 51.8°F / 79.2°F 29.80 inHg 33% 0.00″
08/17/2016 04:30 PM 77.0°F 75.7°F / 77.4°F 51.8°F / 78.4°F 29.80 inHg 33% 0.00″
08/17/2016 03:30 PM 77.9°F 75.6°F / 77.9°F 51.8°F / 77.9°F 29.82 inHg 34% 0.00″
08/17/2016 02:30 PM 75.7°F 74.1°F / 76.3°F 51.8°F / 76.3°F 29.84 inHg 34% 0.00″
08/17/2016 01:30 PM 75.0°F 73.2°F / 75.2°F 51.8°F / 75.2°F 29.87 inHg 38% 0.00″
08/17/2016 12:30 PM 72.3°F 70.2°F / 72.7°F 51.8°F / 72.7°F 29.90 inHg 41% 0.00″
08/17/2016 11:30 AM 71.2°F 70.3°F / 71.2°F 51.8°F / 71.2°F 29.91 inHg 42% 0.00″
08/17/2016 10:30 AM 69.1°F 68.0°F / 69.1°F 51.8°F / 69.1°F 29.92 inHg 47% 0.00″
08/17/2016 09:30 AM 65.5°F 61.3°F / 65.8°F 51.8°F / 65.8°F 29.93 inHg 47% 0.00″
08/17/2016 08:30 AM 56.5°F 54.1°F / 56.5°F 51.8°F / 64.0°F 29.93 inHg 71% 0.00″
08/17/2016 07:30 AM 52.3°F 52.0°F / 52.3°F 51.8°F / 64.0°F 29.92 inHg 71% 0.00″
08/17/2016 06:30 AM 52.0°F 52.0°F / 52.9°F 52.0°F / 64.0°F 29.91 inHg 69% 0.00″
08/17/2016 05:30 AM 53.6°F 53.1°F / 54.1°F 53.1°F / 64.0°F 29.91 inHg 67% 0.00″
08/17/2016 04:29 AM 55.9°F 55.9°F / 57.2°F 55.9°F / 64.0°F 29.90 inHg 61% 0.00″
08/17/2016 03:29 AM 59.5°F 59.5°F / 60.3°F 59.5°F / 64.0°F 29.90 inHg 54% 0.00″
08/17/2016 02:29 AM 61.9°F 61.9°F / 63.3°F 61.9°F / 64.0°F 29.91 inHg 49% 0.00″
08/17/2016 01:29 AM 63.5°F 63.5°F / 63.9°F 63.5°F / 64.0°F 29.91 inHg 46% 0.00″
08/17/2016 12:29 AM 63.9°F 63.7°F / 64.0°F 63.7°F / 64.0°F 29.91 inHg 46% 0.00″
08/16/2016 11:29 PM 64.8°F 64.4°F / 64.8°F 52.5°F / 81.5°F 29.91 inHg 45% 0.00″
08/16/2016 10:29 PM 64.8°F 64.8°F / 65.3°F 52.5°F / 81.5°F 29.90 inHg 45% 0.00″
08/16/2016 09:29 PM 66.0°F 65.8°F / 66.6°F 52.5°F / 81.5°F 29.88 inHg 43% 0.00″
08/16/2016 08:29 PM 67.3°F 67.3°F / 68.7°F 52.5°F / 81.5°F 29.87 inHg 37% 0.00″
08/16/2016 07:29 PM 71.2°F 71.2°F / 72.9°F 52.5°F / 81.5°F 29.86 inHg 32% 0.00″
08/16/2016 06:29 PM 76.3°F 75.2°F / 76.3°F 52.5°F / 81.5°F 29.85 inHg 31% 0.00″
08/16/2016 05:29 PM 77.9°F 77.9°F / 80.8°F 52.5°F / 81.5°F 29.84 inHg 25% 0.00″
08/16/2016 04:29 PM 79.2°F 77.4°F / 80.2°F 52.5°F / 80.2°F 29.84 inHg 21% 0.00″
08/16/2016 03:29 PM 78.8°F 77.5°F / 79.0°F 52.5°F / 79.0°F 29.84 inHg 28% 0.00″
08/16/2016 02:29 PM 76.1°F 75.7°F / 76.6°F 52.5°F / 76.6°F 29.86 inHg 38% 0.00″
08/16/2016 01:29 PM 74.5°F 73.6°F / 74.7°F 52.5°F / 74.7°F 29.89 inHg 39% 0.00″
08/16/2016 12:29 PM 72.7°F 71.6°F / 72.7°F 52.5°F / 72.7°F 29.91 inHg 41% 0.00″
08/16/2016 11:29 AM 71.1°F 69.4°F / 71.1°F 52.5°F / 71.1°F 29.93 inHg 49% 0.00″
08/16/2016 10:29 AM 68.2°F 67.5°F / 68.4°F 52.5°F / 68.4°F 29.94 inHg 47% 0.00″
08/16/2016 09:28 AM 66.2°F 63.1°F / 66.2°F 52.5°F / 66.2°F 29.94 inHg 51% 0.00″
08/16/2016 08:28 AM 57.9°F 55.2°F / 57.9°F 52.5°F / 64.9°F 29.94 inHg 69% 0.00″
08/16/2016 07:28 AM 53.2°F 52.9°F / 53.4°F 52.5°F / 64.9°F 29.93 inHg 70% 0.00″
08/16/2016 06:28 AM 52.9°F 52.9°F / 53.8°F 52.9°F / 64.9°F 29.93 inHg 67% 0.00″
08/16/2016 05:28 AM 53.4°F 53.4°F / 54.3°F 53.4°F / 64.9°F 29.92 inHg 67% 0.00″
08/16/2016 04:28 AM 54.9°F 54.9°F / 55.6°F 54.9°F / 64.9°F 29.91 inHg 64% 0.00″
08/16/2016 03:28 AM 57.4°F 57.4°F / 58.3°F 57.4°F / 64.9°F 29.92 inHg 58% 0.00″
08/16/2016 02:28 AM 59.4°F 59.2°F / 64.2°F 59.2°F / 64.9°F 29.92 inHg 51% 0.00″
08/16/2016 01:28 AM 62.4°F 62.4°F / 64.6°F 62.4°F / 64.9°F 29.92 inHg 44% 0.00″
08/16/2016 12:28 AM 64.6°F 64.6°F / 64.9°F 64.6°F / 64.9°F 29.93 inHg 40% 0.00″
08/15/2016 11:28 PM 65.1°F 64.9°F / 65.5°F 48.7°F / 78.3°F 29.92 inHg 39% 0.00″
08/15/2016 10:28 PM 65.1°F 64.8°F / 65.3°F 48.7°F / 78.3°F 29.92 inHg 41% 0.00″
08/15/2016 09:28 PM 65.8°F 65.8°F / 66.6°F 48.7°F / 78.3°F 29.91 inHg 47% 0.00″
08/15/2016 08:28 PM 65.3°F 65.3°F / 66.9°F 48.7°F / 78.3°F 29.87 inHg 50% 0.00″
08/15/2016 07:28 PM 68.7°F 68.7°F / 72.9°F 48.7°F / 78.3°F 29.85 inHg 55% 0.00″
08/15/2016 06:28 PM 76.1°F 75.9°F / 76.8°F 48.7°F / 78.3°F 29.85 inHg 40% 0.00″
08/15/2016 05:27 PM 76.6°F 76.3°F / 78.3°F 48.7°F / 78.3°F 29.86 inHg 43% 0.00″
08/15/2016 04:27 PM 76.3°F 74.8°F / 76.3°F 48.7°F / 76.5°F 29.87 inHg 42% 0.00″
08/15/2016 03:27 PM 73.8°F 73.6°F / 75.0°F 48.7°F / 75.0°F 29.89 inHg 46% 0.00″
08/15/2016 02:27 PM 73.0°F 71.1°F / 73.0°F 48.7°F / 73.0°F 29.92 inHg 51% 0.00″
08/15/2016 01:27 PM 70.7°F 69.6°F / 70.7°F 48.7°F / 70.7°F 29.95 inHg 52% 0.00″
08/15/2016 12:27 PM 68.2°F 67.8°F / 68.5°F 48.7°F / 68.5°F 29.97 inHg 56% 0.00″
08/15/2016 11:27 AM 66.2°F 65.3°F / 66.4°F 48.7°F / 66.4°F 30.00 inHg 60% 0.00″
08/15/2016 10:27 AM 64.6°F 63.3°F / 64.8°F 48.7°F / 64.8°F 30.00 inHg 59% 0.00″
08/15/2016 09:27 AM 61.5°F 60.1°F / 61.5°F 48.7°F / 61.5°F 29.99 inHg 62% 0.00″
08/15/2016 08:27 AM 53.8°F 51.1°F / 53.8°F 48.7°F / 59.2°F 29.99 inHg 79% 0.00″
08/15/2016 07:27 AM 49.6°F 49.1°F / 49.6°F 48.7°F / 59.2°F 29.98 inHg 81% 0.00″
08/15/2016 06:27 AM 48.9°F 48.9°F / 50.0°F 48.9°F / 59.2°F 29.97 inHg 81% 0.00″
08/15/2016 05:27 AM 49.5°F 49.5°F / 49.8°F 49.5°F / 59.2°F 29.95 inHg 81% 0.00″
08/15/2016 04:27 AM 50.5°F 50.5°F / 52.5°F 50.5°F / 59.2°F 29.95 inHg 76% 0.00″
08/15/2016 03:27 AM 51.4°F 51.4°F / 53.2°F 51.4°F / 59.2°F 29.94 inHg 75% 0.00″
08/15/2016 02:27 AM 53.8°F 53.8°F / 55.4°F 53.8°F / 59.2°F 29.95 inHg 72% 0.00″
08/15/2016 01:27 AM 57.2°F 57.2°F / 58.3°F 57.2°F / 59.2°F 29.95 inHg 65% 0.00″
08/15/2016 12:27 AM 57.9°F 57.9°F / 59.2°F 57.9°F / 59.2°F 29.95 inHg 65% 0.00″
08/14/2016 11:27 PM 59.2°F 58.8°F / 59.2°F 56.7°F / 70.9°F 29.94 inHg 69% 0.26″
08/14/2016 10:27 PM 59.4°F 59.4°F / 60.3°F 56.7°F / 70.9°F 29.95 inHg 68% 0.26″
08/14/2016 09:27 PM 60.8°F 59.7°F / 60.8°F 56.7°F / 70.9°F 29.93 inHg 65% 0.26″
08/14/2016 08:27 PM 60.6°F 60.6°F / 61.7°F 56.7°F / 70.9°F 29.91 inHg 67% 0.26″
08/14/2016 07:27 PM 64.6°F 64.2°F / 64.9°F 56.7°F / 70.9°F 29.90 inHg 61% 0.26″
08/14/2016 06:27 PM 65.7°F 65.5°F / 66.7°F 56.7°F / 70.9°F 29.88 inHg 63% 0.26″
08/14/2016 05:27 PM 70.5°F 67.3°F / 70.9°F 56.7°F / 70.9°F 29.86 inHg 47% 0.26″
08/14/2016 04:26 PM 69.4°F 66.7°F / 69.4°F 56.7°F / 69.4°F 29.86 inHg 60% 0.26″
08/14/2016 03:26 PM 64.6°F 63.3°F / 65.5°F 56.7°F / 68.5°F 29.89 inHg 75% 0.25″
08/14/2016 02:26 PM 57.7°F 57.4°F / 57.7°F 56.7°F / 68.5°F 29.91 inHg 93% 0.25″
08/14/2016 01:26 PM 58.8°F 58.8°F / 60.1°F 56.7°F / 68.5°F 29.92 inHg 87% 0.08″
08/14/2016 12:26 PM 60.6°F 59.4°F / 63.0°F 56.7°F / 68.5°F 29.92 inHg 80% 0.01″
08/14/2016 11:26 AM 65.1°F 65.1°F / 68.2°F 56.7°F / 68.5°F 29.91 inHg 65% 0.00″
08/14/2016 10:26 AM 65.3°F 65.3°F / 67.5°F 56.7°F / 68.5°F 29.91 inHg 63% 0.00″
08/14/2016 09:26 AM 65.3°F 63.1°F / 65.3°F 56.7°F / 65.3°F 29.91 inHg 58% 0.00″
08/14/2016 08:26 AM 60.8°F 59.4°F / 60.8°F 56.7°F / 61.2°F 29.90 inHg 66% 0.00″
08/14/2016 07:26 AM 57.7°F 57.6°F / 57.7°F 56.7°F / 61.2°F 29.90 inHg 73% 0.00″
08/14/2016 06:26 AM 56.8°F 56.7°F / 56.8°F 56.7°F / 61.2°F 29.89 inHg 75% 0.00″
08/14/2016 05:26 AM 56.8°F 56.8°F / 57.0°F 56.8°F / 61.2°F 29.87 inHg 73% 0.00″
08/14/2016 04:26 AM 57.9°F 57.9°F / 58.5°F 57.9°F / 61.2°F 29.87 inHg 66% 0.00″
08/14/2016 03:25 AM 58.8°F 58.8°F / 59.2°F 58.8°F / 61.2°F 29.87 inHg 67% 0.00″
08/14/2016 02:25 AM 59.9°F 59.9°F / 60.6°F 59.9°F / 61.2°F 29.86 inHg 64% 0.00″
08/14/2016 01:25 AM 60.4°F 60.4°F / 61.0°F 60.4°F / 61.2°F 29.84 inHg 66% 0.00″
08/14/2016 12:25 AM 61.2°F 60.8°F / 61.2°F 60.8°F / 61.2°F 29.86 inHg 67% 0.00″
08/13/2016 11:25 PM 59.4°F 58.6°F / 59.4°F 57.2°F / 75.4°F 29.87 inHg 74% 0.01″
08/13/2016 10:25 PM 59.7°F 59.7°F / 62.1°F 57.2°F / 75.4°F 29.88 inHg 73% 0.00″
08/13/2016 09:25 PM 61.5°F 61.0°F / 61.5°F 57.2°F / 75.4°F 29.85 inHg 68% 0.00″
08/13/2016 08:25 PM 61.3°F 61.3°F / 63.9°F 57.2°F / 75.4°F 29.82 inHg 75% 0.00″
08/13/2016 07:25 PM 64.8°F 64.8°F / 66.0°F 57.2°F / 75.4°F 29.81 inHg 57% 0.00″
08/13/2016 06:25 PM 66.4°F 66.4°F / 70.2°F 57.2°F / 75.4°F 29.78 inHg 59% 0.00″
08/13/2016 05:25 PM 65.8°F 65.7°F / 66.0°F 57.2°F / 75.4°F 29.75 inHg 66% 0.00″
08/13/2016 04:25 PM 68.5°F 67.3°F / 68.7°F 57.2°F / 75.4°F 29.75 inHg 57% 0.00″
08/13/2016 03:25 PM 67.8°F 67.8°F / 68.4°F 57.2°F / 75.4°F 29.78 inHg 55% 0.00″
08/13/2016 02:23 PM 74.3°F 73.9°F / 75.4°F 57.2°F / 75.4°F 29.76 inHg 41% 0.00″
08/13/2016 01:22 PM 73.4°F 71.4°F / 73.4°F 57.2°F / 73.4°F 29.79 inHg 57% 0.00″
08/13/2016 12:22 PM 72.1°F 70.7°F / 72.5°F 57.2°F / 72.5°F 29.82 inHg 50% 0.00″
08/13/2016 11:22 AM 68.9°F 68.7°F / 70.2°F 57.2°F / 71.1°F 29.83 inHg 60% 0.00″
08/13/2016 10:22 AM 69.1°F 68.5°F / 69.1°F 57.2°F / 69.1°F 29.82 inHg 53% 0.00″
08/13/2016 09:22 AM 66.9°F 66.7°F / 67.1°F 57.2°F / 67.1°F 29.82 inHg 65% 0.00″
08/13/2016 08:22 AM 64.9°F 63.7°F / 64.9°F 57.2°F / 64.9°F 29.82 inHg 70% 0.00″
08/13/2016 07:20 AM 62.1°F 61.5°F / 62.1°F 57.2°F / 63.7°F 29.81 inHg 73% 0.00″
08/13/2016 06:20 AM 58.6°F 58.6°F / 59.2°F 57.2°F / 63.7°F 29.81 inHg 64% 0.00″
08/13/2016 05:20 AM 57.7°F 57.2°F / 57.7°F 57.2°F / 63.7°F 29.80 inHg 66% 0.00″
08/13/2016 04:19 AM 60.8°F 60.8°F / 61.5°F 60.8°F / 63.7°F 29.79 inHg 59% 0.00″
08/13/2016 03:19 AM 61.5°F 61.5°F / 61.5°F 61.0°F / 63.7°F 0.00 inHg 59% 0.00″
08/13/2016 12:52 AM 61.2°F 61.2°F / 63.7°F 61.2°F / 63.7°F 29.78 inHg 71% 0.00″
08/12/2016 11:52 PM 64.2°F 64.2°F / 65.8°F 59.0°F / 81.9°F 29.78 inHg 68% 0.00″
08/12/2016 10:52 PM 65.8°F 65.7°F / 66.6°F 59.0°F / 81.9°F 29.76 inHg 74% 0.00″
08/12/2016 09:51 PM 66.9°F 66.9°F / 70.3°F 59.0°F / 81.9°F 29.74 inHg 70% 0.00″
08/12/2016 08:51 PM 70.5°F 70.5°F / 71.2°F 59.0°F / 81.9°F 29.73 inHg 56% 0.00″
08/12/2016 07:51 PM 72.1°F 72.1°F / 78.3°F 59.0°F / 81.9°F 29.71 inHg 51% 0.00″
08/12/2016 06:51 PM 78.8°F 78.1°F / 80.4°F 59.0°F / 81.9°F 29.69 inHg 44% 0.00″
08/12/2016 05:51 PM 79.9°F 79.2°F / 81.9°F 59.0°F / 81.9°F 29.68 inHg 40% 0.00″
08/12/2016 04:51 PM 80.4°F 77.0°F / 80.4°F 59.0°F / 80.8°F 29.68 inHg 47% 0.00″
08/12/2016 03:51 PM 77.4°F 74.1°F / 79.2°F 59.0°F / 80.8°F 29.70 inHg 53% 0.00″
08/12/2016 02:51 PM 79.3°F 75.7°F / 79.3°F 59.0°F / 80.8°F 29.72 inHg 56% 0.00″
08/12/2016 01:51 PM 80.6°F 76.6°F / 80.8°F 59.0°F / 80.8°F 29.73 inHg 42% 0.00″
08/12/2016 12:51 PM 78.8°F 77.0°F / 80.4°F 59.0°F / 80.4°F 29.76 inHg 42% 0.00″
08/12/2016 11:51 AM 76.8°F 75.2°F / 76.8°F 59.0°F / 76.8°F 29.77 inHg 56% 0.00″
08/12/2016 10:51 AM 75.2°F 73.0°F / 75.4°F 59.0°F / 75.4°F 29.78 inHg 59% 0.00″
08/12/2016 09:51 AM 72.7°F 65.7°F / 72.7°F 59.0°F / 72.7°F 29.78 inHg 62% 0.00″
08/12/2016 08:51 AM 64.2°F 61.2°F / 64.2°F 59.0°F / 64.2°F 29.78 inHg 82% 0.00″
08/12/2016 07:51 AM 60.4°F 59.0°F / 60.4°F 59.0°F / 63.9°F 29.78 inHg 83% 0.00″
08/12/2016 06:50 AM 60.1°F 59.9°F / 61.5°F 59.2°F / 63.9°F 29.76 inHg 85% 0.00″
08/12/2016 05:49 AM 59.7°F 59.2°F / 60.1°F 59.2°F / 63.9°F 29.75 inHg 86% 0.00″
08/12/2016 04:49 AM 60.1°F 60.1°F / 60.6°F 59.5°F / 63.9°F 29.75 inHg 85% 0.00″
08/12/2016 03:48 AM 60.1°F 59.5°F / 60.4°F 59.5°F / 63.9°F 29.75 inHg 86% 0.00″
08/12/2016 01:43 AM 62.1°F 62.1°F / 63.0°F 61.9°F / 63.9°F 29.75 inHg 83% 0.00″
08/12/2016 12:41 AM 63.1°F 61.9°F / 63.1°F 61.9°F / 63.1°F 29.77 inHg 80% 0.00″
08/11/2016 11:40 PM 63.5°F 63.5°F / 63.9°F 57.2°F / 78.6°F 29.78 inHg 77% 1.28″
08/11/2016 10:40 PM 64.0°F 64.0°F / 66.6°F 57.2°F / 78.6°F 29.79 inHg 77% 1.28″
08/11/2016 09:40 PM 66.7°F 65.8°F / 66.9°F 57.2°F / 78.6°F 29.78 inHg 69% 1.28″
08/11/2016 08:40 PM 68.2°F 68.2°F / 69.1°F 57.2°F / 78.6°F 29.77 inHg 66% 1.28″
08/11/2016 07:39 PM 69.3°F 69.3°F / 71.2°F 57.2°F / 78.6°F 29.75 inHg 56% 1.28″
08/11/2016 06:39 PM 74.5°F 74.5°F / 77.2°F 57.2°F / 78.6°F 29.73 inHg 54% 1.28″
08/11/2016 05:39 PM 78.4°F 76.8°F / 78.6°F 57.2°F / 78.6°F 29.72 inHg 50% 1.28″
08/11/2016 04:39 PM 76.8°F 75.4°F / 77.7°F 57.2°F / 77.7°F 29.73 inHg 57% 1.28″
08/11/2016 03:39 PM 76.8°F 74.7°F / 76.8°F 57.2°F / 76.8°F 29.73 inHg 59% 1.28″
08/11/2016 02:39 PM 75.7°F 73.6°F / 76.1°F 57.2°F / 76.1°F 29.76 inHg 62% 1.28″
08/11/2016 01:39 PM 71.8°F 70.2°F / 72.1°F 57.2°F / 72.1°F 29.78 inHg 75% 1.28″
08/11/2016 12:39 PM 70.3°F 69.3°F / 70.5°F 57.2°F / 70.5°F 29.80 inHg 78% 1.28″
08/11/2016 11:39 AM 66.7°F 66.6°F / 67.3°F 57.2°F / 70.5°F 29.82 inHg 89% 1.28″
08/11/2016 10:39 AM 68.0°F 67.8°F / 70.5°F 57.2°F / 70.5°F 29.81 inHg 89% 1.28″
08/11/2016 09:39 AM 66.7°F 62.2°F / 66.7°F 57.2°F / 66.7°F 29.80 inHg 87% 1.28″
08/11/2016 08:39 AM 61.2°F 61.2°F / 62.1°F 57.2°F / 64.9°F 29.80 inHg 97% 1.28″
08/11/2016 07:38 AM 61.2°F 61.0°F / 61.3°F 57.2°F / 64.9°F 29.80 inHg 97% 1.28″
08/11/2016 06:38 AM 60.4°F 60.4°F / 61.0°F 57.2°F / 64.9°F 29.79 inHg 96% 1.27″
08/11/2016 05:38 AM 60.4°F 59.5°F / 60.4°F 57.2°F / 64.9°F 29.79 inHg 96% 1.27″
08/11/2016 04:38 AM 59.4°F 58.8°F / 59.4°F 57.2°F / 64.9°F 29.78 inHg 96% 1.27″
08/11/2016 03:38 AM 58.3°F 57.6°F / 58.5°F 57.2°F / 64.9°F 29.79 inHg 94% 1.24″
08/11/2016 02:38 AM 57.2°F 57.2°F / 59.4°F 57.2°F / 64.9°F 29.79 inHg 94% 1.21″
08/11/2016 01:38 AM 60.6°F 60.6°F / 61.3°F 60.6°F / 64.9°F 29.81 inHg 94% 0.86″
08/11/2016 01:18 AM 61.0°F 61.0°F / 61.3°F 61.0°F / 64.9°F 29.79 inHg 94% 0.41″
08/11/2016 12:18 AM 62.4°F 62.4°F / 64.9°F 62.4°F / 64.9°F 29.80 inHg 90% 0.05″
08/10/2016 11:18 PM 66.4°F 66.2°F / 67.1°F 59.5°F / 77.2°F 29.81 inHg 74% 0.05″
08/10/2016 10:18 PM 68.0°F 67.5°F / 68.0°F 59.5°F / 77.2°F 29.80 inHg 68% 0.05″
08/10/2016 09:18 PM 67.6°F 67.6°F / 68.2°F 59.5°F / 77.2°F 29.79 inHg 71% 0.05″
08/10/2016 08:18 PM 68.4°F 68.4°F / 69.1°F 59.5°F / 77.2°F 29.76 inHg 70% 0.05″
08/10/2016 07:18 PM 72.3°F 71.8°F / 72.3°F 59.5°F / 77.2°F 29.75 inHg 59% 0.05″
08/10/2016 06:18 PM 75.9°F 73.4°F / 75.9°F 59.5°F / 76.3°F 29.74 inHg 55% 0.05″
08/10/2016 05:18 PM 73.6°F 73.2°F / 74.8°F 59.5°F / 76.3°F 29.75 inHg 59% 0.05″
08/10/2016 04:18 PM 73.0°F 72.9°F / 73.2°F 59.5°F / 75.4°F 29.75 inHg 58% 0.05″
08/10/2016 03:18 PM 73.9°F 73.9°F / 75.0°F 59.5°F / 75.0°F 29.77 inHg 57% 0.05″
08/10/2016 02:18 PM 71.1°F 70.5°F / 71.1°F 59.5°F / 72.0°F 29.79 inHg 67% 0.05″
08/10/2016 01:18 PM 69.1°F 68.5°F / 69.6°F 59.5°F / 69.6°F 29.80 inHg 72% 0.05″
08/10/2016 12:18 PM 68.9°F 68.2°F / 69.1°F 59.5°F / 69.1°F 29.81 inHg 76% 0.05″
08/10/2016 11:18 AM 68.2°F 67.3°F / 68.5°F 59.5°F / 68.9°F 29.82 inHg 81% 0.05″
08/10/2016 10:17 AM 68.4°F 65.5°F / 68.4°F 59.5°F / 68.4°F 29.80 inHg 80% 0.05″
08/10/2016 09:17 AM 63.7°F 63.3°F / 64.0°F 59.5°F / 64.0°F 29.81 inHg 87% 0.05″
08/10/2016 08:17 AM 61.2°F 61.2°F / 61.5°F 59.5°F / 62.2°F 29.81 inHg 95% 0.05″
08/10/2016 07:17 AM 61.0°F 60.4°F / 61.0°F 59.5°F / 62.2°F 29.80 inHg 93% 0.02″
08/10/2016 06:17 AM 61.0°F 61.0°F / 61.5°F 59.5°F / 62.2°F 29.80 inHg 91% 0.02″
08/10/2016 05:17 AM 61.5°F 61.5°F / 61.9°F 59.5°F / 62.2°F 29.78 inHg 84% 0.01″
08/10/2016 04:17 AM 61.0°F 60.4°F / 61.0°F 59.5°F / 61.2°F 29.78 inHg 84% 0.01″
08/10/2016 03:16 AM 60.1°F 60.1°F / 60.1°F 59.5°F / 61.2°F 29.78 inHg 86% 0.01″
08/10/2016 02:16 AM 59.9°F 59.7°F / 60.3°F 59.5°F / 61.2°F 29.78 inHg 86% 0.01″
08/10/2016 01:15 AM 60.6°F 60.3°F / 60.8°F 59.5°F / 61.2°F 29.78 inHg 82% 0.01″
08/10/2016 12:15 AM 60.3°F 60.3°F / 61.2°F 60.3°F / 61.2°F 29.79 inHg 82% 0.01″
08/09/2016 11:15 PM 61.7°F 61.7°F / 61.9°F 60.3°F / 76.6°F 29.77 inHg 77% 0.03″
08/09/2016 10:15 PM 61.7°F 61.3°F / 61.9°F 60.3°F / 76.6°F 29.77 inHg 80% 0.03″
08/09/2016 09:15 PM 66.7°F 66.7°F / 68.0°F 60.3°F / 76.6°F 29.75 inHg 64% 0.00″
08/09/2016 08:15 PM 68.0°F 68.0°F / 69.1°F 60.3°F / 76.6°F 29.71 inHg 61% 0.00″
08/09/2016 07:15 PM 70.0°F 70.0°F / 70.3°F 60.3°F / 76.6°F 29.69 inHg 54% 0.00″
08/09/2016 06:15 PM 70.9°F 70.7°F / 72.7°F 60.3°F / 76.6°F 29.68 inHg 60% 0.00″
08/09/2016 05:15 PM 73.0°F 72.1°F / 73.0°F 60.3°F / 76.6°F 29.66 inHg 59% 0.00″
08/09/2016 04:15 PM 73.8°F 73.2°F / 73.9°F 60.3°F / 76.6°F 29.66 inHg 54% 0.00″
08/09/2016 03:15 PM 71.1°F 70.9°F / 71.2°F 60.3°F / 76.6°F 29.68 inHg 61% 0.00″
08/09/2016 02:15 PM 70.5°F 70.3°F / 72.3°F 60.3°F / 76.6°F 29.69 inHg 69% 0.00″
08/09/2016 01:15 PM 74.1°F 73.6°F / 74.8°F 60.3°F / 75.0°F 29.70 inHg 60% 0.00″
08/09/2016 12:15 PM 71.8°F 71.1°F / 71.8°F 60.3°F / 73.8°F 29.71 inHg 59% 0.00″
08/09/2016 11:14 AM 71.8°F 71.8°F / 73.8°F 60.3°F / 73.8°F 29.71 inHg 57% 0.00″
08/09/2016 10:14 AM 71.8°F 70.2°F / 71.8°F 60.3°F / 71.8°F 29.71 inHg 54% 0.00″
08/09/2016 09:14 AM 64.0°F 63.1°F / 64.0°F 60.3°F / 64.0°F 29.71 inHg 82% 0.00″
08/09/2016 08:14 AM 61.2°F 61.2°F / 62.4°F 60.3°F / 64.0°F 29.71 inHg 82% 0.00″
08/09/2016 07:14 AM 63.7°F 63.7°F / 63.9°F 60.3°F / 64.0°F 29.70 inHg 67% 0.00″
08/09/2016 06:13 AM 64.0°F 63.7°F / 64.0°F 60.3°F / 64.0°F 29.68 inHg 65% 0.00″
08/09/2016 05:12 AM 63.7°F 63.3°F / 63.7°F 60.3°F / 64.0°F 29.66 inHg 68% 0.00″
08/09/2016 04:12 AM 61.3°F 61.3°F / 62.1°F 60.3°F / 64.0°F 29.66 inHg 78% 0.00″
08/09/2016 03:12 AM 61.2°F 60.3°F / 61.2°F 60.3°F / 62.2°F 29.65 inHg 75% 0.00″
08/09/2016 02:12 AM 61.0°F 61.0°F / 61.3°F 60.4°F / 62.2°F 29.65 inHg 80% 0.00″
08/09/2016 01:12 AM 61.9°F 61.3°F / 61.9°F 60.4°F / 61.9°F 29.67 inHg 72% 0.00″
08/09/2016 12:12 AM 60.6°F 60.4°F / 60.6°F 60.4°F / 60.6°F 29.68 inHg 79% 0.00″
08/08/2016 11:11 PM 61.7°F 61.7°F / 61.9°F 61.5°F / 86.0°F 29.69 inHg 80% 0.08″
08/08/2016 10:10 PM 65.1°F 65.1°F / 67.1°F 63.1°F / 86.0°F 29.70 inHg 75% 0.00″
08/08/2016 09:55 PM 67.6°F 66.7°F / 73.6°F 63.1°F / 86.0°F 29.69 inHg 63% 0.00″
08/08/2016 08:55 PM 73.9°F 73.8°F / 75.6°F 63.1°F / 86.0°F 29.65 inHg 45% 0.00″
08/08/2016 07:55 PM 76.1°F 76.1°F / 79.3°F 63.1°F / 86.0°F 29.61 inHg 40% 0.00″
08/08/2016 06:55 PM 80.1°F 80.1°F / 84.7°F 63.1°F / 86.0°F 29.61 inHg 33% 0.00″
08/08/2016 05:55 PM 84.4°F 82.2°F / 85.5°F 63.1°F / 86.0°F 29.61 inHg 27% 0.00″
08/08/2016 04:55 PM 84.2°F 83.7°F / 86.0°F 63.1°F / 86.0°F 29.62 inHg 25% 0.00″
08/08/2016 03:55 PM 85.1°F 84.2°F / 85.6°F 63.1°F / 85.6°F 29.62 inHg 26% 0.00″
08/08/2016 02:55 PM 84.0°F 81.3°F / 85.3°F 63.1°F / 85.3°F 29.65 inHg 32% 0.00″
08/08/2016 01:55 PM 82.0°F 80.8°F / 82.9°F 63.1°F / 82.9°F 29.68 inHg 37% 0.00″
08/08/2016 12:55 PM 81.3°F 78.6°F / 81.7°F 63.1°F / 81.7°F 29.70 inHg 34% 0.00″
08/08/2016 11:55 AM 78.3°F 76.6°F / 79.3°F 63.1°F / 79.3°F 29.73 inHg 39% 0.00″
08/08/2016 10:55 AM 76.6°F 75.6°F / 77.2°F 63.1°F / 77.2°F 29.74 inHg 47% 0.00″
08/08/2016 09:55 AM 75.6°F 73.6°F / 75.9°F 63.1°F / 75.9°F 29.73 inHg 42% 0.00″
08/08/2016 08:55 AM 73.8°F 67.1°F / 73.8°F 63.1°F / 73.8°F 29.73 inHg 44% 0.00″
08/08/2016 07:55 AM 66.4°F 63.1°F / 66.4°F 63.1°F / 68.4°F 29.73 inHg 56% 0.00″
08/08/2016 06:54 AM 64.6°F 64.6°F / 66.0°F 63.1°F / 68.4°F 29.71 inHg 59% 0.00″
08/08/2016 05:54 AM 66.4°F 65.8°F / 66.7°F 63.1°F / 68.4°F 29.71 inHg 51% 0.00″
08/08/2016 04:54 AM 66.4°F 64.9°F / 68.0°F 63.1°F / 68.4°F 29.70 inHg 51% 0.00″
08/08/2016 03:54 AM 64.6°F 63.1°F / 66.7°F 63.1°F / 68.4°F 29.69 inHg 54% 0.00″
08/08/2016 02:54 AM 66.7°F 66.2°F / 67.3°F 65.3°F / 68.4°F 29.70 inHg 52% 0.00″
08/08/2016 01:54 AM 67.3°F 66.7°F / 68.4°F 65.3°F / 68.4°F 29.72 inHg 55% 0.00″
08/08/2016 12:53 AM 66.2°F 65.3°F / 66.2°F 65.3°F / 66.2°F 29.75 inHg 56% 0.00″
08/07/2016 11:53 PM 66.6°F 65.5°F / 66.9°F 61.9°F / 79.2°F 29.74 inHg 53% 0.00″
08/07/2016 10:52 PM 66.7°F 64.9°F / 67.6°F 61.9°F / 79.2°F 29.74 inHg 51% 0.00″
08/07/2016 09:52 PM 66.4°F 66.0°F / 67.3°F 61.9°F / 79.2°F 29.74 inHg 52% 0.00″
08/07/2016 08:52 PM 66.2°F 66.0°F / 70.2°F 61.9°F / 79.2°F 29.73 inHg 49% 0.00″
08/07/2016 07:52 PM 70.3°F 70.3°F / 72.7°F 61.9°F / 79.2°F 29.72 inHg 41% 0.00″
08/07/2016 06:52 PM 73.0°F 73.0°F / 73.9°F 61.9°F / 79.2°F 29.71 inHg 40% 0.00″
08/07/2016 05:51 PM 73.9°F 69.3°F / 73.9°F 61.9°F / 79.2°F 29.70 inHg 42% 0.00″
08/07/2016 04:49 PM 69.1°F 68.7°F / 71.4°F 61.9°F / 79.2°F 29.70 inHg 53% 0.00″
08/07/2016 03:49 PM 75.0°F 74.8°F / 77.7°F 61.9°F / 79.2°F 29.70 inHg 43% 0.00″
08/07/2016 02:47 PM 74.8°F 73.9°F / 76.6°F 61.9°F / 79.2°F 29.73 inHg 45% 0.00″
08/07/2016 01:47 PM 72.1°F 72.1°F / 79.2°F 61.9°F / 79.2°F 29.74 inHg 45% 0.00″
08/07/2016 12:47 PM 71.2°F 66.4°F / 71.2°F 61.9°F / 76.5°F 29.74 inHg 55% 0.00″
08/07/2016 11:44 AM 66.7°F 66.6°F / 71.8°F 61.9°F / 76.5°F 0.00 inHg 62% 0.00″
08/07/2016 10:41 AM 72.3°F 72.3°F / 76.3°F 61.9°F / 76.5°F 29.76 inHg 53% 0.00″
08/07/2016 09:40 AM 75.4°F 72.3°F / 75.4°F 61.9°F / 75.4°F 29.74 inHg 46% 0.00″
08/07/2016 08:40 AM 68.5°F 65.5°F / 68.5°F 61.9°F / 68.5°F 29.74 inHg 64% 0.00″
08/07/2016 07:40 AM 64.9°F 61.9°F / 64.9°F 61.9°F / 68.0°F 0.00 inHg 59% 0.00″
08/07/2016 06:46 AM 64.0°F 64.0°F / 65.1°F 64.0°F / 68.0°F 29.72 inHg 59% 0.00″
08/07/2016 05:46 AM 64.8°F 64.8°F / 65.8°F 64.2°F / 68.0°F 29.72 inHg 57% 0.00″
08/07/2016 04:45 AM 65.8°F 65.7°F / 65.8°F 64.2°F / 68.0°F 29.72 inHg 56% 0.00″
08/07/2016 03:45 AM 65.8°F 64.9°F / 66.0°F 64.2°F / 68.0°F 29.72 inHg 55% 0.00″
08/07/2016 02:45 AM 67.5°F 67.5°F / 67.8°F 64.2°F / 68.0°F 29.73 inHg 51% 0.00″
08/07/2016 01:45 AM 67.8°F 67.5°F / 68.0°F 64.2°F / 68.0°F 29.74 inHg 52% 0.00″
08/07/2016 12:45 AM 66.4°F 64.2°F / 66.4°F 64.2°F / 66.4°F 29.75 inHg 56% 0.00″
08/06/2016 11:45 PM 63.1°F 62.2°F / 63.9°F 58.5°F / 82.4°F 29.78 inHg 61% 0.01″
08/06/2016 10:45 PM 65.1°F 65.1°F / 66.9°F 58.5°F / 82.4°F 29.82 inHg 60% 0.01″
08/06/2016 09:45 PM 68.2°F 66.6°F / 68.4°F 58.5°F / 82.4°F 29.76 inHg 48% 0.01″
08/06/2016 08:44 PM 67.3°F 67.3°F / 68.0°F 58.5°F / 82.4°F 29.73 inHg 56% 0.01″
08/06/2016 07:44 PM 67.6°F 67.3°F / 68.4°F 58.5°F / 82.4°F 29.73 inHg 53% 0.01″
08/06/2016 06:44 PM 68.7°F 68.7°F / 75.9°F 58.5°F / 82.4°F 29.70 inHg 54% 0.01″
08/06/2016 05:44 PM 76.6°F 76.6°F / 82.2°F 58.5°F / 82.4°F 29.68 inHg 38% 0.01″
08/06/2016 04:44 PM 81.3°F 80.4°F / 82.0°F 58.5°F / 82.4°F 29.68 inHg 38% 0.01″
08/06/2016 03:44 PM 81.9°F 79.0°F / 81.9°F 58.5°F / 81.9°F 29.70 inHg 43% 0.01″
08/06/2016 02:44 PM 79.3°F 73.9°F / 79.3°F 58.5°F / 79.3°F 29.73 inHg 44% 0.01″
08/06/2016 01:44 PM 74.1°F 72.7°F / 74.3°F 58.5°F / 76.8°F 29.74 inHg 54% 0.01″
08/06/2016 12:44 PM 74.8°F 70.5°F / 74.8°F 58.5°F / 76.8°F 29.75 inHg 53% 0.01″
08/06/2016 11:44 AM 70.5°F 70.5°F / 75.4°F 58.5°F / 76.8°F 29.77 inHg 60% 0.01″
08/06/2016 10:44 AM 76.5°F 72.9°F / 76.5°F 58.5°F / 76.5°F 29.76 inHg 46% 0.01″
08/06/2016 09:44 AM 72.1°F 67.3°F / 72.1°F 58.5°F / 72.1°F 29.76 inHg 51% 0.01″
08/06/2016 08:44 AM 64.9°F 62.1°F / 64.9°F 58.5°F / 66.7°F 29.77 inHg 68% 0.01″
08/06/2016 07:43 AM 62.8°F 62.8°F / 64.2°F 58.5°F / 66.7°F 29.76 inHg 68% 0.01″
08/06/2016 06:43 AM 64.2°F 64.2°F / 65.8°F 58.5°F / 66.7°F 29.74 inHg 61% 0.01″
08/06/2016 05:43 AM 66.0°F 64.9°F / 66.7°F 58.5°F / 66.7°F 29.73 inHg 56% 0.01″
08/06/2016 04:43 AM 64.4°F 63.3°F / 64.6°F 58.5°F / 64.6°F 29.74 inHg 65% 0.01″
08/06/2016 03:43 AM 61.3°F 60.8°F / 61.5°F 58.5°F / 62.2°F 29.73 inHg 75% 0.01″
08/06/2016 02:43 AM 61.7°F 61.3°F / 62.2°F 58.5°F / 62.2°F 29.74 inHg 77% 0.01″
08/06/2016 01:43 AM 60.8°F 59.7°F / 61.5°F 58.5°F / 61.5°F 29.75 inHg 77% 0.01″
08/06/2016 12:43 AM 58.8°F 58.5°F / 58.8°F 58.5°F / 58.8°F 29.75 inHg 88% 0.01″
08/05/2016 11:43 PM 58.8°F 58.6°F / 61.0°F 58.6°F / 82.6°F 29.76 inHg 84% 0.11″
08/05/2016 10:43 PM 65.8°F 65.8°F / 70.7°F 59.2°F / 82.6°F 29.76 inHg 68% 0.02″
08/05/2016 09:43 PM 68.5°F 68.5°F / 69.4°F 59.2°F / 82.6°F 29.73 inHg 54% 0.00″
08/05/2016 08:43 PM 69.3°F 69.1°F / 72.0°F 59.2°F / 82.6°F 29.71 inHg 56% 0.00″
08/05/2016 07:43 PM 72.7°F 72.7°F / 75.0°F 59.2°F / 82.6°F 29.68 inHg 52% 0.00″
08/05/2016 06:43 PM 76.3°F 76.3°F / 80.1°F 59.2°F / 82.6°F 29.65 inHg 53% 0.00″
08/05/2016 05:43 PM 82.2°F 77.2°F / 82.2°F 59.2°F / 82.2°F 29.65 inHg 45% 0.00″
08/05/2016 04:43 PM 77.2°F 76.5°F / 79.0°F 59.2°F / 82.2°F 29.67 inHg 48% 0.00″
08/05/2016 03:43 PM 79.3°F 78.3°F / 81.7°F 59.2°F / 82.2°F 29.67 inHg 45% 0.00″
08/05/2016 02:43 PM 79.3°F 77.7°F / 79.3°F 59.2°F / 79.3°F 29.69 inHg 43% 0.00″
08/05/2016 01:43 PM 76.5°F 76.5°F / 78.4°F 59.2°F / 78.4°F 29.71 inHg 47% 0.00″
08/05/2016 12:43 PM 77.4°F 76.6°F / 78.1°F 59.2°F / 78.3°F 29.73 inHg 48% 0.00″
08/05/2016 11:42 AM 76.6°F 74.8°F / 77.4°F 59.2°F / 77.4°F 29.75 inHg 52% 0.00″
08/05/2016 10:42 AM 75.4°F 74.1°F / 75.7°F 59.2°F / 75.7°F 29.75 inHg 51% 0.00″
08/05/2016 09:42 AM 73.4°F 70.5°F / 73.4°F 59.2°F / 73.4°F 29.75 inHg 53% 0.00″
08/05/2016 08:42 AM 68.9°F 63.0°F / 68.9°F 59.2°F / 68.9°F 29.75 inHg 60% 0.00″
08/05/2016 07:42 AM 63.1°F 59.7°F / 63.3°F 59.2°F / 66.0°F 29.73 inHg 69% 0.00″
08/05/2016 06:42 AM 59.2°F 59.2°F / 62.2°F 59.2°F / 66.0°F 29.73 inHg 75% 0.00″
08/05/2016 05:42 AM 62.2°F 61.0°F / 62.2°F 61.0°F / 66.0°F 29.73 inHg 66% 0.00″
08/05/2016 04:42 AM 63.7°F 63.7°F / 65.8°F 63.0°F / 66.0°F 29.73 inHg 64% 0.00″
08/05/2016 03:42 AM 65.7°F 65.1°F / 65.7°F 63.0°F / 65.8°F 29.71 inHg 59% 0.00″
08/05/2016 02:42 AM 65.7°F 65.7°F / 65.8°F 63.0°F / 65.8°F 29.72 inHg 57% 0.00″
08/05/2016 01:42 AM 65.7°F 65.1°F / 65.7°F 63.0°F / 65.7°F 29.73 inHg 57% 0.00″
08/05/2016 12:41 AM 64.8°F 63.0°F / 64.8°F 63.0°F / 64.8°F 29.73 inHg 57% 0.00″
08/04/2016 11:41 PM 64.2°F 62.4°F / 64.6°F 59.5°F / 82.2°F 29.74 inHg 60% 0.00″
08/04/2016 10:41 PM 64.2°F 64.2°F / 66.9°F 59.5°F / 82.2°F 29.75 inHg 61% 0.00″
08/04/2016 09:41 PM 66.7°F 66.7°F / 68.5°F 59.5°F / 82.2°F 29.75 inHg 54% 0.00″
08/04/2016 08:41 PM 68.5°F 68.5°F / 71.8°F 59.5°F / 82.2°F 29.72 inHg 50% 0.00″
08/04/2016 07:41 PM 74.7°F 74.7°F / 79.0°F 59.5°F / 82.2°F 29.71 inHg 39% 0.00″
08/04/2016 06:41 PM 79.5°F 79.5°F / 80.8°F 59.5°F / 82.2°F 29.69 inHg 34% 0.00″
08/04/2016 05:41 PM 81.3°F 79.7°F / 82.2°F 59.5°F / 82.2°F 29.70 inHg 35% 0.00″
08/04/2016 04:41 PM 79.9°F 79.2°F / 82.2°F 59.5°F / 82.2°F 29.72 inHg 36% 0.00″
08/04/2016 03:41 PM 80.2°F 80.2°F / 81.5°F 59.5°F / 81.5°F 29.74 inHg 36% 0.00″
08/04/2016 02:41 PM 81.0°F 79.5°F / 81.1°F 59.5°F / 81.1°F 29.74 inHg 34% 0.00″
08/04/2016 01:41 PM 79.3°F 78.4°F / 79.3°F 59.5°F / 79.3°F 29.77 inHg 40% 0.00″
08/04/2016 12:41 PM 78.1°F 76.5°F / 78.3°F 59.5°F / 78.3°F 29.78 inHg 41% 0.00″
08/04/2016 11:41 AM 76.8°F 73.9°F / 76.8°F 59.5°F / 76.8°F 29.79 inHg 43% 0.00″
08/04/2016 10:41 AM 72.5°F 70.0°F / 72.5°F 59.5°F / 72.5°F 29.79 inHg 59% 0.00″
08/04/2016 09:41 AM 68.7°F 66.9°F / 69.3°F 59.5°F / 69.3°F 29.78 inHg 62% 0.00″
08/04/2016 08:41 AM 64.9°F 62.8°F / 64.9°F 59.5°F / 64.9°F 29.79 inHg 73% 0.00″
08/04/2016 07:40 AM 62.1°F 61.3°F / 62.1°F 59.5°F / 64.2°F 29.82 inHg 81% 0.00″
08/04/2016 06:40 AM 61.7°F 61.7°F / 62.6°F 59.5°F / 64.2°F 29.81 inHg 86% 0.00″
08/04/2016 05:40 AM 63.3°F 61.2°F / 64.2°F 59.5°F / 64.2°F 29.77 inHg 80% 0.00″
08/04/2016 04:40 AM 61.2°F 60.6°F / 61.9°F 59.5°F / 62.6°F 29.76 inHg 86% 0.00″
08/04/2016 03:40 AM 61.5°F 59.5°F / 61.9°F 59.5°F / 62.6°F 29.77 inHg 85% 0.00″
08/04/2016 02:40 AM 60.6°F 60.6°F / 61.2°F 60.6°F / 62.6°F 29.77 inHg 84% 0.00″
08/04/2016 01:40 AM 61.7°F 61.7°F / 62.6°F 61.7°F / 62.6°F 29.77 inHg 80% 0.00″
08/04/2016 12:40 AM 62.4°F 62.2°F / 62.6°F 62.2°F / 62.6°F 29.78 inHg 79% 0.00″
08/03/2016 11:40 PM 62.2°F 60.4°F / 62.2°F 58.6°F / 80.1°F 29.80 inHg 82% 0.57″
08/03/2016 10:40 PM 61.7°F 60.4°F / 62.1°F 58.6°F / 80.1°F 29.79 inHg 85% 0.57″
08/03/2016 09:40 PM 61.3°F 61.3°F / 63.0°F 58.6°F / 80.1°F 0.00 inHg 87% 0.57″
08/03/2016 09:17 PM 62.1°F 62.1°F / 63.0°F 58.6°F / 80.1°F 29.78 inHg 84% 0.57″
08/03/2016 08:14 PM 63.7°F 63.7°F / 63.9°F 58.6°F / 80.1°F 29.76 inHg 80% 0.57″
08/03/2016 07:13 PM 64.0°F 63.7°F / 64.0°F 58.6°F / 80.1°F 29.74 inHg 84% 0.57″
08/03/2016 06:13 PM 64.0°F 63.5°F / 64.0°F 58.6°F / 80.1°F 29.75 inHg 91% 0.57″
08/03/2016 05:13 PM 63.0°F 62.1°F / 63.0°F 58.6°F / 80.1°F 29.77 inHg 87% 0.57″
08/03/2016 04:13 PM 68.5°F 68.5°F / 77.0°F 58.6°F / 80.1°F 29.74 inHg 67% 0.01″
08/03/2016 04:08 PM 75.7°F 75.7°F / 77.0°F 58.6°F / 80.1°F 29.76 inHg 51% 0.01″
08/03/2016 03:08 PM 77.4°F 76.8°F / 78.1°F 58.6°F / 79.7°F 29.77 inHg 49% 0.01″
08/03/2016 02:08 PM 79.5°F 75.9°F / 79.5°F 58.6°F / 79.5°F 29.80 inHg 50% 0.01″
08/03/2016 01:08 PM 76.5°F 75.7°F / 76.6°F 58.6°F / 77.7°F 29.83 inHg 55% 0.01″
08/03/2016 12:08 PM 76.1°F 73.9°F / 76.3°F 58.6°F / 76.3°F 29.84 inHg 53% 0.01″
08/03/2016 11:08 AM 72.3°F 72.3°F / 72.7°F 58.6°F / 72.7°F 29.85 inHg 57% 0.01″
08/03/2016 10:08 AM 70.3°F 69.6°F / 70.3°F 58.6°F / 70.3°F 29.86 inHg 56% 0.01″
08/03/2016 09:08 AM 65.1°F 64.8°F / 65.1°F 58.6°F / 65.1°F 29.86 inHg 78% 0.01″
08/03/2016 08:08 AM 62.4°F 62.1°F / 62.6°F 58.6°F / 64.8°F 29.86 inHg 82% 0.01″
08/03/2016 07:08 AM 59.2°F 58.8°F / 59.2°F 58.6°F / 64.8°F 29.88 inHg 90% 0.01″
08/03/2016 06:08 AM 60.1°F 60.1°F / 60.4°F 58.8°F / 64.8°F 29.87 inHg 79% 0.00″
08/03/2016 05:07 AM 61.9°F 61.9°F / 62.2°F 58.8°F / 64.8°F 29.85 inHg 67% 0.00″
08/03/2016 04:07 AM 60.8°F 60.6°F / 60.8°F 58.8°F / 64.8°F 29.84 inHg 64% 0.00″
08/03/2016 03:07 AM 58.8°F 58.8°F / 59.4°F 58.8°F / 64.8°F 29.85 inHg 67% 0.00″
08/03/2016 02:07 AM 61.7°F 61.7°F / 62.2°F 61.7°F / 64.8°F 29.84 inHg 62% 0.00″
08/03/2016 01:07 AM 64.2°F 64.2°F / 64.8°F 63.0°F / 64.8°F 29.85 inHg 56% 0.00″
08/03/2016 12:07 AM 64.6°F 64.6°F / 64.8°F 64.6°F / 64.8°F 29.85 inHg 62% 0.00″
08/02/2016 11:06 PM 67.6°F 67.6°F / 67.6°F 59.9°F / 75.7°F 29.86 inHg 56% 0.00″
08/02/2016 10:06 PM 68.7°F 68.5°F / 68.7°F 59.9°F / 75.7°F 29.86 inHg 59% 0.00″
08/02/2016 09:06 PM 69.3°F 69.1°F / 69.3°F 59.9°F / 75.7°F 29.82 inHg 60% 0.00″
08/02/2016 08:06 PM 70.3°F 70.3°F / 70.7°F 59.9°F / 75.7°F 29.81 inHg 59% 0.00″
08/02/2016 07:06 PM 74.8°F 74.8°F / 75.0°F 59.9°F / 75.7°F 29.78 inHg 50% 0.00″
08/02/2016 06:06 PM 75.2°F 75.2°F / 75.4°F 59.9°F / 75.7°F 29.77 inHg 49% 0.00″
08/02/2016 05:06 PM 75.0°F 75.0°F / 75.4°F 59.9°F / 75.6°F 29.78 inHg 52% 0.00″
08/02/2016 04:05 PM 73.9°F 73.9°F / 74.1°F 59.9°F / 75.6°F 29.79 inHg 57% 0.00″
08/02/2016 03:05 PM 74.7°F 73.8°F / 74.7°F 59.9°F / 75.6°F 29.82 inHg 57% 0.00″
08/02/2016 02:05 PM 71.4°F 71.4°F / 71.8°F 59.9°F / 75.6°F 29.84 inHg 60% 0.00″
08/02/2016 01:05 PM 71.1°F 71.1°F / 71.1°F 59.9°F / 75.6°F 29.86 inHg 65% 0.00″
08/02/2016 12:05 PM 72.3°F 72.3°F / 72.5°F 59.9°F / 75.6°F 29.86 inHg 61% 0.00″
08/02/2016 11:05 AM 74.3°F 74.3°F / 74.7°F 59.9°F / 75.0°F 29.86 inHg 56% 0.00″
08/02/2016 10:05 AM 72.7°F 72.1°F / 72.7°F 59.9°F / 72.7°F 29.86 inHg 52% 0.00″
08/02/2016 09:05 AM 68.5°F 68.5°F / 68.5°F 59.9°F / 68.5°F 29.86 inHg 57% 0.00″
08/02/2016 08:05 AM 63.1°F 62.8°F / 63.1°F 59.9°F / 65.5°F 29.86 inHg 70% 0.00″
08/02/2016 07:05 AM 60.1°F 59.9°F / 60.1°F 59.9°F / 65.5°F 29.84 inHg 73% 0.00″
08/02/2016 06:05 AM 60.1°F 59.9°F / 60.1°F 59.9°F / 65.5°F 29.83 inHg 74% 0.00″
08/02/2016 05:05 AM 60.1°F 60.1°F / 60.3°F 60.1°F / 65.5°F 29.83 inHg 74% 0.00″
08/02/2016 04:05 AM 61.3°F 61.2°F / 61.3°F 61.2°F / 65.5°F 29.82 inHg 73% 0.00″
08/02/2016 03:05 AM 63.0°F 63.0°F / 63.0°F 62.2°F / 65.5°F 29.83 inHg 73% 0.00″
08/02/2016 02:05 AM 63.5°F 63.5°F / 63.9°F 63.5°F / 65.5°F 29.84 inHg 74% 0.00″
08/02/2016 01:05 AM 64.2°F 64.2°F / 64.4°F 64.2°F / 65.5°F 29.84 inHg 70% 0.00″
08/02/2016 12:04 AM 64.9°F 64.9°F / 65.5°F 64.9°F / 65.5°F 29.83 inHg 68% 0.00″
08/01/2016 11:04 PM 66.0°F 66.0°F / 66.0°F 59.4°F / 82.2°F 29.83 inHg 67% 0.01″
08/01/2016 10:04 PM 68.4°F 68.4°F / 68.5°F 59.4°F / 82.2°F 29.81 inHg 62% 0.01″
08/01/2016 09:04 PM 69.6°F 69.4°F / 69.6°F 59.4°F / 82.2°F 29.78 inHg 60% 0.01″
08/01/2016 08:04 PM 68.4°F 68.2°F / 68.4°F 59.4°F / 82.2°F 29.76 inHg 68% 0.01″
08/01/2016 07:04 PM 76.6°F 76.6°F / 76.8°F 59.4°F / 82.2°F 29.74 inHg 47% 0.00″
08/01/2016 06:04 PM 79.7°F 79.5°F / 79.7°F 59.4°F / 82.2°F 29.73 inHg 42% 0.00″
08/01/2016 05:04 PM 77.5°F 77.5°F / 78.6°F 59.4°F / 82.2°F 29.75 inHg 42% 0.00″
08/01/2016 04:04 PM 78.3°F 77.2°F / 78.3°F 59.4°F / 78.3°F 29.76 inHg 40% 0.00″
08/01/2016 03:04 PM 74.5°F 74.1°F / 74.5°F 59.4°F / 75.9°F 29.78 inHg 48% 0.00″
08/01/2016 02:04 PM 72.1°F 71.8°F / 72.1°F 59.4°F / 75.9°F 29.81 inHg 54% 0.00″
08/01/2016 01:04 PM 70.2°F 70.0°F / 70.2°F 59.4°F / 75.9°F 29.81 inHg 57% 0.00″
08/01/2016 12:04 PM 73.0°F 73.0°F / 73.4°F 59.4°F / 75.9°F 29.81 inHg 55% 0.00″
08/01/2016 11:03 AM 74.1°F 73.9°F / 74.1°F 59.4°F / 74.1°F 29.81 inHg 56% 0.00″
08/01/2016 10:03 AM 71.2°F 70.9°F / 71.2°F 59.4°F / 71.2°F 29.81 inHg 60% 0.00″
08/01/2016 09:03 AM 68.5°F 68.4°F / 68.5°F 59.4°F / 68.5°F 29.80 inHg 64% 0.00″
08/01/2016 08:03 AM 63.9°F 63.7°F / 63.9°F 59.4°F / 64.6°F 29.78 inHg 75% 0.00″
08/01/2016 07:03 AM 61.0°F 60.4°F / 61.0°F 59.4°F / 64.6°F 29.78 inHg 75% 0.00″
08/01/2016 06:03 AM 60.1°F 60.1°F / 60.1°F 60.1°F / 64.6°F 29.76 inHg 76% 0.00″
08/01/2016 05:02 AM 61.3°F 61.3°F / 61.3°F 60.4°F / 64.6°F 29.74 inHg 72% 0.00″
08/01/2016 04:02 AM 60.6°F 60.6°F / 60.6°F 60.6°F / 64.6°F 29.75 inHg 75% 0.00″
08/01/2016 03:02 AM 61.7°F 61.7°F / 61.7°F 61.7°F / 64.6°F 29.76 inHg 72% 0.00″
08/01/2016 02:02 AM 62.1°F 62.1°F / 62.1°F 62.1°F / 64.6°F 29.76 inHg 69% 0.00″
08/01/2016 01:01 AM 62.2°F 62.2°F / 62.2°F 62.2°F / 64.6°F 29.77 inHg 67% 0.00″
08/01/2016 12:01 AM 64.6°F 64.6°F / 64.6°F 64.6°F / 64.6°F 29.76 inHg 61% 0.00″
07/31/2016 11:01 PM 65.7°F 65.7°F / 65.7°F 61.2°F / 78.6°F 29.75 inHg 56% 0.02″
07/31/2016 10:01 PM 65.7°F 65.7°F / 65.8°F 61.2°F / 78.6°F 29.74 inHg 55% 0.02″
07/31/2016 09:01 PM 65.1°F 65.1°F / 65.1°F 61.2°F / 78.6°F 29.72 inHg 59% 0.02″
07/31/2016 08:00 PM 65.3°F 65.3°F / 65.3°F 61.2°F / 78.6°F 29.70 inHg 66% 0.02″
07/31/2016 07:00 PM 68.5°F 68.5°F / 68.5°F 61.2°F / 78.6°F 29.68 inHg 64% 0.02″
07/31/2016 06:00 PM 68.7°F 0.0°F / 0.0°F 61.2°F / 78.6°F 29.70 inHg 69% 0.02″
07/31/2016 05:00 PM 63.9°F 63.9°F / 63.9°F 61.2°F / 78.6°F 29.69 inHg 72% 0.02″
07/31/2016 04:00 PM 67.3°F 67.3°F / 67.3°F 61.2°F / 78.6°F 29.70 inHg 64% 0.01″
07/31/2016 03:00 PM 70.9°F 70.9°F / 71.1°F 61.2°F / 78.6°F 29.70 inHg 59% 0.01″
07/31/2016 02:00 PM 71.8°F 71.8°F / 71.8°F 61.2°F / 78.6°F 29.70 inHg 51% 0.00″
07/31/2016 01:00 PM 75.7°F 0.0°F / 0.0°F 61.2°F / 78.4°F 29.72 inHg 46% 0.00″
07/31/2016 12:00 PM 75.9°F 75.9°F / 75.9°F 61.2°F / 77.7°F 29.73 inHg 47% 0.00″
07/31/2016 11:00 AM 76.3°F 76.3°F / 76.5°F 61.2°F / 76.5°F 29.73 inHg 46% 0.00″
07/31/2016 10:00 AM 73.9°F 73.9°F / 73.9°F 61.2°F / 73.9°F 29.73 inHg 55% 0.00″
07/31/2016 09:00 AM 71.4°F 0.0°F / 0.0°F 61.2°F / 71.4°F 29.73 inHg 55% 0.00″
07/31/2016 08:00 AM 63.3°F 63.3°F / 63.3°F 61.2°F / 68.5°F 29.74 inHg 75% 0.00″
07/31/2016 07:00 AM 62.2°F 0.0°F / 0.0°F 61.2°F / 68.5°F 29.73 inHg 74% 0.00″
07/31/2016 06:00 AM 61.9°F 0.0°F / 0.0°F 61.3°F / 68.5°F 29.71 inHg 73% 0.00″
07/31/2016 04:59 AM 63.5°F 61.3°F / 63.5°F 61.3°F / 68.5°F 29.71 inHg 73% 0.00″
07/31/2016 03:59 AM 61.9°F 61.9°F / 62.8°F 61.9°F / 68.5°F 29.71 inHg 73% 0.00″
07/31/2016 02:59 AM 62.8°F 62.4°F / 63.1°F 62.4°F / 68.5°F 29.71 inHg 67% 0.00″
07/31/2016 01:59 AM 63.1°F 63.1°F / 68.5°F 63.1°F / 68.5°F 29.71 inHg 61% 0.00″
07/31/2016 12:59 AM 68.4°F 67.6°F / 68.5°F 67.6°F / 68.5°F 29.72 inHg 50% 0.00″
07/30/2016 11:59 PM 68.5°F 68.5°F / 68.9°F 60.6°F / 79.9°F 29.74 inHg 50% 0.02″
07/30/2016 10:59 PM 68.7°F 68.7°F / 69.3°F 60.6°F / 79.9°F 29.74 inHg 50% 0.02″
07/30/2016 09:59 PM 69.3°F 68.5°F / 69.4°F 60.6°F / 79.9°F 29.73 inHg 50% 0.02″
07/30/2016 08:59 PM 68.7°F 68.0°F / 70.0°F 60.6°F / 79.9°F 29.71 inHg 56% 0.02″
07/30/2016 07:59 PM 70.0°F 70.0°F / 73.6°F 60.6°F / 79.9°F 29.68 inHg 61% 0.02″
07/30/2016 06:59 PM 73.8°F 73.8°F / 79.2°F 60.6°F / 79.9°F 29.68 inHg 51% 0.02″
07/30/2016 05:59 PM 78.4°F 75.7°F / 79.9°F 60.6°F / 79.9°F 29.68 inHg 44% 0.02″
07/30/2016 04:59 PM 79.9°F 70.9°F / 79.9°F 60.6°F / 79.9°F 29.70 inHg 42% 0.02″
07/30/2016 03:59 PM 70.7°F 69.3°F / 74.5°F 60.6°F / 79.9°F 29.70 inHg 67% 0.02″
07/30/2016 02:59 PM 74.7°F 73.6°F / 79.9°F 60.6°F / 79.9°F 29.72 inHg 60% 0.01″
07/30/2016 01:59 PM 79.9°F 75.7°F / 79.9°F 60.6°F / 79.9°F 29.72 inHg 50% 0.01″
07/30/2016 12:59 PM 75.4°F 73.2°F / 76.1°F 60.6°F / 76.1°F 29.75 inHg 56% 0.01″
07/30/2016 11:59 AM 74.5°F 72.5°F / 74.5°F 60.6°F / 74.5°F 29.76 inHg 59% 0.01″
07/30/2016 10:59 AM 72.3°F 70.0°F / 72.3°F 60.6°F / 72.3°F 29.77 inHg 63% 0.01″
07/30/2016 09:58 AM 69.8°F 67.5°F / 69.8°F 60.6°F / 69.8°F 29.78 inHg 67% 0.01″
07/30/2016 08:58 AM 67.5°F 62.4°F / 67.5°F 60.6°F / 67.5°F 29.79 inHg 71% 0.00″
07/30/2016 07:58 AM 62.2°F 61.0°F / 62.2°F 60.6°F / 66.7°F 29.78 inHg 81% 0.00″
07/30/2016 06:58 AM 61.2°F 60.6°F / 61.7°F 60.6°F / 66.7°F 29.77 inHg 79% 0.00″
07/30/2016 05:58 AM 61.7°F 61.5°F / 63.3°F 61.2°F / 66.7°F 29.76 inHg 77% 0.00″
07/30/2016 04:58 AM 63.1°F 61.3°F / 63.1°F 61.2°F / 66.7°F 29.75 inHg 70% 0.00″
07/30/2016 02:58 AM 62.6°F 62.6°F / 65.5°F 62.6°F / 66.7°F 29.76 inHg 73% 0.00″
07/30/2016 01:58 AM 65.5°F 65.5°F / 66.7°F 64.9°F / 66.7°F 29.75 inHg 64% 0.00″
07/30/2016 12:58 AM 66.4°F 64.9°F / 66.7°F 64.9°F / 66.7°F 29.76 inHg 58% 0.00″
07/29/2016 11:58 PM 64.9°F 64.8°F / 66.0°F 58.5°F / 86.7°F 29.77 inHg 62% 0.31″
07/29/2016 10:58 PM 65.1°F 62.2°F / 65.1°F 58.5°F / 86.7°F 29.77 inHg 63% 0.31″
07/29/2016 09:57 PM 62.4°F 62.2°F / 63.0°F 58.5°F / 86.7°F 29.75 inHg 77% 0.31″
07/29/2016 08:57 PM 62.4°F 60.8°F / 62.4°F 58.5°F / 86.7°F 29.72 inHg 81% 0.31″
07/29/2016 07:57 PM 61.0°F 60.4°F / 61.0°F 58.5°F / 86.7°F 29.71 inHg 89% 0.31″
07/29/2016 06:57 PM 60.8°F 60.4°F / 61.5°F 58.5°F / 86.7°F 29.69 inHg 90% 0.31″
07/29/2016 05:57 PM 62.1°F 61.3°F / 82.6°F 58.5°F / 86.7°F 29.67 inHg 82% 0.31″
07/29/2016 04:57 PM 83.5°F 80.8°F / 83.7°F 58.5°F / 86.7°F 29.66 inHg 31% 0.00″
07/29/2016 03:57 PM 82.6°F 82.6°F / 86.7°F 58.5°F / 86.7°F 29.67 inHg 34% 0.00″
07/29/2016 02:57 PM 83.7°F 81.7°F / 85.3°F 58.5°F / 85.3°F 29.69 inHg 28% 0.00″
07/29/2016 01:57 PM 80.8°F 78.8°F / 82.6°F 58.5°F / 82.6°F 29.74 inHg 30% 0.00″
07/29/2016 12:57 PM 80.8°F 79.3°F / 81.3°F 58.5°F / 82.0°F 29.76 inHg 30% 0.00″
07/29/2016 11:57 AM 81.0°F 77.7°F / 82.0°F 58.5°F / 82.0°F 29.77 inHg 30% 0.00″
07/29/2016 10:57 AM 78.8°F 73.0°F / 78.8°F 58.5°F / 78.8°F 29.75 inHg 31% 0.00″
07/29/2016 09:57 AM 73.6°F 70.3°F / 73.6°F 58.5°F / 73.6°F 29.76 inHg 50% 0.00″
07/29/2016 08:57 AM 70.0°F 61.3°F / 70.0°F 58.5°F / 70.0°F 29.78 inHg 54% 0.00″
07/29/2016 07:57 AM 61.0°F 58.6°F / 61.0°F 58.5°F / 67.8°F 29.77 inHg 68% 0.00″
07/29/2016 06:57 AM 58.8°F 58.5°F / 61.7°F 58.5°F / 67.8°F 29.76 inHg 68% 0.00″
07/29/2016 05:56 AM 59.0°F 58.6°F / 60.8°F 58.6°F / 67.8°F 29.75 inHg 67% 0.00″
07/29/2016 04:56 AM 61.2°F 61.2°F / 64.8°F 61.2°F / 67.8°F 29.74 inHg 67% 0.00″
07/29/2016 03:56 AM 64.4°F 63.1°F / 64.8°F 63.1°F / 67.8°F 29.74 inHg 64% 0.00″
07/29/2016 02:56 AM 65.1°F 65.1°F / 66.2°F 65.1°F / 67.8°F 29.74 inHg 64% 0.00″
07/29/2016 01:56 AM 65.8°F 65.8°F / 67.6°F 65.8°F / 67.8°F 29.74 inHg 62% 0.00″
07/29/2016 12:56 AM 67.5°F 66.9°F / 67.8°F 66.9°F / 67.8°F 29.76 inHg 59% 0.00″
07/28/2016 11:56 PM 67.8°F 67.1°F / 68.9°F 58.5°F / 86.4°F 29.75 inHg 55% 0.00″
07/28/2016 10:56 PM 68.5°F 68.2°F / 68.9°F 58.5°F / 86.4°F 29.73 inHg 50% 0.00″
07/28/2016 09:56 PM 69.1°F 69.1°F / 70.5°F 58.5°F / 86.4°F 29.75 inHg 45% 0.00″
07/28/2016 08:56 PM 70.7°F 70.7°F / 75.0°F 58.5°F / 86.4°F 29.73 inHg 41% 0.00″
07/28/2016 07:56 PM 75.9°F 75.9°F / 80.8°F 58.5°F / 86.4°F 29.72 inHg 33% 0.00″
07/28/2016 06:55 PM 81.1°F 81.1°F / 84.0°F 58.5°F / 86.4°F 29.71 inHg 27% 0.00″
07/28/2016 05:55 PM 84.2°F 83.7°F / 85.1°F 58.5°F / 86.4°F 29.71 inHg 26% 0.00″
07/28/2016 04:55 PM 85.8°F 84.0°F / 86.4°F 58.5°F / 86.4°F 29.72 inHg 29% 0.00″
07/28/2016 03:55 PM 85.1°F 83.3°F / 86.0°F 58.5°F / 86.0°F 29.72 inHg 26% 0.00″
07/28/2016 02:55 PM 84.9°F 81.1°F / 84.9°F 58.5°F / 84.9°F 29.75 inHg 27% 0.00″
07/28/2016 01:55 PM 83.1°F 80.8°F / 83.1°F 58.5°F / 83.1°F 29.78 inHg 31% 0.00″
07/28/2016 12:55 PM 82.0°F 78.4°F / 82.4°F 58.5°F / 82.4°F 29.80 inHg 34% 0.00″
07/28/2016 11:55 AM 79.9°F 78.8°F / 80.2°F 58.5°F / 80.2°F 29.82 inHg 33% 0.00″
07/28/2016 10:55 AM 78.4°F 73.8°F / 78.6°F 58.5°F / 78.6°F 29.82 inHg 31% 0.00″
07/28/2016 09:55 AM 73.4°F 70.5°F / 73.8°F 58.5°F / 73.8°F 29.83 inHg 52% 0.00″
07/28/2016 08:55 AM 69.4°F 61.5°F / 69.4°F 58.5°F / 69.4°F 29.84 inHg 58% 0.00″
07/28/2016 07:55 AM 61.0°F 58.5°F / 61.0°F 58.5°F / 66.9°F 29.83 inHg 76% 0.00″
07/28/2016 06:55 AM 58.6°F 58.6°F / 59.5°F 58.6°F / 66.9°F 29.82 inHg 76% 0.00″
07/28/2016 05:55 AM 60.3°F 59.4°F / 61.9°F 59.4°F / 66.9°F 29.81 inHg 72% 0.00″
07/28/2016 04:55 AM 61.5°F 61.2°F / 64.2°F 61.2°F / 66.9°F 29.80 inHg 69% 0.00″
07/28/2016 03:55 AM 64.6°F 63.3°F / 65.1°F 63.3°F / 66.9°F 29.81 inHg 64% 0.00″
07/28/2016 02:55 AM 64.2°F 64.0°F / 65.7°F 64.0°F / 66.9°F 29.82 inHg 64% 0.00″
07/28/2016 01:54 AM 65.1°F 65.1°F / 66.6°F 65.1°F / 66.9°F 29.82 inHg 62% 0.00″
07/28/2016 12:54 AM 66.7°F 66.4°F / 66.9°F 66.4°F / 66.9°F 29.81 inHg 58% 0.00″
07/27/2016 11:54 PM 67.1°F 66.7°F / 67.3°F 57.7°F / 82.8°F 29.81 inHg 56% 0.09″
07/27/2016 10:54 PM 67.1°F 66.6°F / 67.3°F 57.7°F / 82.8°F 29.81 inHg 56% 0.09″
07/27/2016 09:54 PM 67.1°F 66.9°F / 68.7°F 57.7°F / 82.8°F 29.80 inHg 59% 0.09″
07/27/2016 08:54 PM 69.3°F 69.3°F / 74.7°F 57.7°F / 82.8°F 29.77 inHg 56% 0.09″
07/27/2016 07:54 PM 75.9°F 75.9°F / 78.1°F 57.7°F / 82.8°F 29.75 inHg 45% 0.09″
07/27/2016 06:54 PM 75.6°F 74.7°F / 77.2°F 57.7°F / 82.8°F 29.74 inHg 45% 0.09″
07/27/2016 05:53 PM 78.1°F 78.1°F / 82.8°F 57.7°F / 82.8°F 29.73 inHg 35% 0.09″
07/27/2016 04:53 PM 77.4°F 76.6°F / 80.6°F 57.7°F / 81.9°F 29.73 inHg 37% 0.09″
07/27/2016 03:53 PM 81.5°F 76.5°F / 81.9°F 57.7°F / 81.9°F 29.73 inHg 33% 0.09″
07/27/2016 02:53 PM 76.5°F 74.5°F / 78.4°F 57.7°F / 80.1°F 29.75 inHg 45% 0.09″
07/27/2016 01:53 PM 76.1°F 74.7°F / 80.1°F 57.7°F / 80.1°F 29.77 inHg 44% 0.09″
07/27/2016 12:53 PM 74.3°F 71.4°F / 74.3°F 57.7°F / 74.3°F 29.79 inHg 52% 0.09″
07/27/2016 11:53 AM 71.8°F 70.5°F / 71.8°F 57.7°F / 71.8°F 29.81 inHg 61% 0.09″
07/27/2016 10:53 AM 70.3°F 68.5°F / 71.2°F 57.7°F / 71.2°F 29.81 inHg 62% 0.09″
07/27/2016 09:53 AM 68.5°F 66.6°F / 68.5°F 57.7°F / 68.5°F 29.81 inHg 68% 0.09″
07/27/2016 08:53 AM 65.7°F 61.0°F / 65.7°F 57.7°F / 68.0°F 29.80 inHg 75% 0.09″
07/27/2016 07:53 AM 60.3°F 58.8°F / 60.3°F 57.7°F / 68.0°F 29.79 inHg 88% 0.09″
07/27/2016 06:53 AM 58.6°F 57.7°F / 58.6°F 57.7°F / 68.0°F 29.77 inHg 93% 0.09″
07/27/2016 05:53 AM 58.3°F 58.3°F / 58.8°F 58.3°F / 68.0°F 29.75 inHg 88% 0.09″
07/27/2016 04:53 AM 58.5°F 58.5°F / 61.9°F 58.5°F / 68.0°F 29.74 inHg 86% 0.08″
07/27/2016 03:53 AM 62.4°F 61.5°F / 62.6°F 60.6°F / 68.0°F 29.75 inHg 79% 0.02″
07/27/2016 02:53 AM 61.3°F 60.6°F / 62.2°F 60.6°F / 68.0°F 29.75 inHg 83% 0.02″
07/27/2016 01:53 AM 63.5°F 63.5°F / 66.6°F 63.5°F / 68.0°F 29.76 inHg 79% 0.00″
07/27/2016 12:53 AM 66.4°F 65.8°F / 68.0°F 65.8°F / 68.0°F 29.76 inHg 65% 0.00″
07/26/2016 11:52 PM 68.5°F 65.1°F / 68.5°F 60.3°F / 83.5°F 29.75 inHg 59% 0.01″
07/26/2016 10:52 PM 66.6°F 66.6°F / 69.4°F 60.3°F / 83.5°F 29.75 inHg 61% 0.01″
07/26/2016 09:52 PM 68.2°F 67.8°F / 70.9°F 60.3°F / 83.5°F 29.74 inHg 57% 0.01″
07/26/2016 08:52 PM 72.5°F 72.5°F / 75.7°F 60.3°F / 83.5°F 29.74 inHg 51% 0.01″
07/26/2016 07:52 PM 75.7°F 75.0°F / 78.1°F 60.3°F / 83.5°F 29.70 inHg 44% 0.01″
07/26/2016 06:52 PM 79.3°F 79.3°F / 81.7°F 60.3°F / 83.5°F 29.69 inHg 36% 0.01″
07/26/2016 05:52 PM 79.3°F 79.0°F / 81.7°F 60.3°F / 83.5°F 29.70 inHg 35% 0.01″
07/26/2016 04:52 PM 80.8°F 80.2°F / 83.1°F 60.3°F / 83.5°F 29.70 inHg 35% 0.01″
07/26/2016 03:52 PM 82.0°F 78.4°F / 82.6°F 60.3°F / 82.6°F 29.72 inHg 36% 0.01″
07/26/2016 02:52 PM 79.9°F 75.9°F / 81.0°F 60.3°F / 81.0°F 29.74 inHg 38% 0.01″
07/26/2016 01:52 PM 76.3°F 75.7°F / 76.6°F 60.3°F / 79.0°F 29.77 inHg 42% 0.01″
07/26/2016 11:51 AM 76.8°F 75.4°F / 78.1°F 60.3°F / 78.1°F 29.79 inHg 44% 0.01″
07/26/2016 10:51 AM 75.6°F 72.7°F / 75.6°F 60.3°F / 75.6°F 29.81 inHg 50% 0.01″
07/26/2016 09:51 AM 71.4°F 69.1°F / 71.4°F 60.3°F / 71.4°F 29.81 inHg 52% 0.01″
07/26/2016 08:51 AM 68.5°F 63.0°F / 68.5°F 60.3°F / 68.5°F 29.83 inHg 63% 0.01″
07/26/2016 07:51 AM 62.1°F 61.0°F / 62.2°F 60.3°F / 67.3°F 29.82 inHg 81% 0.01″
07/26/2016 06:51 AM 62.1°F 60.3°F / 64.0°F 60.3°F / 67.3°F 29.81 inHg 71% 0.01″
07/26/2016 05:51 AM 63.7°F 63.7°F / 64.9°F 63.7°F / 67.3°F 29.82 inHg 66% 0.00″
07/26/2016 04:51 AM 64.0°F 63.7°F / 64.0°F 63.7°F / 67.3°F 29.81 inHg 69% 0.00″
07/26/2016 03:51 AM 63.9°F 63.9°F / 64.4°F 63.9°F / 67.3°F 29.79 inHg 70% 0.00″
07/26/2016 02:51 AM 64.4°F 64.0°F / 64.4°F 64.0°F / 67.3°F 29.79 inHg 70% 0.00″
07/26/2016 01:51 AM 64.6°F 64.6°F / 65.3°F 64.6°F / 67.3°F 29.78 inHg 72% 0.00″
07/26/2016 12:51 AM 65.5°F 65.5°F / 67.3°F 65.5°F / 67.3°F 29.76 inHg 71% 0.00″
07/25/2016 11:51 PM 68.4°F 68.4°F / 72.1°F 64.8°F / 84.4°F 29.75 inHg 62% 0.00″
07/25/2016 10:51 PM 71.2°F 71.2°F / 71.8°F 64.8°F / 84.4°F 29.75 inHg 48% 0.00″
07/25/2016 09:51 PM 71.8°F 71.8°F / 72.7°F 64.8°F / 84.4°F 29.75 inHg 47% 0.00″
07/25/2016 08:51 PM 72.3°F 71.8°F / 73.2°F 64.8°F / 84.4°F 29.72 inHg 42% 0.00″
07/25/2016 07:51 PM 74.1°F 72.1°F / 75.4°F 64.8°F / 84.4°F 29.70 inHg 44% 0.00″
07/25/2016 06:51 PM 72.9°F 72.9°F / 73.9°F 64.8°F / 84.4°F 29.70 inHg 52% 0.00″
07/25/2016 05:51 PM 73.0°F 72.9°F / 73.9°F 64.8°F / 84.4°F 29.70 inHg 51% 0.00″
07/25/2016 04:51 PM 74.5°F 74.5°F / 75.6°F 64.8°F / 84.4°F 29.70 inHg 50% 0.00″
07/25/2016 03:51 PM 76.8°F 76.8°F / 79.5°F 64.8°F / 84.4°F 29.70 inHg 40% 0.00″
07/25/2016 02:51 PM 79.9°F 79.9°F / 84.4°F 64.8°F / 84.4°F 29.70 inHg 38% 0.00″
07/25/2016 01:51 PM 81.9°F 78.3°F / 82.0°F 64.8°F / 82.0°F 29.73 inHg 34% 0.00″
07/25/2016 12:51 PM 79.2°F 76.5°F / 79.2°F 64.8°F / 79.2°F 29.75 inHg 41% 0.00″
07/25/2016 11:51 AM 77.0°F 74.5°F / 77.4°F 64.8°F / 77.4°F 29.77 inHg 44% 0.00″
07/25/2016 10:50 AM 74.8°F 73.9°F / 76.5°F 64.8°F / 77.2°F 29.79 inHg 49% 0.00″
07/25/2016 09:50 AM 75.0°F 74.7°F / 77.2°F 64.8°F / 77.2°F 29.78 inHg 47% 0.00″
07/25/2016 08:50 AM 73.0°F 68.5°F / 73.2°F 64.8°F / 73.2°F 29.78 inHg 52% 0.00″
07/25/2016 07:50 AM 67.5°F 64.9°F / 67.5°F 64.8°F / 72.5°F 29.76 inHg 62% 0.00″
07/25/2016 06:50 AM 64.8°F 64.8°F / 67.1°F 64.8°F / 72.5°F 29.75 inHg 63% 0.00″
07/25/2016 05:50 AM 66.6°F 65.7°F / 66.6°F 65.5°F / 72.5°F 29.74 inHg 60% 0.00″
07/25/2016 04:50 AM 65.7°F 65.5°F / 67.3°F 65.5°F / 72.5°F 29.75 inHg 60% 0.00″
07/25/2016 03:50 AM 67.3°F 67.3°F / 67.5°F 67.3°F / 72.5°F 29.74 inHg 56% 0.00″
07/25/2016 02:49 AM 67.6°F 67.3°F / 67.6°F 67.3°F / 72.5°F 29.74 inHg 55% 0.00″
07/25/2016 01:49 AM 68.0°F 68.0°F / 68.7°F 68.0°F / 72.5°F 29.73 inHg 53% 0.00″
07/25/2016 12:49 AM 69.1°F 69.1°F / 72.5°F 69.1°F / 72.5°F 29.74 inHg 50% 0.00″
07/24/2016 11:49 PM 73.2°F 73.0°F / 73.9°F 63.1°F / 88.2°F 29.73 inHg 36% 0.20″
07/24/2016 10:49 PM 74.3°F 74.1°F / 74.7°F 63.1°F / 88.2°F 29.72 inHg 33% 0.20″
07/24/2016 09:49 PM 74.7°F 74.7°F / 75.0°F 63.1°F / 88.2°F 29.70 inHg 32% 0.20″
07/24/2016 08:49 PM 74.5°F 73.9°F / 75.7°F 63.1°F / 88.2°F 29.68 inHg 32% 0.20″
07/24/2016 07:49 PM 76.1°F 76.1°F / 81.1°F 63.1°F / 88.2°F 29.65 inHg 35% 0.18″
07/24/2016 06:48 PM 79.0°F 73.9°F / 79.0°F 63.1°F / 88.2°F 29.62 inHg 41% 0.15″
07/24/2016 05:48 PM 73.9°F 72.3°F / 75.4°F 63.1°F / 88.2°F 29.62 inHg 49% 0.13″
07/24/2016 04:48 PM 72.7°F 72.1°F / 80.8°F 63.1°F / 88.2°F 29.64 inHg 53% 0.09″
07/24/2016 03:48 PM 81.7°F 81.7°F / 88.2°F 63.1°F / 88.2°F 29.63 inHg 31% 0.07″
07/24/2016 02:48 PM 84.6°F 80.4°F / 84.7°F 63.1°F / 85.8°F 29.63 inHg 29% 0.06″
07/24/2016 01:48 PM 81.1°F 81.1°F / 85.8°F 63.1°F / 85.8°F 29.64 inHg 31% 0.04″
07/24/2016 12:48 PM 81.7°F 79.0°F / 82.8°F 63.1°F / 82.8°F 29.66 inHg 32% 0.03″
07/24/2016 11:47 AM 79.3°F 77.7°F / 79.9°F 63.1°F / 80.1°F 29.68 inHg 34% 0.02″
07/24/2016 10:47 AM 79.2°F 78.3°F / 79.3°F 63.1°F / 79.3°F 29.69 inHg 36% 0.00″
07/24/2016 09:47 AM 78.6°F 73.4°F / 78.6°F 63.1°F / 78.6°F 29.69 inHg 31% 0.00″
07/24/2016 08:47 AM 71.6°F 65.8°F / 71.6°F 63.1°F / 74.3°F 29.68 inHg 47% 0.00″
07/24/2016 07:47 AM 64.8°F 63.9°F / 64.8°F 63.1°F / 74.3°F 29.68 inHg 53% 0.00″
07/24/2016 06:47 AM 65.1°F 63.1°F / 65.7°F 63.1°F / 74.3°F 29.66 inHg 48% 0.00″
07/24/2016 05:47 AM 64.0°F 63.7°F / 67.3°F 63.7°F / 74.3°F 29.66 inHg 48% 0.00″
07/24/2016 04:47 AM 65.7°F 64.2°F / 65.7°F 63.7°F / 74.3°F 29.66 inHg 44% 0.00″
07/24/2016 03:47 AM 63.7°F 63.7°F / 65.5°F 63.7°F / 74.3°F 29.66 inHg 48% 0.00″
07/24/2016 02:47 AM 66.2°F 65.7°F / 67.8°F 65.7°F / 74.3°F 29.65 inHg 43% 0.00″
07/24/2016 01:46 AM 69.4°F 68.0°F / 70.9°F 68.0°F / 74.3°F 29.65 inHg 37% 0.00″
07/24/2016 12:46 AM 69.3°F 69.3°F / 74.3°F 69.3°F / 74.3°F 29.65 inHg 35% 0.00″
07/23/2016 11:46 PM 74.7°F 74.7°F / 75.4°F 61.5°F / 89.8°F 29.65 inHg 28% 0.00″
07/23/2016 10:46 PM 75.4°F 75.0°F / 75.6°F 61.5°F / 89.8°F 29.64 inHg 28% 0.00″
07/23/2016 09:46 PM 75.9°F 75.9°F / 77.5°F 61.5°F / 89.8°F 29.63 inHg 31% 0.00″
07/23/2016 08:46 PM 77.4°F 77.4°F / 81.0°F 61.5°F / 89.8°F 29.61 inHg 34% 0.00″
07/23/2016 07:46 PM 83.1°F 83.1°F / 87.4°F 61.5°F / 89.8°F 29.60 inHg 30% 0.00″
07/23/2016 06:46 PM 87.3°F 87.3°F / 89.1°F 61.5°F / 89.8°F 29.59 inHg 22% 0.00″
07/23/2016 05:46 PM 89.1°F 86.7°F / 89.1°F 61.5°F / 89.1°F 29.60 inHg 23% 0.00″
07/23/2016 04:46 PM 87.1°F 78.1°F / 88.3°F 61.5°F / 88.3°F 29.62 inHg 26% 0.00″
07/23/2016 03:46 PM 80.4°F 80.4°F / 88.0°F 61.5°F / 88.0°F 29.65 inHg 39% 0.00″
07/23/2016 02:46 PM 85.8°F 84.7°F / 87.4°F 61.5°F / 87.4°F 29.67 inHg 25% 0.00″
07/23/2016 01:46 PM 83.8°F 82.9°F / 84.7°F 61.5°F / 84.7°F 29.70 inHg 26% 0.00″
07/23/2016 12:46 PM 82.9°F 82.4°F / 83.1°F 61.5°F / 83.1°F 29.72 inHg 31% 0.00″
07/23/2016 11:46 AM 81.7°F 80.1°F / 81.7°F 61.5°F / 81.7°F 29.73 inHg 30% 0.00″
07/23/2016 10:46 AM 79.5°F 78.4°F / 79.7°F 61.5°F / 79.7°F 29.74 inHg 34% 0.00″
07/23/2016 09:46 AM 77.5°F 74.3°F / 77.5°F 61.5°F / 77.5°F 29.75 inHg 33% 0.00″
07/23/2016 08:45 AM 70.3°F 64.8°F / 70.3°F 61.5°F / 73.0°F 29.76 inHg 47% 0.00″
07/23/2016 07:45 AM 63.3°F 61.5°F / 63.3°F 61.5°F / 73.0°F 29.75 inHg 57% 0.00″
07/23/2016 06:45 AM 61.9°F 61.9°F / 63.7°F 61.9°F / 73.0°F 29.74 inHg 51% 0.00″
07/23/2016 05:45 AM 66.7°F 63.0°F / 66.9°F 63.0°F / 73.0°F 29.73 inHg 45% 0.00″
07/23/2016 04:45 AM 66.0°F 64.0°F / 68.4°F 64.0°F / 73.0°F 29.72 inHg 45% 0.00″
07/23/2016 03:45 AM 64.9°F 64.9°F / 67.3°F 64.9°F / 73.0°F 29.74 inHg 46% 0.00″
07/23/2016 02:45 AM 66.9°F 66.9°F / 70.3°F 66.9°F / 73.0°F 29.75 inHg 44% 0.00″
07/23/2016 01:45 AM 70.5°F 70.5°F / 72.7°F 70.5°F / 73.0°F 29.76 inHg 38% 0.00″
07/23/2016 12:44 AM 72.3°F 72.3°F / 73.0°F 72.3°F / 73.0°F 29.77 inHg 34% 0.00″
07/22/2016 11:44 PM 72.9°F 72.3°F / 72.9°F 60.3°F / 86.4°F 29.77 inHg 33% 0.01″
07/22/2016 10:44 PM 72.7°F 72.7°F / 73.0°F 60.3°F / 86.4°F 29.76 inHg 34% 0.01″
07/22/2016 09:44 PM 72.7°F 71.1°F / 72.9°F 60.3°F / 86.4°F 29.75 inHg 37% 0.01″
07/22/2016 08:44 PM 72.9°F 71.6°F / 74.8°F 60.3°F / 86.4°F 29.73 inHg 40% 0.01″
07/22/2016 07:44 PM 75.0°F 75.0°F / 82.8°F 60.3°F / 86.4°F 29.73 inHg 46% 0.01″
07/22/2016 06:43 PM 81.5°F 81.3°F / 83.5°F 60.3°F / 86.4°F 29.74 inHg 34% 0.01″
07/22/2016 05:43 PM 80.1°F 74.7°F / 80.1°F 60.3°F / 86.4°F 29.76 inHg 38% 0.01″
07/22/2016 04:43 PM 72.0°F 72.0°F / 77.5°F 60.3°F / 86.4°F 29.78 inHg 62% 0.01″
07/22/2016 03:43 PM 79.2°F 73.8°F / 80.6°F 60.3°F / 86.4°F 29.78 inHg 44% 0.01″
07/22/2016 02:43 PM 80.2°F 80.2°F / 84.6°F 60.3°F / 86.4°F 29.81 inHg 40% 0.00″
07/22/2016 01:43 PM 83.8°F 81.1°F / 85.3°F 60.3°F / 85.3°F 29.83 inHg 31% 0.00″
07/22/2016 12:43 PM 80.2°F 80.1°F / 82.4°F 60.3°F / 82.4°F 29.85 inHg 37% 0.00″
07/22/2016 11:43 AM 79.0°F 78.1°F / 80.4°F 60.3°F / 80.4°F 29.86 inHg 39% 0.00″
07/22/2016 10:43 AM 79.0°F 77.7°F / 79.0°F 60.3°F / 79.0°F 29.88 inHg 37% 0.00″
07/22/2016 09:43 AM 76.8°F 72.1°F / 76.8°F 60.3°F / 76.8°F 29.88 inHg 39% 0.00″
07/22/2016 08:43 AM 68.5°F 63.0°F / 68.5°F 60.3°F / 72.7°F 29.88 inHg 57% 0.00″
07/22/2016 07:43 AM 61.9°F 60.3°F / 62.6°F 60.3°F / 72.7°F 29.87 inHg 66% 0.00″
07/22/2016 06:43 AM 60.4°F 60.3°F / 62.6°F 60.3°F / 72.7°F 29.87 inHg 66% 0.00″
07/22/2016 05:43 AM 60.8°F 60.4°F / 63.3°F 60.4°F / 72.7°F 29.86 inHg 66% 0.00″
07/22/2016 04:42 AM 62.8°F 61.5°F / 64.0°F 61.5°F / 72.7°F 29.87 inHg 64% 0.00″
07/22/2016 03:42 AM 62.8°F 62.6°F / 63.3°F 62.6°F / 72.7°F 29.86 inHg 67% 0.00″
07/22/2016 02:42 AM 64.2°F 63.7°F / 65.1°F 63.7°F / 72.7°F 29.85 inHg 61% 0.00″
07/22/2016 01:42 AM 64.0°F 64.0°F / 68.4°F 64.0°F / 72.7°F 29.86 inHg 58% 0.00″
07/22/2016 12:42 AM 69.6°F 69.6°F / 72.7°F 69.6°F / 72.7°F 29.86 inHg 47% 0.00″
07/21/2016 11:42 PM 72.3°F 72.3°F / 72.9°F 60.3°F / 83.5°F 29.87 inHg 42% 0.00″
07/21/2016 10:42 PM 72.1°F 71.6°F / 72.3°F 60.3°F / 83.5°F 29.87 inHg 44% 0.00″
07/21/2016 09:42 PM 71.8°F 71.8°F / 72.7°F 60.3°F / 83.5°F 29.86 inHg 46% 0.00″
07/21/2016 08:41 PM 72.7°F 72.5°F / 73.4°F 60.3°F / 83.5°F 29.84 inHg 44% 0.00″
07/21/2016 07:41 PM 73.8°F 73.6°F / 74.7°F 60.3°F / 83.5°F 29.84 inHg 41% 0.00″
07/21/2016 06:41 PM 74.7°F 74.7°F / 75.0°F 60.3°F / 83.5°F 29.85 inHg 35% 0.00″
07/21/2016 05:41 PM 74.8°F 74.7°F / 75.6°F 60.3°F / 83.5°F 29.84 inHg 43% 0.00″
07/21/2016 04:41 PM 77.4°F 77.4°F / 83.1°F 60.3°F / 83.5°F 29.84 inHg 45% 0.00″
07/21/2016 03:41 PM 80.2°F 72.0°F / 80.2°F 60.3°F / 81.1°F 29.86 inHg 42% 0.00″
07/21/2016 02:41 PM 68.4°F 68.4°F / 71.2°F 60.3°F / 81.1°F 29.88 inHg 64% 0.00″
07/21/2016 01:41 PM 73.8°F 73.8°F / 77.4°F 60.3°F / 81.1°F 29.91 inHg 56% 0.00″
07/21/2016 12:41 PM 79.3°F 79.3°F / 81.1°F 60.3°F / 81.1°F 29.91 inHg 41% 0.00″
07/21/2016 11:40 AM 79.2°F 77.2°F / 79.3°F 60.3°F / 79.3°F 29.92 inHg 45% 0.00″
07/21/2016 10:36 AM 76.8°F 75.7°F / 76.8°F 60.3°F / 76.8°F 29.92 inHg 50% 0.00″
07/21/2016 09:36 AM 74.8°F 73.6°F / 74.8°F 60.3°F / 74.8°F 29.93 inHg 50% 0.00″
07/21/2016 08:34 AM 70.2°F 64.0°F / 70.2°F 60.3°F / 70.2°F 29.93 inHg 57% 0.00″
07/21/2016 07:34 AM 62.1°F 61.2°F / 62.1°F 60.3°F / 68.7°F 29.92 inHg 74% 0.00″
07/21/2016 06:34 AM 60.8°F 60.3°F / 61.2°F 60.3°F / 68.7°F 29.91 inHg 75% 0.00″
07/21/2016 05:34 AM 60.8°F 60.6°F / 61.3°F 60.6°F / 68.7°F 29.90 inHg 72% 0.00″
07/21/2016 04:34 AM 62.2°F 62.2°F / 65.5°F 62.2°F / 68.7°F 29.89 inHg 69% 0.00″
07/21/2016 03:34 AM 66.2°F 65.7°F / 66.6°F 65.7°F / 68.7°F 29.89 inHg 59% 0.00″
07/21/2016 02:34 AM 66.7°F 66.4°F / 67.5°F 66.4°F / 68.7°F 29.88 inHg 55% 0.00″
07/21/2016 01:34 AM 68.5°F 67.8°F / 68.7°F 67.6°F / 68.7°F 29.89 inHg 52% 0.00″
07/21/2016 12:34 AM 67.8°F 67.8°F / 68.5°F 67.8°F / 68.5°F 29.89 inHg 54% 0.00″
07/20/2016 11:34 PM 67.6°F 65.3°F / 67.6°F 59.2°F / 82.6°F 29.88 inHg 55% 0.62″
07/20/2016 10:34 PM 67.1°F 63.7°F / 67.1°F 59.2°F / 82.6°F 29.89 inHg 60% 0.62″
07/20/2016 09:34 PM 64.9°F 64.0°F / 65.3°F 59.2°F / 82.6°F 29.87 inHg 67% 0.62″
07/20/2016 08:34 PM 65.8°F 65.5°F / 67.8°F 59.2°F / 82.6°F 29.83 inHg 68% 0.62″
07/20/2016 07:34 PM 71.4°F 71.2°F / 72.9°F 59.2°F / 82.6°F 29.82 inHg 67% 0.62″
07/20/2016 06:34 PM 75.6°F 74.7°F / 81.7°F 59.2°F / 82.6°F 29.81 inHg 62% 0.62″
07/20/2016 05:33 PM 80.2°F 80.2°F / 82.6°F 59.2°F / 82.6°F 29.81 inHg 53% 0.61″
07/20/2016 04:33 PM 75.0°F 65.7°F / 75.0°F 59.2°F / 82.2°F 29.84 inHg 68% 0.61″
07/20/2016 03:33 PM 64.0°F 61.9°F / 64.2°F 59.2°F / 82.2°F 29.87 inHg 92% 0.61″
07/20/2016 02:33 PM 59.2°F 59.2°F / 68.0°F 59.2°F / 82.2°F 29.90 inHg 92% 0.45″
07/20/2016 02:05 PM 65.8°F 65.8°F / 68.0°F 60.4°F / 82.2°F 29.90 inHg 76% 0.07″
07/20/2016 01:05 PM 81.1°F 81.0°F / 81.1°F 60.4°F / 82.2°F 29.89 inHg 37% 0.00″
07/20/2016 12:05 PM 79.3°F 78.6°F / 79.3°F 60.4°F / 79.3°F 29.91 inHg 44% 0.00″
07/20/2016 11:05 AM 76.6°F 76.3°F / 76.6°F 60.4°F / 77.4°F 29.92 inHg 45% 0.00″
07/20/2016 10:05 AM 75.4°F 74.7°F / 75.4°F 60.4°F / 75.4°F 29.92 inHg 47% 0.00″
07/20/2016 09:04 AM 72.1°F 72.0°F / 72.1°F 60.4°F / 72.1°F 29.93 inHg 53% 0.00″
07/20/2016 08:04 AM 64.0°F 63.5°F / 64.0°F 60.4°F / 68.2°F 29.92 inHg 73% 0.00″
07/20/2016 07:04 AM 61.9°F 61.9°F / 62.1°F 60.4°F / 68.2°F 29.91 inHg 71% 0.00″
07/20/2016 06:04 AM 63.7°F 63.3°F / 63.7°F 60.4°F / 68.2°F 29.91 inHg 65% 0.00″
07/20/2016 05:04 AM 61.0°F 60.8°F / 61.0°F 60.4°F / 68.2°F 29.91 inHg 71% 0.00″
07/20/2016 04:04 AM 63.1°F 63.1°F / 64.0°F 62.1°F / 68.2°F 29.89 inHg 64% 0.00″
07/20/2016 03:03 AM 63.7°F 63.1°F / 63.7°F 62.1°F / 68.2°F 29.89 inHg 63% 0.00″
07/20/2016 02:03 AM 66.0°F 66.0°F / 66.6°F 66.0°F / 68.2°F 29.88 inHg 59% 0.00″
07/20/2016 01:03 AM 68.2°F 68.0°F / 68.2°F 66.2°F / 68.2°F 29.88 inHg 54% 0.00″
07/20/2016 12:03 AM 67.8°F 67.8°F / 68.2°F 67.8°F / 68.2°F 29.89 inHg 53% 0.00″
07/19/2016 11:03 PM 66.6°F 66.4°F / 66.6°F 60.6°F / 84.7°F 29.88 inHg 57% 0.15″
07/19/2016 10:03 PM 66.7°F 66.7°F / 66.9°F 60.6°F / 84.7°F 29.86 inHg 59% 0.15″
07/19/2016 09:03 PM 71.1°F 71.1°F / 71.2°F 60.6°F / 84.7°F 29.84 inHg 51% 0.15″
07/19/2016 08:03 PM 72.5°F 72.5°F / 72.7°F 60.6°F / 84.7°F 29.82 inHg 48% 0.15″
07/19/2016 07:03 PM 72.9°F 72.9°F / 73.0°F 60.6°F / 84.7°F 29.80 inHg 49% 0.15″
07/19/2016 05:02 PM 81.7°F 81.0°F / 81.7°F 60.6°F / 83.7°F 29.80 inHg 37% 0.15″
07/19/2016 04:02 PM 75.0°F 74.8°F / 75.0°F 60.6°F / 81.3°F 29.82 inHg 50% 0.15″
07/19/2016 03:02 PM 74.7°F 74.3°F / 74.7°F 60.6°F / 78.3°F 29.84 inHg 75% 0.15″
07/19/2016 02:02 PM 64.6°F 64.2°F / 64.6°F 60.6°F / 78.3°F 29.88 inHg 91% 0.14″
07/19/2016 01:02 PM 70.2°F 70.2°F / 71.2°F 60.6°F / 78.3°F 29.88 inHg 68% 0.00″
07/19/2016 12:02 PM 75.0°F 74.8°F / 75.0°F 60.6°F / 78.3°F 29.90 inHg 45% 0.00″
07/19/2016 11:02 AM 77.5°F 77.5°F / 77.5°F 60.6°F / 77.7°F 29.90 inHg 41% 0.00″
07/19/2016 10:01 AM 71.2°F 71.2°F / 71.2°F 60.6°F / 74.8°F 29.89 inHg 50% 0.00″
07/19/2016 09:01 AM 72.5°F 72.3°F / 72.5°F 60.6°F / 72.5°F 29.89 inHg 46% 0.00″
07/19/2016 08:01 AM 64.8°F 64.6°F / 64.8°F 60.6°F / 70.0°F 29.89 inHg 63% 0.00″
07/19/2016 07:01 AM 60.8°F 60.8°F / 61.0°F 60.6°F / 70.0°F 29.88 inHg 64% 0.00″
07/19/2016 06:01 AM 64.0°F 64.0°F / 64.0°F 62.4°F / 70.0°F 29.86 inHg 58% 0.00″
07/19/2016 05:01 AM 65.3°F 65.3°F / 65.3°F 65.3°F / 70.0°F 29.84 inHg 56% 0.00″
07/19/2016 04:01 AM 66.0°F 66.0°F / 66.0°F 65.7°F / 70.0°F 29.85 inHg 55% 0.00″
07/19/2016 03:01 AM 67.6°F 67.6°F / 67.6°F 67.6°F / 70.0°F 29.85 inHg 52% 0.00″
07/19/2016 02:00 AM 68.2°F 68.2°F / 68.2°F 68.0°F / 70.0°F 29.83 inHg 51% 0.00″
07/19/2016 01:00 AM 68.7°F 0.0°F / 0.0°F 68.7°F / 70.0°F 29.84 inHg 50% 0.00″
07/19/2016 12:00 AM 70.0°F 70.0°F / 70.0°F 70.0°F / 70.0°F 29.85 inHg 46% 0.00″
07/18/2016 11:00 PM 70.9°F 70.9°F / 70.9°F 59.7°F / 84.7°F 29.85 inHg 42% 0.02″
07/18/2016 10:00 PM 72.5°F 72.5°F / 72.5°F 59.7°F / 84.7°F 29.83 inHg 39% 0.02″
07/18/2016 09:00 PM 73.9°F 73.9°F / 73.9°F 59.7°F / 84.7°F 29.81 inHg 37% 0.02″
07/18/2016 08:00 PM 75.4°F 0.0°F / 0.0°F 59.7°F / 84.7°F 29.80 inHg 36% 0.02″
07/18/2016 07:00 PM 79.0°F 79.0°F / 79.0°F 59.7°F / 84.7°F 29.77 inHg 32% 0.02″
07/18/2016 06:00 PM 81.0°F 0.0°F / 0.0°F 59.7°F / 84.7°F 29.77 inHg 34% 0.02″
07/18/2016 05:00 PM 79.2°F 79.0°F / 79.2°F 59.7°F / 82.6°F 29.78 inHg 42% 0.02″
07/18/2016 04:00 PM 73.4°F 73.4°F / 73.4°F 59.7°F / 82.6°F 29.80 inHg 50% 0.02″
07/18/2016 03:00 PM 68.4°F 68.4°F / 68.4°F 59.7°F / 82.6°F 29.83 inHg 57% 0.02″
07/18/2016 02:00 PM 77.9°F 0.0°F / 0.0°F 59.7°F / 82.6°F 29.84 inHg 36% 0.00″
07/18/2016 01:00 PM 80.6°F 80.6°F / 80.6°F 59.7°F / 82.2°F 29.85 inHg 35% 0.00″
07/18/2016 12:00 PM 77.9°F 77.9°F / 77.9°F 59.7°F / 78.4°F 29.85 inHg 36% 0.00″
07/18/2016 11:00 AM 77.7°F 0.0°F / 0.0°F 59.7°F / 78.1°F 29.86 inHg 37% 0.00″
07/18/2016 10:00 AM 74.1°F 0.0°F / 0.0°F 59.7°F / 77.2°F 29.86 inHg 40% 0.00″
07/18/2016 08:59 AM 74.8°F 66.9°F / 74.8°F 59.7°F / 74.8°F 29.86 inHg 38% 0.00″
07/18/2016 07:59 AM 66.9°F 61.7°F / 66.9°F 59.7°F / 69.4°F 29.84 inHg 57% 0.00″
07/18/2016 06:59 AM 61.5°F 61.0°F / 63.1°F 59.7°F / 69.4°F 29.82 inHg 58% 0.00″
07/18/2016 05:59 AM 62.6°F 59.7°F / 63.3°F 59.7°F / 69.4°F 29.81 inHg 53% 0.00″
07/18/2016 04:59 AM 60.4°F 60.4°F / 63.1°F 60.4°F / 69.4°F 29.81 inHg 55% 0.00″
07/18/2016 03:59 AM 61.2°F 61.2°F / 64.4°F 61.2°F / 69.4°F 29.80 inHg 53% 0.00″
07/18/2016 02:59 AM 63.7°F 63.7°F / 68.4°F 63.7°F / 69.4°F 29.79 inHg 48% 0.00″
07/18/2016 01:59 AM 67.5°F 67.5°F / 68.9°F 67.3°F / 69.4°F 0.00 inHg 42% 0.00″
07/18/2016 01:06 AM 68.7°F 68.7°F / 68.9°F 67.3°F / 69.4°F 29.78 inHg 42% 0.00″
07/18/2016 12:06 AM 67.8°F 67.8°F / 69.4°F 67.8°F / 69.4°F 29.79 inHg 46% 0.00″
07/17/2016 11:06 PM 71.1°F 70.7°F / 71.1°F 63.5°F / 84.6°F 29.79 inHg 39% 0.02″
07/17/2016 10:06 PM 72.1°F 71.4°F / 72.1°F 63.5°F / 84.6°F 29.77 inHg 36% 0.02″
07/17/2016 09:06 PM 72.0°F 72.0°F / 72.5°F 63.5°F / 84.6°F 29.75 inHg 37% 0.02″
07/17/2016 08:06 PM 74.8°F 74.8°F / 75.0°F 63.5°F / 84.6°F 29.72 inHg 33% 0.02″
07/17/2016 07:06 PM 81.0°F 81.0°F / 81.9°F 63.5°F / 84.6°F 29.69 inHg 32% 0.02″
07/17/2016 06:06 PM 84.0°F 83.1°F / 84.6°F 63.5°F / 84.6°F 29.68 inHg 25% 0.02″
07/17/2016 05:06 PM 78.1°F 78.1°F / 78.1°F 63.5°F / 83.3°F 29.69 inHg 39% 0.02″
07/17/2016 04:05 PM 77.5°F 77.4°F / 77.5°F 63.5°F / 83.3°F 29.71 inHg 34% 0.02″
07/17/2016 03:05 PM 72.1°F 71.1°F / 72.1°F 63.5°F / 83.3°F 29.73 inHg 45% 0.02″
07/17/2016 02:05 PM 65.1°F 65.1°F / 65.5°F 63.5°F / 83.3°F 29.75 inHg 63% 0.01″
07/17/2016 01:05 PM 72.3°F 72.3°F / 74.7°F 65.3°F / 83.3°F 29.76 inHg 46% 0.00″
07/17/2016 12:05 PM 81.3°F 81.1°F / 81.7°F 65.3°F / 83.3°F 29.72 inHg 29% 0.00″
07/17/2016 11:05 AM 83.1°F 82.6°F / 83.1°F 65.3°F / 83.1°F 29.73 inHg 28% 0.00″
07/17/2016 10:05 AM 80.1°F 80.1°F / 80.2°F 65.3°F / 80.2°F 29.73 inHg 30% 0.00″
07/17/2016 09:05 AM 74.5°F 73.9°F / 74.7°F 65.3°F / 74.7°F 29.73 inHg 40% 0.00″
07/17/2016 08:05 AM 67.6°F 67.3°F / 67.6°F 65.3°F / 72.3°F 29.72 inHg 48% 0.00″
07/17/2016 07:04 AM 65.5°F 65.5°F / 65.7°F 65.5°F / 72.3°F 29.70 inHg 48% 0.00″
07/17/2016 06:04 AM 66.0°F 66.0°F / 66.2°F 66.0°F / 72.3°F 29.69 inHg 45% 0.00″
07/17/2016 05:04 AM 68.9°F 68.9°F / 69.3°F 67.8°F / 72.3°F 29.68 inHg 39% 0.00″
07/17/2016 04:04 AM 70.5°F 70.5°F / 70.5°F 67.8°F / 72.3°F 29.67 inHg 37% 0.00″
07/17/2016 03:04 AM 71.4°F 71.4°F / 71.8°F 67.8°F / 72.3°F 29.68 inHg 37% 0.00″
07/17/2016 02:04 AM 71.2°F 71.2°F / 71.8°F 67.8°F / 72.3°F 29.68 inHg 36% 0.00″
07/17/2016 01:04 AM 67.8°F 67.8°F / 67.8°F 67.8°F / 68.9°F 29.69 inHg 41% 0.00″
07/17/2016 12:04 AM 68.5°F 68.5°F / 68.5°F 68.5°F / 68.5°F 29.70 inHg 39% 0.00″
07/16/2016 11:04 PM 69.3°F 69.3°F / 70.0°F 64.6°F / 88.2°F 29.68 inHg 39% 0.00″
07/16/2016 10:03 PM 72.0°F 72.0°F / 72.1°F 64.6°F / 88.2°F 29.67 inHg 35% 0.00″
07/16/2016 09:03 PM 70.0°F 70.0°F / 70.0°F 64.6°F / 88.2°F 29.65 inHg 40% 0.00″
07/16/2016 08:03 PM 72.3°F 72.3°F / 72.9°F 64.6°F / 88.2°F 29.65 inHg 40% 0.00″
07/16/2016 07:03 PM 82.9°F 82.9°F / 84.4°F 64.6°F / 88.2°F 29.63 inHg 25% 0.00″
07/16/2016 06:03 PM 87.4°F 87.4°F / 87.8°F 64.6°F / 88.2°F 29.62 inHg 19% 0.00″
07/16/2016 05:03 PM 87.6°F 87.3°F / 87.6°F 64.6°F / 87.6°F 29.63 inHg 22% 0.00″
07/16/2016 04:03 PM 83.8°F 83.8°F / 84.6°F 64.6°F / 85.8°F 29.67 inHg 24% 0.00″
07/16/2016 03:03 PM 84.4°F 84.4°F / 85.1°F 64.6°F / 85.6°F 29.70 inHg 24% 0.00″
07/16/2016 02:03 PM 82.9°F 82.9°F / 82.9°F 64.6°F / 84.4°F 29.71 inHg 23% 0.00″
07/16/2016 01:03 PM 83.5°F 83.5°F / 83.8°F 64.6°F / 84.4°F 29.73 inHg 25% 0.00″
07/16/2016 12:03 PM 82.9°F 82.4°F / 82.9°F 64.6°F / 82.9°F 29.74 inHg 30% 0.00″
07/16/2016 11:03 AM 80.1°F 80.1°F / 80.2°F 64.6°F / 81.1°F 29.75 inHg 30% 0.00″
07/16/2016 10:03 AM 75.7°F 75.7°F / 75.9°F 64.6°F / 76.3°F 29.76 inHg 34% 0.00″
07/16/2016 09:03 AM 73.6°F 73.6°F / 73.6°F 64.6°F / 73.6°F 29.76 inHg 38% 0.00″
07/16/2016 08:02 AM 68.7°F 68.7°F / 69.1°F 64.6°F / 70.3°F 29.77 inHg 48% 0.00″
07/16/2016 07:02 AM 66.6°F 66.0°F / 66.6°F 64.6°F / 70.3°F 29.75 inHg 47% 0.00″
07/16/2016 06:02 AM 65.3°F 65.3°F / 65.5°F 64.8°F / 70.3°F 29.76 inHg 47% 0.00″
07/16/2016 05:02 AM 68.7°F 68.7°F / 68.9°F 64.8°F / 70.3°F 29.74 inHg 41% 0.00″
07/16/2016 04:02 AM 66.7°F 66.7°F / 66.7°F 64.8°F / 70.3°F 29.72 inHg 40% 0.00″
07/16/2016 03:02 AM 66.4°F 66.4°F / 66.6°F 66.0°F / 70.3°F 29.72 inHg 37% 0.00″
07/16/2016 02:02 AM 66.2°F 66.0°F / 66.2°F 66.0°F / 70.3°F 29.70 inHg 36% 0.00″
07/16/2016 01:02 AM 70.2°F 70.2°F / 70.2°F 66.7°F / 70.2°F 29.70 inHg 30% 0.00″
07/16/2016 12:02 AM 66.7°F 66.7°F / 66.7°F 66.7°F / 66.7°F 29.71 inHg 36% 0.00″
07/15/2016 11:02 PM 68.7°F 68.7°F / 68.7°F 67.3°F / 88.0°F 29.70 inHg 34% 0.01″
07/15/2016 10:02 PM 70.3°F 70.3°F / 70.3°F 67.3°F / 88.0°F 29.70 inHg 32% 0.01″
07/15/2016 09:02 PM 71.4°F 71.4°F / 71.4°F 67.3°F / 88.0°F 29.65 inHg 33% 0.01″
07/15/2016 08:02 PM 72.0°F 72.0°F / 72.0°F 67.3°F / 88.0°F 29.64 inHg 35% 0.01″
07/15/2016 07:02 PM 73.9°F 73.9°F / 73.9°F 67.3°F / 88.0°F 29.63 inHg 35% 0.01″
07/15/2016 06:02 PM 76.5°F 76.3°F / 76.5°F 67.3°F / 88.0°F 29.63 inHg 34% 0.01″
07/15/2016 05:02 PM 78.4°F 78.4°F / 78.4°F 67.3°F / 88.0°F 29.62 inHg 32% 0.01″
07/15/2016 04:02 PM 67.5°F 67.3°F / 67.5°F 67.3°F / 88.0°F 29.65 inHg 56% 0.01″
07/15/2016 03:02 PM 78.1°F 78.1°F / 78.1°F 68.2°F / 88.0°F 29.65 inHg 25% 0.00″
07/15/2016 02:02 PM 86.5°F 86.4°F / 86.5°F 68.2°F / 86.5°F 29.64 inHg 30% 0.00″
07/15/2016 01:01 PM 84.0°F 83.8°F / 84.0°F 68.2°F / 84.6°F 29.66 inHg 29% 0.00″
07/15/2016 12:01 PM 82.9°F 82.2°F / 82.9°F 68.2°F / 82.9°F 29.68 inHg 32% 0.00″
07/15/2016 11:01 AM 79.5°F 79.3°F / 79.5°F 68.2°F / 80.2°F 29.68 inHg 35% 0.00″
07/15/2016 10:01 AM 79.3°F 79.3°F / 79.5°F 68.2°F / 79.5°F 29.67 inHg 30% 0.00″
07/15/2016 09:01 AM 75.4°F 75.4°F / 75.4°F 68.2°F / 76.3°F 29.68 inHg 40% 0.00″
07/15/2016 08:01 AM 71.2°F 71.2°F / 71.2°F 68.2°F / 76.3°F 29.68 inHg 41% 0.00″
07/15/2016 07:01 AM 68.7°F 68.5°F / 68.7°F 68.2°F / 76.3°F 29.67 inHg 39% 0.00″
07/15/2016 06:01 AM 69.1°F 69.1°F / 69.3°F 69.1°F / 76.3°F 29.66 inHg 37% 0.00″
07/15/2016 05:01 AM 70.3°F 70.3°F / 70.3°F 70.3°F / 76.3°F 29.65 inHg 34% 0.00″
07/15/2016 04:01 AM 70.9°F 70.9°F / 70.9°F 70.7°F / 76.3°F 29.65 inHg 29% 0.00″
07/15/2016 03:00 AM 71.1°F 71.1°F / 71.1°F 71.1°F / 76.3°F 29.64 inHg 26% 0.00″
07/15/2016 02:00 AM 75.6°F 75.6°F / 75.6°F 72.9°F / 76.3°F 29.62 inHg 23% 0.00″
07/15/2016 01:00 AM 72.9°F 72.9°F / 73.0°F 72.9°F / 76.3°F 29.64 inHg 27% 0.00″
07/15/2016 12:00 AM 76.3°F 76.3°F / 76.3°F 76.3°F / 76.3°F 29.67 inHg 19% 0.00″
07/14/2016 11:00 PM 69.3°F 69.1°F / 69.3°F 62.1°F / 93.9°F 29.66 inHg 19% 0.00″
07/14/2016 10:00 PM 70.3°F 70.3°F / 70.3°F 62.1°F / 93.9°F 29.66 inHg 22% 0.00″
07/14/2016 09:00 PM 74.5°F 74.5°F / 74.5°F 62.1°F / 93.9°F 29.64 inHg 20% 0.00″
07/14/2016 08:00 PM 84.7°F 84.7°F / 84.7°F 62.1°F / 93.9°F 29.63 inHg 12% 0.00″
07/14/2016 07:00 PM 90.1°F 90.1°F / 90.1°F 62.1°F / 93.9°F 29.62 inHg 12% 0.00″
07/14/2016 06:00 PM 92.5°F 92.5°F / 92.5°F 62.1°F / 93.9°F 29.63 inHg 10% 0.00″
07/14/2016 05:00 PM 93.7°F 93.7°F / 93.7°F 62.1°F / 93.9°F 29.65 inHg 10% 0.00″
07/14/2016 04:00 PM 92.1°F 92.1°F / 92.1°F 62.1°F / 93.0°F 29.66 inHg 12% 0.00″
07/14/2016 03:00 PM 91.0°F 0.0°F / 0.0°F 62.1°F / 92.7°F 29.68 inHg 13% 0.00″
07/14/2016 02:00 PM 91.8°F 0.0°F / 0.0°F 62.1°F / 91.9°F 29.70 inHg 12% 0.00″
07/14/2016 01:00 PM 90.1°F 0.0°F / 0.0°F 62.1°F / 90.1°F 29.72 inHg 11% 0.00″
07/14/2016 11:59 AM 87.3°F 82.0°F / 87.3°F 62.1°F / 87.3°F 29.74 inHg 14% 0.00″
07/14/2016 10:59 AM 84.6°F 78.4°F / 84.7°F 62.1°F / 84.7°F 29.75 inHg 19% 0.00″
07/14/2016 09:59 AM 78.8°F 76.5°F / 80.2°F 62.1°F / 80.2°F 29.75 inHg 20% 0.00″
07/14/2016 08:59 AM 76.3°F 66.2°F / 76.3°F 62.1°F / 76.3°F 29.75 inHg 24% 0.00″
07/14/2016 07:59 AM 66.0°F 62.6°F / 66.0°F 62.1°F / 69.4°F 29.74 inHg 35% 0.00″
07/14/2016 06:59 AM 62.8°F 62.1°F / 63.3°F 62.1°F / 69.4°F 29.73 inHg 34% 0.00″
07/14/2016 05:59 AM 62.2°F 62.2°F / 64.9°F 62.2°F / 69.4°F 29.72 inHg 32% 0.00″
07/14/2016 04:59 AM 64.9°F 64.9°F / 67.6°F 64.9°F / 69.4°F 29.70 inHg 27% 0.00″
07/14/2016 03:59 AM 65.7°F 65.7°F / 69.3°F 65.7°F / 69.4°F 29.70 inHg 27% 0.00″
07/14/2016 02:59 AM 69.1°F 66.0°F / 69.3°F 65.8°F / 69.4°F 29.70 inHg 24% 0.00″
07/14/2016 01:59 AM 66.0°F 65.8°F / 69.4°F 65.8°F / 69.4°F 29.70 inHg 27% 0.00″
07/14/2016 12:59 AM 67.1°F 65.8°F / 67.5°F 65.8°F / 67.5°F 29.70 inHg 26% 0.00″
07/13/2016 11:59 PM 67.5°F 67.1°F / 69.4°F 60.6°F / 91.0°F 29.70 inHg 25% 0.00″
07/13/2016 10:59 PM 69.4°F 68.4°F / 69.6°F 60.6°F / 91.0°F 29.70 inHg 24% 0.00″
07/13/2016 09:59 PM 69.8°F 69.8°F / 72.3°F 60.6°F / 91.0°F 29.70 inHg 23% 0.00″
07/13/2016 08:58 PM 72.3°F 72.3°F / 82.2°F 60.6°F / 91.0°F 29.68 inHg 21% 0.00″
07/13/2016 07:58 PM 82.8°F 82.8°F / 89.4°F 60.6°F / 91.0°F 29.67 inHg 16% 0.00″
07/13/2016 06:58 PM 88.2°F 87.8°F / 90.1°F 60.6°F / 91.0°F 29.67 inHg 11% 0.00″
07/13/2016 05:58 PM 89.4°F 89.2°F / 90.7°F 60.6°F / 91.0°F 29.67 inHg 12% 0.00″
07/13/2016 04:58 PM 89.4°F 89.2°F / 91.0°F 60.6°F / 91.0°F 29.68 inHg 11% 0.00″
07/13/2016 03:58 PM 89.2°F 89.1°F / 90.9°F 60.6°F / 90.9°F 29.70 inHg 10% 0.00″
07/13/2016 02:58 PM 90.0°F 87.3°F / 90.0°F 60.6°F / 90.0°F 29.71 inHg 14% 0.00″
07/13/2016 01:58 PM 87.3°F 86.2°F / 88.3°F 60.6°F / 88.3°F 29.74 inHg 12% 0.00″
07/13/2016 12:58 PM 86.2°F 83.8°F / 86.5°F 60.6°F / 86.5°F 29.76 inHg 13% 0.00″
07/08/2016 01:23 AM 63.9°F 63.9°F / 64.0°F 59.2°F / 86.7°F 29.72 inHg 57% 0.00″
07/07/2016 01:23 AM 63.9°F 63.9°F / 64.0°F 58.3°F / 86.4°F 29.72 inHg 57% 0.00″
07/06/2016 01:23 AM 63.9°F 63.9°F / 64.0°F 61.2°F / 85.8°F 29.72 inHg 57% 0.00″
07/05/2016 01:23 AM 63.9°F 63.9°F / 64.0°F 60.3°F / 87.8°F 29.72 inHg 57% 0.00″
07/04/2016 01:23 AM 63.9°F 63.9°F / 64.0°F 60.4°F / 87.8°F 29.72 inHg 57% 0.00″
07/03/2016 01:23 AM 63.9°F 63.9°F / 64.0°F 57.9°F / 85.1°F 29.72 inHg 57% 0.00″
07/02/2016 01:23 AM 63.9°F 63.9°F / 64.0°F 55.9°F / 79.0°F 29.72 inHg 57% 0.00″
07/01/2016 01:23 AM 63.9°F 63.9°F / 64.0°F 58.5°F / 74.1°F 29.72 inHg 57% 0.00″
06/30/2016 01:23 AM 63.9°F 63.9°F / 64.0°F 55.0°F / 79.9°F 29.72 inHg 57% 0.00″
06/29/2016 01:23 AM 63.9°F 63.9°F / 64.0°F 53.1°F / 79.7°F 29.72 inHg 57% 0.00″
06/28/2016 01:23 AM 63.9°F 63.9°F / 64.0°F 59.2°F / 74.1°F 29.72 inHg 57% 0.00″
06/27/2016 01:23 AM 63.9°F 63.9°F / 64.0°F 54.9°F / 79.0°F 29.72 inHg 57% 0.00″
06/26/2016 01:23 AM 63.9°F 63.9°F / 64.0°F 55.4°F / 75.9°F 29.72 inHg 57% 0.00″
07/13/2016 11:58 AM 84.4°F 81.9°F / 84.4°F 60.6°F / 84.4°F 29.77 inHg 14% 0.00″
07/13/2016 10:57 AM 82.2°F 79.2°F / 82.6°F 60.6°F / 82.6°F 29.77 inHg 17% 0.00″
07/13/2016 09:57 AM 79.3°F 76.6°F / 79.3°F 60.6°F / 79.3°F 29.77 inHg 18% 0.00″
07/13/2016 08:57 AM 76.3°F 64.8°F / 76.3°F 60.6°F / 76.3°F 29.76 inHg 23% 0.00″
07/13/2016 07:57 AM 64.6°F 60.6°F / 64.6°F 60.6°F / 70.7°F 29.75 inHg 39% 0.00″
07/13/2016 06:57 AM 61.9°F 61.7°F / 62.4°F 61.3°F / 70.7°F 29.73 inHg 36% 0.00″
07/13/2016 05:57 AM 61.7°F 61.3°F / 62.8°F 61.3°F / 70.7°F 29.70 inHg 33% 0.00″
07/13/2016 04:57 AM 62.2°F 62.2°F / 64.8°F 62.2°F / 70.7°F 29.69 inHg 32% 0.00″
07/13/2016 03:57 AM 64.9°F 64.2°F / 67.1°F 64.2°F / 70.7°F 29.68 inHg 28% 0.00″
07/13/2016 02:57 AM 66.6°F 65.7°F / 69.3°F 65.7°F / 70.7°F 29.68 inHg 29% 0.00″
07/13/2016 01:57 AM 68.5°F 68.5°F / 70.7°F 68.5°F / 70.7°F 29.68 inHg 28% 0.00″
07/13/2016 12:57 AM 70.5°F 69.4°F / 70.7°F 69.4°F / 70.7°F 29.69 inHg 26% 0.00″
07/12/2016 11:57 PM 70.3°F 70.0°F / 71.1°F 60.1°F / 88.7°F 29.69 inHg 28% 0.00″
07/12/2016 10:57 PM 70.7°F 70.7°F / 73.6°F 60.1°F / 88.7°F 29.68 inHg 26% 0.00″
07/12/2016 09:56 PM 73.9°F 73.9°F / 75.6°F 60.1°F / 88.7°F 29.66 inHg 24% 0.00″
07/12/2016 08:56 PM 75.7°F 75.7°F / 81.9°F 60.1°F / 88.7°F 29.63 inHg 22% 0.00″
07/12/2016 07:56 PM 82.8°F 82.8°F / 86.7°F 60.1°F / 88.7°F 29.61 inHg 19% 0.00″
07/12/2016 06:56 PM 86.7°F 86.5°F / 88.2°F 60.1°F / 88.7°F 29.61 inHg 16% 0.00″
07/12/2016 05:56 PM 87.4°F 87.1°F / 88.3°F 60.1°F / 88.7°F 29.62 inHg 17% 0.00″
07/12/2016 04:56 PM 88.2°F 86.4°F / 88.7°F 60.1°F / 88.7°F 29.63 inHg 15% 0.00″
07/12/2016 03:56 PM 87.3°F 86.4°F / 88.2°F 60.1°F / 88.2°F 29.65 inHg 16% 0.00″
07/12/2016 02:56 PM 85.5°F 84.7°F / 86.5°F 60.1°F / 86.5°F 29.67 inHg 16% 0.00″
07/12/2016 01:56 PM 85.5°F 84.0°F / 86.5°F 60.1°F / 86.5°F 29.67 inHg 17% 0.00″
07/12/2016 12:56 PM 84.0°F 82.0°F / 84.6°F 60.1°F / 84.6°F 29.68 inHg 19% 0.00″
07/12/2016 11:56 AM 82.2°F 81.1°F / 82.6°F 60.1°F / 82.6°F 29.69 inHg 23% 0.00″
07/12/2016 10:56 AM 80.4°F 78.6°F / 80.8°F 60.1°F / 80.8°F 29.70 inHg 21% 0.00″
07/12/2016 09:56 AM 78.3°F 74.7°F / 78.4°F 60.1°F / 78.4°F 29.69 inHg 22% 0.00″
07/12/2016 08:56 AM 73.8°F 64.2°F / 73.8°F 60.1°F / 73.8°F 29.69 inHg 31% 0.00″
07/12/2016 07:56 AM 63.7°F 60.3°F / 63.7°F 60.1°F / 71.1°F 29.66 inHg 43% 0.00″
07/12/2016 06:55 AM 61.0°F 60.1°F / 61.2°F 60.1°F / 71.1°F 29.64 inHg 41% 0.00″
07/12/2016 05:55 AM 61.3°F 61.3°F / 64.6°F 61.3°F / 71.1°F 29.62 inHg 38% 0.00″
07/12/2016 04:55 AM 64.2°F 63.7°F / 65.1°F 63.7°F / 71.1°F 29.60 inHg 34% 0.00″
07/12/2016 03:55 AM 64.2°F 64.2°F / 65.1°F 64.2°F / 71.1°F 29.60 inHg 35% 0.00″
07/12/2016 02:55 AM 64.9°F 64.8°F / 65.1°F 64.8°F / 71.1°F 29.60 inHg 33% 0.00″
07/12/2016 01:54 AM 66.2°F 66.2°F / 69.4°F 66.2°F / 71.1°F 29.61 inHg 33% 0.00″
07/12/2016 12:54 AM 69.3°F 69.3°F / 71.1°F 69.3°F / 71.1°F 29.61 inHg 29% 0.00″
07/11/2016 11:54 PM 71.1°F 70.3°F / 72.9°F 62.1°F / 88.7°F 29.61 inHg 29% 0.00″
07/11/2016 10:54 PM 71.8°F 71.8°F / 77.2°F 62.1°F / 88.7°F 29.60 inHg 27% 0.00″
07/11/2016 09:54 PM 76.8°F 76.5°F / 78.1°F 62.1°F / 88.7°F 29.59 inHg 21% 0.00″
07/11/2016 08:54 PM 78.4°F 78.4°F / 82.0°F 62.1°F / 88.7°F 29.56 inHg 18% 0.00″
07/11/2016 07:54 PM 82.4°F 82.4°F / 85.6°F 62.1°F / 88.7°F 29.54 inHg 15% 0.00″
07/11/2016 06:54 PM 85.6°F 85.6°F / 87.6°F 62.1°F / 88.7°F 29.53 inHg 14% 0.00″
07/11/2016 05:54 PM 86.9°F 86.9°F / 88.2°F 62.1°F / 88.7°F 29.53 inHg 16% 0.00″
07/11/2016 04:54 PM 88.2°F 87.4°F / 88.7°F 62.1°F / 88.7°F 29.54 inHg 15% 0.00″
07/11/2016 03:54 PM 86.4°F 86.4°F / 88.3°F 62.1°F / 88.3°F 29.54 inHg 19% 0.00″
07/11/2016 02:54 PM 86.5°F 85.1°F / 86.7°F 62.1°F / 86.7°F 29.57 inHg 20% 0.00″
07/11/2016 01:53 PM 84.7°F 83.5°F / 85.8°F 62.1°F / 85.8°F 29.59 inHg 22% 0.00″
07/11/2016 12:53 PM 83.8°F 82.4°F / 84.0°F 62.1°F / 84.0°F 29.61 inHg 19% 0.00″
07/11/2016 11:53 AM 81.5°F 80.1°F / 81.7°F 62.1°F / 81.7°F 29.62 inHg 22% 0.00″
07/11/2016 10:53 AM 79.9°F 78.1°F / 79.9°F 62.1°F / 79.9°F 29.62 inHg 26% 0.00″
07/11/2016 09:53 AM 78.3°F 75.4°F / 78.3°F 62.1°F / 78.3°F 29.62 inHg 25% 0.00″
07/11/2016 08:53 AM 74.8°F 72.3°F / 74.8°F 62.1°F / 74.8°F 29.62 inHg 33% 0.00″
07/11/2016 07:53 AM 71.1°F 63.9°F / 71.1°F 62.1°F / 72.0°F 29.61 inHg 37% 0.00″
07/11/2016 06:53 AM 63.7°F 62.1°F / 63.7°F 62.1°F / 72.0°F 29.60 inHg 44% 0.00″
07/11/2016 05:53 AM 62.8°F 62.4°F / 64.2°F 62.4°F / 72.0°F 29.58 inHg 46% 0.00″
07/11/2016 04:53 AM 64.6°F 64.6°F / 66.0°F 64.6°F / 72.0°F 29.57 inHg 43% 0.00″
07/11/2016 03:53 AM 65.8°F 65.5°F / 66.7°F 65.5°F / 72.0°F 29.56 inHg 42% 0.00″
07/11/2016 02:53 AM 68.9°F 68.4°F / 69.8°F 68.4°F / 72.0°F 29.57 inHg 37% 0.00″
07/11/2016 01:47 AM 69.4°F 69.3°F / 70.5°F 69.3°F / 72.0°F 29.57 inHg 36% 0.00″
07/11/2016 12:47 AM 71.8°F 70.3°F / 72.0°F 70.3°F / 72.0°F 29.58 inHg 33% 0.00″
07/10/2016 11:47 PM 71.4°F 71.4°F / 73.0°F 64.0°F / 89.8°F 29.59 inHg 32% 0.00″
07/10/2016 10:47 PM 72.1°F 72.1°F / 75.9°F 64.0°F / 89.8°F 29.59 inHg 30% 0.00″
07/10/2016 09:47 PM 75.0°F 73.6°F / 75.0°F 64.0°F / 89.8°F 29.59 inHg 26% 0.00″
07/10/2016 08:47 PM 76.3°F 76.3°F / 82.2°F 64.0°F / 89.8°F 29.55 inHg 26% 0.00″
07/10/2016 07:47 PM 84.0°F 84.0°F / 86.0°F 64.0°F / 89.8°F 29.56 inHg 20% 0.00″
07/10/2016 06:47 PM 87.4°F 87.3°F / 88.7°F 64.0°F / 89.8°F 29.56 inHg 18% 0.00″
07/10/2016 05:47 PM 88.5°F 88.5°F / 89.8°F 64.0°F / 89.8°F 29.58 inHg 18% 0.00″
07/10/2016 04:47 PM 86.5°F 86.5°F / 89.8°F 64.0°F / 89.8°F 29.60 inHg 19% 0.00″
07/10/2016 03:47 PM 88.3°F 86.7°F / 88.7°F 64.0°F / 88.7°F 29.63 inHg 18% 0.00″
07/10/2016 02:47 PM 87.3°F 85.5°F / 88.2°F 64.0°F / 88.2°F 29.65 inHg 23% 0.00″
07/10/2016 01:47 PM 85.6°F 84.0°F / 85.6°F 64.0°F / 85.6°F 29.68 inHg 24% 0.00″
07/10/2016 12:47 PM 84.9°F 82.0°F / 84.9°F 64.0°F / 84.9°F 29.70 inHg 27% 0.00″
07/10/2016 11:47 AM 82.0°F 79.5°F / 82.2°F 64.0°F / 82.2°F 29.71 inHg 34% 0.00″
07/10/2016 10:47 AM 79.3°F 77.7°F / 79.7°F 64.0°F / 79.7°F 29.72 inHg 37% 0.00″
07/10/2016 09:47 AM 77.5°F 74.3°F / 77.5°F 64.0°F / 77.5°F 29.72 inHg 38% 0.00″
07/10/2016 08:47 AM 73.9°F 66.7°F / 73.9°F 64.0°F / 73.9°F 29.73 inHg 43% 0.00″
07/10/2016 07:47 AM 65.5°F 64.0°F / 65.5°F 64.0°F / 70.9°F 29.74 inHg 52% 0.00″
07/10/2016 06:47 AM 64.2°F 64.0°F / 65.1°F 64.0°F / 70.9°F 29.74 inHg 49% 0.00″
07/10/2016 05:47 AM 65.1°F 64.8°F / 65.5°F 64.4°F / 70.9°F 29.73 inHg 45% 0.00″
07/10/2016 04:47 AM 65.5°F 65.5°F / 69.1°F 64.4°F / 70.9°F 29.73 inHg 43% 0.00″
07/10/2016 03:47 AM 68.9°F 67.5°F / 70.5°F 64.4°F / 70.9°F 29.74 inHg 38% 0.00″
07/10/2016 02:46 AM 67.8°F 67.8°F / 70.9°F 64.4°F / 70.9°F 29.74 inHg 41% 0.00″
07/10/2016 01:46 AM 67.5°F 64.4°F / 67.5°F 64.4°F / 68.4°F 29.74 inHg 45% 0.00″
07/10/2016 12:46 AM 64.9°F 64.8°F / 68.4°F 64.8°F / 68.4°F 29.76 inHg 42% 0.00″
07/09/2016 11:46 PM 69.3°F 66.9°F / 69.6°F 60.3°F / 85.5°F 29.76 inHg 35% 0.02″
07/09/2016 10:46 PM 66.9°F 65.7°F / 67.1°F 60.3°F / 85.5°F 29.76 inHg 41% 0.02″
07/09/2016 09:46 PM 69.4°F 68.9°F / 70.9°F 60.3°F / 85.5°F 29.74 inHg 38% 0.02″
07/09/2016 08:46 PM 69.4°F 69.4°F / 76.8°F 60.3°F / 85.5°F 29.73 inHg 36% 0.02″
07/09/2016 07:46 PM 79.7°F 79.3°F / 83.8°F 60.3°F / 85.5°F 29.73 inHg 31% 0.02″
07/09/2016 06:46 PM 84.0°F 83.5°F / 84.7°F 60.3°F / 85.5°F 29.71 inHg 23% 0.02″
07/09/2016 05:46 PM 82.0°F 63.7°F / 82.0°F 60.3°F / 85.5°F 29.73 inHg 28% 0.02″
07/09/2016 04:45 PM 64.0°F 64.0°F / 73.8°F 60.3°F / 85.5°F 29.85 inHg 58% 0.01″
06/25/2016 01:23 AM 63.9°F 63.9°F / 64.0°F 59.5°F / 82.0°F 29.72 inHg 57% 0.00″
06/24/2016 04:22 PM 78.4°F 77.0°F / 78.4°F 63.1°F / 81.1°F 29.68 inHg 35% 0.00″
06/24/2016 03:22 PM 76.6°F 76.1°F / 76.8°F 63.1°F / 81.1°F 29.70 inHg 38% 0.00″
06/24/2016 02:22 PM 75.0°F 75.0°F / 76.8°F 63.1°F / 81.1°F 29.72 inHg 46% 0.00″
06/24/2016 01:22 PM 77.5°F 77.4°F / 77.5°F 63.1°F / 81.1°F 29.73 inHg 35% 0.00″
06/24/2016 12:22 PM 80.4°F 78.1°F / 80.6°F 63.1°F / 80.6°F 29.75 inHg 36% 0.00″
06/24/2016 11:22 AM 77.4°F 76.6°F / 77.7°F 63.1°F / 77.7°F 29.77 inHg 39% 0.00″
06/24/2016 10:22 AM 76.3°F 75.2°F / 76.6°F 63.1°F / 76.6°F 29.77 inHg 39% 0.00″
06/24/2016 09:22 AM 71.8°F 70.3°F / 71.8°F 63.1°F / 71.8°F 29.78 inHg 53% 0.00″
06/24/2016 08:22 AM 68.2°F 67.3°F / 68.2°F 63.1°F / 69.3°F 29.78 inHg 58% 0.00″
06/24/2016 07:22 AM 65.7°F 64.9°F / 65.7°F 63.1°F / 69.3°F 29.77 inHg 57% 0.00″
06/24/2016 06:22 AM 65.8°F 65.1°F / 65.8°F 63.1°F / 69.3°F 29.77 inHg 54% 0.00″
06/24/2016 05:21 AM 63.1°F 63.1°F / 63.3°F 63.1°F / 69.3°F 29.76 inHg 59% 0.00″
06/24/2016 04:21 AM 63.7°F 63.7°F / 65.5°F 63.7°F / 69.3°F 29.76 inHg 57% 0.00″
06/24/2016 03:21 AM 66.2°F 66.2°F / 68.5°F 66.2°F / 69.3°F 29.74 inHg 51% 0.00″
06/24/2016 02:21 AM 69.3°F 68.5°F / 69.3°F 66.7°F / 69.3°F 29.73 inHg 42% 0.00″
06/24/2016 01:21 AM 66.9°F 66.7°F / 66.9°F 66.7°F / 68.4°F 29.73 inHg 50% 0.00″
06/24/2016 12:21 AM 68.0°F 68.0°F / 68.4°F 68.0°F / 68.4°F 29.75 inHg 53% 0.00″
06/23/2016 11:21 PM 70.3°F 70.3°F / 70.9°F 60.4°F / 88.5°F 29.73 inHg 46% 0.12″
06/23/2016 10:21 PM 72.0°F 71.4°F / 72.1°F 60.4°F / 88.5°F 29.70 inHg 40% 0.12″
06/23/2016 09:21 PM 72.1°F 70.2°F / 72.1°F 60.4°F / 88.5°F 29.68 inHg 37% 0.12″
06/23/2016 08:21 PM 70.2°F 68.4°F / 70.2°F 60.4°F / 88.5°F 29.64 inHg 48% 0.12″
06/23/2016 07:21 PM 63.0°F 62.1°F / 63.1°F 60.4°F / 88.5°F 29.61 inHg 82% 0.12″
06/23/2016 06:21 PM 60.6°F 60.6°F / 61.5°F 60.6°F / 88.5°F 29.66 inHg 88% 0.11″
06/23/2016 05:21 PM 71.4°F 71.4°F / 84.2°F 66.0°F / 88.5°F 29.63 inHg 53% 0.01″
06/23/2016 04:21 PM 85.5°F 83.5°F / 85.6°F 66.0°F / 87.3°F 29.62 inHg 22% 0.00″
06/23/2016 03:21 PM 83.1°F 83.1°F / 86.0°F 66.0°F / 87.3°F 29.65 inHg 27% 0.00″
06/23/2016 02:20 PM 85.3°F 82.6°F / 85.3°F 66.0°F / 85.3°F 29.67 inHg 26% 0.00″
06/23/2016 01:20 PM 81.0°F 79.5°F / 81.0°F 66.0°F / 82.4°F 29.69 inHg 35% 0.00″
06/23/2016 12:20 PM 80.1°F 78.4°F / 80.1°F 66.0°F / 82.4°F 29.70 inHg 34% 0.00″
06/23/2016 08:20 AM 73.4°F 71.4°F / 73.4°F 66.0°F / 75.4°F 29.69 inHg 45% 0.00″
06/23/2016 07:20 AM 68.2°F 66.7°F / 68.2°F 66.0°F / 75.4°F 29.66 inHg 53% 0.00″
06/23/2016 06:20 AM 66.4°F 66.0°F / 66.4°F 66.0°F / 75.4°F 29.65 inHg 55% 0.00″
06/23/2016 05:20 AM 66.9°F 66.9°F / 67.6°F 66.9°F / 75.4°F 29.64 inHg 54% 0.00″
06/23/2016 04:20 AM 69.3°F 69.3°F / 70.9°F 69.3°F / 75.4°F 29.65 inHg 49% 0.00″
06/23/2016 03:20 AM 72.0°F 72.0°F / 72.5°F 72.0°F / 75.4°F 29.64 inHg 41% 0.00″
06/23/2016 02:20 AM 73.4°F 73.4°F / 73.9°F 72.5°F / 75.4°F 29.64 inHg 37% 0.00″
06/23/2016 01:20 AM 75.4°F 73.4°F / 75.4°F 72.5°F / 75.4°F 29.65 inHg 33% 0.00″
06/23/2016 12:20 AM 74.1°F 74.1°F / 74.8°F 74.1°F / 74.8°F 29.66 inHg 33% 0.00″
06/22/2016 11:20 PM 74.7°F 73.8°F / 74.7°F 63.3°F / 89.6°F 29.66 inHg 32% 0.00″
06/22/2016 10:20 PM 75.9°F 75.9°F / 76.6°F 63.3°F / 89.6°F 29.66 inHg 29% 0.00″
06/22/2016 09:20 PM 76.8°F 76.8°F / 78.1°F 63.3°F / 89.6°F 29.65 inHg 28% 0.00″
06/22/2016 08:20 PM 78.4°F 78.4°F / 82.6°F 63.3°F / 89.6°F 29.64 inHg 27% 0.00″
06/22/2016 07:20 PM 86.2°F 86.2°F / 86.7°F 63.3°F / 89.6°F 29.62 inHg 20% 0.00″
06/22/2016 06:20 PM 87.6°F 87.6°F / 88.9°F 63.3°F / 89.6°F 29.61 inHg 20% 0.00″
06/22/2016 05:20 PM 87.3°F 86.5°F / 88.7°F 63.3°F / 89.6°F 29.61 inHg 22% 0.00″
06/22/2016 04:20 PM 87.4°F 86.7°F / 89.2°F 63.3°F / 89.2°F 29.62 inHg 22% 0.00″
06/22/2016 03:20 PM 88.5°F 87.1°F / 88.5°F 63.3°F / 88.5°F 29.65 inHg 22% 0.00″
06/22/2016 02:20 PM 87.3°F 86.0°F / 88.0°F 63.3°F / 88.0°F 29.68 inHg 24% 0.00″
06/22/2016 01:20 PM 85.3°F 84.4°F / 85.8°F 63.3°F / 85.8°F 29.69 inHg 27% 0.00″
06/22/2016 12:20 PM 83.8°F 82.9°F / 83.8°F 63.3°F / 83.8°F 29.72 inHg 27% 0.00″
06/22/2016 11:19 AM 82.2°F 81.7°F / 82.2°F 63.3°F / 82.2°F 29.73 inHg 33% 0.00″
06/22/2016 10:19 AM 79.9°F 79.3°F / 80.1°F 63.3°F / 80.1°F 29.73 inHg 35% 0.00″
06/22/2016 09:19 AM 78.3°F 76.8°F / 78.3°F 63.3°F / 78.3°F 29.73 inHg 38% 0.00″
06/22/2016 08:19 AM 74.8°F 72.9°F / 74.8°F 63.3°F / 74.8°F 29.74 inHg 41% 0.00″
06/22/2016 07:19 AM 67.8°F 66.4°F / 67.8°F 63.3°F / 68.7°F 29.74 inHg 49% 0.00″
06/22/2016 06:19 AM 63.7°F 63.3°F / 63.9°F 63.3°F / 68.7°F 29.74 inHg 47% 0.00″
06/22/2016 05:19 AM 64.0°F 64.0°F / 64.6°F 64.0°F / 68.7°F 29.73 inHg 46% 0.00″
06/22/2016 04:19 AM 65.8°F 65.5°F / 65.8°F 65.5°F / 68.7°F 29.73 inHg 46% 0.00″
06/22/2016 03:19 AM 66.4°F 66.4°F / 66.6°F 66.2°F / 68.7°F 29.74 inHg 46% 0.00″
06/22/2016 02:19 AM 66.7°F 66.7°F / 67.5°F 66.4°F / 68.7°F 29.75 inHg 44% 0.00″
06/22/2016 01:19 AM 67.5°F 67.3°F / 67.6°F 67.1°F / 68.7°F 29.76 inHg 42% 0.00″
06/22/2016 12:19 AM 67.8°F 67.8°F / 68.7°F 67.8°F / 68.7°F 29.77 inHg 40% 0.00″
06/21/2016 11:19 PM 68.7°F 68.7°F / 69.3°F 63.5°F / 84.2°F 29.78 inHg 38% 0.00″
06/21/2016 10:19 PM 69.6°F 69.6°F / 70.2°F 63.5°F / 84.2°F 29.78 inHg 38% 0.00″
06/21/2016 09:19 PM 71.4°F 71.4°F / 71.8°F 63.5°F / 84.2°F 29.76 inHg 36% 0.00″
06/21/2016 08:18 PM 74.8°F 74.8°F / 77.9°F 63.5°F / 84.2°F 29.74 inHg 33% 0.00″
06/21/2016 07:18 PM 80.8°F 80.6°F / 81.1°F 63.5°F / 84.2°F 29.74 inHg 26% 0.00″
06/21/2016 06:18 PM 82.0°F 82.0°F / 83.1°F 63.5°F / 84.2°F 29.74 inHg 25% 0.00″
06/21/2016 05:18 PM 83.7°F 82.4°F / 83.8°F 63.5°F / 84.2°F 29.75 inHg 27% 0.00″
06/21/2016 04:18 PM 82.9°F 82.2°F / 83.8°F 63.5°F / 83.8°F 29.78 inHg 28% 0.00″
06/21/2016 03:18 PM 81.7°F 81.3°F / 82.6°F 63.5°F / 82.6°F 29.81 inHg 31% 0.00″
06/21/2016 02:18 PM 81.9°F 80.1°F / 81.9°F 63.5°F / 81.9°F 29.83 inHg 30% 0.00″
06/21/2016 01:18 PM 79.5°F 78.3°F / 79.5°F 63.5°F / 79.5°F 29.85 inHg 34% 0.00″
06/21/2016 12:18 PM 76.6°F 76.1°F / 77.2°F 63.5°F / 77.7°F 29.87 inHg 36% 0.00″
06/21/2016 11:18 AM 75.4°F 74.7°F / 75.4°F 63.5°F / 75.4°F 29.89 inHg 38% 0.00″
06/21/2016 10:18 AM 73.6°F 72.0°F / 73.6°F 63.5°F / 73.6°F 29.90 inHg 39% 0.00″
06/21/2016 09:18 AM 70.3°F 70.0°F / 70.3°F 63.5°F / 70.3°F 29.91 inHg 43% 0.00″
06/21/2016 08:17 AM 69.3°F 67.8°F / 69.3°F 63.5°F / 69.3°F 29.90 inHg 42% 0.00″
06/21/2016 07:17 AM 65.1°F 64.6°F / 65.1°F 63.5°F / 65.5°F 29.89 inHg 47% 0.00″
06/21/2016 06:17 AM 64.0°F 63.9°F / 64.0°F 63.5°F / 65.5°F 29.89 inHg 46% 0.00″
06/21/2016 05:17 AM 63.7°F 63.7°F / 63.9°F 63.7°F / 65.5°F 29.88 inHg 49% 0.00″
06/21/2016 04:17 AM 63.7°F 63.7°F / 63.9°F 63.7°F / 65.5°F 29.88 inHg 53% 0.00″
06/21/2016 03:17 AM 64.0°F 64.0°F / 64.2°F 63.7°F / 65.5°F 29.88 inHg 54% 0.00″
06/21/2016 02:17 AM 63.7°F 63.7°F / 63.7°F 63.7°F / 65.5°F 29.88 inHg 59% 0.00″
06/21/2016 01:17 AM 64.6°F 64.6°F / 64.8°F 64.6°F / 65.5°F 29.90 inHg 54% 0.00″
06/21/2016 12:17 AM 65.3°F 65.3°F / 65.5°F 65.3°F / 65.5°F 29.90 inHg 51% 0.00″
06/20/2016 11:17 PM 66.2°F 66.2°F / 66.7°F 60.4°F / 85.5°F 29.91 inHg 50% 0.00″
06/20/2016 10:17 PM 67.8°F 67.8°F / 68.5°F 60.4°F / 85.5°F 29.88 inHg 46% 0.00″
06/20/2016 09:17 PM 69.6°F 69.6°F / 70.3°F 60.4°F / 85.5°F 29.86 inHg 41% 0.00″
06/20/2016 08:17 PM 72.9°F 72.9°F / 74.7°F 60.4°F / 85.5°F 29.85 inHg 34% 0.00″
06/20/2016 07:17 PM 79.0°F 79.0°F / 79.9°F 60.4°F / 85.5°F 29.83 inHg 29% 0.00″
06/20/2016 06:16 PM 82.6°F 81.3°F / 82.8°F 60.4°F / 85.5°F 29.81 inHg 24% 0.00″
06/20/2016 05:16 PM 80.2°F 80.1°F / 82.0°F 60.4°F / 85.5°F 29.83 inHg 25% 0.00″
06/20/2016 04:16 PM 81.9°F 81.9°F / 84.0°F 60.4°F / 85.5°F 29.84 inHg 24% 0.00″
06/20/2016 03:16 PM 80.6°F 80.2°F / 82.8°F 60.4°F / 85.5°F 29.85 inHg 30% 0.00″
06/20/2016 02:16 PM 82.9°F 81.7°F / 83.8°F 60.4°F / 84.0°F 29.86 inHg 24% 0.00″
06/20/2016 01:16 PM 81.1°F 81.0°F / 82.2°F 60.4°F / 82.6°F 29.88 inHg 27% 0.00″
06/20/2016 12:16 PM 77.4°F 75.6°F / 77.4°F 60.4°F / 77.4°F 29.89 inHg 37% 0.00″
06/20/2016 11:16 AM 75.2°F 71.6°F / 75.2°F 60.4°F / 75.6°F 29.89 inHg 40% 0.00″
06/20/2016 10:16 AM 74.7°F 73.8°F / 74.7°F 60.4°F / 74.7°F 29.88 inHg 39% 0.00″
06/20/2016 09:16 AM 73.2°F 72.5°F / 73.2°F 60.4°F / 73.2°F 29.88 inHg 40% 0.00″
06/20/2016 08:16 AM 69.6°F 68.5°F / 69.6°F 60.4°F / 69.6°F 29.86 inHg 47% 0.00″
06/20/2016 07:16 AM 65.7°F 64.9°F / 65.7°F 60.4°F / 66.7°F 29.85 inHg 47% 0.00″
06/20/2016 06:16 AM 64.6°F 63.9°F / 64.6°F 60.4°F / 66.7°F 29.85 inHg 46% 0.00″
06/20/2016 05:16 AM 63.0°F 62.1°F / 63.0°F 60.4°F / 66.7°F 29.85 inHg 47% 0.00″
06/20/2016 04:16 AM 61.2°F 61.2°F / 62.2°F 61.2°F / 66.7°F 29.83 inHg 48% 0.00″
06/20/2016 03:16 AM 64.8°F 64.8°F / 66.2°F 64.0°F / 66.7°F 29.82 inHg 43% 0.00″
06/20/2016 02:16 AM 64.8°F 64.6°F / 64.8°F 64.0°F / 66.7°F 29.82 inHg 51% 0.00″
06/20/2016 01:16 AM 64.4°F 64.4°F / 64.9°F 64.4°F / 66.7°F 29.82 inHg 51% 0.00″
06/20/2016 12:15 AM 66.2°F 66.2°F / 66.7°F 66.2°F / 66.7°F 29.83 inHg 49% 0.00″
06/19/2016 11:15 PM 65.7°F 65.7°F / 67.8°F 61.2°F / 89.1°F 29.82 inHg 49% 0.00″
06/19/2016 10:15 PM 68.5°F 68.5°F / 69.1°F 61.2°F / 89.1°F 29.80 inHg 43% 0.00″
06/19/2016 09:15 PM 71.1°F 71.1°F / 72.0°F 61.2°F / 89.1°F 29.76 inHg 38% 0.00″
06/19/2016 08:15 PM 74.8°F 74.8°F / 76.6°F 61.2°F / 89.1°F 29.73 inHg 34% 0.00″
06/19/2016 07:15 PM 78.1°F 78.1°F / 79.0°F 61.2°F / 89.1°F 29.73 inHg 35% 0.00″
06/19/2016 06:15 PM 80.8°F 80.8°F / 81.9°F 61.2°F / 89.1°F 29.72 inHg 24% 0.00″
06/19/2016 05:15 PM 84.2°F 84.0°F / 86.2°F 61.2°F / 89.1°F 29.70 inHg 20% 0.00″
06/19/2016 04:15 PM 86.9°F 84.0°F / 87.6°F 61.2°F / 89.1°F 29.72 inHg 19% 0.00″
06/19/2016 03:15 PM 87.6°F 87.6°F / 88.5°F 61.2°F / 88.5°F 29.74 inHg 18% 0.00″
06/19/2016 02:15 PM 85.8°F 85.1°F / 86.5°F 61.2°F / 86.5°F 29.75 inHg 18% 0.00″
06/19/2016 01:15 PM 81.9°F 81.5°F / 82.0°F 61.2°F / 84.9°F 29.78 inHg 21% 0.00″
06/19/2016 12:15 PM 82.2°F 81.9°F / 83.3°F 61.2°F / 83.3°F 29.78 inHg 21% 0.00″
06/19/2016 11:15 AM 81.1°F 80.4°F / 81.9°F 61.2°F / 81.9°F 29.79 inHg 21% 0.00″
06/19/2016 10:15 AM 78.4°F 78.4°F / 79.0°F 61.2°F / 79.0°F 29.79 inHg 23% 0.00″
06/19/2016 09:15 AM 77.2°F 76.5°F / 77.2°F 61.2°F / 77.2°F 29.80 inHg 24% 0.00″
06/19/2016 08:15 AM 70.2°F 68.0°F / 70.2°F 61.2°F / 75.9°F 29.79 inHg 36% 0.00″
06/19/2016 07:15 AM 63.7°F 63.1°F / 63.7°F 61.2°F / 75.9°F 29.78 inHg 36% 0.00″
06/19/2016 06:15 AM 62.8°F 62.8°F / 63.9°F 61.2°F / 75.9°F 29.78 inHg 28% 0.00″
06/19/2016 05:15 AM 61.2°F 61.2°F / 62.6°F 61.2°F / 75.9°F 29.76 inHg 30% 0.00″
06/19/2016 04:14 AM 62.8°F 62.8°F / 63.5°F 62.8°F / 75.9°F 29.77 inHg 28% 0.00″
06/19/2016 03:14 AM 67.1°F 67.1°F / 69.1°F 67.1°F / 75.9°F 29.77 inHg 24% 0.00″
06/19/2016 02:14 AM 73.9°F 73.8°F / 73.9°F 73.4°F / 75.9°F 29.77 inHg 19% 0.00″
06/19/2016 01:14 AM 73.8°F 73.4°F / 73.9°F 73.4°F / 75.9°F 29.79 inHg 19% 0.00″
06/19/2016 12:14 AM 75.7°F 75.4°F / 75.9°F 75.4°F / 75.9°F 29.80 inHg 18% 0.00″
06/18/2016 11:14 PM 75.7°F 75.7°F / 76.3°F 58.1°F / 92.7°F 29.80 inHg 17% 0.00″
06/18/2016 10:14 PM 76.5°F 76.5°F / 77.5°F 58.1°F / 92.7°F 29.81 inHg 19% 0.00″
06/18/2016 09:14 PM 78.4°F 78.3°F / 78.6°F 58.1°F / 92.7°F 29.80 inHg 19% 0.00″
06/18/2016 08:14 PM 82.0°F 82.0°F / 84.0°F 58.1°F / 92.7°F 29.79 inHg 17% 0.00″
06/18/2016 07:14 PM 88.3°F 88.0°F / 89.1°F 58.1°F / 92.7°F 29.78 inHg 6% 0.00″
06/18/2016 06:14 PM 90.3°F 90.0°F / 90.3°F 58.1°F / 92.7°F 29.77 inHg 8% 0.00″
06/18/2016 05:14 PM 91.8°F 90.1°F / 91.8°F 58.1°F / 92.7°F 29.78 inHg 5% 0.00″
06/18/2016 04:14 PM 92.5°F 91.8°F / 92.7°F 58.1°F / 92.7°F 29.79 inHg 4% 0.00″
06/18/2016 03:14 PM 90.7°F 90.1°F / 91.0°F 58.1°F / 91.6°F 29.81 inHg 5% 0.00″
06/18/2016 02:14 PM 90.7°F 90.7°F / 91.6°F 58.1°F / 91.6°F 29.82 inHg 6% 0.00″
06/18/2016 01:14 PM 90.3°F 89.1°F / 90.7°F 58.1°F / 90.7°F 29.85 inHg 6% 0.00″
06/18/2016 12:14 PM 87.6°F 87.3°F / 88.2°F 58.1°F / 88.2°F 29.87 inHg 8% 0.00″
06/18/2016 11:14 AM 85.6°F 84.9°F / 85.6°F 58.1°F / 85.6°F 29.88 inHg 8% 0.00″
06/18/2016 10:14 AM 84.0°F 82.9°F / 84.0°F 58.1°F / 84.0°F 29.86 inHg 9% 0.00″
06/18/2016 09:14 AM 79.9°F 76.6°F / 79.9°F 58.1°F / 79.9°F 29.86 inHg 13% 0.00″
06/18/2016 08:14 AM 67.3°F 65.3°F / 67.3°F 58.1°F / 67.3°F 29.87 inHg 27% 0.00″
06/18/2016 07:13 AM 59.5°F 58.8°F / 59.5°F 58.1°F / 67.3°F 29.85 inHg 23% 0.00″
06/18/2016 06:13 AM 58.8°F 58.6°F / 59.4°F 58.1°F / 67.3°F 29.83 inHg 20% 0.00″
06/18/2016 05:13 AM 58.6°F 58.6°F / 59.5°F 58.6°F / 67.3°F 29.81 inHg 21% 0.00″
06/18/2016 04:13 AM 59.5°F 59.5°F / 60.4°F 59.5°F / 67.3°F 29.80 inHg 18% 0.00″
06/18/2016 03:13 AM 64.8°F 64.6°F / 64.9°F 60.6°F / 67.3°F 29.81 inHg 15% 0.00″
06/18/2016 02:13 AM 62.2°F 62.2°F / 63.5°F 60.6°F / 67.3°F 29.82 inHg 17% 0.00″
06/18/2016 01:13 AM 64.2°F 61.7°F / 64.2°F 60.6°F / 64.6°F 29.83 inHg 14% 0.00″
06/18/2016 12:13 AM 63.3°F 63.3°F / 64.6°F 63.3°F / 64.6°F 29.83 inHg 16% 0.00″
06/17/2016 11:13 PM 66.0°F 63.7°F / 66.0°F 54.0°F / 87.4°F 29.83 inHg 13% 0.00″
06/17/2016 10:12 PM 64.8°F 64.8°F / 66.2°F 54.0°F / 87.4°F 29.83 inHg 15% 0.00″
06/17/2016 09:12 PM 67.5°F 67.5°F / 70.3°F 54.0°F / 87.4°F 29.81 inHg 13% 0.00″
06/17/2016 08:12 PM 76.3°F 76.3°F / 78.3°F 54.0°F / 87.4°F 29.80 inHg 10% 0.00″
06/17/2016 07:12 PM 83.8°F 83.8°F / 84.9°F 54.0°F / 87.4°F 29.80 inHg 7% 0.00″
06/17/2016 06:12 PM 85.8°F 85.1°F / 85.8°F 54.0°F / 87.4°F 29.78 inHg 6% 0.00″
06/17/2016 05:12 PM 86.4°F 85.8°F / 86.7°F 54.0°F / 86.9°F 29.79 inHg 7% 0.00″
06/17/2016 04:12 PM 86.2°F 85.3°F / 86.5°F 54.0°F / 86.5°F 29.81 inHg 9% 0.00″
06/17/2016 03:12 PM 85.6°F 85.5°F / 86.4°F 54.0°F / 86.4°F 29.83 inHg 5% 0.00″
06/17/2016 02:12 PM 85.3°F 84.4°F / 85.3°F 54.0°F / 85.3°F 29.85 inHg 6% 0.00″
06/17/2016 01:12 PM 81.7°F 81.7°F / 82.2°F 54.0°F / 82.8°F 29.85 inHg 9% 0.00″
06/17/2016 12:12 PM 81.0°F 80.4°F / 81.1°F 54.0°F / 81.5°F 29.86 inHg 9% 0.00″
06/17/2016 11:12 AM 79.7°F 79.3°F / 79.9°F 54.0°F / 79.9°F 29.86 inHg 9% 0.00″
06/17/2016 09:12 AM 73.0°F 72.7°F / 73.4°F 54.0°F / 73.4°F 29.85 inHg 15% 0.00″
06/17/2016 08:12 AM 63.0°F 61.0°F / 63.0°F 54.0°F / 64.8°F 29.84 inHg 28% 0.00″
06/17/2016 07:12 AM 56.1°F 54.9°F / 56.1°F 54.0°F / 64.8°F 29.81 inHg 29% 0.00″
06/17/2016 06:11 AM 54.1°F 54.0°F / 54.1°F 54.0°F / 64.8°F 29.81 inHg 26% 0.00″
06/17/2016 05:11 AM 55.0°F 55.0°F / 55.6°F 55.0°F / 64.8°F 29.79 inHg 24% 0.00″
06/17/2016 04:11 AM 58.3°F 57.9°F / 58.5°F 57.0°F / 64.8°F 29.78 inHg 22% 0.00″
06/17/2016 03:11 AM 58.5°F 58.5°F / 59.4°F 58.5°F / 64.8°F 29.78 inHg 23% 0.00″
06/17/2016 02:11 AM 63.1°F 61.7°F / 63.1°F 61.7°F / 64.8°F 29.79 inHg 18% 0.00″
06/17/2016 01:11 AM 63.1°F 63.1°F / 63.7°F 62.1°F / 64.8°F 29.78 inHg 19% 0.00″
06/17/2016 12:11 AM 64.2°F 64.2°F / 64.8°F 64.2°F / 64.8°F 29.79 inHg 18% 0.00″
06/16/2016 11:11 PM 64.8°F 64.8°F / 65.1°F 57.9°F / 84.7°F 29.78 inHg 17% 0.00″
06/16/2016 10:10 PM 64.9°F 64.9°F / 65.8°F 57.9°F / 84.7°F 29.77 inHg 15% 0.00″
06/16/2016 09:10 PM 67.6°F 67.6°F / 68.2°F 57.9°F / 84.7°F 29.74 inHg 15% 0.00″
06/16/2016 08:10 PM 76.1°F 76.1°F / 77.5°F 57.9°F / 84.7°F 29.72 inHg 11% 0.00″
06/16/2016 07:10 PM 81.0°F 81.0°F / 81.7°F 57.9°F / 84.7°F 29.73 inHg 8% 0.00″
06/16/2016 06:10 PM 82.9°F 82.9°F / 83.5°F 57.9°F / 84.7°F 29.72 inHg 8% 0.00″
06/16/2016 05:10 PM 83.8°F 83.7°F / 84.4°F 57.9°F / 84.7°F 29.73 inHg 7% 0.00″
06/16/2016 04:10 PM 83.5°F 83.3°F / 84.0°F 57.9°F / 84.6°F 29.73 inHg 10% 0.00″
06/16/2016 03:10 PM 84.0°F 83.5°F / 84.0°F 57.9°F / 84.4°F 29.73 inHg 12% 0.00″
06/16/2016 02:10 PM 82.0°F 81.7°F / 82.2°F 57.9°F / 82.2°F 29.75 inHg 13% 0.00″
06/16/2016 01:10 PM 81.0°F 80.2°F / 81.5°F 57.9°F / 81.5°F 29.76 inHg 14% 0.00″
06/16/2016 12:10 PM 79.2°F 77.5°F / 79.2°F 57.9°F / 79.2°F 29.78 inHg 17% 0.00″
06/16/2016 11:10 AM 77.0°F 76.3°F / 77.4°F 57.9°F / 77.4°F 29.78 inHg 19% 0.00″
06/16/2016 10:10 AM 75.6°F 75.2°F / 75.6°F 57.9°F / 75.6°F 29.78 inHg 20% 0.00″
06/16/2016 09:10 AM 73.6°F 73.2°F / 73.6°F 57.9°F / 73.6°F 29.77 inHg 21% 0.00″
06/16/2016 08:09 AM 66.2°F 64.0°F / 66.2°F 57.9°F / 66.2°F 29.75 inHg 29% 0.00″
06/16/2016 07:09 AM 58.6°F 58.3°F / 58.6°F 57.9°F / 63.7°F 29.72 inHg 33% 0.00″
06/16/2016 06:09 AM 58.6°F 58.3°F / 58.6°F 58.3°F / 63.7°F 29.70 inHg 31% 0.00″
06/16/2016 05:09 AM 59.4°F 59.4°F / 59.5°F 59.2°F / 63.7°F 29.70 inHg 30% 0.00″
06/16/2016 04:09 AM 60.4°F 60.4°F / 60.6°F 60.4°F / 63.7°F 29.68 inHg 27% 0.00″
06/16/2016 03:09 AM 61.2°F 60.6°F / 61.2°F 60.6°F / 63.7°F 29.68 inHg 27% 0.00″
06/16/2016 02:09 AM 63.0°F 63.0°F / 63.1°F 61.2°F / 63.7°F 29.70 inHg 24% 0.00″
06/16/2016 01:09 AM 62.1°F 61.3°F / 62.1°F 61.2°F / 63.7°F 29.72 inHg 25% 0.00″
06/16/2016 12:09 AM 62.4°F 62.4°F / 63.7°F 62.4°F / 63.7°F 29.73 inHg 22% 0.00″
06/15/2016 11:09 PM 64.0°F 64.0°F / 64.6°F 55.0°F / 86.2°F 29.73 inHg 19% 0.00″
06/15/2016 10:08 PM 69.1°F 69.1°F / 69.4°F 55.0°F / 86.2°F 29.70 inHg 19% 0.00″
06/15/2016 09:08 PM 72.0°F 71.4°F / 72.0°F 55.0°F / 86.2°F 29.68 inHg 16% 0.00″
06/15/2016 08:08 PM 77.7°F 77.7°F / 78.4°F 55.0°F / 86.2°F 29.67 inHg 12% 0.00″
06/15/2016 07:08 PM 82.0°F 82.0°F / 82.4°F 55.0°F / 86.2°F 29.66 inHg 11% 0.00″
06/15/2016 06:08 PM 83.8°F 83.8°F / 84.6°F 55.0°F / 86.2°F 29.65 inHg 12% 0.00″
06/15/2016 05:08 PM 84.9°F 84.9°F / 84.9°F 55.0°F / 86.2°F 29.66 inHg 14% 0.00″
06/15/2016 04:08 PM 85.3°F 84.7°F / 85.3°F 55.0°F / 86.2°F 29.68 inHg 15% 0.00″
06/15/2016 03:08 PM 85.3°F 85.3°F / 85.5°F 55.0°F / 85.5°F 29.70 inHg 16% 0.00″
06/15/2016 02:08 PM 84.7°F 82.9°F / 84.7°F 55.0°F / 84.7°F 29.74 inHg 15% 0.00″
06/15/2016 01:07 PM 81.9°F 81.9°F / 82.9°F 55.0°F / 82.9°F 29.75 inHg 16% 0.00″
06/15/2016 12:07 PM 81.5°F 80.8°F / 81.5°F 55.0°F / 81.5°F 29.76 inHg 16% 0.00″
06/15/2016 11:07 AM 80.2°F 79.7°F / 80.2°F 55.0°F / 80.4°F 29.77 inHg 16% 0.00″
06/15/2016 10:07 AM 78.1°F 77.2°F / 78.1°F 55.0°F / 78.1°F 29.78 inHg 15% 0.00″
06/15/2016 09:07 AM 75.6°F 75.2°F / 75.6°F 55.0°F / 75.6°F 29.78 inHg 17% 0.00″
06/15/2016 08:07 AM 65.1°F 64.2°F / 65.1°F 55.0°F / 65.1°F 29.78 inHg 32% 0.00″
06/15/2016 07:07 AM 62.6°F 62.1°F / 62.6°F 55.0°F / 62.6°F 29.76 inHg 26% 0.00″
06/15/2016 06:07 AM 57.0°F 56.8°F / 57.0°F 55.0°F / 62.1°F 29.74 inHg 29% 0.00″
06/15/2016 05:07 AM 55.0°F 55.0°F / 55.6°F 55.0°F / 62.1°F 29.71 inHg 32% 0.00″
06/15/2016 04:07 AM 56.8°F 55.8°F / 56.8°F 55.6°F / 62.1°F 29.71 inHg 28% 0.00″
06/15/2016 03:07 AM 57.9°F 57.9°F / 58.1°F 57.9°F / 62.1°F 29.71 inHg 28% 0.00″
06/15/2016 02:07 AM 59.4°F 59.2°F / 59.4°F 59.2°F / 62.1°F 29.72 inHg 28% 0.00″
06/15/2016 01:07 AM 60.3°F 60.1°F / 60.3°F 60.1°F / 62.1°F 29.72 inHg 27% 0.00″
06/15/2016 12:07 AM 61.2°F 61.2°F / 62.1°F 61.2°F / 62.1°F 29.72 inHg 27% 0.00″
06/14/2016 11:07 PM 62.8°F 62.4°F / 62.8°F 53.4°F / 81.9°F 29.72 inHg 25% 0.00″
06/14/2016 10:06 PM 64.9°F 64.9°F / 65.1°F 53.4°F / 81.9°F 29.70 inHg 22% 0.00″
06/14/2016 09:06 PM 65.7°F 65.7°F / 66.4°F 53.4°F / 81.9°F 29.68 inHg 21% 0.00″
06/14/2016 08:06 PM 74.3°F 74.3°F / 75.4°F 53.4°F / 81.9°F 29.66 inHg 15% 0.00″
06/14/2016 07:06 PM 78.6°F 78.6°F / 79.2°F 53.4°F / 81.9°F 29.65 inHg 13% 0.00″
06/14/2016 06:06 PM 80.8°F 80.8°F / 81.0°F 53.4°F / 81.9°F 29.64 inHg 12% 0.00″
06/14/2016 05:06 PM 81.7°F 81.7°F / 81.9°F 53.4°F / 81.9°F 29.65 inHg 13% 0.00″
06/14/2016 04:06 PM 81.7°F 81.1°F / 81.7°F 53.4°F / 81.7°F 29.66 inHg 15% 0.00″
06/14/2016 03:06 PM 80.4°F 80.4°F / 80.4°F 53.4°F / 80.8°F 29.68 inHg 15% 0.00″
06/14/2016 02:06 PM 78.3°F 78.1°F / 78.4°F 53.4°F / 79.0°F 29.70 inHg 17% 0.00″
06/14/2016 01:05 PM 77.5°F 76.8°F / 77.5°F 53.4°F / 77.5°F 29.72 inHg 18% 0.00″
06/14/2016 12:05 PM 75.7°F 75.4°F / 75.9°F 53.4°F / 75.9°F 29.73 inHg 17% 0.00″
06/14/2016 11:05 AM 72.9°F 72.3°F / 72.9°F 53.4°F / 72.9°F 29.74 inHg 22% 0.00″
06/14/2016 10:05 AM 71.8°F 71.6°F / 72.0°F 53.4°F / 72.0°F 29.74 inHg 21% 0.00″
06/14/2016 09:05 AM 70.0°F 69.4°F / 70.0°F 53.4°F / 70.0°F 29.73 inHg 26% 0.00″
06/14/2016 08:05 AM 61.2°F 59.7°F / 61.2°F 53.4°F / 66.7°F 29.72 inHg 41% 0.00″
06/14/2016 07:05 AM 54.0°F 54.0°F / 54.7°F 53.4°F / 66.7°F 29.71 inHg 48% 0.00″
06/14/2016 06:05 AM 54.7°F 54.7°F / 55.2°F 54.0°F / 66.7°F 29.69 inHg 44% 0.00″
06/14/2016 05:05 AM 55.9°F 55.4°F / 55.9°F 54.1°F / 66.7°F 29.68 inHg 41% 0.00″
06/14/2016 04:05 AM 55.2°F 55.2°F / 55.8°F 55.2°F / 66.7°F 29.67 inHg 43% 0.00″
06/14/2016 03:04 AM 57.4°F 57.4°F / 57.7°F 57.4°F / 66.7°F 29.67 inHg 38% 0.00″
06/14/2016 02:04 AM 59.7°F 59.7°F / 60.1°F 59.7°F / 66.7°F 29.67 inHg 36% 0.00″
06/14/2016 01:04 AM 62.8°F 62.6°F / 62.8°F 62.2°F / 66.7°F 29.68 inHg 31% 0.00″
06/14/2016 12:04 AM 66.6°F 66.6°F / 66.7°F 66.6°F / 66.7°F 29.68 inHg 26% 0.00″
06/13/2016 11:04 PM 69.1°F 69.1°F / 69.1°F 59.2°F / 83.1°F 29.68 inHg 25% 0.00″
06/13/2016 10:03 PM 71.1°F 71.1°F / 71.1°F 59.2°F / 83.1°F 29.68 inHg 22% 0.00″
06/13/2016 09:03 PM 71.4°F 71.4°F / 71.8°F 59.2°F / 83.1°F 29.67 inHg 20% 0.00″
06/13/2016 08:03 PM 74.8°F 74.8°F / 75.0°F 59.2°F / 83.1°F 29.65 inHg 20% 0.00″
06/13/2016 07:03 PM 78.3°F 78.3°F / 78.4°F 59.2°F / 83.1°F 29.65 inHg 20% 0.00″
06/13/2016 06:03 PM 80.1°F 80.1°F / 80.2°F 59.2°F / 83.1°F 29.64 inHg 17% 0.00″
06/13/2016 05:03 PM 81.7°F 81.5°F / 81.7°F 59.2°F / 83.1°F 29.65 inHg 24% 0.00″
06/13/2016 04:03 PM 82.2°F 81.9°F / 82.2°F 59.2°F / 83.1°F 29.68 inHg 23% 0.00″
06/13/2016 03:03 PM 81.1°F 81.1°F / 81.7°F 59.2°F / 82.2°F 29.70 inHg 22% 0.00″
06/13/2016 02:03 PM 81.9°F 81.0°F / 81.9°F 59.2°F / 81.9°F 29.73 inHg 23% 0.00″
06/13/2016 01:03 PM 78.6°F 78.6°F / 79.3°F 59.2°F / 80.6°F 29.76 inHg 24% 0.00″
06/13/2016 12:03 PM 78.3°F 78.3°F / 78.4°F 59.2°F / 78.4°F 29.78 inHg 23% 0.00″
06/13/2016 11:03 AM 78.3°F 77.9°F / 78.3°F 59.2°F / 78.3°F 29.80 inHg 24% 0.00″
06/13/2016 10:03 AM 74.7°F 74.7°F / 74.8°F 59.2°F / 75.0°F 29.80 inHg 28% 0.00″
06/13/2016 09:03 AM 74.1°F 74.1°F / 74.5°F 59.2°F / 74.5°F 29.79 inHg 28% 0.00″
06/13/2016 08:02 AM 64.9°F 64.6°F / 64.9°F 59.2°F / 64.9°F 29.79 inHg 48% 0.00″
06/13/2016 07:02 AM 59.9°F 59.9°F / 59.9°F 59.2°F / 64.8°F 29.79 inHg 47% 0.00″
06/13/2016 06:02 AM 64.4°F 64.4°F / 64.4°F 59.2°F / 64.4°F 29.78 inHg 36% 0.00″
06/13/2016 05:02 AM 63.9°F 63.7°F / 63.9°F 59.2°F / 63.9°F 29.78 inHg 34% 0.00″
06/13/2016 04:02 AM 61.0°F 60.8°F / 61.0°F 59.2°F / 62.2°F 29.78 inHg 41% 0.00″
06/13/2016 03:02 AM 59.9°F 59.9°F / 59.9°F 59.2°F / 62.2°F 29.78 inHg 43% 0.00″
06/13/2016 02:02 AM 60.8°F 60.6°F / 60.8°F 59.5°F / 62.2°F 29.78 inHg 43% 0.00″
06/13/2016 01:02 AM 61.0°F 61.0°F / 61.2°F 61.0°F / 62.2°F 29.78 inHg 45% 0.00″
06/13/2016 12:02 AM 62.2°F 62.2°F / 62.2°F 62.2°F / 62.2°F 29.79 inHg 43% 0.00″
06/12/2016 11:02 PM 64.6°F 64.6°F / 64.6°F 56.8°F / 82.8°F 29.80 inHg 43% 0.00″
06/12/2016 10:02 PM 67.6°F 67.6°F / 67.8°F 56.8°F / 82.8°F 29.80 inHg 40% 0.00″
06/12/2016 09:02 PM 69.6°F 69.6°F / 69.8°F 56.8°F / 82.8°F 29.79 inHg 36% 0.00″
06/12/2016 08:02 PM 77.5°F 77.5°F / 77.5°F 56.8°F / 82.8°F 29.78 inHg 26% 0.00″
06/12/2016 07:02 PM 81.0°F 81.0°F / 81.1°F 56.8°F / 82.8°F 29.78 inHg 24% 0.00″
06/12/2016 06:02 PM 81.0°F 81.0°F / 81.1°F 56.8°F / 82.8°F 29.77 inHg 27% 0.00″
06/12/2016 05:01 PM 81.0°F 81.0°F / 81.3°F 56.8°F / 82.8°F 29.79 inHg 27% 0.00″
06/12/2016 04:01 PM 79.5°F 79.5°F / 80.1°F 56.8°F / 82.6°F 29.80 inHg 28% 0.00″
06/12/2016 03:01 PM 81.9°F 81.5°F / 81.9°F 56.8°F / 81.9°F 29.82 inHg 27% 0.00″
06/12/2016 02:01 PM 79.3°F 79.3°F / 79.3°F 56.8°F / 79.9°F 29.83 inHg 34% 0.00″
06/12/2016 01:01 PM 78.1°F 78.1°F / 78.1°F 56.8°F / 78.6°F 29.84 inHg 36% 0.00″
06/12/2016 12:01 PM 76.3°F 76.1°F / 76.3°F 56.8°F / 76.6°F 29.85 inHg 38% 0.00″
06/12/2016 11:01 AM 74.7°F 74.7°F / 74.7°F 56.8°F / 74.7°F 29.83 inHg 43% 0.00″
06/12/2016 10:01 AM 73.8°F 73.8°F / 73.8°F 56.8°F / 73.8°F 29.83 inHg 41% 0.00″
06/12/2016 09:01 AM 70.5°F 70.5°F / 70.5°F 56.8°F / 70.5°F 29.85 inHg 49% 0.00″
06/12/2016 08:01 AM 61.5°F 61.5°F / 61.5°F 56.8°F / 65.5°F 29.85 inHg 67% 0.00″
06/12/2016 07:01 AM 57.6°F 57.6°F / 57.6°F 56.8°F / 65.5°F 29.83 inHg 71% 0.00″
06/12/2016 06:01 AM 59.4°F 59.2°F / 59.4°F 56.8°F / 65.5°F 29.81 inHg 66% 0.00″
06/12/2016 05:01 AM 57.6°F 57.6°F / 57.6°F 57.2°F / 65.5°F 29.80 inHg 71% 0.00″
06/12/2016 04:01 AM 57.2°F 57.2°F / 57.2°F 57.2°F / 65.5°F 29.80 inHg 71% 0.00″
06/12/2016 03:00 AM 58.6°F 58.5°F / 58.6°F 58.5°F / 65.5°F 29.79 inHg 66% 0.00″
06/12/2016 02:00 AM 61.7°F 61.7°F / 61.7°F 60.3°F / 65.5°F 29.78 inHg 61% 0.00″
06/12/2016 01:00 AM 63.1°F 63.1°F / 63.1°F 63.1°F / 65.5°F 29.80 inHg 61% 0.00″
06/12/2016 12:00 AM 64.8°F 64.8°F / 64.8°F 64.8°F / 64.8°F 29.82 inHg 57% 0.00″
06/11/2016 11:00 PM 63.1°F 63.0°F / 63.1°F 55.0°F / 79.0°F 29.83 inHg 62% 0.00″
06/11/2016 10:00 PM 62.8°F 62.8°F / 62.8°F 55.0°F / 79.0°F 29.81 inHg 63% 0.00″
06/11/2016 09:00 PM 65.7°F 65.7°F / 65.7°F 55.0°F / 79.0°F 29.78 inHg 57% 0.00″
06/11/2016 08:00 PM 67.8°F 67.8°F / 67.8°F 55.0°F / 79.0°F 29.77 inHg 55% 0.00″
06/11/2016 07:00 PM 73.0°F 73.0°F / 73.2°F 55.0°F / 79.0°F 29.76 inHg 42% 0.00″
06/11/2016 06:00 PM 74.8°F 74.8°F / 74.8°F 55.0°F / 79.0°F 29.74 inHg 35% 0.00″
06/11/2016 05:00 PM 77.4°F 77.4°F / 77.4°F 55.0°F / 78.3°F 29.75 inHg 39% 0.00″
06/11/2016 04:00 PM 70.2°F 0.0°F / 0.0°F 55.0°F / 78.3°F 29.78 inHg 54% 0.00″
06/11/2016 03:00 PM 76.8°F 76.8°F / 76.8°F 55.0°F / 78.3°F 29.77 inHg 33% 0.00″
06/11/2016 02:00 PM 75.9°F 75.9°F / 75.9°F 55.0°F / 78.3°F 29.77 inHg 38% 0.00″
06/11/2016 12:59 PM 72.1°F 72.1°F / 78.3°F 55.0°F / 78.3°F 29.79 inHg 46% 0.00″
06/11/2016 11:59 AM 76.5°F 73.8°F / 77.2°F 55.0°F / 77.2°F 29.78 inHg 39% 0.00″
06/11/2016 10:59 AM 73.8°F 72.3°F / 74.5°F 55.0°F / 74.5°F 29.79 inHg 42% 0.00″
06/11/2016 09:59 AM 72.5°F 69.8°F / 72.5°F 55.0°F / 72.5°F 29.79 inHg 43% 0.00″
06/11/2016 08:59 AM 70.0°F 61.2°F / 70.0°F 55.0°F / 70.0°F 29.79 inHg 50% 0.00″
06/11/2016 07:59 AM 61.0°F 57.0°F / 61.0°F 55.0°F / 63.0°F 29.77 inHg 67% 0.00″
06/11/2016 06:59 AM 57.0°F 55.8°F / 57.2°F 55.0°F / 63.0°F 29.77 inHg 69% 0.00″
06/11/2016 05:59 AM 55.8°F 55.0°F / 56.7°F 55.0°F / 63.0°F 29.76 inHg 73% 0.00″
06/11/2016 04:59 AM 56.1°F 56.1°F / 57.2°F 56.1°F / 63.0°F 29.76 inHg 71% 0.00″
06/11/2016 03:59 AM 57.0°F 57.0°F / 61.3°F 57.0°F / 63.0°F 29.73 inHg 65% 0.00″
06/11/2016 02:59 AM 61.9°F 60.3°F / 63.0°F 57.6°F / 63.0°F 29.73 inHg 56% 0.00″
06/11/2016 01:59 AM 61.3°F 58.5°F / 61.3°F 57.6°F / 61.3°F 29.73 inHg 59% 0.00″
06/11/2016 12:58 AM 58.5°F 57.6°F / 60.8°F 57.6°F / 60.8°F 29.74 inHg 70% 0.00″
06/10/2016 11:58 PM 57.7°F 57.7°F / 59.4°F 57.0°F / 86.7°F 29.75 inHg 71% 0.38″
06/10/2016 10:58 PM 59.5°F 59.5°F / 64.4°F 57.0°F / 86.7°F 29.74 inHg 70% 0.38″
06/10/2016 09:58 PM 64.6°F 64.0°F / 66.2°F 57.0°F / 86.7°F 29.71 inHg 54% 0.38″
06/10/2016 08:58 PM 65.7°F 64.8°F / 65.7°F 57.0°F / 86.7°F 29.68 inHg 50% 0.38″
06/10/2016 07:58 PM 65.5°F 64.6°F / 65.5°F 57.0°F / 86.7°F 29.66 inHg 51% 0.38″
06/10/2016 06:58 PM 64.6°F 59.9°F / 65.1°F 57.0°F / 86.7°F 29.63 inHg 62% 0.38″
06/10/2016 05:58 PM 60.3°F 58.5°F / 61.5°F 57.0°F / 86.7°F 29.63 inHg 79% 0.38″
06/10/2016 04:58 PM 58.5°F 57.7°F / 61.7°F 57.0°F / 86.7°F 29.65 inHg 86% 0.38″
06/10/2016 03:58 PM 62.8°F 62.8°F / 82.4°F 57.0°F / 86.7°F 29.66 inHg 72% 0.10″
06/10/2016 03:48 PM 75.7°F 75.7°F / 82.4°F 57.0°F / 86.7°F 29.65 inHg 39% 0.00″
06/10/2016 02:48 PM 82.8°F 80.1°F / 86.7°F 57.0°F / 86.7°F 29.61 inHg 23% 0.00″
06/10/2016 01:48 PM 82.6°F 81.5°F / 83.8°F 57.0°F / 83.8°F 29.64 inHg 25% 0.00″
06/10/2016 12:48 PM 82.8°F 80.4°F / 82.9°F 57.0°F / 82.9°F 29.66 inHg 26% 0.00″
06/10/2016 11:48 AM 79.9°F 78.8°F / 80.4°F 57.0°F / 80.4°F 29.68 inHg 26% 0.00″
06/10/2016 10:48 AM 77.7°F 75.6°F / 78.3°F 57.0°F / 78.3°F 29.69 inHg 29% 0.00″
06/10/2016 09:47 AM 75.4°F 72.7°F / 75.4°F 57.0°F / 75.4°F 29.68 inHg 34% 0.00″
06/10/2016 08:47 AM 72.1°F 64.8°F / 72.1°F 57.0°F / 72.1°F 29.69 inHg 36% 0.00″
06/10/2016 07:47 AM 63.9°F 63.1°F / 64.8°F 57.0°F / 70.5°F 29.68 inHg 51% 0.00″
06/10/2016 06:47 AM 62.2°F 57.0°F / 62.2°F 57.0°F / 70.5°F 29.68 inHg 48% 0.00″
06/10/2016 05:47 AM 57.9°F 57.7°F / 58.5°F 57.7°F / 70.5°F 29.67 inHg 50% 0.00″
06/10/2016 04:47 AM 57.9°F 57.9°F / 59.9°F 57.9°F / 70.5°F 29.66 inHg 50% 0.00″
06/10/2016 03:47 AM 60.4°F 60.4°F / 63.0°F 60.4°F / 70.5°F 29.63 inHg 45% 0.00″
06/10/2016 02:47 AM 65.8°F 65.8°F / 68.5°F 65.8°F / 70.5°F 29.62 inHg 40% 0.00″
06/10/2016 01:47 AM 68.2°F 68.2°F / 70.5°F 66.2°F / 70.5°F 29.64 inHg 39% 0.00″
06/10/2016 12:46 AM 66.4°F 66.2°F / 68.4°F 66.2°F / 68.4°F 29.65 inHg 38% 0.00″
06/09/2016 11:46 PM 67.3°F 67.3°F / 69.3°F 59.9°F / 86.9°F 29.65 inHg 39% 0.00″
06/09/2016 10:46 PM 66.7°F 66.7°F / 68.7°F 59.9°F / 86.9°F 29.66 inHg 38% 0.00″
06/09/2016 09:46 PM 69.4°F 69.4°F / 71.1°F 59.9°F / 86.9°F 29.64 inHg 35% 0.00″
06/09/2016 08:46 PM 68.5°F 65.1°F / 68.5°F 59.9°F / 86.9°F 29.62 inHg 39% 0.00″
06/09/2016 07:46 PM 70.2°F 70.2°F / 76.5°F 59.9°F / 86.9°F 29.67 inHg 46% 0.00″
06/09/2016 06:46 PM 76.8°F 76.8°F / 85.6°F 59.9°F / 86.9°F 29.56 inHg 27% 0.00″
06/09/2016 05:46 PM 84.7°F 83.7°F / 85.5°F 59.9°F / 86.9°F 29.55 inHg 17% 0.00″
06/09/2016 04:46 PM 85.8°F 84.7°F / 86.7°F 59.9°F / 86.9°F 29.55 inHg 18% 0.00″
06/09/2016 03:46 PM 84.2°F 82.9°F / 86.9°F 59.9°F / 86.9°F 29.58 inHg 20% 0.00″
06/09/2016 02:46 PM 83.7°F 82.0°F / 84.7°F 59.9°F / 84.7°F 29.60 inHg 22% 0.00″
06/09/2016 01:46 PM 82.4°F 80.8°F / 82.8°F 59.9°F / 82.8°F 29.61 inHg 23% 0.00″
06/09/2016 12:46 PM 80.2°F 78.8°F / 80.2°F 59.9°F / 80.2°F 29.64 inHg 26% 0.00″
06/09/2016 11:46 AM 79.5°F 77.5°F / 80.2°F 59.9°F / 80.2°F 29.66 inHg 29% 0.00″
06/09/2016 10:46 AM 77.4°F 73.9°F / 77.4°F 59.9°F / 77.4°F 29.67 inHg 31% 0.00″
06/09/2016 09:45 AM 72.9°F 69.3°F / 72.9°F 59.9°F / 72.9°F 29.68 inHg 35% 0.00″
06/09/2016 08:45 AM 67.6°F 60.6°F / 67.6°F 59.9°F / 69.4°F 29.68 inHg 45% 0.00″
06/09/2016 07:45 AM 60.4°F 60.1°F / 60.8°F 59.9°F / 69.4°F 29.68 inHg 56% 0.00″
06/09/2016 06:45 AM 60.1°F 59.9°F / 60.6°F 59.9°F / 69.4°F 29.67 inHg 52% 0.00″
06/09/2016 05:45 AM 60.6°F 60.6°F / 65.5°F 60.6°F / 69.4°F 29.66 inHg 48% 0.00″
06/09/2016 04:45 AM 66.4°F 66.0°F / 67.1°F 63.3°F / 69.4°F 29.66 inHg 39% 0.00″
06/09/2016 03:45 AM 65.7°F 63.3°F / 65.8°F 63.3°F / 69.4°F 29.66 inHg 41% 0.00″
06/09/2016 02:45 AM 65.3°F 63.9°F / 65.7°F 63.9°F / 69.4°F 29.67 inHg 39% 0.00″
06/09/2016 01:45 AM 64.8°F 64.8°F / 69.4°F 64.8°F / 69.4°F 29.67 inHg 40% 0.00″
06/09/2016 12:45 AM 68.5°F 66.6°F / 68.7°F 66.6°F / 68.7°F 29.68 inHg 34% 0.00″
06/08/2016 11:45 PM 70.0°F 67.3°F / 70.3°F 56.7°F / 84.9°F 29.67 inHg 32% 0.00″
06/08/2016 10:45 PM 66.4°F 65.5°F / 67.1°F 56.7°F / 84.9°F 29.66 inHg 38% 0.00″
06/08/2016 09:45 PM 67.5°F 67.5°F / 70.7°F 56.7°F / 84.9°F 29.63 inHg 35% 0.00″
06/08/2016 08:45 PM 70.2°F 70.2°F / 71.4°F 56.7°F / 84.9°F 29.63 inHg 34% 0.00″
06/08/2016 07:45 PM 72.1°F 72.1°F / 74.1°F 56.7°F / 84.9°F 29.62 inHg 31% 0.00″
06/08/2016 06:45 PM 75.4°F 73.9°F / 78.1°F 56.7°F / 84.9°F 29.61 inHg 32% 0.00″
06/08/2016 05:44 PM 79.5°F 77.5°F / 81.3°F 56.7°F / 84.9°F 29.61 inHg 29% 0.00″
06/08/2016 04:44 PM 84.7°F 80.4°F / 84.9°F 56.7°F / 84.9°F 29.62 inHg 19% 0.00″
06/08/2016 03:44 PM 81.7°F 81.3°F / 83.7°F 56.7°F / 83.7°F 29.64 inHg 26% 0.00″
06/08/2016 02:44 PM 78.6°F 78.6°F / 82.8°F 56.7°F / 82.8°F 29.66 inHg 25% 0.00″
06/08/2016 01:44 PM 81.0°F 79.0°F / 81.5°F 56.7°F / 81.5°F 29.68 inHg 26% 0.00″
06/08/2016 12:44 PM 80.2°F 77.4°F / 80.4°F 56.7°F / 80.4°F 29.69 inHg 29% 0.00″
06/08/2016 11:44 AM 76.8°F 75.6°F / 77.7°F 56.7°F / 77.7°F 29.70 inHg 31% 0.00″
06/08/2016 10:44 AM 75.0°F 72.1°F / 75.0°F 56.7°F / 75.0°F 29.70 inHg 33% 0.00″
06/08/2016 09:44 AM 72.3°F 70.7°F / 72.3°F 56.7°F / 72.3°F 29.72 inHg 35% 0.00″
06/08/2016 08:44 AM 69.4°F 63.0°F / 69.4°F 56.7°F / 69.4°F 29.72 inHg 40% 0.00″
06/08/2016 07:44 AM 62.2°F 60.1°F / 62.2°F 56.7°F / 66.7°F 29.72 inHg 61% 0.00″
06/08/2016 06:44 AM 59.5°F 56.7°F / 59.5°F 56.7°F / 66.7°F 29.73 inHg 60% 0.00″
06/08/2016 05:44 AM 57.0°F 56.8°F / 58.6°F 56.8°F / 66.7°F 29.73 inHg 63% 0.00″
06/08/2016 04:44 AM 59.4°F 59.2°F / 61.5°F 59.2°F / 66.7°F 29.71 inHg 57% 0.00″
06/08/2016 03:44 AM 60.8°F 60.8°F / 63.9°F 60.8°F / 66.7°F 29.73 inHg 60% 0.00″
06/08/2016 02:44 AM 62.2°F 61.5°F / 63.0°F 61.5°F / 66.7°F 29.72 inHg 50% 0.00″
06/08/2016 01:43 AM 61.5°F 61.5°F / 64.0°F 61.5°F / 66.7°F 29.71 inHg 57% 0.00″
06/08/2016 12:43 AM 64.4°F 64.4°F / 66.7°F 64.4°F / 66.7°F 29.68 inHg 49% 0.00″
06/07/2016 11:43 PM 64.2°F 63.1°F / 64.2°F 57.9°F / 84.6°F 29.67 inHg 45% 0.04″
06/07/2016 10:43 PM 63.3°F 58.3°F / 63.3°F 57.9°F / 84.6°F 29.69 inHg 47% 0.04″
06/07/2016 09:43 PM 59.0°F 59.0°F / 62.8°F 58.6°F / 84.6°F 29.76 inHg 67% 0.02″
06/07/2016 08:43 PM 65.3°F 65.3°F / 70.2°F 58.6°F / 84.6°F 29.75 inHg 54% 0.00″
06/07/2016 07:43 PM 70.2°F 70.2°F / 74.7°F 58.6°F / 84.6°F 29.63 inHg 36% 0.00″
06/07/2016 06:43 PM 72.9°F 72.0°F / 72.9°F 58.6°F / 84.6°F 29.61 inHg 33% 0.00″
06/07/2016 05:43 PM 73.9°F 73.9°F / 78.3°F 58.6°F / 84.6°F 29.62 inHg 30% 0.00″
06/07/2016 04:43 PM 79.7°F 75.7°F / 79.9°F 58.6°F / 84.6°F 29.63 inHg 25% 0.00″
06/07/2016 03:43 PM 84.4°F 81.7°F / 84.4°F 58.6°F / 84.4°F 29.63 inHg 23% 0.00″
06/07/2016 02:43 PM 82.8°F 80.4°F / 83.5°F 58.6°F / 83.5°F 29.64 inHg 25% 0.00″
06/07/2016 01:43 PM 81.3°F 80.2°F / 82.2°F 58.6°F / 82.2°F 29.66 inHg 25% 0.00″
06/07/2016 12:43 PM 81.9°F 78.4°F / 81.9°F 58.6°F / 81.9°F 29.67 inHg 28% 0.00″
06/07/2016 11:43 AM 78.4°F 75.9°F / 78.6°F 58.6°F / 78.6°F 29.69 inHg 32% 0.00″
06/07/2016 10:43 AM 76.5°F 74.5°F / 76.5°F 58.6°F / 76.5°F 29.71 inHg 37% 0.00″
06/07/2016 09:43 AM 74.1°F 73.0°F / 74.7°F 58.6°F / 74.7°F 29.73 inHg 36% 0.00″
06/07/2016 08:43 AM 72.7°F 65.3°F / 72.7°F 58.6°F / 72.7°F 29.73 inHg 35% 0.00″
06/07/2016 07:43 AM 62.8°F 58.6°F / 62.8°F 58.6°F / 67.6°F 29.74 inHg 56% 0.00″
06/07/2016 06:43 AM 59.5°F 59.5°F / 61.7°F 59.5°F / 67.6°F 29.74 inHg 57% 0.00″
06/07/2016 05:42 AM 63.1°F 61.5°F / 63.1°F 60.3°F / 67.6°F 29.72 inHg 46% 0.00″
06/07/2016 04:42 AM 60.4°F 60.4°F / 62.8°F 60.4°F / 67.6°F 29.72 inHg 55% 0.00″
06/07/2016 03:42 AM 63.9°F 63.9°F / 65.1°F 63.9°F / 67.6°F 29.71 inHg 48% 0.00″
06/07/2016 02:42 AM 66.6°F 66.0°F / 66.9°F 64.2°F / 67.6°F 29.72 inHg 42% 0.00″
06/07/2016 01:42 AM 65.5°F 64.2°F / 66.7°F 64.2°F / 67.6°F 29.72 inHg 41% 0.00″
06/07/2016 12:42 AM 66.9°F 66.9°F / 67.6°F 66.9°F / 67.6°F 29.72 inHg 41% 0.00″
06/06/2016 11:42 PM 67.5°F 67.5°F / 69.1°F 52.7°F / 83.8°F 29.73 inHg 39% 0.17″
06/06/2016 10:42 PM 66.0°F 64.4°F / 66.9°F 52.7°F / 83.8°F 29.73 inHg 42% 0.17″
06/06/2016 09:42 PM 67.8°F 67.8°F / 71.8°F 52.7°F / 83.8°F 29.71 inHg 41% 0.17″
06/06/2016 08:42 PM 71.1°F 70.9°F / 71.6°F 52.7°F / 83.8°F 29.72 inHg 36% 0.17″
06/06/2016 07:42 PM 72.7°F 72.7°F / 78.4°F 52.7°F / 83.8°F 29.67 inHg 33% 0.17″
06/06/2016 06:42 PM 80.8°F 80.8°F / 82.4°F 52.7°F / 83.8°F 29.65 inHg 26% 0.17″
06/06/2016 05:42 PM 82.8°F 81.0°F / 83.8°F 52.7°F / 83.8°F 29.65 inHg 25% 0.17″
06/06/2016 04:42 PM 81.5°F 79.3°F / 82.9°F 52.7°F / 83.3°F 29.66 inHg 28% 0.17″
06/06/2016 03:42 PM 81.9°F 80.1°F / 83.3°F 52.7°F / 83.3°F 29.70 inHg 32% 0.17″
06/06/2016 02:42 PM 79.3°F 78.3°F / 80.2°F 52.7°F / 80.2°F 29.71 inHg 29% 0.17″
06/06/2016 01:42 PM 78.3°F 77.0°F / 78.8°F 52.7°F / 78.8°F 29.73 inHg 31% 0.17″
06/06/2016 12:42 PM 76.1°F 75.4°F / 77.2°F 52.7°F / 77.2°F 29.75 inHg 36% 0.17″
06/06/2016 11:41 AM 73.8°F 72.5°F / 73.9°F 52.7°F / 73.9°F 29.77 inHg 38% 0.17″
06/06/2016 10:41 AM 72.3°F 70.9°F / 72.3°F 52.7°F / 72.3°F 29.76 inHg 41% 0.17″
06/06/2016 09:41 AM 70.2°F 68.2°F / 70.3°F 52.7°F / 70.3°F 29.76 inHg 45% 0.17″
06/06/2016 08:41 AM 65.8°F 59.7°F / 65.8°F 52.7°F / 65.8°F 29.76 inHg 54% 0.17″
06/06/2016 07:41 AM 59.4°F 56.1°F / 59.5°F 52.7°F / 61.2°F 29.76 inHg 80% 0.17″
06/06/2016 06:41 AM 53.8°F 52.9°F / 53.8°F 52.7°F / 61.2°F 29.75 inHg 82% 0.17″
06/06/2016 05:41 AM 53.2°F 53.2°F / 54.7°F 53.2°F / 61.2°F 29.74 inHg 82% 0.17″
06/06/2016 04:40 AM 56.8°F 56.8°F / 61.2°F 54.5°F / 61.2°F 29.74 inHg 73% 0.17″
06/06/2016 03:40 AM 59.4°F 56.3°F / 59.4°F 54.5°F / 60.1°F 29.72 inHg 63% 0.17″
06/06/2016 02:40 AM 56.7°F 54.7°F / 56.7°F 54.5°F / 60.1°F 29.74 inHg 78% 0.17″
06/06/2016 01:40 AM 54.9°F 54.5°F / 55.0°F 54.5°F / 60.1°F 29.77 inHg 88% 0.17″
06/06/2016 12:40 AM 55.8°F 55.8°F / 60.1°F 55.8°F / 60.1°F 29.86 inHg 85% 0.10″
06/05/2016 11:40 PM 62.2°F 60.6°F / 64.6°F 55.8°F / 82.4°F 29.83 inHg 57% 0.00″
06/05/2016 10:40 PM 66.4°F 65.8°F / 66.6°F 55.8°F / 82.4°F 29.78 inHg 47% 0.00″
06/05/2016 09:40 PM 66.0°F 66.0°F / 66.9°F 55.8°F / 82.4°F 29.72 inHg 48% 0.00″
06/05/2016 08:40 PM 67.1°F 67.1°F / 69.3°F 55.8°F / 82.4°F 29.71 inHg 44% 0.00″
06/05/2016 07:40 PM 70.2°F 70.2°F / 73.9°F 55.8°F / 82.4°F 29.71 inHg 38% 0.00″
06/05/2016 06:39 PM 76.6°F 76.6°F / 79.9°F 55.8°F / 82.4°F 29.71 inHg 30% 0.00″
06/05/2016 05:39 PM 76.1°F 74.8°F / 78.3°F 55.8°F / 82.4°F 29.72 inHg 33% 0.00″
06/05/2016 04:39 PM 75.9°F 75.6°F / 78.6°F 55.8°F / 82.4°F 29.74 inHg 34% 0.00″
06/05/2016 03:39 PM 82.0°F 79.7°F / 82.4°F 55.8°F / 82.4°F 29.77 inHg 29% 0.00″
06/05/2016 02:39 PM 79.3°F 77.2°F / 79.3°F 55.8°F / 79.3°F 29.81 inHg 32% 0.00″
06/05/2016 01:39 PM 78.1°F 75.7°F / 78.3°F 55.8°F / 78.3°F 29.83 inHg 35% 0.00″
06/05/2016 12:39 PM 74.5°F 73.8°F / 76.3°F 55.8°F / 76.3°F 29.85 inHg 35% 0.00″
06/05/2016 11:39 AM 73.6°F 71.4°F / 73.8°F 55.8°F / 73.8°F 29.87 inHg 38% 0.00″
06/05/2016 10:39 AM 70.9°F 69.1°F / 70.9°F 55.8°F / 70.9°F 29.88 inHg 40% 0.00″
06/05/2016 09:39 AM 69.3°F 66.7°F / 69.3°F 55.8°F / 69.3°F 29.89 inHg 44% 0.00″
06/05/2016 08:39 AM 65.5°F 59.4°F / 65.5°F 55.8°F / 65.5°F 29.88 inHg 48% 0.00″
06/05/2016 07:39 AM 58.1°F 55.8°F / 58.1°F 55.8°F / 63.9°F 29.87 inHg 64% 0.00″
06/05/2016 06:38 AM 56.1°F 55.9°F / 60.1°F 55.9°F / 63.9°F 29.86 inHg 62% 0.00″
06/05/2016 05:38 AM 59.5°F 56.8°F / 59.5°F 56.8°F / 63.9°F 29.83 inHg 55% 0.00″
06/05/2016 04:38 AM 60.6°F 60.6°F / 61.0°F 60.4°F / 63.9°F 29.83 inHg 53% 0.00″
06/05/2016 03:38 AM 60.4°F 60.4°F / 61.0°F 60.4°F / 63.9°F 29.83 inHg 53% 0.00″
06/05/2016 02:38 AM 60.4°F 60.4°F / 61.9°F 60.4°F / 63.9°F 29.83 inHg 54% 0.00″
06/05/2016 01:38 AM 62.2°F 62.2°F / 63.0°F 62.2°F / 63.9°F 29.83 inHg 51% 0.00″
06/05/2016 12:38 AM 63.1°F 63.1°F / 63.9°F 63.1°F / 63.9°F 29.84 inHg 49% 0.00″
06/04/2016 11:38 PM 63.7°F 63.5°F / 64.2°F 58.1°F / 76.3°F 29.85 inHg 48% 0.04″
06/04/2016 10:38 PM 64.9°F 64.9°F / 65.7°F 58.1°F / 76.3°F 29.85 inHg 46% 0.04″
06/04/2016 09:38 PM 66.0°F 65.8°F / 66.4°F 58.1°F / 76.3°F 29.85 inHg 47% 0.04″
06/04/2016 08:38 PM 66.4°F 66.2°F / 66.6°F 58.1°F / 76.3°F 29.83 inHg 47% 0.04″
06/04/2016 07:38 PM 68.2°F 68.2°F / 71.4°F 58.1°F / 76.3°F 29.81 inHg 46% 0.04″
06/04/2016 06:38 PM 72.3°F 69.3°F / 72.5°F 58.1°F / 76.3°F 29.81 inHg 43% 0.04″
06/04/2016 05:38 PM 70.9°F 66.9°F / 71.1°F 58.1°F / 76.3°F 29.80 inHg 44% 0.04″
06/04/2016 04:38 PM 67.5°F 67.5°F / 70.3°F 58.1°F / 76.3°F 29.81 inHg 51% 0.04″
06/04/2016 03:38 PM 63.3°F 58.1°F / 63.3°F 58.1°F / 76.3°F 29.83 inHg 70% 0.04″
06/04/2016 02:38 PM 63.9°F 63.9°F / 65.5°F 62.2°F / 76.3°F 29.83 inHg 60% 0.00″
06/04/2016 01:38 PM 72.3°F 72.3°F / 74.8°F 62.2°F / 76.3°F 29.83 inHg 40% 0.00″
06/04/2016 12:38 PM 73.6°F 72.7°F / 75.9°F 62.2°F / 76.3°F 29.83 inHg 36% 0.00″
06/04/2016 11:38 AM 73.6°F 70.5°F / 73.6°F 62.2°F / 75.6°F 29.84 inHg 34% 0.00″
06/04/2016 10:38 AM 73.0°F 73.0°F / 75.6°F 62.2°F / 75.6°F 29.84 inHg 36% 0.00″
06/04/2016 09:38 AM 72.9°F 70.2°F / 72.9°F 62.2°F / 72.9°F 29.84 inHg 32% 0.00″
06/04/2016 08:38 AM 68.7°F 66.4°F / 68.7°F 62.2°F / 68.7°F 29.84 inHg 42% 0.00″
06/04/2016 07:38 AM 64.8°F 62.8°F / 64.8°F 62.2°F / 67.3°F 29.83 inHg 43% 0.00″
06/04/2016 06:38 AM 62.6°F 62.4°F / 63.0°F 62.4°F / 67.3°F 29.82 inHg 40% 0.00″
06/04/2016 05:38 AM 62.4°F 62.4°F / 63.0°F 62.4°F / 67.3°F 29.81 inHg 38% 0.00″
06/04/2016 04:38 AM 63.5°F 63.5°F / 63.9°F 63.5°F / 67.3°F 29.80 inHg 34% 0.00″
06/04/2016 03:38 AM 63.9°F 63.9°F / 64.2°F 63.9°F / 67.3°F 29.80 inHg 35% 0.00″
06/04/2016 02:38 AM 64.6°F 64.2°F / 64.6°F 64.2°F / 67.3°F 29.79 inHg 41% 0.00″
06/04/2016 01:37 AM 65.1°F 65.1°F / 65.7°F 65.1°F / 67.3°F 29.79 inHg 44% 0.00″
06/04/2016 12:37 AM 65.3°F 65.3°F / 67.3°F 65.3°F / 67.3°F 29.81 inHg 42% 0.00″
06/03/2016 11:37 PM 67.5°F 67.3°F / 68.0°F 50.2°F / 84.2°F 29.81 inHg 37% 0.00″
06/03/2016 10:37 PM 68.2°F 67.6°F / 68.5°F 50.2°F / 84.2°F 29.81 inHg 36% 0.00″
06/03/2016 09:37 PM 69.1°F 69.1°F / 71.1°F 50.2°F / 84.2°F 29.80 inHg 34% 0.00″
06/03/2016 08:37 PM 71.2°F 71.2°F / 72.7°F 50.2°F / 84.2°F 29.78 inHg 30% 0.00″
06/03/2016 07:37 PM 74.1°F 74.1°F / 78.3°F 50.2°F / 84.2°F 29.79 inHg 29% 0.00″
06/03/2016 06:37 PM 79.5°F 79.2°F / 82.2°F 50.2°F / 84.2°F 29.79 inHg 18% 0.00″
06/03/2016 05:37 PM 82.9°F 80.8°F / 84.2°F 50.2°F / 84.2°F 29.80 inHg 19% 0.00″
06/03/2016 04:37 PM 80.6°F 80.6°F / 83.8°F 50.2°F / 83.8°F 29.82 inHg 19% 0.00″
06/03/2016 03:37 PM 79.0°F 78.4°F / 80.8°F 50.2°F / 80.8°F 29.83 inHg 23% 0.00″
06/03/2016 02:37 PM 78.6°F 76.8°F / 79.7°F 50.2°F / 79.7°F 29.85 inHg 30% 0.00″
06/03/2016 01:37 PM 77.2°F 74.5°F / 77.2°F 50.2°F / 77.2°F 29.87 inHg 33% 0.00″
06/03/2016 12:37 PM 73.8°F 72.1°F / 73.8°F 50.2°F / 73.8°F 29.90 inHg 34% 0.00″
06/03/2016 11:37 AM 72.3°F 70.3°F / 72.3°F 50.2°F / 72.3°F 29.91 inHg 39% 0.00″
06/03/2016 10:37 AM 70.2°F 69.1°F / 70.2°F 50.2°F / 70.2°F 29.92 inHg 43% 0.00″
06/03/2016 09:37 AM 68.5°F 66.4°F / 68.5°F 50.2°F / 68.5°F 29.93 inHg 40% 0.00″
06/03/2016 08:37 AM 63.0°F 57.0°F / 63.0°F 50.2°F / 63.0°F 29.93 inHg 53% 0.00″
06/03/2016 07:37 AM 54.1°F 51.4°F / 54.1°F 50.2°F / 56.1°F 29.93 inHg 70% 0.00″
06/03/2016 06:36 AM 51.8°F 50.2°F / 51.8°F 50.2°F / 56.1°F 29.92 inHg 69% 0.00″
06/03/2016 05:36 AM 50.4°F 50.2°F / 50.7°F 50.2°F / 56.1°F 29.91 inHg 69% 0.00″
06/03/2016 04:36 AM 51.4°F 51.1°F / 51.6°F 51.1°F / 56.1°F 29.90 inHg 67% 0.00″
06/03/2016 03:36 AM 53.2°F 52.5°F / 54.7°F 51.8°F / 56.1°F 29.91 inHg 66% 0.00″
06/03/2016 02:36 AM 52.3°F 52.3°F / 53.8°F 52.3°F / 56.1°F 29.91 inHg 70% 0.00″
06/03/2016 01:36 AM 55.8°F 54.3°F / 55.9°F 54.1°F / 56.1°F 29.93 inHg 61% 0.00″
06/03/2016 12:36 AM 54.9°F 54.9°F / 56.1°F 54.9°F / 56.1°F 29.93 inHg 63% 0.00″
06/02/2016 11:36 PM 59.2°F 59.2°F / 61.9°F 46.0°F / 75.9°F 29.92 inHg 50% 0.14″
06/02/2016 10:36 PM 63.0°F 63.0°F / 63.7°F 46.0°F / 75.9°F 29.94 inHg 43% 0.14″
06/02/2016 09:36 PM 62.6°F 61.0°F / 62.6°F 46.0°F / 75.9°F 29.92 inHg 43% 0.14″
06/02/2016 08:36 PM 60.8°F 60.6°F / 61.9°F 46.0°F / 75.9°F 29.92 inHg 53% 0.14″
06/02/2016 07:35 PM 61.3°F 55.9°F / 61.3°F 46.0°F / 75.9°F 29.88 inHg 56% 0.14″
06/02/2016 06:35 PM 63.7°F 62.8°F / 65.7°F 46.0°F / 75.9°F 29.88 inHg 57% 0.11″
06/02/2016 05:35 PM 63.0°F 57.4°F / 63.7°F 46.0°F / 75.9°F 29.86 inHg 75% 0.11″
06/02/2016 04:35 PM 63.0°F 63.0°F / 75.9°F 46.0°F / 75.9°F 29.86 inHg 64% 0.03″
06/02/2016 03:35 PM 74.7°F 68.5°F / 74.8°F 46.0°F / 74.8°F 29.88 inHg 36% 0.00″
06/02/2016 02:35 PM 68.5°F 67.8°F / 72.0°F 46.0°F / 72.0°F 29.90 inHg 49% 0.00″
06/02/2016 01:35 PM 69.6°F 67.8°F / 70.3°F 46.0°F / 70.3°F 29.91 inHg 46% 0.00″
06/02/2016 12:35 PM 66.4°F 64.2°F / 66.7°F 46.0°F / 66.7°F 29.94 inHg 50% 0.00″
06/02/2016 11:35 AM 63.9°F 62.8°F / 63.9°F 46.0°F / 63.9°F 29.95 inHg 57% 0.00″
06/02/2016 10:35 AM 60.3°F 59.5°F / 61.0°F 46.0°F / 61.0°F 29.96 inHg 62% 0.00″
06/02/2016 09:35 AM 59.7°F 57.4°F / 60.1°F 46.0°F / 60.1°F 29.96 inHg 60% 0.00″
06/02/2016 08:35 AM 56.5°F 53.2°F / 56.8°F 46.0°F / 56.8°F 29.96 inHg 65% 0.00″
06/02/2016 07:35 AM 49.3°F 47.5°F / 49.3°F 46.0°F / 52.7°F 29.95 inHg 79% 0.00″
06/02/2016 06:35 AM 46.4°F 46.0°F / 46.6°F 46.0°F / 52.7°F 29.95 inHg 82% 0.00″
06/02/2016 05:35 AM 48.9°F 48.0°F / 49.6°F 46.8°F / 52.7°F 29.93 inHg 76% 0.00″
06/02/2016 04:35 AM 46.9°F 46.9°F / 48.6°F 46.9°F / 52.7°F 29.93 inHg 81% 0.00″
06/02/2016 03:35 AM 49.8°F 48.6°F / 49.8°F 47.8°F / 52.7°F 29.91 inHg 77% 0.00″
06/02/2016 02:35 AM 48.0°F 47.8°F / 48.9°F 47.8°F / 52.7°F 29.91 inHg 83% 0.00″
06/02/2016 01:35 AM 51.4°F 51.4°F / 52.3°F 51.4°F / 52.7°F 29.90 inHg 75% 0.00″
06/02/2016 12:35 AM 52.3°F 52.3°F / 52.7°F 52.3°F / 52.7°F 29.91 inHg 74% 0.00″
06/01/2016 11:35 PM 53.1°F 52.9°F / 53.8°F 49.3°F / 64.6°F 29.91 inHg 73% 0.00″
06/01/2016 10:35 PM 53.4°F 53.2°F / 53.6°F 49.3°F / 64.6°F 29.92 inHg 70% 0.00″
06/01/2016 09:35 PM 54.3°F 54.3°F / 55.2°F 49.3°F / 64.6°F 29.89 inHg 71% 0.00″
06/01/2016 08:35 PM 55.6°F 55.6°F / 57.4°F 49.3°F / 64.6°F 29.88 inHg 69% 0.00″
06/01/2016 07:34 PM 60.3°F 60.1°F / 61.9°F 49.3°F / 64.6°F 29.85 inHg 61% 0.00″
06/01/2016 06:34 PM 61.3°F 61.0°F / 61.7°F 49.3°F / 64.6°F 29.82 inHg 47% 0.00″
06/01/2016 05:34 PM 61.7°F 61.7°F / 64.2°F 49.3°F / 64.6°F 29.83 inHg 46% 0.00″
06/01/2016 04:34 PM 62.4°F 60.6°F / 64.2°F 49.3°F / 64.2°F 29.83 inHg 53% 0.00″
06/01/2016 03:34 PM 59.4°F 58.8°F / 60.6°F 49.3°F / 62.4°F 29.85 inHg 66% 0.00″
06/01/2016 02:34 PM 60.4°F 58.1°F / 60.4°F 49.3°F / 62.4°F 29.85 inHg 60% 0.00″
06/01/2016 01:34 PM 58.5°F 57.6°F / 58.5°F 49.3°F / 62.4°F 29.86 inHg 60% 0.00″
06/01/2016 12:34 PM 58.1°F 58.1°F / 58.8°F 49.3°F / 62.4°F 29.87 inHg 62% 0.00″
06/01/2016 11:34 AM 59.2°F 59.2°F / 62.2°F 49.3°F / 62.4°F 29.86 inHg 59% 0.00″
06/01/2016 10:34 AM 61.0°F 59.9°F / 61.0°F 49.3°F / 61.0°F 29.86 inHg 54% 0.00″
06/01/2016 09:34 AM 58.5°F 56.7°F / 58.5°F 49.3°F / 58.5°F 29.86 inHg 61% 0.00″
06/01/2016 08:34 AM 55.0°F 53.6°F / 55.0°F 49.3°F / 55.0°F 29.86 inHg 71% 0.00″
06/01/2016 07:34 AM 51.4°F 49.3°F / 51.4°F 49.3°F / 55.0°F 29.85 inHg 81% 0.00″
06/01/2016 06:33 AM 50.2°F 50.2°F / 50.7°F 50.2°F / 55.0°F 29.81 inHg 80% 0.00″
06/01/2016 05:33 AM 51.6°F 51.6°F / 52.2°F 51.1°F / 55.0°F 29.80 inHg 73% 0.00″
06/01/2016 04:33 AM 53.1°F 52.7°F / 53.4°F 51.3°F / 55.0°F 29.78 inHg 69% 0.00″
06/01/2016 03:33 AM 52.3°F 51.3°F / 52.3°F 51.3°F / 55.0°F 29.79 inHg 70% 0.00″
06/01/2016 02:33 AM 51.8°F 51.8°F / 52.7°F 51.8°F / 55.0°F 29.78 inHg 69% 0.00″
06/01/2016 01:33 AM 53.1°F 53.1°F / 53.4°F 53.1°F / 55.0°F 29.78 inHg 66% 0.00″
06/01/2016 12:33 AM 53.8°F 53.8°F / 55.0°F 53.8°F / 55.0°F 29.76 inHg 66% 0.00″
05/31/2016 11:33 PM 51.3°F 50.7°F / 52.7°F 49.5°F / 72.3°F 29.75 inHg 80% 0.27″
05/31/2016 10:33 PM 53.1°F 51.6°F / 53.1°F 49.5°F / 72.3°F 29.75 inHg 69% 0.27″
05/31/2016 09:33 PM 52.3°F 52.3°F / 53.2°F 49.5°F / 72.3°F 29.75 inHg 74% 0.27″
05/31/2016 08:33 PM 52.5°F 50.7°F / 52.5°F 49.5°F / 72.3°F 29.74 inHg 72% 0.27″
05/31/2016 07:33 PM 50.5°F 50.5°F / 52.3°F 49.5°F / 72.3°F 29.74 inHg 83% 0.27″
05/31/2016 06:33 PM 63.3°F 63.3°F / 66.7°F 49.5°F / 72.3°F 29.68 inHg 49% 0.00″
05/31/2016 05:33 PM 68.0°F 66.4°F / 69.3°F 49.5°F / 72.3°F 29.65 inHg 40% 0.00″
05/31/2016 04:33 PM 66.4°F 65.8°F / 72.3°F 49.5°F / 72.3°F 29.67 inHg 39% 0.00″
05/31/2016 03:33 PM 70.3°F 67.8°F / 71.6°F 49.5°F / 71.6°F 29.65 inHg 34% 0.00″
05/31/2016 02:33 PM 65.5°F 65.3°F / 68.2°F 49.5°F / 71.2°F 29.68 inHg 42% 0.00″
05/31/2016 01:33 PM 68.7°F 68.4°F / 69.6°F 49.5°F / 71.2°F 29.68 inHg 43% 0.00″
05/31/2016 12:33 PM 69.1°F 67.6°F / 69.6°F 49.5°F / 69.6°F 29.70 inHg 42% 0.00″
05/31/2016 11:32 AM 66.4°F 66.4°F / 67.3°F 49.5°F / 67.3°F 29.71 inHg 45% 0.00″
05/31/2016 10:32 AM 65.1°F 64.0°F / 65.5°F 49.5°F / 65.5°F 29.72 inHg 48% 0.00″
05/31/2016 09:32 AM 62.6°F 61.2°F / 62.6°F 49.5°F / 62.6°F 29.73 inHg 53% 0.00″
05/31/2016 08:32 AM 59.7°F 57.7°F / 59.7°F 49.5°F / 59.7°F 29.74 inHg 57% 0.00″
05/31/2016 07:32 AM 53.2°F 51.1°F / 53.2°F 49.5°F / 57.9°F 29.71 inHg 66% 0.00″
05/31/2016 06:32 AM 50.4°F 49.5°F / 50.4°F 49.5°F / 57.9°F 29.72 inHg 68% 0.00″
05/31/2016 05:32 AM 50.9°F 50.5°F / 51.6°F 49.8°F / 57.9°F 29.70 inHg 63% 0.00″
05/31/2016 04:32 AM 51.3°F 50.7°F / 51.8°F 49.8°F / 57.9°F 29.68 inHg 64% 0.00″
05/31/2016 03:32 AM 49.8°F 49.8°F / 51.3°F 49.8°F / 57.9°F 29.67 inHg 66% 0.00″
05/31/2016 02:32 AM 52.9°F 52.5°F / 53.4°F 52.5°F / 57.9°F 29.67 inHg 61% 0.00″
05/31/2016 01:32 AM 56.7°F 56.7°F / 57.6°F 56.7°F / 57.9°F 29.66 inHg 54% 0.00″
05/31/2016 12:31 AM 57.6°F 57.0°F / 57.9°F 57.0°F / 57.9°F 29.68 inHg 55% 0.00″
05/30/2016 11:31 PM 56.8°F 55.9°F / 56.8°F 54.3°F / 77.9°F 29.69 inHg 58% 0.02″
05/30/2016 10:31 PM 54.7°F 54.7°F / 61.3°F 54.7°F / 77.9°F 29.71 inHg 73% 0.02″
05/30/2016 09:31 PM 60.8°F 60.4°F / 61.0°F 55.0°F / 77.9°F 29.68 inHg 43% 0.00″
05/30/2016 08:31 PM 62.1°F 62.1°F / 63.9°F 55.0°F / 77.9°F 29.67 inHg 41% 0.00″
05/30/2016 07:31 PM 67.1°F 65.8°F / 67.5°F 55.0°F / 77.9°F 29.65 inHg 34% 0.00″
05/30/2016 06:31 PM 65.7°F 65.7°F / 68.5°F 55.0°F / 77.9°F 29.64 inHg 34% 0.00″
05/30/2016 05:31 PM 65.5°F 65.3°F / 65.5°F 55.0°F / 77.9°F 29.67 inHg 39% 0.00″
05/30/2016 04:31 PM 70.5°F 68.2°F / 70.9°F 55.0°F / 77.9°F 29.65 inHg 29% 0.00″
05/30/2016 03:31 PM 73.4°F 73.4°F / 77.9°F 55.0°F / 77.9°F 29.65 inHg 24% 0.00″
05/30/2016 02:31 PM 76.3°F 73.9°F / 76.8°F 55.0°F / 76.8°F 29.67 inHg 23% 0.00″
05/30/2016 01:31 PM 75.4°F 73.6°F / 76.1°F 55.0°F / 76.1°F 29.70 inHg 25% 0.00″
05/30/2016 12:31 PM 72.7°F 71.2°F / 73.9°F 55.0°F / 73.9°F 29.72 inHg 30% 0.00″
05/30/2016 11:31 AM 71.8°F 70.3°F / 72.1°F 55.0°F / 72.1°F 29.74 inHg 30% 0.00″
05/30/2016 10:31 AM 68.7°F 66.7°F / 69.6°F 55.0°F / 69.6°F 29.76 inHg 29% 0.00″
05/30/2016 09:30 AM 66.9°F 65.1°F / 66.9°F 55.0°F / 66.9°F 29.78 inHg 29% 0.00″
05/30/2016 08:30 AM 64.8°F 59.9°F / 64.8°F 55.0°F / 64.8°F 29.79 inHg 31% 0.00″
05/30/2016 07:30 AM 58.8°F 56.8°F / 58.8°F 55.0°F / 64.4°F 29.79 inHg 42% 0.00″
05/30/2016 06:30 AM 55.8°F 55.8°F / 57.0°F 55.8°F / 64.4°F 29.77 inHg 40% 0.00″
05/30/2016 05:30 AM 56.1°F 56.1°F / 57.9°F 56.1°F / 64.4°F 29.76 inHg 41% 0.00″
05/30/2016 04:30 AM 58.3°F 58.3°F / 59.5°F 58.3°F / 64.4°F 29.76 inHg 39% 0.00″
05/30/2016 03:30 AM 59.5°F 59.5°F / 63.7°F 59.5°F / 64.4°F 29.76 inHg 35% 0.00″
05/30/2016 02:30 AM 62.4°F 62.4°F / 64.0°F 62.4°F / 64.4°F 29.75 inHg 32% 0.00″
05/30/2016 01:30 AM 63.7°F 63.7°F / 64.2°F 62.6°F / 64.4°F 29.77 inHg 31% 0.00″
05/30/2016 12:30 AM 62.8°F 62.6°F / 63.1°F 62.6°F / 63.1°F 29.79 inHg 32% 0.00″
05/29/2016 10:30 PM 60.3°F 60.3°F / 61.7°F 51.4°F / 78.4°F 29.80 inHg 25% 0.00″
05/29/2016 09:30 PM 62.8°F 62.8°F / 63.7°F 51.4°F / 78.4°F 29.78 inHg 21% 0.00″
05/29/2016 08:30 PM 64.6°F 64.6°F / 70.2°F 51.4°F / 78.4°F 29.76 inHg 20% 0.00″
05/29/2016 07:30 PM 73.0°F 73.0°F / 74.5°F 51.4°F / 78.4°F 29.75 inHg 15% 0.00″
05/29/2016 06:30 PM 75.4°F 75.0°F / 76.6°F 51.4°F / 78.4°F 29.75 inHg 14% 0.00″
05/29/2016 05:30 PM 76.5°F 76.5°F / 77.9°F 51.4°F / 78.4°F 29.76 inHg 15% 0.00″
05/29/2016 04:29 PM 78.1°F 75.9°F / 78.3°F 51.4°F / 78.4°F 29.77 inHg 14% 0.00″
05/29/2016 03:29 PM 77.5°F 76.5°F / 78.4°F 51.4°F / 78.4°F 29.80 inHg 15% 0.00″
05/29/2016 02:29 PM 75.6°F 74.7°F / 76.6°F 51.4°F / 76.6°F 29.83 inHg 15% 0.00″
05/29/2016 01:29 PM 75.6°F 74.1°F / 75.7°F 51.4°F / 75.7°F 29.85 inHg 14% 0.00″
05/29/2016 12:29 PM 73.9°F 72.9°F / 74.7°F 51.4°F / 74.7°F 29.87 inHg 16% 0.00″
05/29/2016 11:29 AM 71.8°F 71.8°F / 73.4°F 51.4°F / 73.4°F 29.89 inHg 13% 0.00″
05/29/2016 10:29 AM 71.1°F 70.2°F / 71.2°F 51.4°F / 71.2°F 29.89 inHg 13% 0.00″
05/29/2016 09:29 AM 68.9°F 67.5°F / 68.9°F 51.4°F / 68.9°F 29.90 inHg 13% 0.00″
05/29/2016 08:29 AM 63.3°F 58.3°F / 63.3°F 51.4°F / 63.3°F 29.90 inHg 18% 0.00″
05/29/2016 07:29 AM 52.9°F 51.4°F / 52.9°F 51.4°F / 59.5°F 29.89 inHg 25% 0.00″
05/29/2016 06:29 AM 52.9°F 52.5°F / 54.7°F 52.5°F / 59.5°F 29.88 inHg 20% 0.00″
05/29/2016 05:29 AM 53.2°F 53.2°F / 55.9°F 53.2°F / 59.5°F 29.86 inHg 20% 0.00″
05/29/2016 04:29 AM 57.6°F 56.7°F / 58.1°F 55.0°F / 59.5°F 29.85 inHg 16% 0.00″
05/29/2016 03:29 AM 56.1°F 56.1°F / 57.6°F 55.0°F / 59.5°F 29.83 inHg 16% 0.00″
05/29/2016 02:29 AM 58.8°F 55.2°F / 58.8°F 55.0°F / 59.5°F 29.83 inHg 15% 0.00″
05/29/2016 01:28 AM 57.7°F 56.7°F / 57.7°F 56.7°F / 59.5°F 29.83 inHg 14% 0.00″
05/29/2016 12:28 AM 58.8°F 58.8°F / 59.5°F 58.8°F / 59.5°F 29.83 inHg 14% 0.00″
05/28/2016 11:28 PM 58.8°F 58.5°F / 58.8°F 45.0°F / 76.6°F 29.84 inHg 12% 0.00″
05/28/2016 10:28 PM 58.8°F 58.8°F / 59.5°F 45.0°F / 76.6°F 29.84 inHg 14% 0.00″
05/28/2016 09:28 PM 60.3°F 60.3°F / 61.3°F 45.0°F / 76.6°F 29.83 inHg 16% 0.00″
05/28/2016 08:28 PM 62.2°F 62.2°F / 66.4°F 45.0°F / 76.6°F 29.81 inHg 15% 0.00″
05/28/2016 07:28 PM 71.6°F 71.6°F / 73.0°F 45.0°F / 76.6°F 29.79 inHg 10% 0.00″
05/28/2016 06:28 PM 73.4°F 73.4°F / 74.5°F 45.0°F / 76.6°F 29.78 inHg 10% 0.00″
05/28/2016 05:28 PM 75.0°F 74.7°F / 75.9°F 45.0°F / 76.6°F 29.78 inHg 10% 0.00″
05/28/2016 04:28 PM 75.2°F 74.8°F / 76.1°F 45.0°F / 76.1°F 29.78 inHg 9% 0.00″
05/28/2016 03:28 PM 74.8°F 73.8°F / 75.4°F 45.0°F / 75.9°F 29.80 inHg 10% 0.00″
05/28/2016 02:28 PM 73.2°F 73.2°F / 75.9°F 45.0°F / 75.9°F 29.81 inHg 12% 0.00″
05/28/2016 01:27 PM 72.9°F 72.0°F / 73.8°F 45.0°F / 73.8°F 29.83 inHg 13% 0.00″
05/28/2016 12:27 PM 71.8°F 70.7°F / 72.3°F 45.0°F / 72.3°F 29.84 inHg 12% 0.00″
05/28/2016 11:27 AM 69.6°F 69.1°F / 70.3°F 45.0°F / 70.3°F 29.84 inHg 19% 0.00″
05/28/2016 10:27 AM 67.6°F 66.4°F / 67.8°F 45.0°F / 67.8°F 29.84 inHg 20% 0.00″
05/28/2016 09:27 AM 65.1°F 63.7°F / 65.3°F 45.0°F / 65.3°F 29.84 inHg 24% 0.00″
05/28/2016 08:27 AM 58.5°F 54.0°F / 58.5°F 45.0°F / 58.5°F 29.84 inHg 33% 0.00″
05/28/2016 07:27 AM 49.8°F 47.5°F / 50.0°F 45.0°F / 53.2°F 29.83 inHg 40% 0.00″
05/28/2016 06:27 AM 47.1°F 45.0°F / 47.1°F 45.0°F / 53.2°F 29.81 inHg 40% 0.00″
05/28/2016 05:27 AM 46.4°F 46.2°F / 49.3°F 46.2°F / 53.2°F 29.80 inHg 37% 0.00″
05/28/2016 04:27 AM 46.9°F 46.9°F / 51.4°F 46.9°F / 53.2°F 29.80 inHg 36% 0.00″
05/28/2016 03:26 AM 48.7°F 48.7°F / 52.3°F 48.7°F / 53.2°F 29.78 inHg 35% 0.00″
05/28/2016 02:26 AM 52.2°F 52.2°F / 52.5°F 49.6°F / 53.2°F 29.78 inHg 28% 0.00″
05/28/2016 01:26 AM 52.9°F 51.3°F / 53.2°F 49.6°F / 53.2°F 29.79 inHg 26% 0.00″
05/28/2016 12:26 AM 50.9°F 50.5°F / 51.4°F 50.5°F / 51.4°F 29.80 inHg 30% 0.00″
05/27/2016 11:26 PM 51.6°F 51.6°F / 54.0°F 40.5°F / 68.9°F 29.79 inHg 25% 0.00″
05/27/2016 10:25 PM 54.7°F 54.3°F / 55.9°F 40.5°F / 68.9°F 29.78 inHg 24% 0.00″
05/27/2016 09:25 PM 58.1°F 57.0°F / 58.1°F 40.5°F / 68.9°F 29.76 inHg 20% 0.00″
05/27/2016 08:25 PM 58.8°F 58.6°F / 61.5°F 40.5°F / 68.9°F 29.73 inHg 22% 0.00″
05/27/2016 07:25 PM 65.1°F 65.1°F / 66.4°F 40.5°F / 68.9°F 29.70 inHg 18% 0.00″
05/27/2016 06:25 PM 67.5°F 67.1°F / 68.2°F 40.5°F / 68.9°F 29.68 inHg 17% 0.00″
05/27/2016 04:25 PM 66.7°F 66.6°F / 68.4°F 40.5°F / 68.4°F 29.69 inHg 20% 0.00″
05/27/2016 03:24 PM 67.1°F 65.7°F / 67.1°F 40.5°F / 67.1°F 29.70 inHg 20% 0.00″
05/27/2016 02:24 PM 66.2°F 64.4°F / 66.4°F 40.5°F / 66.4°F 29.71 inHg 21% 0.00″
05/27/2016 01:24 PM 63.3°F 63.1°F / 64.6°F 40.5°F / 64.6°F 29.72 inHg 22% 0.00″
05/27/2016 12:24 PM 61.9°F 61.0°F / 63.3°F 40.5°F / 63.3°F 29.73 inHg 25% 0.00″
05/27/2016 11:24 AM 59.4°F 58.8°F / 59.7°F 40.5°F / 59.7°F 29.73 inHg 28% 0.00″
05/27/2016 10:24 AM 58.1°F 57.2°F / 58.1°F 40.5°F / 58.1°F 29.73 inHg 32% 0.00″
05/27/2016 09:24 AM 55.8°F 54.1°F / 55.8°F 40.5°F / 55.8°F 29.74 inHg 35% 0.00″
05/27/2016 08:24 AM 52.0°F 49.1°F / 52.0°F 40.5°F / 52.9°F 29.74 inHg 38% 0.00″
05/27/2016 07:24 AM 43.9°F 43.5°F / 44.2°F 40.5°F / 52.9°F 29.73 inHg 49% 0.00″
05/27/2016 06:24 AM 42.6°F 42.4°F / 44.2°F 40.5°F / 52.9°F 29.71 inHg 46% 0.00″
05/27/2016 05:24 AM 42.3°F 40.8°F / 42.4°F 40.5°F / 52.9°F 29.70 inHg 40% 0.00″
05/27/2016 04:24 AM 41.9°F 41.9°F / 43.2°F 41.9°F / 52.9°F 29.68 inHg 37% 0.00″
05/27/2016 03:23 AM 43.3°F 43.3°F / 44.1°F 43.3°F / 52.9°F 29.67 inHg 32% 0.00″
05/27/2016 02:23 AM 46.8°F 46.8°F / 48.0°F 46.8°F / 52.9°F 29.67 inHg 29% 0.00″
05/27/2016 01:23 AM 49.3°F 49.3°F / 50.0°F 49.3°F / 52.9°F 29.67 inHg 25% 0.00″
05/26/2016 11:23 PM 52.2°F 51.4°F / 52.5°F 48.6°F / 68.4°F 29.68 inHg 21% 0.00″
05/26/2016 10:23 PM 54.1°F 54.1°F / 55.6°F 48.6°F / 68.4°F 29.68 inHg 19% 0.00″
05/26/2016 09:23 PM 56.5°F 56.1°F / 57.4°F 48.6°F / 68.4°F 29.66 inHg 18% 0.00″
05/26/2016 08:23 PM 58.5°F 58.5°F / 60.1°F 48.6°F / 68.4°F 29.64 inHg 18% 0.00″
05/26/2016 07:23 PM 62.4°F 62.4°F / 63.9°F 48.6°F / 68.4°F 29.62 inHg 14% 0.00″
05/26/2016 06:22 PM 65.5°F 65.3°F / 66.2°F 48.6°F / 68.4°F 29.60 inHg 14% 0.00″
05/26/2016 05:22 PM 66.9°F 66.6°F / 66.9°F 48.6°F / 68.4°F 29.60 inHg 15% 0.00″
05/26/2016 04:22 PM 68.0°F 67.3°F / 68.4°F 48.6°F / 68.4°F 29.61 inHg 16% 0.00″
05/26/2016 03:22 PM 67.5°F 66.6°F / 68.4°F 48.6°F / 68.4°F 29.62 inHg 16% 0.00″
05/26/2016 02:22 PM 65.5°F 65.5°F / 66.6°F 48.6°F / 66.7°F 29.65 inHg 18% 0.00″
05/26/2016 01:22 PM 65.1°F 64.6°F / 66.2°F 48.6°F / 66.2°F 29.65 inHg 18% 0.00″
05/26/2016 12:22 PM 64.6°F 63.7°F / 64.6°F 48.6°F / 64.6°F 29.68 inHg 19% 0.00″
05/26/2016 11:22 AM 63.1°F 62.2°F / 63.3°F 48.6°F / 63.3°F 29.68 inHg 19% 0.00″
05/26/2016 10:22 AM 61.3°F 60.1°F / 61.3°F 48.6°F / 61.3°F 29.69 inHg 27% 0.00″
05/26/2016 09:22 AM 58.6°F 58.1°F / 58.8°F 48.6°F / 59.4°F 29.72 inHg 26% 0.00″
05/26/2016 08:22 AM 56.7°F 56.1°F / 56.7°F 48.6°F / 59.4°F 29.72 inHg 29% 0.00″
05/26/2016 07:22 AM 51.6°F 49.8°F / 51.6°F 48.6°F / 59.4°F 29.72 inHg 33% 0.00″
05/26/2016 06:22 AM 48.7°F 48.7°F / 49.6°F 48.7°F / 59.4°F 29.72 inHg 34% 0.00″
05/26/2016 05:22 AM 49.8°F 49.6°F / 50.5°F 49.6°F / 59.4°F 29.72 inHg 32% 0.00″
05/26/2016 04:22 AM 51.4°F 51.4°F / 53.1°F 51.3°F / 59.4°F 29.72 inHg 27% 0.00″
05/26/2016 03:22 AM 53.4°F 51.3°F / 53.4°F 51.3°F / 59.4°F 29.73 inHg 23% 0.00″
05/26/2016 02:21 AM 54.3°F 53.8°F / 54.3°F 53.6°F / 59.4°F 29.74 inHg 22% 0.00″
05/26/2016 01:21 AM 56.3°F 56.3°F / 58.6°F 56.3°F / 59.4°F 29.75 inHg 20% 0.00″
05/26/2016 12:21 AM 57.9°F 57.4°F / 58.3°F 57.4°F / 58.3°F 29.75 inHg 18% 0.00″
05/25/2016 11:21 PM 59.4°F 59.2°F / 60.1°F 51.4°F / 75.0°F 29.76 inHg 17% 0.00″
05/25/2016 10:21 PM 62.1°F 62.1°F / 63.0°F 51.4°F / 75.0°F 29.75 inHg 15% 0.00″
05/25/2016 09:21 PM 65.1°F 65.1°F / 65.8°F 51.4°F / 75.0°F 29.73 inHg 13% 0.00″
05/25/2016 08:21 PM 67.6°F 67.6°F / 68.9°F 51.4°F / 75.0°F 29.72 inHg 13% 0.00″
05/25/2016 07:21 PM 71.2°F 71.2°F / 72.5°F 51.4°F / 75.0°F 29.71 inHg 15% 0.00″
05/25/2016 06:21 PM 72.3°F 72.3°F / 73.2°F 51.4°F / 75.0°F 29.72 inHg 16% 0.00″
05/25/2016 05:21 PM 73.9°F 72.9°F / 74.7°F 51.4°F / 75.0°F 29.74 inHg 17% 0.00″
05/25/2016 04:21 PM 73.8°F 73.0°F / 74.1°F 51.4°F / 75.0°F 29.76 inHg 15% 0.00″
05/25/2016 03:21 PM 73.2°F 72.1°F / 73.4°F 51.4°F / 73.4°F 29.78 inHg 17% 0.00″
05/25/2016 02:21 PM 72.9°F 71.8°F / 72.9°F 51.4°F / 72.9°F 29.80 inHg 15% 0.00″
05/25/2016 01:20 PM 70.5°F 69.6°F / 71.1°F 51.4°F / 71.1°F 29.81 inHg 17% 0.00″
05/25/2016 12:20 PM 69.4°F 67.6°F / 69.4°F 51.4°F / 69.4°F 29.83 inHg 18% 0.00″
05/25/2016 11:20 AM 66.0°F 65.5°F / 66.0°F 51.4°F / 66.0°F 29.84 inHg 18% 0.00″
05/25/2016 10:20 AM 64.2°F 63.5°F / 64.2°F 51.4°F / 64.2°F 29.84 inHg 22% 0.00″
05/25/2016 09:20 AM 62.1°F 61.3°F / 62.2°F 51.4°F / 62.2°F 29.84 inHg 22% 0.00″
05/25/2016 08:20 AM 60.3°F 59.5°F / 60.3°F 51.4°F / 60.3°F 29.84 inHg 23% 0.00″
05/25/2016 07:20 AM 56.5°F 53.6°F / 56.5°F 51.4°F / 59.7°F 29.83 inHg 25% 0.00″
05/25/2016 06:20 AM 51.8°F 51.6°F / 52.3°F 51.6°F / 59.7°F 29.82 inHg 30% 0.00″
05/25/2016 05:20 AM 52.9°F 52.9°F / 53.8°F 52.2°F / 59.7°F 29.81 inHg 27% 0.00″
05/25/2016 04:20 AM 52.3°F 52.2°F / 53.2°F 52.2°F / 59.7°F 29.79 inHg 29% 0.00″
05/25/2016 03:20 AM 55.0°F 55.0°F / 55.8°F 55.0°F / 59.7°F 29.78 inHg 26% 0.00″
05/25/2016 02:19 AM 56.5°F 55.6°F / 56.5°F 55.6°F / 59.7°F 29.79 inHg 22% 0.00″
05/25/2016 01:19 AM 57.4°F 57.4°F / 58.3°F 56.7°F / 59.7°F 29.79 inHg 22% 0.00″
05/25/2016 12:19 AM 57.7°F 57.7°F / 59.7°F 57.7°F / 59.7°F 29.78 inHg 24% 0.00″
05/24/2016 11:19 PM 60.1°F 59.7°F / 61.0°F 50.4°F / 75.0°F 29.78 inHg 20% 0.00″
05/24/2016 10:19 PM 63.7°F 63.7°F / 64.0°F 50.4°F / 75.0°F 29.77 inHg 16% 0.00″
05/24/2016 09:19 PM 64.8°F 64.8°F / 65.5°F 50.4°F / 75.0°F 29.75 inHg 15% 0.00″
05/24/2016 08:19 PM 66.9°F 66.9°F / 68.2°F 50.4°F / 75.0°F 29.72 inHg 14% 0.00″
05/24/2016 07:19 PM 71.2°F 71.1°F / 71.8°F 50.4°F / 75.0°F 29.70 inHg 12% 0.00″
05/24/2016 06:19 PM 72.7°F 72.5°F / 73.6°F 50.4°F / 75.0°F 29.70 inHg 13% 0.00″
05/24/2016 05:19 PM 73.9°F 73.2°F / 74.3°F 50.4°F / 75.0°F 29.71 inHg 14% 0.00″
05/24/2016 04:19 PM 73.9°F 73.9°F / 74.8°F 50.4°F / 75.0°F 29.72 inHg 12% 0.00″
05/24/2016 03:19 PM 73.6°F 73.2°F / 74.8°F 50.4°F / 74.8°F 29.72 inHg 14% 0.00″
05/24/2016 02:19 PM 72.9°F 72.3°F / 72.9°F 50.4°F / 73.0°F 29.73 inHg 14% 0.00″
05/24/2016 01:19 PM 71.6°F 70.2°F / 71.6°F 50.4°F / 71.6°F 29.73 inHg 17% 0.00″
05/24/2016 12:19 PM 69.1°F 68.2°F / 69.1°F 50.4°F / 69.1°F 29.74 inHg 17% 0.00″
05/24/2016 11:19 AM 67.5°F 66.4°F / 67.6°F 50.4°F / 67.6°F 29.75 inHg 20% 0.00″
05/24/2016 10:19 AM 65.3°F 64.0°F / 65.5°F 50.4°F / 65.5°F 29.75 inHg 21% 0.00″
05/24/2016 09:19 AM 62.2°F 61.0°F / 62.2°F 50.4°F / 62.2°F 29.75 inHg 25% 0.00″
05/24/2016 08:19 AM 60.3°F 58.6°F / 60.3°F 50.4°F / 60.3°F 29.73 inHg 27% 0.00″
05/24/2016 07:19 AM 52.2°F 50.4°F / 52.3°F 50.4°F / 59.4°F 29.72 inHg 34% 0.00″
05/24/2016 06:18 AM 52.5°F 52.0°F / 52.7°F 51.6°F / 59.4°F 29.70 inHg 30% 0.00″
05/24/2016 05:18 AM 52.2°F 52.2°F / 53.1°F 52.2°F / 59.4°F 29.68 inHg 29% 0.00″
05/24/2016 04:18 AM 54.7°F 54.1°F / 55.0°F 54.0°F / 59.4°F 29.67 inHg 25% 0.00″
05/24/2016 03:18 AM 55.2°F 55.0°F / 56.5°F 54.7°F / 59.4°F 29.66 inHg 23% 0.00″
05/24/2016 02:18 AM 56.8°F 56.8°F / 57.6°F 55.8°F / 59.4°F 29.65 inHg 20% 0.00″
05/24/2016 01:18 AM 58.8°F 57.9°F / 59.4°F 56.7°F / 59.4°F 29.65 inHg 20% 0.00″
05/24/2016 12:18 AM 58.3°F 57.6°F / 59.4°F 57.6°F / 59.4°F 29.64 inHg 20% 0.00″
05/23/2016 11:17 PM 58.6°F 58.5°F / 59.0°F 55.2°F / 75.6°F 29.65 inHg 19% 0.00″
05/23/2016 10:17 PM 61.5°F 60.6°F / 61.7°F 55.2°F / 75.6°F 29.63 inHg 19% 0.00″
05/23/2016 09:17 PM 64.0°F 63.7°F / 64.6°F 55.2°F / 75.6°F 29.61 inHg 17% 0.00″
05/23/2016 08:17 PM 67.1°F 67.1°F / 68.5°F 55.2°F / 75.6°F 29.59 inHg 16% 0.00″
05/23/2016 07:17 PM 71.8°F 71.8°F / 72.7°F 55.2°F / 75.6°F 29.58 inHg 14% 0.00″
05/23/2016 06:17 PM 73.9°F 73.8°F / 74.1°F 55.2°F / 75.6°F 29.58 inHg 13% 0.00″
05/23/2016 05:17 PM 74.1°F 74.1°F / 75.4°F 55.2°F / 75.6°F 29.59 inHg 15% 0.00″
05/23/2016 04:17 PM 74.8°F 73.6°F / 74.8°F 55.2°F / 74.8°F 29.60 inHg 15% 0.00″
05/23/2016 03:17 PM 74.1°F 73.4°F / 74.7°F 55.2°F / 74.7°F 29.61 inHg 13% 0.00″
05/23/2016 02:17 PM 73.0°F 72.9°F / 73.9°F 55.2°F / 73.9°F 29.63 inHg 15% 0.00″
05/23/2016 01:17 PM 72.3°F 71.6°F / 72.3°F 55.2°F / 72.3°F 29.66 inHg 16% 0.00″
05/23/2016 12:17 PM 70.9°F 69.6°F / 71.1°F 55.2°F / 71.1°F 29.66 inHg 16% 0.00″
05/23/2016 11:17 AM 68.5°F 68.2°F / 68.9°F 55.2°F / 68.9°F 29.67 inHg 21% 0.00″
05/23/2016 10:17 AM 66.6°F 65.8°F / 66.9°F 55.2°F / 66.9°F 29.69 inHg 20% 0.00″
05/23/2016 09:17 AM 64.0°F 63.7°F / 64.0°F 55.2°F / 64.0°F 29.70 inHg 25% 0.00″
05/23/2016 08:17 AM 62.4°F 60.4°F / 62.4°F 55.2°F / 62.4°F 29.70 inHg 25% 0.00″
05/23/2016 07:17 AM 57.0°F 57.0°F / 58.6°F 55.2°F / 61.9°F 29.69 inHg 34% 0.00″
05/23/2016 06:17 AM 55.2°F 55.2°F / 55.8°F 55.2°F / 61.9°F 29.68 inHg 30% 0.00″
05/23/2016 05:17 AM 56.8°F 56.8°F / 57.6°F 56.8°F / 61.9°F 29.67 inHg 28% 0.00″
05/23/2016 04:17 AM 57.9°F 57.2°F / 57.9°F 57.2°F / 61.9°F 29.66 inHg 22% 0.00″
05/23/2016 03:17 AM 59.0°F 59.0°F / 60.1°F 59.0°F / 61.9°F 29.67 inHg 26% 0.00″
05/23/2016 02:16 AM 61.0°F 60.4°F / 61.2°F 59.7°F / 61.9°F 29.68 inHg 20% 0.00″
05/23/2016 01:16 AM 61.3°F 61.2°F / 61.5°F 59.7°F / 61.5°F 29.68 inHg 18% 0.00″
05/23/2016 12:16 AM 60.1°F 60.1°F / 60.4°F 60.1°F / 60.4°F 29.69 inHg 20% 0.00″
05/22/2016 11:16 PM 59.7°F 59.5°F / 60.4°F 49.6°F / 73.8°F 29.71 inHg 21% 0.00″
05/22/2016 10:16 PM 63.3°F 63.3°F / 64.0°F 49.6°F / 73.8°F 29.70 inHg 17% 0.00″
05/22/2016 09:16 PM 64.2°F 64.2°F / 64.8°F 49.6°F / 73.8°F 29.69 inHg 18% 0.00″
05/22/2016 08:16 PM 66.7°F 66.7°F / 67.6°F 49.6°F / 73.8°F 29.68 inHg 16% 0.00″
05/22/2016 07:16 PM 70.5°F 70.5°F / 71.2°F 49.6°F / 73.8°F 29.65 inHg 15% 0.00″
05/22/2016 06:16 PM 72.3°F 72.3°F / 72.5°F 49.6°F / 73.8°F 29.66 inHg 16% 0.00″
05/22/2016 05:16 PM 73.2°F 72.7°F / 73.2°F 49.6°F / 73.8°F 29.68 inHg 16% 0.00″
05/22/2016 04:16 PM 72.3°F 72.1°F / 73.6°F 49.6°F / 73.8°F 29.69 inHg 18% 0.00″
05/22/2016 03:16 PM 71.8°F 71.4°F / 72.5°F 49.6°F / 72.5°F 29.72 inHg 17% 0.00″
05/22/2016 02:16 PM 71.1°F 70.9°F / 72.1°F 49.6°F / 72.1°F 29.75 inHg 17% 0.00″
05/22/2016 01:16 PM 70.7°F 69.3°F / 70.7°F 49.6°F / 70.7°F 29.75 inHg 19% 0.00″
05/22/2016 12:16 PM 68.5°F 66.9°F / 68.5°F 49.6°F / 68.5°F 29.77 inHg 21% 0.00″
05/22/2016 11:16 AM 66.2°F 65.8°F / 66.6°F 49.6°F / 66.6°F 29.78 inHg 23% 0.00″
05/22/2016 10:16 AM 64.4°F 63.1°F / 64.6°F 49.6°F / 64.6°F 29.79 inHg 25% 0.00″
05/22/2016 09:16 AM 62.2°F 62.1°F / 62.2°F 49.6°F / 62.2°F 29.80 inHg 27% 0.00″
05/22/2016 08:16 AM 60.3°F 57.2°F / 60.3°F 49.6°F / 60.3°F 29.79 inHg 29% 0.00″
05/22/2016 07:16 AM 50.9°F 50.9°F / 51.4°F 49.6°F / 56.8°F 29.78 inHg 42% 0.00″
05/22/2016 06:15 AM 50.2°F 50.2°F / 51.4°F 50.2°F / 56.8°F 29.77 inHg 42% 0.00″
05/22/2016 05:15 AM 52.3°F 52.0°F / 52.5°F 52.0°F / 56.8°F 29.77 inHg 36% 0.00″
05/22/2016 04:15 AM 53.1°F 52.5°F / 53.4°F 52.5°F / 56.8°F 29.76 inHg 32% 0.00″
05/22/2016 03:15 AM 54.3°F 53.6°F / 54.7°F 53.6°F / 56.8°F 29.76 inHg 27% 0.00″
05/22/2016 02:15 AM 54.1°F 54.1°F / 54.9°F 54.1°F / 56.8°F 29.76 inHg 27% 0.00″
05/22/2016 01:15 AM 54.9°F 54.9°F / 55.6°F 54.9°F / 56.8°F 29.76 inHg 27% 0.00″
05/22/2016 12:15 AM 56.5°F 56.1°F / 56.7°F 56.1°F / 56.7°F 29.75 inHg 28% 0.00″
05/21/2016 11:15 PM 58.1°F 58.1°F / 58.6°F 49.3°F / 76.5°F 29.76 inHg 26% 0.00″
05/21/2016 10:14 PM 59.4°F 59.4°F / 59.9°F 49.3°F / 76.5°F 29.76 inHg 23% 0.00″
05/21/2016 09:14 PM 60.6°F 60.3°F / 61.3°F 49.3°F / 76.5°F 29.74 inHg 22% 0.00″
05/21/2016 08:14 PM 63.7°F 63.7°F / 65.1°F 49.3°F / 76.5°F 29.74 inHg 19% 0.00″
05/21/2016 07:14 PM 69.8°F 69.6°F / 70.2°F 49.3°F / 76.5°F 29.73 inHg 12% 0.00″
05/21/2016 06:14 PM 73.8°F 73.8°F / 74.7°F 49.3°F / 76.5°F 29.72 inHg 11% 0.00″
05/21/2016 05:14 PM 74.8°F 74.8°F / 75.4°F 49.3°F / 76.5°F 29.72 inHg 9% 0.00″
05/21/2016 04:14 PM 76.1°F 75.6°F / 76.3°F 49.3°F / 76.3°F 29.73 inHg 12% 0.00″
05/21/2016 03:14 PM 75.4°F 74.5°F / 75.6°F 49.3°F / 75.6°F 29.75 inHg 12% 0.00″
05/21/2016 02:14 PM 74.5°F 73.0°F / 74.5°F 49.3°F / 74.5°F 29.78 inHg 13% 0.00″
05/21/2016 01:14 PM 73.0°F 72.1°F / 73.0°F 49.3°F / 73.0°F 29.80 inHg 13% 0.00″
05/21/2016 12:14 PM 71.1°F 69.3°F / 71.1°F 49.3°F / 71.1°F 29.81 inHg 15% 0.00″
05/21/2016 11:14 AM 69.3°F 67.6°F / 69.3°F 49.3°F / 69.3°F 29.82 inHg 20% 0.00″
05/21/2016 10:14 AM 67.5°F 67.3°F / 67.6°F 49.3°F / 67.6°F 29.82 inHg 17% 0.00″
05/21/2016 09:14 AM 64.2°F 63.5°F / 64.2°F 49.3°F / 64.2°F 29.82 inHg 19% 0.00″
05/21/2016 08:14 AM 56.1°F 54.7°F / 56.1°F 49.3°F / 63.1°F 29.82 inHg 36% 0.00″
05/21/2016 07:14 AM 50.7°F 50.7°F / 52.0°F 49.3°F / 63.1°F 29.80 inHg 41% 0.00″
05/21/2016 05:13 AM 53.8°F 53.4°F / 53.8°F 53.4°F / 63.1°F 29.76 inHg 34% 0.00″
05/21/2016 04:13 AM 54.9°F 54.9°F / 55.0°F 54.7°F / 63.1°F 29.75 inHg 38% 0.00″
05/21/2016 03:13 AM 55.9°F 55.9°F / 57.0°F 55.9°F / 63.1°F 29.74 inHg 49% 0.00″
05/21/2016 02:13 AM 60.3°F 60.3°F / 61.0°F 60.3°F / 63.1°F 29.74 inHg 44% 0.00″
05/21/2016 01:13 AM 62.4°F 62.2°F / 62.6°F 62.1°F / 63.1°F 29.75 inHg 37% 0.00″
05/21/2016 12:13 AM 62.4°F 62.1°F / 62.8°F 62.1°F / 62.8°F 29.76 inHg 36% 0.00″
05/20/2016 11:13 PM 60.1°F 59.9°F / 60.3°F 48.4°F / 74.3°F 29.77 inHg 35% 0.00″
05/20/2016 10:13 PM 59.9°F 59.9°F / 60.1°F 48.4°F / 74.3°F 29.77 inHg 34% 0.00″
05/20/2016 09:13 PM 61.0°F 61.0°F / 61.3°F 48.4°F / 74.3°F 29.77 inHg 33% 0.00″
05/20/2016 08:13 PM 63.7°F 63.7°F / 66.6°F 48.4°F / 74.3°F 29.76 inHg 29% 0.00″
05/20/2016 07:12 PM 70.9°F 70.9°F / 71.1°F 48.4°F / 74.3°F 29.75 inHg 22% 0.00″
05/20/2016 06:12 PM 73.0°F 72.9°F / 73.2°F 48.4°F / 74.3°F 29.74 inHg 24% 0.00″
05/20/2016 05:12 PM 73.9°F 73.2°F / 74.1°F 48.4°F / 74.3°F 29.75 inHg 23% 0.00″
05/20/2016 04:12 PM 73.4°F 72.7°F / 73.6°F 48.4°F / 73.8°F 29.77 inHg 23% 0.00″
05/20/2016 03:12 PM 72.1°F 72.0°F / 72.7°F 48.4°F / 73.6°F 29.79 inHg 23% 0.00″
05/20/2016 02:12 PM 71.6°F 70.5°F / 72.1°F 48.4°F / 72.3°F 29.81 inHg 26% 0.00″
05/20/2016 01:12 PM 69.6°F 69.6°F / 70.7°F 48.4°F / 71.1°F 29.83 inHg 29% 0.00″
05/20/2016 12:12 PM 67.3°F 66.7°F / 67.5°F 48.4°F / 68.2°F 29.85 inHg 30% 0.00″
05/20/2016 11:12 AM 66.7°F 66.6°F / 66.9°F 48.4°F / 67.1°F 29.85 inHg 35% 0.00″
05/20/2016 10:12 AM 64.8°F 64.8°F / 65.5°F 48.4°F / 65.5°F 29.86 inHg 38% 0.00″
05/20/2016 09:12 AM 63.1°F 62.2°F / 63.1°F 48.4°F / 63.1°F 29.87 inHg 42% 0.00″
05/20/2016 08:12 AM 59.2°F 57.4°F / 59.2°F 48.4°F / 59.2°F 29.87 inHg 45% 0.00″
05/20/2016 07:12 AM 52.9°F 52.3°F / 52.9°F 48.4°F / 52.9°F 29.86 inHg 56% 0.00″
05/20/2016 06:12 AM 52.2°F 51.4°F / 52.2°F 48.4°F / 52.2°F 29.85 inHg 54% 0.00″
05/20/2016 05:12 AM 48.6°F 48.4°F / 48.9°F 48.4°F / 51.3°F 29.84 inHg 63% 0.00″
05/20/2016 04:12 AM 49.5°F 49.5°F / 49.8°F 49.1°F / 51.3°F 29.83 inHg 61% 0.00″
05/20/2016 03:12 AM 49.5°F 49.5°F / 49.8°F 49.1°F / 51.3°F 29.83 inHg 61% 0.00″
05/20/2016 02:12 AM 49.3°F 49.3°F / 49.5°F 49.1°F / 51.3°F 29.83 inHg 62% 0.00″
05/20/2016 01:12 AM 50.4°F 50.2°F / 50.5°F 49.8°F / 51.3°F 29.85 inHg 62% 0.00″
05/20/2016 12:11 AM 50.5°F 50.5°F / 51.3°F 50.5°F / 51.3°F 29.86 inHg 60% 0.00″
05/19/2016 11:11 PM 52.7°F 52.5°F / 53.1°F 36.9°F / 63.0°F 29.87 inHg 58% 0.01″
05/19/2016 10:11 PM 52.2°F 51.4°F / 52.2°F 36.9°F / 63.0°F 29.88 inHg 62% 0.01″
05/19/2016 09:11 PM 52.0°F 52.0°F / 52.2°F 36.9°F / 63.0°F 29.86 inHg 62% 0.01″
05/19/2016 08:11 PM 54.1°F 54.1°F / 56.1°F 36.9°F / 63.0°F 29.86 inHg 60% 0.01″
05/19/2016 07:11 PM 60.1°F 60.1°F / 61.0°F 36.9°F / 63.0°F 29.86 inHg 48% 0.01″
05/19/2016 06:11 PM 61.0°F 61.0°F / 61.5°F 36.9°F / 63.0°F 29.86 inHg 45% 0.01″
05/19/2016 05:11 PM 62.1°F 62.1°F / 62.8°F 36.9°F / 63.0°F 29.87 inHg 42% 0.01″
05/19/2016 04:11 PM 60.6°F 59.4°F / 60.6°F 36.9°F / 62.1°F 29.88 inHg 48% 0.01″
05/19/2016 03:11 PM 61.2°F 59.9°F / 61.2°F 36.9°F / 61.2°F 29.90 inHg 48% 0.01″
05/19/2016 02:11 PM 59.7°F 58.5°F / 60.3°F 36.9°F / 60.3°F 29.91 inHg 52% 0.01″
05/19/2016 01:11 PM 57.4°F 57.0°F / 58.3°F 36.9°F / 58.3°F 29.93 inHg 62% 0.01″
05/19/2016 12:11 PM 56.1°F 55.4°F / 56.1°F 36.9°F / 56.1°F 29.94 inHg 62% 0.01″
05/19/2016 11:11 AM 54.0°F 53.8°F / 54.7°F 36.9°F / 54.7°F 29.96 inHg 66% 0.01″
05/19/2016 10:11 AM 51.4°F 50.7°F / 51.4°F 36.9°F / 51.4°F 29.96 inHg 73% 0.01″
05/19/2016 09:11 AM 50.4°F 49.8°F / 50.4°F 36.9°F / 50.4°F 29.96 inHg 76% 0.00″
05/19/2016 08:11 AM 45.0°F 42.6°F / 45.0°F 36.9°F / 45.0°F 29.95 inHg 87% 0.00″
05/19/2016 07:11 AM 38.7°F 38.3°F / 38.7°F 36.9°F / 42.4°F 29.95 inHg 93% 0.00″
05/19/2016 06:11 AM 37.4°F 37.0°F / 37.4°F 36.9°F / 42.4°F 29.93 inHg 94% 0.00″
05/19/2016 05:11 AM 37.2°F 37.2°F / 37.9°F 37.2°F / 42.4°F 29.93 inHg 92% 0.00″
05/19/2016 04:10 AM 37.2°F 37.2°F / 37.8°F 37.2°F / 42.4°F 29.94 inHg 93% 0.00″
05/19/2016 03:10 AM 37.9°F 37.9°F / 38.1°F 37.9°F / 42.4°F 29.93 inHg 94% 0.00″
05/19/2016 02:10 AM 40.3°F 38.8°F / 40.3°F 38.5°F / 42.4°F 29.95 inHg 94% 0.00″
05/19/2016 01:10 AM 39.4°F 39.4°F / 39.6°F 39.4°F / 42.4°F 29.97 inHg 94% 0.00″
05/19/2016 12:10 AM 42.3°F 42.3°F / 42.4°F 42.3°F / 42.4°F 29.96 inHg 91% 0.00″
05/18/2016 11:10 PM 44.2°F 44.2°F / 44.4°F 43.0°F / 58.8°F 29.96 inHg 91% 0.07″
05/18/2016 10:09 PM 43.0°F 43.0°F / 43.0°F 43.0°F / 58.8°F 29.97 inHg 95% 0.07″
05/18/2016 09:09 PM 45.0°F 45.0°F / 45.1°F 43.2°F / 58.8°F 29.98 inHg 94% 0.07″
05/18/2016 08:09 PM 43.9°F 43.3°F / 43.9°F 43.2°F / 58.8°F 29.96 inHg 92% 0.06″
05/18/2016 07:09 PM 44.4°F 44.4°F / 44.8°F 44.4°F / 58.8°F 29.92 inHg 86% 0.06″
05/18/2016 06:09 PM 46.0°F 46.0°F / 46.2°F 46.0°F / 58.8°F 29.93 inHg 91% 0.05″
05/18/2016 05:09 PM 48.7°F 48.6°F / 48.7°F 48.6°F / 58.8°F 29.91 inHg 76% 0.00″
05/18/2016 04:09 PM 52.2°F 52.2°F / 52.2°F 49.3°F / 58.8°F 29.89 inHg 70% 0.00″
05/18/2016 03:09 PM 54.0°F 54.0°F / 55.2°F 49.3°F / 58.8°F 29.89 inHg 67% 0.00″
05/18/2016 02:09 PM 54.3°F 53.8°F / 54.3°F 49.3°F / 55.8°F 29.91 inHg 70% 0.00″
05/18/2016 01:09 PM 53.4°F 53.1°F / 53.8°F 49.3°F / 55.8°F 29.94 inHg 76% 0.00″
05/18/2016 12:09 PM 55.6°F 53.2°F / 55.6°F 49.3°F / 55.6°F 29.96 inHg 74% 0.00″
05/18/2016 11:09 AM 52.0°F 52.0°F / 54.3°F 49.3°F / 54.5°F 29.99 inHg 75% 0.00″
05/18/2016 10:09 AM 49.8°F 49.8°F / 50.9°F 49.3°F / 51.8°F 29.99 inHg 78% 0.00″
05/18/2016 09:09 AM 49.3°F 49.3°F / 49.3°F 49.3°F / 49.3°F 0.00 inHg 80% 0.00″
05/17/2016 09:12 PM 44.4°F 44.4°F / 44.6°F 44.4°F / 59.7°F 29.88 inHg 81% 0.12″
05/17/2016 08:11 PM 44.6°F 44.6°F / 45.0°F 44.6°F / 59.7°F 29.83 inHg 82% 0.12″
05/17/2016 07:10 PM 48.9°F 48.9°F / 49.5°F 45.7°F / 59.7°F 29.79 inHg 76% 0.12″
05/17/2016 06:10 PM 45.7°F 45.7°F / 46.4°F 45.7°F / 59.7°F 29.81 inHg 85% 0.12″
05/17/2016 05:10 PM 48.6°F 48.6°F / 48.6°F 48.4°F / 59.7°F 0.00 inHg 83% 0.01″
05/17/2016 04:40 PM 49.6°F 49.6°F / 54.9°F 48.9°F / 59.7°F 29.73 inHg 69% 0.00″
05/17/2016 03:40 PM 55.2°F 55.2°F / 59.5°F 48.9°F / 59.7°F 29.72 inHg 59% 0.00″
05/17/2016 02:39 PM 56.8°F 55.2°F / 58.6°F 48.9°F / 59.7°F 29.74 inHg 58% 0.00″
05/17/2016 01:39 PM 57.2°F 54.0°F / 57.4°F 48.9°F / 59.7°F 29.75 inHg 58% 0.00″
05/17/2016 12:39 PM 55.6°F 50.7°F / 55.8°F 48.9°F / 59.7°F 29.76 inHg 64% 0.00″
05/17/2016 11:39 AM 49.6°F 49.6°F / 55.0°F 49.6°F / 59.7°F 29.80 inHg 78% 0.00″
05/17/2016 10:39 AM 58.8°F 56.5°F / 59.2°F 50.5°F / 59.7°F 29.75 inHg 53% 0.00″
05/17/2016 09:39 AM 58.3°F 56.1°F / 58.3°F 50.5°F / 59.7°F 29.74 inHg 53% 0.00″
05/17/2016 08:39 AM 57.2°F 53.8°F / 57.2°F 50.5°F / 59.7°F 29.73 inHg 50% 0.00″
05/17/2016 07:39 AM 53.6°F 52.2°F / 53.6°F 50.5°F / 59.7°F 29.71 inHg 50% 0.00″
05/17/2016 06:39 AM 52.0°F 51.4°F / 52.0°F 50.5°F / 59.7°F 29.68 inHg 47% 0.00″
05/17/2016 05:39 AM 52.9°F 52.9°F / 54.0°F 50.5°F / 59.7°F 29.67 inHg 46% 0.00″
05/17/2016 04:39 AM 53.2°F 52.9°F / 53.6°F 50.5°F / 59.7°F 29.70 inHg 43% 0.00″
05/17/2016 03:39 AM 53.6°F 50.5°F / 53.6°F 50.5°F / 59.7°F 29.66 inHg 31% 0.00″
05/17/2016 02:39 AM 50.5°F 50.5°F / 52.9°F 50.5°F / 59.7°F 29.65 inHg 34% 0.00″
05/17/2016 01:39 AM 55.6°F 55.4°F / 56.8°F 55.4°F / 59.7°F 29.65 inHg 29% 0.00″
05/17/2016 12:39 AM 57.9°F 57.9°F / 59.7°F 57.9°F / 59.7°F 29.65 inHg 30% 0.00″
05/16/2016 11:39 PM 59.2°F 58.8°F / 60.1°F 53.6°F / 72.0°F 29.65 inHg 25% 0.00″
05/16/2016 10:39 PM 60.1°F 60.1°F / 62.2°F 53.6°F / 72.0°F 29.64 inHg 28% 0.00″
05/16/2016 09:39 PM 62.8°F 61.9°F / 63.3°F 53.6°F / 72.0°F 29.62 inHg 25% 0.00″
05/16/2016 08:38 PM 64.2°F 64.2°F / 66.4°F 53.6°F / 72.0°F 29.60 inHg 27% 0.00″
05/16/2016 07:38 PM 68.2°F 68.2°F / 69.8°F 53.6°F / 72.0°F 29.58 inHg 22% 0.00″
05/16/2016 06:38 PM 70.5°F 70.3°F / 71.2°F 53.6°F / 72.0°F 29.58 inHg 19% 0.00″
05/16/2016 05:38 PM 71.2°F 69.8°F / 71.8°F 53.6°F / 72.0°F 29.58 inHg 20% 0.00″
05/16/2016 04:38 PM 71.4°F 70.5°F / 71.4°F 53.6°F / 71.8°F 29.58 inHg 21% 0.00″
05/16/2016 03:38 PM 70.5°F 69.8°F / 71.4°F 53.6°F / 71.4°F 29.60 inHg 19% 0.00″
05/16/2016 02:38 PM 69.3°F 68.7°F / 69.8°F 53.6°F / 69.8°F 29.63 inHg 20% 0.00″
05/16/2016 01:38 PM 68.2°F 67.3°F / 68.4°F 53.6°F / 68.4°F 29.64 inHg 17% 0.00″
05/16/2016 12:38 PM 66.7°F 65.8°F / 67.1°F 53.6°F / 67.1°F 29.67 inHg 17% 0.00″
05/16/2016 11:38 AM 65.1°F 63.9°F / 65.5°F 53.6°F / 65.5°F 29.69 inHg 15% 0.00″
05/16/2016 10:38 AM 62.6°F 61.7°F / 62.6°F 53.6°F / 62.6°F 29.68 inHg 18% 0.00″
05/16/2016 09:38 AM 61.2°F 60.3°F / 61.2°F 53.6°F / 61.2°F 29.70 inHg 16% 0.00″
05/16/2016 08:38 AM 60.1°F 60.1°F / 60.8°F 53.6°F / 61.0°F 29.70 inHg 20% 0.00″
05/16/2016 07:38 AM 59.9°F 54.1°F / 59.9°F 53.6°F / 61.0°F 29.69 inHg 26% 0.00″
05/16/2016 06:38 AM 55.6°F 55.0°F / 55.8°F 55.0°F / 61.0°F 29.67 inHg 34% 0.00″
05/16/2016 05:38 AM 56.5°F 56.5°F / 58.3°F 56.5°F / 61.0°F 29.66 inHg 25% 0.00″
05/16/2016 04:37 AM 58.6°F 57.7°F / 58.6°F 56.5°F / 61.0°F 29.65 inHg 22% 0.00″
05/16/2016 03:37 AM 57.6°F 57.0°F / 58.8°F 56.5°F / 61.0°F 29.65 inHg 22% 0.00″
05/16/2016 02:37 AM 59.2°F 56.5°F / 59.2°F 56.5°F / 61.0°F 29.65 inHg 23% 0.00″
05/16/2016 01:37 AM 58.5°F 56.5°F / 58.5°F 56.5°F / 61.0°F 29.66 inHg 32% 0.00″
05/16/2016 12:37 AM 59.5°F 59.2°F / 61.0°F 59.2°F / 61.0°F 29.66 inHg 32% 0.00″
05/15/2016 11:37 PM 60.4°F 59.5°F / 60.4°F 50.4°F / 72.5°F 29.67 inHg 33% 0.00″
05/15/2016 10:37 PM 60.4°F 59.5°F / 64.0°F 50.4°F / 72.5°F 29.66 inHg 38% 0.00″
05/15/2016 09:37 PM 63.1°F 61.0°F / 63.9°F 50.4°F / 72.5°F 29.65 inHg 30% 0.00″
05/15/2016 08:37 PM 61.2°F 61.2°F / 64.0°F 50.4°F / 72.5°F 29.64 inHg 40% 0.00″
05/15/2016 07:37 PM 67.5°F 67.5°F / 70.0°F 50.4°F / 72.5°F 29.64 inHg 34% 0.00″
05/15/2016 06:37 PM 70.9°F 70.9°F / 71.8°F 50.4°F / 72.5°F 29.64 inHg 29% 0.00″
05/15/2016 05:37 PM 71.1°F 70.2°F / 72.5°F 50.4°F / 72.5°F 29.65 inHg 29% 0.00″
05/15/2016 04:37 PM 70.3°F 69.1°F / 72.0°F 50.4°F / 72.0°F 29.65 inHg 36% 0.00″
05/15/2016 03:37 PM 68.5°F 68.5°F / 69.8°F 50.4°F / 70.7°F 29.68 inHg 36% 0.00″
05/15/2016 02:37 PM 69.8°F 69.3°F / 70.7°F 50.4°F / 70.7°F 29.71 inHg 40% 0.00″
05/15/2016 01:37 PM 67.8°F 67.8°F / 69.6°F 50.4°F / 69.6°F 29.74 inHg 40% 0.00″
05/15/2016 12:37 PM 65.1°F 64.0°F / 65.1°F 50.4°F / 65.7°F 29.76 inHg 57% 0.00″
05/15/2016 11:37 AM 65.5°F 63.9°F / 65.7°F 50.4°F / 65.7°F 29.78 inHg 58% 0.00″
05/15/2016 10:37 AM 64.0°F 61.2°F / 64.0°F 50.4°F / 64.0°F 29.80 inHg 52% 0.00″
05/15/2016 09:37 AM 62.1°F 58.6°F / 62.1°F 50.4°F / 62.1°F 29.80 inHg 57% 0.00″
05/15/2016 08:36 AM 56.5°F 53.2°F / 56.5°F 50.4°F / 56.5°F 29.81 inHg 74% 0.00″
05/15/2016 07:36 AM 52.3°F 50.5°F / 52.3°F 50.4°F / 52.9°F 29.83 inHg 88% 0.00″
05/15/2016 06:36 AM 50.7°F 50.4°F / 51.1°F 50.4°F / 52.9°F 29.80 inHg 89% 0.00″
05/15/2016 05:36 AM 50.5°F 50.5°F / 51.4°F 50.4°F / 52.9°F 29.78 inHg 87% 0.00″
05/15/2016 04:36 AM 52.3°F 52.2°F / 52.9°F 50.4°F / 52.9°F 29.79 inHg 84% 0.00″
05/15/2016 03:36 AM 52.3°F 51.1°F / 52.3°F 50.4°F / 52.7°F 29.81 inHg 80% 0.00″
05/15/2016 02:36 AM 50.5°F 50.5°F / 51.8°F 50.4°F / 52.7°F 29.81 inHg 85% 0.00″
05/15/2016 01:36 AM 51.3°F 51.3°F / 52.7°F 50.4°F / 52.7°F 29.82 inHg 80% 0.00″
05/15/2016 12:36 AM 51.8°F 50.4°F / 51.8°F 50.4°F / 51.8°F 29.81 inHg 76% 0.00″
05/14/2016 11:36 PM 50.5°F 49.8°F / 50.5°F 49.8°F / 74.5°F 29.85 inHg 87% 0.60″
05/14/2016 10:36 PM 50.4°F 50.4°F / 51.1°F 50.4°F / 74.5°F 29.86 inHg 92% 0.58″
05/14/2016 09:36 PM 50.5°F 50.4°F / 51.3°F 50.4°F / 74.5°F 29.88 inHg 94% 0.44″
05/14/2016 08:36 PM 59.0°F 59.0°F / 61.3°F 54.1°F / 74.5°F 29.81 inHg 76% 0.03″
05/14/2016 07:35 PM 63.1°F 63.1°F / 67.3°F 54.1°F / 74.5°F 29.76 inHg 46% 0.00″
05/14/2016 06:35 PM 69.4°F 69.4°F / 72.1°F 54.1°F / 74.5°F 29.75 inHg 33% 0.00″
05/14/2016 05:35 PM 71.2°F 70.0°F / 72.1°F 54.1°F / 74.5°F 29.73 inHg 26% 0.00″
05/14/2016 04:35 PM 71.4°F 70.0°F / 71.6°F 54.1°F / 74.5°F 29.74 inHg 29% 0.00″
05/14/2016 03:35 PM 72.9°F 71.4°F / 74.5°F 54.1°F / 74.5°F 29.78 inHg 34% 0.00″
05/14/2016 02:35 PM 72.3°F 69.8°F / 72.7°F 54.1°F / 72.7°F 29.80 inHg 34% 0.00″
05/14/2016 01:35 PM 69.6°F 68.0°F / 72.0°F 54.1°F / 72.0°F 29.83 inHg 43% 0.00″
05/14/2016 12:35 PM 69.4°F 66.9°F / 69.6°F 54.1°F / 69.6°F 29.84 inHg 45% 0.00″
05/14/2016 11:35 AM 63.9°F 63.3°F / 65.3°F 54.1°F / 65.3°F 29.87 inHg 53% 0.00″
05/14/2016 10:35 AM 62.8°F 62.1°F / 63.3°F 54.1°F / 63.3°F 29.89 inHg 54% 0.00″
05/14/2016 09:35 AM 61.2°F 58.3°F / 61.2°F 54.1°F / 61.7°F 29.90 inHg 52% 0.00″
05/14/2016 08:34 AM 54.3°F 54.1°F / 57.2°F 54.1°F / 61.7°F 29.85 inHg 68% 0.00″
05/14/2016 07:34 AM 60.1°F 58.6°F / 60.3°F 55.0°F / 61.7°F 29.88 inHg 46% 0.00″
05/14/2016 06:34 AM 57.7°F 57.6°F / 58.5°F 55.0°F / 61.7°F 29.86 inHg 52% 0.00″
05/14/2016 05:34 AM 55.9°F 55.0°F / 56.7°F 55.0°F / 61.7°F 29.84 inHg 50% 0.00″
05/14/2016 04:34 AM 58.6°F 57.2°F / 58.6°F 57.2°F / 61.7°F 29.84 inHg 45% 0.00″
05/14/2016 03:34 AM 59.2°F 58.1°F / 59.4°F 58.1°F / 61.7°F 29.84 inHg 45% 0.00″
05/14/2016 02:34 AM 59.5°F 59.2°F / 59.9°F 59.2°F / 61.7°F 29.85 inHg 46% 0.00″
05/14/2016 01:33 AM 60.4°F 59.7°F / 60.4°F 59.7°F / 61.7°F 29.87 inHg 46% 0.00″
05/14/2016 12:33 AM 61.3°F 60.3°F / 61.7°F 60.3°F / 61.7°F 29.88 inHg 43% 0.00″
05/13/2016 11:33 PM 62.6°F 57.7°F / 62.6°F 48.7°F / 77.7°F 29.87 inHg 33% 0.00″
05/13/2016 10:33 PM 59.7°F 59.7°F / 64.2°F 48.7°F / 77.7°F 29.88 inHg 37% 0.00″
05/13/2016 09:33 PM 63.9°F 61.7°F / 63.9°F 48.7°F / 77.7°F 29.88 inHg 32% 0.00″
05/13/2016 08:33 PM 64.9°F 64.8°F / 66.7°F 48.7°F / 77.7°F 29.87 inHg 31% 0.00″
05/13/2016 07:33 PM 71.1°F 71.1°F / 74.1°F 48.7°F / 77.7°F 29.86 inHg 26% 0.00″
05/13/2016 06:33 PM 75.0°F 75.0°F / 77.5°F 48.7°F / 77.7°F 29.86 inHg 18% 0.00″
05/13/2016 05:33 PM 77.5°F 76.6°F / 77.7°F 48.7°F / 77.7°F 29.88 inHg 18% 0.00″
05/13/2016 04:33 PM 76.8°F 75.7°F / 77.4°F 48.7°F / 77.4°F 29.88 inHg 20% 0.00″
05/13/2016 03:33 PM 76.1°F 75.4°F / 77.4°F 48.7°F / 77.4°F 29.90 inHg 24% 0.00″
05/13/2016 02:33 PM 75.9°F 73.9°F / 76.1°F 48.7°F / 76.1°F 29.92 inHg 22% 0.00″
05/13/2016 01:33 PM 74.7°F 71.8°F / 75.7°F 48.7°F / 75.7°F 29.94 inHg 27% 0.00″
05/13/2016 11:32 AM 67.8°F 66.7°F / 68.5°F 48.7°F / 68.5°F 30.00 inHg 44% 0.00″
05/13/2016 10:32 AM 67.3°F 64.9°F / 67.5°F 48.7°F / 67.5°F 30.01 inHg 41% 0.00″
05/13/2016 09:32 AM 64.4°F 63.3°F / 64.4°F 48.7°F / 64.4°F 30.01 inHg 43% 0.00″
05/13/2016 08:32 AM 61.5°F 54.9°F / 61.5°F 48.7°F / 61.5°F 30.01 inHg 43% 0.00″
05/13/2016 07:32 AM 52.2°F 49.8°F / 52.2°F 48.7°F / 57.7°F 30.01 inHg 56% 0.00″
05/13/2016 06:32 AM 49.8°F 48.7°F / 49.8°F 48.7°F / 57.7°F 30.00 inHg 57% 0.00″
05/13/2016 05:32 AM 49.6°F 49.5°F / 50.2°F 49.5°F / 57.7°F 29.99 inHg 56% 0.00″
05/13/2016 04:32 AM 50.4°F 50.4°F / 51.1°F 50.4°F / 57.7°F 29.98 inHg 53% 0.00″
05/13/2016 03:32 AM 51.4°F 51.4°F / 53.2°F 51.4°F / 57.7°F 29.96 inHg 53% 0.00″
05/13/2016 02:32 AM 53.4°F 53.4°F / 56.5°F 53.4°F / 57.7°F 29.96 inHg 51% 0.00″
05/13/2016 01:32 AM 55.2°F 55.2°F / 57.4°F 55.2°F / 57.7°F 29.97 inHg 51% 0.00″
05/13/2016 12:32 AM 57.6°F 57.4°F / 57.6°F 57.4°F / 57.6°F 29.97 inHg 53% 0.00″
05/12/2016 11:32 PM 57.4°F 57.4°F / 57.6°F 49.1°F / 75.0°F 29.98 inHg 63% 0.00″
05/12/2016 10:31 PM 57.7°F 57.7°F / 57.9°F 49.1°F / 75.0°F 29.98 inHg 60% 0.00″
05/12/2016 09:31 PM 57.9°F 57.9°F / 59.0°F 49.1°F / 75.0°F 29.97 inHg 60% 0.00″
05/12/2016 08:31 PM 60.3°F 60.3°F / 63.3°F 49.1°F / 75.0°F 29.96 inHg 55% 0.00″
05/12/2016 07:31 PM 69.3°F 69.3°F / 71.2°F 49.1°F / 75.0°F 29.94 inHg 31% 0.00″
05/12/2016 06:31 PM 71.1°F 70.9°F / 72.1°F 49.1°F / 75.0°F 29.94 inHg 29% 0.00″
05/12/2016 05:31 PM 73.6°F 70.5°F / 74.8°F 49.1°F / 75.0°F 29.95 inHg 23% 0.00″
05/12/2016 04:31 PM 73.6°F 72.3°F / 74.5°F 49.1°F / 74.5°F 29.96 inHg 20% 0.00″
05/12/2016 03:31 PM 74.1°F 71.4°F / 74.1°F 49.1°F / 74.1°F 29.97 inHg 22% 0.00″
05/12/2016 02:31 PM 73.8°F 70.9°F / 73.8°F 49.1°F / 73.8°F 29.97 inHg 24% 0.00″
05/12/2016 01:31 PM 70.0°F 67.8°F / 70.0°F 49.1°F / 70.0°F 29.99 inHg 27% 0.00″
05/12/2016 12:31 PM 68.7°F 67.8°F / 69.1°F 49.1°F / 69.1°F 29.99 inHg 28% 0.00″
05/12/2016 11:31 AM 66.9°F 66.6°F / 67.5°F 49.1°F / 67.5°F 29.98 inHg 41% 0.00″
05/12/2016 10:31 AM 65.7°F 64.2°F / 65.7°F 49.1°F / 65.7°F 29.98 inHg 45% 0.00″
05/12/2016 09:31 AM 61.7°F 58.3°F / 61.7°F 49.1°F / 61.7°F 29.96 inHg 49% 0.00″
05/12/2016 08:31 AM 54.9°F 52.0°F / 54.9°F 49.1°F / 58.6°F 29.96 inHg 60% 0.00″
05/12/2016 07:31 AM 50.4°F 49.1°F / 50.4°F 49.1°F / 58.6°F 29.95 inHg 69% 0.00″
05/12/2016 06:31 AM 51.4°F 51.4°F / 52.5°F 50.9°F / 58.6°F 29.92 inHg 56% 0.00″
05/12/2016 05:31 AM 53.1°F 53.1°F / 54.1°F 50.9°F / 58.6°F 29.92 inHg 51% 0.00″
05/12/2016 04:31 AM 55.6°F 55.6°F / 57.0°F 50.9°F / 58.6°F 29.91 inHg 32% 0.00″
05/12/2016 03:31 AM 54.0°F 50.9°F / 54.0°F 50.9°F / 58.6°F 29.91 inHg 24% 0.00″
05/12/2016 02:31 AM 51.4°F 51.4°F / 55.9°F 51.4°F / 58.6°F 29.91 inHg 26% 0.00″
05/12/2016 01:31 AM 54.7°F 54.7°F / 57.6°F 54.7°F / 58.6°F 29.92 inHg 23% 0.00″
05/12/2016 12:30 AM 57.9°F 57.7°F / 58.6°F 57.7°F / 58.6°F 29.92 inHg 20% 0.00″
05/11/2016 11:30 PM 57.6°F 56.7°F / 57.6°F 46.9°F / 73.6°F 29.91 inHg 22% 0.00″
05/11/2016 10:30 PM 56.7°F 56.5°F / 59.4°F 46.9°F / 73.6°F 29.91 inHg 23% 0.00″
05/11/2016 09:30 PM 57.7°F 56.7°F / 57.7°F 46.9°F / 73.6°F 29.90 inHg 21% 0.00″
05/11/2016 08:30 PM 62.1°F 62.1°F / 63.9°F 46.9°F / 73.6°F 29.87 inHg 19% 0.00″
05/11/2016 07:30 PM 69.4°F 69.4°F / 70.9°F 46.9°F / 73.6°F 29.84 inHg 14% 0.00″
05/11/2016 06:30 PM 71.2°F 71.2°F / 72.1°F 46.9°F / 73.6°F 29.83 inHg 16% 0.00″
05/11/2016 05:30 PM 72.7°F 72.0°F / 73.6°F 46.9°F / 73.6°F 29.83 inHg 14% 0.00″
05/11/2016 04:30 PM 72.0°F 71.4°F / 73.6°F 46.9°F / 73.6°F 29.84 inHg 15% 0.00″
05/11/2016 03:30 PM 71.4°F 69.1°F / 71.4°F 46.9°F / 72.1°F 29.86 inHg 17% 0.00″
05/11/2016 02:30 PM 69.1°F 68.5°F / 71.6°F 46.9°F / 72.1°F 29.86 inHg 18% 0.00″
05/11/2016 01:30 PM 70.0°F 70.0°F / 72.0°F 46.9°F / 72.0°F 29.87 inHg 19% 0.00″
05/11/2016 12:29 PM 69.4°F 68.5°F / 70.2°F 46.9°F / 70.2°F 29.88 inHg 21% 0.00″
05/11/2016 11:29 AM 67.8°F 66.9°F / 68.5°F 46.9°F / 68.5°F 29.88 inHg 21% 0.00″
05/11/2016 10:29 AM 66.4°F 64.8°F / 66.6°F 46.9°F / 66.6°F 29.89 inHg 21% 0.00″
05/11/2016 09:29 AM 63.7°F 60.8°F / 63.7°F 46.9°F / 63.7°F 29.88 inHg 23% 0.00″
05/11/2016 08:29 AM 57.0°F 52.5°F / 57.0°F 46.9°F / 57.0°F 29.88 inHg 31% 0.00″
05/11/2016 07:29 AM 48.7°F 47.8°F / 48.7°F 46.9°F / 54.7°F 29.88 inHg 40% 0.00″
05/11/2016 05:29 AM 48.6°F 48.0°F / 49.8°F 48.0°F / 54.7°F 29.84 inHg 35% 0.00″
05/11/2016 04:29 AM 49.1°F 49.1°F / 50.0°F 49.1°F / 54.7°F 29.83 inHg 34% 0.00″
05/11/2016 03:29 AM 51.3°F 51.3°F / 53.4°F 51.1°F / 54.7°F 29.82 inHg 31% 0.00″
05/11/2016 02:29 AM 52.2°F 52.0°F / 52.5°F 52.0°F / 54.7°F 29.82 inHg 29% 0.00″
05/11/2016 01:29 AM 53.8°F 53.4°F / 54.0°F 52.9°F / 54.7°F 29.82 inHg 28% 0.00″
05/11/2016 12:29 AM 54.3°F 54.1°F / 54.7°F 54.1°F / 54.7°F 29.82 inHg 26% 0.00″
05/10/2016 11:29 PM 56.7°F 56.1°F / 57.4°F 45.1°F / 72.7°F 29.82 inHg 24% 0.00″
05/10/2016 10:29 PM 60.3°F 60.3°F / 61.3°F 45.1°F / 72.7°F 29.81 inHg 20% 0.00″
05/10/2016 09:29 PM 62.1°F 62.1°F / 62.8°F 45.1°F / 72.7°F 29.79 inHg 18% 0.00″
05/10/2016 08:29 PM 63.3°F 63.3°F / 64.4°F 45.1°F / 72.7°F 29.77 inHg 16% 0.00″
05/10/2016 07:29 PM 66.9°F 66.9°F / 68.7°F 45.1°F / 72.7°F 29.75 inHg 16% 0.00″
05/10/2016 06:29 PM 70.2°F 69.8°F / 70.7°F 45.1°F / 72.7°F 29.74 inHg 14% 0.00″
05/10/2016 05:29 PM 71.8°F 71.2°F / 72.1°F 45.1°F / 72.7°F 29.75 inHg 14% 0.00″
05/10/2016 04:29 PM 71.4°F 70.9°F / 72.3°F 45.1°F / 72.7°F 29.74 inHg 14% 0.00″
05/10/2016 03:29 PM 70.9°F 69.8°F / 72.7°F 45.1°F / 72.7°F 29.76 inHg 17% 0.00″
05/10/2016 02:29 PM 70.2°F 69.1°F / 70.3°F 45.1°F / 70.3°F 29.78 inHg 18% 0.00″
05/10/2016 01:29 PM 68.7°F 66.6°F / 68.7°F 45.1°F / 68.7°F 29.80 inHg 21% 0.00″
05/10/2016 12:29 PM 67.5°F 65.8°F / 67.8°F 45.1°F / 67.8°F 29.82 inHg 21% 0.00″
05/10/2016 11:29 AM 64.6°F 63.5°F / 65.5°F 45.1°F / 65.5°F 29.82 inHg 22% 0.00″
05/10/2016 10:29 AM 63.1°F 61.9°F / 63.1°F 45.1°F / 63.1°F 29.82 inHg 28% 0.00″
05/10/2016 09:29 AM 61.2°F 60.1°F / 61.2°F 45.1°F / 61.2°F 29.82 inHg 31% 0.00″
05/10/2016 08:29 AM 56.1°F 50.5°F / 56.1°F 45.1°F / 56.1°F 29.82 inHg 38% 0.00″
05/10/2016 07:29 AM 46.8°F 45.3°F / 46.8°F 45.1°F / 54.1°F 29.82 inHg 52% 0.00″
05/10/2016 06:29 AM 46.6°F 46.4°F / 48.6°F 46.0°F / 54.1°F 29.81 inHg 49% 0.00″
05/10/2016 05:28 AM 47.7°F 46.2°F / 47.7°F 46.2°F / 54.1°F 29.79 inHg 46% 0.00″
05/10/2016 04:28 AM 46.8°F 46.8°F / 47.5°F 46.8°F / 54.1°F 29.78 inHg 48% 0.00″
05/10/2016 03:28 AM 48.2°F 47.8°F / 48.4°F 47.8°F / 54.1°F 29.77 inHg 45% 0.00″
05/10/2016 02:28 AM 49.5°F 49.3°F / 49.8°F 49.3°F / 54.1°F 29.76 inHg 42% 0.00″
05/10/2016 01:28 AM 51.3°F 50.2°F / 51.3°F 50.2°F / 54.1°F 29.75 inHg 40% 0.00″
05/10/2016 12:28 AM 52.2°F 52.2°F / 54.1°F 52.2°F / 54.1°F 29.75 inHg 38% 0.00″
05/09/2016 11:28 PM 55.0°F 55.0°F / 55.8°F 40.8°F / 67.5°F 29.76 inHg 34% 0.00″
05/09/2016 10:28 PM 56.7°F 56.7°F / 58.3°F 40.8°F / 67.5°F 29.75 inHg 32% 0.00″
05/09/2016 09:28 PM 58.6°F 58.6°F / 59.5°F 40.8°F / 67.5°F 29.73 inHg 30% 0.00″
05/09/2016 08:28 PM 59.0°F 59.0°F / 60.6°F 40.8°F / 67.5°F 29.70 inHg 30% 0.00″
05/09/2016 07:28 PM 63.5°F 63.5°F / 64.9°F 40.8°F / 67.5°F 29.69 inHg 26% 0.00″
05/09/2016 06:28 PM 66.0°F 65.7°F / 67.3°F 40.8°F / 67.5°F 29.68 inHg 24% 0.00″
05/09/2016 05:28 PM 66.6°F 66.2°F / 67.5°F 40.8°F / 67.5°F 29.68 inHg 25% 0.00″
05/09/2016 04:28 PM 66.4°F 66.0°F / 67.1°F 40.8°F / 67.1°F 29.67 inHg 24% 0.00″
05/09/2016 03:28 PM 65.8°F 64.4°F / 66.4°F 40.8°F / 66.4°F 29.68 inHg 25% 0.00″
05/09/2016 02:28 PM 63.7°F 63.1°F / 64.0°F 40.8°F / 64.0°F 29.71 inHg 27% 0.00″
05/09/2016 01:28 PM 60.3°F 59.7°F / 60.8°F 40.8°F / 60.8°F 29.71 inHg 30% 0.00″
05/09/2016 12:28 PM 58.5°F 57.2°F / 58.6°F 40.8°F / 58.6°F 29.73 inHg 33% 0.00″
05/09/2016 11:28 AM 55.8°F 54.7°F / 55.8°F 40.8°F / 55.8°F 29.73 inHg 36% 0.00″
05/09/2016 10:28 AM 53.6°F 51.8°F / 53.6°F 40.8°F / 53.6°F 29.71 inHg 39% 0.00″
05/09/2016 09:28 AM 50.4°F 48.6°F / 50.4°F 40.8°F / 52.3°F 29.72 inHg 47% 0.00″
05/09/2016 08:28 AM 47.3°F 46.2°F / 47.3°F 40.8°F / 52.3°F 29.72 inHg 49% 0.00″
05/09/2016 07:28 AM 45.0°F 43.5°F / 45.0°F 40.8°F / 52.3°F 29.70 inHg 52% 0.00″
05/09/2016 06:27 AM 41.2°F 40.8°F / 41.4°F 40.8°F / 52.3°F 29.67 inHg 61% 0.00″
05/09/2016 05:27 AM 41.9°F 41.5°F / 41.9°F 41.4°F / 52.3°F 29.66 inHg 59% 0.00″
05/09/2016 04:27 AM 41.5°F 41.5°F / 43.0°F 41.5°F / 52.3°F 29.66 inHg 58% 0.00″
05/09/2016 03:27 AM 45.0°F 45.0°F / 46.2°F 45.0°F / 52.3°F 29.67 inHg 55% 0.00″
05/09/2016 02:27 AM 46.9°F 46.9°F / 47.8°F 46.9°F / 52.3°F 29.68 inHg 50% 0.00″
05/09/2016 01:27 AM 49.3°F 49.3°F / 50.5°F 49.3°F / 52.3°F 29.69 inHg 37% 0.00″
05/09/2016 12:27 AM 51.6°F 51.6°F / 52.3°F 51.6°F / 52.3°F 29.69 inHg 30% 0.00″
05/08/2016 11:27 PM 52.9°F 52.9°F / 53.1°F 44.8°F / 64.2°F 29.69 inHg 27% 0.00″
05/08/2016 10:27 PM 53.1°F 53.1°F / 53.4°F 44.8°F / 64.2°F 29.69 inHg 26% 0.00″
05/08/2016 09:27 PM 54.0°F 54.0°F / 54.3°F 44.8°F / 64.2°F 29.66 inHg 26% 0.00″
05/08/2016 08:26 PM 55.0°F 55.0°F / 55.8°F 44.8°F / 64.2°F 29.63 inHg 26% 0.00″
05/08/2016 07:26 PM 58.5°F 58.5°F / 59.7°F 44.8°F / 64.2°F 29.61 inHg 23% 0.00″
05/08/2016 06:26 PM 60.4°F 60.3°F / 61.5°F 44.8°F / 64.2°F 29.60 inHg 20% 0.00″
05/08/2016 05:26 PM 60.3°F 59.4°F / 63.1°F 44.8°F / 64.2°F 29.60 inHg 20% 0.00″
05/08/2016 04:26 PM 60.4°F 59.9°F / 61.3°F 44.8°F / 64.2°F 29.62 inHg 20% 0.00″
05/08/2016 03:26 PM 60.3°F 60.3°F / 63.9°F 44.8°F / 64.2°F 29.64 inHg 19% 0.00″
05/08/2016 02:26 PM 62.2°F 61.3°F / 62.2°F 44.8°F / 62.2°F 29.63 inHg 20% 0.00″
05/08/2016 01:26 PM 61.0°F 59.5°F / 61.0°F 44.8°F / 61.0°F 29.65 inHg 20% 0.00″
05/08/2016 12:26 PM 59.0°F 57.7°F / 59.0°F 44.8°F / 59.0°F 29.67 inHg 19% 0.00″
05/08/2016 11:26 AM 57.4°F 56.7°F / 58.1°F 44.8°F / 58.1°F 29.68 inHg 20% 0.00″
05/08/2016 10:26 AM 55.4°F 54.0°F / 55.4°F 44.8°F / 55.4°F 29.68 inHg 28% 0.00″
05/08/2016 09:26 AM 53.2°F 53.2°F / 53.4°F 44.8°F / 53.4°F 29.69 inHg 30% 0.00″
05/08/2016 08:26 AM 52.2°F 51.4°F / 52.3°F 44.8°F / 52.3°F 29.70 inHg 31% 0.00″
05/08/2016 07:26 AM 50.9°F 47.8°F / 50.9°F 44.8°F / 50.9°F 29.68 inHg 32% 0.00″
05/08/2016 06:26 AM 45.5°F 45.5°F / 47.7°F 44.8°F / 47.8°F 29.67 inHg 28% 0.00″
05/08/2016 05:26 AM 45.1°F 45.1°F / 46.6°F 44.8°F / 47.8°F 29.68 inHg 26% 0.00″
05/08/2016 04:26 AM 45.3°F 44.8°F / 45.9°F 44.8°F / 47.8°F 29.68 inHg 23% 0.00″
05/08/2016 03:26 AM 45.7°F 45.5°F / 45.9°F 45.5°F / 47.8°F 29.68 inHg 25% 0.00″
05/08/2016 02:26 AM 47.5°F 46.8°F / 47.7°F 45.5°F / 47.8°F 29.69 inHg 24% 0.00″
05/08/2016 01:25 AM 46.9°F 46.9°F / 47.8°F 45.5°F / 47.8°F 29.69 inHg 25% 0.00″
05/08/2016 12:25 AM 45.5°F 45.5°F / 46.0°F 45.5°F / 46.0°F 29.69 inHg 24% 0.00″
05/07/2016 11:25 PM 46.6°F 46.4°F / 46.9°F 46.4°F / 67.1°F 29.70 inHg 24% 0.00″
05/07/2016 10:25 PM 48.6°F 47.8°F / 48.6°F 46.8°F / 67.1°F 29.69 inHg 22% 0.00″
05/07/2016 09:25 PM 48.9°F 48.7°F / 51.6°F 46.8°F / 67.1°F 29.67 inHg 23% 0.00″
05/07/2016 08:25 PM 55.2°F 55.2°F / 57.9°F 46.8°F / 67.1°F 29.65 inHg 19% 0.00″
05/07/2016 07:25 PM 61.0°F 61.0°F / 62.6°F 46.8°F / 67.1°F 29.63 inHg 15% 0.00″
05/07/2016 06:25 PM 64.2°F 64.2°F / 65.5°F 46.8°F / 67.1°F 29.64 inHg 15% 0.00″
05/07/2016 05:25 PM 65.5°F 65.5°F / 66.0°F 46.8°F / 67.1°F 29.64 inHg 11% 0.00″
05/07/2016 04:25 PM 65.8°F 64.9°F / 66.0°F 46.8°F / 66.6°F 29.65 inHg 12% 0.00″
05/07/2016 03:25 PM 65.1°F 64.6°F / 65.5°F 46.8°F / 66.2°F 29.67 inHg 12% 0.00″
05/07/2016 02:25 PM 64.2°F 64.0°F / 65.3°F 46.8°F / 65.3°F 29.67 inHg 13% 0.00″
05/07/2016 01:25 PM 63.3°F 63.0°F / 64.0°F 46.8°F / 64.0°F 29.68 inHg 13% 0.00″
05/07/2016 12:25 PM 62.6°F 61.2°F / 62.6°F 46.8°F / 62.6°F 29.68 inHg 15% 0.00″
05/07/2016 11:25 AM 60.3°F 59.2°F / 60.6°F 46.8°F / 60.6°F 29.68 inHg 20% 0.00″
05/07/2016 10:25 AM 58.6°F 58.3°F / 58.8°F 46.8°F / 58.8°F 29.69 inHg 22% 0.00″
05/07/2016 09:25 AM 55.8°F 55.2°F / 55.9°F 46.8°F / 57.6°F 29.68 inHg 33% 0.00″
05/07/2016 08:25 AM 54.3°F 53.1°F / 54.3°F 46.8°F / 57.6°F 29.66 inHg 34% 0.00″
05/07/2016 07:25 AM 46.8°F 46.8°F / 47.7°F 46.8°F / 57.6°F 29.65 inHg 41% 0.00″
05/07/2016 06:25 AM 46.9°F 46.8°F / 47.8°F 46.8°F / 57.6°F 29.62 inHg 39% 0.00″
05/07/2016 05:25 AM 47.5°F 47.5°F / 48.6°F 47.5°F / 57.6°F 29.61 inHg 34% 0.00″
05/07/2016 04:25 AM 49.5°F 49.5°F / 50.2°F 49.5°F / 57.6°F 29.59 inHg 32% 0.00″
05/07/2016 03:25 AM 54.0°F 54.0°F / 56.5°F 53.4°F / 57.6°F 29.57 inHg 27% 0.00″
05/07/2016 02:25 AM 54.1°F 53.4°F / 54.3°F 53.4°F / 57.6°F 29.58 inHg 25% 0.00″
05/07/2016 01:25 AM 54.9°F 54.3°F / 56.5°F 54.3°F / 57.6°F 29.59 inHg 22% 0.00″
05/07/2016 12:25 AM 56.1°F 56.1°F / 57.6°F 56.1°F / 57.6°F 29.59 inHg 20% 0.00″
05/06/2016 11:24 PM 59.9°F 59.7°F / 60.3°F 58.3°F / 79.5°F 29.58 inHg 17% 0.00″
05/06/2016 10:24 PM 61.2°F 61.2°F / 62.6°F 58.3°F / 79.5°F 29.58 inHg 18% 0.00″
05/06/2016 09:24 PM 64.2°F 63.3°F / 64.4°F 58.3°F / 79.5°F 29.57 inHg 16% 0.00″
05/06/2016 08:24 PM 68.2°F 68.2°F / 69.3°F 58.3°F / 79.5°F 29.55 inHg 14% 0.00″
05/06/2016 07:24 PM 72.0°F 72.0°F / 73.4°F 58.3°F / 79.5°F 29.53 inHg 12% 0.00″
05/06/2016 06:24 PM 75.6°F 75.6°F / 77.4°F 58.3°F / 79.5°F 29.53 inHg 9% 0.00″
05/06/2016 05:24 PM 78.4°F 78.1°F / 78.6°F 58.3°F / 79.5°F 29.54 inHg 10% 0.00″
05/06/2016 04:24 PM 79.2°F 77.7°F / 79.2°F 58.3°F / 79.2°F 29.56 inHg 10% 0.00″
05/06/2016 03:24 PM 78.3°F 77.0°F / 78.4°F 58.3°F / 78.4°F 29.59 inHg 11% 0.00″
05/06/2016 02:24 PM 76.8°F 76.1°F / 77.4°F 58.3°F / 77.4°F 29.62 inHg 12% 0.00″
05/06/2016 01:24 PM 75.7°F 75.0°F / 75.7°F 58.3°F / 75.7°F 29.63 inHg 12% 0.00″
05/06/2016 12:23 PM 74.7°F 73.0°F / 74.7°F 58.3°F / 74.7°F 29.66 inHg 15% 0.00″
05/06/2016 11:23 AM 71.8°F 70.5°F / 72.7°F 58.3°F / 72.7°F 29.68 inHg 15% 0.00″
05/06/2016 10:23 AM 70.7°F 69.8°F / 70.7°F 58.3°F / 70.7°F 29.68 inHg 15% 0.00″
05/06/2016 09:23 AM 68.0°F 66.9°F / 68.2°F 58.3°F / 68.2°F 29.68 inHg 15% 0.00″
05/06/2016 08:23 AM 65.3°F 64.0°F / 65.3°F 58.3°F / 65.3°F 29.68 inHg 21% 0.00″
05/06/2016 07:23 AM 59.7°F 58.3°F / 59.7°F 58.3°F / 63.1°F 29.68 inHg 30% 0.00″
05/06/2016 06:23 AM 59.5°F 59.5°F / 60.4°F 59.5°F / 63.1°F 29.68 inHg 31% 0.00″
05/06/2016 05:23 AM 61.3°F 61.3°F / 61.9°F 61.3°F / 63.1°F 29.68 inHg 29% 0.00″
05/06/2016 04:23 AM 62.2°F 62.2°F / 62.4°F 61.5°F / 63.1°F 29.69 inHg 28% 0.00″
05/06/2016 03:23 AM 62.8°F 62.8°F / 63.0°F 61.5°F / 63.1°F 29.70 inHg 26% 0.00″
05/06/2016 02:23 AM 63.1°F 62.2°F / 63.1°F 61.5°F / 63.1°F 29.71 inHg 26% 0.00″
05/06/2016 01:23 AM 62.6°F 62.2°F / 62.6°F 61.5°F / 62.6°F 29.73 inHg 25% 0.00″
05/06/2016 12:23 AM 61.5°F 61.5°F / 62.1°F 61.5°F / 62.1°F 29.76 inHg 24% 0.00″
05/05/2016 11:22 PM 62.2°F 62.2°F / 62.6°F 46.9°F / 76.5°F 29.77 inHg 22% 0.00″
05/05/2016 10:22 PM 63.0°F 63.0°F / 63.9°F 46.9°F / 76.5°F 29.77 inHg 21% 0.00″
05/05/2016 09:22 PM 63.9°F 63.7°F / 64.0°F 46.9°F / 76.5°F 29.76 inHg 24% 0.00″
05/05/2016 08:22 PM 64.9°F 64.9°F / 66.4°F 46.9°F / 76.5°F 29.76 inHg 22% 0.00″
05/05/2016 07:22 PM 71.2°F 71.2°F / 72.7°F 46.9°F / 76.5°F 29.77 inHg 19% 0.00″
05/05/2016 06:22 PM 74.8°F 74.7°F / 75.6°F 46.9°F / 76.5°F 29.76 inHg 18% 0.00″
05/05/2016 05:22 PM 73.8°F 73.4°F / 76.5°F 46.9°F / 76.5°F 29.78 inHg 18% 0.00″
05/05/2016 04:22 PM 75.7°F 74.8°F / 76.1°F 46.9°F / 76.1°F 29.81 inHg 16% 0.00″
05/05/2016 03:22 PM 74.8°F 72.7°F / 75.2°F 46.9°F / 75.2°F 29.84 inHg 16% 0.00″
05/05/2016 02:22 PM 72.1°F 72.1°F / 73.9°F 46.9°F / 74.5°F 29.87 inHg 17% 0.00″
05/05/2016 01:22 PM 72.9°F 72.0°F / 72.9°F 46.9°F / 72.9°F 29.89 inHg 16% 0.00″
05/05/2016 12:22 PM 70.9°F 69.1°F / 71.1°F 46.9°F / 71.1°F 29.93 inHg 19% 0.00″
05/05/2016 11:22 AM 66.9°F 66.0°F / 67.8°F 46.9°F / 67.8°F 29.94 inHg 20% 0.00″
05/05/2016 10:22 AM 66.4°F 65.8°F / 66.9°F 46.9°F / 66.9°F 29.96 inHg 21% 0.00″
05/05/2016 09:21 AM 61.7°F 60.4°F / 61.7°F 46.9°F / 61.7°F 29.97 inHg 25% 0.00″
05/05/2016 08:21 AM 55.6°F 53.1°F / 55.6°F 46.9°F / 56.1°F 29.97 inHg 35% 0.00″
05/05/2016 07:21 AM 53.2°F 51.6°F / 53.2°F 46.9°F / 56.1°F 29.96 inHg 30% 0.00″
05/05/2016 06:21 AM 48.9°F 47.1°F / 49.5°F 46.9°F / 56.1°F 29.95 inHg 33% 0.00″
05/05/2016 05:21 AM 50.4°F 48.2°F / 50.4°F 47.5°F / 56.1°F 29.95 inHg 31% 0.00″
05/05/2016 04:21 AM 51.4°F 47.5°F / 51.4°F 47.5°F / 56.1°F 29.94 inHg 30% 0.00″
05/05/2016 03:21 AM 52.3°F 50.9°F / 52.3°F 50.5°F / 56.1°F 29.94 inHg 29% 0.00″
05/05/2016 02:21 AM 52.0°F 52.0°F / 54.1°F 52.0°F / 56.1°F 29.95 inHg 29% 0.00″
05/05/2016 01:21 AM 55.9°F 55.8°F / 55.9°F 54.3°F / 55.9°F 29.97 inHg 26% 0.00″
05/05/2016 12:21 AM 55.0°F 54.3°F / 55.0°F 54.3°F / 55.0°F 29.99 inHg 26% 0.00″
05/04/2016 11:21 PM 55.8°F 55.8°F / 55.9°F 48.4°F / 71.8°F 29.99 inHg 27% 0.00″
05/04/2016 10:21 PM 56.1°F 56.1°F / 56.5°F 48.4°F / 71.8°F 29.99 inHg 26% 0.00″
05/04/2016 09:21 PM 56.5°F 55.9°F / 56.7°F 48.4°F / 71.8°F 29.97 inHg 27% 0.00″
05/04/2016 08:21 PM 58.8°F 58.8°F / 61.5°F 48.4°F / 71.8°F 29.95 inHg 24% 0.00″
05/04/2016 07:21 PM 67.3°F 66.9°F / 67.5°F 48.4°F / 71.8°F 29.94 inHg 20% 0.00″
05/04/2016 06:21 PM 69.8°F 68.9°F / 69.8°F 48.4°F / 71.8°F 29.93 inHg 20% 0.00″
05/04/2016 05:21 PM 69.8°F 69.6°F / 70.7°F 48.4°F / 71.8°F 29.94 inHg 20% 0.00″
05/04/2016 04:20 PM 70.7°F 69.1°F / 70.7°F 48.4°F / 70.9°F 29.95 inHg 25% 0.00″
05/04/2016 03:20 PM 69.1°F 69.1°F / 70.0°F 48.4°F / 70.3°F 29.97 inHg 23% 0.00″
05/04/2016 02:20 PM 68.2°F 66.9°F / 68.2°F 48.4°F / 68.2°F 30.01 inHg 23% 0.00″
05/04/2016 01:20 PM 65.8°F 64.4°F / 65.8°F 48.4°F / 65.8°F 30.04 inHg 26% 0.00″
05/04/2016 12:20 PM 63.9°F 62.1°F / 64.0°F 48.4°F / 64.0°F 30.05 inHg 29% 0.00″
05/04/2016 11:20 AM 60.4°F 59.5°F / 61.3°F 48.4°F / 61.3°F 30.07 inHg 36% 0.00″
05/04/2016 10:20 AM 58.5°F 57.7°F / 58.5°F 48.4°F / 58.5°F 30.07 inHg 38% 0.00″
05/04/2016 09:20 AM 56.1°F 54.9°F / 56.1°F 48.4°F / 56.1°F 30.07 inHg 38% 0.00″
05/04/2016 08:20 AM 52.3°F 48.7°F / 52.3°F 48.4°F / 52.3°F 30.07 inHg 43% 0.00″
05/04/2016 07:20 AM 49.1°F 49.1°F / 51.3°F 49.1°F / 51.6°F 30.05 inHg 43% 0.00″
05/04/2016 06:20 AM 50.5°F 50.2°F / 50.5°F 49.6°F / 51.6°F 30.04 inHg 42% 0.00″
05/04/2016 05:20 AM 49.8°F 49.6°F / 49.8°F 49.6°F / 51.6°F 30.04 inHg 44% 0.00″
05/04/2016 04:20 AM 49.8°F 49.6°F / 49.8°F 49.6°F / 51.6°F 30.04 inHg 45% 0.00″
05/04/2016 03:20 AM 50.2°F 50.2°F / 50.4°F 50.2°F / 51.6°F 30.04 inHg 44% 0.00″
05/04/2016 02:20 AM 50.5°F 50.4°F / 50.5°F 50.4°F / 51.6°F 30.05 inHg 45% 0.00″
05/04/2016 01:20 AM 51.3°F 51.1°F / 51.4°F 50.9°F / 51.6°F 30.06 inHg 45% 0.00″
05/04/2016 12:20 AM 51.4°F 51.4°F / 51.6°F 51.4°F / 51.6°F 30.06 inHg 46% 0.00″
05/03/2016 11:20 PM 52.2°F 52.2°F / 52.5°F 37.6°F / 67.6°F 30.06 inHg 46% 0.00″
05/03/2016 10:20 PM 53.8°F 53.6°F / 54.0°F 37.6°F / 67.6°F 30.05 inHg 44% 0.00″
05/03/2016 09:19 PM 54.5°F 54.5°F / 54.7°F 37.6°F / 67.6°F 30.03 inHg 44% 0.00″
05/03/2016 08:19 PM 55.9°F 55.9°F / 56.8°F 37.6°F / 67.6°F 30.01 inHg 40% 0.00″
05/03/2016 07:19 PM 61.7°F 61.7°F / 63.7°F 37.6°F / 67.6°F 29.99 inHg 33% 0.00″
05/03/2016 06:19 PM 65.7°F 65.5°F / 66.2°F 37.6°F / 67.6°F 29.98 inHg 22% 0.00″
05/03/2016 05:19 PM 67.1°F 65.5°F / 67.6°F 37.6°F / 67.6°F 29.98 inHg 19% 0.00″
05/03/2016 04:19 PM 65.7°F 65.1°F / 66.6°F 37.6°F / 66.9°F 29.98 inHg 23% 0.00″
05/03/2016 03:19 PM 64.6°F 61.2°F / 65.7°F 37.6°F / 65.7°F 30.00 inHg 26% 0.00″
05/03/2016 02:19 PM 64.0°F 63.0°F / 65.3°F 37.6°F / 65.3°F 30.01 inHg 27% 0.00″
05/03/2016 01:19 PM 63.1°F 62.4°F / 64.0°F 37.6°F / 64.0°F 30.02 inHg 28% 0.00″
05/03/2016 12:19 PM 61.2°F 60.1°F / 61.3°F 37.6°F / 61.3°F 30.04 inHg 32% 0.00″
05/03/2016 11:19 AM 57.7°F 57.7°F / 58.6°F 37.6°F / 58.6°F 30.05 inHg 34% 0.00″
05/03/2016 10:19 AM 55.6°F 54.1°F / 55.8°F 37.6°F / 55.8°F 30.06 inHg 39% 0.00″
05/03/2016 09:19 AM 53.2°F 53.1°F / 53.4°F 37.6°F / 53.4°F 30.06 inHg 40% 0.00″
05/03/2016 08:19 AM 47.7°F 44.4°F / 47.7°F 37.6°F / 47.7°F 30.06 inHg 52% 0.00″
05/03/2016 07:19 AM 43.3°F 41.7°F / 43.5°F 37.6°F / 45.0°F 30.05 inHg 54% 0.00″
05/03/2016 06:19 AM 41.5°F 40.5°F / 41.5°F 37.6°F / 45.0°F 30.04 inHg 57% 0.00″
05/03/2016 05:19 AM 37.8°F 37.6°F / 39.4°F 37.6°F / 45.0°F 30.03 inHg 64% 0.00″
05/03/2016 04:18 AM 37.9°F 37.9°F / 38.7°F 37.9°F / 45.0°F 30.03 inHg 62% 0.00″
05/03/2016 03:18 AM 39.4°F 39.0°F / 39.7°F 39.0°F / 45.0°F 30.04 inHg 60% 0.00″
05/03/2016 02:18 AM 39.4°F 39.4°F / 41.4°F 39.4°F / 45.0°F 30.05 inHg 58% 0.00″
05/03/2016 01:17 AM 42.8°F 42.3°F / 42.8°F 41.5°F / 45.0°F 30.07 inHg 51% 0.00″
05/03/2016 12:17 AM 42.3°F 42.3°F / 45.0°F 42.3°F / 45.0°F 30.09 inHg 53% 0.00″
05/02/2016 11:17 PM 45.1°F 45.1°F / 45.3°F 30.9°F / 59.2°F 30.09 inHg 52% 0.00″
05/02/2016 10:17 PM 46.2°F 46.2°F / 46.8°F 30.9°F / 59.2°F 30.10 inHg 54% 0.00″
05/02/2016 09:17 PM 47.7°F 46.8°F / 47.7°F 30.9°F / 59.2°F 30.10 inHg 51% 0.00″
05/02/2016 08:17 PM 48.2°F 48.0°F / 49.3°F 30.9°F / 59.2°F 30.08 inHg 47% 0.00″
05/02/2016 07:17 PM 55.0°F 54.9°F / 55.9°F 30.9°F / 59.2°F 30.08 inHg 39% 0.00″
05/02/2016 05:17 PM 58.3°F 57.9°F / 59.2°F 30.9°F / 59.2°F 30.08 inHg 33% 0.00″
05/02/2016 04:17 PM 58.5°F 57.9°F / 59.2°F 30.9°F / 59.2°F 30.09 inHg 39% 0.00″
05/02/2016 03:17 PM 57.0°F 57.0°F / 57.6°F 30.9°F / 57.6°F 30.11 inHg 41% 0.00″
05/02/2016 02:16 PM 55.6°F 54.1°F / 55.8°F 30.9°F / 55.8°F 30.14 inHg 44% 0.00″
05/02/2016 01:16 PM 53.2°F 51.8°F / 53.2°F 30.9°F / 53.2°F 30.16 inHg 46% 0.00″
05/02/2016 12:16 PM 50.5°F 48.4°F / 50.7°F 30.9°F / 50.7°F 30.19 inHg 50% 0.00″
05/02/2016 11:16 AM 48.0°F 47.8°F / 48.6°F 30.9°F / 48.6°F 30.20 inHg 55% 0.00″
05/02/2016 10:16 AM 44.2°F 43.2°F / 44.2°F 30.9°F / 44.2°F 30.21 inHg 62% 0.00″
05/02/2016 09:16 AM 41.5°F 40.8°F / 41.5°F 30.9°F / 41.5°F 30.21 inHg 65% 0.00″
05/02/2016 08:16 AM 38.1°F 35.6°F / 38.1°F 30.9°F / 38.1°F 30.20 inHg 72% 0.00″
05/02/2016 07:16 AM 33.3°F 33.3°F / 34.0°F 30.9°F / 35.8°F 30.19 inHg 78% 0.00″
05/02/2016 06:16 AM 31.1°F 30.9°F / 31.5°F 30.9°F / 35.8°F 30.15 inHg 79% 0.00″
05/02/2016 05:16 AM 31.6°F 31.6°F / 32.2°F 31.6°F / 35.8°F 30.13 inHg 77% 0.00″
05/02/2016 04:16 AM 34.9°F 34.3°F / 34.9°F 34.3°F / 35.8°F 30.12 inHg 70% 0.00″
05/02/2016 03:16 AM 35.2°F 35.1°F / 35.2°F 35.1°F / 35.8°F 30.11 inHg 70% 0.00″
05/02/2016 02:16 AM 35.4°F 35.4°F / 35.8°F 35.1°F / 35.8°F 30.09 inHg 69% 0.00″
05/02/2016 01:16 AM 35.1°F 35.1°F / 35.1°F 35.1°F / 35.6°F 30.10 inHg 71% 0.00″
05/02/2016 12:16 AM 35.2°F 35.2°F / 35.6°F 35.2°F / 35.6°F 30.10 inHg 70% 0.00″
05/01/2016 11:16 PM 36.0°F 35.8°F / 36.0°F 35.4°F / 54.1°F 30.07 inHg 69% 0.00″
05/01/2016 10:16 PM 35.8°F 35.8°F / 36.0°F 35.8°F / 54.1°F 30.06 inHg 70% 0.00″
05/01/2016 09:16 PM 36.1°F 36.1°F / 36.3°F 36.1°F / 54.1°F 30.02 inHg 69% 0.00″
05/01/2016 08:16 PM 37.8°F 37.8°F / 38.3°F 37.0°F / 54.1°F 29.98 inHg 68% 0.00″
05/01/2016 07:16 PM 42.3°F 42.3°F / 44.4°F 37.0°F / 54.1°F 29.93 inHg 61% 0.00″
05/01/2016 06:16 PM 47.3°F 47.1°F / 49.5°F 37.0°F / 54.1°F 29.91 inHg 57% 0.00″
05/01/2016 05:16 PM 50.7°F 50.0°F / 53.6°F 37.0°F / 54.1°F 29.88 inHg 53% 0.00″
05/01/2016 04:16 PM 48.0°F 48.0°F / 52.0°F 37.0°F / 54.1°F 29.86 inHg 52% 0.00″
05/01/2016 03:15 PM 49.3°F 48.0°F / 50.5°F 37.0°F / 54.1°F 29.85 inHg 53% 0.00″
05/01/2016 02:15 PM 48.6°F 47.3°F / 48.7°F 37.0°F / 54.1°F 29.87 inHg 52% 0.00″
05/01/2016 01:15 PM 47.3°F 46.8°F / 48.0°F 37.0°F / 54.1°F 29.87 inHg 54% 0.00″
05/01/2016 12:15 PM 45.1°F 43.9°F / 45.1°F 37.0°F / 54.1°F 29.88 inHg 57% 0.00″
05/01/2016 11:15 AM 43.9°F 43.2°F / 43.9°F 37.0°F / 54.1°F 29.89 inHg 60% 0.00″
05/01/2016 10:15 AM 42.8°F 41.2°F / 42.8°F 37.0°F / 54.1°F 29.88 inHg 65% 0.00″
05/01/2016 09:15 AM 39.0°F 39.0°F / 39.6°F 37.0°F / 54.1°F 29.86 inHg 70% 0.00″
05/01/2016 08:15 AM 38.3°F 37.2°F / 38.3°F 37.0°F / 54.1°F 29.84 inHg 73% 0.00″
05/01/2016 07:15 AM 37.2°F 37.2°F / 37.4°F 37.0°F / 54.1°F 29.81 inHg 76% 0.00″
05/01/2016 06:15 AM 37.6°F 37.6°F / 37.6°F 37.4°F / 54.1°F 29.76 inHg 77% 0.00″
05/01/2016 05:15 AM 37.8°F 37.8°F / 37.9°F 37.8°F / 54.1°F 29.72 inHg 79% 0.00″
05/01/2016 04:15 AM 39.4°F 39.4°F / 40.1°F 39.4°F / 54.1°F 29.71 inHg 80% 0.00″
05/01/2016 03:15 AM 41.4°F 41.4°F / 41.7°F 41.4°F / 54.1°F 29.69 inHg 78% 0.00″
05/01/2016 02:15 AM 43.3°F 43.3°F / 43.9°F 43.3°F / 54.1°F 29.70 inHg 72% 0.00″
05/01/2016 01:15 AM 49.5°F 49.5°F / 50.0°F 49.5°F / 54.1°F 29.70 inHg 49% 0.00″
05/01/2016 12:15 AM 52.7°F 52.7°F / 54.1°F 52.7°F / 54.1°F 29.71 inHg 32% 0.00″
04/30/2016 11:15 PM 54.7°F 54.7°F / 55.2°F 37.8°F / 63.1°F 29.71 inHg 24% 0.00″
04/30/2016 10:15 PM 53.2°F 52.9°F / 53.2°F 37.8°F / 63.1°F 29.72 inHg 26% 0.00″
04/30/2016 09:15 PM 50.7°F 50.7°F / 51.4°F 37.8°F / 63.1°F 29.70 inHg 29% 0.00″
04/30/2016 08:15 PM 52.2°F 52.2°F / 52.9°F 37.8°F / 63.1°F 29.68 inHg 29% 0.00″
04/30/2016 07:15 PM 58.6°F 58.6°F / 59.2°F 37.8°F / 63.1°F 29.66 inHg 25% 0.00″
04/30/2016 06:15 PM 59.5°F 59.4°F / 61.5°F 37.8°F / 63.1°F 29.66 inHg 25% 0.00″
04/30/2016 05:15 PM 61.7°F 60.1°F / 61.7°F 37.8°F / 63.1°F 29.66 inHg 25% 0.00″
04/30/2016 04:15 PM 61.5°F 61.0°F / 61.5°F 37.8°F / 61.9°F 29.66 inHg 27% 0.00″
04/30/2016 03:15 PM 59.5°F 56.5°F / 60.1°F 37.8°F / 60.1°F 29.68 inHg 28% 0.00″
04/30/2016 02:15 PM 57.9°F 57.4°F / 58.5°F 37.8°F / 59.0°F 29.71 inHg 28% 0.00″
04/30/2016 01:15 PM 56.1°F 56.1°F / 57.0°F 37.8°F / 57.0°F 29.72 inHg 28% 0.00″
04/30/2016 12:15 PM 55.0°F 54.9°F / 55.9°F 37.8°F / 55.9°F 29.73 inHg 33% 0.00″
04/30/2016 11:15 AM 52.5°F 52.3°F / 53.2°F 37.8°F / 53.2°F 29.73 inHg 37% 0.00″
04/30/2016 10:14 AM 51.1°F 49.8°F / 51.1°F 37.8°F / 51.1°F 29.75 inHg 43% 0.00″
04/30/2016 09:14 AM 49.3°F 48.2°F / 49.3°F 37.8°F / 49.3°F 29.76 inHg 45% 0.00″
04/30/2016 08:14 AM 46.8°F 45.3°F / 46.8°F 37.8°F / 47.7°F 29.76 inHg 49% 0.00″
04/30/2016 07:14 AM 39.6°F 39.2°F / 39.7°F 37.8°F / 47.7°F 29.75 inHg 61% 0.00″
04/30/2016 06:14 AM 39.9°F 39.0°F / 40.1°F 37.8°F / 47.7°F 29.73 inHg 59% 0.00″
04/30/2016 05:14 AM 38.8°F 38.1°F / 38.8°F 37.8°F / 47.7°F 29.72 inHg 64% 0.00″
04/30/2016 04:14 AM 38.7°F 38.7°F / 39.0°F 37.9°F / 47.7°F 29.70 inHg 65% 0.00″
04/30/2016 03:14 AM 38.1°F 38.1°F / 38.8°F 38.1°F / 47.7°F 29.70 inHg 61% 0.00″
04/30/2016 02:14 AM 42.1°F 41.5°F / 42.1°F 40.6°F / 47.7°F 29.70 inHg 55% 0.00″
04/30/2016 01:13 AM 44.1°F 44.1°F / 45.0°F 44.1°F / 47.7°F 29.70 inHg 49% 0.00″
04/30/2016 12:13 AM 47.7°F 47.5°F / 47.7°F 47.5°F / 47.7°F 29.72 inHg 44% 0.00″
04/29/2016 11:13 PM 48.7°F 48.7°F / 48.9°F 42.4°F / 59.5°F 29.73 inHg 40% 0.00″
04/29/2016 10:13 PM 49.3°F 49.3°F / 49.5°F 42.4°F / 59.5°F 29.73 inHg 38% 0.00″
04/29/2016 09:13 PM 50.0°F 50.0°F / 50.4°F 42.4°F / 59.5°F 29.70 inHg 39% 0.00″
04/29/2016 08:13 PM 51.6°F 51.6°F / 52.0°F 42.4°F / 59.5°F 29.67 inHg 36% 0.00″
04/29/2016 07:13 PM 52.3°F 51.3°F / 52.5°F 42.4°F / 59.5°F 29.63 inHg 38% 0.00″
04/29/2016 06:13 PM 53.2°F 53.2°F / 54.3°F 42.4°F / 59.5°F 29.63 inHg 33% 0.00″
04/29/2016 05:13 PM 58.5°F 57.7°F / 58.6°F 42.4°F / 59.5°F 29.60 inHg 27% 0.00″
04/29/2016 04:13 PM 57.9°F 57.0°F / 57.9°F 42.4°F / 58.5°F 29.61 inHg 22% 0.00″
04/29/2016 03:12 PM 56.5°F 55.8°F / 57.0°F 42.4°F / 57.0°F 29.63 inHg 23% 0.00″
04/29/2016 02:12 PM 54.9°F 54.9°F / 56.5°F 42.4°F / 56.5°F 29.64 inHg 24% 0.00″
04/29/2016 01:12 PM 53.8°F 53.2°F / 54.3°F 42.4°F / 54.3°F 29.64 inHg 25% 0.00″
04/29/2016 12:12 PM 53.1°F 52.2°F / 53.2°F 42.4°F / 53.2°F 29.65 inHg 21% 0.00″
04/29/2016 11:12 AM 51.1°F 50.2°F / 51.1°F 42.4°F / 52.9°F 29.64 inHg 26% 0.00″
04/29/2016 10:12 AM 48.4°F 47.7°F / 48.4°F 42.4°F / 52.9°F 29.64 inHg 31% 0.00″
04/29/2016 09:11 AM 46.6°F 46.2°F / 46.6°F 42.4°F / 52.9°F 29.64 inHg 28% 0.00″
04/29/2016 08:11 AM 44.8°F 44.8°F / 44.8°F 42.4°F / 52.9°F 0.00 inHg 30% 0.00″
04/29/2016 06:26 AM 43.5°F 43.5°F / 44.4°F 43.5°F / 52.9°F 29.59 inHg 44% 0.00″
04/29/2016 05:26 AM 45.1°F 45.1°F / 46.8°F 45.1°F / 52.9°F 29.59 inHg 44% 0.00″
04/29/2016 04:26 AM 47.7°F 47.7°F / 48.6°F 47.7°F / 52.9°F 29.59 inHg 41% 0.00″
04/29/2016 03:26 AM 48.9°F 48.6°F / 48.9°F 48.6°F / 52.9°F 29.59 inHg 38% 0.00″
04/29/2016 02:26 AM 50.0°F 50.0°F / 50.7°F 50.0°F / 52.9°F 29.58 inHg 32% 0.00″
04/29/2016 01:26 AM 50.9°F 50.9°F / 52.2°F 50.9°F / 52.9°F 29.58 inHg 31% 0.00″
04/29/2016 12:26 AM 52.5°F 51.3°F / 52.9°F 51.3°F / 52.9°F 29.56 inHg 31% 0.00″
04/28/2016 11:26 PM 50.5°F 49.8°F / 50.5°F 44.2°F / 66.9°F 29.57 inHg 32% 0.00″
04/28/2016 10:25 PM 51.3°F 50.9°F / 51.6°F 44.2°F / 66.9°F 29.56 inHg 30% 0.00″
04/28/2016 09:25 PM 53.4°F 53.4°F / 54.9°F 44.2°F / 66.9°F 29.55 inHg 27% 0.00″
04/28/2016 08:25 PM 57.4°F 57.4°F / 59.0°F 44.2°F / 66.9°F 29.55 inHg 23% 0.00″
04/28/2016 07:25 PM 61.3°F 61.3°F / 63.0°F 44.2°F / 66.9°F 29.54 inHg 19% 0.00″
04/28/2016 06:25 PM 64.6°F 64.6°F / 64.9°F 44.2°F / 66.9°F 29.54 inHg 18% 0.00″
04/28/2016 05:25 PM 65.5°F 64.0°F / 66.0°F 44.2°F / 66.9°F 29.55 inHg 18% 0.00″
04/28/2016 04:25 PM 66.0°F 64.8°F / 66.0°F 44.2°F / 66.9°F 29.55 inHg 18% 0.00″
04/28/2016 03:25 PM 65.7°F 65.5°F / 66.9°F 44.2°F / 66.9°F 29.57 inHg 17% 0.00″
04/28/2016 02:25 PM 66.4°F 64.8°F / 66.4°F 44.2°F / 66.4°F 29.59 inHg 16% 0.00″
04/28/2016 01:25 PM 64.4°F 63.3°F / 64.8°F 44.2°F / 64.8°F 29.61 inHg 18% 0.00″
04/28/2016 12:25 PM 63.9°F 61.7°F / 63.9°F 44.2°F / 63.9°F 29.62 inHg 18% 0.00″
04/28/2016 11:25 AM 61.3°F 59.4°F / 61.3°F 44.2°F / 61.3°F 29.64 inHg 19% 0.00″
04/28/2016 10:25 AM 58.6°F 58.3°F / 59.4°F 44.2°F / 59.4°F 29.65 inHg 19% 0.00″
04/28/2016 09:25 AM 57.0°F 55.8°F / 57.2°F 44.2°F / 57.2°F 29.66 inHg 21% 0.00″
04/28/2016 08:25 AM 54.1°F 50.9°F / 54.1°F 44.2°F / 54.1°F 29.68 inHg 25% 0.00″
04/28/2016 07:25 AM 44.2°F 44.2°F / 45.1°F 44.2°F / 53.1°F 29.67 inHg 35% 0.00″
04/28/2016 06:25 AM 45.3°F 45.1°F / 47.8°F 45.1°F / 53.1°F 29.66 inHg 32% 0.00″
04/28/2016 05:24 AM 46.6°F 46.0°F / 46.9°F 46.0°F / 53.1°F 29.66 inHg 31% 0.00″
04/28/2016 04:24 AM 49.3°F 48.9°F / 50.4°F 48.9°F / 53.1°F 29.66 inHg 27% 0.00″
04/28/2016 03:24 AM 50.2°F 49.5°F / 50.2°F 49.5°F / 53.1°F 29.66 inHg 26% 0.00″
04/28/2016 02:24 AM 51.1°F 51.1°F / 52.5°F 50.9°F / 53.1°F 29.67 inHg 25% 0.00″
04/28/2016 01:24 AM 52.2°F 50.9°F / 52.2°F 50.9°F / 53.1°F 29.69 inHg 24% 0.00″
04/28/2016 12:24 AM 51.6°F 51.3°F / 53.1°F 51.3°F / 53.1°F 29.70 inHg 24% 0.00″
04/27/2016 11:24 PM 50.0°F 50.0°F / 51.3°F 36.0°F / 63.7°F 29.70 inHg 25% 0.00″
04/27/2016 10:24 PM 50.7°F 50.4°F / 52.3°F 36.0°F / 63.7°F 29.70 inHg 26% 0.00″
04/27/2016 09:24 PM 52.0°F 50.2°F / 52.0°F 36.0°F / 63.7°F 29.71 inHg 24% 0.00″
04/27/2016 08:24 PM 51.6°F 51.6°F / 53.8°F 36.0°F / 63.7°F 29.69 inHg 25% 0.00″
04/27/2016 07:24 PM 57.4°F 57.2°F / 58.1°F 36.0°F / 63.7°F 29.68 inHg 19% 0.00″
04/27/2016 06:24 PM 61.5°F 60.3°F / 61.5°F 36.0°F / 63.7°F 29.68 inHg 18% 0.00″
04/27/2016 05:24 PM 61.2°F 60.1°F / 61.2°F 36.0°F / 63.7°F 29.69 inHg 21% 0.00″
04/27/2016 04:24 PM 60.1°F 60.1°F / 62.8°F 36.0°F / 63.0°F 29.70 inHg 21% 0.00″
04/27/2016 03:23 PM 61.2°F 60.4°F / 62.2°F 36.0°F / 62.2°F 29.72 inHg 21% 0.00″
04/27/2016 02:23 PM 59.7°F 59.5°F / 60.4°F 36.0°F / 60.4°F 29.75 inHg 23% 0.00″
04/27/2016 01:23 PM 59.5°F 57.0°F / 59.5°F 36.0°F / 59.5°F 29.77 inHg 27% 0.00″
04/27/2016 12:23 PM 55.9°F 54.3°F / 56.7°F 36.0°F / 56.7°F 29.79 inHg 31% 0.00″
04/27/2016 11:23 AM 54.5°F 52.2°F / 54.9°F 36.0°F / 54.9°F 29.80 inHg 32% 0.00″
04/27/2016 10:23 AM 51.1°F 50.5°F / 52.0°F 36.0°F / 52.0°F 29.81 inHg 37% 0.00″
04/27/2016 09:23 AM 49.3°F 47.5°F / 49.3°F 36.0°F / 49.3°F 29.80 inHg 39% 0.00″
04/27/2016 08:23 AM 45.1°F 39.7°F / 45.1°F 36.0°F / 45.1°F 29.79 inHg 43% 0.00″
04/27/2016 07:23 AM 37.9°F 37.8°F / 37.9°F 36.0°F / 42.3°F 29.79 inHg 49% 0.00″
04/27/2016 06:23 AM 37.8°F 36.0°F / 37.8°F 36.0°F / 42.3°F 29.78 inHg 45% 0.00″
04/27/2016 05:23 AM 36.9°F 36.9°F / 37.2°F 36.9°F / 42.3°F 29.76 inHg 44% 0.00″
04/27/2016 04:23 AM 38.1°F 38.1°F / 39.4°F 38.1°F / 42.3°F 29.75 inHg 41% 0.00″
04/27/2016 03:22 AM 38.7°F 38.5°F / 39.0°F 38.5°F / 42.3°F 29.76 inHg 40% 0.00″
04/27/2016 02:22 AM 39.7°F 38.8°F / 39.7°F 38.8°F / 42.3°F 29.76 inHg 38% 0.00″
04/27/2016 01:22 AM 39.6°F 39.4°F / 40.3°F 39.4°F / 42.3°F 29.78 inHg 38% 0.00″
04/26/2016 10:22 PM 41.5°F 41.5°F / 43.7°F 41.5°F / 57.2°F 29.73 inHg 30% 0.00″
04/26/2016 09:22 PM 45.0°F 45.0°F / 47.5°F 43.2°F / 57.2°F 29.70 inHg 26% 0.00″
04/26/2016 08:22 PM 49.3°F 49.3°F / 49.8°F 43.2°F / 57.2°F 29.65 inHg 23% 0.00″
04/26/2016 07:22 PM 52.5°F 52.0°F / 52.5°F 43.2°F / 57.2°F 29.61 inHg 18% 0.00″
04/26/2016 06:22 PM 53.2°F 53.2°F / 55.6°F 43.2°F / 57.2°F 29.60 inHg 20% 0.00″
04/26/2016 05:22 PM 55.9°F 55.0°F / 56.8°F 43.2°F / 57.2°F 29.58 inHg 19% 0.00″
04/26/2016 04:22 PM 56.8°F 54.1°F / 56.8°F 43.2°F / 56.8°F 29.57 inHg 21% 0.00″
04/26/2016 03:22 PM 56.5°F 55.6°F / 56.8°F 43.2°F / 56.8°F 29.57 inHg 22% 0.00″
04/26/2016 02:22 PM 54.7°F 52.5°F / 55.0°F 43.2°F / 55.0°F 29.57 inHg 26% 0.00″
04/26/2016 01:22 PM 53.1°F 52.0°F / 54.3°F 43.2°F / 54.9°F 29.57 inHg 28% 0.00″
04/26/2016 12:22 PM 52.5°F 51.6°F / 53.1°F 43.2°F / 54.9°F 29.58 inHg 26% 0.00″
04/26/2016 11:22 AM 51.6°F 50.4°F / 52.3°F 43.2°F / 54.9°F 29.58 inHg 27% 0.00″
04/26/2016 10:22 AM 49.3°F 47.8°F / 49.5°F 43.2°F / 54.9°F 29.56 inHg 29% 0.00″
04/26/2016 09:22 AM 49.5°F 48.9°F / 49.5°F 43.2°F / 54.9°F 29.55 inHg 33% 0.00″
04/26/2016 08:21 AM 48.0°F 46.9°F / 48.0°F 43.2°F / 54.9°F 29.53 inHg 36% 0.00″
04/26/2016 07:21 AM 47.5°F 46.0°F / 47.5°F 43.2°F / 54.9°F 29.51 inHg 39% 0.00″
04/26/2016 06:21 AM 43.5°F 43.2°F / 43.5°F 43.2°F / 54.9°F 29.50 inHg 42% 0.00″
04/26/2016 05:21 AM 46.2°F 46.2°F / 48.0°F 46.0°F / 54.9°F 29.52 inHg 39% 0.00″
04/26/2016 04:21 AM 49.3°F 49.3°F / 49.5°F 46.0°F / 54.9°F 29.52 inHg 35% 0.00″
04/26/2016 03:21 AM 46.6°F 46.0°F / 48.0°F 46.0°F / 54.9°F 29.52 inHg 40% 0.00″
04/26/2016 02:21 AM 50.4°F 50.4°F / 50.7°F 50.4°F / 54.9°F 29.53 inHg 37% 0.00″
04/26/2016 01:21 AM 52.2°F 52.2°F / 53.4°F 52.2°F / 54.9°F 29.54 inHg 35% 0.00″
04/26/2016 12:21 AM 54.7°F 54.7°F / 54.9°F 54.7°F / 54.9°F 29.54 inHg 30% 0.00″
04/25/2016 11:21 PM 56.5°F 56.5°F / 57.4°F 48.6°F / 70.2°F 29.54 inHg 25% 0.00″
04/25/2016 10:21 PM 57.9°F 57.9°F / 58.3°F 48.6°F / 70.2°F 29.54 inHg 22% 0.00″
04/25/2016 09:20 PM 59.5°F 59.5°F / 60.4°F 48.6°F / 70.2°F 29.53 inHg 19% 0.00″
04/25/2016 08:20 PM 61.3°F 61.3°F / 62.6°F 48.6°F / 70.2°F 29.52 inHg 17% 0.00″
04/25/2016 07:20 PM 64.2°F 64.2°F / 66.0°F 48.6°F / 70.2°F 29.50 inHg 15% 0.00″
04/25/2016 06:20 PM 67.8°F 67.8°F / 68.7°F 48.6°F / 70.2°F 29.50 inHg 12% 0.00″
04/25/2016 05:20 PM 69.3°F 69.1°F / 70.0°F 48.6°F / 70.2°F 29.50 inHg 15% 0.00″
04/25/2016 04:20 PM 67.6°F 67.6°F / 68.7°F 48.6°F / 69.4°F 29.52 inHg 15% 0.00″
04/25/2016 03:20 PM 68.5°F 68.0°F / 69.4°F 48.6°F / 69.4°F 29.53 inHg 17% 0.00″
04/25/2016 02:20 PM 67.5°F 66.7°F / 68.0°F 48.6°F / 68.0°F 29.57 inHg 17% 0.00″
04/25/2016 01:20 PM 64.4°F 64.4°F / 66.0°F 48.6°F / 66.0°F 29.59 inHg 26% 0.00″
04/25/2016 12:20 PM 63.3°F 62.6°F / 63.7°F 48.6°F / 63.7°F 29.63 inHg 28% 0.00″
04/25/2016 11:20 AM 61.0°F 59.5°F / 61.0°F 48.6°F / 61.0°F 29.65 inHg 29% 0.00″
04/25/2016 10:20 AM 58.5°F 57.7°F / 58.5°F 48.6°F / 58.5°F 29.66 inHg 33% 0.00″
04/25/2016 09:20 AM 55.9°F 55.0°F / 55.9°F 48.6°F / 56.1°F 29.66 inHg 41% 0.00″
04/25/2016 08:20 AM 54.0°F 53.1°F / 54.0°F 48.6°F / 56.1°F 29.65 inHg 43% 0.00″
04/25/2016 07:20 AM 50.5°F 48.9°F / 50.5°F 48.6°F / 56.1°F 29.65 inHg 39% 0.00″
04/24/2016 05:47 PM 68.4°F 67.8°F / 69.1°F 51.3°F / 69.1°F 29.58 inHg 17% 0.00″
04/24/2016 04:47 PM 68.5°F 67.8°F / 69.1°F 51.3°F / 69.1°F 29.57 inHg 18% 0.00″
04/24/2016 03:47 PM 67.5°F 66.6°F / 68.7°F 51.3°F / 68.7°F 29.58 inHg 21% 0.00″
04/24/2016 02:47 PM 66.7°F 64.6°F / 67.3°F 51.3°F / 67.3°F 29.60 inHg 22% 0.00″
04/24/2016 01:47 PM 65.5°F 62.8°F / 65.5°F 51.3°F / 65.5°F 29.62 inHg 27% 0.00″
04/24/2016 12:47 PM 62.8°F 59.9°F / 63.1°F 51.3°F / 63.1°F 29.64 inHg 31% 0.00″
04/24/2016 11:47 AM 60.1°F 58.6°F / 61.0°F 51.3°F / 61.0°F 29.65 inHg 35% 0.00″
04/24/2016 10:47 AM 58.3°F 57.0°F / 58.8°F 51.3°F / 60.3°F 29.66 inHg 36% 0.00″
04/24/2016 09:47 AM 56.8°F 54.7°F / 56.8°F 51.3°F / 60.3°F 29.65 inHg 41% 0.00″
04/24/2016 08:47 AM 53.8°F 52.5°F / 53.8°F 51.3°F / 60.3°F 29.65 inHg 48% 0.00″
04/24/2016 07:47 AM 51.8°F 51.3°F / 51.8°F 51.3°F / 60.3°F 29.66 inHg 52% 0.00″
04/24/2016 06:47 AM 51.4°F 51.4°F / 52.5°F 51.4°F / 60.3°F 29.65 inHg 51% 0.00″
04/24/2016 05:47 AM 52.9°F 52.7°F / 54.0°F 52.7°F / 60.3°F 29.65 inHg 43% 0.00″
04/24/2016 04:47 AM 54.5°F 54.1°F / 55.0°F 54.1°F / 60.3°F 29.65 inHg 37% 0.00″
04/24/2016 03:47 AM 55.2°F 55.0°F / 55.9°F 55.0°F / 60.3°F 29.65 inHg 33% 0.00″
04/24/2016 02:46 AM 56.5°F 56.3°F / 58.3°F 56.3°F / 60.3°F 29.65 inHg 28% 0.00″
04/24/2016 01:46 AM 57.9°F 57.9°F / 58.8°F 57.9°F / 60.3°F 29.66 inHg 23% 0.00″
04/24/2016 12:46 AM 58.6°F 58.6°F / 60.3°F 58.6°F / 60.3°F 29.66 inHg 20% 0.00″
04/23/2016 11:46 PM 60.8°F 60.8°F / 63.1°F 46.9°F / 70.5°F 29.65 inHg 23% 0.00″
04/23/2016 10:46 PM 63.1°F 62.2°F / 63.1°F 46.9°F / 70.5°F 29.66 inHg 29% 0.00″
04/23/2016 09:46 PM 62.8°F 61.3°F / 63.3°F 46.9°F / 70.5°F 29.66 inHg 31% 0.00″
04/23/2016 08:46 PM 61.3°F 61.0°F / 62.1°F 46.9°F / 70.5°F 29.65 inHg 33% 0.00″
04/23/2016 07:46 PM 63.5°F 63.5°F / 67.6°F 46.9°F / 70.5°F 29.63 inHg 29% 0.00″
04/23/2016 06:46 PM 67.8°F 67.1°F / 69.3°F 46.9°F / 70.5°F 29.64 inHg 26% 0.00″
04/23/2016 05:46 PM 67.8°F 67.8°F / 70.0°F 46.9°F / 70.5°F 29.65 inHg 30% 0.00″
04/23/2016 04:46 PM 68.2°F 67.6°F / 70.5°F 46.9°F / 70.5°F 29.66 inHg 30% 0.00″
04/23/2016 03:46 PM 68.4°F 68.0°F / 70.0°F 46.9°F / 70.2°F 29.68 inHg 31% 0.00″
04/23/2016 02:46 PM 69.1°F 68.7°F / 70.2°F 46.9°F / 70.2°F 29.72 inHg 29% 0.00″
04/23/2016 01:46 PM 68.4°F 67.6°F / 69.1°F 46.9°F / 69.1°F 29.75 inHg 28% 0.00″
04/23/2016 11:46 AM 66.6°F 64.0°F / 66.9°F 46.9°F / 66.9°F 29.80 inHg 36% 0.00″
04/23/2016 10:46 AM 64.0°F 60.6°F / 64.0°F 46.9°F / 64.0°F 29.81 inHg 45% 0.00″
04/23/2016 09:46 AM 60.1°F 57.2°F / 60.1°F 46.9°F / 60.1°F 29.81 inHg 51% 0.00″
04/23/2016 08:46 AM 57.7°F 49.8°F / 57.9°F 46.9°F / 57.9°F 29.83 inHg 51% 0.00″
04/23/2016 07:46 AM 48.6°F 47.5°F / 48.6°F 46.9°F / 54.1°F 29.83 inHg 66% 0.00″
04/23/2016 06:46 AM 48.0°F 47.3°F / 48.2°F 46.9°F / 54.1°F 29.84 inHg 64% 0.00″
04/23/2016 05:45 AM 47.5°F 46.9°F / 48.7°F 46.9°F / 54.1°F 29.82 inHg 64% 0.00″
04/23/2016 04:45 AM 48.7°F 48.7°F / 49.5°F 48.7°F / 54.1°F 29.82 inHg 63% 0.00″
04/23/2016 03:45 AM 49.3°F 49.3°F / 50.9°F 49.3°F / 54.1°F 29.83 inHg 61% 0.00″
04/23/2016 02:45 AM 50.4°F 50.4°F / 52.2°F 50.4°F / 54.1°F 29.85 inHg 60% 0.00″
04/23/2016 01:45 AM 52.2°F 52.2°F / 54.1°F 52.2°F / 54.1°F 29.87 inHg 57% 0.00″
04/23/2016 12:45 AM 53.4°F 52.9°F / 54.1°F 52.9°F / 54.1°F 29.86 inHg 60% 0.00″
04/22/2016 11:44 PM 54.1°F 54.1°F / 56.5°F 49.8°F / 76.1°F 29.90 inHg 52% 0.00″
04/22/2016 10:44 PM 56.7°F 56.7°F / 58.3°F 49.8°F / 76.1°F 29.91 inHg 53% 0.00″
04/22/2016 09:44 PM 58.3°F 57.7°F / 58.3°F 49.8°F / 76.1°F 29.92 inHg 47% 0.00″
04/22/2016 08:44 PM 59.4°F 59.4°F / 63.3°F 49.8°F / 76.1°F 29.88 inHg 48% 0.00″
04/22/2016 07:44 PM 64.0°F 64.0°F / 66.4°F 49.8°F / 76.1°F 29.82 inHg 27% 0.00″
04/22/2016 06:44 PM 66.9°F 66.9°F / 73.0°F 49.8°F / 76.1°F 29.81 inHg 26% 0.00″
04/22/2016 05:44 PM 71.8°F 71.8°F / 76.1°F 49.8°F / 76.1°F 29.79 inHg 23% 0.00″
04/22/2016 04:44 PM 73.0°F 73.0°F / 74.5°F 49.8°F / 75.0°F 29.80 inHg 23% 0.00″
04/22/2016 03:44 PM 74.5°F 73.4°F / 74.8°F 49.8°F / 74.8°F 29.83 inHg 19% 0.00″
04/22/2016 02:44 PM 73.2°F 70.3°F / 73.2°F 49.8°F / 73.2°F 29.87 inHg 29% 0.00″
04/22/2016 01:44 PM 71.4°F 67.3°F / 71.4°F 49.8°F / 71.4°F 29.90 inHg 29% 0.00″
04/22/2016 12:44 PM 67.3°F 64.6°F / 67.3°F 49.8°F / 67.3°F 29.93 inHg 38% 0.00″
04/22/2016 11:44 AM 64.9°F 61.9°F / 64.9°F 49.8°F / 64.9°F 29.95 inHg 42% 0.00″
04/22/2016 10:44 AM 62.4°F 58.3°F / 62.6°F 49.8°F / 62.6°F 29.95 inHg 41% 0.00″
04/22/2016 09:44 AM 57.0°F 56.7°F / 57.6°F 49.8°F / 57.6°F 29.95 inHg 48% 0.00″
04/22/2016 08:44 AM 57.0°F 51.1°F / 57.0°F 49.8°F / 57.0°F 29.93 inHg 50% 0.00″
04/22/2016 07:44 AM 50.2°F 50.2°F / 53.6°F 50.2°F / 54.9°F 29.92 inHg 58% 0.00″
04/22/2016 06:43 AM 53.4°F 52.3°F / 54.0°F 52.3°F / 54.9°F 29.89 inHg 52% 0.00″
04/22/2016 05:43 AM 53.8°F 53.8°F / 54.1°F 53.4°F / 54.9°F 29.88 inHg 52% 0.00″
04/22/2016 04:43 AM 54.1°F 54.0°F / 54.1°F 53.4°F / 54.9°F 29.87 inHg 52% 0.00″
04/22/2016 03:43 AM 54.0°F 53.8°F / 54.0°F 53.4°F / 54.9°F 29.85 inHg 53% 0.00″
04/22/2016 02:43 AM 53.6°F 53.4°F / 53.8°F 53.4°F / 54.9°F 29.84 inHg 53% 0.00″
04/22/2016 01:43 AM 53.6°F 53.6°F / 54.3°F 53.6°F / 54.9°F 29.86 inHg 52% 0.00″
04/22/2016 12:43 AM 54.7°F 54.3°F / 54.9°F 54.3°F / 54.9°F 29.86 inHg 51% 0.00″
04/21/2016 11:43 PM 55.0°F 55.0°F / 55.4°F 48.0°F / 71.4°F 29.86 inHg 47% 0.00″
04/21/2016 10:43 PM 55.6°F 55.6°F / 55.8°F 48.0°F / 71.4°F 29.87 inHg 44% 0.00″
04/21/2016 09:43 PM 56.1°F 56.1°F / 57.0°F 48.0°F / 71.4°F 29.87 inHg 43% 0.00″
04/21/2016 08:43 PM 57.7°F 57.7°F / 59.7°F 48.0°F / 71.4°F 29.85 inHg 42% 0.00″
04/21/2016 07:43 PM 61.0°F 61.0°F / 68.2°F 48.0°F / 71.4°F 29.83 inHg 40% 0.00″
04/21/2016 06:43 PM 68.4°F 68.4°F / 70.0°F 48.0°F / 71.4°F 29.82 inHg 18% 0.00″
04/21/2016 05:43 PM 69.3°F 69.3°F / 71.1°F 48.0°F / 71.4°F 29.82 inHg 19% 0.00″
04/21/2016 04:43 PM 69.6°F 65.7°F / 70.9°F 48.0°F / 71.4°F 29.82 inHg 20% 0.00″
04/21/2016 03:43 PM 70.7°F 67.8°F / 71.2°F 48.0°F / 71.2°F 29.83 inHg 19% 0.00″
04/21/2016 02:43 PM 69.3°F 67.8°F / 70.2°F 48.0°F / 70.2°F 29.85 inHg 20% 0.00″
04/21/2016 01:43 PM 69.6°F 66.2°F / 69.8°F 48.0°F / 69.8°F 29.86 inHg 17% 0.00″
04/21/2016 12:43 PM 67.8°F 65.8°F / 67.8°F 48.0°F / 67.8°F 29.88 inHg 20% 0.00″
04/21/2016 11:43 AM 65.5°F 63.9°F / 65.7°F 48.0°F / 65.7°F 29.89 inHg 23% 0.00″
04/21/2016 10:43 AM 63.9°F 62.4°F / 63.9°F 48.0°F / 63.9°F 29.89 inHg 22% 0.00″
04/21/2016 09:43 AM 62.1°F 59.5°F / 62.4°F 48.0°F / 62.4°F 29.87 inHg 23% 0.00″
04/21/2016 08:43 AM 59.2°F 55.8°F / 59.2°F 48.0°F / 59.2°F 29.87 inHg 26% 0.00″
04/21/2016 07:43 AM 55.0°F 53.8°F / 55.0°F 48.0°F / 55.2°F 29.86 inHg 27% 0.00″
04/21/2016 06:43 AM 54.0°F 53.8°F / 54.9°F 48.0°F / 55.2°F 29.86 inHg 27% 0.00″
04/21/2016 05:42 AM 53.4°F 53.2°F / 53.4°F 48.0°F / 55.2°F 29.85 inHg 27% 0.00″
04/21/2016 04:42 AM 53.4°F 53.1°F / 53.8°F 48.0°F / 55.2°F 29.84 inHg 29% 0.00″
04/21/2016 03:42 AM 54.0°F 53.8°F / 54.1°F 48.0°F / 55.2°F 29.85 inHg 26% 0.00″
04/21/2016 02:42 AM 54.1°F 54.1°F / 54.9°F 48.0°F / 55.2°F 29.85 inHg 26% 0.00″
04/21/2016 01:42 AM 55.2°F 50.5°F / 55.2°F 48.0°F / 55.2°F 29.86 inHg 27% 0.00″
04/21/2016 12:42 AM 49.6°F 49.6°F / 53.6°F 49.6°F / 53.6°F 29.87 inHg 25% 0.00″
04/20/2016 11:42 PM 54.1°F 52.5°F / 54.5°F 39.7°F / 68.7°F 29.87 inHg 22% 0.00″
04/20/2016 10:42 PM 54.1°F 54.1°F / 57.6°F 39.7°F / 68.7°F 29.86 inHg 22% 0.00″
04/20/2016 09:42 PM 56.7°F 54.1°F / 56.7°F 39.7°F / 68.7°F 29.87 inHg 19% 0.00″
04/20/2016 08:42 PM 54.3°F 54.3°F / 57.9°F 39.7°F / 68.7°F 29.85 inHg 25% 0.00″
04/20/2016 07:41 PM 60.8°F 60.8°F / 65.8°F 39.7°F / 68.7°F 29.83 inHg 20% 0.00″
04/20/2016 06:41 PM 66.6°F 66.6°F / 67.8°F 39.7°F / 68.7°F 29.83 inHg 16% 0.00″
04/20/2016 05:41 PM 67.5°F 67.3°F / 68.7°F 39.7°F / 68.7°F 29.84 inHg 15% 0.00″
04/20/2016 04:41 PM 68.4°F 66.4°F / 68.5°F 39.7°F / 68.5°F 29.85 inHg 17% 0.00″
04/20/2016 03:41 PM 67.6°F 66.6°F / 68.4°F 39.7°F / 68.4°F 29.88 inHg 17% 0.00″
04/20/2016 02:41 PM 65.8°F 65.7°F / 67.3°F 39.7°F / 67.3°F 29.89 inHg 18% 0.00″
04/20/2016 01:41 PM 65.8°F 64.2°F / 66.2°F 39.7°F / 66.2°F 29.91 inHg 19% 0.00″
04/20/2016 12:41 PM 64.2°F 63.3°F / 65.5°F 39.7°F / 65.5°F 29.94 inHg 21% 0.00″
04/20/2016 11:41 AM 63.9°F 61.2°F / 64.0°F 39.7°F / 64.0°F 29.96 inHg 22% 0.00″
04/20/2016 10:41 AM 60.6°F 58.6°F / 61.0°F 39.7°F / 61.0°F 29.96 inHg 24% 0.00″
04/20/2016 09:41 AM 57.7°F 54.1°F / 57.7°F 39.7°F / 57.7°F 29.96 inHg 26% 0.00″
04/20/2016 08:41 AM 49.6°F 43.5°F / 49.6°F 39.7°F / 49.6°F 29.96 inHg 41% 0.00″
04/20/2016 07:41 AM 42.4°F 41.2°F / 42.4°F 39.7°F / 48.4°F 29.96 inHg 44% 0.00″
04/20/2016 06:41 AM 41.0°F 40.6°F / 41.7°F 39.7°F / 48.4°F 29.95 inHg 43% 0.00″
04/20/2016 05:41 AM 40.6°F 39.7°F / 41.2°F 39.7°F / 48.4°F 29.94 inHg 43% 0.00″
04/20/2016 04:40 AM 41.9°F 41.7°F / 42.4°F 40.8°F / 48.4°F 29.93 inHg 40% 0.00″
04/20/2016 03:40 AM 42.3°F 42.1°F / 43.0°F 42.1°F / 48.4°F 29.93 inHg 40% 0.00″
04/20/2016 02:40 AM 43.9°F 43.5°F / 44.2°F 43.5°F / 48.4°F 29.93 inHg 35% 0.00″
04/20/2016 01:40 AM 44.8°F 44.2°F / 45.0°F 44.2°F / 48.4°F 29.94 inHg 37% 0.00″
04/20/2016 12:39 AM 45.5°F 45.5°F / 48.4°F 45.5°F / 48.4°F 29.94 inHg 37% 0.00″
04/19/2016 11:39 PM 48.6°F 48.6°F / 48.7°F 39.4°F / 62.4°F 29.96 inHg 34% 0.00″
04/19/2016 10:39 PM 48.7°F 48.7°F / 49.5°F 39.4°F / 62.4°F 29.96 inHg 32% 0.00″
04/19/2016 09:39 PM 48.6°F 46.8°F / 49.6°F 39.4°F / 62.4°F 29.96 inHg 34% 0.00″
04/19/2016 08:39 PM 48.6°F 48.6°F / 51.4°F 39.4°F / 62.4°F 29.94 inHg 32% 0.00″
04/19/2016 07:39 PM 55.6°F 55.6°F / 59.2°F 39.4°F / 62.4°F 29.92 inHg 26% 0.00″
04/19/2016 06:39 PM 59.7°F 59.5°F / 60.4°F 39.4°F / 62.4°F 29.91 inHg 24% 0.00″
04/19/2016 04:39 PM 61.7°F 61.0°F / 62.4°F 39.4°F / 62.4°F 29.92 inHg 25% 0.00″
04/19/2016 03:39 PM 0.0°F 59.2°F / 61.0°F 39.4°F / 61.0°F 29.93 inHg 0% 0.00″
04/19/2016 02:38 PM 60.3°F 58.6°F / 60.4°F 39.4°F / 60.4°F 29.94 inHg 24% 0.00″
04/19/2016 01:38 PM 60.1°F 57.2°F / 60.1°F 39.4°F / 60.1°F 29.95 inHg 26% 0.00″
04/19/2016 12:38 PM 56.8°F 56.1°F / 58.5°F 39.4°F / 58.5°F 29.96 inHg 33% 0.00″
04/19/2016 11:38 AM 54.9°F 54.3°F / 55.8°F 39.4°F / 55.8°F 29.98 inHg 45% 0.00″
04/19/2016 10:38 AM 52.7°F 51.8°F / 52.9°F 39.4°F / 52.9°F 29.98 inHg 55% 0.00″
04/19/2016 09:38 AM 51.1°F 48.7°F / 51.3°F 39.4°F / 51.3°F 29.99 inHg 60% 0.00″
04/19/2016 08:38 AM 47.7°F 41.2°F / 47.7°F 39.4°F / 47.7°F 29.98 inHg 64% 0.00″
04/19/2016 07:37 AM 39.9°F 39.7°F / 40.5°F 39.4°F / 46.0°F 29.97 inHg 77% 0.00″
04/19/2016 06:37 AM 40.1°F 40.1°F / 43.3°F 40.1°F / 46.0°F 29.96 inHg 75% 0.00″
04/19/2016 05:37 AM 43.3°F 42.6°F / 43.3°F 41.5°F / 46.0°F 29.96 inHg 72% 0.00″
04/19/2016 04:37 AM 43.0°F 43.0°F / 44.4°F 41.5°F / 46.0°F 29.96 inHg 72% 0.00″
04/19/2016 03:37 AM 44.1°F 43.9°F / 45.7°F 41.5°F / 46.0°F 29.96 inHg 72% 0.00″
04/19/2016 02:37 AM 46.0°F 43.2°F / 46.0°F 41.5°F / 46.0°F 29.98 inHg 68% 0.00″
04/19/2016 01:37 AM 41.7°F 41.7°F / 44.4°F 41.7°F / 45.3°F 29.99 inHg 70% 0.00″
04/19/2016 12:37 AM 45.1°F 44.1°F / 45.3°F 44.1°F / 45.3°F 29.99 inHg 65% 0.00″
04/18/2016 11:37 PM 46.9°F 46.8°F / 49.3°F 37.8°F / 61.9°F 29.99 inHg 60% 0.00″
04/18/2016 10:37 PM 49.6°F 47.8°F / 50.0°F 37.8°F / 61.9°F 29.99 inHg 51% 0.00″
04/18/2016 09:36 PM 49.6°F 48.7°F / 51.1°F 37.8°F / 61.9°F 29.99 inHg 51% 0.00″
04/18/2016 08:36 PM 52.0°F 52.0°F / 52.9°F 37.8°F / 61.9°F 29.97 inHg 49% 0.00″
04/18/2016 07:36 PM 54.1°F 54.1°F / 57.2°F 37.8°F / 61.9°F 29.97 inHg 47% 0.00″
04/18/2016 06:36 PM 56.1°F 56.1°F / 59.2°F 37.8°F / 61.9°F 29.96 inHg 39% 0.00″
04/18/2016 05:36 PM 59.4°F 57.0°F / 60.1°F 37.8°F / 61.9°F 29.96 inHg 33% 0.00″
04/18/2016 04:36 PM 59.2°F 56.8°F / 61.3°F 37.8°F / 61.9°F 29.97 inHg 30% 0.00″
04/18/2016 03:36 PM 57.6°F 57.6°F / 61.3°F 37.8°F / 61.9°F 29.99 inHg 25% 0.00″
04/18/2016 02:36 PM 60.6°F 57.2°F / 60.6°F 37.8°F / 60.6°F 30.01 inHg 23% 0.00″
04/18/2016 01:36 PM 56.8°F 56.7°F / 59.9°F 37.8°F / 59.9°F 30.02 inHg 25% 0.00″
04/18/2016 12:36 PM 57.7°F 57.4°F / 59.0°F 37.8°F / 59.0°F 30.04 inHg 36% 0.00″
04/18/2016 11:36 AM 56.3°F 54.0°F / 57.0°F 37.8°F / 57.0°F 30.06 inHg 38% 0.00″
04/18/2016 10:36 AM 52.7°F 50.9°F / 52.7°F 37.8°F / 52.7°F 30.06 inHg 43% 0.00″
04/18/2016 09:31 AM 48.7°F 48.0°F / 48.7°F 37.8°F / 49.6°F 30.07 inHg 48% 0.00″
04/18/2016 08:31 AM 48.0°F 42.3°F / 48.0°F 37.8°F / 48.0°F 30.07 inHg 43% 0.00″
04/18/2016 07:31 AM 40.6°F 40.6°F / 41.2°F 37.8°F / 43.0°F 30.06 inHg 57% 0.00″
04/18/2016 06:31 AM 39.9°F 38.3°F / 39.9°F 37.8°F / 43.0°F 30.06 inHg 60% 0.00″
04/18/2016 05:30 AM 39.7°F 39.7°F / 43.0°F 39.2°F / 43.0°F 30.05 inHg 59% 0.00″
04/18/2016 04:30 AM 41.4°F 40.1°F / 41.4°F 39.2°F / 42.4°F 30.05 inHg 60% 0.00″
04/18/2016 03:30 AM 40.3°F 39.9°F / 40.5°F 39.2°F / 42.4°F 30.06 inHg 69% 0.00″
04/18/2016 02:30 AM 39.4°F 39.2°F / 40.6°F 39.2°F / 42.4°F 30.07 inHg 70% 0.00″
04/18/2016 01:30 AM 41.7°F 41.7°F / 42.3°F 41.7°F / 42.4°F 30.08 inHg 58% 0.00″
04/18/2016 12:30 AM 42.3°F 42.1°F / 42.4°F 42.1°F / 42.4°F 30.08 inHg 57% 0.00″
04/17/2016 11:29 PM 42.4°F 42.4°F / 43.0°F 34.3°F / 57.0°F 30.08 inHg 57% 0.00″
04/17/2016 10:28 PM 43.5°F 43.5°F / 44.1°F 34.3°F / 57.0°F 30.08 inHg 55% 0.00″
04/17/2016 09:28 PM 44.8°F 44.6°F / 45.0°F 34.3°F / 57.0°F 30.06 inHg 49% 0.00″
04/17/2016 08:28 PM 44.4°F 44.4°F / 45.9°F 34.3°F / 57.0°F 30.04 inHg 42% 0.00″
04/17/2016 07:28 PM 49.5°F 49.5°F / 52.5°F 34.3°F / 57.0°F 30.01 inHg 36% 0.00″
04/17/2016 06:28 PM 55.2°F 52.9°F / 55.8°F 34.3°F / 57.0°F 29.99 inHg 28% 0.00″
04/17/2016 05:28 PM 54.9°F 54.3°F / 56.8°F 34.3°F / 57.0°F 29.98 inHg 30% 0.00″
04/17/2016 04:27 PM 53.2°F 53.1°F / 54.3°F 34.3°F / 57.0°F 29.98 inHg 32% 0.00″
04/17/2016 03:27 PM 57.0°F 53.4°F / 57.0°F 34.3°F / 57.0°F 29.97 inHg 28% 0.00″
04/17/2016 02:27 PM 53.1°F 52.3°F / 55.0°F 34.3°F / 55.8°F 29.97 inHg 33% 0.00″
04/17/2016 01:26 PM 53.8°F 50.7°F / 54.0°F 34.3°F / 54.0°F 29.96 inHg 34% 0.00″
04/17/2016 12:25 PM 50.7°F 49.8°F / 51.1°F 34.3°F / 51.1°F 29.98 inHg 47% 0.00″
04/17/2016 11:25 AM 49.1°F 49.1°F / 49.6°F 34.3°F / 49.6°F 30.01 inHg 47% 0.00″
04/17/2016 10:25 AM 46.0°F 43.3°F / 46.0°F 34.3°F / 46.0°F 30.01 inHg 53% 0.00″
04/17/2016 09:25 AM 44.4°F 42.6°F / 44.8°F 34.3°F / 44.8°F 30.01 inHg 53% 0.00″
04/17/2016 08:25 AM 39.4°F 37.6°F / 39.4°F 34.3°F / 39.4°F 29.99 inHg 61% 0.00″
04/17/2016 07:25 AM 36.7°F 36.7°F / 36.7°F 34.3°F / 38.5°F 0.00 inHg 66% 0.00″
04/17/2016 12:36 AM 36.7°F 36.7°F / 38.5°F 36.7°F / 38.5°F 29.88 inHg 64% 0.00″
04/16/2016 11:36 PM 37.9°F 37.6°F / 38.5°F 37.6°F / 55.2°F 29.86 inHg 61% 0.00″
04/16/2016 10:36 PM 38.1°F 38.1°F / 39.2°F 38.1°F / 55.2°F 29.85 inHg 60% 0.00″
04/16/2016 09:36 PM 39.2°F 39.0°F / 41.2°F 39.0°F / 55.2°F 29.84 inHg 62% 0.00″
04/16/2016 08:36 PM 41.7°F 41.5°F / 41.7°F 39.7°F / 55.2°F 29.81 inHg 59% 0.00″
04/16/2016 07:36 PM 42.3°F 42.3°F / 46.8°F 39.7°F / 55.2°F 29.78 inHg 58% 0.00″
04/16/2016 06:35 PM 47.5°F 46.8°F / 47.5°F 39.7°F / 55.2°F 29.73 inHg 38% 0.00″
04/16/2016 05:35 PM 48.7°F 48.7°F / 49.8°F 39.7°F / 55.2°F 29.70 inHg 37% 0.00″
04/16/2016 04:35 PM 49.3°F 48.7°F / 49.5°F 39.7°F / 55.2°F 29.66 inHg 33% 0.00″
04/16/2016 03:34 PM 49.5°F 49.5°F / 51.3°F 39.7°F / 55.2°F 29.64 inHg 32% 0.00″
04/16/2016 02:33 PM 48.7°F 48.7°F / 51.4°F 39.7°F / 55.2°F 29.62 inHg 33% 0.00″
04/16/2016 01:33 PM 49.5°F 47.5°F / 51.6°F 39.7°F / 55.2°F 29.61 inHg 33% 0.00″
04/16/2016 12:33 PM 47.7°F 46.9°F / 49.1°F 39.7°F / 55.2°F 29.60 inHg 35% 0.00″
04/16/2016 11:33 AM 47.8°F 45.9°F / 47.8°F 39.7°F / 55.2°F 29.57 inHg 32% 0.00″
04/16/2016 10:33 AM 45.1°F 44.1°F / 45.3°F 39.7°F / 55.2°F 29.55 inHg 29% 0.00″
04/16/2016 09:33 AM 42.6°F 41.7°F / 42.6°F 39.7°F / 55.2°F 29.53 inHg 27% 0.00″
04/16/2016 08:32 AM 41.2°F 40.6°F / 41.4°F 39.7°F / 55.2°F 29.50 inHg 26% 0.00″
04/16/2016 07:32 AM 39.7°F 39.7°F / 39.7°F 39.7°F / 55.2°F 0.00 inHg 31% 0.00″
04/16/2016 06:22 AM 43.0°F 43.0°F / 43.9°F 43.0°F / 55.2°F 29.49 inHg 32% 0.00″
04/16/2016 05:22 AM 44.8°F 44.8°F / 45.1°F 44.8°F / 55.2°F 29.47 inHg 33% 0.00″
04/16/2016 04:22 AM 46.0°F 46.0°F / 46.8°F 46.0°F / 55.2°F 29.46 inHg 35% 0.00″
04/16/2016 03:22 AM 47.8°F 47.8°F / 48.6°F 47.8°F / 55.2°F 29.44 inHg 38% 0.00″
04/16/2016 02:22 AM 49.5°F 49.5°F / 49.8°F 49.5°F / 55.2°F 29.42 inHg 37% 0.00″
04/16/2016 01:22 AM 51.4°F 51.4°F / 52.7°F 51.4°F / 55.2°F 29.43 inHg 35% 0.00″
04/16/2016 12:22 AM 54.3°F 54.1°F / 55.2°F 54.1°F / 55.2°F 29.44 inHg 29% 0.00″
04/15/2016 11:22 PM 57.4°F 57.2°F / 57.6°F 48.4°F / 68.5°F 29.44 inHg 23% 0.00″
04/15/2016 10:22 PM 59.2°F 59.2°F / 59.5°F 48.4°F / 68.5°F 29.44 inHg 21% 0.00″
04/15/2016 09:22 PM 60.1°F 60.1°F / 60.4°F 48.4°F / 68.5°F 29.44 inHg 22% 0.00″
04/15/2016 08:22 PM 61.2°F 60.4°F / 61.2°F 48.4°F / 68.5°F 29.42 inHg 21% 0.00″
04/15/2016 07:22 PM 61.2°F 61.2°F / 63.1°F 48.4°F / 68.5°F 29.41 inHg 19% 0.00″
04/15/2016 06:22 PM 64.2°F 64.2°F / 65.5°F 48.4°F / 68.5°F 29.40 inHg 16% 0.00″
04/15/2016 05:22 PM 66.4°F 64.8°F / 66.6°F 48.4°F / 68.5°F 29.41 inHg 16% 0.00″
04/15/2016 04:22 PM 65.1°F 64.8°F / 66.9°F 48.4°F / 68.5°F 29.41 inHg 22% 0.00″
04/15/2016 03:21 PM 68.2°F 66.4°F / 68.2°F 48.4°F / 68.2°F 29.42 inHg 25% 0.00″
04/15/2016 02:21 PM 65.8°F 64.9°F / 66.6°F 48.4°F / 66.6°F 29.45 inHg 26% 0.00″
04/15/2016 01:21 PM 63.9°F 63.1°F / 64.0°F 48.4°F / 64.0°F 29.47 inHg 26% 0.00″
04/15/2016 12:21 PM 62.8°F 61.9°F / 63.3°F 48.4°F / 63.3°F 29.50 inHg 24% 0.00″
04/15/2016 11:21 AM 61.0°F 60.3°F / 61.3°F 48.4°F / 61.3°F 29.53 inHg 29% 0.00″
04/15/2016 10:21 AM 58.6°F 58.3°F / 59.4°F 48.4°F / 59.4°F 29.54 inHg 34% 0.00″
04/15/2016 09:21 AM 58.6°F 57.9°F / 58.6°F 48.4°F / 58.6°F 29.55 inHg 31% 0.00″
04/15/2016 08:21 AM 57.2°F 56.5°F / 57.2°F 48.4°F / 58.6°F 29.56 inHg 32% 0.00″
04/15/2016 07:21 AM 53.8°F 52.3°F / 53.8°F 48.4°F / 58.6°F 29.56 inHg 36% 0.00″
04/15/2016 06:21 AM 49.3°F 49.3°F / 50.0°F 49.3°F / 58.6°F 29.56 inHg 44% 0.00″
04/15/2016 05:21 AM 50.7°F 50.7°F / 53.1°F 50.7°F / 58.6°F 29.55 inHg 40% 0.00″
04/15/2016 04:21 AM 55.8°F 55.8°F / 57.4°F 55.2°F / 58.6°F 29.57 inHg 32% 0.00″
04/15/2016 03:21 AM 57.7°F 57.7°F / 58.5°F 55.2°F / 58.6°F 29.58 inHg 25% 0.00″
04/15/2016 02:21 AM 58.1°F 57.6°F / 58.1°F 55.2°F / 58.6°F 29.60 inHg 26% 0.00″
04/15/2016 01:21 AM 58.5°F 57.4°F / 58.6°F 55.2°F / 58.6°F 29.63 inHg 28% 0.00″
04/15/2016 12:21 AM 55.8°F 55.2°F / 55.9°F 55.2°F / 55.9°F 29.65 inHg 33% 0.00″
04/14/2016 11:21 PM 55.0°F 54.9°F / 55.8°F 41.7°F / 69.6°F 29.67 inHg 32% 0.00″
04/14/2016 10:21 PM 55.6°F 55.2°F / 55.9°F 41.7°F / 69.6°F 29.70 inHg 30% 0.00″
04/14/2016 09:21 PM 56.3°F 55.0°F / 56.5°F 41.7°F / 69.6°F 29.71 inHg 32% 0.00″
04/14/2016 08:21 PM 55.8°F 55.8°F / 57.9°F 41.7°F / 69.6°F 29.70 inHg 32% 0.00″
04/14/2016 07:21 PM 64.2°F 64.2°F / 65.7°F 41.7°F / 69.6°F 29.70 inHg 23% 0.00″
04/14/2016 06:20 PM 67.1°F 67.1°F / 68.2°F 41.7°F / 69.6°F 29.71 inHg 22% 0.00″
04/14/2016 05:20 PM 68.7°F 68.2°F / 69.4°F 41.7°F / 69.6°F 29.72 inHg 22% 0.00″
04/14/2016 04:20 PM 68.4°F 67.8°F / 69.1°F 41.7°F / 69.1°F 29.75 inHg 22% 0.00″
04/14/2016 03:20 PM 67.5°F 67.3°F / 68.2°F 41.7°F / 68.2°F 29.79 inHg 23% 0.00″
04/14/2016 02:20 PM 65.8°F 64.8°F / 66.7°F 41.7°F / 66.7°F 29.82 inHg 23% 0.00″
04/14/2016 01:20 PM 65.8°F 64.0°F / 66.0°F 41.7°F / 66.0°F 29.85 inHg 25% 0.00″
04/14/2016 12:20 PM 63.3°F 62.8°F / 63.5°F 41.7°F / 63.5°F 29.89 inHg 30% 0.00″
04/14/2016 11:20 AM 62.2°F 61.5°F / 62.8°F 41.7°F / 62.8°F 29.92 inHg 32% 0.00″
04/14/2016 10:20 AM 61.5°F 60.4°F / 61.7°F 41.7°F / 61.7°F 29.93 inHg 30% 0.00″
04/14/2016 09:20 AM 58.8°F 55.0°F / 58.8°F 41.7°F / 58.8°F 29.94 inHg 35% 0.00″
04/14/2016 08:20 AM 46.8°F 45.0°F / 46.8°F 41.7°F / 47.1°F 29.95 inHg 65% 0.00″
04/14/2016 07:20 AM 46.4°F 43.9°F / 46.4°F 41.7°F / 46.4°F 29.95 inHg 61% 0.00″
04/14/2016 06:20 AM 43.2°F 43.2°F / 43.7°F 42.3°F / 46.2°F 29.95 inHg 69% 0.00″
04/14/2016 05:19 AM 45.0°F 44.2°F / 45.3°F 42.3°F / 46.2°F 29.94 inHg 65% 0.00″
04/14/2016 04:19 AM 44.1°F 42.4°F / 44.1°F 42.3°F / 46.2°F 29.95 inHg 67% 0.00″
04/14/2016 03:19 AM 43.3°F 43.3°F / 43.7°F 42.3°F / 46.2°F 29.96 inHg 68% 0.00″
04/14/2016 02:19 AM 44.1°F 43.2°F / 44.1°F 42.3°F / 44.1°F 29.97 inHg 65% 0.00″
04/14/2016 01:19 AM 42.4°F 42.4°F / 43.2°F 42.4°F / 43.3°F 29.98 inHg 70% 0.00″
04/14/2016 12:19 AM 43.0°F 42.8°F / 43.2°F 42.8°F / 43.2°F 29.99 inHg 67% 0.00″
04/13/2016 11:19 PM 45.7°F 44.2°F / 45.7°F 36.0°F / 63.3°F 29.99 inHg 62% 0.00″
04/13/2016 10:19 PM 46.4°F 45.1°F / 46.6°F 36.0°F / 63.3°F 30.00 inHg 60% 0.00″
04/13/2016 09:18 PM 46.4°F 46.4°F / 49.5°F 36.0°F / 63.3°F 30.00 inHg 63% 0.00″
04/13/2016 08:18 PM 51.1°F 51.1°F / 52.0°F 36.0°F / 63.3°F 29.99 inHg 55% 0.00″
04/13/2016 07:18 PM 58.5°F 57.9°F / 59.4°F 36.0°F / 63.3°F 29.99 inHg 45% 0.00″
04/13/2016 06:18 PM 61.0°F 60.6°F / 62.2°F 36.0°F / 63.3°F 30.00 inHg 37% 0.00″
04/13/2016 05:18 PM 61.3°F 60.6°F / 61.9°F 36.0°F / 61.9°F 30.01 inHg 35% 0.00″
04/13/2016 04:18 PM 60.6°F 60.1°F / 61.0°F 36.0°F / 61.3°F 30.02 inHg 46% 0.00″
04/13/2016 03:18 PM 59.5°F 59.5°F / 60.3°F 36.0°F / 60.3°F 30.05 inHg 45% 0.00″
04/13/2016 02:18 PM 58.5°F 57.0°F / 58.8°F 36.0°F / 58.8°F 30.07 inHg 53% 0.00″
04/13/2016 01:18 PM 56.3°F 55.0°F / 56.7°F 36.0°F / 56.7°F 30.10 inHg 61% 0.00″
04/13/2016 12:18 PM 54.9°F 53.4°F / 55.0°F 36.0°F / 55.0°F 30.12 inHg 67% 0.00″
04/13/2016 11:18 AM 52.5°F 52.3°F / 53.1°F 36.0°F / 53.1°F 30.15 inHg 69% 0.00″
04/13/2016 10:18 AM 51.3°F 50.5°F / 51.4°F 36.0°F / 51.4°F 30.15 inHg 67% 0.00″
04/13/2016 09:18 AM 46.9°F 44.8°F / 46.9°F 36.0°F / 46.9°F 30.15 inHg 73% 0.00″
04/13/2016 08:18 AM 40.3°F 38.1°F / 40.3°F 36.0°F / 40.3°F 30.15 inHg 95% 0.00″
04/13/2016 07:18 AM 36.7°F 36.3°F / 36.9°F 36.0°F / 38.8°F 30.14 inHg 95% 0.00″
04/13/2016 06:18 AM 37.6°F 37.2°F / 37.8°F 36.0°F / 38.8°F 30.11 inHg 95% 0.00″
04/13/2016 05:18 AM 38.1°F 37.6°F / 38.1°F 36.0°F / 38.1°F 30.09 inHg 95% 0.00″
04/13/2016 04:18 AM 37.9°F 37.0°F / 37.9°F 36.0°F / 37.9°F 30.08 inHg 95% 0.00″
04/13/2016 03:18 AM 36.7°F 36.7°F / 36.9°F 36.0°F / 37.0°F 30.08 inHg 95% 0.00″
04/13/2016 02:17 AM 36.3°F 36.3°F / 36.7°F 36.0°F / 36.7°F 30.09 inHg 95% 0.00″
04/13/2016 01:17 AM 36.3°F 36.1°F / 36.7°F 36.0°F / 36.7°F 30.09 inHg 95% 0.00″
04/13/2016 12:17 AM 36.3°F 36.3°F / 36.5°F 36.3°F / 36.5°F 30.10 inHg 93% 0.00″
04/12/2016 11:17 PM 36.1°F 36.1°F / 36.7°F 35.2°F / 49.5°F 30.09 inHg 93% 0.30″
04/12/2016 10:17 PM 35.2°F 35.2°F / 35.6°F 35.2°F / 49.5°F 30.09 inHg 93% 0.30″
04/12/2016 09:17 PM 36.3°F 36.3°F / 37.2°F 36.3°F / 49.5°F 30.07 inHg 90% 0.30″
04/12/2016 08:17 PM 39.0°F 39.0°F / 39.4°F 36.9°F / 49.5°F 30.04 inHg 90% 0.30″
04/12/2016 07:17 PM 44.6°F 44.6°F / 46.9°F 36.9°F / 49.5°F 30.02 inHg 77% 0.30″
04/12/2016 06:16 PM 46.9°F 46.9°F / 48.4°F 36.9°F / 49.5°F 30.00 inHg 75% 0.30″
04/12/2016 05:16 PM 44.2°F 42.3°F / 44.2°F 36.9°F / 49.5°F 29.99 inHg 88% 0.30″
04/12/2016 04:16 PM 37.9°F 37.6°F / 38.1°F 36.9°F / 49.5°F 30.01 inHg 95% 0.30″
04/12/2016 03:16 PM 37.2°F 37.2°F / 37.6°F 37.2°F / 49.5°F 30.01 inHg 95% 0.25″
04/12/2016 02:16 PM 41.0°F 41.0°F / 42.3°F 41.0°F / 49.5°F 29.99 inHg 91% 0.21″
04/12/2016 01:16 PM 43.3°F 42.4°F / 43.3°F 42.4°F / 49.5°F 29.96 inHg 91% 0.07″
04/12/2016 12:16 PM 42.8°F 42.6°F / 43.3°F 42.6°F / 49.5°F 29.98 inHg 91% 0.04″
04/12/2016 11:16 AM 46.6°F 46.6°F / 47.7°F 43.5°F / 49.5°F 29.98 inHg 70% 0.00″
04/12/2016 10:16 AM 48.0°F 48.0°F / 49.5°F 43.5°F / 49.5°F 29.97 inHg 67% 0.00″
04/12/2016 09:16 AM 45.9°F 45.9°F / 46.2°F 43.5°F / 48.7°F 29.99 inHg 72% 0.00″
04/12/2016 08:16 AM 48.4°F 48.0°F / 48.4°F 43.5°F / 48.4°F 29.98 inHg 59% 0.00″
04/12/2016 07:16 AM 44.6°F 44.4°F / 45.1°F 43.5°F / 48.4°F 29.97 inHg 62% 0.00″
04/12/2016 06:16 AM 45.7°F 44.8°F / 45.7°F 43.5°F / 48.4°F 29.97 inHg 60% 0.00″
04/12/2016 05:16 AM 45.7°F 45.7°F / 46.0°F 45.3°F / 48.4°F 29.97 inHg 51% 0.00″
04/12/2016 04:15 AM 47.8°F 47.7°F / 48.0°F 45.3°F / 48.4°F 29.99 inHg 47% 0.00″
04/12/2016 03:15 AM 47.1°F 47.1°F / 47.7°F 45.3°F / 47.7°F 29.98 inHg 49% 0.00″
04/12/2016 02:15 AM 46.9°F 46.6°F / 46.9°F 45.3°F / 46.9°F 29.99 inHg 49% 0.00″
04/12/2016 01:15 AM 45.9°F 45.7°F / 45.9°F 45.3°F / 46.2°F 30.00 inHg 56% 0.00″
04/12/2016 12:15 AM 45.7°F 45.3°F / 45.7°F 45.3°F / 45.7°F 29.99 inHg 56% 0.00″
04/11/2016 11:15 PM 46.0°F 45.9°F / 46.0°F 36.7°F / 61.0°F 30.00 inHg 60% 0.00″
04/11/2016 10:15 PM 46.6°F 46.4°F / 46.8°F 36.7°F / 61.0°F 30.00 inHg 61% 0.00″
04/11/2016 09:15 PM 48.4°F 48.2°F / 48.6°F 36.7°F / 61.0°F 29.99 inHg 59% 0.00″
04/11/2016 08:15 PM 51.1°F 51.1°F / 52.0°F 36.7°F / 61.0°F 29.97 inHg 50% 0.00″
04/11/2016 07:15 PM 56.7°F 56.5°F / 58.1°F 36.7°F / 61.0°F 29.95 inHg 34% 0.00″
04/11/2016 06:15 PM 58.6°F 58.5°F / 59.4°F 36.7°F / 61.0°F 29.93 inHg 33% 0.00″
04/11/2016 05:14 PM 59.5°F 59.5°F / 60.3°F 36.7°F / 61.0°F 29.92 inHg 31% 0.00″
04/11/2016 04:14 PM 59.5°F 59.4°F / 60.4°F 36.7°F / 60.4°F 29.92 inHg 30% 0.00″
04/11/2016 03:14 PM 59.5°F 58.5°F / 59.7°F 36.7°F / 60.1°F 29.93 inHg 30% 0.00″
04/11/2016 02:14 PM 57.7°F 56.8°F / 57.9°F 36.7°F / 57.9°F 29.94 inHg 33% 0.00″
04/11/2016 01:14 PM 55.8°F 54.9°F / 55.9°F 36.7°F / 55.9°F 29.94 inHg 34% 0.00″
04/11/2016 12:14 PM 52.3°F 51.4°F / 53.1°F 36.7°F / 53.1°F 29.94 inHg 42% 0.00″
04/11/2016 11:14 AM 49.6°F 49.6°F / 50.9°F 36.7°F / 50.9°F 29.94 inHg 45% 0.00″
04/11/2016 09:14 AM 43.9°F 43.0°F / 44.1°F 36.7°F / 47.1°F 29.90 inHg 64% 0.00″
04/11/2016 08:14 AM 39.9°F 39.9°F / 40.5°F 36.7°F / 47.1°F 29.87 inHg 70% 0.00″
04/11/2016 07:14 AM 37.6°F 37.2°F / 37.6°F 36.7°F / 47.1°F 29.85 inHg 70% 0.00″
04/11/2016 06:14 AM 39.4°F 39.4°F / 39.6°F 39.4°F / 47.1°F 29.84 inHg 64% 0.00″
04/11/2016 05:13 AM 42.6°F 42.4°F / 42.6°F 41.4°F / 47.1°F 29.83 inHg 58% 0.00″
04/11/2016 04:13 AM 41.7°F 41.5°F / 41.7°F 41.5°F / 47.1°F 29.81 inHg 62% 0.00″
04/11/2016 03:13 AM 43.7°F 43.5°F / 43.9°F 43.5°F / 47.1°F 29.80 inHg 62% 0.00″
04/11/2016 02:13 AM 44.4°F 44.4°F / 44.6°F 44.4°F / 47.1°F 29.81 inHg 62% 0.00″
04/11/2016 01:13 AM 45.3°F 45.3°F / 46.0°F 45.3°F / 47.1°F 29.82 inHg 61% 0.00″
04/11/2016 12:13 AM 46.9°F 46.9°F / 47.1°F 46.9°F / 47.1°F 29.80 inHg 54% 0.00″
04/10/2016 11:13 PM 48.6°F 48.6°F / 48.9°F 44.8°F / 63.3°F 29.79 inHg 50% 0.00″
04/10/2016 10:13 PM 49.8°F 49.8°F / 50.2°F 44.8°F / 63.3°F 29.78 inHg 47% 0.00″
04/10/2016 09:13 PM 51.4°F 51.4°F / 52.2°F 44.8°F / 63.3°F 29.75 inHg 39% 0.00″
04/10/2016 08:13 PM 54.0°F 54.0°F / 54.7°F 44.8°F / 63.3°F 29.72 inHg 32% 0.00″
04/10/2016 07:13 PM 57.0°F 57.0°F / 57.7°F 44.8°F / 63.3°F 29.68 inHg 23% 0.00″
04/10/2016 06:12 PM 58.5°F 57.6°F / 58.5°F 44.8°F / 63.3°F 29.67 inHg 23% 0.00″
04/10/2016 05:12 PM 58.3°F 58.3°F / 60.6°F 44.8°F / 63.3°F 29.68 inHg 24% 0.00″
04/10/2016 04:12 PM 58.3°F 57.9°F / 58.5°F 44.8°F / 63.3°F 29.70 inHg 24% 0.00″
04/10/2016 03:12 PM 61.3°F 60.8°F / 61.7°F 44.8°F / 63.3°F 29.73 inHg 20% 0.00″
04/10/2016 02:12 PM 62.4°F 62.1°F / 63.1°F 44.8°F / 63.1°F 29.73 inHg 20% 0.00″
04/10/2016 01:12 PM 62.2°F 61.7°F / 63.0°F 44.8°F / 63.0°F 29.74 inHg 25% 0.00″
04/10/2016 12:12 PM 61.3°F 60.6°F / 61.5°F 44.8°F / 61.5°F 29.75 inHg 26% 0.00″
04/10/2016 11:12 AM 58.5°F 58.3°F / 59.2°F 44.8°F / 59.2°F 29.78 inHg 31% 0.00″
04/10/2016 10:12 AM 57.4°F 56.5°F / 57.4°F 44.8°F / 57.4°F 29.79 inHg 33% 0.00″
04/10/2016 09:12 AM 55.6°F 55.6°F / 55.8°F 44.8°F / 55.8°F 29.80 inHg 31% 0.00″
04/10/2016 08:12 AM 51.4°F 49.8°F / 51.4°F 44.8°F / 51.8°F 29.80 inHg 38% 0.00″
04/10/2016 07:12 AM 45.7°F 45.1°F / 45.7°F 44.8°F / 51.8°F 29.78 inHg 46% 0.00″
04/10/2016 06:12 AM 45.0°F 45.0°F / 45.1°F 45.0°F / 51.8°F 29.77 inHg 47% 0.00″
04/10/2016 05:12 AM 45.5°F 45.5°F / 46.0°F 45.5°F / 51.8°F 29.77 inHg 47% 0.00″
04/10/2016 04:12 AM 46.8°F 46.8°F / 47.5°F 46.8°F / 51.8°F 29.78 inHg 44% 0.00″
04/10/2016 03:12 AM 49.3°F 48.9°F / 49.6°F 47.8°F / 51.8°F 29.80 inHg 39% 0.00″
04/10/2016 02:12 AM 48.9°F 48.6°F / 49.1°F 47.8°F / 51.8°F 29.82 inHg 40% 0.00″
04/10/2016 01:12 AM 48.2°F 47.8°F / 48.4°F 47.8°F / 48.4°F 29.83 inHg 46% 0.00″
04/10/2016 12:11 AM 48.0°F 48.0°F / 48.4°F 48.0°F / 48.4°F 29.83 inHg 48% 0.00″
04/09/2016 11:11 PM 50.0°F 48.6°F / 50.2°F 38.8°F / 63.7°F 29.84 inHg 44% 0.10″
04/09/2016 10:11 PM 49.5°F 49.3°F / 49.8°F 38.8°F / 63.7°F 29.84 inHg 45% 0.10″
04/09/2016 09:11 PM 51.1°F 50.7°F / 51.3°F 38.8°F / 63.7°F 29.84 inHg 43% 0.10″
04/09/2016 08:11 PM 53.4°F 53.4°F / 54.1°F 38.8°F / 63.7°F 29.83 inHg 43% 0.10″
04/09/2016 07:11 PM 60.1°F 60.1°F / 60.8°F 38.8°F / 63.7°F 29.82 inHg 37% 0.10″
04/09/2016 06:11 PM 62.2°F 62.2°F / 63.3°F 38.8°F / 63.7°F 29.83 inHg 34% 0.10″
04/09/2016 05:11 PM 63.1°F 62.8°F / 63.1°F 38.8°F / 63.7°F 29.83 inHg 35% 0.10″
04/09/2016 04:11 PM 61.2°F 61.2°F / 62.4°F 38.8°F / 62.4°F 29.85 inHg 39% 0.10″
04/09/2016 03:11 PM 60.3°F 60.3°F / 61.3°F 38.8°F / 61.3°F 29.88 inHg 40% 0.10″
04/09/2016 02:11 PM 59.5°F 58.5°F / 59.5°F 38.8°F / 59.7°F 29.91 inHg 49% 0.10″
04/09/2016 01:11 PM 58.1°F 58.1°F / 59.2°F 38.8°F / 59.2°F 29.92 inHg 50% 0.10″
04/09/2016 12:11 PM 55.6°F 55.0°F / 57.2°F 38.8°F / 57.6°F 29.93 inHg 60% 0.10″
04/09/2016 11:11 AM 55.9°F 55.2°F / 55.9°F 38.8°F / 56.1°F 29.95 inHg 62% 0.10″
04/09/2016 10:11 AM 53.8°F 53.4°F / 54.0°F 38.8°F / 54.0°F 29.94 inHg 65% 0.10″
04/09/2016 09:11 AM 48.2°F 46.9°F / 48.2°F 38.8°F / 49.3°F 29.94 inHg 89% 0.10″
04/09/2016 08:11 AM 43.2°F 42.4°F / 43.2°F 38.8°F / 49.3°F 29.93 inHg 96% 0.10″
04/09/2016 07:11 AM 41.5°F 41.4°F / 41.5°F 38.8°F / 49.3°F 29.91 inHg 96% 0.10″
04/09/2016 06:11 AM 39.4°F 39.0°F / 39.4°F 38.8°F / 49.3°F 29.91 inHg 95% 0.10″
04/09/2016 05:11 AM 39.4°F 39.4°F / 39.4°F 39.4°F / 49.3°F 29.90 inHg 95% 0.10″
04/09/2016 04:11 AM 40.1°F 40.1°F / 40.5°F 40.1°F / 49.3°F 29.88 inHg 94% 0.10″
04/09/2016 03:10 AM 42.1°F 42.1°F / 42.6°F 42.1°F / 49.3°F 29.87 inHg 92% 0.10″
04/09/2016 02:10 AM 44.8°F 44.8°F / 45.0°F 44.8°F / 49.3°F 29.89 inHg 93% 0.10″
04/09/2016 01:10 AM 45.3°F 45.1°F / 45.3°F 45.1°F / 49.3°F 29.87 inHg 83% 0.10″
04/09/2016 12:10 AM 48.0°F 48.0°F / 49.3°F 48.0°F / 49.3°F 29.90 inHg 83% 0.01″
04/08/2016 11:10 PM 48.6°F 47.8°F / 48.6°F 43.9°F / 60.1°F 29.87 inHg 82% 0.03″
04/08/2016 10:10 PM 47.5°F 47.5°F / 49.3°F 43.9°F / 60.1°F 29.92 inHg 87% 0.03″
04/08/2016 09:10 PM 50.7°F 50.7°F / 50.7°F 43.9°F / 60.1°F 29.88 inHg 65% 0.00″
04/08/2016 07:10 PM 52.9°F 52.9°F / 53.8°F 43.9°F / 60.1°F 29.84 inHg 56% 0.00″
04/08/2016 06:10 PM 54.9°F 54.9°F / 55.8°F 43.9°F / 60.1°F 29.85 inHg 53% 0.00″
04/08/2016 05:10 PM 57.7°F 57.6°F / 58.1°F 43.9°F / 60.1°F 29.85 inHg 49% 0.00″
04/08/2016 04:10 PM 59.0°F 59.0°F / 60.1°F 43.9°F / 60.1°F 29.85 inHg 45% 0.00″
04/08/2016 03:10 PM 54.3°F 54.1°F / 54.9°F 43.9°F / 59.5°F 29.88 inHg 67% 0.00″
04/08/2016 02:10 PM 54.1°F 54.1°F / 54.5°F 43.9°F / 59.5°F 29.88 inHg 66% 0.00″
04/08/2016 01:10 PM 58.6°F 58.3°F / 58.8°F 43.9°F / 58.8°F 29.89 inHg 44% 0.00″
04/08/2016 12:09 PM 53.4°F 53.4°F / 54.0°F 43.9°F / 57.7°F 29.91 inHg 59% 0.00″
04/08/2016 11:09 AM 55.0°F 54.7°F / 55.2°F 43.9°F / 57.7°F 29.91 inHg 56% 0.00″
04/08/2016 10:09 AM 53.1°F 53.1°F / 54.7°F 43.9°F / 55.6°F 29.93 inHg 54% 0.00″
04/08/2016 09:09 AM 51.3°F 50.7°F / 51.3°F 43.9°F / 52.3°F 29.93 inHg 53% 0.00″
04/08/2016 08:09 AM 47.7°F 47.5°F / 47.7°F 43.9°F / 52.3°F 29.91 inHg 60% 0.00″
04/08/2016 07:09 AM 45.7°F 45.3°F / 45.7°F 43.9°F / 52.3°F 29.91 inHg 62% 0.00″
04/08/2016 06:09 AM 44.4°F 44.4°F / 45.1°F 43.9°F / 52.3°F 29.89 inHg 68% 0.00″
04/08/2016 05:09 AM 45.0°F 45.0°F / 45.1°F 44.4°F / 52.3°F 29.89 inHg 64% 0.00″
04/08/2016 04:09 AM 45.1°F 45.1°F / 46.4°F 45.1°F / 52.3°F 29.87 inHg 63% 0.00″
04/08/2016 03:09 AM 48.6°F 48.6°F / 48.7°F 48.6°F / 52.3°F 29.88 inHg 45% 0.00″
04/08/2016 02:09 AM 50.0°F 49.8°F / 50.2°F 49.8°F / 52.3°F 29.90 inHg 40% 0.00″
04/08/2016 01:09 AM 50.7°F 50.7°F / 50.9°F 50.7°F / 52.3°F 29.91 inHg 37% 0.00″
04/08/2016 12:09 AM 52.2°F 52.2°F / 52.3°F 52.2°F / 52.3°F 29.91 inHg 33% 0.00″
04/07/2016 11:09 PM 54.1°F 54.1°F / 54.9°F 44.4°F / 72.5°F 29.91 inHg 30% 0.00″
04/07/2016 10:09 PM 56.7°F 56.7°F / 56.7°F 44.4°F / 72.5°F 29.92 inHg 27% 0.00″
04/07/2016 09:09 PM 57.0°F 57.0°F / 57.0°F 44.4°F / 72.5°F 29.93 inHg 25% 0.00″
04/07/2016 08:09 PM 58.3°F 58.3°F / 58.5°F 44.4°F / 72.5°F 29.91 inHg 23% 0.00″
04/07/2016 07:09 PM 61.3°F 61.3°F / 61.9°F 44.4°F / 72.5°F 29.89 inHg 22% 0.00″
04/07/2016 06:09 PM 63.9°F 63.9°F / 64.2°F 44.4°F / 72.5°F 29.89 inHg 19% 0.00″
04/07/2016 05:09 PM 66.7°F 66.6°F / 66.7°F 44.4°F / 72.5°F 29.88 inHg 17% 0.00″
04/07/2016 04:09 PM 69.4°F 69.4°F / 71.1°F 44.4°F / 72.5°F 29.88 inHg 16% 0.00″
04/07/2016 03:09 PM 67.6°F 67.3°F / 67.8°F 44.4°F / 71.2°F 29.88 inHg 10% 0.00″
04/07/2016 02:08 PM 68.5°F 68.2°F / 69.1°F 44.4°F / 71.2°F 29.89 inHg 11% 0.00″
04/07/2016 01:08 PM 67.5°F 66.2°F / 67.5°F 44.4°F / 68.7°F 29.91 inHg 12% 0.00″
04/07/2016 12:08 PM 66.7°F 66.4°F / 67.1°F 44.4°F / 68.7°F 29.94 inHg 10% 0.00″
04/07/2016 11:08 AM 68.4°F 67.8°F / 68.7°F 44.4°F / 68.7°F 29.96 inHg 11% 0.00″
04/07/2016 10:08 AM 63.1°F 62.2°F / 63.1°F 44.4°F / 63.1°F 29.98 inHg 13% 0.00″
04/07/2016 09:08 AM 58.6°F 57.7°F / 58.6°F 44.4°F / 58.6°F 30.00 inHg 18% 0.00″
04/07/2016 08:08 AM 54.1°F 53.8°F / 54.3°F 44.4°F / 54.3°F 29.99 inHg 18% 0.00″
04/07/2016 07:07 AM 46.0°F 46.0°F / 46.2°F 44.4°F / 47.8°F 30.01 inHg 20% 0.00″
04/07/2016 06:07 AM 45.0°F 45.0°F / 45.3°F 44.8°F / 47.8°F 30.01 inHg 16% 0.00″
04/07/2016 05:07 AM 46.6°F 46.6°F / 46.8°F 46.4°F / 47.8°F 30.01 inHg 14% 0.00″
04/07/2016 04:07 AM 47.1°F 47.1°F / 47.1°F 46.4°F / 47.8°F 30.03 inHg 15% 0.00″
04/07/2016 03:07 AM 46.6°F 46.4°F / 46.8°F 46.4°F / 47.8°F 30.04 inHg 16% 0.00″
04/07/2016 02:07 AM 46.8°F 46.6°F / 46.8°F 46.4°F / 47.8°F 30.04 inHg 16% 0.00″
04/07/2016 01:06 AM 46.4°F 46.4°F / 46.9°F 46.4°F / 47.8°F 30.05 inHg 15% 0.00″
04/07/2016 12:06 AM 47.7°F 47.5°F / 47.7°F 47.5°F / 47.7°F 30.05 inHg 14% 0.00″
04/06/2016 11:06 PM 48.0°F 47.8°F / 48.0°F 38.8°F / 68.7°F 30.05 inHg 14% 0.00″
04/06/2016 10:06 PM 48.6°F 48.0°F / 48.7°F 38.8°F / 68.7°F 30.05 inHg 14% 0.00″
04/06/2016 09:06 PM 48.4°F 48.4°F / 48.7°F 38.8°F / 68.7°F 30.04 inHg 14% 0.00″
04/06/2016 08:06 PM 51.6°F 51.4°F / 52.0°F 38.8°F / 68.7°F 30.02 inHg 12% 0.00″
04/06/2016 07:06 PM 63.3°F 63.3°F / 65.1°F 38.8°F / 68.7°F 30.01 inHg 7% 0.00″
04/06/2016 06:05 PM 67.3°F 65.8°F / 67.3°F 38.8°F / 68.0°F 30.02 inHg 10% 0.00″
04/06/2016 05:05 PM 65.1°F 65.1°F / 65.7°F 38.8°F / 68.0°F 30.04 inHg 7% 0.00″
04/06/2016 04:05 PM 66.0°F 65.7°F / 66.0°F 38.8°F / 68.0°F 30.05 inHg 7% 0.00″
04/06/2016 03:05 PM 66.9°F 66.9°F / 67.8°F 38.8°F / 67.8°F 30.05 inHg 6% 0.00″
04/06/2016 02:05 PM 64.4°F 63.9°F / 64.4°F 38.8°F / 64.8°F 30.08 inHg 7% 0.00″
04/06/2016 01:05 PM 64.0°F 63.3°F / 64.0°F 38.8°F / 64.0°F 30.10 inHg 9% 0.00″
04/06/2016 12:05 PM 60.4°F 60.4°F / 60.8°F 38.8°F / 60.8°F 30.11 inHg 9% 0.00″
04/06/2016 11:05 AM 58.3°F 56.8°F / 58.3°F 38.8°F / 58.3°F 30.11 inHg 11% 0.00″
04/06/2016 10:05 AM 55.8°F 55.2°F / 55.8°F 38.8°F / 55.8°F 30.09 inHg 8% 0.00″
04/06/2016 09:05 AM 48.6°F 47.5°F / 48.6°F 38.8°F / 50.7°F 30.08 inHg 14% 0.00″
04/06/2016 07:04 AM 40.3°F 40.3°F / 41.2°F 40.3°F / 50.7°F 30.03 inHg 15% 0.00″
04/06/2016 06:04 AM 42.3°F 42.3°F / 42.3°F 42.3°F / 50.7°F 29.99 inHg 18% 0.00″
04/06/2016 05:04 AM 50.5°F 50.2°F / 50.5°F 45.3°F / 50.7°F 29.98 inHg 14% 0.00″
04/06/2016 04:04 AM 47.3°F 47.3°F / 47.5°F 45.3°F / 49.8°F 29.98 inHg 21% 0.00″
04/06/2016 03:04 AM 48.6°F 48.0°F / 48.6°F 47.5°F / 49.8°F 29.98 inHg 24% 0.00″
04/06/2016 02:04 AM 48.0°F 48.0°F / 48.0°F 48.0°F / 49.8°F 29.95 inHg 24% 0.00″
04/06/2016 01:04 AM 48.7°F 48.7°F / 48.7°F 48.7°F / 49.8°F 29.95 inHg 23% 0.00″
04/06/2016 12:04 AM 49.6°F 49.5°F / 49.6°F 49.5°F / 49.6°F 29.93 inHg 21% 0.00″
04/05/2016 11:04 PM 52.5°F 52.5°F / 52.5°F 47.8°F / 72.9°F 29.91 inHg 19% 0.00″
04/05/2016 10:04 PM 54.9°F 54.9°F / 55.2°F 47.8°F / 72.9°F 29.89 inHg 16% 0.00″
04/05/2016 09:04 PM 59.7°F 59.7°F / 59.7°F 47.8°F / 72.9°F 29.86 inHg 13% 0.00″
04/05/2016 08:04 PM 62.2°F 62.2°F / 62.8°F 47.8°F / 72.9°F 29.83 inHg 12% 0.00″
04/05/2016 07:04 PM 65.8°F 65.8°F / 66.0°F 47.8°F / 72.9°F 29.82 inHg 10% 0.00″
04/05/2016 06:04 PM 70.5°F 70.3°F / 70.5°F 47.8°F / 72.9°F 29.81 inHg 9% 0.00″
04/05/2016 05:04 PM 70.5°F 70.5°F / 70.9°F 47.8°F / 72.9°F 29.82 inHg 11% 0.00″
04/05/2016 04:04 PM 72.1°F 72.0°F / 72.3°F 47.8°F / 72.9°F 29.84 inHg 9% 0.00″
04/05/2016 03:04 PM 71.2°F 70.9°F / 71.2°F 47.8°F / 71.6°F 29.88 inHg 11% 0.00″
04/05/2016 02:03 PM 70.3°F 70.3°F / 71.1°F 47.8°F / 71.1°F 29.91 inHg 13% 0.00″
04/05/2016 01:03 PM 69.3°F 68.7°F / 69.3°F 47.8°F / 70.0°F 29.94 inHg 16% 0.00″
04/05/2016 12:03 PM 67.6°F 67.3°F / 67.6°F 47.8°F / 67.6°F 29.98 inHg 15% 0.00″
04/05/2016 11:03 AM 65.5°F 65.5°F / 65.8°F 47.8°F / 66.4°F 30.01 inHg 15% 0.00″
04/05/2016 10:03 AM 65.1°F 64.6°F / 65.1°F 47.8°F / 65.1°F 30.01 inHg 17% 0.00″
04/05/2016 09:03 AM 62.6°F 62.1°F / 62.6°F 47.8°F / 62.6°F 30.00 inHg 16% 0.00″
04/05/2016 08:03 AM 50.2°F 50.0°F / 50.2°F 47.8°F / 52.0°F 30.01 inHg 25% 0.00″
04/05/2016 07:03 AM 48.9°F 48.9°F / 49.1°F 47.8°F / 52.0°F 30.01 inHg 22% 0.00″
04/05/2016 06:02 AM 48.0°F 48.0°F / 48.0°F 47.8°F / 52.0°F 30.01 inHg 23% 0.00″
04/05/2016 05:02 AM 48.7°F 48.7°F / 48.7°F 48.0°F / 52.0°F 30.01 inHg 22% 0.00″
04/05/2016 04:02 AM 48.9°F 48.9°F / 48.9°F 48.0°F / 52.0°F 30.01 inHg 21% 0.00″
04/05/2016 03:02 AM 48.4°F 48.4°F / 48.4°F 48.2°F / 52.0°F 30.02 inHg 21% 0.00″
04/05/2016 02:02 AM 48.7°F 48.6°F / 48.7°F 48.4°F / 52.0°F 30.04 inHg 21% 0.00″
04/05/2016 01:02 AM 48.9°F 48.9°F / 49.1°F 48.9°F / 52.0°F 30.06 inHg 21% 0.00″
04/05/2016 12:02 AM 51.6°F 51.6°F / 51.6°F 51.6°F / 51.6°F 30.07 inHg 18% 0.00″
04/04/2016 11:01 PM 52.2°F 52.2°F / 52.2°F 39.0°F / 69.1°F 30.07 inHg 18% 0.00″
04/04/2016 10:01 PM 52.0°F 52.0°F / 52.0°F 39.0°F / 69.1°F 30.08 inHg 17% 0.00″
04/04/2016 09:01 PM 53.4°F 53.4°F / 53.6°F 39.0°F / 69.1°F 30.08 inHg 16% 0.00″
04/04/2016 08:01 PM 54.7°F 54.7°F / 54.9°F 39.0°F / 69.1°F 30.07 inHg 17% 0.00″
04/04/2016 07:01 PM 64.8°F 64.8°F / 64.9°F 39.0°F / 69.1°F 30.05 inHg 13% 0.00″
04/04/2016 06:01 PM 67.5°F 67.5°F / 67.6°F 39.0°F / 69.1°F 30.04 inHg 12% 0.00″
04/04/2016 05:01 PM 68.0°F 67.8°F / 68.0°F 39.0°F / 69.1°F 30.05 inHg 14% 0.00″
04/04/2016 04:01 PM 68.0°F 67.8°F / 68.0°F 39.0°F / 69.1°F 30.07 inHg 14% 0.00″
04/04/2016 03:01 PM 67.6°F 67.6°F / 67.8°F 39.0°F / 68.7°F 30.09 inHg 15% 0.00″
04/04/2016 02:01 PM 66.9°F 66.7°F / 66.9°F 39.0°F / 67.5°F 30.12 inHg 16% 0.00″
04/04/2016 01:01 PM 66.6°F 66.6°F / 66.6°F 39.0°F / 66.6°F 30.14 inHg 16% 0.00″
04/04/2016 12:01 PM 65.8°F 65.8°F / 65.8°F 39.0°F / 65.8°F 30.16 inHg 16% 0.00″
04/04/2016 11:01 AM 63.7°F 63.3°F / 63.7°F 39.0°F / 63.7°F 30.17 inHg 20% 0.00″
04/04/2016 10:01 AM 60.4°F 60.3°F / 60.4°F 39.0°F / 60.4°F 30.18 inHg 22% 0.00″
04/04/2016 09:00 AM 50.0°F 50.0°F / 50.0°F 39.0°F / 50.0°F 30.17 inHg 32% 0.00″
04/04/2016 08:00 AM 40.8°F 40.8°F / 40.8°F 39.0°F / 46.2°F 30.16 inHg 39% 0.00″
04/04/2016 07:00 AM 40.6°F 40.6°F / 40.6°F 39.0°F / 46.2°F 30.15 inHg 32% 0.00″
04/04/2016 06:00 AM 39.0°F 39.0°F / 39.0°F 39.0°F / 46.2°F 30.14 inHg 34% 0.00″
04/04/2016 05:00 AM 41.0°F 0.0°F / 0.0°F 39.6°F / 46.2°F 30.13 inHg 31% 0.00″
04/04/2016 04:00 AM 41.9°F 41.9°F / 42.1°F 40.1°F / 46.2°F 30.14 inHg 32% 0.00″
04/04/2016 03:00 AM 43.7°F 43.5°F / 43.7°F 40.1°F / 45.3°F 30.15 inHg 31% 0.00″
04/04/2016 02:00 AM 42.6°F 0.0°F / 0.0°F 41.7°F / 45.3°F 30.14 inHg 32% 0.00″
04/04/2016 01:00 AM 44.2°F 0.0°F / 0.0°F 44.2°F / 45.3°F 30.15 inHg 30% 0.00″
04/03/2016 11:59 PM 44.2°F 43.3°F / 44.4°F 30.4°F / 60.6°F 30.14 inHg 31% 0.00″
04/03/2016 10:59 PM 44.4°F 43.7°F / 45.1°F 30.4°F / 60.6°F 30.14 inHg 29% 0.00″
04/03/2016 09:59 PM 43.9°F 43.5°F / 46.2°F 30.4°F / 60.6°F 30.14 inHg 30% 0.00″
04/03/2016 08:59 PM 46.0°F 44.2°F / 49.1°F 30.4°F / 60.6°F 30.12 inHg 27% 0.00″
04/03/2016 07:59 PM 49.1°F 49.1°F / 57.6°F 30.4°F / 60.6°F 30.10 inHg 25% 0.00″
04/03/2016 06:59 PM 57.0°F 57.0°F / 59.5°F 30.4°F / 60.6°F 30.09 inHg 19% 0.00″
04/03/2016 05:59 PM 59.0°F 59.0°F / 60.4°F 30.4°F / 60.6°F 30.09 inHg 18% 0.00″
04/03/2016 04:59 PM 59.2°F 59.2°F / 60.6°F 30.4°F / 60.6°F 30.10 inHg 17% 0.00″
04/03/2016 03:58 PM 59.2°F 57.6°F / 60.3°F 30.4°F / 60.3°F 30.11 inHg 19% 0.00″
04/03/2016 02:58 PM 58.3°F 56.8°F / 60.1°F 30.4°F / 60.1°F 30.13 inHg 20% 0.00″
04/03/2016 01:58 PM 56.8°F 54.3°F / 57.0°F 30.4°F / 57.0°F 30.17 inHg 24% 0.00″
04/03/2016 12:58 PM 56.3°F 53.8°F / 56.3°F 30.4°F / 56.3°F 30.19 inHg 24% 0.00″
04/03/2016 11:58 AM 54.0°F 51.6°F / 54.1°F 30.4°F / 54.1°F 30.22 inHg 25% 0.00″
04/03/2016 10:58 AM 51.8°F 49.5°F / 51.8°F 30.4°F / 51.8°F 30.24 inHg 27% 0.00″
04/03/2016 09:58 AM 49.3°F 40.8°F / 49.3°F 30.4°F / 49.3°F 30.24 inHg 27% 0.00″
04/03/2016 08:58 AM 40.6°F 32.5°F / 40.6°F 30.4°F / 40.6°F 30.25 inHg 41% 0.00″
04/03/2016 07:58 AM 32.5°F 30.4°F / 32.9°F 30.4°F / 35.4°F 30.24 inHg 49% 0.00″
04/03/2016 06:58 AM 31.6°F 30.6°F / 31.6°F 30.6°F / 35.4°F 30.23 inHg 48% 0.00″
04/03/2016 05:58 AM 31.1°F 30.9°F / 32.0°F 30.7°F / 35.4°F 30.22 inHg 48% 0.00″
04/03/2016 04:58 AM 32.0°F 30.7°F / 32.5°F 30.7°F / 35.4°F 30.22 inHg 44% 0.00″
04/03/2016 03:58 AM 30.9°F 30.9°F / 32.5°F 30.9°F / 35.4°F 30.23 inHg 49% 0.00″
04/03/2016 02:57 AM 32.9°F 31.8°F / 33.4°F 31.8°F / 35.4°F 30.23 inHg 46% 0.00″
04/03/2016 01:57 AM 32.4°F 32.2°F / 33.4°F 32.2°F / 35.4°F 30.24 inHg 48% 0.00″
04/03/2016 12:57 AM 33.6°F 33.6°F / 35.4°F 33.6°F / 35.4°F 30.25 inHg 46% 0.00″
04/02/2016 11:57 PM 34.9°F 34.7°F / 38.3°F 29.5°F / 52.9°F 30.25 inHg 45% 0.00″
04/02/2016 10:57 PM 38.1°F 37.8°F / 38.8°F 29.5°F / 52.9°F 30.26 inHg 40% 0.00″
04/02/2016 09:57 PM 38.5°F 37.0°F / 39.2°F 29.5°F / 52.9°F 30.27 inHg 41% 0.00″
04/02/2016 08:57 PM 37.2°F 37.2°F / 40.8°F 29.5°F / 52.9°F 30.27 inHg 41% 0.00″
04/02/2016 07:57 PM 41.4°F 41.4°F / 48.9°F 29.5°F / 52.9°F 30.25 inHg 36% 0.00″
04/02/2016 06:56 PM 48.9°F 48.9°F / 51.3°F 29.5°F / 52.9°F 30.25 inHg 28% 0.00″
04/02/2016 05:56 PM 51.3°F 51.1°F / 52.7°F 29.5°F / 52.9°F 30.25 inHg 28% 0.00″
04/02/2016 04:56 PM 52.2°F 51.1°F / 52.9°F 29.5°F / 52.9°F 30.25 inHg 30% 0.00″
04/02/2016 03:56 PM 51.1°F 49.6°F / 52.3°F 29.5°F / 52.3°F 30.26 inHg 32% 0.00″
04/02/2016 02:56 PM 50.0°F 48.4°F / 51.6°F 29.5°F / 51.6°F 30.29 inHg 33% 0.00″
04/02/2016 01:56 PM 48.6°F 47.1°F / 49.1°F 29.5°F / 49.1°F 30.32 inHg 38% 0.00″
04/02/2016 12:56 PM 46.8°F 45.7°F / 47.7°F 29.5°F / 47.7°F 30.34 inHg 41% 0.00″
04/02/2016 11:56 AM 45.7°F 43.9°F / 46.0°F 29.5°F / 46.6°F 30.36 inHg 44% 0.00″
04/02/2016 10:56 AM 43.9°F 43.0°F / 46.6°F 29.5°F / 46.6°F 30.37 inHg 45% 0.00″
04/02/2016 09:56 AM 43.7°F 39.7°F / 44.8°F 29.5°F / 44.8°F 30.37 inHg 41% 0.00″
04/02/2016 08:56 AM 39.0°F 34.5°F / 39.0°F 29.5°F / 39.0°F 30.37 inHg 40% 0.00″
04/02/2016 07:56 AM 34.5°F 29.8°F / 34.7°F 29.5°F / 35.4°F 30.34 inHg 41% 0.00″
04/02/2016 06:56 AM 29.8°F 29.8°F / 32.2°F 29.5°F / 35.4°F 30.32 inHg 49% 0.00″
04/02/2016 05:56 AM 30.4°F 30.4°F / 35.2°F 29.5°F / 35.4°F 30.30 inHg 48% 0.00″
04/02/2016 04:56 AM 35.2°F 34.2°F / 35.4°F 29.5°F / 35.4°F 30.28 inHg 36% 0.00″
04/02/2016 03:56 AM 33.8°F 29.8°F / 33.8°F 29.5°F / 33.8°F 30.26 inHg 43% 0.00″
04/02/2016 02:56 AM 29.5°F 29.5°F / 31.6°F 29.5°F / 33.4°F 30.26 inHg 56% 0.00″
04/02/2016 01:56 AM 31.6°F 31.6°F / 32.7°F 31.6°F / 33.4°F 30.25 inHg 55% 0.00″
04/02/2016 12:56 AM 31.8°F 31.8°F / 33.4°F 31.8°F / 33.4°F 30.25 inHg 60% 0.00″
04/01/2016 11:56 PM 31.5°F 28.6°F / 31.5°F 28.4°F / 46.0°F 30.25 inHg 69% 0.02″
04/01/2016 10:55 PM 28.4°F 28.4°F / 32.2°F 28.4°F / 46.0°F 30.25 inHg 78% 0.02″
04/01/2016 09:55 PM 32.4°F 31.1°F / 33.4°F 31.1°F / 46.0°F 30.22 inHg 72% 0.02″
04/01/2016 08:55 PM 31.6°F 31.6°F / 35.1°F 31.6°F / 46.0°F 30.18 inHg 72% 0.02″
04/01/2016 07:55 PM 35.4°F 35.4°F / 42.1°F 32.0°F / 46.0°F 30.13 inHg 66% 0.02″
04/01/2016 06:55 PM 42.6°F 41.0°F / 45.7°F 32.0°F / 46.0°F 30.11 inHg 52% 0.02″
04/01/2016 05:55 PM 43.3°F 41.4°F / 46.0°F 32.0°F / 46.0°F 30.09 inHg 53% 0.02″
04/01/2016 04:55 PM 42.1°F 40.8°F / 44.8°F 32.0°F / 45.0°F 30.06 inHg 55% 0.02″
04/01/2016 03:54 PM 44.8°F 39.7°F / 44.8°F 32.0°F / 44.8°F 30.04 inHg 60% 0.02″
04/01/2016 02:54 PM 43.9°F 37.2°F / 44.8°F 32.0°F / 44.8°F 30.04 inHg 69% 0.02″
04/01/2016 01:54 PM 37.8°F 35.8°F / 37.9°F 32.0°F / 44.4°F 30.04 inHg 75% 0.00″
04/01/2016 12:54 PM 37.8°F 37.8°F / 40.8°F 32.0°F / 44.4°F 30.03 inHg 71% 0.00″
04/01/2016 11:54 AM 41.5°F 41.5°F / 44.4°F 32.0°F / 44.4°F 30.01 inHg 53% 0.00″
04/01/2016 10:54 AM 41.4°F 37.0°F / 42.1°F 32.0°F / 42.1°F 29.99 inHg 56% 0.00″
04/01/2016 09:53 AM 37.9°F 36.3°F / 38.1°F 32.0°F / 38.1°F 29.98 inHg 62% 0.00″
04/01/2016 08:53 AM 36.0°F 32.4°F / 36.0°F 32.0°F / 37.6°F 29.95 inHg 65% 0.00″
04/01/2016 07:53 AM 32.0°F 32.0°F / 33.6°F 32.0°F / 37.6°F 29.93 inHg 75% 0.00″
04/01/2016 06:53 AM 33.4°F 33.3°F / 35.1°F 33.3°F / 37.6°F 29.89 inHg 71% 0.00″
04/01/2016 05:53 AM 35.1°F 34.3°F / 35.1°F 34.0°F / 37.6°F 29.88 inHg 69% 0.00″
04/01/2016 04:53 AM 34.3°F 34.0°F / 34.9°F 34.0°F / 37.6°F 29.86 inHg 71% 0.00″
04/01/2016 03:53 AM 35.2°F 34.9°F / 35.8°F 34.9°F / 37.6°F 29.86 inHg 66% 0.00″
04/01/2016 02:53 AM 35.8°F 35.8°F / 36.7°F 35.2°F / 37.6°F 29.83 inHg 62% 0.00″
04/01/2016 01:53 AM 36.3°F 35.2°F / 36.5°F 35.2°F / 37.6°F 29.86 inHg 61% 0.00″
04/01/2016 12:53 AM 36.7°F 36.7°F / 37.6°F 36.7°F / 37.6°F 29.85 inHg 61% 0.00″
03/31/2016 11:53 PM 37.4°F 37.2°F / 38.3°F 33.3°F / 52.2°F 29.86 inHg 60% 0.00″
03/31/2016 10:52 PM 37.9°F 37.4°F / 40.5°F 33.3°F / 52.2°F 29.87 inHg 60% 0.00″
03/31/2016 09:52 PM 40.6°F 40.6°F / 42.1°F 33.3°F / 52.2°F 29.85 inHg 53% 0.00″
03/31/2016 08:52 PM 42.1°F 41.9°F / 43.3°F 33.3°F / 52.2°F 29.82 inHg 51% 0.00″
03/31/2016 07:52 PM 43.3°F 43.3°F / 46.2°F 33.3°F / 52.2°F 29.77 inHg 44% 0.00″
03/31/2016 06:52 PM 46.2°F 44.1°F / 46.6°F 33.3°F / 52.2°F 29.75 inHg 38% 0.00″
03/31/2016 05:52 PM 46.9°F 46.9°F / 52.2°F 33.3°F / 52.2°F 29.73 inHg 34% 0.00″
03/31/2016 04:52 PM 47.8°F 47.1°F / 48.9°F 33.3°F / 52.0°F 29.75 inHg 34% 0.00″
03/31/2016 03:52 PM 51.1°F 47.3°F / 52.0°F 33.3°F / 52.0°F 29.75 inHg 28% 0.00″
03/31/2016 02:52 PM 48.9°F 48.9°F / 51.6°F 33.3°F / 51.6°F 29.76 inHg 29% 0.00″
03/31/2016 01:52 PM 49.1°F 45.5°F / 49.5°F 33.3°F / 49.5°F 29.77 inHg 30% 0.00″
03/31/2016 12:52 PM 48.7°F 45.0°F / 49.5°F 33.3°F / 49.5°F 29.78 inHg 30% 0.00″
03/31/2016 11:52 AM 44.8°F 42.6°F / 45.0°F 33.3°F / 45.0°F 29.81 inHg 36% 0.00″
03/31/2016 10:52 AM 43.0°F 43.0°F / 44.6°F 33.3°F / 44.6°F 29.81 inHg 37% 0.00″
03/31/2016 09:52 AM 43.0°F 40.6°F / 43.5°F 33.3°F / 43.5°F 29.81 inHg 40% 0.00″
03/31/2016 08:52 AM 39.2°F 34.3°F / 39.2°F 33.3°F / 39.9°F 29.81 inHg 42% 0.00″
03/31/2016 07:52 AM 34.0°F 33.4°F / 34.9°F 33.3°F / 39.9°F 29.81 inHg 50% 0.00″
03/31/2016 06:52 AM 34.3°F 33.3°F / 36.3°F 33.3°F / 39.9°F 29.79 inHg 49% 0.00″
03/31/2016 05:52 AM 36.9°F 36.3°F / 37.6°F 36.3°F / 39.9°F 29.79 inHg 46% 0.00″
03/31/2016 04:51 AM 36.7°F 36.7°F / 37.8°F 36.7°F / 39.9°F 29.79 inHg 37% 0.00″
03/31/2016 03:51 AM 37.6°F 37.4°F / 37.9°F 37.4°F / 39.9°F 29.78 inHg 34% 0.00″
03/31/2016 02:51 AM 37.9°F 37.8°F / 38.7°F 37.8°F / 39.9°F 29.77 inHg 34% 0.00″
03/31/2016 01:51 AM 38.8°F 38.7°F / 39.6°F 38.7°F / 39.9°F 29.78 inHg 35% 0.00″
03/31/2016 12:51 AM 39.7°F 39.6°F / 39.9°F 39.6°F / 39.9°F 29.76 inHg 31% 0.00″
03/30/2016 11:51 PM 40.3°F 40.3°F / 41.9°F 38.7°F / 52.5°F 29.76 inHg 30% 0.00″
03/30/2016 10:51 PM 41.4°F 41.4°F / 42.6°F 38.7°F / 52.5°F 29.75 inHg 28% 0.00″
03/30/2016 09:51 PM 43.0°F 42.3°F / 43.0°F 38.7°F / 52.5°F 29.75 inHg 30% 0.00″
03/30/2016 08:51 PM 42.8°F 42.8°F / 44.4°F 38.7°F / 52.5°F 29.73 inHg 31% 0.00″
03/30/2016 07:51 PM 44.8°F 44.8°F / 47.5°F 38.7°F / 52.5°F 29.69 inHg 32% 0.00″
03/30/2016 06:51 PM 48.4°F 48.4°F / 50.5°F 38.7°F / 52.5°F 29.67 inHg 31% 0.00″
03/30/2016 05:51 PM 50.7°F 50.4°F / 52.3°F 38.7°F / 52.5°F 29.65 inHg 29% 0.00″
03/30/2016 04:50 PM 51.6°F 50.9°F / 52.3°F 38.7°F / 52.5°F 29.64 inHg 27% 0.00″
03/30/2016 03:50 PM 51.8°F 50.2°F / 52.5°F 38.7°F / 52.5°F 29.63 inHg 29% 0.00″
03/30/2016 02:50 PM 49.5°F 48.4°F / 51.4°F 38.7°F / 51.4°F 29.63 inHg 35% 0.00″
03/30/2016 01:50 PM 45.9°F 44.8°F / 46.8°F 38.7°F / 50.4°F 29.65 inHg 47% 0.00″
03/30/2016 12:50 PM 44.4°F 43.7°F / 46.2°F 38.7°F / 50.4°F 29.66 inHg 53% 0.00″
03/30/2016 11:50 AM 43.3°F 41.0°F / 43.5°F 38.7°F / 50.4°F 29.68 inHg 56% 0.00″
03/30/2016 10:50 AM 40.8°F 40.8°F / 41.5°F 38.7°F / 50.4°F 29.68 inHg 61% 0.00″
03/30/2016 09:50 AM 41.7°F 41.2°F / 41.9°F 38.7°F / 50.4°F 29.66 inHg 61% 0.00″
03/30/2016 08:50 AM 42.3°F 42.1°F / 43.2°F 38.7°F / 50.4°F 29.65 inHg 63% 0.00″
03/30/2016 07:50 AM 41.9°F 39.6°F / 41.9°F 38.7°F / 50.4°F 29.63 inHg 66% 0.00″
03/30/2016 06:50 AM 39.4°F 38.7°F / 39.4°F 38.7°F / 50.4°F 29.62 inHg 69% 0.00″
03/30/2016 05:50 AM 39.0°F 39.0°F / 41.2°F 39.0°F / 50.4°F 29.61 inHg 64% 0.00″
03/30/2016 04:50 AM 41.4°F 41.4°F / 44.1°F 41.4°F / 50.4°F 29.59 inHg 58% 0.00″
03/30/2016 02:50 AM 45.9°F 45.9°F / 47.3°F 45.9°F / 50.4°F 29.59 inHg 50% 0.00″
03/30/2016 01:50 AM 47.7°F 47.7°F / 48.9°F 47.7°F / 50.4°F 29.61 inHg 45% 0.00″
03/30/2016 12:49 AM 49.5°F 49.5°F / 50.4°F 49.5°F / 50.4°F 29.61 inHg 41% 0.00″
03/29/2016 11:49 PM 50.7°F 50.7°F / 52.3°F 41.4°F / 64.2°F 29.61 inHg 38% 0.00″
03/29/2016 10:49 PM 52.5°F 52.5°F / 53.1°F 41.4°F / 64.2°F 29.61 inHg 34% 0.00″
03/29/2016 09:49 PM 52.7°F 52.7°F / 53.1°F 41.4°F / 64.2°F 29.61 inHg 33% 0.00″
03/29/2016 08:49 PM 52.9°F 52.9°F / 54.1°F 41.4°F / 64.2°F 29.59 inHg 33% 0.00″
03/29/2016 07:49 PM 54.3°F 54.1°F / 56.7°F 41.4°F / 64.2°F 29.58 inHg 29% 0.00″
03/29/2016 06:49 PM 57.4°F 57.4°F / 59.2°F 41.4°F / 64.2°F 29.56 inHg 21% 0.00″
03/29/2016 05:49 PM 59.5°F 59.5°F / 60.3°F 41.4°F / 64.2°F 29.56 inHg 15% 0.00″
03/29/2016 04:49 PM 60.4°F 60.3°F / 60.6°F 41.4°F / 64.2°F 29.56 inHg 13% 0.00″
03/29/2016 03:49 PM 61.0°F 60.8°F / 63.3°F 41.4°F / 64.2°F 29.56 inHg 18% 0.00″
03/29/2016 02:49 PM 64.0°F 61.5°F / 64.0°F 41.4°F / 64.0°F 29.58 inHg 17% 0.00″
03/29/2016 01:49 PM 63.1°F 60.8°F / 63.1°F 41.4°F / 63.1°F 29.59 inHg 19% 0.00″
03/29/2016 12:49 PM 60.8°F 58.6°F / 60.8°F 41.4°F / 60.8°F 29.62 inHg 22% 0.00″
03/29/2016 11:49 AM 59.0°F 57.0°F / 59.7°F 41.4°F / 59.7°F 29.65 inHg 22% 0.00″
03/29/2016 10:49 AM 57.0°F 54.7°F / 57.2°F 41.4°F / 57.2°F 29.65 inHg 24% 0.00″
03/29/2016 09:49 AM 54.3°F 51.3°F / 54.3°F 41.4°F / 54.3°F 29.67 inHg 26% 0.00″
03/29/2016 08:49 AM 50.5°F 42.6°F / 50.5°F 41.4°F / 54.1°F 29.67 inHg 33% 0.00″
03/29/2016 07:49 AM 41.4°F 41.4°F / 43.5°F 41.4°F / 54.1°F 29.66 inHg 46% 0.00″
03/29/2016 06:48 AM 43.5°F 42.1°F / 45.1°F 42.1°F / 54.1°F 29.65 inHg 43% 0.00″
03/29/2016 05:48 AM 43.7°F 43.7°F / 46.9°F 43.7°F / 54.1°F 29.66 inHg 46% 0.00″
03/29/2016 04:48 AM 45.1°F 43.9°F / 48.7°F 43.9°F / 54.1°F 29.66 inHg 43% 0.00″
03/29/2016 03:48 AM 49.6°F 49.6°F / 50.4°F 49.5°F / 54.1°F 29.66 inHg 34% 0.00″
03/29/2016 02:48 AM 50.2°F 49.5°F / 50.7°F 49.5°F / 54.1°F 29.68 inHg 31% 0.00″
03/29/2016 01:48 AM 51.8°F 51.8°F / 53.1°F 51.8°F / 54.1°F 29.68 inHg 30% 0.00″
03/29/2016 12:48 AM 54.0°F 53.4°F / 54.1°F 53.4°F / 54.1°F 29.71 inHg 28% 0.00″
03/28/2016 11:48 PM 53.1°F 50.5°F / 53.1°F 42.1°F / 63.7°F 29.70 inHg 30% 0.00″
03/28/2016 10:48 PM 51.3°F 51.3°F / 54.7°F 42.1°F / 63.7°F 29.73 inHg 29% 0.00″
03/28/2016 09:48 PM 54.1°F 53.4°F / 55.2°F 42.1°F / 63.7°F 29.73 inHg 27% 0.00″
03/28/2016 08:48 PM 54.1°F 54.1°F / 56.5°F 42.1°F / 63.7°F 29.72 inHg 26% 0.00″
03/28/2016 07:48 PM 56.7°F 56.7°F / 59.0°F 42.1°F / 63.7°F 29.72 inHg 21% 0.00″
03/28/2016 06:48 PM 59.7°F 59.7°F / 61.7°F 42.1°F / 63.7°F 29.71 inHg 19% 0.00″
03/28/2016 05:48 PM 61.7°F 61.0°F / 62.2°F 42.1°F / 63.7°F 29.72 inHg 24% 0.00″
03/28/2016 04:48 PM 62.6°F 59.5°F / 62.6°F 42.1°F / 63.7°F 29.73 inHg 23% 0.00″
03/28/2016 03:48 PM 60.8°F 59.9°F / 61.9°F 42.1°F / 63.7°F 29.76 inHg 23% 0.00″
03/28/2016 02:48 PM 61.2°F 61.0°F / 63.7°F 42.1°F / 63.7°F 29.78 inHg 24% 0.00″
03/28/2016 01:48 PM 59.5°F 58.6°F / 60.1°F 42.1°F / 60.3°F 29.82 inHg 25% 0.00″
03/28/2016 12:48 PM 59.7°F 58.5°F / 59.7°F 42.1°F / 59.7°F 29.85 inHg 27% 0.00″
03/28/2016 11:48 AM 58.3°F 57.6°F / 59.0°F 42.1°F / 59.0°F 29.88 inHg 27% 0.00″
03/28/2016 10:48 AM 58.3°F 56.8°F / 58.5°F 42.1°F / 58.5°F 29.90 inHg 26% 0.00″
03/28/2016 09:48 AM 55.9°F 53.4°F / 56.1°F 42.1°F / 56.1°F 29.90 inHg 28% 0.00″
03/28/2016 08:47 AM 51.6°F 47.3°F / 51.6°F 42.1°F / 51.6°F 29.92 inHg 33% 0.00″
03/28/2016 07:47 AM 47.3°F 44.4°F / 47.3°F 42.1°F / 47.7°F 29.93 inHg 36% 0.00″
03/28/2016 06:47 AM 47.5°F 44.1°F / 47.7°F 42.1°F / 47.7°F 29.93 inHg 33% 0.00″
03/28/2016 05:47 AM 44.2°F 43.0°F / 46.6°F 42.1°F / 46.6°F 29.94 inHg 37% 0.00″
03/28/2016 04:47 AM 43.3°F 42.6°F / 44.8°F 42.1°F / 46.6°F 29.95 inHg 36% 0.00″
03/28/2016 03:47 AM 44.8°F 44.8°F / 46.0°F 42.1°F / 46.6°F 29.97 inHg 33% 0.00″
03/28/2016 02:47 AM 46.2°F 42.6°F / 46.6°F 42.1°F / 46.6°F 30.00 inHg 29% 0.00″
03/28/2016 01:47 AM 43.0°F 42.4°F / 43.3°F 42.1°F / 44.6°F 30.02 inHg 31% 0.00″
03/28/2016 12:47 AM 43.3°F 42.1°F / 44.6°F 42.1°F / 44.6°F 30.04 inHg 30% 0.00″
03/27/2016 11:47 PM 46.0°F 44.2°F / 46.4°F 31.6°F / 58.8°F 30.05 inHg 27% 0.00″
03/27/2016 10:47 PM 45.7°F 44.2°F / 45.7°F 31.6°F / 58.8°F 30.06 inHg 26% 0.00″
03/27/2016 09:47 PM 43.3°F 42.4°F / 44.8°F 31.6°F / 58.8°F 30.06 inHg 28% 0.00″
03/27/2016 08:46 PM 45.7°F 45.7°F / 47.5°F 31.6°F / 58.8°F 30.04 inHg 28% 0.00″
03/27/2016 07:46 PM 48.2°F 48.2°F / 54.3°F 31.6°F / 58.8°F 30.03 inHg 27% 0.00″
03/27/2016 06:46 PM 55.6°F 55.6°F / 58.3°F 31.6°F / 58.8°F 30.02 inHg 22% 0.00″
03/27/2016 05:46 PM 58.1°F 57.6°F / 58.8°F 31.6°F / 58.8°F 30.01 inHg 20% 0.00″
03/27/2016 04:46 PM 58.6°F 57.6°F / 58.6°F 31.6°F / 58.8°F 30.03 inHg 24% 0.00″
03/27/2016 03:46 PM 57.4°F 56.5°F / 58.5°F 31.6°F / 58.5°F 30.04 inHg 21% 0.00″
03/27/2016 02:46 PM 56.8°F 55.2°F / 57.6°F 31.6°F / 57.6°F 30.05 inHg 27% 0.00″
03/27/2016 01:46 PM 55.6°F 54.5°F / 56.1°F 31.6°F / 56.1°F 30.07 inHg 27% 0.00″
03/27/2016 12:46 PM 54.5°F 51.1°F / 54.5°F 31.6°F / 54.5°F 30.09 inHg 31% 0.00″
03/27/2016 11:46 AM 52.0°F 49.5°F / 52.0°F 31.6°F / 52.0°F 30.11 inHg 32% 0.00″
03/27/2016 10:46 AM 50.2°F 47.3°F / 50.2°F 31.6°F / 50.2°F 30.09 inHg 33% 0.00″
03/27/2016 09:46 AM 46.9°F 39.4°F / 47.1°F 31.6°F / 47.1°F 30.08 inHg 25% 0.00″
03/27/2016 08:46 AM 37.0°F 33.6°F / 37.0°F 31.6°F / 41.2°F 30.07 inHg 38% 0.00″
03/27/2016 07:46 AM 33.4°F 32.2°F / 33.4°F 31.6°F / 41.2°F 30.05 inHg 38% 0.00″
03/27/2016 06:46 AM 32.0°F 31.6°F / 32.7°F 31.6°F / 41.2°F 30.03 inHg 42% 0.00″
03/27/2016 05:46 AM 34.2°F 33.1°F / 34.2°F 33.1°F / 41.2°F 30.01 inHg 41% 0.00″
03/27/2016 04:45 AM 34.5°F 33.4°F / 34.7°F 33.4°F / 41.2°F 29.99 inHg 42% 0.00″
03/27/2016 03:45 AM 34.0°F 34.0°F / 35.8°F 34.0°F / 41.2°F 29.96 inHg 45% 0.00″
03/27/2016 02:45 AM 35.2°F 34.5°F / 36.3°F 34.5°F / 41.2°F 29.96 inHg 44% 0.00″
03/27/2016 01:45 AM 36.7°F 36.7°F / 38.5°F 36.7°F / 41.2°F 29.95 inHg 43% 0.00″
03/27/2016 12:45 AM 40.3°F 39.7°F / 41.2°F 39.7°F / 41.2°F 29.91 inHg 35% 0.00″
03/26/2016 11:45 PM 41.9°F 40.8°F / 44.1°F 36.9°F / 62.8°F 29.89 inHg 32% 0.00″
03/26/2016 10:45 PM 45.9°F 45.1°F / 46.8°F 36.9°F / 62.8°F 29.87 inHg 27% 0.00″
03/26/2016 09:45 PM 49.3°F 49.3°F / 55.4°F 36.9°F / 62.8°F 29.84 inHg 23% 0.00″
03/26/2016 08:45 PM 55.6°F 55.6°F / 55.9°F 36.9°F / 62.8°F 29.79 inHg 17% 0.00″
03/26/2016 07:45 PM 56.1°F 56.1°F / 57.9°F 36.9°F / 62.8°F 29.77 inHg 17% 0.00″
03/26/2016 06:45 PM 58.6°F 58.6°F / 61.0°F 36.9°F / 62.8°F 29.75 inHg 16% 0.00″
03/26/2016 05:45 PM 60.6°F 60.6°F / 62.6°F 36.9°F / 62.8°F 29.73 inHg 15% 0.00″
03/26/2016 04:45 PM 62.4°F 60.1°F / 62.8°F 36.9°F / 62.8°F 29.72 inHg 16% 0.00″
03/26/2016 03:45 PM 61.9°F 58.6°F / 62.1°F 36.9°F / 62.1°F 29.73 inHg 15% 0.00″
03/26/2016 02:45 PM 60.3°F 57.7°F / 61.0°F 36.9°F / 61.0°F 29.75 inHg 16% 0.00″
03/26/2016 01:45 PM 59.5°F 56.3°F / 60.1°F 36.9°F / 60.1°F 29.76 inHg 17% 0.00″
03/26/2016 12:45 PM 59.4°F 55.2°F / 59.4°F 36.9°F / 59.4°F 29.78 inHg 17% 0.00″
03/26/2016 11:45 AM 56.5°F 55.6°F / 57.4°F 36.9°F / 57.4°F 29.80 inHg 18% 0.00″
03/26/2016 10:45 AM 54.3°F 53.6°F / 55.0°F 36.9°F / 55.0°F 29.81 inHg 20% 0.00″
03/26/2016 09:45 AM 51.6°F 47.3°F / 51.8°F 36.9°F / 51.8°F 29.81 inHg 21% 0.00″
03/26/2016 08:44 AM 42.6°F 40.6°F / 42.6°F 36.9°F / 42.6°F 29.81 inHg 31% 0.00″
03/26/2016 07:44 AM 38.5°F 38.3°F / 39.4°F 36.9°F / 42.4°F 29.79 inHg 32% 0.00″
03/26/2016 06:44 AM 38.7°F 38.5°F / 39.7°F 36.9°F / 42.4°F 29.77 inHg 30% 0.00″
03/26/2016 05:44 AM 37.8°F 36.9°F / 38.5°F 36.9°F / 42.4°F 29.75 inHg 29% 0.00″
03/26/2016 04:44 AM 37.2°F 37.2°F / 38.3°F 37.2°F / 42.4°F 29.75 inHg 28% 0.00″
03/26/2016 03:44 AM 37.4°F 37.2°F / 39.6°F 37.2°F / 42.4°F 29.75 inHg 29% 0.00″
03/26/2016 02:44 AM 38.1°F 38.1°F / 39.0°F 37.2°F / 42.4°F 29.75 inHg 27% 0.00″
03/26/2016 01:44 AM 38.3°F 37.2°F / 41.5°F 37.2°F / 42.4°F 29.74 inHg 26% 0.00″
03/26/2016 12:43 AM 42.4°F 40.6°F / 42.4°F 40.6°F / 42.4°F 29.74 inHg 22% 0.00″
03/25/2016 11:43 PM 42.3°F 42.3°F / 43.5°F 36.1°F / 59.7°F 29.75 inHg 23% 0.00″
03/25/2016 10:43 PM 43.3°F 43.2°F / 44.2°F 36.1°F / 59.7°F 29.74 inHg 22% 0.00″
03/25/2016 09:43 PM 46.9°F 46.9°F / 50.0°F 36.1°F / 59.7°F 29.73 inHg 22% 0.00″
03/25/2016 08:43 PM 49.1°F 48.2°F / 49.3°F 36.1°F / 59.7°F 29.70 inHg 21% 0.00″
03/25/2016 07:43 PM 49.6°F 49.6°F / 55.0°F 36.1°F / 59.7°F 29.68 inHg 21% 0.00″
03/25/2016 06:43 PM 56.7°F 56.7°F / 58.5°F 36.1°F / 59.7°F 29.68 inHg 16% 0.00″
03/25/2016 05:43 PM 58.3°F 58.3°F / 59.5°F 36.1°F / 59.7°F 29.68 inHg 16% 0.00″
03/25/2016 04:43 PM 59.2°F 58.3°F / 59.5°F 36.1°F / 59.7°F 29.69 inHg 16% 0.00″
03/25/2016 03:43 PM 58.6°F 57.7°F / 59.2°F 36.1°F / 59.2°F 29.71 inHg 16% 0.00″
03/25/2016 02:43 PM 58.3°F 56.5°F / 58.3°F 36.1°F / 58.3°F 29.73 inHg 17% 0.00″
03/25/2016 01:43 PM 56.1°F 55.2°F / 56.7°F 36.1°F / 56.7°F 29.76 inHg 20% 0.00″
03/25/2016 12:43 PM 55.6°F 52.9°F / 55.6°F 36.1°F / 55.6°F 29.78 inHg 19% 0.00″
03/25/2016 11:42 AM 52.5°F 51.3°F / 53.6°F 36.1°F / 53.6°F 29.81 inHg 20% 0.00″
03/25/2016 10:42 AM 50.7°F 48.9°F / 51.3°F 36.1°F / 51.3°F 29.83 inHg 21% 0.00″
03/25/2016 09:42 AM 48.9°F 41.9°F / 48.9°F 36.1°F / 48.9°F 29.83 inHg 20% 0.00″
03/25/2016 08:42 AM 39.7°F 37.6°F / 39.7°F 36.1°F / 43.3°F 29.84 inHg 31% 0.00″
03/25/2016 07:42 AM 37.0°F 36.7°F / 39.6°F 36.1°F / 43.3°F 29.84 inHg 30% 0.00″
03/25/2016 06:42 AM 37.9°F 37.9°F / 39.4°F 36.1°F / 43.3°F 29.84 inHg 28% 0.00″
03/25/2016 05:42 AM 36.3°F 36.1°F / 37.0°F 36.1°F / 43.3°F 29.85 inHg 30% 0.00″
03/25/2016 04:42 AM 37.2°F 37.2°F / 40.5°F 37.2°F / 43.3°F 29.85 inHg 29% 0.00″
03/25/2016 03:42 AM 41.7°F 41.5°F / 43.3°F 37.4°F / 43.3°F 29.87 inHg 23% 0.00″
03/25/2016 02:42 AM 43.0°F 41.4°F / 43.2°F 37.4°F / 43.2°F 29.89 inHg 22% 0.00″
03/25/2016 01:41 AM 39.0°F 37.4°F / 39.0°F 37.4°F / 39.6°F 29.92 inHg 27% 0.00″
03/25/2016 12:41 AM 38.3°F 38.3°F / 39.6°F 38.3°F / 39.6°F 29.94 inHg 28% 0.00″
03/24/2016 11:41 PM 39.4°F 38.8°F / 39.9°F 28.8°F / 53.2°F 29.96 inHg 29% 0.00″
03/24/2016 10:41 PM 38.7°F 38.5°F / 39.0°F 28.8°F / 53.2°F 29.96 inHg 31% 0.00″
03/24/2016 09:41 PM 39.4°F 39.2°F / 39.6°F 28.8°F / 53.2°F 29.96 inHg 29% 0.00″
03/24/2016 08:41 PM 40.1°F 39.9°F / 41.5°F 28.8°F / 53.2°F 29.96 inHg 28% 0.00″
03/24/2016 07:41 PM 43.2°F 43.2°F / 49.3°F 28.8°F / 53.2°F 29.96 inHg 28% 0.00″
03/24/2016 06:41 PM 51.1°F 50.9°F / 52.9°F 28.8°F / 53.2°F 29.96 inHg 19% 0.00″
03/24/2016 05:41 PM 52.2°F 51.4°F / 52.7°F 28.8°F / 53.2°F 29.97 inHg 18% 0.00″
03/24/2016 04:41 PM 53.1°F 51.8°F / 53.2°F 28.8°F / 53.2°F 29.99 inHg 20% 0.00″
03/24/2016 03:41 PM 52.9°F 50.9°F / 53.1°F 28.8°F / 53.1°F 30.02 inHg 18% 0.00″
03/24/2016 02:41 PM 51.3°F 50.2°F / 51.8°F 28.8°F / 52.2°F 30.05 inHg 23% 0.00″
03/24/2016 01:40 PM 51.1°F 48.6°F / 51.4°F 28.8°F / 51.4°F 30.07 inHg 25% 0.00″
03/24/2016 12:40 PM 49.5°F 47.1°F / 49.5°F 28.8°F / 49.5°F 30.09 inHg 27% 0.00″
03/24/2016 11:40 AM 46.8°F 45.0°F / 46.8°F 28.8°F / 46.8°F 30.11 inHg 29% 0.00″
03/24/2016 10:40 AM 44.2°F 42.1°F / 44.4°F 28.8°F / 44.4°F 30.13 inHg 33% 0.00″
03/24/2016 09:40 AM 40.8°F 34.3°F / 40.8°F 28.8°F / 40.8°F 30.13 inHg 37% 0.00″
03/24/2016 08:40 AM 31.8°F 29.5°F / 31.8°F 28.8°F / 38.5°F 30.12 inHg 52% 0.00″
03/24/2016 07:40 AM 29.7°F 28.9°F / 29.8°F 28.8°F / 38.5°F 30.10 inHg 50% 0.00″
03/24/2016 06:40 AM 30.2°F 29.5°F / 30.4°F 29.5°F / 38.5°F 30.07 inHg 48% 0.00″
03/24/2016 05:40 AM 31.3°F 29.8°F / 32.2°F 29.8°F / 38.5°F 30.04 inHg 47% 0.00″
03/24/2016 04:39 AM 30.6°F 30.4°F / 34.0°F 30.4°F / 38.5°F 30.02 inHg 48% 0.00″
03/24/2016 03:39 AM 35.2°F 35.2°F / 36.3°F 33.1°F / 38.5°F 30.03 inHg 40% 0.00″
03/24/2016 02:39 AM 34.2°F 33.1°F / 34.3°F 33.1°F / 38.5°F 30.02 inHg 40% 0.00″
03/24/2016 01:39 AM 34.2°F 34.2°F / 36.0°F 34.2°F / 38.5°F 30.02 inHg 39% 0.00″
03/24/2016 12:39 AM 35.2°F 35.2°F / 38.5°F 35.2°F / 38.5°F 30.01 inHg 36% 0.00″
03/23/2016 11:39 PM 37.9°F 37.8°F / 40.1°F 36.5°F / 55.2°F 29.99 inHg 32% 0.00″
03/23/2016 10:39 PM 37.9°F 36.5°F / 37.9°F 36.5°F / 55.2°F 29.96 inHg 31% 0.00″
03/23/2016 09:39 PM 37.0°F 36.9°F / 37.6°F 36.9°F / 55.2°F 29.94 inHg 27% 0.00″
03/23/2016 08:39 PM 38.8°F 38.7°F / 39.7°F 38.7°F / 55.2°F 29.89 inHg 20% 0.00″
03/23/2016 07:39 PM 41.7°F 41.7°F / 44.4°F 39.7°F / 55.2°F 29.85 inHg 16% 0.00″
03/23/2016 06:39 PM 45.9°F 45.9°F / 47.5°F 39.7°F / 55.2°F 29.81 inHg 13% 0.00″
03/23/2016 05:39 PM 47.5°F 47.5°F / 48.4°F 39.7°F / 55.2°F 29.77 inHg 11% 0.00″
03/23/2016 04:39 PM 48.6°F 48.4°F / 49.3°F 39.7°F / 55.2°F 29.72 inHg 12% 0.00″
03/23/2016 03:38 PM 48.4°F 48.4°F / 49.6°F 39.7°F / 55.2°F 29.68 inHg 15% 0.00″
03/23/2016 02:38 PM 49.3°F 47.3°F / 50.4°F 39.7°F / 55.2°F 29.65 inHg 19% 0.00″
03/23/2016 01:38 PM 47.8°F 46.9°F / 49.3°F 39.7°F / 55.2°F 29.64 inHg 22% 0.00″
03/23/2016 12:38 PM 47.5°F 45.1°F / 47.7°F 39.7°F / 55.2°F 29.64 inHg 24% 0.00″
03/23/2016 11:38 AM 45.3°F 44.1°F / 45.7°F 39.7°F / 55.2°F 29.65 inHg 30% 0.00″
03/23/2016 10:38 AM 43.2°F 41.0°F / 44.2°F 39.7°F / 55.2°F 29.64 inHg 35% 0.00″
03/23/2016 09:38 AM 40.1°F 39.9°F / 40.5°F 39.9°F / 55.2°F 29.65 inHg 43% 0.00″
03/23/2016 08:38 AM 40.6°F 40.6°F / 42.3°F 40.6°F / 55.2°F 29.61 inHg 42% 0.00″
03/23/2016 07:38 AM 42.1°F 42.1°F / 44.4°F 42.1°F / 55.2°F 29.59 inHg 37% 0.00″
03/23/2016 06:38 AM 45.1°F 45.0°F / 45.1°F 45.0°F / 55.2°F 29.58 inHg 32% 0.00″
03/23/2016 05:38 AM 45.7°F 45.7°F / 46.0°F 45.7°F / 55.2°F 29.57 inHg 30% 0.00″
03/23/2016 04:38 AM 46.9°F 46.9°F / 48.2°F 46.9°F / 55.2°F 29.57 inHg 29% 0.00″
03/23/2016 03:38 AM 48.7°F 48.7°F / 49.3°F 48.7°F / 55.2°F 29.56 inHg 27% 0.00″
03/23/2016 02:38 AM 50.5°F 50.5°F / 51.3°F 50.5°F / 55.2°F 29.57 inHg 25% 0.00″
03/23/2016 01:38 AM 52.2°F 52.2°F / 53.8°F 52.2°F / 55.2°F 29.57 inHg 21% 0.00″
03/23/2016 12:38 AM 54.0°F 54.0°F / 55.2°F 54.0°F / 55.2°F 29.57 inHg 17% 0.00″
03/22/2016 11:38 PM 55.9°F 55.9°F / 57.0°F 49.6°F / 67.5°F 29.60 inHg 15% 0.00″
03/22/2016 10:38 PM 57.0°F 57.0°F / 57.7°F 49.6°F / 67.5°F 29.60 inHg 13% 0.00″
03/22/2016 09:38 PM 59.0°F 58.8°F / 59.5°F 49.6°F / 67.5°F 29.59 inHg 11% 0.00″
03/22/2016 08:38 PM 60.3°F 60.3°F / 61.0°F 49.6°F / 67.5°F 29.57 inHg 11% 0.00″
03/22/2016 07:38 PM 61.3°F 61.3°F / 62.2°F 49.6°F / 67.5°F 29.56 inHg 12% 0.00″
03/22/2016 06:38 PM 63.0°F 63.0°F / 64.8°F 49.6°F / 67.5°F 29.56 inHg 12% 0.00″
03/22/2016 05:38 PM 65.5°F 65.1°F / 66.4°F 49.6°F / 67.5°F 29.57 inHg 12% 0.00″
03/22/2016 04:38 PM 66.4°F 66.2°F / 66.9°F 49.6°F / 67.5°F 29.62 inHg 10% 0.00″
03/22/2016 03:38 PM 66.2°F 66.2°F / 67.5°F 49.6°F / 67.5°F 29.64 inHg 10% 0.00″
03/22/2016 02:38 PM 66.4°F 64.8°F / 66.6°F 49.6°F / 66.6°F 29.68 inHg 12% 0.00″
03/22/2016 01:38 PM 64.6°F 62.8°F / 64.6°F 49.6°F / 64.6°F 29.70 inHg 15% 0.00″
03/22/2016 12:37 PM 62.2°F 60.3°F / 62.6°F 49.6°F / 62.6°F 29.75 inHg 19% 0.00″
03/22/2016 11:37 AM 58.8°F 58.6°F / 59.7°F 49.6°F / 61.3°F 29.78 inHg 21% 0.00″
03/22/2016 10:37 AM 59.9°F 59.2°F / 61.3°F 49.6°F / 61.3°F 29.79 inHg 21% 0.00″
03/22/2016 09:37 AM 60.3°F 58.3°F / 60.3°F 49.6°F / 60.3°F 29.81 inHg 23% 0.00″
03/22/2016 08:37 AM 56.7°F 55.4°F / 56.7°F 49.6°F / 56.7°F 29.80 inHg 25% 0.00″
03/22/2016 07:37 AM 55.8°F 50.7°F / 55.8°F 49.6°F / 55.8°F 29.80 inHg 25% 0.00″
03/22/2016 06:37 AM 49.8°F 49.8°F / 53.1°F 49.8°F / 55.0°F 29.81 inHg 33% 0.00″
03/22/2016 05:37 AM 54.0°F 53.2°F / 54.3°F 49.8°F / 55.0°F 29.81 inHg 29% 0.00″
03/22/2016 04:37 AM 54.1°F 53.2°F / 54.3°F 49.8°F / 55.0°F 29.83 inHg 27% 0.00″
03/22/2016 03:37 AM 54.9°F 53.6°F / 55.0°F 49.8°F / 55.0°F 29.86 inHg 28% 0.00″
03/22/2016 02:37 AM 53.2°F 50.2°F / 53.4°F 49.8°F / 53.4°F 29.90 inHg 27% 0.00″
03/22/2016 01:37 AM 51.1°F 50.4°F / 52.2°F 49.8°F / 52.3°F 29.92 inHg 30% 0.00″
03/22/2016 12:37 AM 50.2°F 49.8°F / 52.3°F 49.8°F / 52.3°F 29.95 inHg 31% 0.00″
03/21/2016 11:37 PM 53.1°F 51.4°F / 53.2°F 35.1°F / 64.4°F 29.98 inHg 27% 0.00″
03/21/2016 10:37 PM 54.1°F 54.1°F / 55.4°F 35.1°F / 64.4°F 30.01 inHg 26% 0.00″
03/21/2016 09:37 PM 54.3°F 52.9°F / 54.3°F 35.1°F / 64.4°F 30.02 inHg 27% 0.00″
03/21/2016 08:37 PM 50.9°F 50.9°F / 52.5°F 35.1°F / 64.4°F 30.02 inHg 31% 0.00″
03/21/2016 07:37 PM 55.0°F 55.0°F / 59.4°F 35.1°F / 64.4°F 30.02 inHg 27% 0.00″
03/21/2016 06:37 PM 61.0°F 60.6°F / 63.9°F 35.1°F / 64.4°F 30.02 inHg 23% 0.00″
03/21/2016 05:36 PM 63.3°F 63.1°F / 64.2°F 35.1°F / 64.4°F 30.04 inHg 23% 0.00″
03/21/2016 04:36 PM 63.9°F 63.5°F / 64.2°F 35.1°F / 64.2°F 30.06 inHg 24% 0.00″
03/21/2016 03:36 PM 63.1°F 62.6°F / 63.7°F 35.1°F / 64.0°F 30.09 inHg 25% 0.00″
03/21/2016 02:36 PM 63.1°F 61.0°F / 64.0°F 35.1°F / 64.0°F 30.13 inHg 23% 0.00″
03/21/2016 01:36 PM 61.3°F 59.2°F / 61.3°F 35.1°F / 61.3°F 30.18 inHg 24% 0.00″
03/21/2016 12:36 PM 59.4°F 58.3°F / 60.1°F 35.1°F / 60.1°F 30.21 inHg 26% 0.00″
03/21/2016 11:36 AM 58.3°F 56.1°F / 58.3°F 35.1°F / 58.3°F 30.23 inHg 31% 0.00″
03/21/2016 10:36 AM 55.0°F 53.4°F / 55.0°F 35.1°F / 55.0°F 30.25 inHg 32% 0.00″
03/21/2016 09:36 AM 48.9°F 42.8°F / 48.9°F 35.1°F / 48.9°F 30.26 inHg 41% 0.00″
03/21/2016 08:36 AM 39.4°F 37.9°F / 39.4°F 35.1°F / 39.4°F 30.26 inHg 50% 0.00″
03/21/2016 07:36 AM 36.3°F 36.1°F / 37.2°F 35.1°F / 37.4°F 30.26 inHg 47% 0.00″
03/21/2016 06:36 AM 36.5°F 36.5°F / 37.4°F 35.1°F / 37.4°F 30.24 inHg 44% 0.00″
03/21/2016 05:36 AM 35.8°F 35.1°F / 35.8°F 35.1°F / 37.0°F 30.24 inHg 48% 0.00″
03/21/2016 04:36 AM 35.1°F 35.1°F / 36.1°F 35.1°F / 37.0°F 30.24 inHg 51% 0.00″
03/21/2016 03:36 AM 36.0°F 35.8°F / 36.0°F 35.4°F / 37.0°F 30.26 inHg 47% 0.00″
03/21/2016 02:36 AM 35.4°F 35.4°F / 36.1°F 35.4°F / 37.0°F 30.27 inHg 47% 0.00″
03/21/2016 01:36 AM 36.0°F 36.0°F / 37.0°F 36.0°F / 37.0°F 30.28 inHg 45% 0.00″
03/21/2016 12:35 AM 37.0°F 36.9°F / 37.0°F 36.9°F / 37.0°F 30.28 inHg 40% 0.00″
03/20/2016 11:35 PM 37.6°F 37.6°F / 39.6°F 29.5°F / 54.1°F 30.27 inHg 42% 0.00″
03/20/2016 10:35 PM 36.9°F 36.7°F / 39.4°F 29.5°F / 54.1°F 30.27 inHg 50% 0.00″
03/20/2016 09:35 PM 39.2°F 38.3°F / 39.6°F 29.5°F / 54.1°F 30.27 inHg 50% 0.00″
03/20/2016 08:35 PM 39.2°F 39.2°F / 41.4°F 29.5°F / 54.1°F 30.25 inHg 50% 0.00″
03/20/2016 07:35 PM 43.9°F 43.9°F / 49.3°F 29.5°F / 54.1°F 30.22 inHg 45% 0.00″
03/20/2016 06:34 PM 51.8°F 51.6°F / 52.9°F 29.5°F / 54.1°F 30.21 inHg 34% 0.00″
03/20/2016 05:34 PM 52.7°F 52.2°F / 53.1°F 29.5°F / 54.1°F 30.20 inHg 34% 0.00″
03/20/2016 04:34 PM 53.1°F 51.1°F / 54.1°F 29.5°F / 54.1°F 30.20 inHg 39% 0.00″
03/20/2016 03:34 PM 52.3°F 49.6°F / 52.3°F 29.5°F / 52.3°F 30.22 inHg 41% 0.00″
03/20/2016 02:34 PM 49.8°F 48.4°F / 50.2°F 29.5°F / 50.2°F 30.24 inHg 44% 0.00″
03/20/2016 01:34 PM 48.7°F 46.2°F / 49.3°F 29.5°F / 49.3°F 30.26 inHg 48% 0.00″
03/20/2016 12:34 PM 46.0°F 44.8°F / 46.2°F 29.5°F / 46.2°F 30.27 inHg 51% 0.00″
03/20/2016 11:34 AM 43.9°F 41.7°F / 43.9°F 29.5°F / 43.9°F 30.30 inHg 55% 0.00″
03/20/2016 10:34 AM 40.3°F 39.7°F / 40.6°F 29.5°F / 40.6°F 30.30 inHg 61% 0.00″
03/20/2016 09:34 AM 39.2°F 34.3°F / 39.2°F 29.5°F / 39.2°F 30.27 inHg 63% 0.00″
03/20/2016 08:34 AM 31.6°F 30.4°F / 31.6°F 29.5°F / 38.8°F 30.26 inHg 77% 0.00″
03/20/2016 07:34 AM 30.7°F 29.5°F / 30.7°F 29.5°F / 38.8°F 30.24 inHg 76% 0.00″
03/20/2016 06:34 AM 30.2°F 30.2°F / 31.8°F 30.2°F / 38.8°F 30.22 inHg 75% 0.00″
03/20/2016 05:34 AM 34.0°F 34.0°F / 34.3°F 33.6°F / 38.8°F 30.19 inHg 69% 0.00″
03/20/2016 04:33 AM 34.2°F 33.6°F / 34.2°F 33.6°F / 38.8°F 30.18 inHg 69% 0.00″
03/20/2016 03:33 AM 34.0°F 34.0°F / 34.0°F 34.0°F / 38.8°F 30.17 inHg 69% 0.00″
03/20/2016 02:33 AM 34.3°F 34.3°F / 34.5°F 34.3°F / 38.8°F 30.17 inHg 68% 0.00″
03/20/2016 01:33 AM 34.5°F 34.3°F / 35.8°F 34.3°F / 38.8°F 30.17 inHg 67% 0.00″
03/20/2016 12:33 AM 36.1°F 36.1°F / 38.8°F 36.1°F / 38.8°F 30.16 inHg 63% 0.00″
03/19/2016 11:33 PM 37.2°F 37.2°F / 40.5°F 30.6°F / 55.8°F 30.14 inHg 58% 0.00″
03/19/2016 10:33 PM 40.5°F 40.5°F / 41.2°F 30.6°F / 55.8°F 30.12 inHg 53% 0.00″
03/19/2016 09:33 PM 41.4°F 40.6°F / 42.1°F 30.6°F / 55.8°F 30.09 inHg 53% 0.00″
03/19/2016 08:33 PM 43.2°F 41.7°F / 43.2°F 30.6°F / 55.8°F 30.05 inHg 52% 0.00″
03/19/2016 07:33 PM 43.2°F 43.2°F / 47.8°F 30.6°F / 55.8°F 30.03 inHg 53% 0.00″
03/19/2016 06:33 PM 50.9°F 50.7°F / 53.1°F 30.6°F / 55.8°F 30.01 inHg 41% 0.00″
03/19/2016 05:33 PM 54.0°F 54.0°F / 55.8°F 30.6°F / 55.8°F 29.99 inHg 39% 0.00″
03/19/2016 04:33 PM 55.2°F 52.7°F / 55.4°F 30.6°F / 55.4°F 29.99 inHg 39% 0.00″
03/19/2016 03:33 PM 52.7°F 51.3°F / 53.2°F 30.6°F / 53.2°F 30.00 inHg 40% 0.00″
03/19/2016 02:33 PM 51.4°F 50.4°F / 51.4°F 30.6°F / 51.4°F 30.01 inHg 45% 0.00″
03/11/2016 09:51 AM 49.6°F 47.8°F / 50.0°F 35.1°F / 50.0°F 30.09 inHg 34% 0.00″
03/11/2016 08:51 AM 47.3°F 38.5°F / 47.3°F 35.1°F / 47.3°F 30.10 inHg 34% 0.00″
03/11/2016 07:51 AM 36.9°F 35.4°F / 36.9°F 35.1°F / 46.4°F 30.09 inHg 45% 0.00″
03/11/2016 06:51 AM 36.3°F 35.1°F / 37.0°F 35.1°F / 46.4°F 30.08 inHg 42% 0.00″
03/11/2016 05:51 AM 35.2°F 35.2°F / 36.0°F 35.2°F / 46.4°F 30.07 inHg 42% 0.00″
03/11/2016 04:51 AM 36.3°F 35.4°F / 36.5°F 35.4°F / 46.4°F 30.07 inHg 40% 0.00″
03/11/2016 03:51 AM 36.3°F 36.1°F / 36.9°F 36.1°F / 46.4°F 30.06 inHg 40% 0.00″
03/11/2016 02:51 AM 36.9°F 36.9°F / 39.0°F 36.9°F / 46.4°F 30.07 inHg 39% 0.00″
03/11/2016 01:51 AM 38.8°F 38.7°F / 40.6°F 38.7°F / 46.4°F 30.09 inHg 38% 0.00″
03/11/2016 12:51 AM 42.6°F 42.6°F / 46.4°F 42.6°F / 46.4°F 30.09 inHg 34% 0.00″
03/10/2016 11:51 PM 46.0°F 44.2°F / 46.0°F 33.4°F / 63.7°F 30.10 inHg 30% 0.00″
03/10/2016 10:51 PM 44.4°F 44.2°F / 44.6°F 33.4°F / 63.7°F 30.11 inHg 32% 0.00″
03/10/2016 09:51 PM 44.8°F 44.1°F / 45.0°F 33.4°F / 63.7°F 30.12 inHg 32% 0.00″
03/10/2016 08:50 PM 45.0°F 45.0°F / 47.5°F 33.4°F / 63.7°F 30.12 inHg 31% 0.00″
03/10/2016 07:50 PM 48.2°F 47.5°F / 48.6°F 33.4°F / 63.7°F 30.11 inHg 27% 0.00″
03/10/2016 06:50 PM 49.1°F 49.1°F / 54.0°F 33.4°F / 63.7°F 30.09 inHg 24% 0.00″
03/10/2016 05:50 PM 56.1°F 56.1°F / 62.2°F 33.4°F / 63.7°F 30.06 inHg 17% 0.00″
03/10/2016 04:50 PM 61.5°F 60.3°F / 63.1°F 33.4°F / 63.7°F 30.05 inHg 12% 0.00″
03/10/2016 03:50 PM 61.9°F 60.4°F / 63.1°F 33.4°F / 63.7°F 30.04 inHg 16% 0.00″
03/10/2016 02:50 PM 62.1°F 59.7°F / 63.7°F 33.4°F / 63.7°F 30.04 inHg 22% 0.00″
03/10/2016 01:50 PM 60.3°F 59.4°F / 61.3°F 33.4°F / 61.3°F 30.05 inHg 17% 0.00″
03/10/2016 12:50 PM 60.1°F 57.9°F / 60.3°F 33.4°F / 60.3°F 30.08 inHg 17% 0.00″
03/10/2016 11:50 AM 59.2°F 56.1°F / 59.2°F 33.4°F / 59.2°F 30.09 inHg 19% 0.00″
03/10/2016 10:50 AM 56.5°F 52.7°F / 56.8°F 33.4°F / 56.8°F 30.10 inHg 22% 0.00″
03/10/2016 09:50 AM 52.3°F 48.7°F / 52.5°F 33.4°F / 52.5°F 30.09 inHg 28% 0.00″
03/10/2016 08:50 AM 47.8°F 41.0°F / 47.8°F 33.4°F / 47.8°F 30.08 inHg 31% 0.00″
03/10/2016 07:50 AM 41.4°F 36.1°F / 41.4°F 33.4°F / 41.4°F 30.07 inHg 34% 0.00″
03/10/2016 06:49 AM 35.2°F 34.0°F / 36.1°F 33.4°F / 40.8°F 30.05 inHg 42% 0.00″
03/10/2016 05:49 AM 36.9°F 35.8°F / 40.5°F 33.4°F / 40.8°F 30.01 inHg 39% 0.00″
03/10/2016 04:49 AM 40.8°F 33.4°F / 40.8°F 33.4°F / 40.8°F 30.01 inHg 33% 0.00″
03/10/2016 03:49 AM 34.5°F 34.5°F / 37.6°F 34.5°F / 37.6°F 29.98 inHg 42% 0.00″
03/10/2016 02:49 AM 35.1°F 34.9°F / 37.0°F 34.5°F / 37.0°F 29.99 inHg 39% 0.00″
03/10/2016 01:49 AM 36.1°F 34.5°F / 36.1°F 34.5°F / 36.1°F 29.99 inHg 39% 0.00″
03/10/2016 12:49 AM 35.1°F 34.9°F / 35.8°F 34.9°F / 35.8°F 30.00 inHg 42% 0.00″
03/09/2016 11:49 PM 35.6°F 34.9°F / 35.8°F 34.9°F / 59.2°F 30.00 inHg 44% 0.00″
03/09/2016 10:49 PM 35.2°F 35.1°F / 36.7°F 35.1°F / 59.2°F 29.99 inHg 45% 0.00″
03/09/2016 09:49 PM 36.9°F 36.9°F / 37.4°F 35.8°F / 59.2°F 29.97 inHg 46% 0.00″
03/09/2016 08:48 PM 36.9°F 36.9°F / 39.4°F 35.8°F / 59.2°F 29.96 inHg 53% 0.00″
03/09/2016 07:48 PM 40.6°F 40.6°F / 44.8°F 35.8°F / 59.2°F 29.94 inHg 47% 0.00″
03/09/2016 06:48 PM 45.3°F 45.3°F / 52.2°F 35.8°F / 59.2°F 29.91 inHg 38% 0.00″
03/09/2016 05:48 PM 52.2°F 52.2°F / 56.1°F 35.8°F / 59.2°F 29.90 inHg 42% 0.00″
03/09/2016 04:48 PM 55.6°F 53.1°F / 57.4°F 35.8°F / 59.2°F 29.88 inHg 39% 0.00″
03/09/2016 03:48 PM 56.5°F 54.1°F / 59.2°F 35.8°F / 59.2°F 29.87 inHg 34% 0.00″
03/09/2016 02:48 PM 57.0°F 53.2°F / 58.5°F 35.8°F / 58.5°F 29.87 inHg 32% 0.00″
03/09/2016 01:48 PM 51.8°F 50.4°F / 53.1°F 35.8°F / 53.1°F 29.90 inHg 38% 0.00″
03/09/2016 12:48 PM 52.9°F 47.8°F / 52.9°F 35.8°F / 52.9°F 29.91 inHg 43% 0.00″
03/09/2016 11:48 AM 47.7°F 46.8°F / 48.0°F 35.8°F / 49.6°F 29.95 inHg 50% 0.00″
03/09/2016 10:48 AM 49.3°F 47.8°F / 49.6°F 35.8°F / 49.6°F 29.95 inHg 52% 0.00″
03/09/2016 09:48 AM 49.5°F 45.0°F / 49.5°F 35.8°F / 49.5°F 29.94 inHg 44% 0.00″
03/09/2016 08:48 AM 43.2°F 39.4°F / 43.2°F 35.8°F / 43.2°F 29.91 inHg 59% 0.00″
03/09/2016 07:48 AM 38.5°F 36.1°F / 38.5°F 35.8°F / 38.8°F 29.90 inHg 70% 0.00″
03/09/2016 06:48 AM 36.0°F 36.0°F / 37.0°F 36.0°F / 38.8°F 29.89 inHg 75% 0.00″
03/09/2016 05:48 AM 37.0°F 36.9°F / 37.2°F 36.7°F / 38.8°F 29.84 inHg 73% 0.00″
03/09/2016 04:48 AM 36.9°F 36.9°F / 37.0°F 36.7°F / 38.8°F 29.84 inHg 72% 0.00″
03/09/2016 03:48 AM 36.9°F 36.9°F / 37.4°F 36.9°F / 38.8°F 29.83 inHg 70% 0.00″
03/09/2016 02:48 AM 37.2°F 37.2°F / 38.3°F 37.2°F / 38.8°F 29.83 inHg 63% 0.00″
03/09/2016 01:48 AM 38.3°F 37.9°F / 38.7°F 37.6°F / 38.8°F 29.83 inHg 58% 0.00″
03/09/2016 12:48 AM 38.8°F 37.6°F / 38.8°F 37.6°F / 38.8°F 29.83 inHg 60% 0.00″
03/08/2016 11:48 PM 37.4°F 37.2°F / 38.8°F 31.5°F / 46.9°F 29.83 inHg 65% 0.01″
03/08/2016 10:48 PM 39.0°F 37.4°F / 39.0°F 31.5°F / 46.9°F 29.81 inHg 62% 0.01″
03/08/2016 09:48 PM 38.5°F 37.2°F / 38.7°F 31.5°F / 46.9°F 29.80 inHg 65% 0.01″
03/08/2016 08:48 PM 37.8°F 37.6°F / 37.9°F 31.5°F / 46.9°F 29.78 inHg 71% 0.01″
03/08/2016 07:48 PM 37.8°F 36.0°F / 37.9°F 31.5°F / 46.9°F 29.77 inHg 68% 0.01″
03/08/2016 06:48 PM 37.8°F 37.8°F / 39.7°F 31.5°F / 46.9°F 29.75 inHg 72% 0.01″
03/08/2016 05:47 PM 40.8°F 40.8°F / 43.3°F 31.5°F / 46.9°F 29.74 inHg 64% 0.01″
03/08/2016 04:47 PM 43.3°F 42.6°F / 44.8°F 31.5°F / 46.9°F 29.71 inHg 60% 0.01″
03/08/2016 03:47 PM 39.6°F 39.6°F / 43.5°F 31.5°F / 46.9°F 29.71 inHg 75% 0.01″
03/08/2016 02:47 PM 44.8°F 42.3°F / 46.2°F 31.5°F / 46.9°F 29.68 inHg 58% 0.00″
03/08/2016 01:47 PM 40.8°F 36.0°F / 40.8°F 31.5°F / 46.9°F 29.68 inHg 68% 0.00″
03/08/2016 12:47 PM 36.3°F 36.3°F / 44.1°F 31.5°F / 46.9°F 29.70 inHg 81% 0.00″
03/08/2016 11:47 AM 45.0°F 43.2°F / 45.9°F 31.5°F / 46.9°F 29.67 inHg 47% 0.00″
03/08/2016 10:47 AM 44.1°F 43.7°F / 44.2°F 31.5°F / 46.9°F 29.68 inHg 47% 0.00″
03/08/2016 09:47 AM 46.0°F 44.2°F / 46.9°F 31.5°F / 46.9°F 29.67 inHg 42% 0.00″
03/08/2016 08:47 AM 43.5°F 36.0°F / 43.5°F 31.5°F / 43.5°F 29.65 inHg 44% 0.00″
03/08/2016 07:47 AM 35.4°F 34.3°F / 36.1°F 31.5°F / 39.7°F 29.64 inHg 59% 0.00″
03/08/2016 06:47 AM 34.7°F 31.6°F / 34.9°F 31.5°F / 39.7°F 29.62 inHg 59% 0.00″
03/08/2016 05:47 AM 31.6°F 31.6°F / 34.0°F 31.6°F / 39.7°F 29.63 inHg 63% 0.00″
03/08/2016 04:47 AM 34.3°F 34.3°F / 37.9°F 34.3°F / 39.7°F 29.61 inHg 59% 0.00″
03/08/2016 03:47 AM 37.2°F 35.1°F / 37.2°F 35.1°F / 39.7°F 29.58 inHg 53% 0.00″
03/08/2016 02:47 AM 36.1°F 35.8°F / 38.1°F 35.8°F / 39.7°F 29.59 inHg 55% 0.00″
03/08/2016 01:47 AM 38.5°F 38.3°F / 39.0°F 38.3°F / 39.7°F 29.61 inHg 51% 0.00″
03/08/2016 12:46 AM 38.5°F 38.3°F / 39.7°F 38.3°F / 39.7°F 29.61 inHg 50% 0.00″
03/07/2016 11:46 PM 39.7°F 37.8°F / 40.6°F 37.4°F / 56.5°F 29.61 inHg 45% 0.00″
03/07/2016 10:46 PM 38.3°F 38.3°F / 40.3°F 38.3°F / 56.5°F 29.60 inHg 45% 0.00″
03/07/2016 09:46 PM 41.2°F 41.2°F / 44.8°F 40.1°F / 56.5°F 29.60 inHg 38% 0.00″
03/07/2016 08:46 PM 44.1°F 42.1°F / 44.1°F 40.1°F / 56.5°F 29.59 inHg 34% 0.00″
03/07/2016 07:46 PM 43.9°F 43.9°F / 45.0°F 40.1°F / 56.5°F 29.57 inHg 35% 0.00″
03/07/2016 06:45 PM 45.7°F 45.7°F / 47.8°F 40.1°F / 56.5°F 29.57 inHg 33% 0.00″
03/07/2016 05:45 PM 48.0°F 48.0°F / 50.2°F 40.1°F / 56.5°F 29.55 inHg 30% 0.00″
03/07/2016 04:45 PM 52.2°F 49.5°F / 52.2°F 40.1°F / 56.5°F 29.53 inHg 27% 0.00″
03/07/2016 03:45 PM 51.3°F 50.9°F / 54.1°F 40.1°F / 56.5°F 29.54 inHg 28% 0.00″
03/07/2016 02:45 PM 54.1°F 52.9°F / 55.6°F 40.1°F / 56.5°F 29.56 inHg 22% 0.00″
03/07/2016 01:45 PM 54.9°F 54.1°F / 56.5°F 40.1°F / 56.5°F 29.55 inHg 19% 0.00″
03/07/2016 12:45 PM 54.3°F 53.1°F / 55.0°F 40.1°F / 55.0°F 29.57 inHg 22% 0.00″
03/07/2016 11:45 AM 52.3°F 52.0°F / 53.1°F 40.1°F / 53.1°F 29.60 inHg 25% 0.00″
03/07/2016 10:45 AM 51.6°F 50.4°F / 51.8°F 40.1°F / 52.0°F 29.63 inHg 24% 0.00″
03/07/2016 09:45 AM 49.5°F 48.7°F / 50.0°F 40.1°F / 52.0°F 29.64 inHg 27% 0.00″
03/07/2016 08:45 AM 48.4°F 44.8°F / 48.4°F 40.1°F / 52.0°F 29.64 inHg 28% 0.00″
03/07/2016 07:45 AM 43.5°F 41.5°F / 43.7°F 40.1°F / 52.0°F 29.66 inHg 39% 0.00″
03/07/2016 06:45 AM 40.1°F 40.1°F / 43.0°F 40.1°F / 52.0°F 29.64 inHg 38% 0.00″
03/07/2016 05:45 AM 43.9°F 43.9°F / 45.3°F 43.9°F / 52.0°F 29.63 inHg 32% 0.00″
03/07/2016 04:44 AM 45.5°F 45.1°F / 46.0°F 45.1°F / 52.0°F 29.62 inHg 30% 0.00″
03/07/2016 03:44 AM 46.2°F 46.2°F / 47.1°F 46.2°F / 52.0°F 29.61 inHg 26% 0.00″
03/07/2016 02:44 AM 46.8°F 46.6°F / 47.3°F 46.6°F / 52.0°F 29.60 inHg 24% 0.00″
03/07/2016 01:44 AM 48.0°F 48.0°F / 50.2°F 48.0°F / 52.0°F 29.63 inHg 23% 0.00″
03/07/2016 12:44 AM 50.7°F 50.7°F / 52.0°F 50.7°F / 52.0°F 29.65 inHg 19% 0.00″
03/06/2016 11:44 PM 52.3°F 52.3°F / 53.8°F 52.2°F / 60.4°F 29.66 inHg 17% 0.00″
03/06/2016 10:44 PM 54.0°F 54.0°F / 54.9°F 52.2°F / 60.4°F 29.67 inHg 17% 0.00″
03/06/2016 09:44 PM 54.7°F 52.2°F / 54.9°F 52.2°F / 60.4°F 29.68 inHg 16% 0.00″
03/06/2016 08:44 PM 53.1°F 52.2°F / 53.4°F 52.2°F / 60.4°F 29.68 inHg 17% 0.00″
03/06/2016 07:44 PM 53.4°F 53.2°F / 55.0°F 52.2°F / 60.4°F 29.68 inHg 18% 0.00″
03/06/2016 06:44 PM 54.9°F 54.9°F / 56.5°F 52.2°F / 60.4°F 29.68 inHg 18% 0.00″
03/06/2016 05:44 PM 56.5°F 56.5°F / 56.8°F 52.2°F / 60.4°F 29.68 inHg 18% 0.00″
03/06/2016 04:44 PM 57.2°F 57.2°F / 57.9°F 52.2°F / 60.4°F 29.68 inHg 19% 0.00″
03/06/2016 03:44 PM 58.3°F 57.9°F / 58.5°F 52.2°F / 60.4°F 29.69 inHg 20% 0.00″
03/06/2016 02:44 PM 59.2°F 59.0°F / 59.7°F 52.2°F / 60.4°F 29.71 inHg 18% 0.00″
03/06/2016 01:44 PM 59.2°F 58.6°F / 60.1°F 52.2°F / 60.4°F 29.73 inHg 18% 0.00″
03/06/2016 12:43 PM 58.6°F 58.6°F / 60.3°F 52.2°F / 60.4°F 29.77 inHg 16% 0.00″
03/06/2016 11:43 AM 59.2°F 57.7°F / 59.2°F 52.2°F / 59.4°F 29.80 inHg 18% 0.00″
03/06/2016 10:43 AM 59.2°F 57.7°F / 59.4°F 52.2°F / 59.4°F 29.83 inHg 17% 0.00″
03/06/2016 09:43 AM 56.7°F 55.8°F / 56.7°F 52.2°F / 56.7°F 29.85 inHg 17% 0.00″
03/06/2016 08:43 AM 55.6°F 55.2°F / 55.8°F 52.2°F / 55.8°F 29.87 inHg 19% 0.00″
03/06/2016 07:43 AM 54.9°F 52.3°F / 54.9°F 52.2°F / 55.8°F 29.88 inHg 19% 0.00″
03/06/2016 06:43 AM 52.5°F 52.5°F / 54.5°F 52.2°F / 55.8°F 29.85 inHg 25% 0.00″
03/06/2016 05:43 AM 54.0°F 54.0°F / 54.5°F 52.2°F / 55.8°F 29.89 inHg 20% 0.00″
03/06/2016 04:43 AM 54.3°F 54.3°F / 54.9°F 52.2°F / 55.8°F 29.87 inHg 21% 0.00″
03/06/2016 03:43 AM 54.7°F 54.3°F / 55.2°F 52.2°F / 55.8°F 29.88 inHg 19% 0.00″
03/06/2016 02:43 AM 54.5°F 53.2°F / 54.7°F 52.2°F / 55.8°F 29.90 inHg 17% 0.00″
03/06/2016 01:43 AM 55.8°F 54.7°F / 55.8°F 52.2°F / 55.8°F 29.91 inHg 18% 0.00″
03/06/2016 12:43 AM 54.5°F 52.2°F / 54.5°F 52.2°F / 54.5°F 29.92 inHg 20% 0.00″
03/05/2016 11:43 PM 50.5°F 49.8°F / 52.0°F 42.6°F / 66.7°F 29.93 inHg 22% 0.00″
03/05/2016 10:43 PM 50.9°F 50.2°F / 51.6°F 42.6°F / 66.7°F 29.94 inHg 22% 0.00″
03/05/2016 09:43 PM 49.5°F 48.0°F / 49.5°F 42.6°F / 66.7°F 29.95 inHg 24% 0.00″
03/05/2016 08:43 PM 47.1°F 47.1°F / 48.0°F 42.6°F / 66.7°F 29.94 inHg 28% 0.00″
03/05/2016 07:43 PM 48.6°F 47.8°F / 48.9°F 42.6°F / 66.7°F 29.93 inHg 27% 0.00″
03/05/2016 06:43 PM 50.0°F 49.6°F / 54.1°F 42.6°F / 66.7°F 29.90 inHg 26% 0.00″
03/05/2016 05:42 PM 57.6°F 57.6°F / 62.6°F 42.6°F / 66.7°F 29.90 inHg 18% 0.00″
03/05/2016 04:42 PM 61.0°F 60.6°F / 61.3°F 42.6°F / 66.7°F 29.89 inHg 19% 0.00″
03/05/2016 03:42 PM 60.6°F 60.6°F / 62.1°F 42.6°F / 66.7°F 29.88 inHg 20% 0.00″
03/05/2016 02:42 PM 62.1°F 62.1°F / 66.0°F 42.6°F / 66.7°F 29.91 inHg 17% 0.00″
03/05/2016 01:42 PM 65.8°F 62.4°F / 66.7°F 42.6°F / 66.7°F 29.92 inHg 15% 0.00″
03/05/2016 12:42 PM 63.3°F 63.3°F / 66.0°F 42.6°F / 66.0°F 29.94 inHg 19% 0.00″
03/05/2016 11:42 AM 61.3°F 60.4°F / 63.5°F 42.6°F / 63.5°F 29.97 inHg 18% 0.00″
03/05/2016 10:42 AM 60.4°F 58.8°F / 60.6°F 42.6°F / 60.6°F 29.98 inHg 19% 0.00″
03/05/2016 09:42 AM 58.6°F 56.7°F / 58.8°F 42.6°F / 59.7°F 29.98 inHg 18% 0.00″
03/05/2016 08:42 AM 59.5°F 50.7°F / 59.5°F 42.6°F / 59.5°F 29.97 inHg 23% 0.00″
03/05/2016 07:42 AM 49.6°F 48.7°F / 50.2°F 42.6°F / 51.6°F 29.96 inHg 28% 0.00″
03/05/2016 06:42 AM 48.7°F 48.0°F / 49.3°F 42.6°F / 51.6°F 29.94 inHg 23% 0.00″
03/05/2016 05:42 AM 43.7°F 42.6°F / 44.4°F 42.6°F / 51.6°F 29.94 inHg 28% 0.00″
03/05/2016 04:42 AM 45.3°F 45.1°F / 46.8°F 45.1°F / 51.6°F 29.93 inHg 25% 0.00″
03/05/2016 03:42 AM 51.1°F 48.0°F / 51.1°F 46.6°F / 51.6°F 29.93 inHg 20% 0.00″
03/05/2016 02:42 AM 47.1°F 46.8°F / 51.3°F 46.6°F / 51.6°F 29.93 inHg 26% 0.00″
03/05/2016 01:42 AM 50.5°F 46.6°F / 50.5°F 46.6°F / 50.5°F 29.94 inHg 19% 0.00″
03/05/2016 12:41 AM 46.8°F 46.6°F / 47.1°F 46.6°F / 47.1°F 29.95 inHg 24% 0.00″
03/04/2016 11:41 PM 47.7°F 47.5°F / 48.4°F 46.9°F / 67.3°F 29.95 inHg 23% 0.00″
03/04/2016 10:41 PM 48.0°F 47.8°F / 49.6°F 46.9°F / 67.3°F 29.94 inHg 23% 0.00″
03/04/2016 09:41 PM 49.5°F 49.5°F / 51.3°F 46.9°F / 67.3°F 29.94 inHg 22% 0.00″
03/04/2016 08:41 PM 52.3°F 51.3°F / 52.5°F 46.9°F / 67.3°F 29.93 inHg 19% 0.00″
03/04/2016 07:41 PM 52.5°F 51.4°F / 53.1°F 46.9°F / 67.3°F 29.91 inHg 18% 0.00″
03/04/2016 06:41 PM 53.1°F 53.1°F / 56.5°F 46.9°F / 67.3°F 29.89 inHg 20% 0.00″
03/04/2016 05:41 PM 60.6°F 60.6°F / 64.9°F 46.9°F / 67.3°F 29.88 inHg 13% 0.00″
03/04/2016 04:41 PM 64.9°F 64.9°F / 66.4°F 46.9°F / 67.3°F 29.88 inHg 11% 0.00″
03/04/2016 03:41 PM 66.0°F 64.9°F / 66.7°F 46.9°F / 67.3°F 29.88 inHg 10% 0.00″
03/04/2016 02:40 PM 67.1°F 65.5°F / 67.3°F 46.9°F / 67.3°F 29.89 inHg 9% 0.00″
03/04/2016 01:40 PM 66.0°F 64.8°F / 66.2°F 46.9°F / 66.2°F 29.92 inHg 13% 0.00″
03/04/2016 12:40 PM 65.1°F 63.9°F / 65.1°F 46.9°F / 65.1°F 29.94 inHg 11% 0.00″
03/04/2016 11:40 AM 63.5°F 62.6°F / 64.8°F 46.9°F / 64.8°F 29.96 inHg 11% 0.00″
03/04/2016 10:40 AM 63.5°F 62.1°F / 63.7°F 46.9°F / 63.7°F 29.97 inHg 14% 0.00″
03/04/2016 09:40 AM 61.0°F 56.7°F / 61.0°F 46.9°F / 61.0°F 29.97 inHg 19% 0.00″
03/04/2016 08:40 AM 51.6°F 50.0°F / 51.6°F 46.9°F / 51.6°F 29.97 inHg 33% 0.00″
03/04/2016 07:40 AM 48.9°F 47.5°F / 50.5°F 46.9°F / 50.7°F 29.97 inHg 30% 0.00″
03/04/2016 06:40 AM 47.3°F 46.9°F / 47.5°F 46.9°F / 50.7°F 29.96 inHg 27% 0.00″
03/04/2016 05:40 AM 47